<?xml version='1.0' encoding='UTF-8'?><gpx version="1.1" creator="JPX - https://github.com/jenetics/jpx" xmlns="http://www.topografix.com/GPX/1/1"><trk><trkseg><trkpt lat="44.796699" lon="13.9170682"><ele>19.0</ele><time>2026-04-12T07:19:39.996Z</time></trkpt><trkpt lat="44.7968012" lon="13.9170571"><ele>19.0</ele><time>2026-04-12T07:19:43.995Z</time></trkpt><trkpt lat="44.7968823" lon="13.9169934"><ele>19.0</ele><time>2026-04-12T07:19:45.997Z</time></trkpt><trkpt lat="44.7967652" lon="13.9166867"><ele>19.0</ele><time>2026-04-12T07:19:46.995Z</time></trkpt><trkpt lat="44.7967175" lon="13.9165475"><ele>21.25</ele><time>2026-04-12T07:19:47.998Z</time></trkpt><trkpt lat="44.7966972" lon="13.9163836"><ele>23.5</ele><time>2026-04-12T07:19:50.003Z</time></trkpt><trkpt lat="44.7966757" lon="13.9162324"><ele>25.75</ele><time>2026-04-12T07:19:52.002Z</time></trkpt><trkpt lat="44.7966428" lon="13.9160645"><ele>28.0</ele><time>2026-04-12T07:19:53.995Z</time></trkpt><trkpt lat="44.7966089" lon="13.9158917"><ele>28.4</ele><time>2026-04-12T07:19:56.001Z</time></trkpt><trkpt lat="44.7965919" lon="13.9157172"><ele>28.799999999999997</ele><time>2026-04-12T07:19:57.998Z</time></trkpt><trkpt lat="44.7965854" lon="13.9156289"><ele>29.2</ele><time>2026-04-12T07:19:58.995Z</time></trkpt><trkpt lat="44.7965718" lon="13.9154584"><ele>29.6</ele><time>2026-04-12T07:20:01Z</time></trkpt><trkpt lat="44.7965442" lon="13.9152983"><ele>30.0</ele><time>2026-04-12T07:20:02.997Z</time></trkpt><trkpt lat="44.7965275" lon="13.9152102"><ele>30.0</ele><time>2026-04-12T07:20:03.996Z</time></trkpt><trkpt lat="44.7965055" lon="13.915124"><ele>30.0</ele><time>2026-04-12T07:20:05.001Z</time></trkpt><trkpt lat="44.7964951" lon="13.9150361"><ele>30.0</ele><time>2026-04-12T07:20:05.995Z</time></trkpt><trkpt lat="44.7964799" lon="13.9149467"><ele>30.0</ele><time>2026-04-12T07:20:06.994Z</time></trkpt><trkpt lat="44.7964745" lon="13.9148526"><ele>30.0</ele><time>2026-04-12T07:20:07.995Z</time></trkpt><trkpt lat="44.7964691" lon="13.9147602"><ele>30.0</ele><time>2026-04-12T07:20:09.007Z</time></trkpt><trkpt lat="44.796456" lon="13.9146707"><ele>30.0</ele><time>2026-04-12T07:20:09.999Z</time></trkpt><trkpt lat="44.7964385" lon="13.9145056"><ele>30.6</ele><time>2026-04-12T07:20:11.993Z</time></trkpt><trkpt lat="44.796474" lon="13.9143912"><ele>31.2</ele><time>2026-04-12T07:20:14.001Z</time></trkpt><trkpt lat="44.7965743" lon="13.9143771"><ele>31.799999999999997</ele><time>2026-04-12T07:20:16.001Z</time></trkpt><trkpt lat="44.7966629" lon="13.9143949"><ele>32.4</ele><time>2026-04-12T07:20:19.995Z</time></trkpt><trkpt lat="44.7967752" lon="13.9143822"><ele>33.0</ele><time>2026-04-12T07:20:21.998Z</time></trkpt><trkpt lat="44.7969959" lon="13.9144032"><ele>31.4</ele><time>2026-04-12T07:20:22.997Z</time></trkpt><trkpt lat="44.7970966" lon="13.9143072"><ele>29.799999999999997</ele><time>2026-04-12T07:20:24.996Z</time></trkpt><trkpt lat="44.7971667" lon="13.9142096"><ele>28.2</ele><time>2026-04-12T07:20:27Z</time></trkpt><trkpt lat="44.7972516" lon="13.9141167"><ele>26.6</ele><time>2026-04-12T07:20:28.995Z</time></trkpt><trkpt lat="44.797322" lon="13.9140086"><ele>25.0</ele><time>2026-04-12T07:20:30.996Z</time></trkpt><trkpt lat="44.7973905" lon="13.9139168"><ele>24.666666666666668</ele><time>2026-04-12T07:20:32.996Z</time></trkpt><trkpt lat="44.7974635" lon="13.9138255"><ele>24.333333333333336</ele><time>2026-04-12T07:20:35.006Z</time></trkpt><trkpt lat="44.7975519" lon="13.9137775"><ele>24.0</ele><time>2026-04-12T07:20:37.006Z</time></trkpt><trkpt lat="44.7976289" lon="13.9137843"><ele>23.666666666666668</ele><time>2026-04-12T07:20:38.999Z</time></trkpt><trkpt lat="44.797688" lon="13.9138572"><ele>23.333333333333336</ele><time>2026-04-12T07:20:40.997Z</time></trkpt><trkpt lat="44.7977631" lon="13.9138782"><ele>23.0</ele><time>2026-04-12T07:20:44.003Z</time></trkpt><trkpt lat="44.7978079" lon="13.9138077"><ele>22.833333333333336</ele><time>2026-04-12T07:21:46.006Z</time></trkpt><trkpt lat="44.7978558" lon="13.913743"><ele>22.666666666666668</ele><time>2026-04-12T07:21:52.999Z</time></trkpt><trkpt lat="44.7978676" lon="13.9136522"><ele>22.5</ele><time>2026-04-12T07:21:55Z</time></trkpt><trkpt lat="44.7978913" lon="13.9135059"><ele>22.333333333333332</ele><time>2026-04-12T07:21:56.998Z</time></trkpt><trkpt lat="44.7979325" lon="13.9134037"><ele>22.166666666666664</ele><time>2026-04-12T07:21:58.998Z</time></trkpt><trkpt lat="44.7980171" lon="13.9133594"><ele>22.0</ele><time>2026-04-12T07:22:00.998Z</time></trkpt><trkpt lat="44.7981143" lon="13.9133262"><ele>22.0</ele><time>2026-04-12T07:22:02.999Z</time></trkpt><trkpt lat="44.7982194" lon="13.9132901"><ele>22.0</ele><time>2026-04-12T07:22:05.011Z</time></trkpt><trkpt lat="44.7983103" lon="13.9132451"><ele>22.0</ele><time>2026-04-12T07:22:06.998Z</time></trkpt><trkpt lat="44.7983343" lon="13.9131299"><ele>22.0</ele><time>2026-04-12T07:22:08.995Z</time></trkpt><trkpt lat="44.7982797" lon="13.9130319"><ele>22.0</ele><time>2026-04-12T07:22:11.002Z</time></trkpt><trkpt lat="44.7982151" lon="13.9129158"><ele>22.0</ele><time>2026-04-12T07:22:13.015Z</time></trkpt><trkpt lat="44.7981393" lon="13.9127966"><ele>22.0</ele><time>2026-04-12T07:22:15Z</time></trkpt><trkpt lat="44.7980928" lon="13.912732"><ele>22.0</ele><time>2026-04-12T07:22:16Z</time></trkpt><trkpt lat="44.7980513" lon="13.9126639"><ele>22.0</ele><time>2026-04-12T07:22:17Z</time></trkpt><trkpt lat="44.7980117" lon="13.9125942"><ele>22.0</ele><time>2026-04-12T07:22:18.001Z</time></trkpt><trkpt lat="44.7979719" lon="13.912523"><ele>22.0</ele><time>2026-04-12T07:22:19.007Z</time></trkpt><trkpt lat="44.7979284" lon="13.9124511"><ele>22.0</ele><time>2026-04-12T07:22:20.005Z</time></trkpt><trkpt lat="44.7978822" lon="13.912377"><ele>22.285714285714285</ele><time>2026-04-12T07:22:20.997Z</time></trkpt><trkpt lat="44.7978381" lon="13.9123049"><ele>22.57142857142857</ele><time>2026-04-12T07:22:22.001Z</time></trkpt><trkpt lat="44.7977952" lon="13.9122259"><ele>22.857142857142854</ele><time>2026-04-12T07:22:23.002Z</time></trkpt><trkpt lat="44.7977531" lon="13.9121473"><ele>23.142857142857142</ele><time>2026-04-12T07:22:24Z</time></trkpt><trkpt lat="44.7977151" lon="13.9120728"><ele>23.428571428571427</ele><time>2026-04-12T07:22:24.999Z</time></trkpt><trkpt lat="44.7976748" lon="13.912"><ele>23.71428571428571</ele><time>2026-04-12T07:22:26Z</time></trkpt><trkpt lat="44.797634" lon="13.9119298"><ele>24.0</ele><time>2026-04-12T07:22:26.999Z</time></trkpt><trkpt lat="44.7975926" lon="13.9118599"><ele>24.0</ele><time>2026-04-12T07:22:28.001Z</time></trkpt><trkpt lat="44.7975143" lon="13.9117661"><ele>24.0</ele><time>2026-04-12T07:22:30.002Z</time></trkpt><trkpt lat="44.7974255" lon="13.911714"><ele>24.0</ele><time>2026-04-12T07:22:32Z</time></trkpt><trkpt lat="44.7973357" lon="13.9116898"><ele>24.0</ele><time>2026-04-12T07:22:33.997Z</time></trkpt><trkpt lat="44.7972604" lon="13.9117244"><ele>24.0</ele><time>2026-04-12T07:22:35.995Z</time></trkpt><trkpt lat="44.7971921" lon="13.9117989"><ele>24.0</ele><time>2026-04-12T07:22:38.007Z</time></trkpt><trkpt lat="44.7971346" lon="13.9118788"><ele>24.0</ele><time>2026-04-12T07:22:41.996Z</time></trkpt><trkpt lat="44.7969401" lon="13.9121462"><ele>24.0</ele><time>2026-04-12T07:22:45.005Z</time></trkpt><trkpt lat="44.7968633" lon="13.9122383"><ele>24.166666666666668</ele><time>2026-04-12T07:22:46.992Z</time></trkpt><trkpt lat="44.7967896" lon="13.9123291"><ele>24.333333333333336</ele><time>2026-04-12T07:22:49.003Z</time></trkpt><trkpt lat="44.7967202" lon="13.9124132"><ele>24.5</ele><time>2026-04-12T07:22:51Z</time></trkpt><trkpt lat="44.7966668" lon="13.9125101"><ele>24.666666666666668</ele><time>2026-04-12T07:22:53.002Z</time></trkpt><trkpt lat="44.7966692" lon="13.9126343"><ele>24.833333333333336</ele><time>2026-04-12T07:22:55.001Z</time></trkpt><trkpt lat="44.7966322" lon="13.9127361"><ele>25.0</ele><time>2026-04-12T07:22:58.999Z</time></trkpt><trkpt lat="44.7965825" lon="13.9128573"><ele>25.2</ele><time>2026-04-12T07:23:01.001Z</time></trkpt><trkpt lat="44.7965111" lon="13.9130304"><ele>25.4</ele><time>2026-04-12T07:23:01.994Z</time></trkpt><trkpt lat="44.7964612" lon="13.9131409"><ele>25.6</ele><time>2026-04-12T07:23:02.992Z</time></trkpt><trkpt lat="44.7964069" lon="13.9132616"><ele>25.8</ele><time>2026-04-12T07:23:05.006Z</time></trkpt><trkpt lat="44.7963457" lon="13.9132963"><ele>26.0</ele><time>2026-04-12T07:23:07.997Z</time></trkpt><trkpt lat="44.7962863" lon="13.913255"><ele>25.999999999999996</ele><time>2026-04-12T07:23:11.996Z</time></trkpt><trkpt lat="44.7963536" lon="13.913265"><ele>26.0</ele><time>2026-04-12T07:23:37.999Z</time></trkpt><trkpt lat="44.7963466" lon="13.9133578"><ele>26.0</ele><time>2026-04-12T07:23:44.011Z</time></trkpt><trkpt lat="44.7963023" lon="13.9134799"><ele>26.0</ele><time>2026-04-12T07:23:47.002Z</time></trkpt><trkpt lat="44.7962621" lon="13.9135959"><ele>25.999999999999996</ele><time>2026-04-12T07:23:48.999Z</time></trkpt><trkpt lat="44.79622" lon="13.9136717"><ele>26.0</ele><time>2026-04-12T07:23:51.002Z</time></trkpt><trkpt lat="44.7961386" lon="13.913705"><ele>25.857142857142858</ele><time>2026-04-12T07:23:53.001Z</time></trkpt><trkpt lat="44.7960724" lon="13.9137077"><ele>25.714285714285715</ele><time>2026-04-12T07:23:55Z</time></trkpt><trkpt lat="44.7960102" lon="13.9136762"><ele>25.571428571428573</ele><time>2026-04-12T07:23:56.998Z</time></trkpt><trkpt lat="44.7959452" lon="13.9136287"><ele>25.42857142857143</ele><time>2026-04-12T07:24:00.002Z</time></trkpt><trkpt lat="44.7958758" lon="13.9135887"><ele>25.285714285714285</ele><time>2026-04-12T07:24:06.004Z</time></trkpt><trkpt lat="44.795821" lon="13.9135369"><ele>25.142857142857146</ele><time>2026-04-12T07:24:08Z</time></trkpt><trkpt lat="44.7957508" lon="13.9134663"><ele>25.0</ele><time>2026-04-12T07:24:11.005Z</time></trkpt><trkpt lat="44.7955729" lon="13.9133275"><ele>25.000000000000004</ele><time>2026-04-12T07:24:13.007Z</time></trkpt><trkpt lat="44.7955123" lon="13.9132979"><ele>25.0</ele><time>2026-04-12T07:24:13.993Z</time></trkpt><trkpt lat="44.7954519" lon="13.9132702"><ele>25.0</ele><time>2026-04-12T07:24:15Z</time></trkpt><trkpt lat="44.7953874" lon="13.9132447"><ele>25.0</ele><time>2026-04-12T07:24:16.008Z</time></trkpt><trkpt lat="44.7952669" lon="13.9131982"><ele>25.000000000000004</ele><time>2026-04-12T07:24:18.008Z</time></trkpt><trkpt lat="44.7952029" lon="13.9131786"><ele>25.0</ele><time>2026-04-12T07:24:18.998Z</time></trkpt><trkpt lat="44.7951358" lon="13.9131556"><ele>24.42857142857143</ele><time>2026-04-12T07:24:20.007Z</time></trkpt><trkpt lat="44.7950688" lon="13.913124"><ele>23.857142857142858</ele><time>2026-04-12T07:24:20.999Z</time></trkpt><trkpt lat="44.7949978" lon="13.9130885"><ele>23.285714285714285</ele><time>2026-04-12T07:24:21.994Z</time></trkpt><trkpt lat="44.7949184" lon="13.9130621"><ele>22.714285714285715</ele><time>2026-04-12T07:24:23.004Z</time></trkpt><trkpt lat="44.7948521" lon="13.9130341"><ele>22.142857142857142</ele><time>2026-04-12T07:24:24Z</time></trkpt><trkpt lat="44.7947837" lon="13.9129986"><ele>21.571428571428573</ele><time>2026-04-12T07:24:24.996Z</time></trkpt><trkpt lat="44.7947195" lon="13.9129637"><ele>21.0</ele><time>2026-04-12T07:24:25.996Z</time></trkpt><trkpt lat="44.7946489" lon="13.9129286"><ele>21.0</ele><time>2026-04-12T07:24:26.998Z</time></trkpt><trkpt lat="44.7945895" lon="13.9128964"><ele>21.0</ele><time>2026-04-12T07:24:27.999Z</time></trkpt><trkpt lat="44.7945307" lon="13.9128346"><ele>21.0</ele><time>2026-04-12T07:24:29.009Z</time></trkpt><trkpt lat="44.7944754" lon="13.9127664"><ele>21.0</ele><time>2026-04-12T07:24:29.997Z</time></trkpt><trkpt lat="44.7944257" lon="13.9126912"><ele>21.0</ele><time>2026-04-12T07:24:31.004Z</time></trkpt><trkpt lat="44.7943922" lon="13.9126049"><ele>21.0</ele><time>2026-04-12T07:24:32Z</time></trkpt><trkpt lat="44.7943663" lon="13.9125198"><ele>21.0</ele><time>2026-04-12T07:24:33.002Z</time></trkpt><trkpt lat="44.7943446" lon="13.9123836"><ele>21.166666666666668</ele><time>2026-04-12T07:24:35.001Z</time></trkpt><trkpt lat="44.7943267" lon="13.9122473"><ele>21.333333333333332</ele><time>2026-04-12T07:24:36.996Z</time></trkpt><trkpt lat="44.7943342" lon="13.912153"><ele>21.5</ele><time>2026-04-12T07:24:38.002Z</time></trkpt><trkpt lat="44.7943401" lon="13.9120464"><ele>21.666666666666664</ele><time>2026-04-12T07:24:38.997Z</time></trkpt><trkpt lat="44.7943498" lon="13.9119435"><ele>21.833333333333332</ele><time>2026-04-12T07:24:40.002Z</time></trkpt><trkpt lat="44.7943574" lon="13.9118552"><ele>22.0</ele><time>2026-04-12T07:24:40.995Z</time></trkpt><trkpt lat="44.7943745" lon="13.911709"><ele>22.166666666666664</ele><time>2026-04-12T07:24:42.997Z</time></trkpt><trkpt lat="44.7943861" lon="13.911603"><ele>22.333333333333332</ele><time>2026-04-12T07:24:44.999Z</time></trkpt><trkpt lat="44.7944155" lon="13.9115205"><ele>22.5</ele><time>2026-04-12T07:24:46.998Z</time></trkpt><trkpt lat="44.7944897" lon="13.9114774"><ele>22.666666666666668</ele><time>2026-04-12T07:24:49.997Z</time></trkpt><trkpt lat="44.7945622" lon="13.9114565"><ele>22.833333333333336</ele><time>2026-04-12T07:24:51.999Z</time></trkpt><trkpt lat="44.7946671" lon="13.9114182"><ele>23.0</ele><time>2026-04-12T07:24:54Z</time></trkpt><trkpt lat="44.7948945" lon="13.9113061"><ele>23.0</ele><time>2026-04-12T07:24:55.01Z</time></trkpt><trkpt lat="44.7949779" lon="13.9112479"><ele>23.0</ele><time>2026-04-12T07:24:55.994Z</time></trkpt><trkpt lat="44.7950953" lon="13.9111851"><ele>23.0</ele><time>2026-04-12T07:24:56.994Z</time></trkpt><trkpt lat="44.7951731" lon="13.911149"><ele>23.0</ele><time>2026-04-12T07:24:57.999Z</time></trkpt><trkpt lat="44.7952522" lon="13.9111306"><ele>23.0</ele><time>2026-04-12T07:24:58.997Z</time></trkpt><trkpt lat="44.7953304" lon="13.9111189"><ele>23.666666666666668</ele><time>2026-04-12T07:25:00.012Z</time></trkpt><trkpt lat="44.7954039" lon="13.9111"><ele>24.333333333333336</ele><time>2026-04-12T07:25:01.01Z</time></trkpt><trkpt lat="44.7954688" lon="13.9110642"><ele>25.0</ele><time>2026-04-12T07:25:01.999Z</time></trkpt><trkpt lat="44.7955302" lon="13.9110173"><ele>25.666666666666668</ele><time>2026-04-12T07:25:03.001Z</time></trkpt><trkpt lat="44.7955886" lon="13.910965"><ele>26.333333333333332</ele><time>2026-04-12T07:25:04.007Z</time></trkpt><trkpt lat="44.7956799" lon="13.9108882"><ele>27.0</ele><time>2026-04-12T07:25:05.996Z</time></trkpt><trkpt lat="44.7956648" lon="13.910792"><ele>27.333333333333332</ele><time>2026-04-12T07:25:08.997Z</time></trkpt><trkpt lat="44.7955618" lon="13.9107597"><ele>27.666666666666664</ele><time>2026-04-12T07:25:11.01Z</time></trkpt><trkpt lat="44.7954927" lon="13.9107421"><ele>28.0</ele><time>2026-04-12T07:25:12Z</time></trkpt><trkpt lat="44.795416" lon="13.9107153"><ele>28.333333333333332</ele><time>2026-04-12T07:25:13.005Z</time></trkpt><trkpt lat="44.7953271" lon="13.9106688"><ele>28.666666666666664</ele><time>2026-04-12T07:25:14.001Z</time></trkpt><trkpt lat="44.7952369" lon="13.9106124"><ele>29.0</ele><time>2026-04-12T07:25:15.001Z</time></trkpt><trkpt lat="44.7951481" lon="13.9105565"><ele>28.166666666666664</ele><time>2026-04-12T07:25:16.002Z</time></trkpt><trkpt lat="44.7950609" lon="13.9105049"><ele>27.333333333333332</ele><time>2026-04-12T07:25:16.999Z</time></trkpt><trkpt lat="44.7949822" lon="13.9104561"><ele>26.5</ele><time>2026-04-12T07:25:18.002Z</time></trkpt><trkpt lat="44.7949095" lon="13.9104036"><ele>25.666666666666664</ele><time>2026-04-12T07:25:18.996Z</time></trkpt><trkpt lat="44.7948481" lon="13.9103542"><ele>24.833333333333332</ele><time>2026-04-12T07:25:20.001Z</time></trkpt><trkpt lat="44.7947859" lon="13.9103118"><ele>24.0</ele><time>2026-04-12T07:25:21.002Z</time></trkpt><trkpt lat="44.7947166" lon="13.9102803"><ele>24.0</ele><time>2026-04-12T07:25:22.005Z</time></trkpt><trkpt lat="44.7946438" lon="13.9102546"><ele>24.0</ele><time>2026-04-12T07:25:22.998Z</time></trkpt><trkpt lat="44.7945644" lon="13.910226"><ele>24.0</ele><time>2026-04-12T07:25:23.996Z</time></trkpt><trkpt lat="44.794487" lon="13.9102036"><ele>24.0</ele><time>2026-04-12T07:25:25.001Z</time></trkpt><trkpt lat="44.7944063" lon="13.9101827"><ele>24.0</ele><time>2026-04-12T07:25:26.02Z</time></trkpt><trkpt lat="44.7943265" lon="13.9101561"><ele>24.0</ele><time>2026-04-12T07:25:27.032Z</time></trkpt><trkpt lat="44.794245" lon="13.9101331"><ele>23.833333333333332</ele><time>2026-04-12T07:25:28.001Z</time></trkpt><trkpt lat="44.7941666" lon="13.9101107"><ele>23.666666666666668</ele><time>2026-04-12T07:25:29.004Z</time></trkpt><trkpt lat="44.7940888" lon="13.9100906"><ele>23.5</ele><time>2026-04-12T07:25:30Z</time></trkpt><trkpt lat="44.7940092" lon="13.9100692"><ele>23.333333333333336</ele><time>2026-04-12T07:25:30.999Z</time></trkpt><trkpt lat="44.7939315" lon="13.9100549"><ele>23.166666666666668</ele><time>2026-04-12T07:25:31.997Z</time></trkpt><trkpt lat="44.793854" lon="13.9100432"><ele>23.0</ele><time>2026-04-12T07:25:33Z</time></trkpt><trkpt lat="44.7937769" lon="13.9100377"><ele>23.0</ele><time>2026-04-12T07:25:34.009Z</time></trkpt><trkpt lat="44.7937011" lon="13.9100356"><ele>23.0</ele><time>2026-04-12T07:25:34.998Z</time></trkpt><trkpt lat="44.7936212" lon="13.9100353"><ele>23.0</ele><time>2026-04-12T07:25:35.997Z</time></trkpt><trkpt lat="44.7935511" lon="13.9100419"><ele>23.0</ele><time>2026-04-12T07:25:37.003Z</time></trkpt><trkpt lat="44.7934743" lon="13.91004"><ele>23.0</ele><time>2026-04-12T07:25:38.003Z</time></trkpt><trkpt lat="44.7933881" lon="13.9100485"><ele>23.0</ele><time>2026-04-12T07:25:39.002Z</time></trkpt><trkpt lat="44.7933071" lon="13.9100475"><ele>22.833333333333336</ele><time>2026-04-12T07:25:39.997Z</time></trkpt><trkpt lat="44.7932252" lon="13.9100485"><ele>22.666666666666668</ele><time>2026-04-12T07:25:40.999Z</time></trkpt><trkpt lat="44.7931466" lon="13.9100539"><ele>22.5</ele><time>2026-04-12T07:25:42.007Z</time></trkpt><trkpt lat="44.7930638" lon="13.910066"><ele>22.333333333333332</ele><time>2026-04-12T07:25:42.999Z</time></trkpt><trkpt lat="44.7929852" lon="13.9100775"><ele>22.166666666666664</ele><time>2026-04-12T07:25:44Z</time></trkpt><trkpt lat="44.792908" lon="13.9100873"><ele>22.0</ele><time>2026-04-12T07:25:45.002Z</time></trkpt><trkpt lat="44.7928377" lon="13.9100976"><ele>22.0</ele><time>2026-04-12T07:25:46.024Z</time></trkpt><trkpt lat="44.7927732" lon="13.9101122"><ele>22.0</ele><time>2026-04-12T07:25:47.006Z</time></trkpt><trkpt lat="44.7926753" lon="13.9101365"><ele>22.0</ele><time>2026-04-12T07:25:49.002Z</time></trkpt><trkpt lat="44.7926096" lon="13.9101632"><ele>22.0</ele><time>2026-04-12T07:25:51Z</time></trkpt><trkpt lat="44.7925419" lon="13.9102808"><ele>22.0</ele><time>2026-04-12T07:25:54.004Z</time></trkpt><trkpt lat="44.7924966" lon="13.9104278"><ele>22.0</ele><time>2026-04-12T07:25:56.006Z</time></trkpt><trkpt lat="44.7924515" lon="13.9105815"><ele>22.0</ele><time>2026-04-12T07:25:58.002Z</time></trkpt><trkpt lat="44.7924081" lon="13.9107258"><ele>22.0</ele><time>2026-04-12T07:26:00.02Z</time></trkpt><trkpt lat="44.7923639" lon="13.9108782"><ele>22.0</ele><time>2026-04-12T07:26:01.998Z</time></trkpt><trkpt lat="44.7922956" lon="13.911035"><ele>21.333333333333332</ele><time>2026-04-12T07:26:03.997Z</time></trkpt><trkpt lat="44.7922474" lon="13.9111192"><ele>20.666666666666664</ele><time>2026-04-12T07:26:04.998Z</time></trkpt><trkpt lat="44.7921955" lon="13.9112018"><ele>20.0</ele><time>2026-04-12T07:26:05.997Z</time></trkpt><trkpt lat="44.7921443" lon="13.9112823"><ele>19.333333333333332</ele><time>2026-04-12T07:26:06.998Z</time></trkpt><trkpt lat="44.7920952" lon="13.9113561"><ele>18.666666666666668</ele><time>2026-04-12T07:26:07.998Z</time></trkpt><trkpt lat="44.7920436" lon="13.9114329"><ele>18.0</ele><time>2026-04-12T07:26:09.004Z</time></trkpt><trkpt lat="44.7919887" lon="13.9115129"><ele>18.0</ele><time>2026-04-12T07:26:10.002Z</time></trkpt><trkpt lat="44.7919297" lon="13.9115941"><ele>18.0</ele><time>2026-04-12T07:26:11.038Z</time></trkpt><trkpt lat="44.7918727" lon="13.9116719"><ele>18.0</ele><time>2026-04-12T07:26:12.027Z</time></trkpt><trkpt lat="44.7918142" lon="13.9117461"><ele>18.0</ele><time>2026-04-12T07:26:12.997Z</time></trkpt><trkpt lat="44.7917532" lon="13.9118213"><ele>18.0</ele><time>2026-04-12T07:26:13.997Z</time></trkpt><trkpt lat="44.7916939" lon="13.9118935"><ele>18.0</ele><time>2026-04-12T07:26:15.002Z</time></trkpt><trkpt lat="44.7916341" lon="13.9119683"><ele>17.666666666666668</ele><time>2026-04-12T07:26:16.01Z</time></trkpt><trkpt lat="44.7915719" lon="13.9120388"><ele>17.333333333333332</ele><time>2026-04-12T07:26:17.005Z</time></trkpt><trkpt lat="44.7915061" lon="13.9121025"><ele>17.0</ele><time>2026-04-12T07:26:17.999Z</time></trkpt><trkpt lat="44.7914326" lon="13.9121547"><ele>16.666666666666664</ele><time>2026-04-12T07:26:18.998Z</time></trkpt><trkpt lat="44.791354" lon="13.9121934"><ele>16.333333333333332</ele><time>2026-04-12T07:26:19.996Z</time></trkpt><trkpt lat="44.7912727" lon="13.9122226"><ele>16.0</ele><time>2026-04-12T07:26:20.995Z</time></trkpt><trkpt lat="44.7911902" lon="13.9122404"><ele>15.999999999999998</ele><time>2026-04-12T07:26:21.996Z</time></trkpt><trkpt lat="44.7911055" lon="13.9122515"><ele>16.0</ele><time>2026-04-12T07:26:22.996Z</time></trkpt><trkpt lat="44.7910201" lon="13.9122588"><ele>16.0</ele><time>2026-04-12T07:26:24.001Z</time></trkpt><trkpt lat="44.7909365" lon="13.9122733"><ele>16.0</ele><time>2026-04-12T07:26:24.998Z</time></trkpt><trkpt lat="44.7908532" lon="13.9122951"><ele>15.999999999999998</ele><time>2026-04-12T07:26:26Z</time></trkpt><trkpt lat="44.7907751" lon="13.9123184"><ele>16.0</ele><time>2026-04-12T07:26:27.001Z</time></trkpt><trkpt lat="44.7906987" lon="13.9123411"><ele>16.142857142857142</ele><time>2026-04-12T07:26:27.995Z</time></trkpt><trkpt lat="44.7906254" lon="13.912361"><ele>16.285714285714285</ele><time>2026-04-12T07:26:28.998Z</time></trkpt><trkpt lat="44.7905569" lon="13.9123792"><ele>16.428571428571427</ele><time>2026-04-12T07:26:30.04Z</time></trkpt><trkpt lat="44.790491" lon="13.9123939"><ele>16.57142857142857</ele><time>2026-04-12T07:26:30.998Z</time></trkpt><trkpt lat="44.7904206" lon="13.9124116"><ele>16.714285714285715</ele><time>2026-04-12T07:26:31.997Z</time></trkpt><trkpt lat="44.7903494" lon="13.9124294"><ele>16.857142857142854</ele><time>2026-04-12T07:26:32.999Z</time></trkpt><trkpt lat="44.7902795" lon="13.9124475"><ele>17.0</ele><time>2026-04-12T07:26:33.997Z</time></trkpt><trkpt lat="44.7902022" lon="13.9124537"><ele>16.666666666666668</ele><time>2026-04-12T07:26:34.999Z</time></trkpt><trkpt lat="44.7901239" lon="13.912456"><ele>16.333333333333336</ele><time>2026-04-12T07:26:36Z</time></trkpt><trkpt lat="44.7900448" lon="13.912459"><ele>16.0</ele><time>2026-04-12T07:26:37.008Z</time></trkpt><trkpt lat="44.7899681" lon="13.9124638"><ele>15.666666666666668</ele><time>2026-04-12T07:26:37.998Z</time></trkpt><trkpt lat="44.78989" lon="13.9124659"><ele>15.333333333333334</ele><time>2026-04-12T07:26:38.997Z</time></trkpt><trkpt lat="44.7898135" lon="13.9124727"><ele>15.0</ele><time>2026-04-12T07:26:40.004Z</time></trkpt><trkpt lat="44.7897398" lon="13.9124746"><ele>15.0</ele><time>2026-04-12T07:26:40.997Z</time></trkpt><trkpt lat="44.7896708" lon="13.9124779"><ele>15.0</ele><time>2026-04-12T07:26:41.995Z</time></trkpt><trkpt lat="44.7896038" lon="13.9124795"><ele>15.0</ele><time>2026-04-12T07:26:42.996Z</time></trkpt><trkpt lat="44.7895393" lon="13.9124794"><ele>15.0</ele><time>2026-04-12T07:26:43.997Z</time></trkpt><trkpt lat="44.7894744" lon="13.9124783"><ele>15.0</ele><time>2026-04-12T07:26:45.009Z</time></trkpt><trkpt lat="44.7894108" lon="13.912477"><ele>15.0</ele><time>2026-04-12T07:26:45.999Z</time></trkpt><trkpt lat="44.7892938" lon="13.9124681"><ele>15.0</ele><time>2026-04-12T07:26:47.999Z</time></trkpt><trkpt lat="44.7892304" lon="13.9124646"><ele>14.833333333333334</ele><time>2026-04-12T07:26:48.996Z</time></trkpt><trkpt lat="44.7891648" lon="13.9124656"><ele>14.666666666666668</ele><time>2026-04-12T07:26:49.995Z</time></trkpt><trkpt lat="44.7890999" lon="13.9124723"><ele>14.5</ele><time>2026-04-12T07:26:50.995Z</time></trkpt><trkpt lat="44.7890234" lon="13.9124875"><ele>14.333333333333334</ele><time>2026-04-12T07:26:52.001Z</time></trkpt><trkpt lat="44.7889405" lon="13.9125065"><ele>14.166666666666668</ele><time>2026-04-12T07:26:52.999Z</time></trkpt><trkpt lat="44.7888571" lon="13.9125267"><ele>14.0</ele><time>2026-04-12T07:26:54.004Z</time></trkpt><trkpt lat="44.7887748" lon="13.9125473"><ele>14.000000000000002</ele><time>2026-04-12T07:26:55.007Z</time></trkpt><trkpt lat="44.7886971" lon="13.9125638"><ele>14.0</ele><time>2026-04-12T07:26:56.001Z</time></trkpt><trkpt lat="44.7886223" lon="13.9125814"><ele>14.0</ele><time>2026-04-12T07:26:57.004Z</time></trkpt><trkpt lat="44.7885556" lon="13.9126016"><ele>14.0</ele><time>2026-04-12T07:26:58.004Z</time></trkpt><trkpt lat="44.7884424" lon="13.9126403"><ele>14.000000000000002</ele><time>2026-04-12T07:27:00.002Z</time></trkpt><trkpt lat="44.7883782" lon="13.912649"><ele>14.0</ele><time>2026-04-12T07:27:00.997Z</time></trkpt><trkpt lat="44.7883068" lon="13.9126582"><ele>14.666666666666668</ele><time>2026-04-12T07:27:02.004Z</time></trkpt><trkpt lat="44.788234" lon="13.91267"><ele>15.333333333333334</ele><time>2026-04-12T07:27:03Z</time></trkpt><trkpt lat="44.7881586" lon="13.9126755"><ele>16.0</ele><time>2026-04-12T07:27:04.001Z</time></trkpt><trkpt lat="44.7880839" lon="13.9126727"><ele>16.666666666666668</ele><time>2026-04-12T07:27:04.999Z</time></trkpt><trkpt lat="44.7880078" lon="13.912662"><ele>17.333333333333332</ele><time>2026-04-12T07:27:05.999Z</time></trkpt><trkpt lat="44.7879327" lon="13.9126537"><ele>18.0</ele><time>2026-04-12T07:27:07.002Z</time></trkpt><trkpt lat="44.7878584" lon="13.9126505"><ele>18.000000000000004</ele><time>2026-04-12T07:27:07.999Z</time></trkpt><trkpt lat="44.7877845" lon="13.9126474"><ele>18.0</ele><time>2026-04-12T07:27:08.999Z</time></trkpt><trkpt lat="44.7877114" lon="13.9126432"><ele>18.0</ele><time>2026-04-12T07:27:09.999Z</time></trkpt><trkpt lat="44.7876345" lon="13.9126409"><ele>18.0</ele><time>2026-04-12T07:27:11.002Z</time></trkpt><trkpt lat="44.7875664" lon="13.9126415"><ele>18.0</ele><time>2026-04-12T07:27:12.004Z</time></trkpt><trkpt lat="44.7874985" lon="13.9126459"><ele>18.000000000000004</ele><time>2026-04-12T07:27:13.001Z</time></trkpt><trkpt lat="44.7874259" lon="13.9126517"><ele>18.0</ele><time>2026-04-12T07:27:13.994Z</time></trkpt><trkpt lat="44.7873519" lon="13.9126586"><ele>19.166666666666668</ele><time>2026-04-12T07:27:14.998Z</time></trkpt><trkpt lat="44.7872798" lon="13.9126651"><ele>20.333333333333336</ele><time>2026-04-12T07:27:15.999Z</time></trkpt><trkpt lat="44.7872056" lon="13.9126734"><ele>21.5</ele><time>2026-04-12T07:27:16.998Z</time></trkpt><trkpt lat="44.7871229" lon="13.9126834"><ele>22.666666666666668</ele><time>2026-04-12T07:27:17.996Z</time></trkpt><trkpt lat="44.7870436" lon="13.9126831"><ele>23.833333333333336</ele><time>2026-04-12T07:27:19.004Z</time></trkpt><trkpt lat="44.7869694" lon="13.9126839"><ele>25.0</ele><time>2026-04-12T07:27:19.999Z</time></trkpt><trkpt lat="44.7868984" lon="13.9126745"><ele>25.42857142857143</ele><time>2026-04-12T07:27:21.003Z</time></trkpt><trkpt lat="44.7868253" lon="13.9126758"><ele>25.857142857142858</ele><time>2026-04-12T07:27:21.995Z</time></trkpt><trkpt lat="44.7867512" lon="13.9126793"><ele>26.285714285714285</ele><time>2026-04-12T07:27:23.004Z</time></trkpt><trkpt lat="44.7866766" lon="13.9126842"><ele>26.714285714285715</ele><time>2026-04-12T07:27:23.996Z</time></trkpt><trkpt lat="44.7866055" lon="13.9126951"><ele>27.142857142857142</ele><time>2026-04-12T07:27:24.997Z</time></trkpt><trkpt lat="44.78653" lon="13.9127033"><ele>27.571428571428573</ele><time>2026-04-12T07:27:25.996Z</time></trkpt><trkpt lat="44.7864533" lon="13.9127015"><ele>28.0</ele><time>2026-04-12T07:27:27.003Z</time></trkpt><trkpt lat="44.7863846" lon="13.9126989"><ele>28.000000000000004</ele><time>2026-04-12T07:27:28.001Z</time></trkpt><trkpt lat="44.7863117" lon="13.9127009"><ele>28.0</ele><time>2026-04-12T07:27:28.997Z</time></trkpt><trkpt lat="44.7862471" lon="13.9127051"><ele>28.0</ele><time>2026-04-12T07:27:30.003Z</time></trkpt><trkpt lat="44.7861635" lon="13.9127106"><ele>28.0</ele><time>2026-04-12T07:27:32.002Z</time></trkpt><trkpt lat="44.7860803" lon="13.912699"><ele>28.000000000000004</ele><time>2026-04-12T07:27:34.998Z</time></trkpt><trkpt lat="44.7860296" lon="13.912635"><ele>28.0</ele><time>2026-04-12T07:27:37.999Z</time></trkpt><trkpt lat="44.7859744" lon="13.912487"><ele>28.666666666666668</ele><time>2026-04-12T07:27:41.006Z</time></trkpt><trkpt lat="44.7859041" lon="13.9123436"><ele>29.333333333333336</ele><time>2026-04-12T07:27:42Z</time></trkpt><trkpt lat="44.7858484" lon="13.9122569"><ele>30.0</ele><time>2026-04-12T07:27:42.995Z</time></trkpt><trkpt lat="44.7857976" lon="13.9121857"><ele>30.666666666666664</ele><time>2026-04-12T07:27:43.998Z</time></trkpt><trkpt lat="44.7857468" lon="13.912112"><ele>31.333333333333332</ele><time>2026-04-12T07:27:45.009Z</time></trkpt><trkpt lat="44.7857015" lon="13.9120369"><ele>32.0</ele><time>2026-04-12T07:27:45.998Z</time></trkpt><trkpt lat="44.7856596" lon="13.9119602"><ele>32.0</ele><time>2026-04-12T07:27:46.996Z</time></trkpt><trkpt lat="44.7855942" lon="13.9118263"><ele>32.0</ele><time>2026-04-12T07:27:48.999Z</time></trkpt><trkpt lat="44.7855188" lon="13.9117302"><ele>32.0</ele><time>2026-04-12T07:27:50.996Z</time></trkpt><trkpt lat="44.7854077" lon="13.9116865"><ele>32.0</ele><time>2026-04-12T07:27:52.996Z</time></trkpt><trkpt lat="44.7853008" lon="13.9116757"><ele>32.0</ele><time>2026-04-12T07:27:54.997Z</time></trkpt><trkpt lat="44.7851741" lon="13.9116819"><ele>31.57142857142857</ele><time>2026-04-12T07:27:56.998Z</time></trkpt><trkpt lat="44.7851086" lon="13.9116756"><ele>31.14285714285714</ele><time>2026-04-12T07:27:57.999Z</time></trkpt><trkpt lat="44.7850453" lon="13.9116604"><ele>30.714285714285715</ele><time>2026-04-12T07:27:59Z</time></trkpt><trkpt lat="44.7849802" lon="13.9116295"><ele>30.285714285714285</ele><time>2026-04-12T07:27:59.998Z</time></trkpt><trkpt lat="44.7849133" lon="13.9115773"><ele>29.857142857142858</ele><time>2026-04-12T07:28:01Z</time></trkpt><trkpt lat="44.7848452" lon="13.9115184"><ele>29.42857142857143</ele><time>2026-04-12T07:28:01.996Z</time></trkpt><trkpt lat="44.7847747" lon="13.9114552"><ele>29.000000000000004</ele><time>2026-04-12T07:28:02.997Z</time></trkpt><trkpt lat="44.7847049" lon="13.9113936"><ele>28.999999999999996</ele><time>2026-04-12T07:28:03.998Z</time></trkpt><trkpt lat="44.7846382" lon="13.91133"><ele>29.0</ele><time>2026-04-12T07:28:04.997Z</time></trkpt><trkpt lat="44.7845715" lon="13.9112629"><ele>29.0</ele><time>2026-04-12T07:28:06.005Z</time></trkpt><trkpt lat="44.7845073" lon="13.9111895"><ele>29.0</ele><time>2026-04-12T07:28:06.998Z</time></trkpt><trkpt lat="44.7844509" lon="13.9111057"><ele>28.999999999999996</ele><time>2026-04-12T07:28:07.996Z</time></trkpt><trkpt lat="44.7844038" lon="13.9110113"><ele>29.0</ele><time>2026-04-12T07:28:08.997Z</time></trkpt><trkpt lat="44.7843656" lon="13.9109043"><ele>28.833333333333332</ele><time>2026-04-12T07:28:10.013Z</time></trkpt><trkpt lat="44.7843347" lon="13.9107999"><ele>28.666666666666664</ele><time>2026-04-12T07:28:11.001Z</time></trkpt><trkpt lat="44.7842992" lon="13.9107019"><ele>28.5</ele><time>2026-04-12T07:28:12.001Z</time></trkpt><trkpt lat="44.7842542" lon="13.9106134"><ele>28.333333333333336</ele><time>2026-04-12T07:28:13Z</time></trkpt><trkpt lat="44.784196" lon="13.9105408"><ele>28.166666666666668</ele><time>2026-04-12T07:28:13.997Z</time></trkpt><trkpt lat="44.7841287" lon="13.9104808"><ele>28.0</ele><time>2026-04-12T07:28:14.999Z</time></trkpt><trkpt lat="44.7840598" lon="13.9104258"><ele>28.000000000000004</ele><time>2026-04-12T07:28:16Z</time></trkpt><trkpt lat="44.7839917" lon="13.9103689"><ele>28.0</ele><time>2026-04-12T07:28:16.998Z</time></trkpt><trkpt lat="44.783922" lon="13.9103156"><ele>28.0</ele><time>2026-04-12T07:28:18Z</time></trkpt><trkpt lat="44.7838527" lon="13.9102613"><ele>28.0</ele><time>2026-04-12T07:28:18.999Z</time></trkpt><trkpt lat="44.7837909" lon="13.9101926"><ele>28.000000000000004</ele><time>2026-04-12T07:28:20.003Z</time></trkpt><trkpt lat="44.7837394" lon="13.9101115"><ele>28.0</ele><time>2026-04-12T07:28:21.006Z</time></trkpt><trkpt lat="44.7836908" lon="13.9100209"><ele>27.799999999999997</ele><time>2026-04-12T07:28:21.996Z</time></trkpt><trkpt lat="44.7836493" lon="13.9099263"><ele>27.599999999999998</ele><time>2026-04-12T07:28:23.002Z</time></trkpt><trkpt lat="44.7836113" lon="13.909841"><ele>27.400000000000002</ele><time>2026-04-12T07:28:24.001Z</time></trkpt><trkpt lat="44.7835318" lon="13.9097223"><ele>27.200000000000003</ele><time>2026-04-12T07:28:25.998Z</time></trkpt><trkpt lat="44.7834395" lon="13.9096465"><ele>27.0</ele><time>2026-04-12T07:28:28Z</time></trkpt><trkpt lat="44.7833415" lon="13.9095935"><ele>27.0</ele><time>2026-04-12T07:28:30.002Z</time></trkpt><trkpt lat="44.7832308" lon="13.9095702"><ele>27.000000000000004</ele><time>2026-04-12T07:28:32.002Z</time></trkpt><trkpt lat="44.7831129" lon="13.9095776"><ele>27.000000000000004</ele><time>2026-04-12T07:28:33.997Z</time></trkpt><trkpt lat="44.7830468" lon="13.9095935"><ele>27.0</ele><time>2026-04-12T07:28:35.018Z</time></trkpt><trkpt lat="44.7829804" lon="13.9096147"><ele>27.0</ele><time>2026-04-12T07:28:36.013Z</time></trkpt><trkpt lat="44.7828609" lon="13.9096447"><ele>27.0</ele><time>2026-04-12T07:28:37.999Z</time></trkpt><trkpt lat="44.7827441" lon="13.9096684"><ele>27.0</ele><time>2026-04-12T07:28:40.004Z</time></trkpt><trkpt lat="44.7826801" lon="13.9096913"><ele>27.0</ele><time>2026-04-12T07:28:41.003Z</time></trkpt><trkpt lat="44.7826065" lon="13.909715"><ele>27.0</ele><time>2026-04-12T07:28:42.001Z</time></trkpt><trkpt lat="44.7825229" lon="13.9097395"><ele>27.0</ele><time>2026-04-12T07:28:42.999Z</time></trkpt><trkpt lat="44.7824377" lon="13.9097653"><ele>27.0</ele><time>2026-04-12T07:28:44Z</time></trkpt><trkpt lat="44.7823483" lon="13.9097917"><ele>25.6</ele><time>2026-04-12T07:28:45.001Z</time></trkpt><trkpt lat="44.7822565" lon="13.9098178"><ele>24.200000000000003</ele><time>2026-04-12T07:28:46Z</time></trkpt><trkpt lat="44.7821632" lon="13.9098462"><ele>22.8</ele><time>2026-04-12T07:28:46.998Z</time></trkpt><trkpt lat="44.7820708" lon="13.9098777"><ele>21.4</ele><time>2026-04-12T07:28:48.006Z</time></trkpt><trkpt lat="44.7819789" lon="13.9099074"><ele>20.0</ele><time>2026-04-12T07:28:49.004Z</time></trkpt><trkpt lat="44.7818876" lon="13.9099412"><ele>19.0</ele><time>2026-04-12T07:28:49.996Z</time></trkpt><trkpt lat="44.7817993" lon="13.909981"><ele>18.0</ele><time>2026-04-12T07:28:50.999Z</time></trkpt><trkpt lat="44.7817096" lon="13.9100194"><ele>17.0</ele><time>2026-04-12T07:28:51.999Z</time></trkpt><trkpt lat="44.7816159" lon="13.9100545"><ele>16.0</ele><time>2026-04-12T07:28:52.998Z</time></trkpt><trkpt lat="44.7815209" lon="13.9100854"><ele>15.0</ele><time>2026-04-12T07:28:53.997Z</time></trkpt><trkpt lat="44.7814232" lon="13.9101111"><ele>14.2</ele><time>2026-04-12T07:28:55.004Z</time></trkpt><trkpt lat="44.7813277" lon="13.910137"><ele>13.4</ele><time>2026-04-12T07:28:56.003Z</time></trkpt><trkpt lat="44.7812342" lon="13.9101742"><ele>12.600000000000001</ele><time>2026-04-12T07:28:56.997Z</time></trkpt><trkpt lat="44.7811424" lon="13.910222"><ele>11.8</ele><time>2026-04-12T07:28:58.003Z</time></trkpt><trkpt lat="44.7810567" lon="13.9102733"><ele>11.0</ele><time>2026-04-12T07:28:59.001Z</time></trkpt><trkpt lat="44.7809676" lon="13.9103242"><ele>10.8</ele><time>2026-04-12T07:29:00.002Z</time></trkpt><trkpt lat="44.7808734" lon="13.9103684"><ele>10.600000000000001</ele><time>2026-04-12T07:29:01.001Z</time></trkpt><trkpt lat="44.7807759" lon="13.9104003"><ele>10.4</ele><time>2026-04-12T07:29:02.003Z</time></trkpt><trkpt lat="44.7806755" lon="13.9104186"><ele>10.2</ele><time>2026-04-12T07:29:03.006Z</time></trkpt><trkpt lat="44.7805764" lon="13.9104439"><ele>10.0</ele><time>2026-04-12T07:29:04.005Z</time></trkpt><trkpt lat="44.7804815" lon="13.9104785"><ele>10.0</ele><time>2026-04-12T07:29:05Z</time></trkpt><trkpt lat="44.7803937" lon="13.9105227"><ele>10.0</ele><time>2026-04-12T07:29:06.003Z</time></trkpt><trkpt lat="44.7803171" lon="13.9105735"><ele>10.0</ele><time>2026-04-12T07:29:06.997Z</time></trkpt><trkpt lat="44.7802511" lon="13.9106317"><ele>10.0</ele><time>2026-04-12T07:29:08.002Z</time></trkpt><trkpt lat="44.7801921" lon="13.9107002"><ele>10.0</ele><time>2026-04-12T07:29:08.998Z</time></trkpt><trkpt lat="44.7801339" lon="13.9107641"><ele>10.0</ele><time>2026-04-12T07:29:10.005Z</time></trkpt><trkpt lat="44.780073" lon="13.9108068"><ele>10.333333333333334</ele><time>2026-04-12T07:29:10.998Z</time></trkpt><trkpt lat="44.7800083" lon="13.9108239"><ele>10.666666666666668</ele><time>2026-04-12T07:29:12.005Z</time></trkpt><trkpt lat="44.7799369" lon="13.9108154"><ele>11.0</ele><time>2026-04-12T07:29:12.998Z</time></trkpt><trkpt lat="44.7798568" lon="13.9107805"><ele>11.333333333333334</ele><time>2026-04-12T07:29:14.002Z</time></trkpt><trkpt lat="44.7797704" lon="13.9107337"><ele>11.666666666666666</ele><time>2026-04-12T07:29:15.007Z</time></trkpt><trkpt lat="44.7796825" lon="13.9106991"><ele>12.0</ele><time>2026-04-12T07:29:15.998Z</time></trkpt><trkpt lat="44.7795963" lon="13.9106873"><ele>12.0</ele><time>2026-04-12T07:29:17.003Z</time></trkpt><trkpt lat="44.7795086" lon="13.9106871"><ele>12.0</ele><time>2026-04-12T07:29:18.004Z</time></trkpt><trkpt lat="44.7794208" lon="13.9106912"><ele>12.0</ele><time>2026-04-12T07:29:18.997Z</time></trkpt><trkpt lat="44.7793351" lon="13.9106973"><ele>12.0</ele><time>2026-04-12T07:29:20.003Z</time></trkpt><trkpt lat="44.7792516" lon="13.9107066"><ele>12.0</ele><time>2026-04-12T07:29:20.997Z</time></trkpt><trkpt lat="44.7791665" lon="13.9107156"><ele>12.0</ele><time>2026-04-12T07:29:21.997Z</time></trkpt><trkpt lat="44.7790783" lon="13.9107235"><ele>13.2</ele><time>2026-04-12T07:29:23Z</time></trkpt><trkpt lat="44.7789855" lon="13.91074"><ele>14.399999999999999</ele><time>2026-04-12T07:29:24.002Z</time></trkpt><trkpt lat="44.7788902" lon="13.9107674"><ele>15.600000000000001</ele><time>2026-04-12T07:29:25.002Z</time></trkpt><trkpt lat="44.7787926" lon="13.9108014"><ele>16.8</ele><time>2026-04-12T07:29:25.999Z</time></trkpt><trkpt lat="44.7786971" lon="13.9108338"><ele>18.0</ele><time>2026-04-12T07:29:27.005Z</time></trkpt><trkpt lat="44.7786" lon="13.9108688"><ele>18.166666666666668</ele><time>2026-04-12T07:29:27.997Z</time></trkpt><trkpt lat="44.7785051" lon="13.9109068"><ele>18.333333333333332</ele><time>2026-04-12T07:29:28.996Z</time></trkpt><trkpt lat="44.7784108" lon="13.9109403"><ele>18.5</ele><time>2026-04-12T07:29:30.005Z</time></trkpt><trkpt lat="44.7783218" lon="13.9109618"><ele>18.666666666666664</ele><time>2026-04-12T07:29:30.998Z</time></trkpt><trkpt lat="44.77824" lon="13.9109762"><ele>18.833333333333332</ele><time>2026-04-12T07:29:31.999Z</time></trkpt><trkpt lat="44.7781654" lon="13.9109924"><ele>19.0</ele><time>2026-04-12T07:29:32.997Z</time></trkpt><trkpt lat="44.7780934" lon="13.9110062"><ele>19.428571428571427</ele><time>2026-04-12T07:29:33.995Z</time></trkpt><trkpt lat="44.7780248" lon="13.9110191"><ele>19.857142857142858</ele><time>2026-04-12T07:29:35.003Z</time></trkpt><trkpt lat="44.7779609" lon="13.9110277"><ele>20.285714285714285</ele><time>2026-04-12T07:29:36Z</time></trkpt><trkpt lat="44.777894" lon="13.9110337"><ele>20.714285714285715</ele><time>2026-04-12T07:29:36.998Z</time></trkpt><trkpt lat="44.7778241" lon="13.9110386"><ele>21.142857142857142</ele><time>2026-04-12T07:29:38Z</time></trkpt><trkpt lat="44.7777527" lon="13.9110441"><ele>21.571428571428573</ele><time>2026-04-12T07:29:39.004Z</time></trkpt><trkpt lat="44.7776807" lon="13.9110425"><ele>22.0</ele><time>2026-04-12T07:29:40.002Z</time></trkpt><trkpt lat="44.7776083" lon="13.9110354"><ele>20.833333333333332</ele><time>2026-04-12T07:29:41.002Z</time></trkpt><trkpt lat="44.7775322" lon="13.9110246"><ele>19.666666666666664</ele><time>2026-04-12T07:29:41.999Z</time></trkpt><trkpt lat="44.7774546" lon="13.911016"><ele>18.5</ele><time>2026-04-12T07:29:43.001Z</time></trkpt><trkpt lat="44.7773716" lon="13.9110149"><ele>17.333333333333332</ele><time>2026-04-12T07:29:44.002Z</time></trkpt><trkpt lat="44.777288" lon="13.9110181"><ele>16.166666666666668</ele><time>2026-04-12T07:29:45.004Z</time></trkpt><trkpt lat="44.7772054" lon="13.9110168"><ele>15.0</ele><time>2026-04-12T07:29:46.005Z</time></trkpt><trkpt lat="44.7771226" lon="13.9110087"><ele>15.0</ele><time>2026-04-12T07:29:46.999Z</time></trkpt><trkpt lat="44.777043" lon="13.9109883"><ele>15.0</ele><time>2026-04-12T07:29:47.995Z</time></trkpt><trkpt lat="44.776963" lon="13.9109583"><ele>15.0</ele><time>2026-04-12T07:29:49Z</time></trkpt><trkpt lat="44.7768876" lon="13.9109182"><ele>15.0</ele><time>2026-04-12T07:29:49.997Z</time></trkpt><trkpt lat="44.7768116" lon="13.9108749"><ele>15.0</ele><time>2026-04-12T07:29:51.003Z</time></trkpt><trkpt lat="44.776735" lon="13.9108262"><ele>15.0</ele><time>2026-04-12T07:29:52.002Z</time></trkpt><trkpt lat="44.7766623" lon="13.9107741"><ele>14.857142857142858</ele><time>2026-04-12T07:29:53.004Z</time></trkpt><trkpt lat="44.7765903" lon="13.9107202"><ele>14.714285714285714</ele><time>2026-04-12T07:29:54Z</time></trkpt><trkpt lat="44.7765303" lon="13.91065"><ele>14.571428571428571</ele><time>2026-04-12T07:29:55.015Z</time></trkpt><trkpt lat="44.7764759" lon="13.9105722"><ele>14.428571428571429</ele><time>2026-04-12T07:29:56.006Z</time></trkpt><trkpt lat="44.7764302" lon="13.9104862"><ele>14.285714285714285</ele><time>2026-04-12T07:29:56.999Z</time></trkpt><trkpt lat="44.7763969" lon="13.9104078"><ele>14.142857142857142</ele><time>2026-04-12T07:29:57.999Z</time></trkpt><trkpt lat="44.7763719" lon="13.9103262"><ele>14.0</ele><time>2026-04-12T07:29:59.002Z</time></trkpt><trkpt lat="44.776344" lon="13.910246"><ele>14.000000000000002</ele><time>2026-04-12T07:30:00.002Z</time></trkpt><trkpt lat="44.7763178" lon="13.9101645"><ele>14.0</ele><time>2026-04-12T07:30:00.997Z</time></trkpt><trkpt lat="44.776286" lon="13.9100869"><ele>14.0</ele><time>2026-04-12T07:30:02.003Z</time></trkpt><trkpt lat="44.7762439" lon="13.9100131"><ele>14.0</ele><time>2026-04-12T07:30:03.004Z</time></trkpt><trkpt lat="44.7761552" lon="13.9099104"><ele>14.000000000000002</ele><time>2026-04-12T07:30:05.003Z</time></trkpt><trkpt lat="44.7760434" lon="13.9098864"><ele>14.0</ele><time>2026-04-12T07:30:07Z</time></trkpt><trkpt lat="44.7759291" lon="13.9099263"><ele>14.333333333333334</ele><time>2026-04-12T07:30:09.001Z</time></trkpt><trkpt lat="44.7758138" lon="13.909993"><ele>14.666666666666668</ele><time>2026-04-12T07:30:10.998Z</time></trkpt><trkpt lat="44.7757434" lon="13.9100337"><ele>15.0</ele><time>2026-04-12T07:30:12.001Z</time></trkpt><trkpt lat="44.7756705" lon="13.9100675"><ele>15.333333333333332</ele><time>2026-04-12T07:30:13.006Z</time></trkpt><trkpt lat="44.7755968" lon="13.9100973"><ele>15.666666666666666</ele><time>2026-04-12T07:30:14Z</time></trkpt><trkpt lat="44.7755244" lon="13.9101055"><ele>16.0</ele><time>2026-04-12T07:30:15Z</time></trkpt><trkpt lat="44.7754513" lon="13.9101047"><ele>15.999999999999998</ele><time>2026-04-12T07:30:16.002Z</time></trkpt><trkpt lat="44.7753797" lon="13.9100939"><ele>16.0</ele><time>2026-04-12T07:30:17.001Z</time></trkpt><trkpt lat="44.7753043" lon="13.9100802"><ele>16.0</ele><time>2026-04-12T07:30:18.001Z</time></trkpt><trkpt lat="44.7752301" lon="13.9100701"><ele>16.0</ele><time>2026-04-12T07:30:19.002Z</time></trkpt><trkpt lat="44.7751503" lon="13.9100665"><ele>15.999999999999998</ele><time>2026-04-12T07:30:19.997Z</time></trkpt><trkpt lat="44.7750738" lon="13.9100712"><ele>16.0</ele><time>2026-04-12T07:30:21.002Z</time></trkpt><trkpt lat="44.7749944" lon="13.9100901"><ele>15.999999999999998</ele><time>2026-04-12T07:30:22.001Z</time></trkpt><trkpt lat="44.7749186" lon="13.910118"><ele>16.0</ele><time>2026-04-12T07:30:23.002Z</time></trkpt><trkpt lat="44.7748525" lon="13.9101549"><ele>16.0</ele><time>2026-04-12T07:30:23.995Z</time></trkpt><trkpt lat="44.7747945" lon="13.9102055"><ele>16.0</ele><time>2026-04-12T07:30:25Z</time></trkpt><trkpt lat="44.7747192" lon="13.9103081"><ele>15.999999999999998</ele><time>2026-04-12T07:30:27.006Z</time></trkpt><trkpt lat="44.7746711" lon="13.9104001"><ele>16.0</ele><time>2026-04-12T07:30:28.995Z</time></trkpt><trkpt lat="44.774633" lon="13.9104832"><ele>16.0</ele><time>2026-04-12T07:31:05.01Z</time></trkpt><trkpt lat="44.7745838" lon="13.9105418"><ele>16.0</ele><time>2026-04-12T07:31:08.001Z</time></trkpt><trkpt lat="44.7745187" lon="13.9106024"><ele>16.0</ele><time>2026-04-12T07:31:10.003Z</time></trkpt><trkpt lat="44.7744251" lon="13.9106816"><ele>16.0</ele><time>2026-04-12T07:31:12.004Z</time></trkpt><trkpt lat="44.7743242" lon="13.9107485"><ele>16.0</ele><time>2026-04-12T07:31:13.999Z</time></trkpt><trkpt lat="44.7742242" lon="13.9108095"><ele>17.0</ele><time>2026-04-12T07:31:15.999Z</time></trkpt><trkpt lat="44.7741081" lon="13.9108599"><ele>18.0</ele><time>2026-04-12T07:31:18.005Z</time></trkpt><trkpt lat="44.7739929" lon="13.9108819"><ele>19.0</ele><time>2026-04-12T07:31:20.003Z</time></trkpt><trkpt lat="44.7738694" lon="13.9108885"><ele>20.0</ele><time>2026-04-12T07:31:21.996Z</time></trkpt><trkpt lat="44.773806" lon="13.9108804"><ele>21.0</ele><time>2026-04-12T07:31:22.998Z</time></trkpt><trkpt lat="44.7737429" lon="13.9108723"><ele>21.0</ele><time>2026-04-12T07:31:23.999Z</time></trkpt><trkpt lat="44.773625" lon="13.9108588"><ele>21.0</ele><time>2026-04-12T07:31:26.006Z</time></trkpt><trkpt lat="44.7735334" lon="13.9108404"><ele>21.0</ele><time>2026-04-12T07:31:28.002Z</time></trkpt><trkpt lat="44.7734284" lon="13.9108504"><ele>21.0</ele><time>2026-04-12T07:31:30Z</time></trkpt><trkpt lat="44.7733291" lon="13.9108888"><ele>21.0</ele><time>2026-04-12T07:31:32.001Z</time></trkpt><trkpt lat="44.773228" lon="13.9109368"><ele>20.857142857142858</ele><time>2026-04-12T07:31:34.001Z</time></trkpt><trkpt lat="44.7731649" lon="13.9109528"><ele>20.714285714285715</ele><time>2026-04-12T07:31:34.996Z</time></trkpt><trkpt lat="44.7730993" lon="13.9109552"><ele>20.57142857142857</ele><time>2026-04-12T07:31:35.997Z</time></trkpt><trkpt lat="44.7730343" lon="13.9109472"><ele>20.42857142857143</ele><time>2026-04-12T07:31:37.001Z</time></trkpt><trkpt lat="44.7729688" lon="13.9109305"><ele>20.285714285714285</ele><time>2026-04-12T07:31:38.005Z</time></trkpt><trkpt lat="44.7729043" lon="13.9109203"><ele>20.142857142857142</ele><time>2026-04-12T07:31:39.001Z</time></trkpt><trkpt lat="44.7728399" lon="13.9109102"><ele>20.0</ele><time>2026-04-12T07:31:39.997Z</time></trkpt><trkpt lat="44.772777" lon="13.9108987"><ele>20.0</ele><time>2026-04-12T07:31:41.003Z</time></trkpt><trkpt lat="44.7727121" lon="13.9108886"><ele>20.0</ele><time>2026-04-12T07:31:42.006Z</time></trkpt><trkpt lat="44.7726503" lon="13.9108625"><ele>20.0</ele><time>2026-04-12T07:31:42.996Z</time></trkpt><trkpt lat="44.7725891" lon="13.9108225"><ele>20.0</ele><time>2026-04-12T07:31:43.998Z</time></trkpt><trkpt lat="44.7725294" lon="13.9107717"><ele>20.0</ele><time>2026-04-12T07:31:45Z</time></trkpt><trkpt lat="44.7724775" lon="13.9107118"><ele>20.0</ele><time>2026-04-12T07:31:45.999Z</time></trkpt><trkpt lat="44.7724325" lon="13.9106472"><ele>20.0</ele><time>2026-04-12T07:31:47.006Z</time></trkpt><trkpt lat="44.7723897" lon="13.9105799"><ele>20.333333333333336</ele><time>2026-04-12T07:31:48.004Z</time></trkpt><trkpt lat="44.7723419" lon="13.9105184"><ele>20.666666666666668</ele><time>2026-04-12T07:31:48.992Z</time></trkpt><trkpt lat="44.772288" lon="13.9104627"><ele>21.0</ele><time>2026-04-12T07:31:50.002Z</time></trkpt><trkpt lat="44.7722326" lon="13.9104083"><ele>21.333333333333332</ele><time>2026-04-12T07:31:51.001Z</time></trkpt><trkpt lat="44.7721373" lon="13.9102969"><ele>21.666666666666664</ele><time>2026-04-12T07:31:53.005Z</time></trkpt><trkpt lat="44.7720449" lon="13.9101812"><ele>22.0</ele><time>2026-04-12T07:31:55.001Z</time></trkpt><trkpt lat="44.7719956" lon="13.91011"><ele>21.833333333333332</ele><time>2026-04-12T07:31:56.002Z</time></trkpt><trkpt lat="44.7719509" lon="13.9100285"><ele>21.666666666666664</ele><time>2026-04-12T07:31:57.005Z</time></trkpt><trkpt lat="44.7719043" lon="13.9099408"><ele>21.5</ele><time>2026-04-12T07:31:58.003Z</time></trkpt><trkpt lat="44.7718558" lon="13.909852"><ele>21.333333333333332</ele><time>2026-04-12T07:31:58.999Z</time></trkpt><trkpt lat="44.7718028" lon="13.9097636"><ele>21.166666666666668</ele><time>2026-04-12T07:31:59.998Z</time></trkpt><trkpt lat="44.7717463" lon="13.9096773"><ele>21.0</ele><time>2026-04-12T07:32:01.005Z</time></trkpt><trkpt lat="44.771687" lon="13.9095927"><ele>21.166666666666668</ele><time>2026-04-12T07:32:02.003Z</time></trkpt><trkpt lat="44.7716227" lon="13.9095116"><ele>21.333333333333332</ele><time>2026-04-12T07:32:02.999Z</time></trkpt><trkpt lat="44.7715443" lon="13.9094314"><ele>21.5</ele><time>2026-04-12T07:32:03.996Z</time></trkpt><trkpt lat="44.7714631" lon="13.9093614"><ele>21.666666666666664</ele><time>2026-04-12T07:32:04.992Z</time></trkpt><trkpt lat="44.7713913" lon="13.9093009"><ele>21.833333333333332</ele><time>2026-04-12T07:32:06.004Z</time></trkpt><trkpt lat="44.7713262" lon="13.9092459"><ele>22.0</ele><time>2026-04-12T07:32:07.002Z</time></trkpt><trkpt lat="44.7712646" lon="13.909196"><ele>22.0</ele><time>2026-04-12T07:32:07.997Z</time></trkpt><trkpt lat="44.7712048" lon="13.9091623"><ele>22.0</ele><time>2026-04-12T07:32:08.998Z</time></trkpt><trkpt lat="44.7711437" lon="13.9091305"><ele>22.0</ele><time>2026-04-12T07:32:09.997Z</time></trkpt><trkpt lat="44.771081" lon="13.9090998"><ele>22.0</ele><time>2026-04-12T07:32:10.996Z</time></trkpt><trkpt lat="44.7710176" lon="13.9090757"><ele>22.0</ele><time>2026-04-12T07:32:12Z</time></trkpt><trkpt lat="44.7709557" lon="13.9090559"><ele>22.0</ele><time>2026-04-12T07:32:12.994Z</time></trkpt><trkpt lat="44.7708929" lon="13.9090454"><ele>22.0</ele><time>2026-04-12T07:32:14.001Z</time></trkpt><trkpt lat="44.7708282" lon="13.9090431"><ele>22.571428571428573</ele><time>2026-04-12T07:32:14.999Z</time></trkpt><trkpt lat="44.7707612" lon="13.9090501"><ele>23.142857142857142</ele><time>2026-04-12T07:32:15.995Z</time></trkpt><trkpt lat="44.7706943" lon="13.9090643"><ele>23.714285714285715</ele><time>2026-04-12T07:32:16.996Z</time></trkpt><trkpt lat="44.7706219" lon="13.9090795"><ele>24.285714285714285</ele><time>2026-04-12T07:32:17.998Z</time></trkpt><trkpt lat="44.7705511" lon="13.9090952"><ele>24.857142857142858</ele><time>2026-04-12T07:32:19.002Z</time></trkpt><trkpt lat="44.7704813" lon="13.9091175"><ele>25.428571428571427</ele><time>2026-04-12T07:32:19.998Z</time></trkpt><trkpt lat="44.7704139" lon="13.9091476"><ele>26.0</ele><time>2026-04-12T07:32:20.995Z</time></trkpt><trkpt lat="44.7703516" lon="13.9091934"><ele>25.6</ele><time>2026-04-12T07:32:21.998Z</time></trkpt><trkpt lat="44.7702981" lon="13.9092513"><ele>25.200000000000003</ele><time>2026-04-12T07:32:23.005Z</time></trkpt><trkpt lat="44.7702521" lon="13.90932"><ele>24.799999999999997</ele><time>2026-04-12T07:32:23.997Z</time></trkpt><trkpt lat="44.770178" lon="13.9094602"><ele>24.4</ele><time>2026-04-12T07:32:26.002Z</time></trkpt><trkpt lat="44.770116" lon="13.9095948"><ele>24.0</ele><time>2026-04-12T07:32:27.999Z</time></trkpt><trkpt lat="44.7700589" lon="13.9097295"><ele>24.0</ele><time>2026-04-12T07:32:30Z</time></trkpt><trkpt lat="44.7700198" lon="13.9098481"><ele>24.0</ele><time>2026-04-12T07:32:32.001Z</time></trkpt><trkpt lat="44.7699947" lon="13.9099419"><ele>24.0</ele><time>2026-04-12T07:32:33.996Z</time></trkpt><trkpt lat="44.7699592" lon="13.9100367"><ele>24.0</ele><time>2026-04-12T07:32:36.012Z</time></trkpt><trkpt lat="44.7699242" lon="13.9101333"><ele>24.0</ele><time>2026-04-12T07:32:39.015Z</time></trkpt><trkpt lat="44.7699068" lon="13.9102281"><ele>24.0</ele><time>2026-04-12T07:33:06.003Z</time></trkpt><trkpt lat="44.7699424" lon="13.9103102"><ele>23.999999999999996</ele><time>2026-04-12T07:33:10.007Z</time></trkpt><trkpt lat="44.7700137" lon="13.9103204"><ele>24.0</ele><time>2026-04-12T07:33:14.004Z</time></trkpt><trkpt lat="44.7700678" lon="13.9102646"><ele>24.0</ele><time>2026-04-12T07:49:57.994Z</time></trkpt><trkpt lat="44.7700383" lon="13.9101714"><ele>24.0</ele><time>2026-04-12T07:50:01.999Z</time></trkpt><trkpt lat="44.7699927" lon="13.9100805"><ele>24.0</ele><time>2026-04-12T07:50:06.01Z</time></trkpt><trkpt lat="44.769993" lon="13.9099886"><ele>23.999999999999996</ele><time>2026-04-12T07:50:09.002Z</time></trkpt><trkpt lat="44.7700162" lon="13.9098876"><ele>24.0</ele><time>2026-04-12T07:50:12.007Z</time></trkpt><trkpt lat="44.7700345" lon="13.9098027"><ele>24.0</ele><time>2026-04-12T07:50:14Z</time></trkpt><trkpt lat="44.77006" lon="13.909678"><ele>24.0</ele><time>2026-04-12T07:50:14.993Z</time></trkpt><trkpt lat="44.7701102" lon="13.9095877"><ele>24.0</ele><time>2026-04-12T07:50:18.997Z</time></trkpt><trkpt lat="44.7701754" lon="13.9095981"><ele>24.0</ele><time>2026-04-12T07:50:21.999Z</time></trkpt><trkpt lat="44.770225" lon="13.9096843"><ele>24.0</ele><time>2026-04-12T07:50:25.007Z</time></trkpt><trkpt lat="44.7702488" lon="13.9098173"><ele>24.0</ele><time>2026-04-12T07:50:28.003Z</time></trkpt><trkpt lat="44.7702679" lon="13.9099269"><ele>25.0</ele><time>2026-04-12T07:50:30.004Z</time></trkpt><trkpt lat="44.7702881" lon="13.9100523"><ele>26.0</ele><time>2026-04-12T07:50:31.999Z</time></trkpt><trkpt lat="44.7703166" lon="13.9102227"><ele>27.0</ele><time>2026-04-12T07:50:33.005Z</time></trkpt><trkpt lat="44.7703498" lon="13.9103401"><ele>28.0</ele><time>2026-04-12T07:50:33.995Z</time></trkpt><trkpt lat="44.7703735" lon="13.9104228"><ele>29.0</ele><time>2026-04-12T07:50:34.998Z</time></trkpt><trkpt lat="44.7704058" lon="13.9105021"><ele>30.0</ele><time>2026-04-12T07:50:35.997Z</time></trkpt><trkpt lat="44.7704379" lon="13.9105821"><ele>30.4</ele><time>2026-04-12T07:50:37.004Z</time></trkpt><trkpt lat="44.7704704" lon="13.9106599"><ele>30.8</ele><time>2026-04-12T07:50:37.997Z</time></trkpt><trkpt lat="44.7705382" lon="13.9108059"><ele>31.200000000000003</ele><time>2026-04-12T07:50:39.993Z</time></trkpt><trkpt lat="44.7706099" lon="13.9109384"><ele>31.6</ele><time>2026-04-12T07:50:42Z</time></trkpt><trkpt lat="44.7707054" lon="13.9110287"><ele>32.0</ele><time>2026-04-12T07:50:43.995Z</time></trkpt><trkpt lat="44.7708246" lon="13.9110674"><ele>32.25</ele><time>2026-04-12T07:50:45.998Z</time></trkpt><trkpt lat="44.7709474" lon="13.911059"><ele>32.5</ele><time>2026-04-12T07:50:47.993Z</time></trkpt><trkpt lat="44.7710631" lon="13.9110464"><ele>32.75</ele><time>2026-04-12T07:50:49.997Z</time></trkpt><trkpt lat="44.7711725" lon="13.9110704"><ele>33.0</ele><time>2026-04-12T07:50:51.995Z</time></trkpt><trkpt lat="44.7712748" lon="13.9111"><ele>32.5</ele><time>2026-04-12T07:50:53.997Z</time></trkpt><trkpt lat="44.7713614" lon="13.9111031"><ele>32.0</ele><time>2026-04-12T07:50:55.998Z</time></trkpt><trkpt lat="44.7714346" lon="13.9110894"><ele>31.5</ele><time>2026-04-12T07:50:57.996Z</time></trkpt><trkpt lat="44.7714876" lon="13.9110307"><ele>31.0</ele><time>2026-04-12T07:51:00.003Z</time></trkpt><trkpt lat="44.7715048" lon="13.9109373"><ele>30.5</ele><time>2026-04-12T07:51:03Z</time></trkpt><trkpt lat="44.7714791" lon="13.9107745"><ele>30.0</ele><time>2026-04-12T07:51:05.003Z</time></trkpt><trkpt lat="44.7714542" lon="13.9106439"><ele>30.0</ele><time>2026-04-12T07:51:05.996Z</time></trkpt><trkpt lat="44.7714302" lon="13.9105407"><ele>30.0</ele><time>2026-04-12T07:51:06.991Z</time></trkpt><trkpt lat="44.7714142" lon="13.9104461"><ele>30.0</ele><time>2026-04-12T07:51:07.997Z</time></trkpt><trkpt lat="44.7714004" lon="13.910352"><ele>30.0</ele><time>2026-04-12T07:51:08.996Z</time></trkpt><trkpt lat="44.7713868" lon="13.9102571"><ele>30.0</ele><time>2026-04-12T07:51:09.998Z</time></trkpt><trkpt lat="44.7713719" lon="13.910161"><ele>30.0</ele><time>2026-04-12T07:51:10.997Z</time></trkpt><trkpt lat="44.7713543" lon="13.9100664"><ele>30.0</ele><time>2026-04-12T07:51:11.996Z</time></trkpt><trkpt lat="44.7713325" lon="13.909972"><ele>29.4</ele><time>2026-04-12T07:51:12.998Z</time></trkpt><trkpt lat="44.7713124" lon="13.9098813"><ele>28.8</ele><time>2026-04-12T07:51:13.998Z</time></trkpt><trkpt lat="44.771294" lon="13.9097943"><ele>28.200000000000003</ele><time>2026-04-12T07:51:15.002Z</time></trkpt><trkpt lat="44.7712476" lon="13.9096283"><ele>27.6</ele><time>2026-04-12T07:51:16.996Z</time></trkpt><trkpt lat="44.7711942" lon="13.9095"><ele>27.0</ele><time>2026-04-12T07:51:19.001Z</time></trkpt><trkpt lat="44.7711532" lon="13.9093773"><ele>27.0</ele><time>2026-04-12T07:51:20.998Z</time></trkpt><trkpt lat="44.7711384" lon="13.9092835"><ele>27.0</ele><time>2026-04-12T07:51:22.996Z</time></trkpt><trkpt lat="44.7711869" lon="13.9092109"><ele>27.0</ele><time>2026-04-12T07:51:25.002Z</time></trkpt><trkpt lat="44.7712697" lon="13.9092029"><ele>27.0</ele><time>2026-04-12T07:51:29.002Z</time></trkpt><trkpt lat="44.7713538" lon="13.9092737"><ele>27.0</ele><time>2026-04-12T07:51:32.002Z</time></trkpt><trkpt lat="44.7714391" lon="13.9093628"><ele>27.0</ele><time>2026-04-12T07:51:33.993Z</time></trkpt><trkpt lat="44.7715013" lon="13.9094305"><ele>27.0</ele><time>2026-04-12T07:51:34.996Z</time></trkpt><trkpt lat="44.7715637" lon="13.909499"><ele>27.000000000000004</ele><time>2026-04-12T07:51:36.004Z</time></trkpt><trkpt lat="44.7716734" lon="13.90962"><ele>27.000000000000004</ele><time>2026-04-12T07:51:36.996Z</time></trkpt><trkpt lat="44.7717572" lon="13.9097078"><ele>27.0</ele><time>2026-04-12T07:51:37.997Z</time></trkpt><trkpt lat="44.7717984" lon="13.909775"><ele>27.0</ele><time>2026-04-12T07:51:38.997Z</time></trkpt><trkpt lat="44.771842" lon="13.909846"><ele>26.285714285714285</ele><time>2026-04-12T07:51:39.992Z</time></trkpt><trkpt lat="44.7718855" lon="13.9099117"><ele>25.57142857142857</ele><time>2026-04-12T07:51:41Z</time></trkpt><trkpt lat="44.7719301" lon="13.9099806"><ele>24.857142857142858</ele><time>2026-04-12T07:51:42.001Z</time></trkpt><trkpt lat="44.771975" lon="13.9100547"><ele>24.142857142857142</ele><time>2026-04-12T07:51:42.993Z</time></trkpt><trkpt lat="44.7720244" lon="13.9101249"><ele>23.428571428571427</ele><time>2026-04-12T07:51:43.998Z</time></trkpt><trkpt lat="44.7720687" lon="13.9101989"><ele>22.714285714285715</ele><time>2026-04-12T07:51:45.004Z</time></trkpt><trkpt lat="44.7721132" lon="13.9102687"><ele>22.0</ele><time>2026-04-12T07:51:45.997Z</time></trkpt><trkpt lat="44.7721688" lon="13.9103283"><ele>22.0</ele><time>2026-04-12T07:51:46.999Z</time></trkpt><trkpt lat="44.772222" lon="13.9103865"><ele>22.0</ele><time>2026-04-12T07:51:47.997Z</time></trkpt><trkpt lat="44.7722709" lon="13.9104483"><ele>22.0</ele><time>2026-04-12T07:51:48.999Z</time></trkpt><trkpt lat="44.7723196" lon="13.9105101"><ele>22.0</ele><time>2026-04-12T07:51:50.001Z</time></trkpt><trkpt lat="44.7723702" lon="13.9105703"><ele>22.0</ele><time>2026-04-12T07:51:50.999Z</time></trkpt><trkpt lat="44.7724217" lon="13.9106263"><ele>22.0</ele><time>2026-04-12T07:51:52.002Z</time></trkpt><trkpt lat="44.7724706" lon="13.9106834"><ele>22.0</ele><time>2026-04-12T07:51:53.001Z</time></trkpt><trkpt lat="44.772518" lon="13.9107462"><ele>22.0</ele><time>2026-04-12T07:51:54.001Z</time></trkpt><trkpt lat="44.7726091" lon="13.9108636"><ele>22.0</ele><time>2026-04-12T07:51:55.995Z</time></trkpt><trkpt lat="44.7726971" lon="13.910981"><ele>22.0</ele><time>2026-04-12T07:51:57.993Z</time></trkpt><trkpt lat="44.7727988" lon="13.9110827"><ele>22.0</ele><time>2026-04-12T07:51:59.997Z</time></trkpt><trkpt lat="44.772911" lon="13.9111107"><ele>21.666666666666664</ele><time>2026-04-12T07:52:01.994Z</time></trkpt><trkpt lat="44.7730302" lon="13.9110521"><ele>21.333333333333332</ele><time>2026-04-12T07:52:03.997Z</time></trkpt><trkpt lat="44.7730923" lon="13.9110151"><ele>21.0</ele><time>2026-04-12T07:52:04.994Z</time></trkpt><trkpt lat="44.7731543" lon="13.9109804"><ele>20.666666666666668</ele><time>2026-04-12T07:52:05.996Z</time></trkpt><trkpt lat="44.7732182" lon="13.9109459"><ele>20.333333333333336</ele><time>2026-04-12T07:52:06.998Z</time></trkpt><trkpt lat="44.7732815" lon="13.9109121"><ele>20.0</ele><time>2026-04-12T07:52:08.002Z</time></trkpt><trkpt lat="44.7733466" lon="13.9108782"><ele>20.0</ele><time>2026-04-12T07:52:08.996Z</time></trkpt><trkpt lat="44.7734092" lon="13.9108478"><ele>20.0</ele><time>2026-04-12T07:52:09.995Z</time></trkpt><trkpt lat="44.7734732" lon="13.9108285"><ele>20.0</ele><time>2026-04-12T07:52:10.996Z</time></trkpt><trkpt lat="44.7735383" lon="13.9108189"><ele>20.0</ele><time>2026-04-12T07:52:11.997Z</time></trkpt><trkpt lat="44.7736081" lon="13.9108268"><ele>20.0</ele><time>2026-04-12T07:52:13.004Z</time></trkpt><trkpt lat="44.7736743" lon="13.91084"><ele>20.0</ele><time>2026-04-12T07:52:13.996Z</time></trkpt><trkpt lat="44.7737404" lon="13.9108516"><ele>20.0</ele><time>2026-04-12T07:52:15.001Z</time></trkpt><trkpt lat="44.7738068" lon="13.9108605"><ele>20.142857142857142</ele><time>2026-04-12T07:52:16.002Z</time></trkpt><trkpt lat="44.7738722" lon="13.9108661"><ele>20.285714285714285</ele><time>2026-04-12T07:52:16.998Z</time></trkpt><trkpt lat="44.7739378" lon="13.9108665"><ele>20.42857142857143</ele><time>2026-04-12T07:52:17.996Z</time></trkpt><trkpt lat="44.7740032" lon="13.9108596"><ele>20.57142857142857</ele><time>2026-04-12T07:52:18.994Z</time></trkpt><trkpt lat="44.7740676" lon="13.910844"><ele>20.714285714285715</ele><time>2026-04-12T07:52:19.995Z</time></trkpt><trkpt lat="44.7741318" lon="13.9108246"><ele>20.857142857142858</ele><time>2026-04-12T07:52:20.994Z</time></trkpt><trkpt lat="44.774196" lon="13.9107917"><ele>21.0</ele><time>2026-04-12T07:52:22.001Z</time></trkpt><trkpt lat="44.7742575" lon="13.9107587"><ele>21.0</ele><time>2026-04-12T07:52:23Z</time></trkpt><trkpt lat="44.7743223" lon="13.9107266"><ele>21.0</ele><time>2026-04-12T07:52:23.996Z</time></trkpt><trkpt lat="44.7743857" lon="13.9106895"><ele>21.0</ele><time>2026-04-12T07:52:24.994Z</time></trkpt><trkpt lat="44.774448" lon="13.9106499"><ele>21.0</ele><time>2026-04-12T07:52:25.999Z</time></trkpt><trkpt lat="44.77451" lon="13.9105995"><ele>21.0</ele><time>2026-04-12T07:52:27Z</time></trkpt><trkpt lat="44.7745675" lon="13.9105438"><ele>21.0</ele><time>2026-04-12T07:52:27.993Z</time></trkpt><trkpt lat="44.7746194" lon="13.9104797"><ele>21.0</ele><time>2026-04-12T07:52:29.003Z</time></trkpt><trkpt lat="44.7746641" lon="13.9104023"><ele>20.285714285714285</ele><time>2026-04-12T07:52:29.997Z</time></trkpt><trkpt lat="44.7747105" lon="13.9103257"><ele>19.57142857142857</ele><time>2026-04-12T07:52:31.002Z</time></trkpt><trkpt lat="44.7747598" lon="13.9102513"><ele>18.857142857142858</ele><time>2026-04-12T07:52:32.001Z</time></trkpt><trkpt lat="44.7748176" lon="13.9101827"><ele>18.142857142857142</ele><time>2026-04-12T07:52:33.001Z</time></trkpt><trkpt lat="44.7748837" lon="13.9101334"><ele>17.428571428571427</ele><time>2026-04-12T07:52:33.996Z</time></trkpt><trkpt lat="44.7749528" lon="13.9101012"><ele>16.714285714285715</ele><time>2026-04-12T07:52:34.996Z</time></trkpt><trkpt lat="44.775032" lon="13.9100801"><ele>16.0</ele><time>2026-04-12T07:52:35.998Z</time></trkpt><trkpt lat="44.7751099" lon="13.9100783"><ele>16.0</ele><time>2026-04-12T07:52:36.996Z</time></trkpt><trkpt lat="44.7751862" lon="13.9100861"><ele>15.999999999999998</ele><time>2026-04-12T07:52:37.999Z</time></trkpt><trkpt lat="44.7752588" lon="13.9100854"><ele>16.0</ele><time>2026-04-12T07:52:38.999Z</time></trkpt><trkpt lat="44.7753326" lon="13.9100817"><ele>16.0</ele><time>2026-04-12T07:52:39.998Z</time></trkpt><trkpt lat="44.7754036" lon="13.910091"><ele>15.999999999999998</ele><time>2026-04-12T07:52:40.996Z</time></trkpt><trkpt lat="44.7754726" lon="13.9101043"><ele>16.0</ele><time>2026-04-12T07:52:41.997Z</time></trkpt><trkpt lat="44.7755417" lon="13.9101039"><ele>16.0</ele><time>2026-04-12T07:52:42.994Z</time></trkpt><trkpt lat="44.7756136" lon="13.9100911"><ele>15.857142857142856</ele><time>2026-04-12T07:52:43.996Z</time></trkpt><trkpt lat="44.7756882" lon="13.9100642"><ele>15.714285714285712</ele><time>2026-04-12T07:52:44.994Z</time></trkpt><trkpt lat="44.7757601" lon="13.910026"><ele>15.571428571428571</ele><time>2026-04-12T07:52:45.998Z</time></trkpt><trkpt lat="44.7758247" lon="13.9099811"><ele>15.428571428571427</ele><time>2026-04-12T07:52:46.993Z</time></trkpt><trkpt lat="44.7758898" lon="13.9099351"><ele>15.285714285714285</ele><time>2026-04-12T07:52:47.998Z</time></trkpt><trkpt lat="44.7759605" lon="13.9098982"><ele>15.142857142857142</ele><time>2026-04-12T07:52:48.996Z</time></trkpt><trkpt lat="44.7760311" lon="13.9098789"><ele>15.0</ele><time>2026-04-12T07:52:49.993Z</time></trkpt><trkpt lat="44.7761035" lon="13.9098759"><ele>15.0</ele><time>2026-04-12T07:52:50.996Z</time></trkpt><trkpt lat="44.7761671" lon="13.9099025"><ele>15.0</ele><time>2026-04-12T07:52:51.999Z</time></trkpt><trkpt lat="44.7762213" lon="13.9099507"><ele>15.0</ele><time>2026-04-12T07:52:52.998Z</time></trkpt><trkpt lat="44.7762633" lon="13.9100241"><ele>15.0</ele><time>2026-04-12T07:52:53.994Z</time></trkpt><trkpt lat="44.7763027" lon="13.9101128"><ele>15.0</ele><time>2026-04-12T07:52:54.998Z</time></trkpt><trkpt lat="44.7763398" lon="13.9102129"><ele>15.0</ele><time>2026-04-12T07:52:55.996Z</time></trkpt><trkpt lat="44.7763751" lon="13.9103248"><ele>15.0</ele><time>2026-04-12T07:52:56.997Z</time></trkpt><trkpt lat="44.7764083" lon="13.9104376"><ele>14.833333333333334</ele><time>2026-04-12T07:52:57.997Z</time></trkpt><trkpt lat="44.7764516" lon="13.9105418"><ele>14.666666666666668</ele><time>2026-04-12T07:52:58.997Z</time></trkpt><trkpt lat="44.7765063" lon="13.9106291"><ele>14.5</ele><time>2026-04-12T07:52:59.998Z</time></trkpt><trkpt lat="44.7765742" lon="13.9107105"><ele>14.333333333333334</ele><time>2026-04-12T07:53:00.995Z</time></trkpt><trkpt lat="44.7766538" lon="13.9107826"><ele>14.166666666666668</ele><time>2026-04-12T07:53:01.998Z</time></trkpt><trkpt lat="44.7767374" lon="13.9108402"><ele>14.0</ele><time>2026-04-12T07:53:03.007Z</time></trkpt><trkpt lat="44.7768249" lon="13.9108907"><ele>14.2</ele><time>2026-04-12T07:53:03.999Z</time></trkpt><trkpt lat="44.7769125" lon="13.9109347"><ele>14.399999999999999</ele><time>2026-04-12T07:53:04.997Z</time></trkpt><trkpt lat="44.7770022" lon="13.91097"><ele>14.6</ele><time>2026-04-12T07:53:05.993Z</time></trkpt><trkpt lat="44.7770918" lon="13.9109982"><ele>14.8</ele><time>2026-04-12T07:53:07.008Z</time></trkpt><trkpt lat="44.7771829" lon="13.9110099"><ele>15.0</ele><time>2026-04-12T07:53:07.996Z</time></trkpt><trkpt lat="44.7772808" lon="13.911009"><ele>15.0</ele><time>2026-04-12T07:53:08.995Z</time></trkpt><trkpt lat="44.7773799" lon="13.911007"><ele>15.0</ele><time>2026-04-12T07:53:09.997Z</time></trkpt><trkpt lat="44.7774732" lon="13.9110148"><ele>15.0</ele><time>2026-04-12T07:53:10.996Z</time></trkpt><trkpt lat="44.7775635" lon="13.9110217"><ele>15.0</ele><time>2026-04-12T07:53:11.999Z</time></trkpt><trkpt lat="44.7776566" lon="13.9110374"><ele>15.0</ele><time>2026-04-12T07:53:13.001Z</time></trkpt><trkpt lat="44.7777492" lon="13.9110375"><ele>16.4</ele><time>2026-04-12T07:53:13.998Z</time></trkpt><trkpt lat="44.7778448" lon="13.9110331"><ele>17.8</ele><time>2026-04-12T07:53:14.997Z</time></trkpt><trkpt lat="44.7779424" lon="13.9110222"><ele>19.200000000000003</ele><time>2026-04-12T07:53:15.999Z</time></trkpt><trkpt lat="44.7780405" lon="13.9110109"><ele>20.6</ele><time>2026-04-12T07:53:17.001Z</time></trkpt><trkpt lat="44.778132" lon="13.9109954"><ele>22.0</ele><time>2026-04-12T07:53:17.996Z</time></trkpt><trkpt lat="44.7782185" lon="13.9109733"><ele>22.0</ele><time>2026-04-12T07:53:19.002Z</time></trkpt><trkpt lat="44.7783102" lon="13.9109496"><ele>22.0</ele><time>2026-04-12T07:53:19.997Z</time></trkpt><trkpt lat="44.7784034" lon="13.9109251"><ele>22.0</ele><time>2026-04-12T07:53:20.996Z</time></trkpt><trkpt lat="44.778497" lon="13.9108955"><ele>22.0</ele><time>2026-04-12T07:53:22.002Z</time></trkpt><trkpt lat="44.7785901" lon="13.9108622"><ele>22.0</ele><time>2026-04-12T07:53:22.995Z</time></trkpt><trkpt lat="44.7786861" lon="13.9108298"><ele>21.200000000000003</ele><time>2026-04-12T07:53:23.994Z</time></trkpt><trkpt lat="44.7787833" lon="13.9107995"><ele>20.400000000000002</ele><time>2026-04-12T07:53:24.997Z</time></trkpt><trkpt lat="44.7788812" lon="13.910769"><ele>19.6</ele><time>2026-04-12T07:53:26Z</time></trkpt><trkpt lat="44.7789781" lon="13.9107425"><ele>18.8</ele><time>2026-04-12T07:53:27.002Z</time></trkpt><trkpt lat="44.7790766" lon="13.9107269"><ele>18.0</ele><time>2026-04-12T07:53:27.997Z</time></trkpt><trkpt lat="44.7791751" lon="13.9107142"><ele>18.0</ele><time>2026-04-12T07:53:29.003Z</time></trkpt><trkpt lat="44.77928" lon="13.9107049"><ele>18.0</ele><time>2026-04-12T07:53:30.007Z</time></trkpt><trkpt lat="44.7793877" lon="13.9106992"><ele>18.0</ele><time>2026-04-12T07:53:31Z</time></trkpt><trkpt lat="44.7794928" lon="13.9106957"><ele>18.0</ele><time>2026-04-12T07:53:31.994Z</time></trkpt><trkpt lat="44.7795936" lon="13.9107004"><ele>18.0</ele><time>2026-04-12T07:53:32.993Z</time></trkpt><trkpt lat="44.7796907" lon="13.9107141"><ele>17.0</ele><time>2026-04-12T07:53:33.994Z</time></trkpt><trkpt lat="44.7797836" lon="13.9107349"><ele>16.0</ele><time>2026-04-12T07:53:35.001Z</time></trkpt><trkpt lat="44.7798671" lon="13.9107621"><ele>15.0</ele><time>2026-04-12T07:53:36Z</time></trkpt><trkpt lat="44.7799429" lon="13.9107879"><ele>14.0</ele><time>2026-04-12T07:53:36.995Z</time></trkpt><trkpt lat="44.7800131" lon="13.9108002"><ele>13.0</ele><time>2026-04-12T07:53:37.998Z</time></trkpt><trkpt lat="44.7800811" lon="13.9107916"><ele>12.0</ele><time>2026-04-12T07:53:39.01Z</time></trkpt><trkpt lat="44.7801477" lon="13.9107587"><ele>11.6</ele><time>2026-04-12T07:53:39.999Z</time></trkpt><trkpt lat="44.7802173" lon="13.9107043"><ele>11.2</ele><time>2026-04-12T07:53:40.997Z</time></trkpt><trkpt lat="44.7802911" lon="13.9106314"><ele>10.8</ele><time>2026-04-12T07:53:42.007Z</time></trkpt><trkpt lat="44.7803698" lon="13.910561"><ele>10.4</ele><time>2026-04-12T07:53:42.999Z</time></trkpt><trkpt lat="44.780455" lon="13.910499"><ele>10.0</ele><time>2026-04-12T07:53:43.998Z</time></trkpt><trkpt lat="44.7805468" lon="13.9104538"><ele>10.0</ele><time>2026-04-12T07:53:45.004Z</time></trkpt><trkpt lat="44.780645" lon="13.9104211"><ele>10.0</ele><time>2026-04-12T07:53:46.009Z</time></trkpt><trkpt lat="44.7807445" lon="13.9103927"><ele>10.0</ele><time>2026-04-12T07:53:46.997Z</time></trkpt><trkpt lat="44.780844" lon="13.9103585"><ele>10.0</ele><time>2026-04-12T07:53:47.996Z</time></trkpt><trkpt lat="44.78094" lon="13.9103172"><ele>10.0</ele><time>2026-04-12T07:53:48.998Z</time></trkpt><trkpt lat="44.7810297" lon="13.9102616"><ele>10.2</ele><time>2026-04-12T07:53:49.997Z</time></trkpt><trkpt lat="44.7811186" lon="13.9102108"><ele>10.4</ele><time>2026-04-12T07:53:51.002Z</time></trkpt><trkpt lat="44.7812063" lon="13.9101609"><ele>10.600000000000001</ele><time>2026-04-12T07:53:52.003Z</time></trkpt><trkpt lat="44.7812964" lon="13.9101238"><ele>10.8</ele><time>2026-04-12T07:53:52.997Z</time></trkpt><trkpt lat="44.7813847" lon="13.910103"><ele>11.0</ele><time>2026-04-12T07:53:53.995Z</time></trkpt><trkpt lat="44.7814719" lon="13.910081"><ele>11.666666666666666</ele><time>2026-04-12T07:53:54.995Z</time></trkpt><trkpt lat="44.7815599" lon="13.9100604"><ele>12.333333333333332</ele><time>2026-04-12T07:53:55.999Z</time></trkpt><trkpt lat="44.7816395" lon="13.9100396"><ele>13.0</ele><time>2026-04-12T07:53:57.001Z</time></trkpt><trkpt lat="44.7817079" lon="13.9100162"><ele>13.666666666666666</ele><time>2026-04-12T07:53:58Z</time></trkpt><trkpt lat="44.781772" lon="13.9099922"><ele>14.333333333333334</ele><time>2026-04-12T07:53:58.997Z</time></trkpt><trkpt lat="44.7818408" lon="13.9099694"><ele>15.0</ele><time>2026-04-12T07:54:00.001Z</time></trkpt><trkpt lat="44.7819141" lon="13.909941"><ele>15.833333333333334</ele><time>2026-04-12T07:54:01.005Z</time></trkpt><trkpt lat="44.7819895" lon="13.9099066"><ele>16.666666666666668</ele><time>2026-04-12T07:54:02.002Z</time></trkpt><trkpt lat="44.7820683" lon="13.9098735"><ele>17.5</ele><time>2026-04-12T07:54:03.001Z</time></trkpt><trkpt lat="44.7821512" lon="13.9098432"><ele>18.333333333333336</ele><time>2026-04-12T07:54:04.003Z</time></trkpt><trkpt lat="44.7822384" lon="13.9098158"><ele>19.166666666666668</ele><time>2026-04-12T07:54:05.005Z</time></trkpt><trkpt lat="44.7823245" lon="13.9097905"><ele>20.0</ele><time>2026-04-12T07:54:06.001Z</time></trkpt><trkpt lat="44.7824078" lon="13.9097652"><ele>20.0</ele><time>2026-04-12T07:54:06.998Z</time></trkpt><trkpt lat="44.7824877" lon="13.9097414"><ele>20.0</ele><time>2026-04-12T07:54:07.994Z</time></trkpt><trkpt lat="44.7825708" lon="13.9097175"><ele>20.0</ele><time>2026-04-12T07:54:08.999Z</time></trkpt><trkpt lat="44.7826535" lon="13.909696"><ele>20.0</ele><time>2026-04-12T07:54:09.999Z</time></trkpt><trkpt lat="44.7827383" lon="13.9096791"><ele>20.0</ele><time>2026-04-12T07:54:10.999Z</time></trkpt><trkpt lat="44.7828219" lon="13.9096604"><ele>20.0</ele><time>2026-04-12T07:54:11.996Z</time></trkpt><trkpt lat="44.7829052" lon="13.9096445"><ele>21.166666666666668</ele><time>2026-04-12T07:54:12.998Z</time></trkpt><trkpt lat="44.7829885" lon="13.9096266"><ele>22.333333333333336</ele><time>2026-04-12T07:54:13.997Z</time></trkpt><trkpt lat="44.7830694" lon="13.9096041"><ele>23.5</ele><time>2026-04-12T07:54:15.002Z</time></trkpt><trkpt lat="44.7831497" lon="13.9095808"><ele>24.666666666666668</ele><time>2026-04-12T07:54:15.998Z</time></trkpt><trkpt lat="44.7832288" lon="13.9095648"><ele>25.833333333333332</ele><time>2026-04-12T07:54:17.003Z</time></trkpt><trkpt lat="44.7833108" lon="13.9095646"><ele>27.0</ele><time>2026-04-12T07:54:17.993Z</time></trkpt><trkpt lat="44.7833877" lon="13.9095908"><ele>27.0</ele><time>2026-04-12T07:54:18.994Z</time></trkpt><trkpt lat="44.7834586" lon="13.9096303"><ele>27.0</ele><time>2026-04-12T07:54:19.997Z</time></trkpt><trkpt lat="44.7835187" lon="13.9096819"><ele>27.0</ele><time>2026-04-12T07:54:20.998Z</time></trkpt><trkpt lat="44.7835727" lon="13.9097511"><ele>27.0</ele><time>2026-04-12T07:54:21.997Z</time></trkpt><trkpt lat="44.7836154" lon="13.9098345"><ele>27.0</ele><time>2026-04-12T07:54:23.004Z</time></trkpt><trkpt lat="44.7836544" lon="13.909932"><ele>27.0</ele><time>2026-04-12T07:54:23.997Z</time></trkpt><trkpt lat="44.7836929" lon="13.9100258"><ele>27.0</ele><time>2026-04-12T07:54:25.003Z</time></trkpt><trkpt lat="44.7837412" lon="13.9101149"><ele>27.166666666666668</ele><time>2026-04-12T07:54:25.995Z</time></trkpt><trkpt lat="44.7837971" lon="13.910198"><ele>27.333333333333336</ele><time>2026-04-12T07:54:27Z</time></trkpt><trkpt lat="44.7838582" lon="13.9102738"><ele>27.5</ele><time>2026-04-12T07:54:27.994Z</time></trkpt><trkpt lat="44.783924" lon="13.9103396"><ele>27.666666666666668</ele><time>2026-04-12T07:54:29.006Z</time></trkpt><trkpt lat="44.7839924" lon="13.9104028"><ele>27.833333333333336</ele><time>2026-04-12T07:54:30.003Z</time></trkpt><trkpt lat="44.7840611" lon="13.9104649"><ele>28.0</ele><time>2026-04-12T07:54:30.997Z</time></trkpt><trkpt lat="44.7841263" lon="13.9105295"><ele>28.000000000000004</ele><time>2026-04-12T07:54:31.998Z</time></trkpt><trkpt lat="44.7841879" lon="13.9106023"><ele>28.0</ele><time>2026-04-12T07:54:32.998Z</time></trkpt><trkpt lat="44.7842457" lon="13.9106801"><ele>28.0</ele><time>2026-04-12T07:54:33.999Z</time></trkpt><trkpt lat="44.7842966" lon="13.9107712"><ele>28.0</ele><time>2026-04-12T07:54:34.996Z</time></trkpt><trkpt lat="44.7843373" lon="13.9108733"><ele>28.000000000000004</ele><time>2026-04-12T07:54:36.007Z</time></trkpt><trkpt lat="44.7843828" lon="13.9109834"><ele>28.0</ele><time>2026-04-12T07:54:37.002Z</time></trkpt><trkpt lat="44.7844366" lon="13.9110874"><ele>28.2</ele><time>2026-04-12T07:54:37.995Z</time></trkpt><trkpt lat="44.7844992" lon="13.9111835"><ele>28.4</ele><time>2026-04-12T07:54:38.995Z</time></trkpt><trkpt lat="44.78457" lon="13.9112753"><ele>28.599999999999998</ele><time>2026-04-12T07:54:40.002Z</time></trkpt><trkpt lat="44.7846481" lon="13.9113546"><ele>28.799999999999997</ele><time>2026-04-12T07:54:40.995Z</time></trkpt><trkpt lat="44.7847314" lon="13.9114248"><ele>29.0</ele><time>2026-04-12T07:54:41.996Z</time></trkpt><trkpt lat="44.7848156" lon="13.9114914"><ele>29.0</ele><time>2026-04-12T07:54:43.005Z</time></trkpt><trkpt lat="44.7848966" lon="13.9115641"><ele>29.0</ele><time>2026-04-12T07:54:43.996Z</time></trkpt><trkpt lat="44.7849801" lon="13.9116269"><ele>29.0</ele><time>2026-04-12T07:54:45Z</time></trkpt><trkpt lat="44.7850678" lon="13.911668"><ele>29.0</ele><time>2026-04-12T07:54:45.993Z</time></trkpt><trkpt lat="44.7851525" lon="13.9116933"><ele>29.0</ele><time>2026-04-12T07:54:46.996Z</time></trkpt><trkpt lat="44.7852363" lon="13.9117003"><ele>29.499999999999996</ele><time>2026-04-12T07:54:48.003Z</time></trkpt><trkpt lat="44.7853232" lon="13.9117027"><ele>30.0</ele><time>2026-04-12T07:54:48.997Z</time></trkpt><trkpt lat="44.7854024" lon="13.9117031"><ele>30.5</ele><time>2026-04-12T07:54:49.998Z</time></trkpt><trkpt lat="44.785477" lon="13.9117199"><ele>31.0</ele><time>2026-04-12T07:54:50.996Z</time></trkpt><trkpt lat="44.7855806" lon="13.91181"><ele>31.499999999999996</ele><time>2026-04-12T07:54:53.002Z</time></trkpt><trkpt lat="44.7856243" lon="13.9118837"><ele>32.0</ele><time>2026-04-12T07:54:54.01Z</time></trkpt><trkpt lat="44.7856701" lon="13.9119682"><ele>32.0</ele><time>2026-04-12T07:54:55.008Z</time></trkpt><trkpt lat="44.7857199" lon="13.9120558"><ele>32.0</ele><time>2026-04-12T07:54:56.006Z</time></trkpt><trkpt lat="44.7857626" lon="13.912138"><ele>32.0</ele><time>2026-04-12T07:54:56.997Z</time></trkpt><trkpt lat="44.7858053" lon="13.9122063"><ele>32.0</ele><time>2026-04-12T07:54:57.992Z</time></trkpt><trkpt lat="44.7858801" lon="13.9123401"><ele>32.0</ele><time>2026-04-12T07:54:59.995Z</time></trkpt><trkpt lat="44.7859557" lon="13.9124772"><ele>31.200000000000003</ele><time>2026-04-12T07:55:01.994Z</time></trkpt><trkpt lat="44.7860277" lon="13.9125966"><ele>30.400000000000002</ele><time>2026-04-12T07:55:03.997Z</time></trkpt><trkpt lat="44.7861312" lon="13.9126742"><ele>29.599999999999998</ele><time>2026-04-12T07:55:05.998Z</time></trkpt><trkpt lat="44.7861935" lon="13.9126995"><ele>28.799999999999997</ele><time>2026-04-12T07:55:06.997Z</time></trkpt><trkpt lat="44.7862693" lon="13.9127144"><ele>28.0</ele><time>2026-04-12T07:55:07.995Z</time></trkpt><trkpt lat="44.7863496" lon="13.9127129"><ele>28.0</ele><time>2026-04-12T07:55:08.994Z</time></trkpt><trkpt lat="44.7864381" lon="13.9127036"><ele>27.999999999999996</ele><time>2026-04-12T07:55:09.996Z</time></trkpt><trkpt lat="44.7865316" lon="13.9127047"><ele>27.999999999999996</ele><time>2026-04-12T07:55:11.004Z</time></trkpt><trkpt lat="44.7866252" lon="13.9127014"><ele>28.0</ele><time>2026-04-12T07:55:11.998Z</time></trkpt><trkpt lat="44.7867197" lon="13.9126972"><ele>28.0</ele><time>2026-04-12T07:55:12.997Z</time></trkpt><trkpt lat="44.7868142" lon="13.9126984"><ele>27.4</ele><time>2026-04-12T07:55:13.994Z</time></trkpt><trkpt lat="44.7869097" lon="13.9126886"><ele>26.799999999999997</ele><time>2026-04-12T07:55:15.008Z</time></trkpt><trkpt lat="44.7870032" lon="13.9126861"><ele>26.2</ele><time>2026-04-12T07:55:15.995Z</time></trkpt><trkpt lat="44.7870993" lon="13.9126772"><ele>25.6</ele><time>2026-04-12T07:55:16.998Z</time></trkpt><trkpt lat="44.7871971" lon="13.9126698"><ele>25.0</ele><time>2026-04-12T07:55:17.997Z</time></trkpt><trkpt lat="44.7873029" lon="13.9126548"><ele>25.0</ele><time>2026-04-12T07:55:18.995Z</time></trkpt><trkpt lat="44.7873996" lon="13.9126586"><ele>25.0</ele><time>2026-04-12T07:55:20.001Z</time></trkpt><trkpt lat="44.787499" lon="13.9126568"><ele>25.0</ele><time>2026-04-12T07:55:20.998Z</time></trkpt><trkpt lat="44.7875974" lon="13.9126516"><ele>25.0</ele><time>2026-04-12T07:55:22Z</time></trkpt><trkpt lat="44.7876936" lon="13.912647"><ele>25.0</ele><time>2026-04-12T07:55:22.995Z</time></trkpt><trkpt lat="44.7877923" lon="13.9126373"><ele>23.833333333333336</ele><time>2026-04-12T07:55:24.001Z</time></trkpt><trkpt lat="44.7878791" lon="13.9126363"><ele>22.666666666666668</ele><time>2026-04-12T07:55:24.997Z</time></trkpt><trkpt lat="44.7879679" lon="13.912641"><ele>21.5</ele><time>2026-04-12T07:55:25.995Z</time></trkpt><trkpt lat="44.7880601" lon="13.912642"><ele>20.333333333333336</ele><time>2026-04-12T07:55:26.998Z</time></trkpt><trkpt lat="44.788148" lon="13.9126343"><ele>19.166666666666668</ele><time>2026-04-12T07:55:27.998Z</time></trkpt><trkpt lat="44.7882368" lon="13.9126257"><ele>18.0</ele><time>2026-04-12T07:55:28.996Z</time></trkpt><trkpt lat="44.7883321" lon="13.912614"><ele>18.0</ele><time>2026-04-12T07:55:30.001Z</time></trkpt><trkpt lat="44.7884271" lon="13.9125987"><ele>18.0</ele><time>2026-04-12T07:55:30.999Z</time></trkpt><trkpt lat="44.7885252" lon="13.9125764"><ele>18.0</ele><time>2026-04-12T07:55:31.996Z</time></trkpt><trkpt lat="44.7886226" lon="13.9125501"><ele>18.0</ele><time>2026-04-12T07:55:33Z</time></trkpt><trkpt lat="44.7887325" lon="13.9125199"><ele>18.0</ele><time>2026-04-12T07:55:33.995Z</time></trkpt><trkpt lat="44.7888298" lon="13.9124952"><ele>17.2</ele><time>2026-04-12T07:55:34.998Z</time></trkpt><trkpt lat="44.7889266" lon="13.9124789"><ele>16.4</ele><time>2026-04-12T07:55:36.001Z</time></trkpt><trkpt lat="44.7890214" lon="13.912463"><ele>15.599999999999998</ele><time>2026-04-12T07:55:36.998Z</time></trkpt><trkpt lat="44.7891221" lon="13.912447"><ele>14.799999999999999</ele><time>2026-04-12T07:55:37.995Z</time></trkpt><trkpt lat="44.7892245" lon="13.9124415"><ele>14.0</ele><time>2026-04-12T07:55:38.999Z</time></trkpt><trkpt lat="44.7893228" lon="13.912445"><ele>14.2</ele><time>2026-04-12T07:55:39.993Z</time></trkpt><trkpt lat="44.789416" lon="13.9124457"><ele>14.399999999999999</ele><time>2026-04-12T07:55:40.994Z</time></trkpt><trkpt lat="44.7895146" lon="13.9124506"><ele>14.6</ele><time>2026-04-12T07:55:41.995Z</time></trkpt><trkpt lat="44.7896045" lon="13.9124432"><ele>14.8</ele><time>2026-04-12T07:55:42.997Z</time></trkpt><trkpt lat="44.7896946" lon="13.9124379"><ele>15.0</ele><time>2026-04-12T07:55:44.001Z</time></trkpt><trkpt lat="44.7897825" lon="13.912436"><ele>15.0</ele><time>2026-04-12T07:55:44.995Z</time></trkpt><trkpt lat="44.7898682" lon="13.9124309"><ele>15.0</ele><time>2026-04-12T07:55:45.995Z</time></trkpt><trkpt lat="44.7899556" lon="13.9124241"><ele>15.0</ele><time>2026-04-12T07:55:46.996Z</time></trkpt><trkpt lat="44.7900481" lon="13.9124163"><ele>15.0</ele><time>2026-04-12T07:55:47.996Z</time></trkpt><trkpt lat="44.790147" lon="13.9124087"><ele>15.0</ele><time>2026-04-12T07:55:48.997Z</time></trkpt><trkpt lat="44.7902366" lon="13.9124063"><ele>15.4</ele><time>2026-04-12T07:55:49.993Z</time></trkpt><trkpt lat="44.7903263" lon="13.912396"><ele>15.8</ele><time>2026-04-12T07:55:50.999Z</time></trkpt><trkpt lat="44.7904181" lon="13.9123783"><ele>16.2</ele><time>2026-04-12T07:55:51.992Z</time></trkpt><trkpt lat="44.7905105" lon="13.9123572"><ele>16.6</ele><time>2026-04-12T07:55:53.009Z</time></trkpt><trkpt lat="44.7906008" lon="13.9123364"><ele>17.0</ele><time>2026-04-12T07:55:53.998Z</time></trkpt><trkpt lat="44.7906943" lon="13.912315"><ele>17.0</ele><time>2026-04-12T07:55:55.002Z</time></trkpt><trkpt lat="44.7907872" lon="13.9122885"><ele>17.0</ele><time>2026-04-12T07:55:55.998Z</time></trkpt><trkpt lat="44.7908756" lon="13.9122603"><ele>17.0</ele><time>2026-04-12T07:55:56.997Z</time></trkpt><trkpt lat="44.7909631" lon="13.9122328"><ele>17.0</ele><time>2026-04-12T07:55:57.995Z</time></trkpt><trkpt lat="44.791054" lon="13.9122136"><ele>17.0</ele><time>2026-04-12T07:55:58.997Z</time></trkpt><trkpt lat="44.7911433" lon="13.9122027"><ele>16.8</ele><time>2026-04-12T07:55:59.998Z</time></trkpt><trkpt lat="44.7912291" lon="13.9121911"><ele>16.6</ele><time>2026-04-12T07:56:00.992Z</time></trkpt><trkpt lat="44.7913076" lon="13.9121776"><ele>16.400000000000002</ele><time>2026-04-12T07:56:01.997Z</time></trkpt><trkpt lat="44.7913705" lon="13.9121654"><ele>16.2</ele><time>2026-04-12T07:56:02.999Z</time></trkpt><trkpt lat="44.7914789" lon="13.9121089"><ele>16.0</ele><time>2026-04-12T07:56:04.995Z</time></trkpt><trkpt lat="44.7915964" lon="13.9120081"><ele>16.0</ele><time>2026-04-12T07:56:06.993Z</time></trkpt><trkpt lat="44.7916637" lon="13.9119286"><ele>16.0</ele><time>2026-04-12T07:56:07.994Z</time></trkpt><trkpt lat="44.7917316" lon="13.9118421"><ele>16.0</ele><time>2026-04-12T07:56:08.999Z</time></trkpt><trkpt lat="44.791799" lon="13.9117508"><ele>16.0</ele><time>2026-04-12T07:56:10.007Z</time></trkpt><trkpt lat="44.7918697" lon="13.9116596"><ele>16.0</ele><time>2026-04-12T07:56:10.991Z</time></trkpt><trkpt lat="44.7919436" lon="13.9115636"><ele>16.400000000000002</ele><time>2026-04-12T07:56:11.999Z</time></trkpt><trkpt lat="44.7920144" lon="13.9114702"><ele>16.8</ele><time>2026-04-12T07:56:12.99Z</time></trkpt><trkpt lat="44.7920835" lon="13.9113813"><ele>17.200000000000003</ele><time>2026-04-12T07:56:13.996Z</time></trkpt><trkpt lat="44.7921499" lon="13.91129"><ele>17.6</ele><time>2026-04-12T07:56:14.994Z</time></trkpt><trkpt lat="44.7922135" lon="13.9111968"><ele>18.0</ele><time>2026-04-12T07:56:15.994Z</time></trkpt><trkpt lat="44.7922696" lon="13.9111046"><ele>18.0</ele><time>2026-04-12T07:56:16.993Z</time></trkpt><trkpt lat="44.7923229" lon="13.9110187"><ele>18.0</ele><time>2026-04-12T07:56:17.993Z</time></trkpt><trkpt lat="44.7923699" lon="13.9109328"><ele>18.0</ele><time>2026-04-12T07:56:18.992Z</time></trkpt><trkpt lat="44.7924094" lon="13.9108393"><ele>18.0</ele><time>2026-04-12T07:56:19.995Z</time></trkpt><trkpt lat="44.7924405" lon="13.9107366"><ele>18.0</ele><time>2026-04-12T07:56:20.995Z</time></trkpt><trkpt lat="44.7924627" lon="13.9106251"><ele>18.0</ele><time>2026-04-12T07:56:22.004Z</time></trkpt><trkpt lat="44.7924878" lon="13.9105174"><ele>18.666666666666668</ele><time>2026-04-12T07:56:22.993Z</time></trkpt><trkpt lat="44.7925213" lon="13.9104105"><ele>19.333333333333332</ele><time>2026-04-12T07:56:23.996Z</time></trkpt><trkpt lat="44.79256" lon="13.9103031"><ele>20.0</ele><time>2026-04-12T07:56:24.995Z</time></trkpt><trkpt lat="44.7925996" lon="13.9101985"><ele>20.666666666666664</ele><time>2026-04-12T07:56:25.992Z</time></trkpt><trkpt lat="44.7926409" lon="13.9100928"><ele>21.333333333333332</ele><time>2026-04-12T07:56:27.002Z</time></trkpt><trkpt lat="44.7926856" lon="13.9099911"><ele>22.0</ele><time>2026-04-12T07:56:28.001Z</time></trkpt><trkpt lat="44.7927349" lon="13.9098937"><ele>22.0</ele><time>2026-04-12T07:56:28.992Z</time></trkpt><trkpt lat="44.7927858" lon="13.9097903"><ele>22.0</ele><time>2026-04-12T07:56:29.993Z</time></trkpt><trkpt lat="44.7928366" lon="13.909688"><ele>22.0</ele><time>2026-04-12T07:56:30.997Z</time></trkpt><trkpt lat="44.79289" lon="13.9095899"><ele>22.0</ele><time>2026-04-12T07:56:31.998Z</time></trkpt><trkpt lat="44.7929467" lon="13.9094911"><ele>22.0</ele><time>2026-04-12T07:56:33.011Z</time></trkpt><trkpt lat="44.7930023" lon="13.9093969"><ele>22.0</ele><time>2026-04-12T07:56:33.994Z</time></trkpt><trkpt lat="44.793057" lon="13.9093032"><ele>22.5</ele><time>2026-04-12T07:56:34.997Z</time></trkpt><trkpt lat="44.793114" lon="13.9092119"><ele>23.0</ele><time>2026-04-12T07:56:35.994Z</time></trkpt><trkpt lat="44.7931704" lon="13.9091203"><ele>23.5</ele><time>2026-04-12T07:56:36.998Z</time></trkpt><trkpt lat="44.7932289" lon="13.9090295"><ele>24.0</ele><time>2026-04-12T07:56:37.998Z</time></trkpt><trkpt lat="44.7932908" lon="13.9089465"><ele>24.500000000000004</ele><time>2026-04-12T07:56:39.002Z</time></trkpt><trkpt lat="44.7933549" lon="13.9088663"><ele>25.0</ele><time>2026-04-12T07:56:40.008Z</time></trkpt><trkpt lat="44.7934176" lon="13.908784"><ele>25.000000000000004</ele><time>2026-04-12T07:56:40.996Z</time></trkpt><trkpt lat="44.7934822" lon="13.9087057"><ele>25.0</ele><time>2026-04-12T07:56:42.007Z</time></trkpt><trkpt lat="44.7935478" lon="13.9086337"><ele>25.0</ele><time>2026-04-12T07:56:42.995Z</time></trkpt><trkpt lat="44.7936187" lon="13.9085612"><ele>25.0</ele><time>2026-04-12T07:56:43.994Z</time></trkpt><trkpt lat="44.7936961" lon="13.9085008"><ele>25.000000000000004</ele><time>2026-04-12T07:56:44.999Z</time></trkpt><trkpt lat="44.7937758" lon="13.9084427"><ele>25.0</ele><time>2026-04-12T07:56:45.998Z</time></trkpt><trkpt lat="44.7938574" lon="13.9083898"><ele>26.2</ele><time>2026-04-12T07:56:46.995Z</time></trkpt><trkpt lat="44.7939385" lon="13.908344"><ele>27.4</ele><time>2026-04-12T07:56:47.992Z</time></trkpt><trkpt lat="44.7940226" lon="13.9083006"><ele>28.6</ele><time>2026-04-12T07:56:48.997Z</time></trkpt><trkpt lat="44.7941163" lon="13.9082759"><ele>29.8</ele><time>2026-04-12T07:56:50.01Z</time></trkpt><trkpt lat="44.7942118" lon="13.908264"><ele>31.0</ele><time>2026-04-12T07:56:50.998Z</time></trkpt><trkpt lat="44.794301" lon="13.9082479"><ele>31.6</ele><time>2026-04-12T07:56:52Z</time></trkpt><trkpt lat="44.7943951" lon="13.9082297"><ele>32.2</ele><time>2026-04-12T07:56:52.995Z</time></trkpt><trkpt lat="44.7944869" lon="13.9082192"><ele>32.8</ele><time>2026-04-12T07:56:53.998Z</time></trkpt><trkpt lat="44.7945818" lon="13.9082154"><ele>33.4</ele><time>2026-04-12T07:56:54.994Z</time></trkpt><trkpt lat="44.7946774" lon="13.9082177"><ele>34.0</ele><time>2026-04-12T07:56:55.997Z</time></trkpt><trkpt lat="44.7947684" lon="13.9082205"><ele>34.0</ele><time>2026-04-12T07:56:56.997Z</time></trkpt><trkpt lat="44.7948587" lon="13.9082286"><ele>34.0</ele><time>2026-04-12T07:56:58Z</time></trkpt><trkpt lat="44.7949464" lon="13.9082379"><ele>34.0</ele><time>2026-04-12T07:56:58.995Z</time></trkpt><trkpt lat="44.7950361" lon="13.9082487"><ele>34.0</ele><time>2026-04-12T07:57:00Z</time></trkpt><trkpt lat="44.7951284" lon="13.9082562"><ele>34.0</ele><time>2026-04-12T07:57:00.992Z</time></trkpt><trkpt lat="44.7952189" lon="13.9082626"><ele>34.5</ele><time>2026-04-12T07:57:02Z</time></trkpt><trkpt lat="44.7952977" lon="13.9082752"><ele>35.0</ele><time>2026-04-12T07:57:02.996Z</time></trkpt><trkpt lat="44.7953753" lon="13.9082892"><ele>35.5</ele><time>2026-04-12T07:57:03.996Z</time></trkpt><trkpt lat="44.7954527" lon="13.9083008"><ele>36.0</ele><time>2026-04-12T07:57:05.002Z</time></trkpt><trkpt lat="44.795518" lon="13.9083078"><ele>36.5</ele><time>2026-04-12T07:57:06.001Z</time></trkpt><trkpt lat="44.7956326" lon="13.9083045"><ele>37.0</ele><time>2026-04-12T07:57:07.998Z</time></trkpt><trkpt lat="44.7957363" lon="13.9082737"><ele>37.0</ele><time>2026-04-12T07:57:10.002Z</time></trkpt><trkpt lat="44.795806" lon="13.9082533"><ele>37.0</ele><time>2026-04-12T07:57:11.99Z</time></trkpt><trkpt lat="44.7958644" lon="13.9082034"><ele>37.0</ele><time>2026-04-12T07:57:14.999Z</time></trkpt><trkpt lat="44.7959278" lon="13.9081554"><ele>37.0</ele><time>2026-04-12T07:57:21.004Z</time></trkpt><trkpt lat="44.7959976" lon="13.9081003"><ele>37.0</ele><time>2026-04-12T07:57:24.996Z</time></trkpt><trkpt lat="44.7960707" lon="13.9080816"><ele>37.0</ele><time>2026-04-12T07:57:27.994Z</time></trkpt><trkpt lat="44.7961489" lon="13.9080466"><ele>37.0</ele><time>2026-04-12T07:57:30.999Z</time></trkpt><trkpt lat="44.7962111" lon="13.908019"><ele>36.25</ele><time>2026-04-12T07:57:32.996Z</time></trkpt><trkpt lat="44.7962803" lon="13.9079827"><ele>35.5</ele><time>2026-04-12T07:57:35Z</time></trkpt><trkpt lat="44.7963578" lon="13.9079301"><ele>34.75</ele><time>2026-04-12T07:57:36.992Z</time></trkpt><trkpt lat="44.796556" lon="13.9077663"><ele>34.0</ele><time>2026-04-12T07:57:38.992Z</time></trkpt><trkpt lat="44.7966577" lon="13.9076705"><ele>34.333333333333336</ele><time>2026-04-12T07:57:40.993Z</time></trkpt><trkpt lat="44.796762" lon="13.9075621"><ele>34.66666666666667</ele><time>2026-04-12T07:57:43.007Z</time></trkpt><trkpt lat="44.7968176" lon="13.9075059"><ele>35.0</ele><time>2026-04-12T07:57:43.993Z</time></trkpt><trkpt lat="44.7968672" lon="13.9074391"><ele>35.333333333333336</ele><time>2026-04-12T07:57:44.995Z</time></trkpt><trkpt lat="44.7969248" lon="13.9073816"><ele>35.666666666666664</ele><time>2026-04-12T07:57:45.998Z</time></trkpt><trkpt lat="44.7969792" lon="13.9073094"><ele>36.0</ele><time>2026-04-12T07:57:46.999Z</time></trkpt><trkpt lat="44.797036" lon="13.9072381"><ele>34.833333333333336</ele><time>2026-04-12T07:57:48.005Z</time></trkpt><trkpt lat="44.7970854" lon="13.907167"><ele>33.666666666666664</ele><time>2026-04-12T07:57:48.999Z</time></trkpt><trkpt lat="44.7971441" lon="13.9070948"><ele>32.5</ele><time>2026-04-12T07:57:49.994Z</time></trkpt><trkpt lat="44.7972006" lon="13.9070175"><ele>31.333333333333332</ele><time>2026-04-12T07:57:50.995Z</time></trkpt><trkpt lat="44.7972567" lon="13.9069325"><ele>30.166666666666664</ele><time>2026-04-12T07:57:51.998Z</time></trkpt><trkpt lat="44.7973115" lon="13.9068535"><ele>29.0</ele><time>2026-04-12T07:57:52.995Z</time></trkpt><trkpt lat="44.7973787" lon="13.9067691"><ele>28.999999999999996</ele><time>2026-04-12T07:57:53.999Z</time></trkpt><trkpt lat="44.7974376" lon="13.9066902"><ele>29.0</ele><time>2026-04-12T07:57:55.001Z</time></trkpt><trkpt lat="44.7975003" lon="13.9066161"><ele>29.0</ele><time>2026-04-12T07:57:55.993Z</time></trkpt><trkpt lat="44.7975638" lon="13.9065463"><ele>29.0</ele><time>2026-04-12T07:57:56.996Z</time></trkpt><trkpt lat="44.7976268" lon="13.906492"><ele>28.999999999999996</ele><time>2026-04-12T07:57:57.99Z</time></trkpt><trkpt lat="44.7976902" lon="13.9064438"><ele>29.0</ele><time>2026-04-12T07:57:58.999Z</time></trkpt><trkpt lat="44.7977472" lon="13.9063974"><ele>28.571428571428577</ele><time>2026-04-12T07:57:59.995Z</time></trkpt><trkpt lat="44.7978029" lon="13.906356"><ele>28.142857142857146</ele><time>2026-04-12T07:58:00.994Z</time></trkpt><trkpt lat="44.7978839" lon="13.9063039"><ele>27.714285714285715</ele><time>2026-04-12T07:58:02.998Z</time></trkpt><trkpt lat="44.7979473" lon="13.9062566"><ele>27.28571428571429</ele><time>2026-04-12T07:58:04.996Z</time></trkpt><trkpt lat="44.7980302" lon="13.9062331"><ele>26.85714285714286</ele><time>2026-04-12T07:58:07.995Z</time></trkpt><trkpt lat="44.7980949" lon="13.9061986"><ele>26.428571428571427</ele><time>2026-04-12T07:58:11.002Z</time></trkpt><trkpt lat="44.7981506" lon="13.9061491"><ele>26.0</ele><time>2026-04-12T07:58:15.008Z</time></trkpt><trkpt lat="44.7982329" lon="13.9061204"><ele>25.999999999999996</ele><time>2026-04-12T07:59:53.014Z</time></trkpt><trkpt lat="44.7982918" lon="13.906083"><ele>26.0</ele><time>2026-04-12T07:59:55.991Z</time></trkpt><trkpt lat="44.7982472" lon="13.9061572"><ele>26.0</ele><time>2026-04-12T08:00:01.999Z</time></trkpt><trkpt lat="44.7981838" lon="13.9061699"><ele>26.0</ele><time>2026-04-12T08:00:03Z</time></trkpt><trkpt lat="44.7980742" lon="13.9062229"><ele>25.999999999999996</ele><time>2026-04-12T08:00:04.993Z</time></trkpt><trkpt lat="44.7980087" lon="13.9062529"><ele>26.0</ele><time>2026-04-12T08:00:05.998Z</time></trkpt><trkpt lat="44.7979446" lon="13.9062887"><ele>25.999999999999996</ele><time>2026-04-12T08:00:06.995Z</time></trkpt><trkpt lat="44.7978819" lon="13.9063282"><ele>26.0</ele><time>2026-04-12T08:00:08.003Z</time></trkpt><trkpt lat="44.7978183" lon="13.9063743"><ele>26.0</ele><time>2026-04-12T08:00:09.004Z</time></trkpt><trkpt lat="44.7977542" lon="13.9064256"><ele>26.0</ele><time>2026-04-12T08:00:10.003Z</time></trkpt><trkpt lat="44.7976875" lon="13.9064835"><ele>25.999999999999996</ele><time>2026-04-12T08:00:10.997Z</time></trkpt><trkpt lat="44.7976209" lon="13.9065442"><ele>26.0</ele><time>2026-04-12T08:00:11.999Z</time></trkpt><trkpt lat="44.7975516" lon="13.9066122"><ele>26.499999999999996</ele><time>2026-04-12T08:00:13.002Z</time></trkpt><trkpt lat="44.7974824" lon="13.9066813"><ele>27.0</ele><time>2026-04-12T08:00:13.995Z</time></trkpt><trkpt lat="44.7974166" lon="13.9067687"><ele>27.5</ele><time>2026-04-12T08:00:14.992Z</time></trkpt><trkpt lat="44.7973489" lon="13.9068455"><ele>28.0</ele><time>2026-04-12T08:00:16.003Z</time></trkpt><trkpt lat="44.7972897" lon="13.9069151"><ele>28.499999999999996</ele><time>2026-04-12T08:00:16.996Z</time></trkpt><trkpt lat="44.7972351" lon="13.9069845"><ele>29.0</ele><time>2026-04-12T08:00:18Z</time></trkpt><trkpt lat="44.7971829" lon="13.9070441"><ele>28.999999999999996</ele><time>2026-04-12T08:00:19.001Z</time></trkpt><trkpt lat="44.7971357" lon="13.9071152"><ele>29.0</ele><time>2026-04-12T08:00:21.997Z</time></trkpt><trkpt lat="44.7970849" lon="13.9071766"><ele>29.0</ele><time>2026-04-12T08:00:34.012Z</time></trkpt><trkpt lat="44.7970186" lon="13.9072945"><ele>29.0</ele><time>2026-04-12T08:00:36.004Z</time></trkpt><trkpt lat="44.7969881" lon="13.9073898"><ele>28.999999999999996</ele><time>2026-04-12T08:00:38Z</time></trkpt><trkpt lat="44.7969191" lon="13.9074227"><ele>29.0</ele><time>2026-04-12T08:00:41.999Z</time></trkpt><trkpt lat="44.7969369" lon="13.9073368"><ele>28.999999999999996</ele><time>2026-04-12T08:00:45Z</time></trkpt><trkpt lat="44.7970026" lon="13.907255"><ele>29.0</ele><time>2026-04-12T08:00:47.01Z</time></trkpt><trkpt lat="44.7970534" lon="13.9071997"><ele>29.0</ele><time>2026-04-12T08:00:47.996Z</time></trkpt><trkpt lat="44.7971261" lon="13.9071023"><ele>29.0</ele><time>2026-04-12T08:00:49.008Z</time></trkpt><trkpt lat="44.7971897" lon="13.9070132"><ele>28.999999999999996</ele><time>2026-04-12T08:00:49.996Z</time></trkpt><trkpt lat="44.797268" lon="13.9069228"><ele>29.0</ele><time>2026-04-12T08:00:51.004Z</time></trkpt><trkpt lat="44.7973514" lon="13.9068271"><ele>29.0</ele><time>2026-04-12T08:00:51.993Z</time></trkpt><trkpt lat="44.7974323" lon="13.9067368"><ele>29.0</ele><time>2026-04-12T08:00:52.996Z</time></trkpt><trkpt lat="44.7975137" lon="13.906644"><ele>29.0</ele><time>2026-04-12T08:00:53.994Z</time></trkpt><trkpt lat="44.797593" lon="13.9065521"><ele>29.0</ele><time>2026-04-12T08:00:54.995Z</time></trkpt><trkpt lat="44.7976725" lon="13.9064676"><ele>29.0</ele><time>2026-04-12T08:00:55.998Z</time></trkpt><trkpt lat="44.7977624" lon="13.9063964"><ele>28.4</ele><time>2026-04-12T08:00:56.994Z</time></trkpt><trkpt lat="44.7978521" lon="13.9063338"><ele>27.799999999999997</ele><time>2026-04-12T08:00:57.994Z</time></trkpt><trkpt lat="44.7979451" lon="13.906287"><ele>27.200000000000003</ele><time>2026-04-12T08:00:58.991Z</time></trkpt><trkpt lat="44.798039" lon="13.9062381"><ele>26.6</ele><time>2026-04-12T08:00:59.992Z</time></trkpt><trkpt lat="44.7981337" lon="13.9061911"><ele>26.0</ele><time>2026-04-12T08:01:00.992Z</time></trkpt><trkpt lat="44.798233" lon="13.9061427"><ele>26.0</ele><time>2026-04-12T08:01:01.999Z</time></trkpt><trkpt lat="44.7983314" lon="13.9060945"><ele>26.0</ele><time>2026-04-12T08:01:02.998Z</time></trkpt><trkpt lat="44.7984254" lon="13.9060452"><ele>26.0</ele><time>2026-04-12T08:01:04.003Z</time></trkpt><trkpt lat="44.7985172" lon="13.905999"><ele>26.0</ele><time>2026-04-12T08:01:04.995Z</time></trkpt><trkpt lat="44.7986028" lon="13.905949"><ele>26.0</ele><time>2026-04-12T08:01:05.994Z</time></trkpt><trkpt lat="44.7986922" lon="13.9059017"><ele>27.333333333333332</ele><time>2026-04-12T08:01:07.001Z</time></trkpt><trkpt lat="44.7987748" lon="13.905858"><ele>28.666666666666664</ele><time>2026-04-12T08:01:07.995Z</time></trkpt><trkpt lat="44.7988574" lon="13.9058213"><ele>30.0</ele><time>2026-04-12T08:01:08.996Z</time></trkpt><trkpt lat="44.7989375" lon="13.9057849"><ele>31.333333333333336</ele><time>2026-04-12T08:01:09.998Z</time></trkpt><trkpt lat="44.7990166" lon="13.9057552"><ele>32.66666666666667</ele><time>2026-04-12T08:01:10.997Z</time></trkpt><trkpt lat="44.7990938" lon="13.9057366"><ele>34.0</ele><time>2026-04-12T08:01:11.99Z</time></trkpt><trkpt lat="44.7991587" lon="13.9057242"><ele>34.0</ele><time>2026-04-12T08:01:12.994Z</time></trkpt><trkpt lat="44.7992387" lon="13.905719"><ele>34.0</ele><time>2026-04-12T08:01:15Z</time></trkpt><trkpt lat="44.7993208" lon="13.9057054"><ele>34.0</ele><time>2026-04-12T08:01:17.996Z</time></trkpt><trkpt lat="44.7994266" lon="13.9057266"><ele>34.0</ele><time>2026-04-12T08:01:20.997Z</time></trkpt><trkpt lat="44.7994969" lon="13.905741"><ele>34.0</ele><time>2026-04-12T08:01:21.999Z</time></trkpt><trkpt lat="44.799575" lon="13.9057569"><ele>34.0</ele><time>2026-04-12T08:01:23.003Z</time></trkpt><trkpt lat="44.7996569" lon="13.9057815"><ele>34.2</ele><time>2026-04-12T08:01:23.993Z</time></trkpt><trkpt lat="44.7997431" lon="13.9058119"><ele>34.4</ele><time>2026-04-12T08:01:24.997Z</time></trkpt><trkpt lat="44.7998347" lon="13.9058486"><ele>34.6</ele><time>2026-04-12T08:01:25.996Z</time></trkpt><trkpt lat="44.7999273" lon="13.9058946"><ele>34.8</ele><time>2026-04-12T08:01:26.997Z</time></trkpt><trkpt lat="44.8000215" lon="13.9059414"><ele>35.0</ele><time>2026-04-12T08:01:27.995Z</time></trkpt><trkpt lat="44.8001264" lon="13.9059903"><ele>35.5</ele><time>2026-04-12T08:01:28.999Z</time></trkpt><trkpt lat="44.8002481" lon="13.9060518"><ele>36.0</ele><time>2026-04-12T08:01:29.996Z</time></trkpt><trkpt lat="44.8003755" lon="13.9061132"><ele>36.5</ele><time>2026-04-12T08:01:30.995Z</time></trkpt><trkpt lat="44.8005164" lon="13.9061705"><ele>37.0</ele><time>2026-04-12T08:01:31.999Z</time></trkpt><trkpt lat="44.8006621" lon="13.9062084"><ele>37.0</ele><time>2026-04-12T08:01:32.998Z</time></trkpt><trkpt lat="44.8008069" lon="13.9062303"><ele>37.0</ele><time>2026-04-12T08:01:33.994Z</time></trkpt><trkpt lat="44.8009409" lon="13.9062388"><ele>37.0</ele><time>2026-04-12T08:01:34.995Z</time></trkpt><trkpt lat="44.8010627" lon="13.9062363"><ele>37.0</ele><time>2026-04-12T08:01:35.993Z</time></trkpt><trkpt lat="44.801177" lon="13.906227"><ele>38.0</ele><time>2026-04-12T08:01:36.998Z</time></trkpt><trkpt lat="44.8012854" lon="13.9062222"><ele>39.0</ele><time>2026-04-12T08:01:37.99Z</time></trkpt><trkpt lat="44.8013824" lon="13.9062125"><ele>40.0</ele><time>2026-04-12T08:01:39Z</time></trkpt><trkpt lat="44.8014576" lon="13.9062096"><ele>41.0</ele><time>2026-04-12T08:01:39.994Z</time></trkpt><trkpt lat="44.8015199" lon="13.9062263"><ele>42.0</ele><time>2026-04-12T08:01:41.002Z</time></trkpt><trkpt lat="44.8015941" lon="13.9063593"><ele>42.0</ele><time>2026-04-12T08:01:42.994Z</time></trkpt><trkpt lat="44.8016081" lon="13.9064655"><ele>42.0</ele><time>2026-04-12T08:01:43.999Z</time></trkpt><trkpt lat="44.8016138" lon="13.9065923"><ele>42.0</ele><time>2026-04-12T08:01:44.993Z</time></trkpt><trkpt lat="44.8016275" lon="13.9067223"><ele>42.0</ele><time>2026-04-12T08:01:45.997Z</time></trkpt><trkpt lat="44.8016461" lon="13.9068449"><ele>42.0</ele><time>2026-04-12T08:01:46.996Z</time></trkpt><trkpt lat="44.8016754" lon="13.906966"><ele>42.0</ele><time>2026-04-12T08:01:47.995Z</time></trkpt><trkpt lat="44.8017197" lon="13.9070818"><ele>42.0</ele><time>2026-04-12T08:01:48.998Z</time></trkpt><trkpt lat="44.8017822" lon="13.9071869"><ele>42.0</ele><time>2026-04-12T08:01:50Z</time></trkpt><trkpt lat="44.8018518" lon="13.9072836"><ele>42.0</ele><time>2026-04-12T08:01:50.999Z</time></trkpt><trkpt lat="44.801928" lon="13.9073795"><ele>42.0</ele><time>2026-04-12T08:01:51.996Z</time></trkpt><trkpt lat="44.802004" lon="13.907476"><ele>42.0</ele><time>2026-04-12T08:01:52.995Z</time></trkpt><trkpt lat="44.8020828" lon="13.9075692"><ele>42.0</ele><time>2026-04-12T08:01:53.995Z</time></trkpt><trkpt lat="44.8021614" lon="13.9076651"><ele>42.0</ele><time>2026-04-12T08:01:54.998Z</time></trkpt><trkpt lat="44.8022386" lon="13.9077642"><ele>42.0</ele><time>2026-04-12T08:01:56.005Z</time></trkpt><trkpt lat="44.8023181" lon="13.9078596"><ele>42.0</ele><time>2026-04-12T08:01:56.999Z</time></trkpt><trkpt lat="44.802396" lon="13.9079547"><ele>42.0</ele><time>2026-04-12T08:01:57.991Z</time></trkpt><trkpt lat="44.8024746" lon="13.9080491"><ele>42.0</ele><time>2026-04-12T08:01:58.999Z</time></trkpt><trkpt lat="44.8025529" lon="13.9081453"><ele>42.0</ele><time>2026-04-12T08:01:59.998Z</time></trkpt><trkpt lat="44.8026246" lon="13.9082408"><ele>42.0</ele><time>2026-04-12T08:02:01.007Z</time></trkpt><trkpt lat="44.8026952" lon="13.9083353"><ele>42.0</ele><time>2026-04-12T08:02:02.003Z</time></trkpt><trkpt lat="44.8027708" lon="13.9084234"><ele>42.0</ele><time>2026-04-12T08:02:03.003Z</time></trkpt><trkpt lat="44.8028523" lon="13.9085008"><ele>42.2</ele><time>2026-04-12T08:02:03.999Z</time></trkpt><trkpt lat="44.8029359" lon="13.9085654"><ele>42.400000000000006</ele><time>2026-04-12T08:02:04.994Z</time></trkpt><trkpt lat="44.803022" lon="13.9086173"><ele>42.599999999999994</ele><time>2026-04-12T08:02:06.002Z</time></trkpt><trkpt lat="44.8031154" lon="13.9086565"><ele>42.8</ele><time>2026-04-12T08:02:06.996Z</time></trkpt><trkpt lat="44.8032144" lon="13.908684"><ele>43.0</ele><time>2026-04-12T08:02:07.994Z</time></trkpt><trkpt lat="44.8033113" lon="13.9086901"><ele>43.0</ele><time>2026-04-12T08:02:08.996Z</time></trkpt><trkpt lat="44.8034082" lon="13.908683"><ele>43.0</ele><time>2026-04-12T08:02:09.993Z</time></trkpt><trkpt lat="44.803504" lon="13.9086765"><ele>43.0</ele><time>2026-04-12T08:02:10.99Z</time></trkpt><trkpt lat="44.8036011" lon="13.9086766"><ele>43.0</ele><time>2026-04-12T08:02:12.003Z</time></trkpt><trkpt lat="44.8036938" lon="13.9086823"><ele>43.0</ele><time>2026-04-12T08:02:12.995Z</time></trkpt><trkpt lat="44.8037806" lon="13.9087038"><ele>43.333333333333336</ele><time>2026-04-12T08:02:13.993Z</time></trkpt><trkpt lat="44.8038641" lon="13.9087483"><ele>43.66666666666667</ele><time>2026-04-12T08:02:14.992Z</time></trkpt><trkpt lat="44.8039328" lon="13.9088119"><ele>44.0</ele><time>2026-04-12T08:02:16Z</time></trkpt><trkpt lat="44.8039908" lon="13.9088893"><ele>44.333333333333336</ele><time>2026-04-12T08:02:16.994Z</time></trkpt><trkpt lat="44.8040498" lon="13.9089762"><ele>44.666666666666664</ele><time>2026-04-12T08:02:18Z</time></trkpt><trkpt lat="44.8040902" lon="13.9090778"><ele>45.0</ele><time>2026-04-12T08:02:18.993Z</time></trkpt><trkpt lat="44.8041321" lon="13.909172"><ele>44.666666666666664</ele><time>2026-04-12T08:02:19.993Z</time></trkpt><trkpt lat="44.8041624" lon="13.9092605"><ele>44.333333333333336</ele><time>2026-04-12T08:02:20.993Z</time></trkpt><trkpt lat="44.8041945" lon="13.909345"><ele>44.0</ele><time>2026-04-12T08:02:22.005Z</time></trkpt><trkpt lat="44.804226" lon="13.9094953"><ele>43.66666666666667</ele><time>2026-04-12T08:02:23.993Z</time></trkpt><trkpt lat="44.8042514" lon="13.9096208"><ele>43.333333333333336</ele><time>2026-04-12T08:02:25.999Z</time></trkpt><trkpt lat="44.804241" lon="13.9097446"><ele>43.0</ele><time>2026-04-12T08:02:28.994Z</time></trkpt><trkpt lat="44.8041663" lon="13.9098093"><ele>43.0</ele><time>2026-04-12T08:02:30.994Z</time></trkpt><trkpt lat="44.8040967" lon="13.9098275"><ele>43.0</ele><time>2026-04-12T08:02:32.007Z</time></trkpt><trkpt lat="44.804008" lon="13.9098392"><ele>43.0</ele><time>2026-04-12T08:02:33.002Z</time></trkpt><trkpt lat="44.8039172" lon="13.9098626"><ele>43.0</ele><time>2026-04-12T08:02:33.999Z</time></trkpt><trkpt lat="44.8038332" lon="13.9098846"><ele>43.0</ele><time>2026-04-12T08:02:34.999Z</time></trkpt><trkpt lat="44.8037541" lon="13.9099037"><ele>43.0</ele><time>2026-04-12T08:02:35.994Z</time></trkpt><trkpt lat="44.8036798" lon="13.9099204"><ele>43.0</ele><time>2026-04-12T08:02:36.993Z</time></trkpt><trkpt lat="44.8036023" lon="13.9099357"><ele>43.0</ele><time>2026-04-12T08:02:37.993Z</time></trkpt><trkpt lat="44.803524" lon="13.9099542"><ele>43.0</ele><time>2026-04-12T08:02:38.996Z</time></trkpt><trkpt lat="44.8034438" lon="13.9099534"><ele>43.0</ele><time>2026-04-12T08:02:39.995Z</time></trkpt><trkpt lat="44.8033651" lon="13.9099546"><ele>43.0</ele><time>2026-04-12T08:02:40.998Z</time></trkpt><trkpt lat="44.8032835" lon="13.9099564"><ele>43.0</ele><time>2026-04-12T08:02:41.998Z</time></trkpt><trkpt lat="44.8032004" lon="13.9099547"><ele>42.8</ele><time>2026-04-12T08:02:42.997Z</time></trkpt><trkpt lat="44.8030288" lon="13.9099425"><ele>42.599999999999994</ele><time>2026-04-12T08:02:44.996Z</time></trkpt><trkpt lat="44.8029413" lon="13.9099325"><ele>42.400000000000006</ele><time>2026-04-12T08:02:45.996Z</time></trkpt><trkpt lat="44.8028575" lon="13.9099314"><ele>42.2</ele><time>2026-04-12T08:02:47Z</time></trkpt><trkpt lat="44.8027751" lon="13.9099385"><ele>42.0</ele><time>2026-04-12T08:02:47.997Z</time></trkpt><trkpt lat="44.8027094" lon="13.9099584"><ele>42.166666666666664</ele><time>2026-04-12T08:02:48.995Z</time></trkpt><trkpt lat="44.8026427" lon="13.9099766"><ele>42.333333333333336</ele><time>2026-04-12T08:02:49.994Z</time></trkpt><trkpt lat="44.8025549" lon="13.9100033"><ele>42.5</ele><time>2026-04-12T08:02:51.993Z</time></trkpt><trkpt lat="44.8024891" lon="13.9099319"><ele>42.66666666666667</ele><time>2026-04-12T08:02:54.995Z</time></trkpt><trkpt lat="44.8024735" lon="13.9098285"><ele>42.833333333333336</ele><time>2026-04-12T08:02:57.997Z</time></trkpt><trkpt lat="44.8024751" lon="13.9097019"><ele>43.0</ele><time>2026-04-12T08:03:00.997Z</time></trkpt><trkpt lat="44.8024015" lon="13.9097074"><ele>43.00000000000001</ele><time>2026-04-12T08:03:04.999Z</time></trkpt><trkpt lat="44.8024221" lon="13.9097956"><ele>43.0</ele><time>2026-04-12T08:03:07Z</time></trkpt><trkpt lat="44.8024484" lon="13.9098771"><ele>43.0</ele><time>2026-04-12T08:03:08.997Z</time></trkpt><trkpt lat="44.802444" lon="13.9099757"><ele>43.0</ele><time>2026-04-12T08:03:12.992Z</time></trkpt><trkpt lat="44.8024508" lon="13.909884"><ele>43.0</ele><time>2026-04-12T08:03:49.994Z</time></trkpt><trkpt lat="44.8024849" lon="13.9099678"><ele>43.00000000000001</ele><time>2026-04-12T08:18:25.998Z</time></trkpt><trkpt lat="44.8025481" lon="13.9099837"><ele>43.0</ele><time>2026-04-12T08:18:28.992Z</time></trkpt><trkpt lat="44.802618" lon="13.9099691"><ele>42.833333333333336</ele><time>2026-04-12T08:18:30.992Z</time></trkpt><trkpt lat="44.8026962" lon="13.9099482"><ele>42.66666666666667</ele><time>2026-04-12T08:18:32.998Z</time></trkpt><trkpt lat="44.8027634" lon="13.9099562"><ele>42.5</ele><time>2026-04-12T08:18:33.994Z</time></trkpt><trkpt lat="44.8028876" lon="13.9099388"><ele>42.333333333333336</ele><time>2026-04-12T08:18:35.994Z</time></trkpt><trkpt lat="44.8029593" lon="13.9099446"><ele>42.166666666666664</ele><time>2026-04-12T08:18:36.989Z</time></trkpt><trkpt lat="44.8030297" lon="13.9099484"><ele>42.0</ele><time>2026-04-12T08:18:37.988Z</time></trkpt><trkpt lat="44.8031031" lon="13.9099555"><ele>42.0</ele><time>2026-04-12T08:18:38.989Z</time></trkpt><trkpt lat="44.8031738" lon="13.9099658"><ele>42.0</ele><time>2026-04-12T08:18:39.995Z</time></trkpt><trkpt lat="44.8032491" lon="13.909974"><ele>42.0</ele><time>2026-04-12T08:18:40.99Z</time></trkpt><trkpt lat="44.8033297" lon="13.9099764"><ele>42.0</ele><time>2026-04-12T08:18:41.993Z</time></trkpt><trkpt lat="44.8034104" lon="13.9099805"><ele>42.0</ele><time>2026-04-12T08:18:42.991Z</time></trkpt><trkpt lat="44.8034997" lon="13.9099733"><ele>42.0</ele><time>2026-04-12T08:18:43.994Z</time></trkpt><trkpt lat="44.8035817" lon="13.9099574"><ele>42.166666666666664</ele><time>2026-04-12T08:18:44.994Z</time></trkpt><trkpt lat="44.8036619" lon="13.9099375"><ele>42.333333333333336</ele><time>2026-04-12T08:18:45.99Z</time></trkpt><trkpt lat="44.8037409" lon="13.9099192"><ele>42.5</ele><time>2026-04-12T08:18:46.998Z</time></trkpt><trkpt lat="44.8038197" lon="13.9099005"><ele>42.66666666666667</ele><time>2026-04-12T08:18:47.996Z</time></trkpt><trkpt lat="44.8039049" lon="13.9098829"><ele>42.833333333333336</ele><time>2026-04-12T08:18:48.994Z</time></trkpt><trkpt lat="44.8039896" lon="13.9098682"><ele>43.0</ele><time>2026-04-12T08:18:49.99Z</time></trkpt><trkpt lat="44.8040737" lon="13.9098452"><ele>43.0</ele><time>2026-04-12T08:18:50.992Z</time></trkpt><trkpt lat="44.8041625" lon="13.9098242"><ele>43.0</ele><time>2026-04-12T08:18:51.99Z</time></trkpt><trkpt lat="44.8042552" lon="13.9098052"><ele>43.0</ele><time>2026-04-12T08:18:52.992Z</time></trkpt><trkpt lat="44.8043512" lon="13.909791"><ele>43.0</ele><time>2026-04-12T08:18:53.999Z</time></trkpt><trkpt lat="44.8044501" lon="13.9097749"><ele>43.0</ele><time>2026-04-12T08:18:54.99Z</time></trkpt><trkpt lat="44.804547" lon="13.9097509"><ele>42.8</ele><time>2026-04-12T08:18:55.995Z</time></trkpt><trkpt lat="44.8046455" lon="13.9097169"><ele>42.599999999999994</ele><time>2026-04-12T08:18:57.016Z</time></trkpt><trkpt lat="44.8047453" lon="13.9096738"><ele>42.400000000000006</ele><time>2026-04-12T08:18:58.01Z</time></trkpt><trkpt lat="44.8048465" lon="13.90963"><ele>42.2</ele><time>2026-04-12T08:18:58.993Z</time></trkpt><trkpt lat="44.8049462" lon="13.9095862"><ele>42.0</ele><time>2026-04-12T08:18:59.992Z</time></trkpt><trkpt lat="44.8050453" lon="13.9095432"><ele>42.0</ele><time>2026-04-12T08:19:00.993Z</time></trkpt><trkpt lat="44.8051438" lon="13.9094991"><ele>42.0</ele><time>2026-04-12T08:19:02.004Z</time></trkpt><trkpt lat="44.8052472" lon="13.9094539"><ele>42.0</ele><time>2026-04-12T08:19:02.993Z</time></trkpt><trkpt lat="44.8053425" lon="13.9094159"><ele>42.0</ele><time>2026-04-12T08:19:03.997Z</time></trkpt><trkpt lat="44.8054382" lon="13.909373"><ele>42.0</ele><time>2026-04-12T08:19:04.994Z</time></trkpt><trkpt lat="44.8055337" lon="13.9093359"><ele>42.2</ele><time>2026-04-12T08:19:05.992Z</time></trkpt><trkpt lat="44.8056268" lon="13.9092977"><ele>42.400000000000006</ele><time>2026-04-12T08:19:06.997Z</time></trkpt><trkpt lat="44.80572" lon="13.9092598"><ele>42.599999999999994</ele><time>2026-04-12T08:19:07.992Z</time></trkpt><trkpt lat="44.8058128" lon="13.9092236"><ele>42.8</ele><time>2026-04-12T08:19:08.991Z</time></trkpt><trkpt lat="44.8059024" lon="13.9091886"><ele>43.0</ele><time>2026-04-12T08:19:09.995Z</time></trkpt><trkpt lat="44.8059882" lon="13.9091539"><ele>44.833333333333336</ele><time>2026-04-12T08:19:10.993Z</time></trkpt><trkpt lat="44.8060748" lon="13.909127"><ele>46.66666666666667</ele><time>2026-04-12T08:19:11.992Z</time></trkpt><trkpt lat="44.8061565" lon="13.9091074"><ele>48.5</ele><time>2026-04-12T08:19:12.994Z</time></trkpt><trkpt lat="44.8062423" lon="13.9090885"><ele>50.333333333333336</ele><time>2026-04-12T08:19:13.995Z</time></trkpt><trkpt lat="44.8063257" lon="13.9090704"><ele>52.166666666666664</ele><time>2026-04-12T08:19:14.991Z</time></trkpt><trkpt lat="44.806414" lon="13.9090484"><ele>54.0</ele><time>2026-04-12T08:19:15.996Z</time></trkpt><trkpt lat="44.8065025" lon="13.9090254"><ele>54.0</ele><time>2026-04-12T08:19:16.992Z</time></trkpt><trkpt lat="44.8066016" lon="13.909005"><ele>54.00000000000001</ele><time>2026-04-12T08:19:17.991Z</time></trkpt><trkpt lat="44.8067153" lon="13.9089822"><ele>54.00000000000001</ele><time>2026-04-12T08:19:18.992Z</time></trkpt><trkpt lat="44.8068243" lon="13.9089604"><ele>54.0</ele><time>2026-04-12T08:19:19.989Z</time></trkpt><trkpt lat="44.8069317" lon="13.9089321"><ele>54.0</ele><time>2026-04-12T08:19:20.996Z</time></trkpt><trkpt lat="44.8070347" lon="13.9089172"><ele>55.400000000000006</ele><time>2026-04-12T08:19:21.99Z</time></trkpt><trkpt lat="44.8071386" lon="13.9089057"><ele>56.800000000000004</ele><time>2026-04-12T08:19:22.994Z</time></trkpt><trkpt lat="44.8072507" lon="13.9088894"><ele>58.199999999999996</ele><time>2026-04-12T08:19:23.994Z</time></trkpt><trkpt lat="44.8073572" lon="13.9088708"><ele>59.599999999999994</ele><time>2026-04-12T08:19:24.997Z</time></trkpt><trkpt lat="44.8074613" lon="13.9088551"><ele>61.0</ele><time>2026-04-12T08:19:25.996Z</time></trkpt><trkpt lat="44.8075601" lon="13.9088422"><ele>61.0</ele><time>2026-04-12T08:19:26.997Z</time></trkpt><trkpt lat="44.807659" lon="13.9088184"><ele>60.99999999999999</ele><time>2026-04-12T08:19:27.99Z</time></trkpt><trkpt lat="44.8077605" lon="13.9088025"><ele>60.99999999999999</ele><time>2026-04-12T08:19:28.989Z</time></trkpt><trkpt lat="44.8078518" lon="13.9087918"><ele>61.0</ele><time>2026-04-12T08:19:29.989Z</time></trkpt><trkpt lat="44.807949" lon="13.9087857"><ele>61.0</ele><time>2026-04-12T08:19:30.99Z</time></trkpt><trkpt lat="44.8080508" lon="13.9087714"><ele>61.4</ele><time>2026-04-12T08:19:31.99Z</time></trkpt><trkpt lat="44.8081525" lon="13.9087506"><ele>61.8</ele><time>2026-04-12T08:19:32.994Z</time></trkpt><trkpt lat="44.8082515" lon="13.908731"><ele>62.199999999999996</ele><time>2026-04-12T08:19:33.992Z</time></trkpt><trkpt lat="44.8083488" lon="13.9087119"><ele>62.599999999999994</ele><time>2026-04-12T08:19:34.994Z</time></trkpt><trkpt lat="44.8084408" lon="13.9086947"><ele>63.0</ele><time>2026-04-12T08:19:35.997Z</time></trkpt><trkpt lat="44.8085399" lon="13.9086717"><ele>63.4</ele><time>2026-04-12T08:19:36.99Z</time></trkpt><trkpt lat="44.8086453" lon="13.9086511"><ele>63.8</ele><time>2026-04-12T08:19:37.993Z</time></trkpt><trkpt lat="44.8087463" lon="13.9086382"><ele>64.2</ele><time>2026-04-12T08:19:38.999Z</time></trkpt><trkpt lat="44.8088562" lon="13.9086208"><ele>64.6</ele><time>2026-04-12T08:19:39.99Z</time></trkpt><trkpt lat="44.8089649" lon="13.9086071"><ele>65.0</ele><time>2026-04-12T08:19:40.991Z</time></trkpt><trkpt lat="44.8090776" lon="13.9085798"><ele>65.0</ele><time>2026-04-12T08:19:41.99Z</time></trkpt><trkpt lat="44.8091926" lon="13.9085569"><ele>65.0</ele><time>2026-04-12T08:19:42.997Z</time></trkpt><trkpt lat="44.8093022" lon="13.9085366"><ele>65.0</ele><time>2026-04-12T08:19:43.996Z</time></trkpt><trkpt lat="44.8094197" lon="13.9085191"><ele>65.0</ele><time>2026-04-12T08:19:44.992Z</time></trkpt><trkpt lat="44.8095276" lon="13.9085059"><ele>64.0</ele><time>2026-04-12T08:19:45.995Z</time></trkpt><trkpt lat="44.8096403" lon="13.9084878"><ele>63.0</ele><time>2026-04-12T08:19:46.992Z</time></trkpt><trkpt lat="44.8097622" lon="13.9084716"><ele>62.0</ele><time>2026-04-12T08:19:47.994Z</time></trkpt><trkpt lat="44.8098756" lon="13.9084625"><ele>61.0</ele><time>2026-04-12T08:19:48.99Z</time></trkpt><trkpt lat="44.8099832" lon="13.9084622"><ele>61.0</ele><time>2026-04-12T08:19:49.993Z</time></trkpt><trkpt lat="44.8100902" lon="13.9084636"><ele>60.99999999999999</ele><time>2026-04-12T08:19:50.991Z</time></trkpt><trkpt lat="44.8101939" lon="13.9084863"><ele>60.99999999999999</ele><time>2026-04-12T08:19:51.989Z</time></trkpt><trkpt lat="44.8102895" lon="13.9085326"><ele>61.0</ele><time>2026-04-12T08:19:52.993Z</time></trkpt><trkpt lat="44.8103766" lon="13.90861"><ele>61.0</ele><time>2026-04-12T08:19:53.995Z</time></trkpt><trkpt lat="44.8104563" lon="13.9087159"><ele>59.75</ele><time>2026-04-12T08:19:54.989Z</time></trkpt><trkpt lat="44.8105407" lon="13.9088289"><ele>58.5</ele><time>2026-04-12T08:19:55.993Z</time></trkpt><trkpt lat="44.810621" lon="13.9089563"><ele>57.25</ele><time>2026-04-12T08:19:56.99Z</time></trkpt><trkpt lat="44.8107131" lon="13.9090855"><ele>56.0</ele><time>2026-04-12T08:19:57.99Z</time></trkpt><trkpt lat="44.8108046" lon="13.9092281"><ele>55.0</ele><time>2026-04-12T08:19:58.99Z</time></trkpt><trkpt lat="44.8109022" lon="13.9093656"><ele>54.0</ele><time>2026-04-12T08:19:59.989Z</time></trkpt><trkpt lat="44.8109979" lon="13.9095077"><ele>53.0</ele><time>2026-04-12T08:20:00.99Z</time></trkpt><trkpt lat="44.8110984" lon="13.9096466"><ele>52.0</ele><time>2026-04-12T08:20:01.994Z</time></trkpt><trkpt lat="44.8111965" lon="13.9097933"><ele>51.75</ele><time>2026-04-12T08:20:02.995Z</time></trkpt><trkpt lat="44.8112965" lon="13.9099439"><ele>51.5</ele><time>2026-04-12T08:20:03.991Z</time></trkpt><trkpt lat="44.8113977" lon="13.9100904"><ele>51.25</ele><time>2026-04-12T08:20:04.997Z</time></trkpt><trkpt lat="44.811497" lon="13.910241"><ele>51.0</ele><time>2026-04-12T08:20:05.994Z</time></trkpt><trkpt lat="44.8115973" lon="13.9103953"><ele>50.25</ele><time>2026-04-12T08:20:06.995Z</time></trkpt><trkpt lat="44.8116946" lon="13.9105491"><ele>49.5</ele><time>2026-04-12T08:20:07.989Z</time></trkpt><trkpt lat="44.8117969" lon="13.910701"><ele>48.75</ele><time>2026-04-12T08:20:08.988Z</time></trkpt><trkpt lat="44.8118916" lon="13.9108533"><ele>48.0</ele><time>2026-04-12T08:20:09.992Z</time></trkpt><trkpt lat="44.811992" lon="13.9110005"><ele>44.5</ele><time>2026-04-12T08:20:10.99Z</time></trkpt><trkpt lat="44.8120906" lon="13.9111447"><ele>41.0</ele><time>2026-04-12T08:20:11.994Z</time></trkpt><trkpt lat="44.8121937" lon="13.9112935"><ele>37.5</ele><time>2026-04-12T08:20:12.989Z</time></trkpt><trkpt lat="44.8122952" lon="13.9114424"><ele>34.0</ele><time>2026-04-12T08:20:13.996Z</time></trkpt><trkpt lat="44.8123993" lon="13.9115908"><ele>34.0</ele><time>2026-04-12T08:20:14.991Z</time></trkpt><trkpt lat="44.8125041" lon="13.9117314"><ele>34.0</ele><time>2026-04-12T08:20:15.994Z</time></trkpt><trkpt lat="44.8126097" lon="13.9118762"><ele>34.0</ele><time>2026-04-12T08:20:16.996Z</time></trkpt><trkpt lat="44.8127218" lon="13.9120149"><ele>34.0</ele><time>2026-04-12T08:20:17.992Z</time></trkpt><trkpt lat="44.8128256" lon="13.9121365"><ele>32.5</ele><time>2026-04-12T08:20:18.994Z</time></trkpt><trkpt lat="44.8129373" lon="13.9122658"><ele>31.0</ele><time>2026-04-12T08:20:19.989Z</time></trkpt><trkpt lat="44.8130545" lon="13.9123787"><ele>29.5</ele><time>2026-04-12T08:20:20.994Z</time></trkpt><trkpt lat="44.8131611" lon="13.9124944"><ele>28.0</ele><time>2026-04-12T08:20:21.991Z</time></trkpt><trkpt lat="44.8132673" lon="13.9126045"><ele>24.25</ele><time>2026-04-12T08:20:22.987Z</time></trkpt><trkpt lat="44.8133778" lon="13.9127015"><ele>20.5</ele><time>2026-04-12T08:20:23.99Z</time></trkpt><trkpt lat="44.8134971" lon="13.9127752"><ele>16.75</ele><time>2026-04-12T08:20:24.995Z</time></trkpt><trkpt lat="44.8136228" lon="13.9128248"><ele>13.0</ele><time>2026-04-12T08:20:25.991Z</time></trkpt><trkpt lat="44.8137448" lon="13.9128525"><ele>11.75</ele><time>2026-04-12T08:20:26.992Z</time></trkpt><trkpt lat="44.8138754" lon="13.9128466"><ele>10.5</ele><time>2026-04-12T08:20:27.996Z</time></trkpt><trkpt lat="44.8139938" lon="13.912808"><ele>9.25</ele><time>2026-04-12T08:20:28.991Z</time></trkpt><trkpt lat="44.814124" lon="13.9127192"><ele>8.0</ele><time>2026-04-12T08:20:29.994Z</time></trkpt><trkpt lat="44.8142247" lon="13.9126015"><ele>7.0</ele><time>2026-04-12T08:20:30.992Z</time></trkpt><trkpt lat="44.8143225" lon="13.912459"><ele>6.0</ele><time>2026-04-12T08:20:31.99Z</time></trkpt><trkpt lat="44.8143945" lon="13.9123035"><ele>5.0</ele><time>2026-04-12T08:20:32.993Z</time></trkpt><trkpt lat="44.8144518" lon="13.9121258"><ele>4.0</ele><time>2026-04-12T08:20:33.995Z</time></trkpt><trkpt lat="44.8144976" lon="13.9119513"><ele>4.0</ele><time>2026-04-12T08:20:34.989Z</time></trkpt><trkpt lat="44.8145306" lon="13.91177"><ele>4.0</ele><time>2026-04-12T08:20:35.993Z</time></trkpt><trkpt lat="44.8145668" lon="13.9115928"><ele>4.0</ele><time>2026-04-12T08:20:36.991Z</time></trkpt><trkpt lat="44.8146008" lon="13.9114171"><ele>4.0</ele><time>2026-04-12T08:20:37.994Z</time></trkpt><trkpt lat="44.8146387" lon="13.9112449"><ele>4.25</ele><time>2026-04-12T08:20:38.989Z</time></trkpt><trkpt lat="44.8146706" lon="13.9110681"><ele>4.5</ele><time>2026-04-12T08:20:39.991Z</time></trkpt><trkpt lat="44.8147034" lon="13.9108922"><ele>4.75</ele><time>2026-04-12T08:20:40.991Z</time></trkpt><trkpt lat="44.8147295" lon="13.910716"><ele>5.0</ele><time>2026-04-12T08:20:41.99Z</time></trkpt><trkpt lat="44.814766" lon="13.9105416"><ele>5.5</ele><time>2026-04-12T08:20:42.992Z</time></trkpt><trkpt lat="44.8148006" lon="13.9103654"><ele>6.0</ele><time>2026-04-12T08:20:43.994Z</time></trkpt><trkpt lat="44.8148331" lon="13.9101823"><ele>6.5</ele><time>2026-04-12T08:20:44.989Z</time></trkpt><trkpt lat="44.8148675" lon="13.9099772"><ele>7.0</ele><time>2026-04-12T08:20:45.994Z</time></trkpt><trkpt lat="44.8149017" lon="13.9097803"><ele>8.0</ele><time>2026-04-12T08:20:46.993Z</time></trkpt><trkpt lat="44.8149376" lon="13.9095829"><ele>9.0</ele><time>2026-04-12T08:20:47.992Z</time></trkpt><trkpt lat="44.8149645" lon="13.9093829"><ele>10.0</ele><time>2026-04-12T08:20:48.993Z</time></trkpt><trkpt lat="44.8149956" lon="13.9091828"><ele>11.0</ele><time>2026-04-12T08:20:49.992Z</time></trkpt><trkpt lat="44.8150224" lon="13.908984"><ele>11.0</ele><time>2026-04-12T08:20:50.992Z</time></trkpt><trkpt lat="44.815044" lon="13.9087842"><ele>11.0</ele><time>2026-04-12T08:20:51.99Z</time></trkpt><trkpt lat="44.8150644" lon="13.9085629"><ele>11.0</ele><time>2026-04-12T08:20:52.99Z</time></trkpt><trkpt lat="44.8150861" lon="13.908343"><ele>11.666666666666666</ele><time>2026-04-12T08:20:53.99Z</time></trkpt><trkpt lat="44.8151011" lon="13.9081233"><ele>12.333333333333332</ele><time>2026-04-12T08:20:54.995Z</time></trkpt><trkpt lat="44.8151197" lon="13.9078997"><ele>13.0</ele><time>2026-04-12T08:20:55.993Z</time></trkpt><trkpt lat="44.8151343" lon="13.9076847"><ele>13.25</ele><time>2026-04-12T08:20:56.991Z</time></trkpt><trkpt lat="44.8151372" lon="13.9074737"><ele>13.5</ele><time>2026-04-12T08:20:57.988Z</time></trkpt><trkpt lat="44.8151373" lon="13.9072641"><ele>13.75</ele><time>2026-04-12T08:20:58.99Z</time></trkpt><trkpt lat="44.8151345" lon="13.907055"><ele>14.0</ele><time>2026-04-12T08:20:59.989Z</time></trkpt><trkpt lat="44.8151169" lon="13.9068492"><ele>13.0</ele><time>2026-04-12T08:21:00.989Z</time></trkpt><trkpt lat="44.8150846" lon="13.9066485"><ele>12.0</ele><time>2026-04-12T08:21:01.99Z</time></trkpt><trkpt lat="44.8150455" lon="13.9064509"><ele>11.0</ele><time>2026-04-12T08:21:02.99Z</time></trkpt><trkpt lat="44.8150015" lon="13.9062559"><ele>10.0</ele><time>2026-04-12T08:21:03.988Z</time></trkpt><trkpt lat="44.8149571" lon="13.9060634"><ele>9.0</ele><time>2026-04-12T08:21:04.991Z</time></trkpt><trkpt lat="44.8149171" lon="13.9058754"><ele>8.0</ele><time>2026-04-12T08:21:05.993Z</time></trkpt><trkpt lat="44.8148726" lon="13.9056862"><ele>7.0</ele><time>2026-04-12T08:21:06.994Z</time></trkpt><trkpt lat="44.8148277" lon="13.9054925"><ele>6.0</ele><time>2026-04-12T08:21:07.998Z</time></trkpt><trkpt lat="44.8147859" lon="13.9052923"><ele>6.0</ele><time>2026-04-12T08:21:08.991Z</time></trkpt><trkpt lat="44.814743" lon="13.9050931"><ele>6.0</ele><time>2026-04-12T08:21:09.991Z</time></trkpt><trkpt lat="44.8147" lon="13.9048933"><ele>6.0</ele><time>2026-04-12T08:21:10.993Z</time></trkpt><trkpt lat="44.8146625" lon="13.9046919"><ele>6.0</ele><time>2026-04-12T08:21:11.994Z</time></trkpt><trkpt lat="44.8146226" lon="13.9044883"><ele>4.666666666666667</ele><time>2026-04-12T08:21:12.993Z</time></trkpt><trkpt lat="44.8145932" lon="13.9042822"><ele>3.333333333333333</ele><time>2026-04-12T08:21:13.991Z</time></trkpt><trkpt lat="44.8145637" lon="13.9040698"><ele>2.0</ele><time>2026-04-12T08:21:14.988Z</time></trkpt><trkpt lat="44.8145446" lon="13.9038611"><ele>1.5</ele><time>2026-04-12T08:21:15.992Z</time></trkpt><trkpt lat="44.8145292" lon="13.9036552"><ele>1.0</ele><time>2026-04-12T08:21:16.989Z</time></trkpt><trkpt lat="44.8145195" lon="13.9034546"><ele>0.5</ele><time>2026-04-12T08:21:17.99Z</time></trkpt><trkpt lat="44.8145167" lon="13.9032575"><ele>0.0</ele><time>2026-04-12T08:21:18.989Z</time></trkpt><trkpt lat="44.8145233" lon="13.9030608"><ele>0.0</ele><time>2026-04-12T08:21:19.993Z</time></trkpt><trkpt lat="44.8145289" lon="13.9028656"><ele>0.0</ele><time>2026-04-12T08:21:20.998Z</time></trkpt><trkpt lat="44.8145373" lon="13.9026645"><ele>0.0</ele><time>2026-04-12T08:21:22.01Z</time></trkpt><trkpt lat="44.814552" lon="13.9024622"><ele>0.0</ele><time>2026-04-12T08:21:22.992Z</time></trkpt><trkpt lat="44.8145757" lon="13.9022588"><ele>0.25</ele><time>2026-04-12T08:21:23.993Z</time></trkpt><trkpt lat="44.8146025" lon="13.902055"><ele>0.5</ele><time>2026-04-12T08:21:24.994Z</time></trkpt><trkpt lat="44.8146355" lon="13.9018566"><ele>0.75</ele><time>2026-04-12T08:21:25.995Z</time></trkpt><trkpt lat="44.8146765" lon="13.9016607"><ele>1.0</ele><time>2026-04-12T08:21:26.992Z</time></trkpt><trkpt lat="44.8147169" lon="13.9014719"><ele>1.0</ele><time>2026-04-12T08:21:27.995Z</time></trkpt><trkpt lat="44.8147694" lon="13.9012874"><ele>1.0</ele><time>2026-04-12T08:21:28.999Z</time></trkpt><trkpt lat="44.8148309" lon="13.9011046"><ele>1.0</ele><time>2026-04-12T08:21:29.989Z</time></trkpt><trkpt lat="44.8149023" lon="13.9009283"><ele>1.0</ele><time>2026-04-12T08:21:31.002Z</time></trkpt><trkpt lat="44.8149778" lon="13.9007648"><ele>1.25</ele><time>2026-04-12T08:21:31.989Z</time></trkpt><trkpt lat="44.8150517" lon="13.9006099"><ele>1.5</ele><time>2026-04-12T08:21:32.989Z</time></trkpt><trkpt lat="44.8151247" lon="13.9004596"><ele>1.75</ele><time>2026-04-12T08:21:33.996Z</time></trkpt><trkpt lat="44.8151913" lon="13.9003176"><ele>2.0</ele><time>2026-04-12T08:21:34.994Z</time></trkpt><trkpt lat="44.8152547" lon="13.9001863"><ele>1.8333333333333333</ele><time>2026-04-12T08:21:35.989Z</time></trkpt><trkpt lat="44.8153142" lon="13.9000696"><ele>1.6666666666666665</ele><time>2026-04-12T08:21:36.991Z</time></trkpt><trkpt lat="44.8153692" lon="13.8999687"><ele>1.5</ele><time>2026-04-12T08:21:37.991Z</time></trkpt><trkpt lat="44.8154142" lon="13.8998849"><ele>1.3333333333333333</ele><time>2026-04-12T08:21:38.996Z</time></trkpt><trkpt lat="44.8154708" lon="13.899785"><ele>1.1666666666666665</ele><time>2026-04-12T08:21:40.989Z</time></trkpt><trkpt lat="44.8155388" lon="13.8997453"><ele>1.0</ele><time>2026-04-12T08:21:42.999Z</time></trkpt><trkpt lat="44.8156114" lon="13.8997363"><ele>1.0</ele><time>2026-04-12T08:21:44.996Z</time></trkpt><trkpt lat="44.8156737" lon="13.8997169"><ele>1.0</ele><time>2026-04-12T08:21:47.998Z</time></trkpt><trkpt lat="44.8158408" lon="13.8996453"><ele>1.0</ele><time>2026-04-12T08:21:50.994Z</time></trkpt><trkpt lat="44.8159112" lon="13.8996252"><ele>1.0</ele><time>2026-04-12T08:21:51.991Z</time></trkpt><trkpt lat="44.8159925" lon="13.8995657"><ele>1.0</ele><time>2026-04-12T08:21:53.988Z</time></trkpt><trkpt lat="44.8160417" lon="13.8994562"><ele>0.8</ele><time>2026-04-12T08:21:55.998Z</time></trkpt><trkpt lat="44.8160853" lon="13.8993292"><ele>0.6000000000000001</ele><time>2026-04-12T08:21:58.003Z</time></trkpt><trkpt lat="44.8161396" lon="13.8992134"><ele>0.4</ele><time>2026-04-12T08:21:59.993Z</time></trkpt><trkpt lat="44.8161811" lon="13.8990881"><ele>0.2</ele><time>2026-04-12T08:22:01.992Z</time></trkpt><trkpt lat="44.8162149" lon="13.8989669"><ele>0.0</ele><time>2026-04-12T08:22:03.99Z</time></trkpt><trkpt lat="44.8162566" lon="13.8988593"><ele>0.0</ele><time>2026-04-12T08:22:05.99Z</time></trkpt><trkpt lat="44.8163075" lon="13.8987902"><ele>0.0</ele><time>2026-04-12T08:22:07.991Z</time></trkpt><trkpt lat="44.8163516" lon="13.8987238"><ele>0.0</ele><time>2026-04-12T08:22:10.989Z</time></trkpt><trkpt lat="44.8164287" lon="13.898551"><ele>0.0</ele><time>2026-04-12T08:22:13Z</time></trkpt><trkpt lat="44.8164601" lon="13.898446"><ele>0.0</ele><time>2026-04-12T08:22:13.993Z</time></trkpt><trkpt lat="44.816479" lon="13.8983178"><ele>0.16666666666666666</ele><time>2026-04-12T08:22:15.988Z</time></trkpt><trkpt lat="44.8165274" lon="13.8981992"><ele>0.3333333333333333</ele><time>2026-04-12T08:22:18.002Z</time></trkpt><trkpt lat="44.8165822" lon="13.8980935"><ele>0.5</ele><time>2026-04-12T08:22:20.004Z</time></trkpt><trkpt lat="44.816627" lon="13.8980008"><ele>0.6666666666666666</ele><time>2026-04-12T08:22:21.998Z</time></trkpt><trkpt lat="44.816651" lon="13.897908"><ele>0.8333333333333333</ele><time>2026-04-12T08:22:23.993Z</time></trkpt><trkpt lat="44.8166264" lon="13.8977953"><ele>1.0</ele><time>2026-04-12T08:22:28.989Z</time></trkpt><trkpt lat="44.8166143" lon="13.8976851"><ele>2.5</ele><time>2026-04-12T08:22:31.994Z</time></trkpt><trkpt lat="44.8166695" lon="13.8974732"><ele>4.0</ele><time>2026-04-12T08:22:33.988Z</time></trkpt><trkpt lat="44.8168137" lon="13.8969478"><ele>3.25</ele><time>2026-04-12T08:22:35.988Z</time></trkpt><trkpt lat="44.8168612" lon="13.8968036"><ele>2.5</ele><time>2026-04-12T08:22:36.991Z</time></trkpt><trkpt lat="44.8169062" lon="13.8966516"><ele>1.75</ele><time>2026-04-12T08:22:37.998Z</time></trkpt><trkpt lat="44.8169501" lon="13.896492"><ele>1.0</ele><time>2026-04-12T08:22:38.99Z</time></trkpt><trkpt lat="44.8169923" lon="13.8963251"><ele>1.0</ele><time>2026-04-12T08:22:39.995Z</time></trkpt><trkpt lat="44.8170314" lon="13.8961555"><ele>1.0</ele><time>2026-04-12T08:22:40.988Z</time></trkpt><trkpt lat="44.8170714" lon="13.8959783"><ele>1.0</ele><time>2026-04-12T08:22:41.99Z</time></trkpt><trkpt lat="44.8171063" lon="13.8957927"><ele>1.0</ele><time>2026-04-12T08:22:42.993Z</time></trkpt><trkpt lat="44.817133" lon="13.8956077"><ele>0.75</ele><time>2026-04-12T08:22:43.989Z</time></trkpt><trkpt lat="44.8171473" lon="13.8954234"><ele>0.5</ele><time>2026-04-12T08:22:44.989Z</time></trkpt><trkpt lat="44.81715" lon="13.8952354"><ele>0.25</ele><time>2026-04-12T08:22:45.998Z</time></trkpt><trkpt lat="44.8171332" lon="13.8950442"><ele>0.0</ele><time>2026-04-12T08:22:46.991Z</time></trkpt><trkpt lat="44.8170941" lon="13.8948541"><ele>0.0</ele><time>2026-04-12T08:22:47.994Z</time></trkpt><trkpt lat="44.8170399" lon="13.8946672"><ele>0.0</ele><time>2026-04-12T08:22:48.991Z</time></trkpt><trkpt lat="44.8169686" lon="13.8944945"><ele>0.0</ele><time>2026-04-12T08:22:49.992Z</time></trkpt><trkpt lat="44.8168836" lon="13.8943242"><ele>0.0</ele><time>2026-04-12T08:22:50.995Z</time></trkpt><trkpt lat="44.8167902" lon="13.8941578"><ele>1.3333333333333333</ele><time>2026-04-12T08:22:51.991Z</time></trkpt><trkpt lat="44.8166888" lon="13.8939901"><ele>2.6666666666666665</ele><time>2026-04-12T08:22:52.989Z</time></trkpt><trkpt lat="44.8165878" lon="13.8938288"><ele>4.0</ele><time>2026-04-12T08:22:53.986Z</time></trkpt><trkpt lat="44.8164886" lon="13.893664"><ele>4.0</ele><time>2026-04-12T08:22:54.989Z</time></trkpt><trkpt lat="44.816391" lon="13.893493"><ele>4.0</ele><time>2026-04-12T08:22:55.988Z</time></trkpt><trkpt lat="44.8162989" lon="13.8933261"><ele>4.0</ele><time>2026-04-12T08:22:56.997Z</time></trkpt><trkpt lat="44.8162112" lon="13.89315"><ele>4.0</ele><time>2026-04-12T08:22:57.995Z</time></trkpt><trkpt lat="44.8161282" lon="13.8929738"><ele>4.0</ele><time>2026-04-12T08:22:58.991Z</time></trkpt><trkpt lat="44.8160531" lon="13.8927883"><ele>4.0</ele><time>2026-04-12T08:22:59.992Z</time></trkpt><trkpt lat="44.815996" lon="13.8925959"><ele>4.0</ele><time>2026-04-12T08:23:00.989Z</time></trkpt><trkpt lat="44.8159629" lon="13.8923994"><ele>4.0</ele><time>2026-04-12T08:23:01.992Z</time></trkpt><trkpt lat="44.8159599" lon="13.8921915"><ele>4.0</ele><time>2026-04-12T08:23:02.995Z</time></trkpt><trkpt lat="44.8159891" lon="13.8919838"><ele>4.0</ele><time>2026-04-12T08:23:03.989Z</time></trkpt><trkpt lat="44.8160461" lon="13.89178"><ele>3.0</ele><time>2026-04-12T08:23:04.99Z</time></trkpt><trkpt lat="44.8161125" lon="13.8915754"><ele>2.0</ele><time>2026-04-12T08:23:05.995Z</time></trkpt><trkpt lat="44.8161815" lon="13.8913665"><ele>1.0</ele><time>2026-04-12T08:23:06.992Z</time></trkpt><trkpt lat="44.8162427" lon="13.8911502"><ele>1.0</ele><time>2026-04-12T08:23:07.987Z</time></trkpt><trkpt lat="44.8162999" lon="13.8909275"><ele>1.0</ele><time>2026-04-12T08:23:08.987Z</time></trkpt><trkpt lat="44.816349" lon="13.8907104"><ele>1.0</ele><time>2026-04-12T08:23:09.987Z</time></trkpt><trkpt lat="44.816395" lon="13.8904924"><ele>1.6666666666666665</ele><time>2026-04-12T08:23:10.989Z</time></trkpt><trkpt lat="44.8164379" lon="13.8902744"><ele>2.3333333333333335</ele><time>2026-04-12T08:23:11.991Z</time></trkpt><trkpt lat="44.8164824" lon="13.8900544"><ele>3.0</ele><time>2026-04-12T08:23:12.995Z</time></trkpt><trkpt lat="44.8165232" lon="13.8898286"><ele>3.666666666666667</ele><time>2026-04-12T08:23:13.996Z</time></trkpt><trkpt lat="44.8165703" lon="13.8896067"><ele>4.333333333333334</ele><time>2026-04-12T08:23:14.989Z</time></trkpt><trkpt lat="44.8166154" lon="13.8893827"><ele>5.0</ele><time>2026-04-12T08:23:15.999Z</time></trkpt><trkpt lat="44.8166634" lon="13.8891593"><ele>5.333333333333334</ele><time>2026-04-12T08:23:16.989Z</time></trkpt><trkpt lat="44.8167058" lon="13.8889308"><ele>5.666666666666667</ele><time>2026-04-12T08:23:17.994Z</time></trkpt><trkpt lat="44.8167507" lon="13.8886996"><ele>6.0</ele><time>2026-04-12T08:23:18.989Z</time></trkpt><trkpt lat="44.8168033" lon="13.8884721"><ele>4.0</ele><time>2026-04-12T08:23:19.987Z</time></trkpt><trkpt lat="44.8168592" lon="13.8882432"><ele>2.0</ele><time>2026-04-12T08:23:21Z</time></trkpt><trkpt lat="44.8169264" lon="13.8880201"><ele>0.0</ele><time>2026-04-12T08:23:21.996Z</time></trkpt><trkpt lat="44.8170062" lon="13.8878059"><ele>0.0</ele><time>2026-04-12T08:23:22.993Z</time></trkpt><trkpt lat="44.8170994" lon="13.8876021"><ele>0.0</ele><time>2026-04-12T08:23:23.99Z</time></trkpt><trkpt lat="44.8172075" lon="13.8874046"><ele>0.0</ele><time>2026-04-12T08:23:25.001Z</time></trkpt><trkpt lat="44.8173204" lon="13.8872127"><ele>1.3333333333333333</ele><time>2026-04-12T08:23:25.989Z</time></trkpt><trkpt lat="44.8174345" lon="13.8870138"><ele>2.6666666666666665</ele><time>2026-04-12T08:23:26.991Z</time></trkpt><trkpt lat="44.8175484" lon="13.8868316"><ele>4.0</ele><time>2026-04-12T08:23:27.991Z</time></trkpt><trkpt lat="44.8176578" lon="13.8866484"><ele>4.333333333333333</ele><time>2026-04-12T08:23:28.993Z</time></trkpt><trkpt lat="44.8177683" lon="13.8864718"><ele>4.666666666666667</ele><time>2026-04-12T08:23:29.991Z</time></trkpt><trkpt lat="44.8178837" lon="13.8862951"><ele>5.0</ele><time>2026-04-12T08:23:30.99Z</time></trkpt><trkpt lat="44.8179926" lon="13.8861173"><ele>5.0</ele><time>2026-04-12T08:23:31.99Z</time></trkpt><trkpt lat="44.8180996" lon="13.885943"><ele>5.0</ele><time>2026-04-12T08:23:32.993Z</time></trkpt><trkpt lat="44.818206" lon="13.8857624"><ele>5.0</ele><time>2026-04-12T08:23:33.994Z</time></trkpt><trkpt lat="44.8183096" lon="13.8855855"><ele>5.666666666666667</ele><time>2026-04-12T08:23:34.988Z</time></trkpt><trkpt lat="44.8184158" lon="13.8854108"><ele>6.333333333333334</ele><time>2026-04-12T08:23:35.997Z</time></trkpt><trkpt lat="44.8185206" lon="13.885232"><ele>7.0</ele><time>2026-04-12T08:23:36.994Z</time></trkpt><trkpt lat="44.8186333" lon="13.8850568"><ele>7.0</ele><time>2026-04-12T08:23:37.99Z</time></trkpt><trkpt lat="44.8187436" lon="13.8848825"><ele>7.0</ele><time>2026-04-12T08:23:38.988Z</time></trkpt><trkpt lat="44.8188542" lon="13.8847016"><ele>7.0</ele><time>2026-04-12T08:23:39.99Z</time></trkpt><trkpt lat="44.8189627" lon="13.8845265"><ele>7.0</ele><time>2026-04-12T08:23:40.993Z</time></trkpt><trkpt lat="44.8190709" lon="13.8843506"><ele>7.0</ele><time>2026-04-12T08:23:41.991Z</time></trkpt><trkpt lat="44.8191814" lon="13.8841749"><ele>7.0</ele><time>2026-04-12T08:23:42.989Z</time></trkpt><trkpt lat="44.8192935" lon="13.8840007"><ele>5.0</ele><time>2026-04-12T08:23:44.002Z</time></trkpt><trkpt lat="44.8194051" lon="13.8838245"><ele>3.0</ele><time>2026-04-12T08:23:45.027Z</time></trkpt><trkpt lat="44.8195132" lon="13.8836433"><ele>1.0</ele><time>2026-04-12T08:23:46.016Z</time></trkpt><trkpt lat="44.819618" lon="13.8834684"><ele>2.3333333333333335</ele><time>2026-04-12T08:23:46.988Z</time></trkpt><trkpt lat="44.8197256" lon="13.883296"><ele>3.666666666666667</ele><time>2026-04-12T08:23:47.987Z</time></trkpt><trkpt lat="44.8198264" lon="13.883128"><ele>5.0</ele><time>2026-04-12T08:23:48.988Z</time></trkpt><trkpt lat="44.8199205" lon="13.8829628"><ele>5.0</ele><time>2026-04-12T08:23:49.988Z</time></trkpt><trkpt lat="44.8200155" lon="13.882812"><ele>5.0</ele><time>2026-04-12T08:23:50.99Z</time></trkpt><trkpt lat="44.8201082" lon="13.8826638"><ele>5.0</ele><time>2026-04-12T08:23:51.989Z</time></trkpt><trkpt lat="44.8201962" lon="13.8825151"><ele>5.0</ele><time>2026-04-12T08:23:52.989Z</time></trkpt><trkpt lat="44.8202868" lon="13.8823686"><ele>4.25</ele><time>2026-04-12T08:23:53.993Z</time></trkpt><trkpt lat="44.8203754" lon="13.8822243"><ele>3.5</ele><time>2026-04-12T08:23:54.988Z</time></trkpt><trkpt lat="44.8204641" lon="13.8820823"><ele>2.75</ele><time>2026-04-12T08:23:55.997Z</time></trkpt><trkpt lat="44.8205558" lon="13.8819456"><ele>2.0</ele><time>2026-04-12T08:23:56.989Z</time></trkpt><trkpt lat="44.8206526" lon="13.8818095"><ele>2.25</ele><time>2026-04-12T08:23:57.997Z</time></trkpt><trkpt lat="44.820755" lon="13.8816775"><ele>2.5</ele><time>2026-04-12T08:23:58.992Z</time></trkpt><trkpt lat="44.8208628" lon="13.8815517"><ele>2.75</ele><time>2026-04-12T08:23:59.989Z</time></trkpt><trkpt lat="44.8209775" lon="13.8814206"><ele>3.0</ele><time>2026-04-12T08:24:00.989Z</time></trkpt><trkpt lat="44.8210924" lon="13.8812966"><ele>3.0</ele><time>2026-04-12T08:24:01.992Z</time></trkpt><trkpt lat="44.8212135" lon="13.8811768"><ele>3.0</ele><time>2026-04-12T08:24:02.99Z</time></trkpt><trkpt lat="44.821337" lon="13.8810587"><ele>3.0</ele><time>2026-04-12T08:24:03.996Z</time></trkpt><trkpt lat="44.8214596" lon="13.8809394"><ele>3.0</ele><time>2026-04-12T08:24:04.99Z</time></trkpt><trkpt lat="44.821579" lon="13.8808173"><ele>4.0</ele><time>2026-04-12T08:24:05.987Z</time></trkpt><trkpt lat="44.8216973" lon="13.8806939"><ele>5.0</ele><time>2026-04-12T08:24:06.986Z</time></trkpt><trkpt lat="44.8218189" lon="13.8805745"><ele>6.0</ele><time>2026-04-12T08:24:07.988Z</time></trkpt><trkpt lat="44.8219363" lon="13.880454"><ele>7.0</ele><time>2026-04-12T08:24:08.991Z</time></trkpt><trkpt lat="44.8220597" lon="13.8803403"><ele>9.0</ele><time>2026-04-12T08:24:09.988Z</time></trkpt><trkpt lat="44.8221803" lon="13.8802157"><ele>11.0</ele><time>2026-04-12T08:24:10.994Z</time></trkpt><trkpt lat="44.8223023" lon="13.8800946"><ele>13.0</ele><time>2026-04-12T08:24:11.993Z</time></trkpt><trkpt lat="44.8224272" lon="13.8799808"><ele>15.0</ele><time>2026-04-12T08:24:12.991Z</time></trkpt><trkpt lat="44.822553" lon="13.8798586"><ele>17.666666666666668</ele><time>2026-04-12T08:24:13.99Z</time></trkpt><trkpt lat="44.8226782" lon="13.8797316"><ele>20.333333333333336</ele><time>2026-04-12T08:24:14.991Z</time></trkpt><trkpt lat="44.8228047" lon="13.8796129"><ele>23.0</ele><time>2026-04-12T08:24:15.987Z</time></trkpt><trkpt lat="44.8229386" lon="13.8795067"><ele>23.0</ele><time>2026-04-12T08:24:16.987Z</time></trkpt><trkpt lat="44.8230782" lon="13.8794074"><ele>23.0</ele><time>2026-04-12T08:24:17.991Z</time></trkpt><trkpt lat="44.8232217" lon="13.8793231"><ele>23.0</ele><time>2026-04-12T08:24:18.986Z</time></trkpt><trkpt lat="44.8233668" lon="13.8792458"><ele>20.666666666666668</ele><time>2026-04-12T08:24:19.987Z</time></trkpt><trkpt lat="44.8235152" lon="13.8791768"><ele>18.333333333333332</ele><time>2026-04-12T08:24:20.991Z</time></trkpt><trkpt lat="44.8236628" lon="13.8791107"><ele>16.0</ele><time>2026-04-12T08:24:21.989Z</time></trkpt><trkpt lat="44.8238045" lon="13.8790462"><ele>16.0</ele><time>2026-04-12T08:24:22.986Z</time></trkpt><trkpt lat="44.8239464" lon="13.8789851"><ele>16.0</ele><time>2026-04-12T08:24:23.995Z</time></trkpt><trkpt lat="44.8240903" lon="13.8789214"><ele>16.0</ele><time>2026-04-12T08:24:24.989Z</time></trkpt><trkpt lat="44.8242323" lon="13.8788609"><ele>16.0</ele><time>2026-04-12T08:24:25.99Z</time></trkpt><trkpt lat="44.8243721" lon="13.8788001"><ele>16.0</ele><time>2026-04-12T08:24:26.991Z</time></trkpt><trkpt lat="44.8245079" lon="13.8787514"><ele>16.0</ele><time>2026-04-12T08:24:27.99Z</time></trkpt><trkpt lat="44.8246446" lon="13.8787237"><ele>16.0</ele><time>2026-04-12T08:24:28.993Z</time></trkpt><trkpt lat="44.824768" lon="13.8787087"><ele>16.0</ele><time>2026-04-12T08:24:30.001Z</time></trkpt><trkpt lat="44.8248788" lon="13.8787094"><ele>16.0</ele><time>2026-04-12T08:24:30.992Z</time></trkpt><trkpt lat="44.8249817" lon="13.8787219"><ele>16.0</ele><time>2026-04-12T08:24:31.991Z</time></trkpt><trkpt lat="44.8250688" lon="13.8787408"><ele>16.0</ele><time>2026-04-12T08:24:32.989Z</time></trkpt><trkpt lat="44.8251541" lon="13.878769"><ele>16.0</ele><time>2026-04-12T08:24:33.999Z</time></trkpt><trkpt lat="44.8252403" lon="13.8788077"><ele>16.0</ele><time>2026-04-12T08:24:34.992Z</time></trkpt><trkpt lat="44.8253283" lon="13.8788469"><ele>16.166666666666664</ele><time>2026-04-12T08:24:35.991Z</time></trkpt><trkpt lat="44.8254151" lon="13.8788836"><ele>16.333333333333332</ele><time>2026-04-12T08:24:36.994Z</time></trkpt><trkpt lat="44.8254929" lon="13.8789225"><ele>16.5</ele><time>2026-04-12T08:24:38.005Z</time></trkpt><trkpt lat="44.8255632" lon="13.8789654"><ele>16.666666666666668</ele><time>2026-04-12T08:24:38.99Z</time></trkpt><trkpt lat="44.8256253" lon="13.8790232"><ele>16.833333333333336</ele><time>2026-04-12T08:24:39.992Z</time></trkpt><trkpt lat="44.825684" lon="13.8790824"><ele>17.0</ele><time>2026-04-12T08:24:40.996Z</time></trkpt><trkpt lat="44.8257523" lon="13.8791169"><ele>17.0</ele><time>2026-04-12T08:24:41.992Z</time></trkpt><trkpt lat="44.8258234" lon="13.8791235"><ele>17.0</ele><time>2026-04-12T08:24:42.994Z</time></trkpt><trkpt lat="44.8258976" lon="13.8791059"><ele>17.0</ele><time>2026-04-12T08:24:43.998Z</time></trkpt><trkpt lat="44.825993" lon="13.8790771"><ele>17.0</ele><time>2026-04-12T08:24:44.99Z</time></trkpt><trkpt lat="44.8260928" lon="13.8790906"><ele>17.0</ele><time>2026-04-12T08:24:45.991Z</time></trkpt><trkpt lat="44.8261976" lon="13.8791165"><ele>17.0</ele><time>2026-04-12T08:24:46.997Z</time></trkpt><trkpt lat="44.8263068" lon="13.8791503"><ele>17.0</ele><time>2026-04-12T08:24:47.992Z</time></trkpt><trkpt lat="44.8264007" lon="13.8791726"><ele>17.0</ele><time>2026-04-12T08:24:48.989Z</time></trkpt><trkpt lat="44.8264762" lon="13.8791927"><ele>17.0</ele><time>2026-04-12T08:24:49.99Z</time></trkpt><trkpt lat="44.826541" lon="13.8792095"><ele>17.0</ele><time>2026-04-12T08:24:50.991Z</time></trkpt><trkpt lat="44.8266619" lon="13.879248"><ele>16.8</ele><time>2026-04-12T08:24:53Z</time></trkpt><trkpt lat="44.826727" lon="13.8792823"><ele>16.6</ele><time>2026-04-12T08:24:53.99Z</time></trkpt><trkpt lat="44.8268053" lon="13.8793145"><ele>16.400000000000002</ele><time>2026-04-12T08:24:54.994Z</time></trkpt><trkpt lat="44.8269033" lon="13.87935"><ele>16.2</ele><time>2026-04-12T08:24:55.993Z</time></trkpt><trkpt lat="44.8270085" lon="13.879385"><ele>16.0</ele><time>2026-04-12T08:24:56.989Z</time></trkpt><trkpt lat="44.8271013" lon="13.8794104"><ele>15.833333333333332</ele><time>2026-04-12T08:24:57.995Z</time></trkpt><trkpt lat="44.8271832" lon="13.8794333"><ele>15.666666666666666</ele><time>2026-04-12T08:24:58.997Z</time></trkpt><trkpt lat="44.8272518" lon="13.8794501"><ele>15.5</ele><time>2026-04-12T08:24:59.994Z</time></trkpt><trkpt lat="44.8273381" lon="13.8794021"><ele>15.333333333333332</ele><time>2026-04-12T08:25:01.99Z</time></trkpt><trkpt lat="44.8273754" lon="13.8792882"><ele>15.166666666666666</ele><time>2026-04-12T08:25:03.992Z</time></trkpt><trkpt lat="44.8273422" lon="13.8791945"><ele>15.0</ele><time>2026-04-12T08:25:05.995Z</time></trkpt><trkpt lat="44.8272287" lon="13.8791576"><ele>15.5</ele><time>2026-04-12T08:25:08.001Z</time></trkpt><trkpt lat="44.827115" lon="13.8791399"><ele>16.0</ele><time>2026-04-12T08:25:09.995Z</time></trkpt><trkpt lat="44.8270055" lon="13.8791159"><ele>16.5</ele><time>2026-04-12T08:25:11.991Z</time></trkpt><trkpt lat="44.8268954" lon="13.8790783"><ele>17.0</ele><time>2026-04-12T08:25:13.994Z</time></trkpt><trkpt lat="44.8267803" lon="13.8790178"><ele>17.0</ele><time>2026-04-12T08:25:15.991Z</time></trkpt><trkpt lat="44.8266809" lon="13.8789838"><ele>17.0</ele><time>2026-04-12T08:25:18.005Z</time></trkpt><trkpt lat="44.8266298" lon="13.8789097"><ele>17.0</ele><time>2026-04-12T08:25:19.993Z</time></trkpt><trkpt lat="44.8266477" lon="13.8787848"><ele>17.0</ele><time>2026-04-12T08:25:21.994Z</time></trkpt><trkpt lat="44.8266932" lon="13.8786399"><ele>17.0</ele><time>2026-04-12T08:25:24.011Z</time></trkpt><trkpt lat="44.826739" lon="13.8784978"><ele>17.166666666666668</ele><time>2026-04-12T08:25:25.989Z</time></trkpt><trkpt lat="44.8267937" lon="13.8784085"><ele>17.333333333333336</ele><time>2026-04-12T08:25:27.999Z</time></trkpt><trkpt lat="44.8269097" lon="13.8784264"><ele>17.5</ele><time>2026-04-12T08:25:29.994Z</time></trkpt><trkpt lat="44.8269813" lon="13.8784476"><ele>17.666666666666668</ele><time>2026-04-12T08:25:30.999Z</time></trkpt><trkpt lat="44.8270599" lon="13.8784683"><ele>17.833333333333332</ele><time>2026-04-12T08:25:31.994Z</time></trkpt><trkpt lat="44.8271421" lon="13.8784855"><ele>18.0</ele><time>2026-04-12T08:25:32.992Z</time></trkpt><trkpt lat="44.8272272" lon="13.8785034"><ele>18.0</ele><time>2026-04-12T08:25:33.992Z</time></trkpt><trkpt lat="44.8273134" lon="13.8785231"><ele>18.0</ele><time>2026-04-12T08:25:35.006Z</time></trkpt><trkpt lat="44.8273973" lon="13.8785477"><ele>18.0</ele><time>2026-04-12T08:25:35.989Z</time></trkpt><trkpt lat="44.8274749" lon="13.8785692"><ele>18.0</ele><time>2026-04-12T08:25:36.993Z</time></trkpt><trkpt lat="44.8275464" lon="13.8785825"><ele>18.0</ele><time>2026-04-12T08:25:37.989Z</time></trkpt><trkpt lat="44.8276564" lon="13.8785685"><ele>18.0</ele><time>2026-04-12T08:25:39.998Z</time></trkpt><trkpt lat="44.8277783" lon="13.8784903"><ele>18.4</ele><time>2026-04-12T08:25:41.992Z</time></trkpt><trkpt lat="44.8278412" lon="13.8784273"><ele>18.8</ele><time>2026-04-12T08:25:42.997Z</time></trkpt><trkpt lat="44.8279129" lon="13.8783303"><ele>19.2</ele><time>2026-04-12T08:25:43.996Z</time></trkpt><trkpt lat="44.8279842" lon="13.8782386"><ele>19.6</ele><time>2026-04-12T08:25:44.988Z</time></trkpt><trkpt lat="44.8280583" lon="13.8781432"><ele>20.0</ele><time>2026-04-12T08:25:45.993Z</time></trkpt><trkpt lat="44.8281252" lon="13.8780445"><ele>20.0</ele><time>2026-04-12T08:25:46.991Z</time></trkpt><trkpt lat="44.8281923" lon="13.8779395"><ele>20.0</ele><time>2026-04-12T08:25:47.993Z</time></trkpt><trkpt lat="44.8282522" lon="13.8778251"><ele>20.0</ele><time>2026-04-12T08:25:48.994Z</time></trkpt><trkpt lat="44.828295" lon="13.8776901"><ele>20.0</ele><time>2026-04-12T08:25:49.993Z</time></trkpt><trkpt lat="44.8283293" lon="13.8775433"><ele>20.0</ele><time>2026-04-12T08:25:50.985Z</time></trkpt><trkpt lat="44.8283573" lon="13.8773899"><ele>20.6</ele><time>2026-04-12T08:25:51.992Z</time></trkpt><trkpt lat="44.8283825" lon="13.8772336"><ele>21.2</ele><time>2026-04-12T08:25:52.997Z</time></trkpt><trkpt lat="44.8284008" lon="13.8770753"><ele>21.799999999999997</ele><time>2026-04-12T08:25:53.99Z</time></trkpt><trkpt lat="44.828412" lon="13.8769253"><ele>22.4</ele><time>2026-04-12T08:25:54.993Z</time></trkpt><trkpt lat="44.8284181" lon="13.8767965"><ele>23.0</ele><time>2026-04-12T08:25:55.994Z</time></trkpt><trkpt lat="44.828422" lon="13.8766809"><ele>22.799999999999997</ele><time>2026-04-12T08:25:56.989Z</time></trkpt><trkpt lat="44.8284224" lon="13.8765743"><ele>22.6</ele><time>2026-04-12T08:25:57.989Z</time></trkpt><trkpt lat="44.8284278" lon="13.8764758"><ele>22.4</ele><time>2026-04-12T08:25:58.989Z</time></trkpt><trkpt lat="44.8284466" lon="13.8763155"><ele>22.200000000000003</ele><time>2026-04-12T08:26:00.995Z</time></trkpt><trkpt lat="44.8284776" lon="13.8761491"><ele>22.0</ele><time>2026-04-12T08:26:02.994Z</time></trkpt><trkpt lat="44.828506" lon="13.8760484"><ele>22.0</ele><time>2026-04-12T08:26:03.992Z</time></trkpt><trkpt lat="44.8285318" lon="13.8759559"><ele>22.0</ele><time>2026-04-12T08:26:04.991Z</time></trkpt><trkpt lat="44.828551" lon="13.8758706"><ele>22.0</ele><time>2026-04-12T08:26:05.988Z</time></trkpt><trkpt lat="44.8285775" lon="13.8757877"><ele>22.0</ele><time>2026-04-12T08:26:06.991Z</time></trkpt><trkpt lat="44.8286195" lon="13.8757003"><ele>22.0</ele><time>2026-04-12T08:26:07.986Z</time></trkpt><trkpt lat="44.8286724" lon="13.8756227"><ele>22.0</ele><time>2026-04-12T08:26:08.989Z</time></trkpt><trkpt lat="44.8287244" lon="13.8755416"><ele>22.0</ele><time>2026-04-12T08:26:09.989Z</time></trkpt><trkpt lat="44.8287796" lon="13.8754572"><ele>22.0</ele><time>2026-04-12T08:26:10.988Z</time></trkpt><trkpt lat="44.8288394" lon="13.8753772"><ele>22.0</ele><time>2026-04-12T08:26:11.989Z</time></trkpt><trkpt lat="44.8288968" lon="13.8752895"><ele>22.0</ele><time>2026-04-12T08:26:12.994Z</time></trkpt><trkpt lat="44.8289486" lon="13.8752247"><ele>22.0</ele><time>2026-04-12T08:26:13.992Z</time></trkpt><trkpt lat="44.8289979" lon="13.8751586"><ele>22.0</ele><time>2026-04-12T08:26:14.99Z</time></trkpt><trkpt lat="44.8290738" lon="13.8750633"><ele>22.0</ele><time>2026-04-12T08:26:16.998Z</time></trkpt><trkpt lat="44.8291471" lon="13.8750542"><ele>21.8</ele><time>2026-04-12T08:26:19.998Z</time></trkpt><trkpt lat="44.8291871" lon="13.8751243"><ele>21.6</ele><time>2026-04-12T08:26:25Z</time></trkpt><trkpt lat="44.8292728" lon="13.8751714"><ele>21.400000000000002</ele><time>2026-04-12T08:26:27.993Z</time></trkpt><trkpt lat="44.8293781" lon="13.8751486"><ele>21.200000000000003</ele><time>2026-04-12T08:26:30.992Z</time></trkpt><trkpt lat="44.8295516" lon="13.875219"><ele>21.0</ele><time>2026-04-12T08:26:36.996Z</time></trkpt><trkpt lat="44.8296276" lon="13.8751866"><ele>20.0</ele><time>2026-04-12T08:26:40.991Z</time></trkpt><trkpt lat="44.8297061" lon="13.8749934"><ele>19.0</ele><time>2026-04-12T08:26:46.994Z</time></trkpt><trkpt lat="44.8297489" lon="13.874685"><ele>18.0</ele><time>2026-04-12T08:26:51.991Z</time></trkpt><trkpt lat="44.8298024" lon="13.8744975"><ele>18.0</ele><time>2026-04-12T08:26:55.995Z</time></trkpt><trkpt lat="44.8298542" lon="13.8744312"><ele>18.0</ele><time>2026-04-12T08:26:59.995Z</time></trkpt><trkpt lat="44.8299501" lon="13.8744901"><ele>18.0</ele><time>2026-04-12T08:27:05.989Z</time></trkpt><trkpt lat="44.8298582" lon="13.8745177"><ele>18.0</ele><time>2026-04-12T08:27:09.992Z</time></trkpt><trkpt lat="44.8297529" lon="13.8746282"><ele>18.0</ele><time>2026-04-12T08:27:13.99Z</time></trkpt><trkpt lat="44.8297204" lon="13.8749317"><ele>18.5</ele><time>2026-04-12T08:27:17.99Z</time></trkpt><trkpt lat="44.8296591" lon="13.8751234"><ele>19.0</ele><time>2026-04-12T08:27:21Z</time></trkpt><trkpt lat="44.8296235" lon="13.8752112"><ele>19.5</ele><time>2026-04-12T08:27:22.99Z</time></trkpt><trkpt lat="44.8296542" lon="13.8752931"><ele>20.0</ele><time>2026-04-12T08:27:26.001Z</time></trkpt><trkpt lat="44.8298089" lon="13.8753821"><ele>19.0</ele><time>2026-04-12T08:27:29.994Z</time></trkpt><trkpt lat="44.8301588" lon="13.8756225"><ele>18.0</ele><time>2026-04-12T08:27:33.992Z</time></trkpt><trkpt lat="44.8303149" lon="13.8757569"><ele>18.0</ele><time>2026-04-12T08:27:35.991Z</time></trkpt><trkpt lat="44.8304667" lon="13.8758909"><ele>18.0</ele><time>2026-04-12T08:27:37.993Z</time></trkpt><trkpt lat="44.8306919" lon="13.8760641"><ele>18.0</ele><time>2026-04-12T08:27:40.989Z</time></trkpt><trkpt lat="44.8307504" lon="13.8761026"><ele>18.0</ele><time>2026-04-12T08:27:41.991Z</time></trkpt><trkpt lat="44.8308703" lon="13.8761288"><ele>18.0</ele><time>2026-04-12T08:27:44.99Z</time></trkpt><trkpt lat="44.8309416" lon="13.8759071"><ele>18.0</ele><time>2026-04-12T08:27:48.997Z</time></trkpt><trkpt lat="44.8309782" lon="13.8757172"><ele>18.0</ele><time>2026-04-12T08:27:50.991Z</time></trkpt><trkpt lat="44.831014" lon="13.8755197"><ele>17.666666666666668</ele><time>2026-04-12T08:27:52.992Z</time></trkpt><trkpt lat="44.8310791" lon="13.8751182"><ele>17.333333333333336</ele><time>2026-04-12T08:27:56.992Z</time></trkpt><trkpt lat="44.8310935" lon="13.8750163"><ele>17.0</ele><time>2026-04-12T08:27:57.988Z</time></trkpt><trkpt lat="44.8311343" lon="13.8747162"><ele>17.0</ele><time>2026-04-12T08:28:00.992Z</time></trkpt><trkpt lat="44.8311728" lon="13.8745328"><ele>17.0</ele><time>2026-04-12T08:28:03.99Z</time></trkpt><trkpt lat="44.8312306" lon="13.8743946"><ele>17.0</ele><time>2026-04-12T08:28:07.989Z</time></trkpt><trkpt lat="44.8312742" lon="13.8742213"><ele>17.0</ele><time>2026-04-12T08:28:11.99Z</time></trkpt><trkpt lat="44.8312781" lon="13.8739986"><ele>17.333333333333336</ele><time>2026-04-12T08:28:15.991Z</time></trkpt><trkpt lat="44.8312676" lon="13.8737811"><ele>17.666666666666668</ele><time>2026-04-12T08:28:18.998Z</time></trkpt><trkpt lat="44.8312386" lon="13.8734763"><ele>18.0</ele><time>2026-04-12T08:28:22.995Z</time></trkpt><trkpt lat="44.8312631" lon="13.8732538"><ele>18.5</ele><time>2026-04-12T08:28:26.993Z</time></trkpt><trkpt lat="44.8313887" lon="13.8731547"><ele>19.0</ele><time>2026-04-12T08:28:30.991Z</time></trkpt><trkpt lat="44.8314767" lon="13.8731569"><ele>19.5</ele><time>2026-04-12T08:28:33.989Z</time></trkpt><trkpt lat="44.8315819" lon="13.8731876"><ele>20.0</ele><time>2026-04-12T08:28:34.995Z</time></trkpt><trkpt lat="44.8318455" lon="13.8731956"><ele>20.8</ele><time>2026-04-12T08:28:37.987Z</time></trkpt><trkpt lat="44.8319161" lon="13.8731879"><ele>21.6</ele><time>2026-04-12T08:28:38.992Z</time></trkpt><trkpt lat="44.8320553" lon="13.8731462"><ele>22.4</ele><time>2026-04-12T08:28:40.992Z</time></trkpt><trkpt lat="44.832129" lon="13.8731148"><ele>23.2</ele><time>2026-04-12T08:28:41.998Z</time></trkpt><trkpt lat="44.8322719" lon="13.8730474"><ele>24.0</ele><time>2026-04-12T08:28:43.992Z</time></trkpt><trkpt lat="44.8323446" lon="13.8730136"><ele>24.0</ele><time>2026-04-12T08:28:44.995Z</time></trkpt><trkpt lat="44.8324777" lon="13.8729366"><ele>24.0</ele><time>2026-04-12T08:28:46.991Z</time></trkpt><trkpt lat="44.8325478" lon="13.8729095"><ele>24.0</ele><time>2026-04-12T08:28:47.989Z</time></trkpt><trkpt lat="44.8327723" lon="13.8728327"><ele>24.0</ele><time>2026-04-12T08:28:50.991Z</time></trkpt><trkpt lat="44.8328385" lon="13.8727882"><ele>25.0</ele><time>2026-04-12T08:28:51.994Z</time></trkpt><trkpt lat="44.8329633" lon="13.8726719"><ele>26.0</ele><time>2026-04-12T08:28:53.993Z</time></trkpt><trkpt lat="44.8330306" lon="13.8726283"><ele>27.0</ele><time>2026-04-12T08:28:54.992Z</time></trkpt><trkpt lat="44.8331961" lon="13.872554"><ele>28.0</ele><time>2026-04-12T08:28:57.994Z</time></trkpt><trkpt lat="44.8332621" lon="13.8725029"><ele>29.0</ele><time>2026-04-12T08:28:59.993Z</time></trkpt><trkpt lat="44.8334379" lon="13.8722727"><ele>30.0</ele><time>2026-04-12T08:29:03.998Z</time></trkpt><trkpt lat="44.8334919" lon="13.8721888"><ele>31.0</ele><time>2026-04-12T08:29:04.995Z</time></trkpt><trkpt lat="44.8335473" lon="13.8721001"><ele>32.0</ele><time>2026-04-12T08:29:05.991Z</time></trkpt><trkpt lat="44.8335968" lon="13.8720272"><ele>33.0</ele><time>2026-04-12T08:29:06.995Z</time></trkpt><trkpt lat="44.8336948" lon="13.8719413"><ele>34.0</ele><time>2026-04-12T08:29:08.997Z</time></trkpt><trkpt lat="44.833754" lon="13.8719057"><ele>35.0</ele><time>2026-04-12T08:29:09.993Z</time></trkpt><trkpt lat="44.8338159" lon="13.8718596"><ele>36.0</ele><time>2026-04-12T08:29:10.998Z</time></trkpt><trkpt lat="44.8338735" lon="13.8718011"><ele>37.0</ele><time>2026-04-12T08:29:11.991Z</time></trkpt><trkpt lat="44.8339266" lon="13.8717354"><ele>38.0</ele><time>2026-04-12T08:29:12.992Z</time></trkpt><trkpt lat="44.8339735" lon="13.8716617"><ele>38.166666666666664</ele><time>2026-04-12T08:29:13.993Z</time></trkpt><trkpt lat="44.8340119" lon="13.8715816"><ele>38.33333333333333</ele><time>2026-04-12T08:29:15.001Z</time></trkpt><trkpt lat="44.8340439" lon="13.8715031"><ele>38.5</ele><time>2026-04-12T08:29:15.995Z</time></trkpt><trkpt lat="44.8341076" lon="13.8713908"><ele>38.666666666666664</ele><time>2026-04-12T08:29:17.99Z</time></trkpt><trkpt lat="44.8341925" lon="13.8713853"><ele>38.833333333333336</ele><time>2026-04-12T08:29:19.992Z</time></trkpt><trkpt lat="44.8342535" lon="13.8714358"><ele>39.0</ele><time>2026-04-12T08:29:22.991Z</time></trkpt><trkpt lat="44.834293" lon="13.8715474"><ele>40.0</ele><time>2026-04-12T08:29:24.988Z</time></trkpt><trkpt lat="44.8343299" lon="13.8717518"><ele>41.0</ele><time>2026-04-12T08:29:25.99Z</time></trkpt><trkpt lat="44.8343667" lon="13.8719549"><ele>42.0</ele><time>2026-04-12T08:29:26.988Z</time></trkpt><trkpt lat="44.8343741" lon="13.8721155"><ele>43.0</ele><time>2026-04-12T08:29:27.989Z</time></trkpt><trkpt lat="44.8343668" lon="13.872259"><ele>43.0</ele><time>2026-04-12T08:29:28.994Z</time></trkpt><trkpt lat="44.8343491" lon="13.8724033"><ele>43.0</ele><time>2026-04-12T08:29:30.009Z</time></trkpt><trkpt lat="44.8343156" lon="13.8725393"><ele>43.0</ele><time>2026-04-12T08:29:30.993Z</time></trkpt><trkpt lat="44.834268" lon="13.8726717"><ele>43.0</ele><time>2026-04-12T08:29:31.991Z</time></trkpt><trkpt lat="44.83422" lon="13.8728083"><ele>43.0</ele><time>2026-04-12T08:29:32.993Z</time></trkpt><trkpt lat="44.8341906" lon="13.8729579"><ele>40.75</ele><time>2026-04-12T08:29:33.992Z</time></trkpt><trkpt lat="44.8341863" lon="13.8731189"><ele>38.5</ele><time>2026-04-12T08:29:34.994Z</time></trkpt><trkpt lat="44.8342195" lon="13.8732689"><ele>36.25</ele><time>2026-04-12T08:29:35.999Z</time></trkpt><trkpt lat="44.834285" lon="13.8733964"><ele>34.0</ele><time>2026-04-12T08:29:36.99Z</time></trkpt><trkpt lat="44.8343767" lon="13.873504"><ele>34.0</ele><time>2026-04-12T08:29:37.991Z</time></trkpt><trkpt lat="44.8344741" lon="13.8736068"><ele>34.0</ele><time>2026-04-12T08:29:38.992Z</time></trkpt><trkpt lat="44.8345797" lon="13.8737125"><ele>34.0</ele><time>2026-04-12T08:29:39.991Z</time></trkpt><trkpt lat="44.8346873" lon="13.8738174"><ele>34.0</ele><time>2026-04-12T08:29:40.987Z</time></trkpt><trkpt lat="44.8347958" lon="13.8739224"><ele>34.0</ele><time>2026-04-12T08:29:41.993Z</time></trkpt><trkpt lat="44.8349047" lon="13.8740286"><ele>34.0</ele><time>2026-04-12T08:29:42.997Z</time></trkpt><trkpt lat="44.8350159" lon="13.8741367"><ele>34.0</ele><time>2026-04-12T08:29:43.993Z</time></trkpt><trkpt lat="44.8351273" lon="13.8742418"><ele>34.0</ele><time>2026-04-12T08:29:44.988Z</time></trkpt><trkpt lat="44.8352446" lon="13.8743332"><ele>32.25</ele><time>2026-04-12T08:29:45.995Z</time></trkpt><trkpt lat="44.8353622" lon="13.8744007"><ele>30.5</ele><time>2026-04-12T08:29:46.988Z</time></trkpt><trkpt lat="44.8354897" lon="13.8744508"><ele>28.75</ele><time>2026-04-12T08:29:47.995Z</time></trkpt><trkpt lat="44.835608" lon="13.8744909"><ele>27.0</ele><time>2026-04-12T08:29:48.994Z</time></trkpt><trkpt lat="44.8357195" lon="13.8745287"><ele>27.0</ele><time>2026-04-12T08:29:49.99Z</time></trkpt><trkpt lat="44.8358274" lon="13.8745696"><ele>27.000000000000004</ele><time>2026-04-12T08:29:50.991Z</time></trkpt><trkpt lat="44.8359274" lon="13.8746102"><ele>27.000000000000004</ele><time>2026-04-12T08:29:51.989Z</time></trkpt><trkpt lat="44.8360248" lon="13.8746515"><ele>27.0</ele><time>2026-04-12T08:29:52.991Z</time></trkpt><trkpt lat="44.8361213" lon="13.8746864"><ele>27.0</ele><time>2026-04-12T08:29:53.99Z</time></trkpt><trkpt lat="44.8361993" lon="13.8747191"><ele>26.5</ele><time>2026-04-12T08:29:54.992Z</time></trkpt><trkpt lat="44.8362819" lon="13.8747518"><ele>26.0</ele><time>2026-04-12T08:29:56.995Z</time></trkpt><trkpt lat="44.8363603" lon="13.8747784"><ele>25.5</ele><time>2026-04-12T08:30:00.988Z</time></trkpt><trkpt lat="44.8364235" lon="13.8747804"><ele>25.0</ele><time>2026-04-12T08:30:01.996Z</time></trkpt><trkpt lat="44.8365012" lon="13.8747533"><ele>24.5</ele><time>2026-04-12T08:30:02.995Z</time></trkpt><trkpt lat="44.8365912" lon="13.8747078"><ele>24.0</ele><time>2026-04-12T08:30:03.99Z</time></trkpt><trkpt lat="44.8366947" lon="13.8746639"><ele>23.75</ele><time>2026-04-12T08:30:04.989Z</time></trkpt><trkpt lat="44.8368087" lon="13.8746134"><ele>23.5</ele><time>2026-04-12T08:30:05.991Z</time></trkpt><trkpt lat="44.8369339" lon="13.874562"><ele>23.25</ele><time>2026-04-12T08:30:06.996Z</time></trkpt><trkpt lat="44.8370638" lon="13.8745108"><ele>23.0</ele><time>2026-04-12T08:30:07.987Z</time></trkpt><trkpt lat="44.8371953" lon="13.8744524"><ele>23.0</ele><time>2026-04-12T08:30:08.989Z</time></trkpt><trkpt lat="44.83733" lon="13.8743908"><ele>23.0</ele><time>2026-04-12T08:30:09.987Z</time></trkpt><trkpt lat="44.837469" lon="13.8743236"><ele>23.0</ele><time>2026-04-12T08:30:10.99Z</time></trkpt><trkpt lat="44.8376095" lon="13.8742511"><ele>23.0</ele><time>2026-04-12T08:30:11.989Z</time></trkpt><trkpt lat="44.8377526" lon="13.8741723"><ele>23.333333333333336</ele><time>2026-04-12T08:30:12.993Z</time></trkpt><trkpt lat="44.837897" lon="13.8740904"><ele>23.666666666666668</ele><time>2026-04-12T08:30:13.993Z</time></trkpt><trkpt lat="44.838043" lon="13.8740061"><ele>24.0</ele><time>2026-04-12T08:30:14.992Z</time></trkpt><trkpt lat="44.8381852" lon="13.8739202"><ele>24.0</ele><time>2026-04-12T08:30:15.991Z</time></trkpt><trkpt lat="44.8383288" lon="13.8738361"><ele>24.0</ele><time>2026-04-12T08:30:16.998Z</time></trkpt><trkpt lat="44.8384721" lon="13.8737522"><ele>24.0</ele><time>2026-04-12T08:30:17.992Z</time></trkpt><trkpt lat="44.8386146" lon="13.8736667"><ele>24.333333333333336</ele><time>2026-04-12T08:30:18.989Z</time></trkpt><trkpt lat="44.8387607" lon="13.8735839"><ele>24.666666666666668</ele><time>2026-04-12T08:30:19.988Z</time></trkpt><trkpt lat="44.8389089" lon="13.8734988"><ele>25.0</ele><time>2026-04-12T08:30:20.99Z</time></trkpt><trkpt lat="44.8390537" lon="13.8734183"><ele>25.5</ele><time>2026-04-12T08:30:21.989Z</time></trkpt><trkpt lat="44.83919" lon="13.8733319"><ele>26.0</ele><time>2026-04-12T08:30:23.002Z</time></trkpt><trkpt lat="44.8393181" lon="13.8732511"><ele>26.5</ele><time>2026-04-12T08:30:23.985Z</time></trkpt><trkpt lat="44.8394345" lon="13.873181"><ele>27.0</ele><time>2026-04-12T08:30:24.988Z</time></trkpt><trkpt lat="44.8395423" lon="13.873115"><ele>27.200000000000003</ele><time>2026-04-12T08:30:26.001Z</time></trkpt><trkpt lat="44.8396351" lon="13.8730541"><ele>27.400000000000002</ele><time>2026-04-12T08:30:26.994Z</time></trkpt><trkpt lat="44.839707" lon="13.8730011"><ele>27.599999999999998</ele><time>2026-04-12T08:30:27.992Z</time></trkpt><trkpt lat="44.8397731" lon="13.8728928"><ele>27.799999999999997</ele><time>2026-04-12T08:30:29.995Z</time></trkpt><trkpt lat="44.8397833" lon="13.8727627"><ele>28.0</ele><time>2026-04-12T08:30:31.994Z</time></trkpt><trkpt lat="44.8398135" lon="13.8726011"><ele>28.000000000000004</ele><time>2026-04-12T08:30:33.992Z</time></trkpt><trkpt lat="44.8398367" lon="13.8725061"><ele>28.0</ele><time>2026-04-12T08:30:34.987Z</time></trkpt><trkpt lat="44.8398557" lon="13.8724139"><ele>28.0</ele><time>2026-04-12T08:30:35.995Z</time></trkpt><trkpt lat="44.8398679" lon="13.8723182"><ele>28.0</ele><time>2026-04-12T08:30:36.99Z</time></trkpt><trkpt lat="44.8398832" lon="13.8722292"><ele>28.000000000000004</ele><time>2026-04-12T08:30:37.993Z</time></trkpt><trkpt lat="44.8399132" lon="13.8720702"><ele>28.0</ele><time>2026-04-12T08:30:39.989Z</time></trkpt><trkpt lat="44.8399372" lon="13.8719086"><ele>28.0</ele><time>2026-04-12T08:30:41.992Z</time></trkpt><trkpt lat="44.8399585" lon="13.8718235"><ele>28.0</ele><time>2026-04-12T08:30:42.989Z</time></trkpt><trkpt lat="44.8399894" lon="13.8717353"><ele>28.0</ele><time>2026-04-12T08:30:44.002Z</time></trkpt><trkpt lat="44.8400147" lon="13.8716462"><ele>28.0</ele><time>2026-04-12T08:30:44.988Z</time></trkpt><trkpt lat="44.8400329" lon="13.8715493"><ele>28.0</ele><time>2026-04-12T08:30:45.997Z</time></trkpt><trkpt lat="44.8400425" lon="13.8714414"><ele>28.0</ele><time>2026-04-12T08:30:46.998Z</time></trkpt><trkpt lat="44.8400443" lon="13.8713315"><ele>28.0</ele><time>2026-04-12T08:30:47.998Z</time></trkpt><trkpt lat="44.8400331" lon="13.8712129"><ele>28.000000000000004</ele><time>2026-04-12T08:30:48.99Z</time></trkpt><trkpt lat="44.8400133" lon="13.8710858"><ele>28.0</ele><time>2026-04-12T08:30:49.992Z</time></trkpt><trkpt lat="44.8399852" lon="13.8709666"><ele>28.0</ele><time>2026-04-12T08:30:50.994Z</time></trkpt><trkpt lat="44.8399635" lon="13.8708412"><ele>28.0</ele><time>2026-04-12T08:30:51.991Z</time></trkpt><trkpt lat="44.8399504" lon="13.870726"><ele>28.000000000000004</ele><time>2026-04-12T08:30:52.999Z</time></trkpt><trkpt lat="44.8399512" lon="13.8706138"><ele>28.0</ele><time>2026-04-12T08:30:53.996Z</time></trkpt><trkpt lat="44.8399662" lon="13.8705033"><ele>28.0</ele><time>2026-04-12T08:30:54.991Z</time></trkpt><trkpt lat="44.8400084" lon="13.8703974"><ele>27.999999999999996</ele><time>2026-04-12T08:30:55.99Z</time></trkpt><trkpt lat="44.8400626" lon="13.8702822"><ele>27.999999999999996</ele><time>2026-04-12T08:30:57Z</time></trkpt><trkpt lat="44.8401168" lon="13.870166"><ele>28.0</ele><time>2026-04-12T08:30:57.999Z</time></trkpt><trkpt lat="44.8401667" lon="13.8700444"><ele>28.0</ele><time>2026-04-12T08:30:58.987Z</time></trkpt><trkpt lat="44.8402093" lon="13.8699184"><ele>27.2</ele><time>2026-04-12T08:30:59.988Z</time></trkpt><trkpt lat="44.8402533" lon="13.8697852"><ele>26.4</ele><time>2026-04-12T08:31:00.988Z</time></trkpt><trkpt lat="44.8403011" lon="13.8696666"><ele>25.599999999999998</ele><time>2026-04-12T08:31:01.994Z</time></trkpt><trkpt lat="44.8403551" lon="13.86955"><ele>24.799999999999997</ele><time>2026-04-12T08:31:02.99Z</time></trkpt><trkpt lat="44.8404228" lon="13.869447"><ele>24.0</ele><time>2026-04-12T08:31:03.992Z</time></trkpt><trkpt lat="44.8404943" lon="13.8693469"><ele>23.666666666666668</ele><time>2026-04-12T08:31:04.991Z</time></trkpt><trkpt lat="44.8405565" lon="13.8692405"><ele>23.333333333333332</ele><time>2026-04-12T08:31:05.992Z</time></trkpt><trkpt lat="44.8406183" lon="13.8691368"><ele>23.0</ele><time>2026-04-12T08:31:06.988Z</time></trkpt><trkpt lat="44.8406737" lon="13.8690354"><ele>22.666666666666664</ele><time>2026-04-12T08:31:07.991Z</time></trkpt><trkpt lat="44.8407244" lon="13.8689385"><ele>22.333333333333332</ele><time>2026-04-12T08:31:08.988Z</time></trkpt><trkpt lat="44.8407675" lon="13.8688456"><ele>22.0</ele><time>2026-04-12T08:31:09.99Z</time></trkpt><trkpt lat="44.8408089" lon="13.8687562"><ele>22.0</ele><time>2026-04-12T08:31:10.989Z</time></trkpt><trkpt lat="44.8408533" lon="13.8686618"><ele>22.0</ele><time>2026-04-12T08:31:11.991Z</time></trkpt><trkpt lat="44.840892" lon="13.8685584"><ele>22.0</ele><time>2026-04-12T08:31:12.989Z</time></trkpt><trkpt lat="44.8409208" lon="13.8684489"><ele>22.0</ele><time>2026-04-12T08:31:13.99Z</time></trkpt><trkpt lat="44.840946" lon="13.8683402"><ele>22.0</ele><time>2026-04-12T08:31:14.987Z</time></trkpt><trkpt lat="44.8409696" lon="13.8682405"><ele>22.0</ele><time>2026-04-12T08:31:15.992Z</time></trkpt><trkpt lat="44.8409955" lon="13.8681507"><ele>21.166666666666664</ele><time>2026-04-12T08:31:16.993Z</time></trkpt><trkpt lat="44.8410233" lon="13.8680581"><ele>20.333333333333332</ele><time>2026-04-12T08:31:17.991Z</time></trkpt><trkpt lat="44.8410535" lon="13.8679687"><ele>19.5</ele><time>2026-04-12T08:31:18.994Z</time></trkpt><trkpt lat="44.8410912" lon="13.8678704"><ele>18.666666666666668</ele><time>2026-04-12T08:31:19.993Z</time></trkpt><trkpt lat="44.8411311" lon="13.8677681"><ele>17.833333333333336</ele><time>2026-04-12T08:31:20.989Z</time></trkpt><trkpt lat="44.8411697" lon="13.8676546"><ele>17.0</ele><time>2026-04-12T08:31:21.993Z</time></trkpt><trkpt lat="44.8411954" lon="13.8675288"><ele>16.4</ele><time>2026-04-12T08:31:23.001Z</time></trkpt><trkpt lat="44.8412175" lon="13.8673958"><ele>15.799999999999999</ele><time>2026-04-12T08:31:23.996Z</time></trkpt><trkpt lat="44.8412427" lon="13.8672631"><ele>15.2</ele><time>2026-04-12T08:31:24.994Z</time></trkpt><trkpt lat="44.8412714" lon="13.86713"><ele>14.6</ele><time>2026-04-12T08:31:25.988Z</time></trkpt><trkpt lat="44.8412999" lon="13.8670006"><ele>14.0</ele><time>2026-04-12T08:31:26.993Z</time></trkpt><trkpt lat="44.8413272" lon="13.86687"><ele>13.6</ele><time>2026-04-12T08:31:27.991Z</time></trkpt><trkpt lat="44.8413537" lon="13.8667395"><ele>13.2</ele><time>2026-04-12T08:31:28.992Z</time></trkpt><trkpt lat="44.8413743" lon="13.8666143"><ele>12.799999999999999</ele><time>2026-04-12T08:31:29.992Z</time></trkpt><trkpt lat="44.8414046" lon="13.8664822"><ele>12.399999999999999</ele><time>2026-04-12T08:31:30.992Z</time></trkpt><trkpt lat="44.8414394" lon="13.866344"><ele>12.0</ele><time>2026-04-12T08:31:31.996Z</time></trkpt><trkpt lat="44.8414769" lon="13.8662095"><ele>12.0</ele><time>2026-04-12T08:31:33.007Z</time></trkpt><trkpt lat="44.841509" lon="13.8660737"><ele>12.0</ele><time>2026-04-12T08:31:34.003Z</time></trkpt><trkpt lat="44.8415428" lon="13.8659465"><ele>12.0</ele><time>2026-04-12T08:31:34.991Z</time></trkpt><trkpt lat="44.8415727" lon="13.8658168"><ele>12.0</ele><time>2026-04-12T08:31:35.988Z</time></trkpt><trkpt lat="44.8416068" lon="13.8656915"><ele>12.0</ele><time>2026-04-12T08:31:36.99Z</time></trkpt><trkpt lat="44.8416426" lon="13.8655535"><ele>11.0</ele><time>2026-04-12T08:31:37.99Z</time></trkpt><trkpt lat="44.8416815" lon="13.8653993"><ele>10.0</ele><time>2026-04-12T08:31:38.989Z</time></trkpt><trkpt lat="44.8417088" lon="13.8652472"><ele>9.0</ele><time>2026-04-12T08:31:39.993Z</time></trkpt><trkpt lat="44.8417387" lon="13.8650968"><ele>8.0</ele><time>2026-04-12T08:31:40.993Z</time></trkpt><trkpt lat="44.8417683" lon="13.8649493"><ele>7.0</ele><time>2026-04-12T08:31:41.992Z</time></trkpt><trkpt lat="44.8417978" lon="13.8648012"><ele>7.0</ele><time>2026-04-12T08:31:42.987Z</time></trkpt><trkpt lat="44.8418275" lon="13.8646544"><ele>6.999999999999999</ele><time>2026-04-12T08:31:43.99Z</time></trkpt><trkpt lat="44.8418563" lon="13.8645076"><ele>6.999999999999999</ele><time>2026-04-12T08:31:44.99Z</time></trkpt><trkpt lat="44.841884" lon="13.8643693"><ele>7.0</ele><time>2026-04-12T08:31:45.995Z</time></trkpt><trkpt lat="44.8419009" lon="13.8642344"><ele>7.0</ele><time>2026-04-12T08:31:46.988Z</time></trkpt><trkpt lat="44.8419141" lon="13.8641021"><ele>7.0</ele><time>2026-04-12T08:31:47.986Z</time></trkpt><trkpt lat="44.8419323" lon="13.8639811"><ele>6.999999999999999</ele><time>2026-04-12T08:31:48.993Z</time></trkpt><trkpt lat="44.8419661" lon="13.8638413"><ele>6.999999999999999</ele><time>2026-04-12T08:31:49.991Z</time></trkpt><trkpt lat="44.8420083" lon="13.863694"><ele>7.0</ele><time>2026-04-12T08:31:50.994Z</time></trkpt><trkpt lat="44.8420449" lon="13.8635458"><ele>7.0</ele><time>2026-04-12T08:31:51.989Z</time></trkpt><trkpt lat="44.8420782" lon="13.8634023"><ele>6.8</ele><time>2026-04-12T08:31:52.999Z</time></trkpt><trkpt lat="44.8421135" lon="13.8632593"><ele>6.6</ele><time>2026-04-12T08:31:53.998Z</time></trkpt><trkpt lat="44.8421438" lon="13.8631196"><ele>6.3999999999999995</ele><time>2026-04-12T08:31:54.99Z</time></trkpt><trkpt lat="44.8421698" lon="13.8629913"><ele>6.199999999999999</ele><time>2026-04-12T08:31:55.993Z</time></trkpt><trkpt lat="44.8422064" lon="13.8628766"><ele>6.0</ele><time>2026-04-12T08:31:56.991Z</time></trkpt><trkpt lat="44.8422413" lon="13.8627791"><ele>6.0</ele><time>2026-04-12T08:31:57.991Z</time></trkpt><trkpt lat="44.8423309" lon="13.8626611"><ele>6.0</ele><time>2026-04-12T08:31:59.989Z</time></trkpt><trkpt lat="44.8423938" lon="13.8626314"><ele>6.0</ele><time>2026-04-12T08:32:00.992Z</time></trkpt><trkpt lat="44.8424943" lon="13.8626181"><ele>6.0</ele><time>2026-04-12T08:32:03.009Z</time></trkpt><trkpt lat="44.8426254" lon="13.862669"><ele>6.0</ele><time>2026-04-12T08:32:04.998Z</time></trkpt><trkpt lat="44.8427126" lon="13.8626937"><ele>7.199999999999999</ele><time>2026-04-12T08:32:05.996Z</time></trkpt><trkpt lat="44.8428161" lon="13.8627074"><ele>8.399999999999999</ele><time>2026-04-12T08:32:06.99Z</time></trkpt><trkpt lat="44.8429305" lon="13.8627058"><ele>9.6</ele><time>2026-04-12T08:32:08Z</time></trkpt><trkpt lat="44.843046" lon="13.8627006"><ele>10.799999999999999</ele><time>2026-04-12T08:32:08.995Z</time></trkpt><trkpt lat="44.8431612" lon="13.8627027"><ele>12.0</ele><time>2026-04-12T08:32:10.006Z</time></trkpt><trkpt lat="44.843271" lon="13.8627013"><ele>12.0</ele><time>2026-04-12T08:32:10.994Z</time></trkpt><trkpt lat="44.8433834" lon="13.8627014"><ele>12.0</ele><time>2026-04-12T08:32:11.988Z</time></trkpt><trkpt lat="44.8434979" lon="13.8626881"><ele>12.0</ele><time>2026-04-12T08:32:12.994Z</time></trkpt><trkpt lat="44.8436116" lon="13.862681"><ele>12.0</ele><time>2026-04-12T08:32:13.999Z</time></trkpt><trkpt lat="44.8437215" lon="13.8626731"><ele>13.25</ele><time>2026-04-12T08:32:14.994Z</time></trkpt><trkpt lat="44.8438281" lon="13.8626768"><ele>14.5</ele><time>2026-04-12T08:32:15.99Z</time></trkpt><trkpt lat="44.8439313" lon="13.8627117"><ele>15.75</ele><time>2026-04-12T08:32:17.01Z</time></trkpt><trkpt lat="44.8440341" lon="13.8627896"><ele>17.0</ele><time>2026-04-12T08:32:18.015Z</time></trkpt><trkpt lat="44.8441293" lon="13.8629014"><ele>17.0</ele><time>2026-04-12T08:32:19.006Z</time></trkpt><trkpt lat="44.8442243" lon="13.8630139"><ele>17.0</ele><time>2026-04-12T08:32:19.989Z</time></trkpt><trkpt lat="44.844328" lon="13.8631079"><ele>17.0</ele><time>2026-04-12T08:32:20.991Z</time></trkpt><trkpt lat="44.8444356" lon="13.8631739"><ele>17.0</ele><time>2026-04-12T08:32:21.991Z</time></trkpt><trkpt lat="44.8445567" lon="13.8632135"><ele>17.25</ele><time>2026-04-12T08:32:22.998Z</time></trkpt><trkpt lat="44.8446812" lon="13.8632347"><ele>17.5</ele><time>2026-04-12T08:32:24Z</time></trkpt><trkpt lat="44.8448152" lon="13.8632262"><ele>17.75</ele><time>2026-04-12T08:32:24.994Z</time></trkpt><trkpt lat="44.8449534" lon="13.8632005"><ele>18.0</ele><time>2026-04-12T08:32:25.992Z</time></trkpt><trkpt lat="44.8450972" lon="13.8631792"><ele>17.666666666666668</ele><time>2026-04-12T08:32:26.99Z</time></trkpt><trkpt lat="44.8452395" lon="13.8631567"><ele>17.333333333333336</ele><time>2026-04-12T08:32:27.991Z</time></trkpt><trkpt lat="44.845388" lon="13.8631396"><ele>17.0</ele><time>2026-04-12T08:32:28.995Z</time></trkpt><trkpt lat="44.8455452" lon="13.8631206"><ele>17.0</ele><time>2026-04-12T08:32:29.989Z</time></trkpt><trkpt lat="44.8456976" lon="13.8630978"><ele>17.0</ele><time>2026-04-12T08:32:30.997Z</time></trkpt><trkpt lat="44.8458383" lon="13.863073"><ele>17.0</ele><time>2026-04-12T08:32:31.992Z</time></trkpt><trkpt lat="44.845964" lon="13.8630522"><ele>17.0</ele><time>2026-04-12T08:32:33.02Z</time></trkpt><trkpt lat="44.846095" lon="13.8630441"><ele>16.75</ele><time>2026-04-12T08:32:33.999Z</time></trkpt><trkpt lat="44.8462283" lon="13.8630535"><ele>16.5</ele><time>2026-04-12T08:32:34.993Z</time></trkpt><trkpt lat="44.8463607" lon="13.8630876"><ele>16.25</ele><time>2026-04-12T08:32:35.991Z</time></trkpt><trkpt lat="44.8464896" lon="13.863144"><ele>16.0</ele><time>2026-04-12T08:32:36.993Z</time></trkpt><trkpt lat="44.846617" lon="13.8632143"><ele>16.0</ele><time>2026-04-12T08:32:37.993Z</time></trkpt><trkpt lat="44.8467421" lon="13.8632975"><ele>16.0</ele><time>2026-04-12T08:32:38.997Z</time></trkpt><trkpt lat="44.8468633" lon="13.8633881"><ele>16.0</ele><time>2026-04-12T08:32:39.991Z</time></trkpt><trkpt lat="44.8469818" lon="13.8634885"><ele>16.0</ele><time>2026-04-12T08:32:40.993Z</time></trkpt><trkpt lat="44.8470913" lon="13.8635768"><ele>16.5</ele><time>2026-04-12T08:32:41.99Z</time></trkpt><trkpt lat="44.8472038" lon="13.8636474"><ele>17.0</ele><time>2026-04-12T08:32:43.001Z</time></trkpt><trkpt lat="44.8473178" lon="13.8637158"><ele>17.5</ele><time>2026-04-12T08:32:43.99Z</time></trkpt><trkpt lat="44.8474353" lon="13.8637854"><ele>18.0</ele><time>2026-04-12T08:32:44.994Z</time></trkpt><trkpt lat="44.8475566" lon="13.8638533"><ele>19.0</ele><time>2026-04-12T08:32:45.992Z</time></trkpt><trkpt lat="44.8476787" lon="13.8639267"><ele>20.0</ele><time>2026-04-12T08:32:46.99Z</time></trkpt><trkpt lat="44.8477969" lon="13.8640117"><ele>21.0</ele><time>2026-04-12T08:32:47.994Z</time></trkpt><trkpt lat="44.8479103" lon="13.8641163"><ele>22.0</ele><time>2026-04-12T08:32:49Z</time></trkpt><trkpt lat="44.8480135" lon="13.8642461"><ele>21.25</ele><time>2026-04-12T08:32:49.991Z</time></trkpt><trkpt lat="44.8481094" lon="13.8643903"><ele>20.5</ele><time>2026-04-12T08:32:50.995Z</time></trkpt><trkpt lat="44.8481988" lon="13.8645507"><ele>19.75</ele><time>2026-04-12T08:32:51.995Z</time></trkpt><trkpt lat="44.848295" lon="13.8647095"><ele>19.0</ele><time>2026-04-12T08:32:52.997Z</time></trkpt><trkpt lat="44.8484008" lon="13.8648532"><ele>19.0</ele><time>2026-04-12T08:32:53.999Z</time></trkpt><trkpt lat="44.8485197" lon="13.8649832"><ele>19.0</ele><time>2026-04-12T08:32:54.99Z</time></trkpt><trkpt lat="44.8486432" lon="13.8650955"><ele>19.0</ele><time>2026-04-12T08:32:55.992Z</time></trkpt><trkpt lat="44.8487665" lon="13.8651971"><ele>19.0</ele><time>2026-04-12T08:32:57.002Z</time></trkpt><trkpt lat="44.8488957" lon="13.8652788"><ele>19.0</ele><time>2026-04-12T08:32:57.994Z</time></trkpt><trkpt lat="44.8490295" lon="13.8653276"><ele>19.0</ele><time>2026-04-12T08:32:59Z</time></trkpt><trkpt lat="44.8491642" lon="13.8653502"><ele>19.0</ele><time>2026-04-12T08:32:59.995Z</time></trkpt><trkpt lat="44.8493035" lon="13.8653551"><ele>19.0</ele><time>2026-04-12T08:33:00.993Z</time></trkpt><trkpt lat="44.849443" lon="13.8653464"><ele>19.25</ele><time>2026-04-12T08:33:01.993Z</time></trkpt><trkpt lat="44.8495794" lon="13.865335"><ele>19.5</ele><time>2026-04-12T08:33:03Z</time></trkpt><trkpt lat="44.8497073" lon="13.8653195"><ele>19.75</ele><time>2026-04-12T08:33:03.989Z</time></trkpt><trkpt lat="44.8498294" lon="13.8653022"><ele>20.0</ele><time>2026-04-12T08:33:04.993Z</time></trkpt><trkpt lat="44.8499474" lon="13.8652848"><ele>20.0</ele><time>2026-04-12T08:33:05.992Z</time></trkpt><trkpt lat="44.8500692" lon="13.8652466"><ele>20.0</ele><time>2026-04-12T08:33:06.991Z</time></trkpt><trkpt lat="44.850187" lon="13.8652007"><ele>20.0</ele><time>2026-04-12T08:33:07.993Z</time></trkpt><trkpt lat="44.8503001" lon="13.8651444"><ele>20.0</ele><time>2026-04-12T08:33:08.991Z</time></trkpt><trkpt lat="44.8504108" lon="13.8650728"><ele>18.5</ele><time>2026-04-12T08:33:09.994Z</time></trkpt><trkpt lat="44.8505177" lon="13.8649978"><ele>17.0</ele><time>2026-04-12T08:33:10.99Z</time></trkpt><trkpt lat="44.8506241" lon="13.8649333"><ele>15.5</ele><time>2026-04-12T08:33:11.991Z</time></trkpt><trkpt lat="44.8507305" lon="13.8648691"><ele>14.0</ele><time>2026-04-12T08:33:12.989Z</time></trkpt><trkpt lat="44.8508302" lon="13.8647975"><ele>14.0</ele><time>2026-04-12T08:33:13.992Z</time></trkpt><trkpt lat="44.8509268" lon="13.8647201"><ele>13.999999999999998</ele><time>2026-04-12T08:33:14.994Z</time></trkpt><trkpt lat="44.8510208" lon="13.8646483"><ele>13.999999999999998</ele><time>2026-04-12T08:33:15.996Z</time></trkpt><trkpt lat="44.8511222" lon="13.8645764"><ele>14.0</ele><time>2026-04-12T08:33:16.987Z</time></trkpt><trkpt lat="44.8512242" lon="13.8645051"><ele>14.0</ele><time>2026-04-12T08:33:17.996Z</time></trkpt><trkpt lat="44.8513282" lon="13.8644408"><ele>14.0</ele><time>2026-04-12T08:33:18.988Z</time></trkpt><trkpt lat="44.851432" lon="13.8643763"><ele>13.999999999999998</ele><time>2026-04-12T08:33:19.992Z</time></trkpt><trkpt lat="44.8515292" lon="13.864316"><ele>13.999999999999998</ele><time>2026-04-12T08:33:20.993Z</time></trkpt><trkpt lat="44.8516324" lon="13.8642613"><ele>14.0</ele><time>2026-04-12T08:33:21.992Z</time></trkpt><trkpt lat="44.8517366" lon="13.8642262"><ele>14.0</ele><time>2026-04-12T08:33:22.992Z</time></trkpt><trkpt lat="44.851845" lon="13.8642184"><ele>14.399999999999999</ele><time>2026-04-12T08:33:24.004Z</time></trkpt><trkpt lat="44.851957" lon="13.8642335"><ele>14.799999999999999</ele><time>2026-04-12T08:33:24.994Z</time></trkpt><trkpt lat="44.8520588" lon="13.8642564"><ele>15.200000000000001</ele><time>2026-04-12T08:33:25.99Z</time></trkpt><trkpt lat="44.852163" lon="13.8642888"><ele>15.600000000000001</ele><time>2026-04-12T08:33:26.997Z</time></trkpt><trkpt lat="44.852268" lon="13.8643301"><ele>16.0</ele><time>2026-04-12T08:33:27.999Z</time></trkpt><trkpt lat="44.8523707" lon="13.864362"><ele>16.0</ele><time>2026-04-12T08:33:28.992Z</time></trkpt><trkpt lat="44.8524767" lon="13.8643994"><ele>16.0</ele><time>2026-04-12T08:33:29.99Z</time></trkpt><trkpt lat="44.852582" lon="13.8644332"><ele>16.0</ele><time>2026-04-12T08:33:30.997Z</time></trkpt><trkpt lat="44.8526811" lon="13.8644679"><ele>16.0</ele><time>2026-04-12T08:33:31.991Z</time></trkpt><trkpt lat="44.8527748" lon="13.8645004"><ele>16.0</ele><time>2026-04-12T08:33:32.993Z</time></trkpt><trkpt lat="44.8528621" lon="13.8645295"><ele>16.333333333333332</ele><time>2026-04-12T08:33:33.994Z</time></trkpt><trkpt lat="44.8529331" lon="13.864557"><ele>16.666666666666664</ele><time>2026-04-12T08:33:34.988Z</time></trkpt><trkpt lat="44.8529953" lon="13.8645757"><ele>17.0</ele><time>2026-04-12T08:33:35.994Z</time></trkpt><trkpt lat="44.8530963" lon="13.8646082"><ele>17.333333333333332</ele><time>2026-04-12T08:33:37.995Z</time></trkpt><trkpt lat="44.8531664" lon="13.8646667"><ele>17.666666666666668</ele><time>2026-04-12T08:33:40.993Z</time></trkpt><trkpt lat="44.853205" lon="13.8647651"><ele>18.0</ele><time>2026-04-12T08:33:48.989Z</time></trkpt><trkpt lat="44.8532635" lon="13.8647987"><ele>18.0</ele><time>2026-04-12T08:33:51.994Z</time></trkpt><trkpt lat="44.8533495" lon="13.864634"><ele>18.0</ele><time>2026-04-12T08:33:53.997Z</time></trkpt><trkpt lat="44.8534283" lon="13.8645569"><ele>18.0</ele><time>2026-04-12T08:33:54.995Z</time></trkpt><trkpt lat="44.8534966" lon="13.8644539"><ele>18.0</ele><time>2026-04-12T08:33:55.984Z</time></trkpt><trkpt lat="44.8535719" lon="13.8643392"><ele>17.5</ele><time>2026-04-12T08:33:56.985Z</time></trkpt><trkpt lat="44.8536564" lon="13.8642089"><ele>17.0</ele><time>2026-04-12T08:33:58.003Z</time></trkpt><trkpt lat="44.8537447" lon="13.8640709"><ele>16.5</ele><time>2026-04-12T08:33:59.002Z</time></trkpt><trkpt lat="44.8538334" lon="13.8639306"><ele>16.0</ele><time>2026-04-12T08:33:59.989Z</time></trkpt><trkpt lat="44.8539245" lon="13.8637904"><ele>16.0</ele><time>2026-04-12T08:34:00.988Z</time></trkpt><trkpt lat="44.854016" lon="13.8636504"><ele>16.0</ele><time>2026-04-12T08:34:01.993Z</time></trkpt><trkpt lat="44.8541023" lon="13.863518"><ele>16.0</ele><time>2026-04-12T08:34:02.99Z</time></trkpt><trkpt lat="44.8541867" lon="13.8633918"><ele>16.0</ele><time>2026-04-12T08:34:03.992Z</time></trkpt><trkpt lat="44.8542598" lon="13.8632831"><ele>14.666666666666666</ele><time>2026-04-12T08:34:04.987Z</time></trkpt><trkpt lat="44.8543254" lon="13.8631968"><ele>13.333333333333332</ele><time>2026-04-12T08:34:05.99Z</time></trkpt><trkpt lat="44.8543906" lon="13.8631333"><ele>12.0</ele><time>2026-04-12T08:34:06.992Z</time></trkpt><trkpt lat="44.8544598" lon="13.8630997"><ele>10.666666666666666</ele><time>2026-04-12T08:34:07.987Z</time></trkpt><trkpt lat="44.8545319" lon="13.8630983"><ele>9.333333333333332</ele><time>2026-04-12T08:34:08.993Z</time></trkpt><trkpt lat="44.8546075" lon="13.8631237"><ele>8.0</ele><time>2026-04-12T08:34:09.989Z</time></trkpt><trkpt lat="44.8546894" lon="13.8631684"><ele>8.0</ele><time>2026-04-12T08:34:10.989Z</time></trkpt><trkpt lat="44.8547749" lon="13.8632269"><ele>8.0</ele><time>2026-04-12T08:34:11.991Z</time></trkpt><trkpt lat="44.8548638" lon="13.8632868"><ele>8.0</ele><time>2026-04-12T08:34:12.988Z</time></trkpt><trkpt lat="44.854955" lon="13.8633433"><ele>8.0</ele><time>2026-04-12T08:34:13.988Z</time></trkpt><trkpt lat="44.855055" lon="13.8634007"><ele>8.0</ele><time>2026-04-12T08:34:14.988Z</time></trkpt><trkpt lat="44.8551633" lon="13.8634602"><ele>8.75</ele><time>2026-04-12T08:34:15.989Z</time></trkpt><trkpt lat="44.8552763" lon="13.863505"><ele>9.5</ele><time>2026-04-12T08:34:16.99Z</time></trkpt><trkpt lat="44.8553931" lon="13.8635507"><ele>10.25</ele><time>2026-04-12T08:34:17.994Z</time></trkpt><trkpt lat="44.8555074" lon="13.863589"><ele>11.0</ele><time>2026-04-12T08:34:18.988Z</time></trkpt><trkpt lat="44.8556296" lon="13.8636285"><ele>11.0</ele><time>2026-04-12T08:34:19.99Z</time></trkpt><trkpt lat="44.8557519" lon="13.8636693"><ele>11.0</ele><time>2026-04-12T08:34:20.989Z</time></trkpt><trkpt lat="44.8558751" lon="13.8637066"><ele>11.0</ele><time>2026-04-12T08:34:21.993Z</time></trkpt><trkpt lat="44.8560008" lon="13.8637353"><ele>11.0</ele><time>2026-04-12T08:34:22.988Z</time></trkpt><trkpt lat="44.8561299" lon="13.863754"><ele>11.5</ele><time>2026-04-12T08:34:23.992Z</time></trkpt><trkpt lat="44.8562629" lon="13.8637726"><ele>12.0</ele><time>2026-04-12T08:34:24.992Z</time></trkpt><trkpt lat="44.8563983" lon="13.8637862"><ele>12.5</ele><time>2026-04-12T08:34:25.989Z</time></trkpt><trkpt lat="44.8565368" lon="13.8637957"><ele>13.0</ele><time>2026-04-12T08:34:26.989Z</time></trkpt><trkpt lat="44.8566841" lon="13.8638015"><ele>14.0</ele><time>2026-04-12T08:34:28.001Z</time></trkpt><trkpt lat="44.8568381" lon="13.8638003"><ele>15.0</ele><time>2026-04-12T08:34:28.993Z</time></trkpt><trkpt lat="44.8569912" lon="13.8637928"><ele>16.0</ele><time>2026-04-12T08:34:29.988Z</time></trkpt><trkpt lat="44.8571386" lon="13.8637805"><ele>16.0</ele><time>2026-04-12T08:34:30.989Z</time></trkpt><trkpt lat="44.8572837" lon="13.8637602"><ele>16.0</ele><time>2026-04-12T08:34:31.992Z</time></trkpt><trkpt lat="44.8574218" lon="13.8637337"><ele>16.0</ele><time>2026-04-12T08:34:32.989Z</time></trkpt><trkpt lat="44.8575579" lon="13.863702"><ele>16.0</ele><time>2026-04-12T08:34:33.991Z</time></trkpt><trkpt lat="44.8576928" lon="13.8636699"><ele>16.5</ele><time>2026-04-12T08:34:34.994Z</time></trkpt><trkpt lat="44.8578246" lon="13.8636352"><ele>17.0</ele><time>2026-04-12T08:34:35.995Z</time></trkpt><trkpt lat="44.8579564" lon="13.8636014"><ele>17.5</ele><time>2026-04-12T08:34:36.986Z</time></trkpt><trkpt lat="44.8580888" lon="13.8635645"><ele>18.0</ele><time>2026-04-12T08:34:37.993Z</time></trkpt><trkpt lat="44.8582208" lon="13.8635309"><ele>18.0</ele><time>2026-04-12T08:34:38.991Z</time></trkpt><trkpt lat="44.8583539" lon="13.8634966"><ele>18.0</ele><time>2026-04-12T08:34:39.988Z</time></trkpt><trkpt lat="44.8584888" lon="13.8634656"><ele>18.0</ele><time>2026-04-12T08:34:40.993Z</time></trkpt><trkpt lat="44.8586221" lon="13.8634363"><ele>18.0</ele><time>2026-04-12T08:34:41.99Z</time></trkpt><trkpt lat="44.8587562" lon="13.8634121"><ele>17.25</ele><time>2026-04-12T08:34:42.992Z</time></trkpt><trkpt lat="44.8588864" lon="13.8633969"><ele>16.5</ele><time>2026-04-12T08:34:43.991Z</time></trkpt><trkpt lat="44.8590145" lon="13.8633898"><ele>15.75</ele><time>2026-04-12T08:34:45.002Z</time></trkpt><trkpt lat="44.8591381" lon="13.8633883"><ele>15.0</ele><time>2026-04-12T08:34:45.989Z</time></trkpt><trkpt lat="44.8592611" lon="13.8633933"><ele>14.5</ele><time>2026-04-12T08:34:46.988Z</time></trkpt><trkpt lat="44.8593806" lon="13.8634007"><ele>14.0</ele><time>2026-04-12T08:34:47.987Z</time></trkpt><trkpt lat="44.8594914" lon="13.8634151"><ele>13.5</ele><time>2026-04-12T08:34:48.993Z</time></trkpt><trkpt lat="44.8596039" lon="13.8634333"><ele>13.0</ele><time>2026-04-12T08:34:49.988Z</time></trkpt><trkpt lat="44.8597166" lon="13.8634635"><ele>13.0</ele><time>2026-04-12T08:34:50.987Z</time></trkpt><trkpt lat="44.8598302" lon="13.8635176"><ele>13.0</ele><time>2026-04-12T08:34:51.987Z</time></trkpt><trkpt lat="44.859945" lon="13.8635879"><ele>13.0</ele><time>2026-04-12T08:34:52.995Z</time></trkpt><trkpt lat="44.8600663" lon="13.8636659"><ele>13.0</ele><time>2026-04-12T08:34:53.986Z</time></trkpt><trkpt lat="44.8601918" lon="13.8637384"><ele>11.25</ele><time>2026-04-12T08:34:54.995Z</time></trkpt><trkpt lat="44.86032" lon="13.8638055"><ele>9.5</ele><time>2026-04-12T08:34:55.994Z</time></trkpt><trkpt lat="44.8604505" lon="13.8638691"><ele>7.75</ele><time>2026-04-12T08:34:56.988Z</time></trkpt><trkpt lat="44.8605815" lon="13.8639491"><ele>6.0</ele><time>2026-04-12T08:34:57.99Z</time></trkpt><trkpt lat="44.8607182" lon="13.8640333"><ele>6.0</ele><time>2026-04-12T08:34:58.991Z</time></trkpt><trkpt lat="44.8608446" lon="13.8641261"><ele>6.0</ele><time>2026-04-12T08:34:59.993Z</time></trkpt><trkpt lat="44.8609663" lon="13.8642165"><ele>6.0</ele><time>2026-04-12T08:35:01.004Z</time></trkpt><trkpt lat="44.8610765" lon="13.86431"><ele>6.0</ele><time>2026-04-12T08:35:01.989Z</time></trkpt><trkpt lat="44.8611772" lon="13.8644057"><ele>5.8</ele><time>2026-04-12T08:35:02.991Z</time></trkpt><trkpt lat="44.861267" lon="13.8645132"><ele>5.6</ele><time>2026-04-12T08:35:03.991Z</time></trkpt><trkpt lat="44.8613284" lon="13.8646258"><ele>5.4</ele><time>2026-04-12T08:35:04.987Z</time></trkpt><trkpt lat="44.8613714" lon="13.8647544"><ele>5.2</ele><time>2026-04-12T08:35:05.996Z</time></trkpt><trkpt lat="44.8613967" lon="13.8648892"><ele>5.0</ele><time>2026-04-12T08:35:06.989Z</time></trkpt><trkpt lat="44.8614281" lon="13.865038"><ele>5.0</ele><time>2026-04-12T08:35:07.992Z</time></trkpt><trkpt lat="44.8614846" lon="13.8651711"><ele>5.0</ele><time>2026-04-12T08:35:08.989Z</time></trkpt><trkpt lat="44.8615649" lon="13.8652736"><ele>5.0</ele><time>2026-04-12T08:35:09.991Z</time></trkpt><trkpt lat="44.8616623" lon="13.8653393"><ele>5.0</ele><time>2026-04-12T08:35:10.992Z</time></trkpt><trkpt lat="44.8617695" lon="13.8653762"><ele>5.0</ele><time>2026-04-12T08:35:11.994Z</time></trkpt><trkpt lat="44.8618848" lon="13.8654147"><ele>4.75</ele><time>2026-04-12T08:35:12.993Z</time></trkpt><trkpt lat="44.8619971" lon="13.8654872"><ele>4.5</ele><time>2026-04-12T08:35:13.988Z</time></trkpt><trkpt lat="44.8621094" lon="13.8655926"><ele>4.25</ele><time>2026-04-12T08:35:14.997Z</time></trkpt><trkpt lat="44.8622089" lon="13.8657292"><ele>4.0</ele><time>2026-04-12T08:35:15.992Z</time></trkpt><trkpt lat="44.8623057" lon="13.8658718"><ele>5.0</ele><time>2026-04-12T08:35:16.989Z</time></trkpt><trkpt lat="44.862412" lon="13.8660228"><ele>6.0</ele><time>2026-04-12T08:35:17.986Z</time></trkpt><trkpt lat="44.8625238" lon="13.8661756"><ele>7.0</ele><time>2026-04-12T08:35:18.999Z</time></trkpt><trkpt lat="44.8626352" lon="13.8663403"><ele>7.333333333333334</ele><time>2026-04-12T08:35:19.997Z</time></trkpt><trkpt lat="44.8627461" lon="13.8665064"><ele>7.666666666666666</ele><time>2026-04-12T08:35:20.998Z</time></trkpt><trkpt lat="44.8628542" lon="13.8666752"><ele>8.0</ele><time>2026-04-12T08:35:21.989Z</time></trkpt><trkpt lat="44.8629631" lon="13.8668471"><ele>8.0</ele><time>2026-04-12T08:35:22.988Z</time></trkpt><trkpt lat="44.8630748" lon="13.8670178"><ele>8.0</ele><time>2026-04-12T08:35:23.99Z</time></trkpt><trkpt lat="44.8631894" lon="13.867187"><ele>8.0</ele><time>2026-04-12T08:35:24.987Z</time></trkpt><trkpt lat="44.8633049" lon="13.8673485"><ele>8.0</ele><time>2026-04-12T08:35:25.989Z</time></trkpt><trkpt lat="44.8634261" lon="13.8675077"><ele>8.0</ele><time>2026-04-12T08:35:26.995Z</time></trkpt><trkpt lat="44.863546" lon="13.8676648"><ele>8.0</ele><time>2026-04-12T08:35:27.996Z</time></trkpt><trkpt lat="44.8636704" lon="13.8678159"><ele>9.0</ele><time>2026-04-12T08:35:28.99Z</time></trkpt><trkpt lat="44.8637957" lon="13.8679592"><ele>10.0</ele><time>2026-04-12T08:35:29.988Z</time></trkpt><trkpt lat="44.8639271" lon="13.8680972"><ele>11.0</ele><time>2026-04-12T08:35:30.988Z</time></trkpt><trkpt lat="44.8640624" lon="13.868229"><ele>11.0</ele><time>2026-04-12T08:35:31.988Z</time></trkpt><trkpt lat="44.8641987" lon="13.8683549"><ele>11.0</ele><time>2026-04-12T08:35:32.995Z</time></trkpt><trkpt lat="44.8643379" lon="13.8684772"><ele>11.0</ele><time>2026-04-12T08:35:33.995Z</time></trkpt><trkpt lat="44.8644822" lon="13.868595"><ele>11.333333333333332</ele><time>2026-04-12T08:35:34.988Z</time></trkpt><trkpt lat="44.8646358" lon="13.8687081"><ele>11.666666666666666</ele><time>2026-04-12T08:35:35.992Z</time></trkpt><trkpt lat="44.864793" lon="13.8688178"><ele>12.0</ele><time>2026-04-12T08:35:36.988Z</time></trkpt><trkpt lat="44.8649503" lon="13.8689172"><ele>11.5</ele><time>2026-04-12T08:35:38.547Z</time></trkpt><trkpt lat="44.8652522" lon="13.8690843"><ele>11.0</ele><time>2026-04-12T08:35:40.002Z</time></trkpt><trkpt lat="44.865405" lon="13.8691592"><ele>11.0</ele><time>2026-04-12T08:35:40.99Z</time></trkpt><trkpt lat="44.8655598" lon="13.8692271"><ele>11.0</ele><time>2026-04-12T08:35:41.999Z</time></trkpt><trkpt lat="44.8657142" lon="13.8692878"><ele>11.0</ele><time>2026-04-12T08:35:43Z</time></trkpt><trkpt lat="44.8658711" lon="13.8693428"><ele>12.333333333333332</ele><time>2026-04-12T08:35:43.992Z</time></trkpt><trkpt lat="44.8660281" lon="13.8693889"><ele>13.666666666666666</ele><time>2026-04-12T08:35:44.987Z</time></trkpt><trkpt lat="44.8661782" lon="13.8694274"><ele>15.0</ele><time>2026-04-12T08:35:45.988Z</time></trkpt><trkpt lat="44.8663156" lon="13.8694596"><ele>15.0</ele><time>2026-04-12T08:35:46.993Z</time></trkpt><trkpt lat="44.8664427" lon="13.8694894"><ele>15.0</ele><time>2026-04-12T08:35:47.999Z</time></trkpt><trkpt lat="44.8665648" lon="13.8695124"><ele>15.0</ele><time>2026-04-12T08:35:48.992Z</time></trkpt><trkpt lat="44.8666795" lon="13.8695278"><ele>15.0</ele><time>2026-04-12T08:35:49.989Z</time></trkpt><trkpt lat="44.866784" lon="13.8695395"><ele>14.666666666666666</ele><time>2026-04-12T08:35:50.99Z</time></trkpt><trkpt lat="44.8668835" lon="13.8695532"><ele>14.333333333333332</ele><time>2026-04-12T08:35:51.992Z</time></trkpt><trkpt lat="44.8669632" lon="13.8695591"><ele>14.0</ele><time>2026-04-12T08:35:52.988Z</time></trkpt><trkpt lat="44.8670343" lon="13.8695617"><ele>13.666666666666666</ele><time>2026-04-12T08:35:53.988Z</time></trkpt><trkpt lat="44.8670989" lon="13.8695619"><ele>13.333333333333332</ele><time>2026-04-12T08:35:54.987Z</time></trkpt><trkpt lat="44.8672128" lon="13.8695858"><ele>13.0</ele><time>2026-04-12T08:35:56.992Z</time></trkpt><trkpt lat="44.8673132" lon="13.8696921"><ele>12.999999999999998</ele><time>2026-04-12T08:35:58.997Z</time></trkpt><trkpt lat="44.8673732" lon="13.86974"><ele>13.0</ele><time>2026-04-12T08:35:59.992Z</time></trkpt><trkpt lat="44.8674371" lon="13.8697557"><ele>13.0</ele><time>2026-04-12T08:36:00.99Z</time></trkpt><trkpt lat="44.8675029" lon="13.8697387"><ele>13.0</ele><time>2026-04-12T08:36:01.99Z</time></trkpt><trkpt lat="44.8676076" lon="13.8696341"><ele>12.999999999999998</ele><time>2026-04-12T08:36:03.99Z</time></trkpt><trkpt lat="44.8676681" lon="13.8695798"><ele>13.0</ele><time>2026-04-12T08:36:04.992Z</time></trkpt><trkpt lat="44.8677476" lon="13.8695417"><ele>13.600000000000001</ele><time>2026-04-12T08:36:05.991Z</time></trkpt><trkpt lat="44.8678329" lon="13.8695158"><ele>14.200000000000001</ele><time>2026-04-12T08:36:06.994Z</time></trkpt><trkpt lat="44.8679334" lon="13.869496"><ele>14.8</ele><time>2026-04-12T08:36:07.994Z</time></trkpt><trkpt lat="44.8680542" lon="13.869462"><ele>15.4</ele><time>2026-04-12T08:36:08.991Z</time></trkpt><trkpt lat="44.8681859" lon="13.8694248"><ele>16.0</ele><time>2026-04-12T08:36:09.987Z</time></trkpt><trkpt lat="44.8683268" lon="13.8693917"><ele>17.333333333333332</ele><time>2026-04-12T08:36:10.986Z</time></trkpt><trkpt lat="44.868482" lon="13.8693566"><ele>18.666666666666668</ele><time>2026-04-12T08:36:11.989Z</time></trkpt><trkpt lat="44.8686471" lon="13.86932"><ele>20.0</ele><time>2026-04-12T08:36:12.988Z</time></trkpt><trkpt lat="44.8688111" lon="13.8692826"><ele>19.666666666666668</ele><time>2026-04-12T08:36:13.992Z</time></trkpt><trkpt lat="44.8689834" lon="13.8692426"><ele>19.333333333333332</ele><time>2026-04-12T08:36:14.99Z</time></trkpt><trkpt lat="44.8691594" lon="13.8691965"><ele>19.0</ele><time>2026-04-12T08:36:15.989Z</time></trkpt><trkpt lat="44.8693332" lon="13.8691531"><ele>19.0</ele><time>2026-04-12T08:36:16.995Z</time></trkpt><trkpt lat="44.8695039" lon="13.869111"><ele>19.0</ele><time>2026-04-12T08:36:17.993Z</time></trkpt><trkpt lat="44.8696825" lon="13.8690655"><ele>19.0</ele><time>2026-04-12T08:36:18.992Z</time></trkpt><trkpt lat="44.8698615" lon="13.8690211"><ele>19.0</ele><time>2026-04-12T08:36:19.993Z</time></trkpt><trkpt lat="44.8700398" lon="13.8689732"><ele>19.0</ele><time>2026-04-12T08:36:20.99Z</time></trkpt><trkpt lat="44.8702167" lon="13.8689305"><ele>19.0</ele><time>2026-04-12T08:36:21.989Z</time></trkpt><trkpt lat="44.8703933" lon="13.8688859"><ele>19.0</ele><time>2026-04-12T08:36:22.995Z</time></trkpt><trkpt lat="44.8705665" lon="13.8688409"><ele>19.0</ele><time>2026-04-12T08:36:23.995Z</time></trkpt><trkpt lat="44.8707382" lon="13.8687961"><ele>19.0</ele><time>2026-04-12T08:36:24.991Z</time></trkpt><trkpt lat="44.8709124" lon="13.8687509"><ele>18.666666666666664</ele><time>2026-04-12T08:36:25.987Z</time></trkpt><trkpt lat="44.8710829" lon="13.8687073"><ele>18.333333333333332</ele><time>2026-04-12T08:36:26.99Z</time></trkpt><trkpt lat="44.8712542" lon="13.8686673"><ele>18.0</ele><time>2026-04-12T08:36:27.994Z</time></trkpt><trkpt lat="44.8714222" lon="13.8686256"><ele>18.0</ele><time>2026-04-12T08:36:28.986Z</time></trkpt><trkpt lat="44.8716" lon="13.8685847"><ele>18.0</ele><time>2026-04-12T08:36:29.994Z</time></trkpt><trkpt lat="44.8717817" lon="13.8685387"><ele>18.0</ele><time>2026-04-12T08:36:30.997Z</time></trkpt><trkpt lat="44.8719663" lon="13.8684896"><ele>17.333333333333332</ele><time>2026-04-12T08:36:31.992Z</time></trkpt><trkpt lat="44.872152" lon="13.8684423"><ele>16.666666666666664</ele><time>2026-04-12T08:36:32.994Z</time></trkpt><trkpt lat="44.8723343" lon="13.8683942"><ele>16.0</ele><time>2026-04-12T08:36:33.996Z</time></trkpt><trkpt lat="44.8725166" lon="13.8683483"><ele>15.0</ele><time>2026-04-12T08:36:34.987Z</time></trkpt><trkpt lat="44.8726986" lon="13.868302"><ele>14.0</ele><time>2026-04-12T08:36:35.993Z</time></trkpt><trkpt lat="44.8728792" lon="13.8682569"><ele>13.0</ele><time>2026-04-12T08:36:36.99Z</time></trkpt><trkpt lat="44.8730598" lon="13.8682106"><ele>13.0</ele><time>2026-04-12T08:36:37.99Z</time></trkpt><trkpt lat="44.873241" lon="13.8681627"><ele>13.0</ele><time>2026-04-12T08:36:38.988Z</time></trkpt><trkpt lat="44.8734225" lon="13.8681174"><ele>13.0</ele><time>2026-04-12T08:36:39.993Z</time></trkpt><trkpt lat="44.8735996" lon="13.8680685"><ele>14.0</ele><time>2026-04-12T08:36:40.989Z</time></trkpt><trkpt lat="44.8737748" lon="13.8680193"><ele>15.0</ele><time>2026-04-12T08:36:41.988Z</time></trkpt><trkpt lat="44.8739497" lon="13.8679723"><ele>16.0</ele><time>2026-04-12T08:36:42.992Z</time></trkpt><trkpt lat="44.874125" lon="13.8679264"><ele>17.0</ele><time>2026-04-12T08:36:43.987Z</time></trkpt><trkpt lat="44.8742956" lon="13.8678807"><ele>18.0</ele><time>2026-04-12T08:36:44.994Z</time></trkpt><trkpt lat="44.8744684" lon="13.867837"><ele>19.0</ele><time>2026-04-12T08:36:45.993Z</time></trkpt><trkpt lat="44.8746365" lon="13.867795"><ele>19.0</ele><time>2026-04-12T08:36:46.996Z</time></trkpt><trkpt lat="44.8748047" lon="13.8677556"><ele>19.0</ele><time>2026-04-12T08:36:47.991Z</time></trkpt><trkpt lat="44.8749685" lon="13.8677185"><ele>19.0</ele><time>2026-04-12T08:36:48.994Z</time></trkpt><trkpt lat="44.8751322" lon="13.8676786"><ele>20.0</ele><time>2026-04-12T08:36:49.992Z</time></trkpt><trkpt lat="44.8752931" lon="13.8676303"><ele>21.0</ele><time>2026-04-12T08:36:50.986Z</time></trkpt><trkpt lat="44.8754464" lon="13.86758"><ele>22.0</ele><time>2026-04-12T08:36:51.989Z</time></trkpt><trkpt lat="44.8755892" lon="13.8675355"><ele>22.0</ele><time>2026-04-12T08:36:52.991Z</time></trkpt><trkpt lat="44.8757145" lon="13.8675043"><ele>22.0</ele><time>2026-04-12T08:36:53.989Z</time></trkpt><trkpt lat="44.8758325" lon="13.8674771"><ele>22.0</ele><time>2026-04-12T08:36:54.989Z</time></trkpt><trkpt lat="44.875948" lon="13.8674639"><ele>22.0</ele><time>2026-04-12T08:36:55.992Z</time></trkpt><trkpt lat="44.8760506" lon="13.8674716"><ele>22.0</ele><time>2026-04-12T08:36:56.992Z</time></trkpt><trkpt lat="44.8761481" lon="13.8674819"><ele>22.0</ele><time>2026-04-12T08:36:57.996Z</time></trkpt><trkpt lat="44.8762474" lon="13.8674622"><ele>22.0</ele><time>2026-04-12T08:36:58.992Z</time></trkpt><trkpt lat="44.8763491" lon="13.8673987"><ele>22.0</ele><time>2026-04-12T08:36:59.992Z</time></trkpt><trkpt lat="44.8764487" lon="13.8673119"><ele>22.0</ele><time>2026-04-12T08:37:00.994Z</time></trkpt><trkpt lat="44.8765645" lon="13.8672353"><ele>22.0</ele><time>2026-04-12T08:37:01.991Z</time></trkpt><trkpt lat="44.8766916" lon="13.8671745"><ele>22.0</ele><time>2026-04-12T08:37:02.997Z</time></trkpt><trkpt lat="44.8768257" lon="13.8671097"><ele>22.0</ele><time>2026-04-12T08:37:03.987Z</time></trkpt><trkpt lat="44.8769611" lon="13.867034"><ele>22.0</ele><time>2026-04-12T08:37:04.984Z</time></trkpt><trkpt lat="44.8771009" lon="13.8669534"><ele>22.0</ele><time>2026-04-12T08:37:05.986Z</time></trkpt><trkpt lat="44.8772476" lon="13.8668623"><ele>22.0</ele><time>2026-04-12T08:37:06.992Z</time></trkpt><trkpt lat="44.8773959" lon="13.8667685"><ele>22.0</ele><time>2026-04-12T08:37:07.99Z</time></trkpt><trkpt lat="44.8775461" lon="13.8666657"><ele>20.666666666666664</ele><time>2026-04-12T08:37:08.99Z</time></trkpt><trkpt lat="44.8776928" lon="13.8665654"><ele>19.333333333333332</ele><time>2026-04-12T08:37:09.986Z</time></trkpt><trkpt lat="44.8778364" lon="13.8664603"><ele>18.0</ele><time>2026-04-12T08:37:10.989Z</time></trkpt><trkpt lat="44.8779807" lon="13.8663514"><ele>18.0</ele><time>2026-04-12T08:37:11.988Z</time></trkpt><trkpt lat="44.878119" lon="13.8662438"><ele>18.0</ele><time>2026-04-12T08:37:12.992Z</time></trkpt><trkpt lat="44.8782539" lon="13.8661462"><ele>18.0</ele><time>2026-04-12T08:37:13.995Z</time></trkpt><trkpt lat="44.8783844" lon="13.8660498"><ele>17.75</ele><time>2026-04-12T08:37:14.991Z</time></trkpt><trkpt lat="44.8785071" lon="13.8659603"><ele>17.5</ele><time>2026-04-12T08:37:15.991Z</time></trkpt><trkpt lat="44.8786277" lon="13.8658809"><ele>17.25</ele><time>2026-04-12T08:37:16.987Z</time></trkpt><trkpt lat="44.8787558" lon="13.8658074"><ele>17.0</ele><time>2026-04-12T08:37:17.985Z</time></trkpt><trkpt lat="44.8788944" lon="13.8657365"><ele>16.333333333333336</ele><time>2026-04-12T08:37:18.99Z</time></trkpt><trkpt lat="44.8790395" lon="13.8656577"><ele>15.666666666666668</ele><time>2026-04-12T08:37:19.989Z</time></trkpt><trkpt lat="44.8791827" lon="13.8655695"><ele>15.0</ele><time>2026-04-12T08:37:20.988Z</time></trkpt><trkpt lat="44.8793251" lon="13.8654697"><ele>15.0</ele><time>2026-04-12T08:37:21.987Z</time></trkpt><trkpt lat="44.8794614" lon="13.8653697"><ele>15.0</ele><time>2026-04-12T08:37:22.99Z</time></trkpt><trkpt lat="44.8795963" lon="13.8652712"><ele>15.0</ele><time>2026-04-12T08:37:23.992Z</time></trkpt><trkpt lat="44.8797237" lon="13.8651773"><ele>15.0</ele><time>2026-04-12T08:37:24.993Z</time></trkpt><trkpt lat="44.8798467" lon="13.8650917"><ele>14.833333333333334</ele><time>2026-04-12T08:37:25.987Z</time></trkpt><trkpt lat="44.8799617" lon="13.8650255"><ele>14.666666666666668</ele><time>2026-04-12T08:37:26.988Z</time></trkpt><trkpt lat="44.8800642" lon="13.8649881"><ele>14.5</ele><time>2026-04-12T08:37:27.99Z</time></trkpt><trkpt lat="44.8801456" lon="13.8649746"><ele>14.333333333333334</ele><time>2026-04-12T08:37:28.998Z</time></trkpt><trkpt lat="44.8802115" lon="13.8649709"><ele>14.166666666666668</ele><time>2026-04-12T08:37:29.99Z</time></trkpt><trkpt lat="44.8802784" lon="13.8649811"><ele>14.0</ele><time>2026-04-12T08:37:30.993Z</time></trkpt><trkpt lat="44.8803675" lon="13.8650119"><ele>14.0</ele><time>2026-04-12T08:37:31.99Z</time></trkpt><trkpt lat="44.8804699" lon="13.8650589"><ele>14.0</ele><time>2026-04-12T08:37:32.989Z</time></trkpt><trkpt lat="44.8805763" lon="13.8651041"><ele>14.0</ele><time>2026-04-12T08:37:33.989Z</time></trkpt><trkpt lat="44.8806958" lon="13.8651364"><ele>14.0</ele><time>2026-04-12T08:37:34.992Z</time></trkpt><trkpt lat="44.8808211" lon="13.8651439"><ele>14.0</ele><time>2026-04-12T08:37:35.991Z</time></trkpt><trkpt lat="44.8809507" lon="13.86511"><ele>14.0</ele><time>2026-04-12T08:37:36.992Z</time></trkpt><trkpt lat="44.8810696" lon="13.865041"><ele>14.0</ele><time>2026-04-12T08:37:37.987Z</time></trkpt><trkpt lat="44.8811723" lon="13.8649362"><ele>14.0</ele><time>2026-04-12T08:37:38.99Z</time></trkpt><trkpt lat="44.8812649" lon="13.864802"><ele>14.0</ele><time>2026-04-12T08:37:39.992Z</time></trkpt><trkpt lat="44.8813388" lon="13.8646461"><ele>14.0</ele><time>2026-04-12T08:37:40.989Z</time></trkpt><trkpt lat="44.8813928" lon="13.8644704"><ele>14.0</ele><time>2026-04-12T08:37:41.989Z</time></trkpt><trkpt lat="44.8814351" lon="13.8642838"><ele>14.0</ele><time>2026-04-12T08:37:42.991Z</time></trkpt><trkpt lat="44.8814781" lon="13.8640958"><ele>13.5</ele><time>2026-04-12T08:37:43.988Z</time></trkpt><trkpt lat="44.8815434" lon="13.8639242"><ele>13.0</ele><time>2026-04-12T08:37:44.992Z</time></trkpt><trkpt lat="44.8816446" lon="13.8637713"><ele>12.5</ele><time>2026-04-12T08:37:45.988Z</time></trkpt><trkpt lat="44.881766" lon="13.863646"><ele>12.0</ele><time>2026-04-12T08:37:46.986Z</time></trkpt><trkpt lat="44.881899" lon="13.8635429"><ele>12.666666666666668</ele><time>2026-04-12T08:37:47.987Z</time></trkpt><trkpt lat="44.8820369" lon="13.8634374"><ele>13.333333333333334</ele><time>2026-04-12T08:37:48.988Z</time></trkpt><trkpt lat="44.8821725" lon="13.8633216"><ele>14.0</ele><time>2026-04-12T08:37:49.99Z</time></trkpt><trkpt lat="44.8823089" lon="13.8631996"><ele>14.0</ele><time>2026-04-12T08:37:50.988Z</time></trkpt><trkpt lat="44.8824429" lon="13.863073"><ele>14.0</ele><time>2026-04-12T08:37:51.988Z</time></trkpt><trkpt lat="44.8825797" lon="13.8629472"><ele>14.0</ele><time>2026-04-12T08:37:52.99Z</time></trkpt><trkpt lat="44.882713" lon="13.862817"><ele>14.333333333333334</ele><time>2026-04-12T08:37:53.991Z</time></trkpt><trkpt lat="44.8828434" lon="13.8626791"><ele>14.666666666666668</ele><time>2026-04-12T08:37:54.988Z</time></trkpt><trkpt lat="44.8829745" lon="13.8625314"><ele>15.0</ele><time>2026-04-12T08:37:55.993Z</time></trkpt><trkpt lat="44.8831058" lon="13.8623768"><ele>15.0</ele><time>2026-04-12T08:37:56.986Z</time></trkpt><trkpt lat="44.8832435" lon="13.8622258"><ele>15.0</ele><time>2026-04-12T08:37:57.99Z</time></trkpt><trkpt lat="44.8833837" lon="13.8620812"><ele>15.0</ele><time>2026-04-12T08:37:58.99Z</time></trkpt><trkpt lat="44.8835277" lon="13.8619362"><ele>15.333333333333332</ele><time>2026-04-12T08:37:59.987Z</time></trkpt><trkpt lat="44.8836715" lon="13.8617966"><ele>15.666666666666666</ele><time>2026-04-12T08:38:00.987Z</time></trkpt><trkpt lat="44.8838137" lon="13.8616509"><ele>16.0</ele><time>2026-04-12T08:38:01.991Z</time></trkpt><trkpt lat="44.8839496" lon="13.8614992"><ele>16.0</ele><time>2026-04-12T08:38:02.987Z</time></trkpt><trkpt lat="44.8840822" lon="13.8613407"><ele>16.0</ele><time>2026-04-12T08:38:03.989Z</time></trkpt><trkpt lat="44.884215" lon="13.8611749"><ele>16.0</ele><time>2026-04-12T08:38:04.99Z</time></trkpt><trkpt lat="44.8843456" lon="13.8610019"><ele>16.333333333333332</ele><time>2026-04-12T08:38:05.988Z</time></trkpt><trkpt lat="44.8844714" lon="13.8608288"><ele>16.666666666666668</ele><time>2026-04-12T08:38:06.989Z</time></trkpt><trkpt lat="44.8845967" lon="13.8606544"><ele>17.0</ele><time>2026-04-12T08:38:07.986Z</time></trkpt><trkpt lat="44.884715" lon="13.8604807"><ele>17.0</ele><time>2026-04-12T08:38:08.989Z</time></trkpt><trkpt lat="44.884829" lon="13.8603036"><ele>17.0</ele><time>2026-04-12T08:38:09.989Z</time></trkpt><trkpt lat="44.8849369" lon="13.8601194"><ele>17.0</ele><time>2026-04-12T08:38:10.987Z</time></trkpt><trkpt lat="44.8850388" lon="13.8599294"><ele>17.0</ele><time>2026-04-12T08:38:11.989Z</time></trkpt><trkpt lat="44.8851364" lon="13.8597307"><ele>17.0</ele><time>2026-04-12T08:38:12.994Z</time></trkpt><trkpt lat="44.8852294" lon="13.8595251"><ele>17.0</ele><time>2026-04-12T08:38:13.987Z</time></trkpt><trkpt lat="44.8853172" lon="13.8593236"><ele>17.333333333333336</ele><time>2026-04-12T08:38:14.988Z</time></trkpt><trkpt lat="44.8853934" lon="13.8591235"><ele>17.666666666666668</ele><time>2026-04-12T08:38:15.989Z</time></trkpt><trkpt lat="44.8854621" lon="13.8589341"><ele>18.0</ele><time>2026-04-12T08:38:16.99Z</time></trkpt><trkpt lat="44.8855206" lon="13.8587539"><ele>18.0</ele><time>2026-04-12T08:38:17.997Z</time></trkpt><trkpt lat="44.8855761" lon="13.8585821"><ele>18.0</ele><time>2026-04-12T08:38:18.989Z</time></trkpt><trkpt lat="44.8856271" lon="13.8584102"><ele>18.0</ele><time>2026-04-12T08:38:19.99Z</time></trkpt><trkpt lat="44.8856769" lon="13.8582363"><ele>18.0</ele><time>2026-04-12T08:38:20.994Z</time></trkpt><trkpt lat="44.8857225" lon="13.8580711"><ele>18.4</ele><time>2026-04-12T08:38:21.988Z</time></trkpt><trkpt lat="44.8857653" lon="13.8579125"><ele>18.8</ele><time>2026-04-12T08:38:22.988Z</time></trkpt><trkpt lat="44.8858044" lon="13.8577645"><ele>19.2</ele><time>2026-04-12T08:38:23.994Z</time></trkpt><trkpt lat="44.8858383" lon="13.8576329"><ele>19.6</ele><time>2026-04-12T08:38:24.991Z</time></trkpt><trkpt lat="44.8858729" lon="13.8575085"><ele>20.0</ele><time>2026-04-12T08:38:25.991Z</time></trkpt><trkpt lat="44.8859082" lon="13.8573742"><ele>20.25</ele><time>2026-04-12T08:38:26.989Z</time></trkpt><trkpt lat="44.8859282" lon="13.8572215"><ele>20.5</ele><time>2026-04-12T08:38:27.989Z</time></trkpt><trkpt lat="44.8859393" lon="13.8570525"><ele>20.75</ele><time>2026-04-12T08:38:28.99Z</time></trkpt><trkpt lat="44.885955" lon="13.8568747"><ele>21.0</ele><time>2026-04-12T08:38:29.989Z</time></trkpt><trkpt lat="44.8859733" lon="13.8566852"><ele>19.666666666666668</ele><time>2026-04-12T08:38:30.987Z</time></trkpt><trkpt lat="44.8859935" lon="13.8564819"><ele>18.333333333333336</ele><time>2026-04-12T08:38:31.987Z</time></trkpt><trkpt lat="44.8860131" lon="13.8562542"><ele>17.0</ele><time>2026-04-12T08:38:32.991Z</time></trkpt><trkpt lat="44.8860268" lon="13.8560281"><ele>16.666666666666668</ele><time>2026-04-12T08:38:33.989Z</time></trkpt><trkpt lat="44.8860377" lon="13.8557983"><ele>16.333333333333332</ele><time>2026-04-12T08:38:34.992Z</time></trkpt><trkpt lat="44.8860408" lon="13.8555656"><ele>16.0</ele><time>2026-04-12T08:38:36.005Z</time></trkpt><trkpt lat="44.8860407" lon="13.8553312"><ele>16.0</ele><time>2026-04-12T08:38:36.999Z</time></trkpt><trkpt lat="44.886033" lon="13.8550952"><ele>16.0</ele><time>2026-04-12T08:38:37.994Z</time></trkpt><trkpt lat="44.8860206" lon="13.85486"><ele>16.0</ele><time>2026-04-12T08:38:38.994Z</time></trkpt><trkpt lat="44.8860063" lon="13.8546254"><ele>16.0</ele><time>2026-04-12T08:38:39.988Z</time></trkpt><trkpt lat="44.8859878" lon="13.8543941"><ele>16.0</ele><time>2026-04-12T08:38:40.991Z</time></trkpt><trkpt lat="44.8859654" lon="13.8541638"><ele>16.0</ele><time>2026-04-12T08:38:41.989Z</time></trkpt><trkpt lat="44.8859365" lon="13.8539351"><ele>16.333333333333332</ele><time>2026-04-12T08:38:42.99Z</time></trkpt><trkpt lat="44.8859045" lon="13.8537081"><ele>16.666666666666668</ele><time>2026-04-12T08:38:43.989Z</time></trkpt><trkpt lat="44.8858715" lon="13.8534896"><ele>17.0</ele><time>2026-04-12T08:38:44.988Z</time></trkpt><trkpt lat="44.8858386" lon="13.8532837"><ele>16.333333333333336</ele><time>2026-04-12T08:38:45.989Z</time></trkpt><trkpt lat="44.8858054" lon="13.8530762"><ele>15.666666666666668</ele><time>2026-04-12T08:38:46.986Z</time></trkpt><trkpt lat="44.8857736" lon="13.852869"><ele>15.0</ele><time>2026-04-12T08:38:47.989Z</time></trkpt><trkpt lat="44.8857325" lon="13.8526671"><ele>14.0</ele><time>2026-04-12T08:38:48.989Z</time></trkpt><trkpt lat="44.8856882" lon="13.852467"><ele>13.0</ele><time>2026-04-12T08:38:49.995Z</time></trkpt><trkpt lat="44.8856411" lon="13.8522379"><ele>12.0</ele><time>2026-04-12T08:38:51.005Z</time></trkpt><trkpt lat="44.8856047" lon="13.8519995"><ele>11.0</ele><time>2026-04-12T08:38:51.993Z</time></trkpt><trkpt lat="44.8855775" lon="13.8517719"><ele>10.0</ele><time>2026-04-12T08:38:52.993Z</time></trkpt><trkpt lat="44.8855581" lon="13.8515582"><ele>9.0</ele><time>2026-04-12T08:38:53.991Z</time></trkpt><trkpt lat="44.8855437" lon="13.8513562"><ele>9.0</ele><time>2026-04-12T08:38:54.988Z</time></trkpt><trkpt lat="44.885539" lon="13.8511645"><ele>9.0</ele><time>2026-04-12T08:38:55.989Z</time></trkpt><trkpt lat="44.8855426" lon="13.8509841"><ele>9.0</ele><time>2026-04-12T08:38:56.993Z</time></trkpt><trkpt lat="44.8855543" lon="13.8508129"><ele>9.0</ele><time>2026-04-12T08:38:57.991Z</time></trkpt><trkpt lat="44.8855775" lon="13.8506559"><ele>8.75</ele><time>2026-04-12T08:38:58.99Z</time></trkpt><trkpt lat="44.885613" lon="13.8505041"><ele>8.5</ele><time>2026-04-12T08:38:59.99Z</time></trkpt><trkpt lat="44.8856538" lon="13.850356"><ele>8.25</ele><time>2026-04-12T08:39:00.989Z</time></trkpt><trkpt lat="44.8856965" lon="13.8502052"><ele>8.0</ele><time>2026-04-12T08:39:01.994Z</time></trkpt><trkpt lat="44.8857447" lon="13.8500587"><ele>7.0</ele><time>2026-04-12T08:39:02.988Z</time></trkpt><trkpt lat="44.885801" lon="13.8499138"><ele>6.0</ele><time>2026-04-12T08:39:03.988Z</time></trkpt><trkpt lat="44.8858587" lon="13.8497721"><ele>5.0</ele><time>2026-04-12T08:39:04.99Z</time></trkpt><trkpt lat="44.8859171" lon="13.849638"><ele>4.0</ele><time>2026-04-12T08:39:05.986Z</time></trkpt><trkpt lat="44.8859775" lon="13.849513"><ele>4.0</ele><time>2026-04-12T08:39:06.992Z</time></trkpt><trkpt lat="44.8860387" lon="13.8493988"><ele>4.0</ele><time>2026-04-12T08:39:08.003Z</time></trkpt><trkpt lat="44.8861015" lon="13.849298"><ele>4.0</ele><time>2026-04-12T08:39:08.99Z</time></trkpt><trkpt lat="44.8861693" lon="13.8492053"><ele>4.0</ele><time>2026-04-12T08:39:09.988Z</time></trkpt><trkpt lat="44.8862456" lon="13.8491176"><ele>4.0</ele><time>2026-04-12T08:39:10.989Z</time></trkpt><trkpt lat="44.886327" lon="13.8490336"><ele>3.8000000000000003</ele><time>2026-04-12T08:39:11.987Z</time></trkpt><trkpt lat="44.8864133" lon="13.8489562"><ele>3.6000000000000005</ele><time>2026-04-12T08:39:12.989Z</time></trkpt><trkpt lat="44.8865026" lon="13.8488806"><ele>3.4</ele><time>2026-04-12T08:39:13.987Z</time></trkpt><trkpt lat="44.8865939" lon="13.8488116"><ele>3.2</ele><time>2026-04-12T08:39:14.99Z</time></trkpt><trkpt lat="44.8866849" lon="13.8487531"><ele>3.0</ele><time>2026-04-12T08:39:15.991Z</time></trkpt><trkpt lat="44.8867708" lon="13.8487001"><ele>3.0</ele><time>2026-04-12T08:39:16.989Z</time></trkpt><trkpt lat="44.8868503" lon="13.848651"><ele>3.0</ele><time>2026-04-12T08:39:17.987Z</time></trkpt><trkpt lat="44.8869274" lon="13.8486023"><ele>3.0</ele><time>2026-04-12T08:39:18.992Z</time></trkpt><trkpt lat="44.8870051" lon="13.8485584"><ele>3.0</ele><time>2026-04-12T08:39:19.988Z</time></trkpt><trkpt lat="44.8870817" lon="13.84851"><ele>3.0</ele><time>2026-04-12T08:39:20.987Z</time></trkpt><trkpt lat="44.8871584" lon="13.8484639"><ele>3.0</ele><time>2026-04-12T08:39:21.991Z</time></trkpt><trkpt lat="44.8872364" lon="13.8484198"><ele>3.3333333333333335</ele><time>2026-04-12T08:39:22.993Z</time></trkpt><trkpt lat="44.8873145" lon="13.8483738"><ele>3.666666666666667</ele><time>2026-04-12T08:39:23.992Z</time></trkpt><trkpt lat="44.8873943" lon="13.8483276"><ele>4.0</ele><time>2026-04-12T08:39:24.992Z</time></trkpt><trkpt lat="44.8874688" lon="13.8482832"><ele>4.333333333333334</ele><time>2026-04-12T08:39:25.992Z</time></trkpt><trkpt lat="44.8875444" lon="13.8482431"><ele>4.666666666666667</ele><time>2026-04-12T08:39:26.989Z</time></trkpt><trkpt lat="44.8876229" lon="13.8482233"><ele>5.0</ele><time>2026-04-12T08:39:27.99Z</time></trkpt><trkpt lat="44.8877025" lon="13.8482137"><ele>5.833333333333334</ele><time>2026-04-12T08:39:28.99Z</time></trkpt><trkpt lat="44.8877874" lon="13.8482213"><ele>6.666666666666667</ele><time>2026-04-12T08:39:29.992Z</time></trkpt><trkpt lat="44.8878724" lon="13.8482468"><ele>7.5</ele><time>2026-04-12T08:39:30.992Z</time></trkpt><trkpt lat="44.8879566" lon="13.848281"><ele>8.333333333333334</ele><time>2026-04-12T08:39:31.992Z</time></trkpt><trkpt lat="44.8880358" lon="13.8483067"><ele>9.166666666666668</ele><time>2026-04-12T08:39:32.992Z</time></trkpt><trkpt lat="44.888111" lon="13.8483106"><ele>10.0</ele><time>2026-04-12T08:39:33.99Z</time></trkpt><trkpt lat="44.8881873" lon="13.8482839"><ele>10.0</ele><time>2026-04-12T08:39:34.992Z</time></trkpt><trkpt lat="44.8882517" lon="13.8482306"><ele>10.0</ele><time>2026-04-12T08:39:35.998Z</time></trkpt><trkpt lat="44.8883045" lon="13.8481489"><ele>10.0</ele><time>2026-04-12T08:39:36.99Z</time></trkpt><trkpt lat="44.8883578" lon="13.8480592"><ele>10.0</ele><time>2026-04-12T08:39:37.987Z</time></trkpt><trkpt lat="44.8884119" lon="13.8479682"><ele>10.0</ele><time>2026-04-12T08:39:38.995Z</time></trkpt><trkpt lat="44.8884715" lon="13.8478799"><ele>10.0</ele><time>2026-04-12T08:39:39.987Z</time></trkpt><trkpt lat="44.8885402" lon="13.8478052"><ele>11.0</ele><time>2026-04-12T08:39:41.016Z</time></trkpt><trkpt lat="44.8886204" lon="13.8477509"><ele>12.0</ele><time>2026-04-12T08:39:41.992Z</time></trkpt><trkpt lat="44.8887088" lon="13.8477112"><ele>13.0</ele><time>2026-04-12T08:39:42.99Z</time></trkpt><trkpt lat="44.8888004" lon="13.8476751"><ele>14.0</ele><time>2026-04-12T08:39:43.992Z</time></trkpt><trkpt lat="44.8888915" lon="13.847634"><ele>15.0</ele><time>2026-04-12T08:39:44.993Z</time></trkpt><trkpt lat="44.8889853" lon="13.8475926"><ele>15.6</ele><time>2026-04-12T08:39:45.994Z</time></trkpt><trkpt lat="44.8890799" lon="13.8475502"><ele>16.2</ele><time>2026-04-12T08:39:46.992Z</time></trkpt><trkpt lat="44.889177" lon="13.8475017"><ele>16.8</ele><time>2026-04-12T08:39:47.995Z</time></trkpt><trkpt lat="44.88927" lon="13.8474423"><ele>17.4</ele><time>2026-04-12T08:39:48.989Z</time></trkpt><trkpt lat="44.8893609" lon="13.8473684"><ele>18.0</ele><time>2026-04-12T08:39:49.992Z</time></trkpt><trkpt lat="44.8894475" lon="13.8472881"><ele>19.6</ele><time>2026-04-12T08:39:50.994Z</time></trkpt><trkpt lat="44.8895341" lon="13.8472045"><ele>21.200000000000003</ele><time>2026-04-12T08:39:51.989Z</time></trkpt><trkpt lat="44.8896165" lon="13.8471171"><ele>22.8</ele><time>2026-04-12T08:39:52.987Z</time></trkpt><trkpt lat="44.8896984" lon="13.8470291"><ele>24.400000000000002</ele><time>2026-04-12T08:39:53.99Z</time></trkpt><trkpt lat="44.8897807" lon="13.8469437"><ele>26.0</ele><time>2026-04-12T08:39:54.99Z</time></trkpt><trkpt lat="44.8898619" lon="13.8468569"><ele>25.999999999999996</ele><time>2026-04-12T08:39:55.992Z</time></trkpt><trkpt lat="44.8899446" lon="13.8467687"><ele>26.0</ele><time>2026-04-12T08:39:56.995Z</time></trkpt><trkpt lat="44.8900248" lon="13.8466958"><ele>26.0</ele><time>2026-04-12T08:39:57.988Z</time></trkpt><trkpt lat="44.8900924" lon="13.8466228"><ele>26.0</ele><time>2026-04-12T08:39:58.992Z</time></trkpt><trkpt lat="44.8901523" lon="13.8465531"><ele>25.999999999999996</ele><time>2026-04-12T08:39:59.989Z</time></trkpt><trkpt lat="44.8902043" lon="13.84649"><ele>26.0</ele><time>2026-04-12T08:40:00.994Z</time></trkpt><trkpt lat="44.8902549" lon="13.8464367"><ele>28.0</ele><time>2026-04-12T08:40:01.987Z</time></trkpt><trkpt lat="44.8903061" lon="13.846382"><ele>30.0</ele><time>2026-04-12T08:40:02.989Z</time></trkpt><trkpt lat="44.8903789" lon="13.8463067"><ele>32.0</ele><time>2026-04-12T08:40:04.997Z</time></trkpt><trkpt lat="44.8904379" lon="13.8462547"><ele>34.0</ele><time>2026-04-12T08:40:06.992Z</time></trkpt><trkpt lat="44.8905332" lon="13.846177"><ele>36.0</ele><time>2026-04-12T08:40:08.996Z</time></trkpt><trkpt lat="44.8906433" lon="13.8460986"><ele>36.00000000000001</ele><time>2026-04-12T08:40:10.99Z</time></trkpt><trkpt lat="44.8907038" lon="13.846069"><ele>36.0</ele><time>2026-04-12T08:40:11.991Z</time></trkpt><trkpt lat="44.8907739" lon="13.8460437"><ele>36.0</ele><time>2026-04-12T08:40:12.99Z</time></trkpt><trkpt lat="44.8908393" lon="13.8460276"><ele>36.0</ele><time>2026-04-12T08:40:13.986Z</time></trkpt><trkpt lat="44.8909098" lon="13.84602"><ele>36.0</ele><time>2026-04-12T08:40:14.996Z</time></trkpt><trkpt lat="44.8909728" lon="13.8460157"><ele>36.00000000000001</ele><time>2026-04-12T08:40:15.988Z</time></trkpt><trkpt lat="44.8910373" lon="13.8460168"><ele>36.0</ele><time>2026-04-12T08:40:16.989Z</time></trkpt><trkpt lat="44.8911056" lon="13.8460152"><ele>37.5</ele><time>2026-04-12T08:40:17.988Z</time></trkpt><trkpt lat="44.8911805" lon="13.8460178"><ele>39.0</ele><time>2026-04-12T08:40:18.988Z</time></trkpt><trkpt lat="44.8912617" lon="13.8460222"><ele>40.5</ele><time>2026-04-12T08:40:19.992Z</time></trkpt><trkpt lat="44.8913469" lon="13.8460256"><ele>42.0</ele><time>2026-04-12T08:40:20.992Z</time></trkpt><trkpt lat="44.8914292" lon="13.8460326"><ele>43.5</ele><time>2026-04-12T08:40:21.999Z</time></trkpt><trkpt lat="44.8915166" lon="13.8460371"><ele>45.0</ele><time>2026-04-12T08:40:22.993Z</time></trkpt><trkpt lat="44.8916028" lon="13.8460374"><ele>45.0</ele><time>2026-04-12T08:40:23.988Z</time></trkpt><trkpt lat="44.8916862" lon="13.8460424"><ele>45.0</ele><time>2026-04-12T08:40:24.99Z</time></trkpt><trkpt lat="44.8917707" lon="13.8460456"><ele>45.0</ele><time>2026-04-12T08:40:25.989Z</time></trkpt><trkpt lat="44.8918557" lon="13.8460478"><ele>45.0</ele><time>2026-04-12T08:40:26.989Z</time></trkpt><trkpt lat="44.8919358" lon="13.8460529"><ele>45.0</ele><time>2026-04-12T08:40:27.991Z</time></trkpt><trkpt lat="44.8920135" lon="13.8460605"><ele>45.0</ele><time>2026-04-12T08:40:28.995Z</time></trkpt><trkpt lat="44.892094" lon="13.846065"><ele>44.0</ele><time>2026-04-12T08:40:29.991Z</time></trkpt><trkpt lat="44.8921709" lon="13.8460711"><ele>43.0</ele><time>2026-04-12T08:40:30.99Z</time></trkpt><trkpt lat="44.8922484" lon="13.8460775"><ele>42.0</ele><time>2026-04-12T08:40:31.99Z</time></trkpt><trkpt lat="44.8923317" lon="13.8460861"><ele>41.0</ele><time>2026-04-12T08:40:32.987Z</time></trkpt><trkpt lat="44.8924087" lon="13.8460862"><ele>40.0</ele><time>2026-04-12T08:40:33.987Z</time></trkpt><trkpt lat="44.8924851" lon="13.8460781"><ele>39.0</ele><time>2026-04-12T08:40:34.988Z</time></trkpt><trkpt lat="44.892564" lon="13.846073"><ele>38.333333333333336</ele><time>2026-04-12T08:40:35.995Z</time></trkpt><trkpt lat="44.8926427" lon="13.8460682"><ele>37.666666666666664</ele><time>2026-04-12T08:40:36.988Z</time></trkpt><trkpt lat="44.8927275" lon="13.8460568"><ele>37.0</ele><time>2026-04-12T08:40:37.992Z</time></trkpt><trkpt lat="44.8928119" lon="13.8460423"><ele>36.33333333333333</ele><time>2026-04-12T08:40:38.987Z</time></trkpt><trkpt lat="44.8928966" lon="13.8460256"><ele>35.666666666666664</ele><time>2026-04-12T08:40:39.993Z</time></trkpt><trkpt lat="44.8929807" lon="13.8460022"><ele>35.0</ele><time>2026-04-12T08:40:40.994Z</time></trkpt><trkpt lat="44.89307" lon="13.845975"><ele>35.0</ele><time>2026-04-12T08:40:41.989Z</time></trkpt><trkpt lat="44.8931651" lon="13.8459413"><ele>35.0</ele><time>2026-04-12T08:40:42.99Z</time></trkpt><trkpt lat="44.8932574" lon="13.8459016"><ele>35.0</ele><time>2026-04-12T08:40:43.99Z</time></trkpt><trkpt lat="44.8933475" lon="13.8458599"><ele>35.0</ele><time>2026-04-12T08:40:44.991Z</time></trkpt><trkpt lat="44.8934435" lon="13.8458119"><ele>35.0</ele><time>2026-04-12T08:40:45.991Z</time></trkpt><trkpt lat="44.8935468" lon="13.8457488"><ele>35.0</ele><time>2026-04-12T08:40:46.991Z</time></trkpt><trkpt lat="44.8936496" lon="13.8456868"><ele>35.0</ele><time>2026-04-12T08:40:47.997Z</time></trkpt><trkpt lat="44.8937558" lon="13.8456211"><ele>35.0</ele><time>2026-04-12T08:40:48.993Z</time></trkpt><trkpt lat="44.8938743" lon="13.8455488"><ele>35.0</ele><time>2026-04-12T08:40:49.989Z</time></trkpt><trkpt lat="44.8939908" lon="13.8454844"><ele>35.0</ele><time>2026-04-12T08:40:50.99Z</time></trkpt><trkpt lat="44.8941081" lon="13.845421"><ele>35.0</ele><time>2026-04-12T08:40:51.99Z</time></trkpt><trkpt lat="44.894227" lon="13.8453673"><ele>35.0</ele><time>2026-04-12T08:40:52.989Z</time></trkpt><trkpt lat="44.8943445" lon="13.8453123"><ele>35.0</ele><time>2026-04-12T08:40:53.988Z</time></trkpt><trkpt lat="44.8944608" lon="13.845263"><ele>35.0</ele><time>2026-04-12T08:40:54.997Z</time></trkpt><trkpt lat="44.8945764" lon="13.8452243"><ele>35.0</ele><time>2026-04-12T08:40:55.986Z</time></trkpt><trkpt lat="44.8946928" lon="13.8451913"><ele>35.0</ele><time>2026-04-12T08:40:56.991Z</time></trkpt><trkpt lat="44.8948052" lon="13.8451628"><ele>35.0</ele><time>2026-04-12T08:40:57.989Z</time></trkpt><trkpt lat="44.8949168" lon="13.8451442"><ele>34.8</ele><time>2026-04-12T08:40:58.992Z</time></trkpt><trkpt lat="44.8950279" lon="13.8451248"><ele>34.6</ele><time>2026-04-12T08:40:59.988Z</time></trkpt><trkpt lat="44.8951343" lon="13.8451132"><ele>34.4</ele><time>2026-04-12T08:41:00.99Z</time></trkpt><trkpt lat="44.8952387" lon="13.8451082"><ele>34.2</ele><time>2026-04-12T08:41:01.988Z</time></trkpt><trkpt lat="44.8953485" lon="13.8451049"><ele>34.0</ele><time>2026-04-12T08:41:02.985Z</time></trkpt><trkpt lat="44.895462" lon="13.8451087"><ele>33.75</ele><time>2026-04-12T08:41:03.988Z</time></trkpt><trkpt lat="44.8955786" lon="13.8451103"><ele>33.5</ele><time>2026-04-12T08:41:04.989Z</time></trkpt><trkpt lat="44.8956902" lon="13.845111"><ele>33.25</ele><time>2026-04-12T08:41:05.991Z</time></trkpt><trkpt lat="44.895808" lon="13.8451092"><ele>33.0</ele><time>2026-04-12T08:41:06.99Z</time></trkpt><trkpt lat="44.8959295" lon="13.8451038"><ele>32.6</ele><time>2026-04-12T08:41:07.991Z</time></trkpt><trkpt lat="44.8960426" lon="13.8451036"><ele>32.199999999999996</ele><time>2026-04-12T08:41:08.99Z</time></trkpt><trkpt lat="44.8961529" lon="13.8451036"><ele>31.8</ele><time>2026-04-12T08:41:09.99Z</time></trkpt><trkpt lat="44.8962583" lon="13.8451046"><ele>31.4</ele><time>2026-04-12T08:41:10.992Z</time></trkpt><trkpt lat="44.8963679" lon="13.8451035"><ele>31.0</ele><time>2026-04-12T08:41:11.987Z</time></trkpt><trkpt lat="44.8964879" lon="13.8451025"><ele>31.0</ele><time>2026-04-12T08:41:12.993Z</time></trkpt><trkpt lat="44.8966147" lon="13.8451019"><ele>31.0</ele><time>2026-04-12T08:41:13.988Z</time></trkpt><trkpt lat="44.8967494" lon="13.8451009"><ele>31.0</ele><time>2026-04-12T08:41:14.992Z</time></trkpt><trkpt lat="44.8968891" lon="13.8450992"><ele>31.0</ele><time>2026-04-12T08:41:15.992Z</time></trkpt><trkpt lat="44.8970327" lon="13.8450963"><ele>30.25</ele><time>2026-04-12T08:41:16.991Z</time></trkpt><trkpt lat="44.8971704" lon="13.845091"><ele>29.5</ele><time>2026-04-12T08:41:17.988Z</time></trkpt><trkpt lat="44.8972998" lon="13.8450874"><ele>28.75</ele><time>2026-04-12T08:41:18.999Z</time></trkpt><trkpt lat="44.8974256" lon="13.8450856"><ele>28.0</ele><time>2026-04-12T08:41:19.993Z</time></trkpt><trkpt lat="44.8975475" lon="13.8450852"><ele>27.4</ele><time>2026-04-12T08:41:20.997Z</time></trkpt><trkpt lat="44.8976611" lon="13.8450852"><ele>26.799999999999997</ele><time>2026-04-12T08:41:21.987Z</time></trkpt><trkpt lat="44.897774" lon="13.8450827"><ele>26.2</ele><time>2026-04-12T08:41:22.988Z</time></trkpt><trkpt lat="44.8978806" lon="13.8450826"><ele>25.6</ele><time>2026-04-12T08:41:24Z</time></trkpt><trkpt lat="44.8979906" lon="13.845079"><ele>25.0</ele><time>2026-04-12T08:41:24.993Z</time></trkpt><trkpt lat="44.8981089" lon="13.8450775"><ele>25.0</ele><time>2026-04-12T08:41:25.992Z</time></trkpt><trkpt lat="44.8982242" lon="13.8450766"><ele>25.0</ele><time>2026-04-12T08:41:26.995Z</time></trkpt><trkpt lat="44.8983439" lon="13.845075"><ele>25.0</ele><time>2026-04-12T08:41:27.99Z</time></trkpt><trkpt lat="44.8984547" lon="13.8450774"><ele>25.0</ele><time>2026-04-12T08:41:28.988Z</time></trkpt><trkpt lat="44.8985607" lon="13.8450906"><ele>25.2</ele><time>2026-04-12T08:41:29.993Z</time></trkpt><trkpt lat="44.8986587" lon="13.8451144"><ele>25.4</ele><time>2026-04-12T08:41:30.992Z</time></trkpt><trkpt lat="44.8987547" lon="13.8451427"><ele>25.6</ele><time>2026-04-12T08:41:31.992Z</time></trkpt><trkpt lat="44.8988427" lon="13.8451809"><ele>25.8</ele><time>2026-04-12T08:41:32.99Z</time></trkpt><trkpt lat="44.8989167" lon="13.8452228"><ele>26.0</ele><time>2026-04-12T08:41:33.987Z</time></trkpt><trkpt lat="44.8989969" lon="13.8452495"><ele>26.200000000000003</ele><time>2026-04-12T08:41:34.986Z</time></trkpt><trkpt lat="44.8990792" lon="13.8452348"><ele>26.400000000000002</ele><time>2026-04-12T08:41:35.992Z</time></trkpt><trkpt lat="44.8991685" lon="13.8452043"><ele>26.6</ele><time>2026-04-12T08:41:36.992Z</time></trkpt><trkpt lat="44.8992732" lon="13.8451902"><ele>26.8</ele><time>2026-04-12T08:41:37.988Z</time></trkpt><trkpt lat="44.8993884" lon="13.8451972"><ele>27.0</ele><time>2026-04-12T08:41:38.988Z</time></trkpt><trkpt lat="44.8995054" lon="13.8452111"><ele>27.25</ele><time>2026-04-12T08:41:39.994Z</time></trkpt><trkpt lat="44.8996241" lon="13.8452273"><ele>27.5</ele><time>2026-04-12T08:41:40.988Z</time></trkpt><trkpt lat="44.8997399" lon="13.8452451"><ele>27.75</ele><time>2026-04-12T08:41:41.993Z</time></trkpt><trkpt lat="44.8998553" lon="13.8452671"><ele>28.0</ele><time>2026-04-12T08:41:42.995Z</time></trkpt><trkpt lat="44.899968" lon="13.8452865"><ele>28.0</ele><time>2026-04-12T08:41:43.991Z</time></trkpt><trkpt lat="44.9000715" lon="13.8453032"><ele>27.999999999999996</ele><time>2026-04-12T08:41:44.992Z</time></trkpt><trkpt lat="44.9001698" lon="13.8453194"><ele>27.999999999999996</ele><time>2026-04-12T08:41:45.998Z</time></trkpt><trkpt lat="44.9002578" lon="13.8453307"><ele>28.0</ele><time>2026-04-12T08:41:46.989Z</time></trkpt><trkpt lat="44.9003299" lon="13.8453278"><ele>28.0</ele><time>2026-04-12T08:41:47.989Z</time></trkpt><trkpt lat="44.900433" lon="13.8452534"><ele>27.833333333333336</ele><time>2026-04-12T08:41:49.99Z</time></trkpt><trkpt lat="44.9004841" lon="13.8451689"><ele>27.666666666666668</ele><time>2026-04-12T08:41:51.998Z</time></trkpt><trkpt lat="44.9005274" lon="13.8450984"><ele>27.5</ele><time>2026-04-12T08:43:20.992Z</time></trkpt><trkpt lat="44.9005994" lon="13.8449983"><ele>27.333333333333336</ele><time>2026-04-12T08:43:22.991Z</time></trkpt><trkpt lat="44.9006487" lon="13.844937"><ele>27.166666666666668</ele><time>2026-04-12T08:43:23.993Z</time></trkpt><trkpt lat="44.9007074" lon="13.8448717"><ele>27.0</ele><time>2026-04-12T08:43:24.991Z</time></trkpt><trkpt lat="44.9007702" lon="13.8447957"><ele>26.666666666666668</ele><time>2026-04-12T08:43:25.989Z</time></trkpt><trkpt lat="44.9008353" lon="13.844715"><ele>26.333333333333336</ele><time>2026-04-12T08:43:26.987Z</time></trkpt><trkpt lat="44.9009014" lon="13.84464"><ele>26.0</ele><time>2026-04-12T08:43:27.994Z</time></trkpt><trkpt lat="44.9009675" lon="13.8445637"><ele>25.666666666666668</ele><time>2026-04-12T08:43:28.987Z</time></trkpt><trkpt lat="44.9010381" lon="13.8444909"><ele>25.333333333333336</ele><time>2026-04-12T08:43:29.988Z</time></trkpt><trkpt lat="44.9011096" lon="13.8444227"><ele>25.0</ele><time>2026-04-12T08:43:30.988Z</time></trkpt><trkpt lat="44.9011825" lon="13.8443493"><ele>24.4</ele><time>2026-04-12T08:43:31.992Z</time></trkpt><trkpt lat="44.901256" lon="13.8442756"><ele>23.8</ele><time>2026-04-12T08:43:32.991Z</time></trkpt><trkpt lat="44.9013307" lon="13.8442002"><ele>23.200000000000003</ele><time>2026-04-12T08:43:33.992Z</time></trkpt><trkpt lat="44.9014093" lon="13.8441271"><ele>22.6</ele><time>2026-04-12T08:43:34.986Z</time></trkpt><trkpt lat="44.9014858" lon="13.8440567"><ele>22.0</ele><time>2026-04-12T08:43:35.99Z</time></trkpt><trkpt lat="44.9015622" lon="13.8439868"><ele>22.0</ele><time>2026-04-12T08:43:36.992Z</time></trkpt><trkpt lat="44.9016395" lon="13.8439174"><ele>22.0</ele><time>2026-04-12T08:43:37.989Z</time></trkpt><trkpt lat="44.9017128" lon="13.8438506"><ele>22.0</ele><time>2026-04-12T08:43:38.988Z</time></trkpt><trkpt lat="44.901787" lon="13.8437842"><ele>22.0</ele><time>2026-04-12T08:43:39.991Z</time></trkpt><trkpt lat="44.9018568" lon="13.8437092"><ele>22.0</ele><time>2026-04-12T08:43:40.993Z</time></trkpt><trkpt lat="44.9019246" lon="13.8436293"><ele>22.0</ele><time>2026-04-12T08:43:41.986Z</time></trkpt><trkpt lat="44.9019989" lon="13.8435503"><ele>22.0</ele><time>2026-04-12T08:43:42.992Z</time></trkpt><trkpt lat="44.9020764" lon="13.8434672"><ele>22.0</ele><time>2026-04-12T08:43:43.994Z</time></trkpt><trkpt lat="44.9021603" lon="13.8433724"><ele>22.0</ele><time>2026-04-12T08:43:44.992Z</time></trkpt><trkpt lat="44.9022404" lon="13.8432815"><ele>22.0</ele><time>2026-04-12T08:43:45.995Z</time></trkpt><trkpt lat="44.9023248" lon="13.8431947"><ele>22.0</ele><time>2026-04-12T08:43:46.998Z</time></trkpt><trkpt lat="44.9024045" lon="13.8431118"><ele>22.0</ele><time>2026-04-12T08:43:47.99Z</time></trkpt><trkpt lat="44.902486" lon="13.8430348"><ele>22.0</ele><time>2026-04-12T08:43:48.997Z</time></trkpt><trkpt lat="44.9025642" lon="13.8429592"><ele>22.0</ele><time>2026-04-12T08:43:49.995Z</time></trkpt><trkpt lat="44.902644" lon="13.8428842"><ele>22.0</ele><time>2026-04-12T08:43:50.984Z</time></trkpt><trkpt lat="44.9027208" lon="13.842816"><ele>22.0</ele><time>2026-04-12T08:43:51.989Z</time></trkpt><trkpt lat="44.9027978" lon="13.8427542"><ele>22.166666666666664</ele><time>2026-04-12T08:43:52.995Z</time></trkpt><trkpt lat="44.9028762" lon="13.8426953"><ele>22.333333333333332</ele><time>2026-04-12T08:43:53.998Z</time></trkpt><trkpt lat="44.9029541" lon="13.8426364"><ele>22.5</ele><time>2026-04-12T08:43:54.988Z</time></trkpt><trkpt lat="44.9030279" lon="13.842576"><ele>22.666666666666668</ele><time>2026-04-12T08:43:55.988Z</time></trkpt><trkpt lat="44.9031021" lon="13.842508"><ele>22.833333333333336</ele><time>2026-04-12T08:43:56.99Z</time></trkpt><trkpt lat="44.9031711" lon="13.8424412"><ele>23.0</ele><time>2026-04-12T08:43:57.99Z</time></trkpt><trkpt lat="44.9032399" lon="13.8423754"><ele>23.0</ele><time>2026-04-12T08:43:58.989Z</time></trkpt><trkpt lat="44.9033063" lon="13.842311"><ele>23.0</ele><time>2026-04-12T08:43:59.993Z</time></trkpt><trkpt lat="44.903372" lon="13.8422469"><ele>23.0</ele><time>2026-04-12T08:44:00.994Z</time></trkpt><trkpt lat="44.9034383" lon="13.8421762"><ele>23.0</ele><time>2026-04-12T08:44:01.992Z</time></trkpt><trkpt lat="44.9035008" lon="13.842107"><ele>23.0</ele><time>2026-04-12T08:44:02.992Z</time></trkpt><trkpt lat="44.9035549" lon="13.842048"><ele>23.0</ele><time>2026-04-12T08:44:03.995Z</time></trkpt><trkpt lat="44.9036428" lon="13.8419712"><ele>23.0</ele><time>2026-04-12T08:44:05.993Z</time></trkpt><trkpt lat="44.9037267" lon="13.8418923"><ele>23.0</ele><time>2026-04-12T08:44:07.992Z</time></trkpt><trkpt lat="44.9037879" lon="13.8418082"><ele>23.0</ele><time>2026-04-12T08:44:09.988Z</time></trkpt><trkpt lat="44.903871" lon="13.8417127"><ele>23.0</ele><time>2026-04-12T08:44:11.997Z</time></trkpt><trkpt lat="44.9039535" lon="13.841607"><ele>23.0</ele><time>2026-04-12T08:44:13.995Z</time></trkpt><trkpt lat="44.904039" lon="13.8414879"><ele>23.0</ele><time>2026-04-12T08:44:15.989Z</time></trkpt><trkpt lat="44.9040874" lon="13.8414191"><ele>23.0</ele><time>2026-04-12T08:44:16.99Z</time></trkpt><trkpt lat="44.9041403" lon="13.8413542"><ele>23.0</ele><time>2026-04-12T08:44:17.987Z</time></trkpt><trkpt lat="44.9041884" lon="13.841287"><ele>23.0</ele><time>2026-04-12T08:44:18.993Z</time></trkpt><trkpt lat="44.9042492" lon="13.8412014"><ele>23.0</ele><time>2026-04-12T08:44:19.989Z</time></trkpt><trkpt lat="44.9043023" lon="13.841111"><ele>23.0</ele><time>2026-04-12T08:44:20.986Z</time></trkpt><trkpt lat="44.904353" lon="13.841015"><ele>22.5</ele><time>2026-04-12T08:44:21.986Z</time></trkpt><trkpt lat="44.9043973" lon="13.840921"><ele>22.0</ele><time>2026-04-12T08:44:22.991Z</time></trkpt><trkpt lat="44.9044453" lon="13.8408316"><ele>21.5</ele><time>2026-04-12T08:44:23.99Z</time></trkpt><trkpt lat="44.904492" lon="13.8407393"><ele>21.0</ele><time>2026-04-12T08:44:24.988Z</time></trkpt><trkpt lat="44.9045295" lon="13.8406533"><ele>20.5</ele><time>2026-04-12T08:44:25.99Z</time></trkpt><trkpt lat="44.904569" lon="13.8405776"><ele>20.0</ele><time>2026-04-12T08:44:26.99Z</time></trkpt><trkpt lat="44.9046349" lon="13.840459"><ele>20.0</ele><time>2026-04-12T08:44:28.99Z</time></trkpt><trkpt lat="44.9047296" lon="13.84036"><ele>20.0</ele><time>2026-04-12T08:44:30.994Z</time></trkpt><trkpt lat="44.9047988" lon="13.840317"><ele>20.0</ele><time>2026-04-12T08:44:31.992Z</time></trkpt><trkpt lat="44.904864" lon="13.8402754"><ele>20.0</ele><time>2026-04-12T08:44:32.992Z</time></trkpt><trkpt lat="44.9049375" lon="13.840228"><ele>20.0</ele><time>2026-04-12T08:44:33.99Z</time></trkpt><trkpt lat="44.9050201" lon="13.8401866"><ele>20.0</ele><time>2026-04-12T08:44:34.988Z</time></trkpt><trkpt lat="44.9051023" lon="13.8401413"><ele>21.0</ele><time>2026-04-12T08:44:35.988Z</time></trkpt><trkpt lat="44.9051834" lon="13.840088"><ele>22.0</ele><time>2026-04-12T08:44:36.991Z</time></trkpt><trkpt lat="44.9052766" lon="13.8400393"><ele>23.0</ele><time>2026-04-12T08:44:37.987Z</time></trkpt><trkpt lat="44.9053799" lon="13.8399942"><ele>24.0</ele><time>2026-04-12T08:44:38.991Z</time></trkpt><trkpt lat="44.9054947" lon="13.8399516"><ele>25.0</ele><time>2026-04-12T08:44:39.987Z</time></trkpt><trkpt lat="44.9055941" lon="13.8399204"><ele>25.0</ele><time>2026-04-12T08:44:40.994Z</time></trkpt><trkpt lat="44.9056885" lon="13.8398839"><ele>25.0</ele><time>2026-04-12T08:44:41.987Z</time></trkpt><trkpt lat="44.9057871" lon="13.8398549"><ele>25.0</ele><time>2026-04-12T08:44:42.988Z</time></trkpt><trkpt lat="44.9058828" lon="13.839837"><ele>25.0</ele><time>2026-04-12T08:44:43.991Z</time></trkpt><trkpt lat="44.9059746" lon="13.8398255"><ele>25.0</ele><time>2026-04-12T08:44:44.991Z</time></trkpt><trkpt lat="44.9060566" lon="13.8398112"><ele>25.333333333333336</ele><time>2026-04-12T08:44:45.991Z</time></trkpt><trkpt lat="44.9061294" lon="13.8397812"><ele>25.666666666666668</ele><time>2026-04-12T08:44:46.991Z</time></trkpt><trkpt lat="44.9061955" lon="13.839766"><ele>26.0</ele><time>2026-04-12T08:44:47.991Z</time></trkpt><trkpt lat="44.9062664" lon="13.8397546"><ele>26.333333333333336</ele><time>2026-04-12T08:44:48.989Z</time></trkpt><trkpt lat="44.9063343" lon="13.8397364"><ele>26.666666666666668</ele><time>2026-04-12T08:44:49.991Z</time></trkpt><trkpt lat="44.9064502" lon="13.8396966"><ele>27.0</ele><time>2026-04-12T08:44:51.99Z</time></trkpt><trkpt lat="44.9065622" lon="13.8396552"><ele>27.0</ele><time>2026-04-12T08:44:53.996Z</time></trkpt><trkpt lat="44.9066761" lon="13.8396084"><ele>27.0</ele><time>2026-04-12T08:44:55.992Z</time></trkpt><trkpt lat="44.9067399" lon="13.8395833"><ele>27.0</ele><time>2026-04-12T08:44:56.99Z</time></trkpt><trkpt lat="44.9068123" lon="13.8395619"><ele>27.0</ele><time>2026-04-12T08:44:57.988Z</time></trkpt><trkpt lat="44.9068867" lon="13.8395396"><ele>27.0</ele><time>2026-04-12T08:44:58.987Z</time></trkpt><trkpt lat="44.9069674" lon="13.8395133"><ele>27.0</ele><time>2026-04-12T08:44:59.991Z</time></trkpt><trkpt lat="44.9070574" lon="13.8394878"><ele>27.6</ele><time>2026-04-12T08:45:00.989Z</time></trkpt><trkpt lat="44.907147" lon="13.8394534"><ele>28.200000000000003</ele><time>2026-04-12T08:45:01.99Z</time></trkpt><trkpt lat="44.9072381" lon="13.8394137"><ele>28.8</ele><time>2026-04-12T08:45:02.991Z</time></trkpt><trkpt lat="44.9073278" lon="13.8393761"><ele>29.4</ele><time>2026-04-12T08:45:03.991Z</time></trkpt><trkpt lat="44.9074183" lon="13.839349"><ele>30.0</ele><time>2026-04-12T08:45:04.993Z</time></trkpt><trkpt lat="44.9075088" lon="13.8393212"><ele>29.2</ele><time>2026-04-12T08:45:05.991Z</time></trkpt><trkpt lat="44.9075967" lon="13.8392922"><ele>28.4</ele><time>2026-04-12T08:45:06.991Z</time></trkpt><trkpt lat="44.9076814" lon="13.8392671"><ele>27.6</ele><time>2026-04-12T08:45:07.992Z</time></trkpt><trkpt lat="44.9077656" lon="13.8392307"><ele>26.8</ele><time>2026-04-12T08:45:08.995Z</time></trkpt><trkpt lat="44.9078572" lon="13.839174"><ele>26.0</ele><time>2026-04-12T08:45:10.006Z</time></trkpt><trkpt lat="44.9079593" lon="13.8391295"><ele>26.0</ele><time>2026-04-12T08:45:11.003Z</time></trkpt><trkpt lat="44.908041" lon="13.8390971"><ele>26.0</ele><time>2026-04-12T08:45:11.988Z</time></trkpt><trkpt lat="44.9081198" lon="13.8390689"><ele>26.0</ele><time>2026-04-12T08:45:12.993Z</time></trkpt><trkpt lat="44.9082101" lon="13.8390544"><ele>26.0</ele><time>2026-04-12T08:45:13.995Z</time></trkpt><trkpt lat="44.9083071" lon="13.8390331"><ele>26.0</ele><time>2026-04-12T08:45:14.991Z</time></trkpt><trkpt lat="44.9084057" lon="13.8390032"><ele>25.8</ele><time>2026-04-12T08:45:15.989Z</time></trkpt><trkpt lat="44.9085022" lon="13.8389675"><ele>25.6</ele><time>2026-04-12T08:45:16.994Z</time></trkpt><trkpt lat="44.9086005" lon="13.8389343"><ele>25.4</ele><time>2026-04-12T08:45:17.987Z</time></trkpt><trkpt lat="44.9087006" lon="13.8389035"><ele>25.2</ele><time>2026-04-12T08:45:18.992Z</time></trkpt><trkpt lat="44.9088012" lon="13.8388815"><ele>25.0</ele><time>2026-04-12T08:45:19.993Z</time></trkpt><trkpt lat="44.908902" lon="13.8388688"><ele>25.0</ele><time>2026-04-12T08:45:20.988Z</time></trkpt><trkpt lat="44.9089955" lon="13.8388618"><ele>25.0</ele><time>2026-04-12T08:45:21.997Z</time></trkpt><trkpt lat="44.9091031" lon="13.8388397"><ele>25.0</ele><time>2026-04-12T08:45:22.988Z</time></trkpt><trkpt lat="44.9092069" lon="13.8388103"><ele>25.0</ele><time>2026-04-12T08:45:23.991Z</time></trkpt><trkpt lat="44.9093113" lon="13.838775"><ele>25.0</ele><time>2026-04-12T08:45:24.986Z</time></trkpt><trkpt lat="44.9094183" lon="13.838742"><ele>25.25</ele><time>2026-04-12T08:45:25.989Z</time></trkpt><trkpt lat="44.9095274" lon="13.8386951"><ele>25.5</ele><time>2026-04-12T08:45:26.991Z</time></trkpt><trkpt lat="44.9096391" lon="13.8386572"><ele>25.75</ele><time>2026-04-12T08:45:27.995Z</time></trkpt><trkpt lat="44.9097514" lon="13.8386215"><ele>26.0</ele><time>2026-04-12T08:45:28.986Z</time></trkpt><trkpt lat="44.9098626" lon="13.8385895"><ele>26.0</ele><time>2026-04-12T08:45:29.99Z</time></trkpt><trkpt lat="44.90998" lon="13.8385564"><ele>26.0</ele><time>2026-04-12T08:45:30.99Z</time></trkpt><trkpt lat="44.9100938" lon="13.838515"><ele>26.0</ele><time>2026-04-12T08:45:31.988Z</time></trkpt><trkpt lat="44.9102069" lon="13.8384652"><ele>26.0</ele><time>2026-04-12T08:45:32.986Z</time></trkpt><trkpt lat="44.9103183" lon="13.8384245"><ele>25.4</ele><time>2026-04-12T08:45:33.99Z</time></trkpt><trkpt lat="44.910434" lon="13.8383887"><ele>24.8</ele><time>2026-04-12T08:45:34.987Z</time></trkpt><trkpt lat="44.9105493" lon="13.8383489"><ele>24.2</ele><time>2026-04-12T08:45:35.987Z</time></trkpt><trkpt lat="44.9106537" lon="13.8383119"><ele>23.599999999999998</ele><time>2026-04-12T08:45:36.99Z</time></trkpt><trkpt lat="44.9107502" lon="13.8382706"><ele>23.0</ele><time>2026-04-12T08:45:37.996Z</time></trkpt><trkpt lat="44.9108473" lon="13.8382299"><ele>23.0</ele><time>2026-04-12T08:45:38.986Z</time></trkpt><trkpt lat="44.9109403" lon="13.8381866"><ele>23.0</ele><time>2026-04-12T08:45:39.988Z</time></trkpt><trkpt lat="44.9110334" lon="13.8381466"><ele>23.0</ele><time>2026-04-12T08:45:40.992Z</time></trkpt><trkpt lat="44.9111293" lon="13.8380992"><ele>23.0</ele><time>2026-04-12T08:45:41.988Z</time></trkpt><trkpt lat="44.9112325" lon="13.8380422"><ele>23.0</ele><time>2026-04-12T08:45:42.987Z</time></trkpt><trkpt lat="44.9113366" lon="13.8379862"><ele>23.0</ele><time>2026-04-12T08:45:43.992Z</time></trkpt><trkpt lat="44.9114379" lon="13.8379324"><ele>23.0</ele><time>2026-04-12T08:45:44.986Z</time></trkpt><trkpt lat="44.9115458" lon="13.8378556"><ele>23.0</ele><time>2026-04-12T08:45:45.989Z</time></trkpt><trkpt lat="44.9116383" lon="13.8377904"><ele>23.0</ele><time>2026-04-12T08:45:46.994Z</time></trkpt><trkpt lat="44.9117359" lon="13.837716"><ele>23.0</ele><time>2026-04-12T08:45:47.995Z</time></trkpt><trkpt lat="44.911832" lon="13.8376329"><ele>23.5</ele><time>2026-04-12T08:45:48.994Z</time></trkpt><trkpt lat="44.9119366" lon="13.8375562"><ele>24.0</ele><time>2026-04-12T08:45:49.988Z</time></trkpt><trkpt lat="44.9120387" lon="13.8374823"><ele>24.5</ele><time>2026-04-12T08:45:50.988Z</time></trkpt><trkpt lat="44.9121461" lon="13.8374187"><ele>25.0</ele><time>2026-04-12T08:45:51.986Z</time></trkpt><trkpt lat="44.912256" lon="13.8373568"><ele>25.0</ele><time>2026-04-12T08:45:52.99Z</time></trkpt><trkpt lat="44.9123754" lon="13.8372971"><ele>25.0</ele><time>2026-04-12T08:45:53.994Z</time></trkpt><trkpt lat="44.9124888" lon="13.8372364"><ele>25.0</ele><time>2026-04-12T08:45:54.993Z</time></trkpt><trkpt lat="44.9126045" lon="13.8371865"><ele>25.0</ele><time>2026-04-12T08:45:55.993Z</time></trkpt><trkpt lat="44.9127098" lon="13.837134"><ele>25.75</ele><time>2026-04-12T08:45:56.996Z</time></trkpt><trkpt lat="44.9128314" lon="13.8370765"><ele>26.5</ele><time>2026-04-12T08:45:57.998Z</time></trkpt><trkpt lat="44.9129428" lon="13.8370213"><ele>27.25</ele><time>2026-04-12T08:45:58.991Z</time></trkpt><trkpt lat="44.9130516" lon="13.8369627"><ele>28.0</ele><time>2026-04-12T08:45:59.989Z</time></trkpt><trkpt lat="44.9131573" lon="13.8368885"><ele>28.0</ele><time>2026-04-12T08:46:00.997Z</time></trkpt><trkpt lat="44.9132601" lon="13.8368117"><ele>28.0</ele><time>2026-04-12T08:46:01.992Z</time></trkpt><trkpt lat="44.913364" lon="13.8367337"><ele>28.0</ele><time>2026-04-12T08:46:02.993Z</time></trkpt><trkpt lat="44.9134652" lon="13.8366523"><ele>28.0</ele><time>2026-04-12T08:46:03.99Z</time></trkpt><trkpt lat="44.9135618" lon="13.8365797"><ele>28.25</ele><time>2026-04-12T08:46:04.987Z</time></trkpt><trkpt lat="44.9136573" lon="13.8364937"><ele>28.5</ele><time>2026-04-12T08:46:05.99Z</time></trkpt><trkpt lat="44.9137613" lon="13.836427"><ele>28.75</ele><time>2026-04-12T08:46:06.989Z</time></trkpt><trkpt lat="44.9138664" lon="13.8363587"><ele>29.0</ele><time>2026-04-12T08:46:08Z</time></trkpt><trkpt lat="44.9139731" lon="13.8362811"><ele>29.0</ele><time>2026-04-12T08:46:09Z</time></trkpt><trkpt lat="44.914074" lon="13.8362054"><ele>29.0</ele><time>2026-04-12T08:46:09.993Z</time></trkpt><trkpt lat="44.9141594" lon="13.8361429"><ele>29.0</ele><time>2026-04-12T08:46:10.989Z</time></trkpt><trkpt lat="44.9142368" lon="13.8360788"><ele>29.0</ele><time>2026-04-12T08:46:12.001Z</time></trkpt><trkpt lat="44.9143071" lon="13.8360282"><ele>29.0</ele><time>2026-04-12T08:46:12.991Z</time></trkpt><trkpt lat="44.9143866" lon="13.8359825"><ele>29.166666666666664</ele><time>2026-04-12T08:46:14.996Z</time></trkpt><trkpt lat="44.9144615" lon="13.8359986"><ele>29.333333333333332</ele><time>2026-04-12T08:46:16.989Z</time></trkpt><trkpt lat="44.9145272" lon="13.8361307"><ele>29.5</ele><time>2026-04-12T08:46:18.997Z</time></trkpt><trkpt lat="44.9145625" lon="13.8362245"><ele>29.666666666666664</ele><time>2026-04-12T08:46:19.993Z</time></trkpt><trkpt lat="44.9145925" lon="13.8363165"><ele>29.833333333333332</ele><time>2026-04-12T08:46:20.987Z</time></trkpt><trkpt lat="44.9146186" lon="13.8364018"><ele>30.0</ele><time>2026-04-12T08:46:21.994Z</time></trkpt><trkpt lat="44.9146486" lon="13.836484"><ele>30.0</ele><time>2026-04-12T08:46:22.991Z</time></trkpt><trkpt lat="44.9146906" lon="13.8366164"><ele>30.0</ele><time>2026-04-12T08:46:24.998Z</time></trkpt><trkpt lat="44.9147554" lon="13.836743"><ele>30.0</ele><time>2026-04-12T08:46:26.993Z</time></trkpt><trkpt lat="44.9148103" lon="13.8368438"><ele>30.0</ele><time>2026-04-12T08:46:28.996Z</time></trkpt><trkpt lat="44.9148578" lon="13.836907"><ele>30.0</ele><time>2026-04-12T08:46:31.994Z</time></trkpt><trkpt lat="44.9148475" lon="13.8368123"><ele>30.0</ele><time>2026-04-12T08:46:35.994Z</time></trkpt><trkpt lat="44.9147987" lon="13.8367495"><ele>30.0</ele><time>2026-04-12T08:46:38.989Z</time></trkpt><trkpt lat="44.9147059" lon="13.8365283"><ele>30.0</ele><time>2026-04-12T08:46:39.991Z</time></trkpt><trkpt lat="44.9146548" lon="13.8363841"><ele>30.0</ele><time>2026-04-12T08:46:40.988Z</time></trkpt><trkpt lat="44.9145735" lon="13.8362129"><ele>30.0</ele><time>2026-04-12T08:46:41.991Z</time></trkpt><trkpt lat="44.9145298" lon="13.8361107"><ele>30.0</ele><time>2026-04-12T08:46:42.987Z</time></trkpt><trkpt lat="44.9145009" lon="13.8359754"><ele>30.0</ele><time>2026-04-12T08:46:44.991Z</time></trkpt><trkpt lat="44.9145395" lon="13.8358829"><ele>30.0</ele><time>2026-04-12T08:46:46.99Z</time></trkpt><trkpt lat="44.9146222" lon="13.8358564"><ele>30.0</ele><time>2026-04-12T08:46:48.994Z</time></trkpt><trkpt lat="44.9147657" lon="13.8358834"><ele>30.0</ele><time>2026-04-12T08:46:50.997Z</time></trkpt><trkpt lat="44.9148541" lon="13.8359163"><ele>30.0</ele><time>2026-04-12T08:46:51.997Z</time></trkpt><trkpt lat="44.9149516" lon="13.8359458"><ele>30.0</ele><time>2026-04-12T08:46:52.992Z</time></trkpt><trkpt lat="44.9150545" lon="13.8359776"><ele>30.0</ele><time>2026-04-12T08:46:53.996Z</time></trkpt><trkpt lat="44.9151607" lon="13.8360138"><ele>30.0</ele><time>2026-04-12T08:46:54.989Z</time></trkpt><trkpt lat="44.9152639" lon="13.8360518"><ele>30.0</ele><time>2026-04-12T08:46:55.989Z</time></trkpt><trkpt lat="44.91537" lon="13.8360956"><ele>30.0</ele><time>2026-04-12T08:46:56.99Z</time></trkpt><trkpt lat="44.9154747" lon="13.8361307"><ele>30.0</ele><time>2026-04-12T08:46:57.988Z</time></trkpt><trkpt lat="44.915578" lon="13.8361727"><ele>30.0</ele><time>2026-04-12T08:46:58.987Z</time></trkpt><trkpt lat="44.9156808" lon="13.8362126"><ele>30.0</ele><time>2026-04-12T08:46:59.99Z</time></trkpt><trkpt lat="44.915778" lon="13.8362451"><ele>30.0</ele><time>2026-04-12T08:47:00.994Z</time></trkpt><trkpt lat="44.9158815" lon="13.8362808"><ele>29.2</ele><time>2026-04-12T08:47:01.992Z</time></trkpt><trkpt lat="44.9159836" lon="13.8363199"><ele>28.4</ele><time>2026-04-12T08:47:02.996Z</time></trkpt><trkpt lat="44.9160847" lon="13.8363641"><ele>27.6</ele><time>2026-04-12T08:47:03.991Z</time></trkpt><trkpt lat="44.9161835" lon="13.8364091"><ele>26.8</ele><time>2026-04-12T08:47:04.988Z</time></trkpt><trkpt lat="44.9162824" lon="13.8364556"><ele>26.0</ele><time>2026-04-12T08:47:05.992Z</time></trkpt><trkpt lat="44.9163828" lon="13.8365016"><ele>26.0</ele><time>2026-04-12T08:47:06.987Z</time></trkpt><trkpt lat="44.9164781" lon="13.8365546"><ele>26.0</ele><time>2026-04-12T08:47:07.989Z</time></trkpt><trkpt lat="44.9165758" lon="13.8366095"><ele>26.0</ele><time>2026-04-12T08:47:08.991Z</time></trkpt><trkpt lat="44.9166687" lon="13.8366593"><ele>26.0</ele><time>2026-04-12T08:47:09.997Z</time></trkpt><trkpt lat="44.9167609" lon="13.8367047"><ele>26.0</ele><time>2026-04-12T08:47:10.987Z</time></trkpt><trkpt lat="44.9168572" lon="13.8367443"><ele>26.0</ele><time>2026-04-12T08:47:11.987Z</time></trkpt><trkpt lat="44.9169513" lon="13.836779"><ele>26.0</ele><time>2026-04-12T08:47:12.99Z</time></trkpt><trkpt lat="44.9170402" lon="13.8368213"><ele>26.0</ele><time>2026-04-12T08:47:13.991Z</time></trkpt><trkpt lat="44.9171222" lon="13.8368609"><ele>26.0</ele><time>2026-04-12T08:47:14.987Z</time></trkpt><trkpt lat="44.9172104" lon="13.8369056"><ele>26.0</ele><time>2026-04-12T08:47:15.984Z</time></trkpt><trkpt lat="44.9172968" lon="13.8369493"><ele>25.999999999999996</ele><time>2026-04-12T08:47:16.987Z</time></trkpt><trkpt lat="44.9173861" lon="13.8369924"><ele>26.0</ele><time>2026-04-12T08:47:17.987Z</time></trkpt><trkpt lat="44.9174649" lon="13.8370288"><ele>26.0</ele><time>2026-04-12T08:47:18.988Z</time></trkpt><trkpt lat="44.9175432" lon="13.8370588"><ele>26.0</ele><time>2026-04-12T08:47:19.991Z</time></trkpt><trkpt lat="44.9176075" lon="13.8370872"><ele>25.999999999999996</ele><time>2026-04-12T08:47:20.989Z</time></trkpt><trkpt lat="44.9176736" lon="13.8371141"><ele>26.0</ele><time>2026-04-12T08:47:21.991Z</time></trkpt><trkpt lat="44.9177346" lon="13.8371439"><ele>25.999999999999996</ele><time>2026-04-12T08:47:22.994Z</time></trkpt><trkpt lat="44.9178506" lon="13.8371948"><ele>26.0</ele><time>2026-04-12T08:47:24.989Z</time></trkpt><trkpt lat="44.917913" lon="13.8372286"><ele>26.0</ele><time>2026-04-12T08:47:25.989Z</time></trkpt><trkpt lat="44.9179832" lon="13.8372588"><ele>26.0</ele><time>2026-04-12T08:47:26.989Z</time></trkpt><trkpt lat="44.9180555" lon="13.8372864"><ele>25.999999999999996</ele><time>2026-04-12T08:47:27.991Z</time></trkpt><trkpt lat="44.918127" lon="13.8373096"><ele>26.0</ele><time>2026-04-12T08:47:28.995Z</time></trkpt><trkpt lat="44.9181958" lon="13.8373393"><ele>25.999999999999996</ele><time>2026-04-12T08:47:29.992Z</time></trkpt><trkpt lat="44.9182651" lon="13.8373613"><ele>26.0</ele><time>2026-04-12T08:47:30.991Z</time></trkpt><trkpt lat="44.9183408" lon="13.8373958"><ele>26.0</ele><time>2026-04-12T08:47:31.992Z</time></trkpt><trkpt lat="44.9184169" lon="13.8374346"><ele>26.0</ele><time>2026-04-12T08:47:32.989Z</time></trkpt><trkpt lat="44.9184936" lon="13.8374739"><ele>25.999999999999996</ele><time>2026-04-12T08:47:33.992Z</time></trkpt><trkpt lat="44.9185756" lon="13.8375163"><ele>26.0</ele><time>2026-04-12T08:47:34.989Z</time></trkpt><trkpt lat="44.9186597" lon="13.837553"><ele>25.999999999999996</ele><time>2026-04-12T08:47:35.988Z</time></trkpt><trkpt lat="44.91874" lon="13.837588"><ele>26.0</ele><time>2026-04-12T08:47:36.99Z</time></trkpt><trkpt lat="44.9188206" lon="13.8376234"><ele>26.0</ele><time>2026-04-12T08:47:37.985Z</time></trkpt><trkpt lat="44.9189044" lon="13.8376581"><ele>26.0</ele><time>2026-04-12T08:47:38.989Z</time></trkpt><trkpt lat="44.9189855" lon="13.8376977"><ele>25.999999999999996</ele><time>2026-04-12T08:47:39.988Z</time></trkpt><trkpt lat="44.9190682" lon="13.8377343"><ele>26.0</ele><time>2026-04-12T08:47:40.999Z</time></trkpt><trkpt lat="44.9191411" lon="13.8377772"><ele>26.333333333333332</ele><time>2026-04-12T08:47:41.989Z</time></trkpt><trkpt lat="44.9191981" lon="13.8378163"><ele>26.666666666666664</ele><time>2026-04-12T08:47:42.992Z</time></trkpt><trkpt lat="44.9192844" lon="13.8379515"><ele>27.0</ele><time>2026-04-12T08:47:44.992Z</time></trkpt><trkpt lat="44.9193168" lon="13.8380455"><ele>27.333333333333336</ele><time>2026-04-12T08:47:45.99Z</time></trkpt><trkpt lat="44.9193577" lon="13.838138"><ele>27.666666666666668</ele><time>2026-04-12T08:47:46.99Z</time></trkpt><trkpt lat="44.9194097" lon="13.8382177"><ele>28.0</ele><time>2026-04-12T08:47:47.99Z</time></trkpt><trkpt lat="44.9194687" lon="13.8382882"><ele>28.000000000000004</ele><time>2026-04-12T08:47:48.986Z</time></trkpt><trkpt lat="44.919512" lon="13.8383642"><ele>28.0</ele><time>2026-04-12T08:47:49.993Z</time></trkpt><trkpt lat="44.9195769" lon="13.8384575"><ele>28.0</ele><time>2026-04-12T08:47:51.986Z</time></trkpt><trkpt lat="44.9196475" lon="13.8384372"><ele>28.0</ele><time>2026-04-12T08:47:53.995Z</time></trkpt><trkpt lat="44.9197189" lon="13.8383179"><ele>28.000000000000004</ele><time>2026-04-12T08:47:55.994Z</time></trkpt><trkpt lat="44.9197855" lon="13.8382229"><ele>28.0</ele><time>2026-04-12T08:47:57.988Z</time></trkpt><trkpt lat="44.919872" lon="13.8382393"><ele>28.000000000000004</ele><time>2026-04-12T08:47:59.986Z</time></trkpt><trkpt lat="44.9199342" lon="13.8382874"><ele>28.0</ele><time>2026-04-12T08:48:00.993Z</time></trkpt><trkpt lat="44.9200079" lon="13.838344"><ele>28.0</ele><time>2026-04-12T08:48:01.997Z</time></trkpt><trkpt lat="44.9200875" lon="13.8383834"><ele>28.0</ele><time>2026-04-12T08:48:02.992Z</time></trkpt><trkpt lat="44.9201715" lon="13.8384173"><ele>28.000000000000004</ele><time>2026-04-12T08:48:03.992Z</time></trkpt><trkpt lat="44.9202536" lon="13.838448"><ele>28.0</ele><time>2026-04-12T08:48:04.991Z</time></trkpt><trkpt lat="44.9203338" lon="13.8384705"><ele>27.333333333333336</ele><time>2026-04-12T08:48:05.988Z</time></trkpt><trkpt lat="44.9203971" lon="13.8384807"><ele>26.666666666666668</ele><time>2026-04-12T08:48:06.989Z</time></trkpt><trkpt lat="44.9205217" lon="13.838444"><ele>26.0</ele><time>2026-04-12T08:48:08.998Z</time></trkpt><trkpt lat="44.920587" lon="13.8384307"><ele>25.333333333333336</ele><time>2026-04-12T08:48:09.994Z</time></trkpt><trkpt lat="44.9206547" lon="13.8384434"><ele>24.666666666666668</ele><time>2026-04-12T08:48:10.99Z</time></trkpt><trkpt lat="44.9207294" lon="13.8384704"><ele>24.0</ele><time>2026-04-12T08:48:11.989Z</time></trkpt><trkpt lat="44.9208013" lon="13.8384895"><ele>23.666666666666668</ele><time>2026-04-12T08:48:12.995Z</time></trkpt><trkpt lat="44.9208808" lon="13.8385122"><ele>23.333333333333332</ele><time>2026-04-12T08:48:13.994Z</time></trkpt><trkpt lat="44.9209563" lon="13.8385409"><ele>23.0</ele><time>2026-04-12T08:48:15.005Z</time></trkpt><trkpt lat="44.9210325" lon="13.8385864"><ele>22.666666666666664</ele><time>2026-04-12T08:48:15.989Z</time></trkpt><trkpt lat="44.9211039" lon="13.8386401"><ele>22.333333333333332</ele><time>2026-04-12T08:48:16.989Z</time></trkpt><trkpt lat="44.9211732" lon="13.8386756"><ele>22.0</ele><time>2026-04-12T08:48:17.992Z</time></trkpt><trkpt lat="44.9212483" lon="13.8386781"><ele>22.666666666666664</ele><time>2026-04-12T08:48:18.99Z</time></trkpt><trkpt lat="44.9213235" lon="13.8386665"><ele>23.333333333333332</ele><time>2026-04-12T08:48:19.988Z</time></trkpt><trkpt lat="44.9213898" lon="13.8386582"><ele>24.0</ele><time>2026-04-12T08:48:20.989Z</time></trkpt><trkpt lat="44.9214832" lon="13.8386427"><ele>24.666666666666664</ele><time>2026-04-12T08:48:22.992Z</time></trkpt><trkpt lat="44.9215337" lon="13.8385655"><ele>25.333333333333332</ele><time>2026-04-12T08:48:25.991Z</time></trkpt><trkpt lat="44.9215087" lon="13.8384433"><ele>26.0</ele><time>2026-04-12T08:48:27.99Z</time></trkpt><trkpt lat="44.9214793" lon="13.8383602"><ele>26.166666666666664</ele><time>2026-04-12T08:48:28.988Z</time></trkpt><trkpt lat="44.9214515" lon="13.8382603"><ele>26.333333333333332</ele><time>2026-04-12T08:48:29.988Z</time></trkpt><trkpt lat="44.9214238" lon="13.8381523"><ele>26.5</ele><time>2026-04-12T08:48:30.989Z</time></trkpt><trkpt lat="44.921393" lon="13.8380405"><ele>26.666666666666664</ele><time>2026-04-12T08:48:31.992Z</time></trkpt><trkpt lat="44.9213615" lon="13.8379321"><ele>26.833333333333332</ele><time>2026-04-12T08:48:32.99Z</time></trkpt><trkpt lat="44.9213341" lon="13.8378293"><ele>27.0</ele><time>2026-04-12T08:48:33.993Z</time></trkpt><trkpt lat="44.921312" lon="13.8377344"><ele>26.714285714285715</ele><time>2026-04-12T08:48:34.988Z</time></trkpt><trkpt lat="44.9212964" lon="13.8376306"><ele>26.428571428571427</ele><time>2026-04-12T08:48:35.989Z</time></trkpt><trkpt lat="44.9212901" lon="13.8375181"><ele>26.142857142857146</ele><time>2026-04-12T08:48:36.995Z</time></trkpt><trkpt lat="44.9212805" lon="13.8374056"><ele>25.857142857142858</ele><time>2026-04-12T08:48:37.991Z</time></trkpt><trkpt lat="44.9212662" lon="13.8373004"><ele>25.571428571428573</ele><time>2026-04-12T08:48:38.988Z</time></trkpt><trkpt lat="44.9212595" lon="13.8372028"><ele>25.28571428571429</ele><time>2026-04-12T08:48:39.986Z</time></trkpt><trkpt lat="44.9212667" lon="13.8371077"><ele>25.0</ele><time>2026-04-12T08:48:40.992Z</time></trkpt><trkpt lat="44.9212925" lon="13.8370006"><ele>25.0</ele><time>2026-04-12T08:48:42.002Z</time></trkpt><trkpt lat="44.9213251" lon="13.836889"><ele>25.0</ele><time>2026-04-12T08:48:42.99Z</time></trkpt><trkpt lat="44.9213524" lon="13.8367828"><ele>25.0</ele><time>2026-04-12T08:48:43.994Z</time></trkpt><trkpt lat="44.9213749" lon="13.8366932"><ele>25.0</ele><time>2026-04-12T08:48:44.988Z</time></trkpt><trkpt lat="44.9214142" lon="13.8365312"><ele>25.0</ele><time>2026-04-12T08:48:46.997Z</time></trkpt><trkpt lat="44.9214188" lon="13.8363778"><ele>24.666666666666668</ele><time>2026-04-12T08:48:48.994Z</time></trkpt><trkpt lat="44.9213867" lon="13.8362442"><ele>24.333333333333336</ele><time>2026-04-12T08:48:50.995Z</time></trkpt><trkpt lat="44.9213386" lon="13.8361691"><ele>24.0</ele><time>2026-04-12T08:48:53.013Z</time></trkpt><trkpt lat="44.9212716" lon="13.8361104"><ele>23.666666666666668</ele><time>2026-04-12T08:48:54.991Z</time></trkpt><trkpt lat="44.9212049" lon="13.8360756"><ele>23.333333333333336</ele><time>2026-04-12T08:48:57.997Z</time></trkpt><trkpt lat="44.9211107" lon="13.8360204"><ele>23.0</ele><time>2026-04-12T08:48:59.987Z</time></trkpt><trkpt lat="44.9209879" lon="13.8359613"><ele>23.0</ele><time>2026-04-12T08:49:00.986Z</time></trkpt><trkpt lat="44.9209131" lon="13.8359175"><ele>23.0</ele><time>2026-04-12T08:49:03.165Z</time></trkpt><trkpt lat="44.9208107" lon="13.83584"><ele>23.0</ele><time>2026-04-12T08:49:04.999Z</time></trkpt><trkpt lat="44.9207463" lon="13.8357909"><ele>23.0</ele><time>2026-04-12T08:49:06.991Z</time></trkpt><trkpt lat="44.9206855" lon="13.835739"><ele>23.0</ele><time>2026-04-12T08:49:09.987Z</time></trkpt><trkpt lat="44.920605" lon="13.835674"><ele>23.0</ele><time>2026-04-12T08:49:12.991Z</time></trkpt><trkpt lat="44.9205334" lon="13.8355967"><ele>23.0</ele><time>2026-04-12T08:49:15.992Z</time></trkpt><trkpt lat="44.9205737" lon="13.8356759"><ele>23.0</ele><time>2026-04-12T08:49:47.99Z</time></trkpt><trkpt lat="44.9206463" lon="13.8357016"><ele>23.0</ele><time>2026-04-12T08:49:51.991Z</time></trkpt><trkpt lat="44.9207181" lon="13.8357496"><ele>23.0</ele><time>2026-04-12T08:49:54.993Z</time></trkpt><trkpt lat="44.9207761" lon="13.8357923"><ele>23.0</ele><time>2026-04-12T08:49:56.992Z</time></trkpt><trkpt lat="44.9208368" lon="13.8358418"><ele>23.0</ele><time>2026-04-12T08:49:58.988Z</time></trkpt><trkpt lat="44.9209129" lon="13.8358899"><ele>23.0</ele><time>2026-04-12T08:50:00.985Z</time></trkpt><trkpt lat="44.9209955" lon="13.8359516"><ele>23.0</ele><time>2026-04-12T08:50:02.99Z</time></trkpt><trkpt lat="44.9210862" lon="13.836024"><ele>23.0</ele><time>2026-04-12T08:50:04.988Z</time></trkpt><trkpt lat="44.9212666" lon="13.8361567"><ele>23.0</ele><time>2026-04-12T08:50:05.987Z</time></trkpt><trkpt lat="44.9213262" lon="13.8362383"><ele>23.0</ele><time>2026-04-12T08:50:07.988Z</time></trkpt><trkpt lat="44.9213596" lon="13.8363317"><ele>23.0</ele><time>2026-04-12T08:50:09.987Z</time></trkpt><trkpt lat="44.9213845" lon="13.8364291"><ele>23.0</ele><time>2026-04-12T08:50:11.986Z</time></trkpt><trkpt lat="44.9214195" lon="13.8365133"><ele>23.0</ele><time>2026-04-12T08:50:17.987Z</time></trkpt><trkpt lat="44.9214268" lon="13.836605"><ele>23.0</ele><time>2026-04-12T08:50:18.995Z</time></trkpt><trkpt lat="44.92151" lon="13.8366265"><ele>23.0</ele><time>2026-04-12T08:50:21.994Z</time></trkpt><trkpt lat="44.9215759" lon="13.8366401"><ele>23.0</ele><time>2026-04-12T08:50:23.988Z</time></trkpt><trkpt lat="44.9216448" lon="13.8366656"><ele>23.0</ele><time>2026-04-12T08:50:25.991Z</time></trkpt><trkpt lat="44.9216924" lon="13.836725"><ele>23.333333333333336</ele><time>2026-04-12T08:50:27.987Z</time></trkpt><trkpt lat="44.9217055" lon="13.8368168"><ele>23.666666666666668</ele><time>2026-04-12T08:50:29.988Z</time></trkpt><trkpt lat="44.9217282" lon="13.8369221"><ele>24.0</ele><time>2026-04-12T08:50:31.986Z</time></trkpt><trkpt lat="44.9217305" lon="13.8370222"><ele>24.333333333333336</ele><time>2026-04-12T08:50:33.952Z</time></trkpt><trkpt lat="44.9216542" lon="13.8370612"><ele>24.666666666666668</ele><time>2026-04-12T08:50:35.991Z</time></trkpt><trkpt lat="44.9215996" lon="13.8369744"><ele>25.0</ele><time>2026-04-12T08:50:36.991Z</time></trkpt><trkpt lat="44.9215607" lon="13.8368396"><ele>24.666666666666668</ele><time>2026-04-12T08:50:38.991Z</time></trkpt><trkpt lat="44.9215557" lon="13.8367176"><ele>24.333333333333336</ele><time>2026-04-12T08:50:40.991Z</time></trkpt><trkpt lat="44.9215325" lon="13.836621"><ele>24.0</ele><time>2026-04-12T08:50:54.986Z</time></trkpt><trkpt lat="44.9215628" lon="13.8365148"><ele>23.666666666666668</ele><time>2026-04-12T08:51:06.99Z</time></trkpt><trkpt lat="44.9216288" lon="13.8364168"><ele>23.333333333333336</ele><time>2026-04-12T08:51:09.99Z</time></trkpt><trkpt lat="44.9216897" lon="13.8363446"><ele>23.0</ele><time>2026-04-12T08:51:12.99Z</time></trkpt><trkpt lat="44.9217539" lon="13.8363987"><ele>23.0</ele><time>2026-04-12T08:51:59.989Z</time></trkpt><trkpt lat="44.9216893" lon="13.8364855"><ele>23.0</ele><time>2026-04-12T08:52:02.986Z</time></trkpt><trkpt lat="44.9216184" lon="13.8365038"><ele>23.0</ele><time>2026-04-12T08:52:04.986Z</time></trkpt><trkpt lat="44.9215471" lon="13.8365785"><ele>23.0</ele><time>2026-04-12T08:52:07.999Z</time></trkpt><trkpt lat="44.9214701" lon="13.83656"><ele>23.0</ele><time>2026-04-12T08:52:11.99Z</time></trkpt><trkpt lat="44.9214155" lon="13.8365115"><ele>23.0</ele><time>2026-04-12T08:52:14.985Z</time></trkpt><trkpt lat="44.9213849" lon="13.8364069"><ele>23.0</ele><time>2026-04-12T08:53:07.987Z</time></trkpt><trkpt lat="44.9213662" lon="13.8363091"><ele>23.0</ele><time>2026-04-12T08:53:09.989Z</time></trkpt><trkpt lat="44.9213176" lon="13.8361975"><ele>23.0</ele><time>2026-04-12T08:53:11.994Z</time></trkpt><trkpt lat="44.9212534" lon="13.8361584"><ele>23.0</ele><time>2026-04-12T08:53:12.987Z</time></trkpt><trkpt lat="44.9211536" lon="13.836067"><ele>23.0</ele><time>2026-04-12T08:53:14.988Z</time></trkpt><trkpt lat="44.9210498" lon="13.8359924"><ele>23.0</ele><time>2026-04-12T08:53:16.989Z</time></trkpt><trkpt lat="44.9209502" lon="13.8359527"><ele>23.0</ele><time>2026-04-12T08:53:18.992Z</time></trkpt><trkpt lat="44.9208354" lon="13.8358738"><ele>23.0</ele><time>2026-04-12T08:53:21.002Z</time></trkpt><trkpt lat="44.9207765" lon="13.8358212"><ele>23.0</ele><time>2026-04-12T08:53:21.999Z</time></trkpt><trkpt lat="44.9207208" lon="13.8357736"><ele>23.0</ele><time>2026-04-12T08:53:22.99Z</time></trkpt><trkpt lat="44.920617" lon="13.8356912"><ele>23.2</ele><time>2026-04-12T08:53:24.992Z</time></trkpt><trkpt lat="44.9205333" lon="13.8356167"><ele>23.4</ele><time>2026-04-12T08:53:26.99Z</time></trkpt><trkpt lat="44.9204917" lon="13.8354944"><ele>23.599999999999998</ele><time>2026-04-12T08:53:28.991Z</time></trkpt><trkpt lat="44.9204688" lon="13.8353509"><ele>23.799999999999997</ele><time>2026-04-12T08:53:30.991Z</time></trkpt><trkpt lat="44.9204364" lon="13.8351927"><ele>24.0</ele><time>2026-04-12T08:53:32.99Z</time></trkpt><trkpt lat="44.9204033" lon="13.8350524"><ele>23.666666666666668</ele><time>2026-04-12T08:53:34.999Z</time></trkpt><trkpt lat="44.9203682" lon="13.8349479"><ele>23.333333333333332</ele><time>2026-04-12T08:53:36.99Z</time></trkpt><trkpt lat="44.920307" lon="13.8348679"><ele>23.0</ele><time>2026-04-12T08:53:40.005Z</time></trkpt><trkpt lat="44.9203283" lon="13.8347732"><ele>22.666666666666664</ele><time>2026-04-12T08:53:42.99Z</time></trkpt><trkpt lat="44.9204088" lon="13.8347677"><ele>22.333333333333332</ele><time>2026-04-12T08:53:50.998Z</time></trkpt><trkpt lat="44.9204768" lon="13.8347496"><ele>22.0</ele><time>2026-04-12T08:53:53.993Z</time></trkpt><trkpt lat="44.9205356" lon="13.8347052"><ele>22.0</ele><time>2026-04-12T08:53:56.991Z</time></trkpt><trkpt lat="44.92075" lon="13.8345925"><ele>22.0</ele><time>2026-04-12T08:53:58.992Z</time></trkpt><trkpt lat="44.9208535" lon="13.8345573"><ele>22.0</ele><time>2026-04-12T08:54:00.989Z</time></trkpt><trkpt lat="44.9209479" lon="13.8345265"><ele>22.0</ele><time>2026-04-12T08:54:02.995Z</time></trkpt><trkpt lat="44.9210245" lon="13.8345061"><ele>22.0</ele><time>2026-04-12T08:54:04.996Z</time></trkpt><trkpt lat="44.9211005" lon="13.8344879"><ele>22.0</ele><time>2026-04-12T08:54:06.997Z</time></trkpt><trkpt lat="44.9211722" lon="13.8344956"><ele>22.0</ele><time>2026-04-12T08:54:15.989Z</time></trkpt><trkpt lat="44.921103" lon="13.8345249"><ele>22.0</ele><time>2026-04-12T08:54:31.003Z</time></trkpt><trkpt lat="44.9210189" lon="13.8345402"><ele>22.0</ele><time>2026-04-12T08:54:34.99Z</time></trkpt><trkpt lat="44.9209216" lon="13.8345659"><ele>22.0</ele><time>2026-04-12T08:54:37.992Z</time></trkpt><trkpt lat="44.9208359" lon="13.8345928"><ele>22.0</ele><time>2026-04-12T08:54:39.996Z</time></trkpt><trkpt lat="44.9207448" lon="13.8346286"><ele>22.0</ele><time>2026-04-12T08:54:41.986Z</time></trkpt><trkpt lat="44.9205747" lon="13.8347058"><ele>22.0</ele><time>2026-04-12T08:54:42.993Z</time></trkpt><trkpt lat="44.9204965" lon="13.8347448"><ele>22.0</ele><time>2026-04-12T08:54:43.988Z</time></trkpt><trkpt lat="44.9204183" lon="13.834795"><ele>22.0</ele><time>2026-04-12T08:54:45.984Z</time></trkpt><trkpt lat="44.9203545" lon="13.8347808"><ele>22.0</ele><time>2026-04-12T08:54:49.001Z</time></trkpt><trkpt lat="44.9202839" lon="13.8348093"><ele>22.0</ele><time>2026-04-12T08:55:12.989Z</time></trkpt><trkpt lat="44.9202419" lon="13.8348848"><ele>22.0</ele><time>2026-04-12T08:55:15.99Z</time></trkpt><trkpt lat="44.9201753" lon="13.8349361"><ele>22.0</ele><time>2026-04-12T08:55:19.008Z</time></trkpt><trkpt lat="44.9201007" lon="13.8349708"><ele>22.0</ele><time>2026-04-12T08:55:20.996Z</time></trkpt><trkpt lat="44.9199903" lon="13.8350175"><ele>22.0</ele><time>2026-04-12T08:55:22.99Z</time></trkpt><trkpt lat="44.9199146" lon="13.8350487"><ele>22.0</ele><time>2026-04-12T08:55:23.993Z</time></trkpt><trkpt lat="44.919745" lon="13.8351291"><ele>22.0</ele><time>2026-04-12T08:55:24.991Z</time></trkpt><trkpt lat="44.9196443" lon="13.8351692"><ele>22.0</ele><time>2026-04-12T08:55:25.99Z</time></trkpt><trkpt lat="44.9195359" lon="13.8352124"><ele>22.0</ele><time>2026-04-12T08:55:27.986Z</time></trkpt><trkpt lat="44.9194518" lon="13.8352428"><ele>22.0</ele><time>2026-04-12T08:55:29.994Z</time></trkpt><trkpt lat="44.9193709" lon="13.8352067"><ele>22.0</ele><time>2026-04-12T08:55:53.994Z</time></trkpt><trkpt lat="44.9193623" lon="13.8351108"><ele>22.0</ele><time>2026-04-12T08:56:00.994Z</time></trkpt><trkpt lat="44.919356" lon="13.835021"><ele>22.0</ele><time>2026-04-12T08:56:02.999Z</time></trkpt><trkpt lat="44.9193258" lon="13.8349353"><ele>22.0</ele><time>2026-04-12T08:56:05.997Z</time></trkpt><trkpt lat="44.9193068" lon="13.8348238"><ele>22.0</ele><time>2026-04-12T08:56:08.991Z</time></trkpt><trkpt lat="44.9192926" lon="13.8347098"><ele>22.0</ele><time>2026-04-12T08:56:10.985Z</time></trkpt><trkpt lat="44.919276" lon="13.8346143"><ele>21.857142857142858</ele><time>2026-04-12T08:56:12.99Z</time></trkpt><trkpt lat="44.9192472" lon="13.8345096"><ele>21.714285714285715</ele><time>2026-04-12T08:56:15.99Z</time></trkpt><trkpt lat="44.9191869" lon="13.8344687"><ele>21.57142857142857</ele><time>2026-04-12T08:56:19.987Z</time></trkpt><trkpt lat="44.9191589" lon="13.8345658"><ele>21.42857142857143</ele><time>2026-04-12T08:56:24.018Z</time></trkpt><trkpt lat="44.919221" lon="13.8346042"><ele>21.285714285714285</ele><time>2026-04-12T08:56:27.986Z</time></trkpt><trkpt lat="44.9192842" lon="13.834584"><ele>21.142857142857142</ele><time>2026-04-12T08:56:30.988Z</time></trkpt><trkpt lat="44.9193196" lon="13.8346907"><ele>21.0</ele><time>2026-04-12T08:56:33.994Z</time></trkpt><trkpt lat="44.9193219" lon="13.8348165"><ele>21.0</ele><time>2026-04-12T08:56:35.987Z</time></trkpt><trkpt lat="44.919331" lon="13.8349335"><ele>21.0</ele><time>2026-04-12T08:56:37.989Z</time></trkpt><trkpt lat="44.9193618" lon="13.8350443"><ele>21.0</ele><time>2026-04-12T08:56:39.989Z</time></trkpt><trkpt lat="44.9193812" lon="13.8351512"><ele>21.0</ele><time>2026-04-12T08:56:42.986Z</time></trkpt><trkpt lat="44.9194193" lon="13.8352253"><ele>21.0</ele><time>2026-04-12T08:57:57.998Z</time></trkpt><trkpt lat="44.9194919" lon="13.8351957"><ele>21.0</ele><time>2026-04-12T08:58:00.993Z</time></trkpt><trkpt lat="44.9195815" lon="13.8351641"><ele>21.0</ele><time>2026-04-12T08:58:03.992Z</time></trkpt><trkpt lat="44.9196726" lon="13.8351332"><ele>21.0</ele><time>2026-04-12T08:58:05.986Z</time></trkpt><trkpt lat="44.9197784" lon="13.8350956"><ele>21.0</ele><time>2026-04-12T08:58:07.987Z</time></trkpt><trkpt lat="44.9199938" lon="13.8350163"><ele>21.0</ele><time>2026-04-12T08:58:08.99Z</time></trkpt><trkpt lat="44.9201109" lon="13.8349665"><ele>21.200000000000003</ele><time>2026-04-12T08:58:10.984Z</time></trkpt><trkpt lat="44.920224" lon="13.8349188"><ele>21.400000000000002</ele><time>2026-04-12T08:58:12.992Z</time></trkpt><trkpt lat="44.9203108" lon="13.8349005"><ele>21.6</ele><time>2026-04-12T08:58:14.99Z</time></trkpt><trkpt lat="44.920386" lon="13.8349585"><ele>21.8</ele><time>2026-04-12T08:58:16.989Z</time></trkpt><trkpt lat="44.9204116" lon="13.835048"><ele>22.0</ele><time>2026-04-12T08:58:19.987Z</time></trkpt><trkpt lat="44.9204447" lon="13.8351835"><ele>22.333333333333332</ele><time>2026-04-12T08:58:22.99Z</time></trkpt><trkpt lat="44.9204872" lon="13.8353572"><ele>22.666666666666664</ele><time>2026-04-12T08:58:24.99Z</time></trkpt><trkpt lat="44.9205128" lon="13.8354423"><ele>23.0</ele><time>2026-04-12T08:58:25.992Z</time></trkpt><trkpt lat="44.9205458" lon="13.8355205"><ele>23.333333333333332</ele><time>2026-04-12T08:58:26.991Z</time></trkpt><trkpt lat="44.9205889" lon="13.8355879"><ele>23.666666666666668</ele><time>2026-04-12T08:58:27.989Z</time></trkpt><trkpt lat="44.9206941" lon="13.8356637"><ele>24.0</ele><time>2026-04-12T08:58:28.996Z</time></trkpt><trkpt lat="44.9207575" lon="13.8357452"><ele>23.999999999999996</ele><time>2026-04-12T08:58:29.995Z</time></trkpt><trkpt lat="44.920818" lon="13.8357806"><ele>24.0</ele><time>2026-04-12T08:58:30.988Z</time></trkpt><trkpt lat="44.920874" lon="13.8358377"><ele>24.0</ele><time>2026-04-12T08:58:31.986Z</time></trkpt><trkpt lat="44.9209349" lon="13.835883"><ele>24.0</ele><time>2026-04-12T08:58:32.994Z</time></trkpt><trkpt lat="44.9209969" lon="13.8359192"><ele>24.0</ele><time>2026-04-12T08:58:33.99Z</time></trkpt><trkpt lat="44.9210578" lon="13.8359487"><ele>23.999999999999996</ele><time>2026-04-12T08:58:34.998Z</time></trkpt><trkpt lat="44.921121" lon="13.835973"><ele>24.0</ele><time>2026-04-12T08:58:35.995Z</time></trkpt><trkpt lat="44.9212275" lon="13.8360654"><ele>23.833333333333332</ele><time>2026-04-12T08:58:37.992Z</time></trkpt><trkpt lat="44.9213211" lon="13.8361406"><ele>23.666666666666668</ele><time>2026-04-12T08:58:39.986Z</time></trkpt><trkpt lat="44.9213902" lon="13.8362304"><ele>23.5</ele><time>2026-04-12T08:58:41.998Z</time></trkpt><trkpt lat="44.9214093" lon="13.8363383"><ele>23.333333333333336</ele><time>2026-04-12T08:58:43.988Z</time></trkpt><trkpt lat="44.9214133" lon="13.8364517"><ele>23.166666666666668</ele><time>2026-04-12T08:58:45.995Z</time></trkpt><trkpt lat="44.9214097" lon="13.8365652"><ele>23.0</ele><time>2026-04-12T08:58:47.988Z</time></trkpt><trkpt lat="44.9213829" lon="13.8366573"><ele>23.4</ele><time>2026-04-12T08:58:50.988Z</time></trkpt><trkpt lat="44.9213339" lon="13.8368218"><ele>23.799999999999997</ele><time>2026-04-12T08:58:52.997Z</time></trkpt><trkpt lat="44.9212893" lon="13.8370114"><ele>24.2</ele><time>2026-04-12T08:58:53.993Z</time></trkpt><trkpt lat="44.9212665" lon="13.837135"><ele>24.6</ele><time>2026-04-12T08:58:54.992Z</time></trkpt><trkpt lat="44.9212621" lon="13.8372364"><ele>25.0</ele><time>2026-04-12T08:58:55.987Z</time></trkpt><trkpt lat="44.9212703" lon="13.8373306"><ele>25.000000000000004</ele><time>2026-04-12T08:58:56.992Z</time></trkpt><trkpt lat="44.9212787" lon="13.8374265"><ele>25.0</ele><time>2026-04-12T08:58:57.991Z</time></trkpt><trkpt lat="44.9212857" lon="13.837527"><ele>25.0</ele><time>2026-04-12T08:58:58.988Z</time></trkpt><trkpt lat="44.9212961" lon="13.8377291"><ele>25.0</ele><time>2026-04-12T08:59:00.985Z</time></trkpt><trkpt lat="44.9213137" lon="13.8378234"><ele>25.000000000000004</ele><time>2026-04-12T08:59:01.986Z</time></trkpt><trkpt lat="44.9213457" lon="13.8379251"><ele>25.0</ele><time>2026-04-12T08:59:02.988Z</time></trkpt><trkpt lat="44.9213812" lon="13.8380414"><ele>25.166666666666668</ele><time>2026-04-12T08:59:03.992Z</time></trkpt><trkpt lat="44.9214172" lon="13.8381603"><ele>25.333333333333336</ele><time>2026-04-12T08:59:04.987Z</time></trkpt><trkpt lat="44.9214495" lon="13.8382771"><ele>25.5</ele><time>2026-04-12T08:59:05.987Z</time></trkpt><trkpt lat="44.9214796" lon="13.8383876"><ele>25.666666666666664</ele><time>2026-04-12T08:59:06.986Z</time></trkpt><trkpt lat="44.9215087" lon="13.8384854"><ele>25.833333333333332</ele><time>2026-04-12T08:59:07.995Z</time></trkpt><trkpt lat="44.9215552" lon="13.838613"><ele>26.0</ele><time>2026-04-12T08:59:09.991Z</time></trkpt><trkpt lat="44.921615" lon="13.83868"><ele>26.0</ele><time>2026-04-12T08:59:12.995Z</time></trkpt><trkpt lat="44.9216901" lon="13.8387052"><ele>26.0</ele><time>2026-04-12T08:59:15.984Z</time></trkpt><trkpt lat="44.9217509" lon="13.8387313"><ele>26.0</ele><time>2026-04-12T08:59:18.986Z</time></trkpt><trkpt lat="44.9218455" lon="13.838781"><ele>26.0</ele><time>2026-04-12T08:59:21.986Z</time></trkpt><trkpt lat="44.9219353" lon="13.8388498"><ele>26.0</ele><time>2026-04-12T08:59:23.993Z</time></trkpt><trkpt lat="44.9220257" lon="13.838944"><ele>26.666666666666664</ele><time>2026-04-12T08:59:25.995Z</time></trkpt><trkpt lat="44.922111" lon="13.8389818"><ele>27.333333333333332</ele><time>2026-04-12T08:59:27.988Z</time></trkpt><trkpt lat="44.9221374" lon="13.8388783"><ele>28.0</ele><time>2026-04-12T08:59:30.987Z</time></trkpt><trkpt lat="44.9220735" lon="13.8388407"><ele>28.666666666666664</ele><time>2026-04-12T08:59:32.99Z</time></trkpt><trkpt lat="44.9219893" lon="13.8388243"><ele>29.333333333333332</ele><time>2026-04-12T08:59:34.985Z</time></trkpt><trkpt lat="44.9218901" lon="13.838788"><ele>30.0</ele><time>2026-04-12T08:59:36.988Z</time></trkpt><trkpt lat="44.9218281" lon="13.8387649"><ele>30.0</ele><time>2026-04-12T08:59:37.987Z</time></trkpt><trkpt lat="44.9217622" lon="13.8387399"><ele>30.0</ele><time>2026-04-12T08:59:38.993Z</time></trkpt><trkpt lat="44.9216928" lon="13.8387158"><ele>30.0</ele><time>2026-04-12T08:59:39.987Z</time></trkpt><trkpt lat="44.9214769" lon="13.8386698"><ele>30.0</ele><time>2026-04-12T08:59:40.987Z</time></trkpt><trkpt lat="44.9214082" lon="13.8386709"><ele>30.0</ele><time>2026-04-12T08:59:41.981Z</time></trkpt><trkpt lat="44.9212884" lon="13.8386822"><ele>29.2</ele><time>2026-04-12T08:59:44.012Z</time></trkpt><trkpt lat="44.9211972" lon="13.8386851"><ele>28.4</ele><time>2026-04-12T08:59:45.998Z</time></trkpt><trkpt lat="44.921114" lon="13.8386659"><ele>27.6</ele><time>2026-04-12T08:59:47.99Z</time></trkpt><trkpt lat="44.9210242" lon="13.8385956"><ele>26.8</ele><time>2026-04-12T08:59:49.993Z</time></trkpt><trkpt lat="44.9208746" lon="13.8385187"><ele>26.0</ele><time>2026-04-12T08:59:52.991Z</time></trkpt><trkpt lat="44.9207524" lon="13.8384994"><ele>25.6</ele><time>2026-04-12T08:59:54.985Z</time></trkpt><trkpt lat="44.9206879" lon="13.8384751"><ele>25.200000000000003</ele><time>2026-04-12T08:59:55.987Z</time></trkpt><trkpt lat="44.9206271" lon="13.838445"><ele>24.799999999999997</ele><time>2026-04-12T08:59:56.99Z</time></trkpt><trkpt lat="44.9205095" lon="13.8384562"><ele>24.4</ele><time>2026-04-12T08:59:58.987Z</time></trkpt><trkpt lat="44.9204037" lon="13.8384954"><ele>24.0</ele><time>2026-04-12T09:00:00.992Z</time></trkpt><trkpt lat="44.9202814" lon="13.8384643"><ele>24.0</ele><time>2026-04-12T09:00:02.988Z</time></trkpt><trkpt lat="44.9201962" lon="13.8384419"><ele>24.0</ele><time>2026-04-12T09:00:03.993Z</time></trkpt><trkpt lat="44.9201221" lon="13.8384123"><ele>24.0</ele><time>2026-04-12T09:00:04.99Z</time></trkpt><trkpt lat="44.920047" lon="13.8383748"><ele>24.0</ele><time>2026-04-12T09:00:05.989Z</time></trkpt><trkpt lat="44.9199813" lon="13.8383351"><ele>24.0</ele><time>2026-04-12T09:00:06.995Z</time></trkpt><trkpt lat="44.9198734" lon="13.8382549"><ele>24.0</ele><time>2026-04-12T09:00:08.988Z</time></trkpt><trkpt lat="44.9197741" lon="13.8382341"><ele>24.799999999999997</ele><time>2026-04-12T09:00:10.984Z</time></trkpt><trkpt lat="44.9197119" lon="13.8383055"><ele>25.599999999999998</ele><time>2026-04-12T09:00:12.99Z</time></trkpt><trkpt lat="44.9196535" lon="13.8384365"><ele>26.4</ele><time>2026-04-12T09:00:14.996Z</time></trkpt><trkpt lat="44.9195809" lon="13.8384835"><ele>27.2</ele><time>2026-04-12T09:00:16.992Z</time></trkpt><trkpt lat="44.9195159" lon="13.8384092"><ele>28.0</ele><time>2026-04-12T09:00:18.987Z</time></trkpt><trkpt lat="44.919437" lon="13.8382605"><ele>28.000000000000004</ele><time>2026-04-12T09:00:21Z</time></trkpt><trkpt lat="44.919382" lon="13.8381839"><ele>28.0</ele><time>2026-04-12T09:00:21.994Z</time></trkpt><trkpt lat="44.9193368" lon="13.8381004"><ele>28.0</ele><time>2026-04-12T09:00:22.987Z</time></trkpt><trkpt lat="44.9193039" lon="13.8380113"><ele>28.0</ele><time>2026-04-12T09:00:23.997Z</time></trkpt><trkpt lat="44.9192711" lon="13.8379306"><ele>28.000000000000004</ele><time>2026-04-12T09:00:24.993Z</time></trkpt><trkpt lat="44.9191785" lon="13.8378133"><ele>28.0</ele><time>2026-04-12T09:00:26.988Z</time></trkpt><trkpt lat="44.9191096" lon="13.837766"><ele>28.166666666666668</ele><time>2026-04-12T09:00:27.987Z</time></trkpt><trkpt lat="44.9190367" lon="13.8377409"><ele>28.333333333333336</ele><time>2026-04-12T09:00:28.987Z</time></trkpt><trkpt lat="44.9189577" lon="13.8377059"><ele>28.5</ele><time>2026-04-12T09:00:29.987Z</time></trkpt><trkpt lat="44.9188844" lon="13.8376644"><ele>28.666666666666664</ele><time>2026-04-12T09:00:30.99Z</time></trkpt><trkpt lat="44.918817" lon="13.8376242"><ele>28.833333333333332</ele><time>2026-04-12T09:00:31.986Z</time></trkpt><trkpt lat="44.9187408" lon="13.8375942"><ele>29.0</ele><time>2026-04-12T09:00:32.988Z</time></trkpt><trkpt lat="44.9186658" lon="13.8375609"><ele>28.571428571428577</ele><time>2026-04-12T09:00:33.984Z</time></trkpt><trkpt lat="44.9185949" lon="13.8375286"><ele>28.142857142857146</ele><time>2026-04-12T09:00:34.996Z</time></trkpt><trkpt lat="44.9185248" lon="13.8374924"><ele>27.714285714285715</ele><time>2026-04-12T09:00:35.998Z</time></trkpt><trkpt lat="44.9184541" lon="13.8374554"><ele>27.28571428571429</ele><time>2026-04-12T09:00:36.99Z</time></trkpt><trkpt lat="44.9183844" lon="13.8374199"><ele>26.85714285714286</ele><time>2026-04-12T09:00:37.994Z</time></trkpt><trkpt lat="44.9183127" lon="13.8373895"><ele>26.428571428571427</ele><time>2026-04-12T09:00:38.989Z</time></trkpt><trkpt lat="44.9182475" lon="13.8373595"><ele>26.0</ele><time>2026-04-12T09:00:39.995Z</time></trkpt><trkpt lat="44.9181742" lon="13.8373327"><ele>25.999999999999996</ele><time>2026-04-12T09:00:40.988Z</time></trkpt><trkpt lat="44.9180979" lon="13.8373085"><ele>26.0</ele><time>2026-04-12T09:00:41.989Z</time></trkpt><trkpt lat="44.9180286" lon="13.8372779"><ele>26.0</ele><time>2026-04-12T09:00:42.991Z</time></trkpt><trkpt lat="44.9179551" lon="13.8372471"><ele>26.0</ele><time>2026-04-12T09:00:43.995Z</time></trkpt><trkpt lat="44.9178865" lon="13.8372168"><ele>25.999999999999996</ele><time>2026-04-12T09:00:44.987Z</time></trkpt><trkpt lat="44.9178242" lon="13.837191"><ele>26.0</ele><time>2026-04-12T09:00:45.992Z</time></trkpt><trkpt lat="44.9177297" lon="13.8371504"><ele>25.999999999999996</ele><time>2026-04-12T09:00:47.986Z</time></trkpt><trkpt lat="44.9176147" lon="13.837103"><ele>26.0</ele><time>2026-04-12T09:00:49.99Z</time></trkpt><trkpt lat="44.9175427" lon="13.8370749"><ele>26.0</ele><time>2026-04-12T09:00:50.99Z</time></trkpt><trkpt lat="44.9174681" lon="13.8370523"><ele>26.0</ele><time>2026-04-12T09:00:51.993Z</time></trkpt><trkpt lat="44.9173939" lon="13.8370155"><ele>25.999999999999996</ele><time>2026-04-12T09:00:52.988Z</time></trkpt><trkpt lat="44.9173229" lon="13.8369778"><ele>26.0</ele><time>2026-04-12T09:00:53.987Z</time></trkpt><trkpt lat="44.9172465" lon="13.8369406"><ele>26.0</ele><time>2026-04-12T09:00:54.988Z</time></trkpt><trkpt lat="44.9171734" lon="13.8368977"><ele>26.0</ele><time>2026-04-12T09:00:55.985Z</time></trkpt><trkpt lat="44.9171021" lon="13.8368547"><ele>26.0</ele><time>2026-04-12T09:00:56.987Z</time></trkpt><trkpt lat="44.9170281" lon="13.8368193"><ele>26.0</ele><time>2026-04-12T09:00:57.99Z</time></trkpt><trkpt lat="44.9169434" lon="13.8367797"><ele>26.0</ele><time>2026-04-12T09:00:58.991Z</time></trkpt><trkpt lat="44.916776" lon="13.8367178"><ele>26.0</ele><time>2026-04-12T09:01:00.989Z</time></trkpt><trkpt lat="44.9166146" lon="13.836641"><ele>26.0</ele><time>2026-04-12T09:01:02.988Z</time></trkpt><trkpt lat="44.9164872" lon="13.8365799"><ele>26.0</ele><time>2026-04-12T09:01:04.989Z</time></trkpt><trkpt lat="44.9163832" lon="13.8365235"><ele>26.0</ele><time>2026-04-12T09:01:06.99Z</time></trkpt><trkpt lat="44.9162896" lon="13.8364793"><ele>26.0</ele><time>2026-04-12T09:01:08.987Z</time></trkpt><trkpt lat="44.9161942" lon="13.8364263"><ele>26.0</ele><time>2026-04-12T09:01:10.992Z</time></trkpt><trkpt lat="44.9161306" lon="13.8364521"><ele>26.0</ele><time>2026-04-12T09:01:14.987Z</time></trkpt><trkpt lat="44.9162455" lon="13.8364613"><ele>26.0</ele><time>2026-04-12T09:01:18.985Z</time></trkpt><trkpt lat="44.9163539" lon="13.8365064"><ele>26.0</ele><time>2026-04-12T09:01:20.992Z</time></trkpt><trkpt lat="44.9164506" lon="13.8365412"><ele>25.999999999999996</ele><time>2026-04-12T09:01:22.99Z</time></trkpt><trkpt lat="44.9165346" lon="13.8365373"><ele>26.0</ele><time>2026-04-12T09:01:24.995Z</time></trkpt><trkpt lat="44.9166315" lon="13.8364984"><ele>26.0</ele><time>2026-04-12T09:01:26.99Z</time></trkpt><trkpt lat="44.916689" lon="13.8364568"><ele>26.0</ele><time>2026-04-12T09:01:28.003Z</time></trkpt><trkpt lat="44.9167504" lon="13.8364052"><ele>25.999999999999996</ele><time>2026-04-12T09:01:28.987Z</time></trkpt><trkpt lat="44.916838" lon="13.8362794"><ele>26.0</ele><time>2026-04-12T09:01:30.988Z</time></trkpt><trkpt lat="44.9168793" lon="13.8362029"><ele>25.999999999999996</ele><time>2026-04-12T09:01:31.99Z</time></trkpt><trkpt lat="44.9169276" lon="13.8361295"><ele>26.0</ele><time>2026-04-12T09:01:32.99Z</time></trkpt><trkpt lat="44.9169854" lon="13.8360643"><ele>26.0</ele><time>2026-04-12T09:01:33.991Z</time></trkpt><trkpt lat="44.9170445" lon="13.8359922"><ele>26.0</ele><time>2026-04-12T09:01:34.988Z</time></trkpt><trkpt lat="44.9171087" lon="13.8359168"><ele>25.999999999999996</ele><time>2026-04-12T09:01:35.991Z</time></trkpt><trkpt lat="44.9171671" lon="13.83584"><ele>26.0</ele><time>2026-04-12T09:01:36.987Z</time></trkpt><trkpt lat="44.9172264" lon="13.8357692"><ele>25.333333333333332</ele><time>2026-04-12T09:01:37.991Z</time></trkpt><trkpt lat="44.9172937" lon="13.8357084"><ele>24.666666666666664</ele><time>2026-04-12T09:01:38.987Z</time></trkpt><trkpt lat="44.9173515" lon="13.8356382"><ele>24.0</ele><time>2026-04-12T09:01:39.987Z</time></trkpt><trkpt lat="44.9174046" lon="13.835575"><ele>23.333333333333332</ele><time>2026-04-12T09:01:40.987Z</time></trkpt><trkpt lat="44.9174583" lon="13.8354503"><ele>22.666666666666664</ele><time>2026-04-12T09:01:42.984Z</time></trkpt><trkpt lat="44.9174699" lon="13.8353617"><ele>22.0</ele><time>2026-04-12T09:01:44.99Z</time></trkpt><trkpt lat="44.9175096" lon="13.835272"><ele>22.0</ele><time>2026-04-12T09:01:49.994Z</time></trkpt><trkpt lat="44.9175971" lon="13.835167"><ele>22.0</ele><time>2026-04-12T09:01:51.996Z</time></trkpt><trkpt lat="44.9176462" lon="13.8351077"><ele>22.0</ele><time>2026-04-12T09:01:52.992Z</time></trkpt><trkpt lat="44.917729" lon="13.8350186"><ele>22.0</ele><time>2026-04-12T09:01:54.994Z</time></trkpt><trkpt lat="44.9177851" lon="13.8349083"><ele>22.0</ele><time>2026-04-12T09:01:56.987Z</time></trkpt><trkpt lat="44.9178207" lon="13.8347817"><ele>21.5</ele><time>2026-04-12T09:01:58.99Z</time></trkpt><trkpt lat="44.917881" lon="13.8347137"><ele>21.0</ele><time>2026-04-12T09:02:02.994Z</time></trkpt><trkpt lat="44.9179471" lon="13.8347282"><ele>20.5</ele><time>2026-04-12T09:02:06.99Z</time></trkpt><trkpt lat="44.9180382" lon="13.8346747"><ele>20.0</ele><time>2026-04-12T09:02:08.994Z</time></trkpt><trkpt lat="44.9181246" lon="13.8346317"><ele>19.5</ele><time>2026-04-12T09:02:09.991Z</time></trkpt><trkpt lat="44.918199" lon="13.834577"><ele>19.0</ele><time>2026-04-12T09:02:11.984Z</time></trkpt><trkpt lat="44.9182798" lon="13.8344815"><ele>19.0</ele><time>2026-04-12T09:02:13.994Z</time></trkpt><trkpt lat="44.9183612" lon="13.8344125"><ele>19.0</ele><time>2026-04-12T09:02:15.989Z</time></trkpt><trkpt lat="44.9184497" lon="13.8343745"><ele>19.0</ele><time>2026-04-12T09:02:17.988Z</time></trkpt><trkpt lat="44.9185615" lon="13.8343113"><ele>19.0</ele><time>2026-04-12T09:02:19.999Z</time></trkpt><trkpt lat="44.9186179" lon="13.834263"><ele>19.0</ele><time>2026-04-12T09:02:20.986Z</time></trkpt><trkpt lat="44.9186716" lon="13.8342134"><ele>19.0</ele><time>2026-04-12T09:02:21.989Z</time></trkpt><trkpt lat="44.9187285" lon="13.8341702"><ele>18.599999999999998</ele><time>2026-04-12T09:02:22.989Z</time></trkpt><trkpt lat="44.9187865" lon="13.834126"><ele>18.2</ele><time>2026-04-12T09:02:23.989Z</time></trkpt><trkpt lat="44.9188448" lon="13.8340832"><ele>17.799999999999997</ele><time>2026-04-12T09:02:24.984Z</time></trkpt><trkpt lat="44.918955" lon="13.8340059"><ele>17.4</ele><time>2026-04-12T09:02:26.984Z</time></trkpt><trkpt lat="44.9190566" lon="13.8339242"><ele>17.0</ele><time>2026-04-12T09:02:28.988Z</time></trkpt><trkpt lat="44.9191581" lon="13.8338591"><ele>17.0</ele><time>2026-04-12T09:02:30.987Z</time></trkpt><trkpt lat="44.9192391" lon="13.8338276"><ele>17.0</ele><time>2026-04-12T09:02:33.987Z</time></trkpt><trkpt lat="44.9191829" lon="13.8338756"><ele>17.0</ele><time>2026-04-12T09:05:46.992Z</time></trkpt><trkpt lat="44.9190898" lon="13.8339292"><ele>17.0</ele><time>2026-04-12T09:05:48.999Z</time></trkpt><trkpt lat="44.9189891" lon="13.834003"><ele>17.0</ele><time>2026-04-12T09:05:50.993Z</time></trkpt><trkpt lat="44.9188916" lon="13.8340704"><ele>17.0</ele><time>2026-04-12T09:05:52.991Z</time></trkpt><trkpt lat="44.918782" lon="13.8341515"><ele>17.0</ele><time>2026-04-12T09:05:54.987Z</time></trkpt><trkpt lat="44.9187251" lon="13.8342005"><ele>17.0</ele><time>2026-04-12T09:05:55.991Z</time></trkpt><trkpt lat="44.9186697" lon="13.8342473"><ele>17.0</ele><time>2026-04-12T09:05:56.986Z</time></trkpt><trkpt lat="44.918613" lon="13.834289"><ele>17.0</ele><time>2026-04-12T09:05:57.995Z</time></trkpt><trkpt lat="44.918557" lon="13.8343357"><ele>17.0</ele><time>2026-04-12T09:05:58.987Z</time></trkpt><trkpt lat="44.9184467" lon="13.8343909"><ele>17.4</ele><time>2026-04-12T09:06:00.985Z</time></trkpt><trkpt lat="44.9183458" lon="13.8344459"><ele>17.799999999999997</ele><time>2026-04-12T09:06:02.99Z</time></trkpt><trkpt lat="44.9182602" lon="13.8345147"><ele>18.2</ele><time>2026-04-12T09:06:04.996Z</time></trkpt><trkpt lat="44.9181701" lon="13.834628"><ele>18.599999999999998</ele><time>2026-04-12T09:06:06.999Z</time></trkpt><trkpt lat="44.9180667" lon="13.8347026"><ele>19.0</ele><time>2026-04-12T09:06:08.99Z</time></trkpt><trkpt lat="44.9179832" lon="13.8347473"><ele>19.0</ele><time>2026-04-12T09:06:10.989Z</time></trkpt><trkpt lat="44.9179001" lon="13.8347525"><ele>19.0</ele><time>2026-04-12T09:06:12.991Z</time></trkpt><trkpt lat="44.9178364" lon="13.8347591"><ele>19.0</ele><time>2026-04-12T09:06:14.993Z</time></trkpt><trkpt lat="44.9177931" lon="13.8348656"><ele>19.0</ele><time>2026-04-12T09:06:18.992Z</time></trkpt><trkpt lat="44.9177431" lon="13.8349597"><ele>19.0</ele><time>2026-04-12T09:06:20.985Z</time></trkpt><trkpt lat="44.9176865" lon="13.8350373"><ele>19.0</ele><time>2026-04-12T09:06:21.99Z</time></trkpt><trkpt lat="44.917632" lon="13.8351082"><ele>19.6</ele><time>2026-04-12T09:06:22.991Z</time></trkpt><trkpt lat="44.9175815" lon="13.8351745"><ele>20.2</ele><time>2026-04-12T09:06:23.992Z</time></trkpt><trkpt lat="44.9174889" lon="13.8353265"><ele>20.8</ele><time>2026-04-12T09:06:25.984Z</time></trkpt><trkpt lat="44.9174519" lon="13.8354605"><ele>21.400000000000002</ele><time>2026-04-12T09:06:27.99Z</time></trkpt><trkpt lat="44.9174016" lon="13.8355693"><ele>22.0</ele><time>2026-04-12T09:06:29.993Z</time></trkpt><trkpt lat="44.9173055" lon="13.8356934"><ele>22.0</ele><time>2026-04-12T09:06:31.995Z</time></trkpt><trkpt lat="44.9172458" lon="13.8357548"><ele>22.0</ele><time>2026-04-12T09:06:32.996Z</time></trkpt><trkpt lat="44.9171935" lon="13.8358177"><ele>22.0</ele><time>2026-04-12T09:06:33.995Z</time></trkpt><trkpt lat="44.9171428" lon="13.8358905"><ele>22.0</ele><time>2026-04-12T09:06:34.993Z</time></trkpt><trkpt lat="44.9170925" lon="13.8359736"><ele>22.0</ele><time>2026-04-12T09:06:35.99Z</time></trkpt><trkpt lat="44.9170354" lon="13.8360491"><ele>22.0</ele><time>2026-04-12T09:06:36.994Z</time></trkpt><trkpt lat="44.916974" lon="13.8361068"><ele>22.0</ele><time>2026-04-12T09:06:37.986Z</time></trkpt><trkpt lat="44.9169176" lon="13.8361573"><ele>22.666666666666664</ele><time>2026-04-12T09:06:38.987Z</time></trkpt><trkpt lat="44.9168667" lon="13.8362209"><ele>23.333333333333332</ele><time>2026-04-12T09:06:39.992Z</time></trkpt><trkpt lat="44.9168252" lon="13.8362946"><ele>24.0</ele><time>2026-04-12T09:06:40.99Z</time></trkpt><trkpt lat="44.91679" lon="13.8363716"><ele>24.666666666666664</ele><time>2026-04-12T09:06:41.989Z</time></trkpt><trkpt lat="44.9166898" lon="13.8364728"><ele>25.333333333333332</ele><time>2026-04-12T09:06:43.994Z</time></trkpt><trkpt lat="44.9166328" lon="13.8365116"><ele>26.0</ele><time>2026-04-12T09:06:44.997Z</time></trkpt><trkpt lat="44.9165715" lon="13.8365508"><ele>25.999999999999996</ele><time>2026-04-12T09:06:46.99Z</time></trkpt><trkpt lat="44.9165744" lon="13.836647"><ele>26.0</ele><time>2026-04-12T09:06:50.985Z</time></trkpt><trkpt lat="44.9166879" lon="13.8367076"><ele>26.0</ele><time>2026-04-12T09:06:53.991Z</time></trkpt><trkpt lat="44.9167657" lon="13.8367389"><ele>26.0</ele><time>2026-04-12T09:06:54.994Z</time></trkpt><trkpt lat="44.9168496" lon="13.836762"><ele>25.999999999999996</ele><time>2026-04-12T09:06:55.991Z</time></trkpt><trkpt lat="44.916929" lon="13.83679"><ele>26.0</ele><time>2026-04-12T09:06:56.989Z</time></trkpt><trkpt lat="44.9170041" lon="13.8368225"><ele>26.4</ele><time>2026-04-12T09:06:57.989Z</time></trkpt><trkpt lat="44.9170874" lon="13.8368598"><ele>26.8</ele><time>2026-04-12T09:06:58.988Z</time></trkpt><trkpt lat="44.9171732" lon="13.836908"><ele>27.199999999999996</ele><time>2026-04-12T09:06:59.99Z</time></trkpt><trkpt lat="44.9172613" lon="13.8369554"><ele>27.599999999999998</ele><time>2026-04-12T09:07:00.987Z</time></trkpt><trkpt lat="44.9173481" lon="13.8369985"><ele>28.0</ele><time>2026-04-12T09:07:01.986Z</time></trkpt><trkpt lat="44.91743" lon="13.8370314"><ele>28.0</ele><time>2026-04-12T09:07:02.99Z</time></trkpt><trkpt lat="44.9175004" lon="13.8370592"><ele>28.0</ele><time>2026-04-12T09:07:03.99Z</time></trkpt><trkpt lat="44.9175665" lon="13.837082"><ele>28.0</ele><time>2026-04-12T09:07:04.987Z</time></trkpt><trkpt lat="44.9176346" lon="13.8371047"><ele>28.0</ele><time>2026-04-12T09:07:05.994Z</time></trkpt><trkpt lat="44.9177074" lon="13.8371285"><ele>28.0</ele><time>2026-04-12T09:07:06.99Z</time></trkpt><trkpt lat="44.9177718" lon="13.837164"><ele>28.0</ele><time>2026-04-12T09:07:07.987Z</time></trkpt><trkpt lat="44.9178347" lon="13.8372021"><ele>28.0</ele><time>2026-04-12T09:07:08.991Z</time></trkpt><trkpt lat="44.9179003" lon="13.8372332"><ele>27.666666666666668</ele><time>2026-04-12T09:07:09.986Z</time></trkpt><trkpt lat="44.9179696" lon="13.8372652"><ele>27.333333333333336</ele><time>2026-04-12T09:07:10.989Z</time></trkpt><trkpt lat="44.9180448" lon="13.8372934"><ele>27.0</ele><time>2026-04-12T09:07:11.987Z</time></trkpt><trkpt lat="44.9181239" lon="13.8373224"><ele>26.666666666666664</ele><time>2026-04-12T09:07:12.991Z</time></trkpt><trkpt lat="44.9181999" lon="13.8373489"><ele>26.333333333333332</ele><time>2026-04-12T09:07:13.989Z</time></trkpt><trkpt lat="44.9182778" lon="13.8373813"><ele>26.0</ele><time>2026-04-12T09:07:14.988Z</time></trkpt><trkpt lat="44.9183541" lon="13.837418"><ele>25.999999999999996</ele><time>2026-04-12T09:07:15.99Z</time></trkpt><trkpt lat="44.9184304" lon="13.8374555"><ele>26.0</ele><time>2026-04-12T09:07:16.985Z</time></trkpt><trkpt lat="44.9185049" lon="13.8374893"><ele>26.0</ele><time>2026-04-12T09:07:17.992Z</time></trkpt><trkpt lat="44.9185817" lon="13.8375254"><ele>26.0</ele><time>2026-04-12T09:07:18.989Z</time></trkpt><trkpt lat="44.9186579" lon="13.837564"><ele>25.999999999999996</ele><time>2026-04-12T09:07:19.985Z</time></trkpt><trkpt lat="44.9187364" lon="13.8375981"><ele>26.0</ele><time>2026-04-12T09:07:20.987Z</time></trkpt><trkpt lat="44.9188109" lon="13.8376284"><ele>26.333333333333332</ele><time>2026-04-12T09:07:21.985Z</time></trkpt><trkpt lat="44.9188879" lon="13.8376642"><ele>26.666666666666664</ele><time>2026-04-12T09:07:22.986Z</time></trkpt><trkpt lat="44.9189627" lon="13.8376938"><ele>27.0</ele><time>2026-04-12T09:07:23.985Z</time></trkpt><trkpt lat="44.919034" lon="13.8377348"><ele>27.333333333333336</ele><time>2026-04-12T09:07:25Z</time></trkpt><trkpt lat="44.9191043" lon="13.8377665"><ele>27.666666666666668</ele><time>2026-04-12T09:07:25.988Z</time></trkpt><trkpt lat="44.9191682" lon="13.8378054"><ele>28.0</ele><time>2026-04-12T09:07:26.991Z</time></trkpt><trkpt lat="44.9192578" lon="13.8379239"><ele>28.000000000000004</ele><time>2026-04-12T09:07:28.995Z</time></trkpt><trkpt lat="44.9192931" lon="13.83801"><ele>28.0</ele><time>2026-04-12T09:07:29.986Z</time></trkpt><trkpt lat="44.9193308" lon="13.8381043"><ele>28.0</ele><time>2026-04-12T09:07:31.001Z</time></trkpt><trkpt lat="44.9193777" lon="13.8381877"><ele>28.0</ele><time>2026-04-12T09:07:31.986Z</time></trkpt><trkpt lat="44.9194334" lon="13.8382594"><ele>28.000000000000004</ele><time>2026-04-12T09:07:32.986Z</time></trkpt><trkpt lat="44.9194781" lon="13.8383253"><ele>28.0</ele><time>2026-04-12T09:07:33.988Z</time></trkpt><trkpt lat="44.919535" lon="13.8384341"><ele>28.000000000000004</ele><time>2026-04-12T09:07:35.986Z</time></trkpt><trkpt lat="44.9195799" lon="13.8385034"><ele>28.0</ele><time>2026-04-12T09:07:38.987Z</time></trkpt><trkpt lat="44.919652" lon="13.8384465"><ele>28.0</ele><time>2026-04-12T09:07:45.986Z</time></trkpt><trkpt lat="44.9196896" lon="13.8383699"><ele>28.0</ele><time>2026-04-12T09:07:48.986Z</time></trkpt><trkpt lat="44.9197492" lon="13.838308"><ele>28.000000000000004</ele><time>2026-04-12T09:07:51.991Z</time></trkpt><trkpt lat="44.9198519" lon="13.8383349"><ele>28.0</ele><time>2026-04-12T09:07:54.983Z</time></trkpt><trkpt lat="44.9201366" lon="13.838431"><ele>27.2</ele><time>2026-04-12T09:07:56.985Z</time></trkpt><trkpt lat="44.9202153" lon="13.8384575"><ele>26.4</ele><time>2026-04-12T09:07:57.992Z</time></trkpt><trkpt lat="44.9203358" lon="13.8384917"><ele>25.599999999999998</ele><time>2026-04-12T09:07:58.992Z</time></trkpt><trkpt lat="44.9204346" lon="13.8384748"><ele>24.799999999999997</ele><time>2026-04-12T09:07:59.991Z</time></trkpt><trkpt lat="44.9205572" lon="13.8384296"><ele>24.0</ele><time>2026-04-12T09:08:01.992Z</time></trkpt><trkpt lat="44.9206909" lon="13.8384543"><ele>23.666666666666668</ele><time>2026-04-12T09:08:03.989Z</time></trkpt><trkpt lat="44.9207636" lon="13.8384745"><ele>23.333333333333332</ele><time>2026-04-12T09:08:04.987Z</time></trkpt><trkpt lat="44.9208355" lon="13.8384931"><ele>23.0</ele><time>2026-04-12T09:08:05.991Z</time></trkpt><trkpt lat="44.92091" lon="13.8385173"><ele>22.666666666666664</ele><time>2026-04-12T09:08:06.992Z</time></trkpt><trkpt lat="44.9209847" lon="13.8385516"><ele>22.333333333333332</ele><time>2026-04-12T09:08:07.992Z</time></trkpt><trkpt lat="44.9210569" lon="13.8385988"><ele>22.0</ele><time>2026-04-12T09:08:08.992Z</time></trkpt><trkpt lat="44.9211253" lon="13.8386465"><ele>22.571428571428573</ele><time>2026-04-12T09:08:09.992Z</time></trkpt><trkpt lat="44.9211903" lon="13.8386767"><ele>23.142857142857142</ele><time>2026-04-12T09:08:10.986Z</time></trkpt><trkpt lat="44.9212546" lon="13.8386858"><ele>23.714285714285715</ele><time>2026-04-12T09:08:11.99Z</time></trkpt><trkpt lat="44.9213246" lon="13.838674"><ele>24.285714285714285</ele><time>2026-04-12T09:08:12.985Z</time></trkpt><trkpt lat="44.921396" lon="13.8386579"><ele>24.857142857142858</ele><time>2026-04-12T09:08:13.984Z</time></trkpt><trkpt lat="44.9214702" lon="13.8386528"><ele>25.428571428571427</ele><time>2026-04-12T09:08:14.99Z</time></trkpt><trkpt lat="44.9215461" lon="13.8386545"><ele>26.0</ele><time>2026-04-12T09:08:15.987Z</time></trkpt><trkpt lat="44.9216231" lon="13.8386699"><ele>25.999999999999996</ele><time>2026-04-12T09:08:16.987Z</time></trkpt><trkpt lat="44.9216947" lon="13.8386974"><ele>26.0</ele><time>2026-04-12T09:08:17.987Z</time></trkpt><trkpt lat="44.9217649" lon="13.8387321"><ele>26.0</ele><time>2026-04-12T09:08:18.985Z</time></trkpt><trkpt lat="44.9218345" lon="13.8387687"><ele>26.0</ele><time>2026-04-12T09:08:19.985Z</time></trkpt><trkpt lat="44.9219014" lon="13.8387998"><ele>25.999999999999996</ele><time>2026-04-12T09:08:20.997Z</time></trkpt><trkpt lat="44.9219619" lon="13.8388318"><ele>26.0</ele><time>2026-04-12T09:08:21.99Z</time></trkpt><trkpt lat="44.9220475" lon="13.8389149"><ele>26.8</ele><time>2026-04-12T09:08:23.984Z</time></trkpt><trkpt lat="44.9221372" lon="13.839044"><ele>27.6</ele><time>2026-04-12T09:08:25.987Z</time></trkpt><trkpt lat="44.9221927" lon="13.8391084"><ele>28.4</ele><time>2026-04-12T09:08:26.986Z</time></trkpt><trkpt lat="44.9222614" lon="13.8391557"><ele>29.2</ele><time>2026-04-12T09:08:27.989Z</time></trkpt><trkpt lat="44.9223508" lon="13.839197"><ele>30.0</ele><time>2026-04-12T09:08:28.988Z</time></trkpt><trkpt lat="44.9224492" lon="13.8392356"><ele>30.0</ele><time>2026-04-12T09:08:29.992Z</time></trkpt><trkpt lat="44.9225484" lon="13.8392781"><ele>30.0</ele><time>2026-04-12T09:08:30.986Z</time></trkpt><trkpt lat="44.9226489" lon="13.8393151"><ele>30.0</ele><time>2026-04-12T09:08:31.989Z</time></trkpt><trkpt lat="44.9227453" lon="13.8393478"><ele>30.0</ele><time>2026-04-12T09:08:32.996Z</time></trkpt><trkpt lat="44.9228371" lon="13.8393807"><ele>30.0</ele><time>2026-04-12T09:08:33.99Z</time></trkpt><trkpt lat="44.9229232" lon="13.8394128"><ele>30.166666666666668</ele><time>2026-04-12T09:08:34.996Z</time></trkpt><trkpt lat="44.9230088" lon="13.8394492"><ele>30.333333333333336</ele><time>2026-04-12T09:08:35.988Z</time></trkpt><trkpt lat="44.9230965" lon="13.8394941"><ele>30.5</ele><time>2026-04-12T09:08:36.988Z</time></trkpt><trkpt lat="44.9231843" lon="13.8395366"><ele>30.666666666666668</ele><time>2026-04-12T09:08:37.991Z</time></trkpt><trkpt lat="44.9232664" lon="13.8395783"><ele>30.833333333333336</ele><time>2026-04-12T09:08:38.988Z</time></trkpt><trkpt lat="44.923349" lon="13.839614"><ele>31.0</ele><time>2026-04-12T09:08:39.985Z</time></trkpt><trkpt lat="44.9234264" lon="13.839646"><ele>31.333333333333336</ele><time>2026-04-12T09:08:40.986Z</time></trkpt><trkpt lat="44.9235025" lon="13.839676"><ele>31.666666666666668</ele><time>2026-04-12T09:08:41.996Z</time></trkpt><trkpt lat="44.9235784" lon="13.8397034"><ele>32.0</ele><time>2026-04-12T09:08:42.989Z</time></trkpt><trkpt lat="44.9236541" lon="13.8397356"><ele>32.333333333333336</ele><time>2026-04-12T09:08:43.988Z</time></trkpt><trkpt lat="44.9237279" lon="13.8397728"><ele>32.666666666666664</ele><time>2026-04-12T09:08:44.989Z</time></trkpt><trkpt lat="44.9238027" lon="13.8398067"><ele>33.0</ele><time>2026-04-12T09:08:45.984Z</time></trkpt><trkpt lat="44.9238763" lon="13.8398404"><ele>33.0</ele><time>2026-04-12T09:08:46.989Z</time></trkpt><trkpt lat="44.9239477" lon="13.8398763"><ele>33.0</ele><time>2026-04-12T09:08:47.984Z</time></trkpt><trkpt lat="44.9240264" lon="13.8399029"><ele>33.0</ele><time>2026-04-12T09:08:48.985Z</time></trkpt><trkpt lat="44.9241031" lon="13.8399309"><ele>33.0</ele><time>2026-04-12T09:08:49.985Z</time></trkpt><trkpt lat="44.9241733" lon="13.8399608"><ele>33.0</ele><time>2026-04-12T09:08:50.988Z</time></trkpt><trkpt lat="44.9242462" lon="13.8399941"><ele>33.0</ele><time>2026-04-12T09:08:51.986Z</time></trkpt><trkpt lat="44.9243191" lon="13.8400319"><ele>33.5</ele><time>2026-04-12T09:08:52.985Z</time></trkpt><trkpt lat="44.9243949" lon="13.8400683"><ele>34.0</ele><time>2026-04-12T09:08:53.988Z</time></trkpt><trkpt lat="44.9244712" lon="13.8401041"><ele>34.5</ele><time>2026-04-12T09:08:54.991Z</time></trkpt><trkpt lat="44.9245475" lon="13.8401388"><ele>35.0</ele><time>2026-04-12T09:08:55.989Z</time></trkpt><trkpt lat="44.924622" lon="13.840171"><ele>35.5</ele><time>2026-04-12T09:08:56.992Z</time></trkpt><trkpt lat="44.9246961" lon="13.8402021"><ele>36.0</ele><time>2026-04-12T09:08:57.988Z</time></trkpt><trkpt lat="44.9247713" lon="13.8402292"><ele>36.00000000000001</ele><time>2026-04-12T09:08:58.987Z</time></trkpt><trkpt lat="44.9248442" lon="13.8402607"><ele>36.0</ele><time>2026-04-12T09:08:59.985Z</time></trkpt><trkpt lat="44.9249134" lon="13.8402923"><ele>36.0</ele><time>2026-04-12T09:09:00.991Z</time></trkpt><trkpt lat="44.9249764" lon="13.8403237"><ele>36.0</ele><time>2026-04-12T09:09:01.99Z</time></trkpt><trkpt lat="44.9250415" lon="13.8403469"><ele>36.0</ele><time>2026-04-12T09:09:02.986Z</time></trkpt><trkpt lat="44.9251084" lon="13.840372"><ele>36.00000000000001</ele><time>2026-04-12T09:09:03.986Z</time></trkpt><trkpt lat="44.9251695" lon="13.8403967"><ele>36.0</ele><time>2026-04-12T09:09:04.985Z</time></trkpt><trkpt lat="44.9252597" lon="13.8404008"><ele>36.0</ele><time>2026-04-12T09:09:06.989Z</time></trkpt><trkpt lat="44.9253003" lon="13.8403242"><ele>36.0</ele><time>2026-04-12T09:09:08.985Z</time></trkpt><trkpt lat="44.9253063" lon="13.8402202"><ele>36.0</ele><time>2026-04-12T09:09:10.995Z</time></trkpt><trkpt lat="44.9253001" lon="13.8401257"><ele>36.0</ele><time>2026-04-12T09:09:13.994Z</time></trkpt><trkpt lat="44.9252636" lon="13.8398632"><ele>36.0</ele><time>2026-04-12T09:09:15.998Z</time></trkpt><trkpt lat="44.9252247" lon="13.8394997"><ele>35.25</ele><time>2026-04-12T09:09:16.983Z</time></trkpt><trkpt lat="44.9252086" lon="13.8392869"><ele>34.5</ele><time>2026-04-12T09:09:17.981Z</time></trkpt><trkpt lat="44.9252163" lon="13.8391161"><ele>33.75</ele><time>2026-04-12T09:09:18.982Z</time></trkpt><trkpt lat="44.9252447" lon="13.838955"><ele>33.0</ele><time>2026-04-12T09:09:19.988Z</time></trkpt><trkpt lat="44.9252863" lon="13.8387955"><ele>33.0</ele><time>2026-04-12T09:09:20.986Z</time></trkpt><trkpt lat="44.9253302" lon="13.8386308"><ele>33.0</ele><time>2026-04-12T09:09:21.99Z</time></trkpt><trkpt lat="44.9253735" lon="13.8384576"><ele>33.0</ele><time>2026-04-12T09:09:22.988Z</time></trkpt><trkpt lat="44.9254133" lon="13.8382831"><ele>33.0</ele><time>2026-04-12T09:09:23.986Z</time></trkpt><trkpt lat="44.9254471" lon="13.8381121"><ele>32.75</ele><time>2026-04-12T09:09:24.988Z</time></trkpt><trkpt lat="44.9254715" lon="13.8379415"><ele>32.5</ele><time>2026-04-12T09:09:25.994Z</time></trkpt><trkpt lat="44.9254781" lon="13.8377701"><ele>32.25</ele><time>2026-04-12T09:09:26.986Z</time></trkpt><trkpt lat="44.9254624" lon="13.8375947"><ele>32.0</ele><time>2026-04-12T09:09:27.987Z</time></trkpt><trkpt lat="44.9254291" lon="13.8374198"><ele>32.0</ele><time>2026-04-12T09:09:28.987Z</time></trkpt><trkpt lat="44.9253843" lon="13.8372428"><ele>32.0</ele><time>2026-04-12T09:09:29.985Z</time></trkpt><trkpt lat="44.925336" lon="13.8370631"><ele>32.0</ele><time>2026-04-12T09:09:30.997Z</time></trkpt><trkpt lat="44.9252887" lon="13.8368843"><ele>32.0</ele><time>2026-04-12T09:09:31.991Z</time></trkpt><trkpt lat="44.925243" lon="13.8367018"><ele>32.0</ele><time>2026-04-12T09:09:32.987Z</time></trkpt><trkpt lat="44.9251984" lon="13.8365202"><ele>32.0</ele><time>2026-04-12T09:09:33.992Z</time></trkpt><trkpt lat="44.9251539" lon="13.8363398"><ele>32.0</ele><time>2026-04-12T09:09:34.988Z</time></trkpt><trkpt lat="44.9251091" lon="13.8361611"><ele>32.0</ele><time>2026-04-12T09:09:35.986Z</time></trkpt><trkpt lat="44.925065" lon="13.8359828"><ele>31.0</ele><time>2026-04-12T09:09:36.985Z</time></trkpt><trkpt lat="44.9250198" lon="13.8358049"><ele>30.0</ele><time>2026-04-12T09:09:37.991Z</time></trkpt><trkpt lat="44.924975" lon="13.8356268"><ele>29.0</ele><time>2026-04-12T09:09:38.993Z</time></trkpt><trkpt lat="44.9249318" lon="13.8354464"><ele>28.0</ele><time>2026-04-12T09:09:39.989Z</time></trkpt><trkpt lat="44.9248854" lon="13.8352666"><ele>28.0</ele><time>2026-04-12T09:09:40.983Z</time></trkpt><trkpt lat="44.9248377" lon="13.8350884"><ele>28.0</ele><time>2026-04-12T09:09:41.987Z</time></trkpt><trkpt lat="44.9247911" lon="13.8349125"><ele>28.0</ele><time>2026-04-12T09:09:42.987Z</time></trkpt><trkpt lat="44.924749" lon="13.8347415"><ele>28.0</ele><time>2026-04-12T09:09:43.984Z</time></trkpt><trkpt lat="44.9247078" lon="13.8345804"><ele>28.0</ele><time>2026-04-12T09:09:44.986Z</time></trkpt><trkpt lat="44.9246643" lon="13.8344315"><ele>27.999999999999996</ele><time>2026-04-12T09:09:45.985Z</time></trkpt><trkpt lat="44.9246223" lon="13.8342895"><ele>27.999999999999996</ele><time>2026-04-12T09:09:46.989Z</time></trkpt><trkpt lat="44.9245776" lon="13.8341559"><ele>28.0</ele><time>2026-04-12T09:09:47.985Z</time></trkpt><trkpt lat="44.9245284" lon="13.8340219"><ele>28.0</ele><time>2026-04-12T09:09:48.99Z</time></trkpt><trkpt lat="44.9244754" lon="13.8338818"><ele>27.75</ele><time>2026-04-12T09:09:49.986Z</time></trkpt><trkpt lat="44.9244172" lon="13.8337345"><ele>27.5</ele><time>2026-04-12T09:09:50.984Z</time></trkpt><trkpt lat="44.9243559" lon="13.8335808"><ele>27.25</ele><time>2026-04-12T09:09:51.991Z</time></trkpt><trkpt lat="44.924291" lon="13.8334239"><ele>27.0</ele><time>2026-04-12T09:09:52.991Z</time></trkpt><trkpt lat="44.9242272" lon="13.8332575"><ele>26.0</ele><time>2026-04-12T09:09:53.984Z</time></trkpt><trkpt lat="44.924163" lon="13.83309"><ele>25.0</ele><time>2026-04-12T09:09:54.988Z</time></trkpt><trkpt lat="44.9240998" lon="13.8329263"><ele>24.0</ele><time>2026-04-12T09:09:55.991Z</time></trkpt><trkpt lat="44.9240367" lon="13.8327659"><ele>23.0</ele><time>2026-04-12T09:09:56.987Z</time></trkpt><trkpt lat="44.9239722" lon="13.8326069"><ele>23.0</ele><time>2026-04-12T09:09:57.987Z</time></trkpt><trkpt lat="44.9239074" lon="13.8324442"><ele>23.0</ele><time>2026-04-12T09:09:58.987Z</time></trkpt><trkpt lat="44.923842" lon="13.8322774"><ele>23.0</ele><time>2026-04-12T09:09:59.996Z</time></trkpt><trkpt lat="44.9237744" lon="13.8321142"><ele>23.0</ele><time>2026-04-12T09:10:00.985Z</time></trkpt><trkpt lat="44.9237056" lon="13.8319507"><ele>22.5</ele><time>2026-04-12T09:10:01.988Z</time></trkpt><trkpt lat="44.9236364" lon="13.8317896"><ele>22.0</ele><time>2026-04-12T09:10:02.994Z</time></trkpt><trkpt lat="44.9235691" lon="13.8316303"><ele>21.5</ele><time>2026-04-12T09:10:03.99Z</time></trkpt><trkpt lat="44.9234989" lon="13.8314746"><ele>21.0</ele><time>2026-04-12T09:10:04.994Z</time></trkpt><trkpt lat="44.9234263" lon="13.8313211"><ele>20.5</ele><time>2026-04-12T09:10:05.987Z</time></trkpt><trkpt lat="44.923348" lon="13.8311713"><ele>20.0</ele><time>2026-04-12T09:10:07.001Z</time></trkpt><trkpt lat="44.9232697" lon="13.8310284"><ele>19.5</ele><time>2026-04-12T09:10:07.984Z</time></trkpt><trkpt lat="44.9231894" lon="13.830881"><ele>19.0</ele><time>2026-04-12T09:10:08.994Z</time></trkpt><trkpt lat="44.9231112" lon="13.8307337"><ele>19.0</ele><time>2026-04-12T09:10:09.985Z</time></trkpt><trkpt lat="44.9230347" lon="13.8305809"><ele>19.0</ele><time>2026-04-12T09:10:10.993Z</time></trkpt><trkpt lat="44.9229593" lon="13.8304292"><ele>19.0</ele><time>2026-04-12T09:10:11.99Z</time></trkpt><trkpt lat="44.9228887" lon="13.8302821"><ele>19.0</ele><time>2026-04-12T09:10:12.986Z</time></trkpt><trkpt lat="44.9228245" lon="13.8301373"><ele>19.0</ele><time>2026-04-12T09:10:13.987Z</time></trkpt><trkpt lat="44.9227677" lon="13.8299911"><ele>19.0</ele><time>2026-04-12T09:10:14.988Z</time></trkpt><trkpt lat="44.9227296" lon="13.8298422"><ele>19.0</ele><time>2026-04-12T09:10:15.987Z</time></trkpt><trkpt lat="44.9227167" lon="13.8296881"><ele>19.0</ele><time>2026-04-12T09:10:16.982Z</time></trkpt><trkpt lat="44.9227306" lon="13.829531"><ele>19.0</ele><time>2026-04-12T09:10:17.988Z</time></trkpt><trkpt lat="44.9227677" lon="13.8293708"><ele>19.0</ele><time>2026-04-12T09:10:18.985Z</time></trkpt><trkpt lat="44.9228103" lon="13.8292052"><ele>19.0</ele><time>2026-04-12T09:10:19.986Z</time></trkpt><trkpt lat="44.9228541" lon="13.8290289"><ele>19.0</ele><time>2026-04-12T09:10:20.989Z</time></trkpt><trkpt lat="44.9228903" lon="13.8288525"><ele>18.75</ele><time>2026-04-12T09:10:21.99Z</time></trkpt><trkpt lat="44.9229269" lon="13.8286745"><ele>18.5</ele><time>2026-04-12T09:10:22.983Z</time></trkpt><trkpt lat="44.9229667" lon="13.8284939"><ele>18.25</ele><time>2026-04-12T09:10:23.987Z</time></trkpt><trkpt lat="44.9230104" lon="13.8283075"><ele>18.0</ele><time>2026-04-12T09:10:24.986Z</time></trkpt><trkpt lat="44.9230582" lon="13.82811"><ele>17.666666666666668</ele><time>2026-04-12T09:10:25.989Z</time></trkpt><trkpt lat="44.9231096" lon="13.8279097"><ele>17.333333333333336</ele><time>2026-04-12T09:10:26.985Z</time></trkpt><trkpt lat="44.9231588" lon="13.8277111"><ele>17.0</ele><time>2026-04-12T09:10:27.997Z</time></trkpt><trkpt lat="44.9232024" lon="13.8275075"><ele>16.666666666666668</ele><time>2026-04-12T09:10:28.987Z</time></trkpt><trkpt lat="44.9232448" lon="13.8273007"><ele>16.333333333333332</ele><time>2026-04-12T09:10:29.99Z</time></trkpt><trkpt lat="44.9232825" lon="13.8270942"><ele>16.0</ele><time>2026-04-12T09:10:30.989Z</time></trkpt><trkpt lat="44.9233193" lon="13.8268863"><ele>15.666666666666666</ele><time>2026-04-12T09:10:31.986Z</time></trkpt><trkpt lat="44.9233535" lon="13.8266802"><ele>15.333333333333332</ele><time>2026-04-12T09:10:32.988Z</time></trkpt><trkpt lat="44.9233959" lon="13.8264706"><ele>15.0</ele><time>2026-04-12T09:10:33.986Z</time></trkpt><trkpt lat="44.9234455" lon="13.8262703"><ele>15.25</ele><time>2026-04-12T09:10:34.987Z</time></trkpt><trkpt lat="44.9235072" lon="13.8260814"><ele>15.5</ele><time>2026-04-12T09:10:35.988Z</time></trkpt><trkpt lat="44.9235708" lon="13.8258933"><ele>15.75</ele><time>2026-04-12T09:10:36.983Z</time></trkpt><trkpt lat="44.9236327" lon="13.8257052"><ele>16.0</ele><time>2026-04-12T09:10:37.985Z</time></trkpt><trkpt lat="44.9236944" lon="13.8255141"><ele>16.0</ele><time>2026-04-12T09:10:38.983Z</time></trkpt><trkpt lat="44.9237413" lon="13.8253182"><ele>16.0</ele><time>2026-04-12T09:10:39.985Z</time></trkpt><trkpt lat="44.9237826" lon="13.8251186"><ele>16.0</ele><time>2026-04-12T09:10:40.988Z</time></trkpt><trkpt lat="44.9238148" lon="13.8249129"><ele>16.0</ele><time>2026-04-12T09:10:41.989Z</time></trkpt><trkpt lat="44.9238463" lon="13.8247052"><ele>15.25</ele><time>2026-04-12T09:10:42.986Z</time></trkpt><trkpt lat="44.9238718" lon="13.8245005"><ele>14.5</ele><time>2026-04-12T09:10:43.984Z</time></trkpt><trkpt lat="44.9238989" lon="13.824294"><ele>13.75</ele><time>2026-04-12T09:10:44.991Z</time></trkpt><trkpt lat="44.923931" lon="13.8240846"><ele>13.0</ele><time>2026-04-12T09:10:45.988Z</time></trkpt><trkpt lat="44.923963" lon="13.8238811"><ele>13.0</ele><time>2026-04-12T09:10:46.987Z</time></trkpt><trkpt lat="44.9240014" lon="13.8236781"><ele>13.0</ele><time>2026-04-12T09:10:47.987Z</time></trkpt><trkpt lat="44.9240426" lon="13.823471"><ele>13.0</ele><time>2026-04-12T09:10:48.992Z</time></trkpt><trkpt lat="44.9240838" lon="13.8232611"><ele>13.333333333333332</ele><time>2026-04-12T09:10:49.994Z</time></trkpt><trkpt lat="44.9241279" lon="13.8230488"><ele>13.666666666666668</ele><time>2026-04-12T09:10:50.984Z</time></trkpt><trkpt lat="44.9241714" lon="13.8228377"><ele>14.0</ele><time>2026-04-12T09:10:51.992Z</time></trkpt><trkpt lat="44.924213" lon="13.822626"><ele>14.666666666666668</ele><time>2026-04-12T09:10:52.986Z</time></trkpt><trkpt lat="44.9242508" lon="13.8224169"><ele>15.333333333333332</ele><time>2026-04-12T09:10:53.995Z</time></trkpt><trkpt lat="44.9242909" lon="13.8222081"><ele>16.0</ele><time>2026-04-12T09:10:54.988Z</time></trkpt><trkpt lat="44.9243343" lon="13.8220004"><ele>16.333333333333332</ele><time>2026-04-12T09:10:55.987Z</time></trkpt><trkpt lat="44.9243786" lon="13.8217957"><ele>16.666666666666668</ele><time>2026-04-12T09:10:56.986Z</time></trkpt><trkpt lat="44.9244282" lon="13.8215909"><ele>17.0</ele><time>2026-04-12T09:10:57.983Z</time></trkpt><trkpt lat="44.9244821" lon="13.821386"><ele>17.0</ele><time>2026-04-12T09:10:58.988Z</time></trkpt><trkpt lat="44.9245415" lon="13.8211868"><ele>17.0</ele><time>2026-04-12T09:10:59.99Z</time></trkpt><trkpt lat="44.9246043" lon="13.820991"><ele>17.0</ele><time>2026-04-12T09:11:00.986Z</time></trkpt><trkpt lat="44.9246689" lon="13.8207878"><ele>16.0</ele><time>2026-04-12T09:11:01.985Z</time></trkpt><trkpt lat="44.924725" lon="13.8205785"><ele>15.0</ele><time>2026-04-12T09:11:02.984Z</time></trkpt><trkpt lat="44.9247718" lon="13.8203644"><ele>14.0</ele><time>2026-04-12T09:11:03.985Z</time></trkpt><trkpt lat="44.9248113" lon="13.8201469"><ele>14.0</ele><time>2026-04-12T09:11:04.992Z</time></trkpt><trkpt lat="44.9248518" lon="13.8199304"><ele>14.0</ele><time>2026-04-12T09:11:05.985Z</time></trkpt><trkpt lat="44.9248895" lon="13.8197204"><ele>14.0</ele><time>2026-04-12T09:11:06.988Z</time></trkpt><trkpt lat="44.9249334" lon="13.8195128"><ele>14.0</ele><time>2026-04-12T09:11:07.985Z</time></trkpt><trkpt lat="44.9249794" lon="13.8193081"><ele>14.0</ele><time>2026-04-12T09:11:08.992Z</time></trkpt><trkpt lat="44.9250302" lon="13.8191011"><ele>14.0</ele><time>2026-04-12T09:11:09.991Z</time></trkpt><trkpt lat="44.9250807" lon="13.8188917"><ele>14.333333333333334</ele><time>2026-04-12T09:11:10.982Z</time></trkpt><trkpt lat="44.9251321" lon="13.818683"><ele>14.666666666666668</ele><time>2026-04-12T09:11:11.99Z</time></trkpt><trkpt lat="44.9251825" lon="13.8184696"><ele>15.0</ele><time>2026-04-12T09:11:12.984Z</time></trkpt><trkpt lat="44.9252286" lon="13.8182588"><ele>15.0</ele><time>2026-04-12T09:11:13.991Z</time></trkpt><trkpt lat="44.9252764" lon="13.8180561"><ele>15.0</ele><time>2026-04-12T09:11:14.985Z</time></trkpt><trkpt lat="44.9253213" lon="13.8178549"><ele>15.0</ele><time>2026-04-12T09:11:15.984Z</time></trkpt><trkpt lat="44.9253616" lon="13.8176638"><ele>15.0</ele><time>2026-04-12T09:11:16.996Z</time></trkpt><trkpt lat="44.9254008" lon="13.8174831"><ele>15.0</ele><time>2026-04-12T09:11:17.986Z</time></trkpt><trkpt lat="44.9254334" lon="13.8173086"><ele>15.0</ele><time>2026-04-12T09:11:18.996Z</time></trkpt><trkpt lat="44.9254683" lon="13.8171473"><ele>15.0</ele><time>2026-04-12T09:11:19.996Z</time></trkpt><trkpt lat="44.9254969" lon="13.8170097"><ele>15.0</ele><time>2026-04-12T09:11:20.987Z</time></trkpt><trkpt lat="44.9255194" lon="13.8168962"><ele>15.0</ele><time>2026-04-12T09:11:21.985Z</time></trkpt><trkpt lat="44.9255784" lon="13.8167605"><ele>14.8</ele><time>2026-04-12T09:11:23.984Z</time></trkpt><trkpt lat="44.9256944" lon="13.8167284"><ele>14.6</ele><time>2026-04-12T09:11:25.988Z</time></trkpt><trkpt lat="44.925771" lon="13.8167263"><ele>14.399999999999999</ele><time>2026-04-12T09:11:26.988Z</time></trkpt><trkpt lat="44.9258624" lon="13.8167238"><ele>14.2</ele><time>2026-04-12T09:11:27.984Z</time></trkpt><trkpt lat="44.9259614" lon="13.8167119"><ele>14.0</ele><time>2026-04-12T09:11:28.983Z</time></trkpt><trkpt lat="44.9260619" lon="13.8166911"><ele>14.399999999999999</ele><time>2026-04-12T09:11:29.989Z</time></trkpt><trkpt lat="44.9261624" lon="13.8166622"><ele>14.799999999999999</ele><time>2026-04-12T09:11:30.984Z</time></trkpt><trkpt lat="44.9262719" lon="13.8166396"><ele>15.200000000000001</ele><time>2026-04-12T09:11:31.984Z</time></trkpt><trkpt lat="44.9263856" lon="13.8166347"><ele>15.600000000000001</ele><time>2026-04-12T09:11:32.991Z</time></trkpt><trkpt lat="44.9265004" lon="13.8166358"><ele>16.0</ele><time>2026-04-12T09:11:33.988Z</time></trkpt><trkpt lat="44.9266149" lon="13.8166401"><ele>16.75</ele><time>2026-04-12T09:11:34.987Z</time></trkpt><trkpt lat="44.9267307" lon="13.8166451"><ele>17.5</ele><time>2026-04-12T09:11:35.987Z</time></trkpt><trkpt lat="44.9268503" lon="13.8166495"><ele>18.25</ele><time>2026-04-12T09:11:36.984Z</time></trkpt><trkpt lat="44.9269675" lon="13.8166492"><ele>19.0</ele><time>2026-04-12T09:11:37.996Z</time></trkpt><trkpt lat="44.927091" lon="13.8166334"><ele>19.0</ele><time>2026-04-12T09:11:38.987Z</time></trkpt><trkpt lat="44.9272141" lon="13.8166021"><ele>19.0</ele><time>2026-04-12T09:11:39.983Z</time></trkpt><trkpt lat="44.9273417" lon="13.8165677"><ele>19.0</ele><time>2026-04-12T09:11:40.993Z</time></trkpt><trkpt lat="44.9274743" lon="13.8165252"><ele>19.0</ele><time>2026-04-12T09:11:41.986Z</time></trkpt><trkpt lat="44.9276033" lon="13.8164824"><ele>19.25</ele><time>2026-04-12T09:11:42.987Z</time></trkpt><trkpt lat="44.9277215" lon="13.8164347"><ele>19.5</ele><time>2026-04-12T09:11:43.987Z</time></trkpt><trkpt lat="44.9278359" lon="13.8163688"><ele>19.75</ele><time>2026-04-12T09:11:44.988Z</time></trkpt><trkpt lat="44.9279349" lon="13.816285"><ele>20.0</ele><time>2026-04-12T09:11:45.988Z</time></trkpt><trkpt lat="44.928021" lon="13.8161855"><ele>20.0</ele><time>2026-04-12T09:11:46.984Z</time></trkpt><trkpt lat="44.9280987" lon="13.8160936"><ele>20.0</ele><time>2026-04-12T09:11:47.986Z</time></trkpt><trkpt lat="44.9281696" lon="13.8160101"><ele>20.0</ele><time>2026-04-12T09:11:48.983Z</time></trkpt><trkpt lat="44.9282349" lon="13.8159347"><ele>20.0</ele><time>2026-04-12T09:11:49.989Z</time></trkpt><trkpt lat="44.9282967" lon="13.8158703"><ele>20.0</ele><time>2026-04-12T09:11:50.985Z</time></trkpt><trkpt lat="44.9283575" lon="13.8158158"><ele>20.0</ele><time>2026-04-12T09:11:51.985Z</time></trkpt><trkpt lat="44.9284283" lon="13.815763"><ele>20.0</ele><time>2026-04-12T09:11:52.982Z</time></trkpt><trkpt lat="44.9285089" lon="13.8157215"><ele>20.0</ele><time>2026-04-12T09:11:53.983Z</time></trkpt><trkpt lat="44.9286011" lon="13.8156932"><ele>20.0</ele><time>2026-04-12T09:11:54.983Z</time></trkpt><trkpt lat="44.9287073" lon="13.8156728"><ele>20.0</ele><time>2026-04-12T09:11:55.986Z</time></trkpt><trkpt lat="44.9288063" lon="13.8156558"><ele>20.0</ele><time>2026-04-12T09:11:56.985Z</time></trkpt><trkpt lat="44.9289017" lon="13.8156405"><ele>20.0</ele><time>2026-04-12T09:11:57.985Z</time></trkpt><trkpt lat="44.9289928" lon="13.815622"><ele>20.0</ele><time>2026-04-12T09:11:58.985Z</time></trkpt><trkpt lat="44.9290819" lon="13.8156008"><ele>20.0</ele><time>2026-04-12T09:11:59.987Z</time></trkpt><trkpt lat="44.9291724" lon="13.815585"><ele>20.0</ele><time>2026-04-12T09:12:00.99Z</time></trkpt><trkpt lat="44.9292576" lon="13.8155732"><ele>20.0</ele><time>2026-04-12T09:12:01.995Z</time></trkpt><trkpt lat="44.9293371" lon="13.8155587"><ele>20.0</ele><time>2026-04-12T09:12:02.988Z</time></trkpt><trkpt lat="44.9294133" lon="13.8155461"><ele>20.666666666666668</ele><time>2026-04-12T09:12:03.984Z</time></trkpt><trkpt lat="44.9294788" lon="13.8155383"><ele>21.333333333333336</ele><time>2026-04-12T09:12:04.989Z</time></trkpt><trkpt lat="44.9295426" lon="13.8155289"><ele>22.0</ele><time>2026-04-12T09:12:05.986Z</time></trkpt><trkpt lat="44.9296652" lon="13.8155158"><ele>22.666666666666668</ele><time>2026-04-12T09:12:07.986Z</time></trkpt><trkpt lat="44.9297355" lon="13.8154961"><ele>23.333333333333332</ele><time>2026-04-12T09:12:08.988Z</time></trkpt><trkpt lat="44.9298137" lon="13.8154829"><ele>24.0</ele><time>2026-04-12T09:12:09.986Z</time></trkpt><trkpt lat="44.9298944" lon="13.8154739"><ele>24.0</ele><time>2026-04-12T09:12:10.984Z</time></trkpt><trkpt lat="44.9299789" lon="13.8154677"><ele>24.0</ele><time>2026-04-12T09:12:11.986Z</time></trkpt><trkpt lat="44.9300595" lon="13.81546"><ele>24.0</ele><time>2026-04-12T09:12:12.985Z</time></trkpt><trkpt lat="44.9301386" lon="13.8154451"><ele>24.0</ele><time>2026-04-12T09:12:13.984Z</time></trkpt><trkpt lat="44.9302174" lon="13.8154393"><ele>24.0</ele><time>2026-04-12T09:12:14.987Z</time></trkpt><trkpt lat="44.9302958" lon="13.8154314"><ele>24.0</ele><time>2026-04-12T09:12:15.997Z</time></trkpt><trkpt lat="44.9303726" lon="13.8154202"><ele>24.333333333333332</ele><time>2026-04-12T09:12:16.995Z</time></trkpt><trkpt lat="44.9304526" lon="13.8154099"><ele>24.666666666666664</ele><time>2026-04-12T09:12:17.988Z</time></trkpt><trkpt lat="44.9305287" lon="13.8154062"><ele>25.0</ele><time>2026-04-12T09:12:18.99Z</time></trkpt><trkpt lat="44.9306076" lon="13.8154023"><ele>25.333333333333332</ele><time>2026-04-12T09:12:19.987Z</time></trkpt><trkpt lat="44.9306958" lon="13.8154189"><ele>25.666666666666664</ele><time>2026-04-12T09:12:20.988Z</time></trkpt><trkpt lat="44.9307902" lon="13.8154439"><ele>26.0</ele><time>2026-04-12T09:12:21.993Z</time></trkpt><trkpt lat="44.9308838" lon="13.8154692"><ele>26.499999999999996</ele><time>2026-04-12T09:12:22.985Z</time></trkpt><trkpt lat="44.9309722" lon="13.8154909"><ele>27.0</ele><time>2026-04-12T09:12:23.983Z</time></trkpt><trkpt lat="44.9310667" lon="13.8155099"><ele>27.5</ele><time>2026-04-12T09:12:24.989Z</time></trkpt><trkpt lat="44.9311558" lon="13.8155289"><ele>28.0</ele><time>2026-04-12T09:12:25.987Z</time></trkpt><trkpt lat="44.9312442" lon="13.8155463"><ele>28.499999999999996</ele><time>2026-04-12T09:12:26.99Z</time></trkpt><trkpt lat="44.9313247" lon="13.8155645"><ele>29.0</ele><time>2026-04-12T09:12:27.989Z</time></trkpt><trkpt lat="44.9313971" lon="13.8155814"><ele>28.999999999999996</ele><time>2026-04-12T09:12:28.987Z</time></trkpt><trkpt lat="44.9314688" lon="13.8155922"><ele>29.0</ele><time>2026-04-12T09:12:29.987Z</time></trkpt><trkpt lat="44.9315521" lon="13.8155847"><ele>29.0</ele><time>2026-04-12T09:12:30.991Z</time></trkpt><trkpt lat="44.9316332" lon="13.8155662"><ele>29.0</ele><time>2026-04-12T09:12:31.991Z</time></trkpt><trkpt lat="44.9317125" lon="13.8155399"><ele>28.999999999999996</ele><time>2026-04-12T09:12:32.991Z</time></trkpt><trkpt lat="44.9317948" lon="13.8155163"><ele>29.0</ele><time>2026-04-12T09:12:33.99Z</time></trkpt><trkpt lat="44.931872" lon="13.8154884"><ele>29.499999999999996</ele><time>2026-04-12T09:12:34.987Z</time></trkpt><trkpt lat="44.9319401" lon="13.8154625"><ele>30.0</ele><time>2026-04-12T09:12:35.989Z</time></trkpt><trkpt lat="44.9320028" lon="13.8154463"><ele>30.5</ele><time>2026-04-12T09:12:36.992Z</time></trkpt><trkpt lat="44.9320967" lon="13.8154365"><ele>31.0</ele><time>2026-04-12T09:12:38.987Z</time></trkpt><trkpt lat="44.9321731" lon="13.8154368"><ele>31.499999999999996</ele><time>2026-04-12T09:12:40.982Z</time></trkpt><trkpt lat="44.932252" lon="13.8154457"><ele>32.0</ele><time>2026-04-12T09:12:43.995Z</time></trkpt><trkpt lat="44.9323411" lon="13.8154561"><ele>32.0</ele><time>2026-04-12T09:12:46.982Z</time></trkpt><trkpt lat="44.9323922" lon="13.815399"><ele>32.0</ele><time>2026-04-12T09:12:49.989Z</time></trkpt><trkpt lat="44.9324116" lon="13.8153123"><ele>32.0</ele><time>2026-04-12T09:12:51.986Z</time></trkpt><trkpt lat="44.9324446" lon="13.8152081"><ele>32.0</ele><time>2026-04-12T09:12:53.986Z</time></trkpt><trkpt lat="44.9324688" lon="13.815069"><ele>32.0</ele><time>2026-04-12T09:12:55.985Z</time></trkpt><trkpt lat="44.932464" lon="13.8148713"><ele>31.833333333333332</ele><time>2026-04-12T09:12:57.992Z</time></trkpt><trkpt lat="44.932466" lon="13.8147707"><ele>31.666666666666664</ele><time>2026-04-12T09:12:58.989Z</time></trkpt><trkpt lat="44.9324658" lon="13.8146565"><ele>31.5</ele><time>2026-04-12T09:12:59.993Z</time></trkpt><trkpt lat="44.9324607" lon="13.8145355"><ele>31.333333333333336</ele><time>2026-04-12T09:13:00.988Z</time></trkpt><trkpt lat="44.9324583" lon="13.8143988"><ele>31.166666666666668</ele><time>2026-04-12T09:13:01.985Z</time></trkpt><trkpt lat="44.9324494" lon="13.8142641"><ele>31.0</ele><time>2026-04-12T09:13:02.993Z</time></trkpt><trkpt lat="44.9324341" lon="13.8141404"><ele>30.833333333333336</ele><time>2026-04-12T09:13:03.983Z</time></trkpt><trkpt lat="44.9324154" lon="13.8140267"><ele>30.666666666666668</ele><time>2026-04-12T09:13:04.988Z</time></trkpt><trkpt lat="44.9324109" lon="13.813924"><ele>30.5</ele><time>2026-04-12T09:13:05.988Z</time></trkpt><trkpt lat="44.932387" lon="13.8137882"><ele>30.333333333333336</ele><time>2026-04-12T09:13:07.986Z</time></trkpt><trkpt lat="44.9323194" lon="13.8137131"><ele>30.166666666666668</ele><time>2026-04-12T09:13:09.987Z</time></trkpt><trkpt lat="44.9322314" lon="13.8137334"><ele>30.0</ele><time>2026-04-12T09:13:20.988Z</time></trkpt><trkpt lat="44.9321669" lon="13.813734"><ele>30.0</ele><time>2026-04-12T09:13:22.994Z</time></trkpt><trkpt lat="44.9321142" lon="13.8136649"><ele>30.0</ele><time>2026-04-12T09:13:26.987Z</time></trkpt><trkpt lat="44.9320809" lon="13.8135713"><ele>30.0</ele><time>2026-04-12T09:13:29.988Z</time></trkpt><trkpt lat="44.9320136" lon="13.8134389"><ele>30.0</ele><time>2026-04-12T09:13:31.99Z</time></trkpt><trkpt lat="44.9319532" lon="13.8133435"><ele>30.0</ele><time>2026-04-12T09:13:33.985Z</time></trkpt><trkpt lat="44.9319184" lon="13.813258"><ele>30.0</ele><time>2026-04-12T09:13:35.988Z</time></trkpt><trkpt lat="44.9319167" lon="13.8131602"><ele>30.0</ele><time>2026-04-12T09:13:38.993Z</time></trkpt><trkpt lat="44.9318666" lon="13.8130706"><ele>30.0</ele><time>2026-04-12T09:13:42.985Z</time></trkpt><trkpt lat="44.9318873" lon="13.8131781"><ele>30.0</ele><time>2026-04-12T09:13:53.988Z</time></trkpt><trkpt lat="44.9319207" lon="13.81326"><ele>30.0</ele><time>2026-04-12T09:13:54.989Z</time></trkpt><trkpt lat="44.9319651" lon="13.8133934"><ele>30.0</ele><time>2026-04-12T09:13:56.992Z</time></trkpt><trkpt lat="44.9320402" lon="13.8135086"><ele>30.0</ele><time>2026-04-12T09:13:58.99Z</time></trkpt><trkpt lat="44.9320872" lon="13.8136545"><ele>30.0</ele><time>2026-04-12T09:14:00.988Z</time></trkpt><trkpt lat="44.9321564" lon="13.8137547"><ele>30.0</ele><time>2026-04-12T09:14:02.988Z</time></trkpt><trkpt lat="44.9322277" lon="13.8137369"><ele>30.0</ele><time>2026-04-12T09:14:04.991Z</time></trkpt><trkpt lat="44.9322431" lon="13.8136375"><ele>30.0</ele><time>2026-04-12T09:14:07.989Z</time></trkpt><trkpt lat="44.9322371" lon="13.8135438"><ele>30.0</ele><time>2026-04-12T09:14:10.99Z</time></trkpt><trkpt lat="44.9322361" lon="13.8133997"><ele>30.0</ele><time>2026-04-12T09:14:13.985Z</time></trkpt><trkpt lat="44.9322205" lon="13.8132648"><ele>29.5</ele><time>2026-04-12T09:14:15.992Z</time></trkpt><trkpt lat="44.9321692" lon="13.8129697"><ele>29.0</ele><time>2026-04-12T09:14:17.994Z</time></trkpt><trkpt lat="44.9321286" lon="13.8127957"><ele>28.5</ele><time>2026-04-12T09:14:18.985Z</time></trkpt><trkpt lat="44.9320876" lon="13.8127124"><ele>28.0</ele><time>2026-04-12T09:14:19.984Z</time></trkpt><trkpt lat="44.9320546" lon="13.8126149"><ele>28.0</ele><time>2026-04-12T09:14:20.981Z</time></trkpt><trkpt lat="44.9320158" lon="13.8125233"><ele>28.0</ele><time>2026-04-12T09:14:21.99Z</time></trkpt><trkpt lat="44.9319763" lon="13.8124293"><ele>28.0</ele><time>2026-04-12T09:14:22.989Z</time></trkpt><trkpt lat="44.931942" lon="13.8123374"><ele>28.0</ele><time>2026-04-12T09:14:23.989Z</time></trkpt><trkpt lat="44.9319092" lon="13.812253"><ele>28.0</ele><time>2026-04-12T09:14:24.99Z</time></trkpt><trkpt lat="44.9318781" lon="13.8121721"><ele>28.0</ele><time>2026-04-12T09:14:25.992Z</time></trkpt><trkpt lat="44.9318541" lon="13.8120793"><ele>28.0</ele><time>2026-04-12T09:14:26.99Z</time></trkpt><trkpt lat="44.9318403" lon="13.811989"><ele>28.0</ele><time>2026-04-12T09:14:27.993Z</time></trkpt><trkpt lat="44.9318334" lon="13.8118419"><ele>27.999999999999996</ele><time>2026-04-12T09:14:29.987Z</time></trkpt><trkpt lat="44.9318152" lon="13.8117437"><ele>27.999999999999996</ele><time>2026-04-12T09:14:32.995Z</time></trkpt><trkpt lat="44.931869" lon="13.8116794"><ele>28.0</ele><time>2026-04-12T09:14:39.907Z</time></trkpt><trkpt lat="44.9319792" lon="13.8116649"><ele>28.0</ele><time>2026-04-12T09:14:41.989Z</time></trkpt><trkpt lat="44.9320713" lon="13.8116739"><ele>27.833333333333336</ele><time>2026-04-12T09:14:42.987Z</time></trkpt><trkpt lat="44.9321558" lon="13.8116992"><ele>27.666666666666668</ele><time>2026-04-12T09:14:43.989Z</time></trkpt><trkpt lat="44.9322295" lon="13.8117226"><ele>27.5</ele><time>2026-04-12T09:14:44.985Z</time></trkpt><trkpt lat="44.9323027" lon="13.8117412"><ele>27.333333333333336</ele><time>2026-04-12T09:14:45.985Z</time></trkpt><trkpt lat="44.9323752" lon="13.8117544"><ele>27.166666666666668</ele><time>2026-04-12T09:14:46.987Z</time></trkpt><trkpt lat="44.9324468" lon="13.8117617"><ele>27.0</ele><time>2026-04-12T09:14:47.985Z</time></trkpt><trkpt lat="44.9325153" lon="13.8117605"><ele>27.333333333333332</ele><time>2026-04-12T09:14:48.987Z</time></trkpt><trkpt lat="44.9325795" lon="13.8117502"><ele>27.666666666666664</ele><time>2026-04-12T09:14:49.993Z</time></trkpt><trkpt lat="44.9326416" lon="13.8117287"><ele>28.0</ele><time>2026-04-12T09:14:50.983Z</time></trkpt><trkpt lat="44.9327051" lon="13.8117012"><ele>28.333333333333332</ele><time>2026-04-12T09:14:51.988Z</time></trkpt><trkpt lat="44.9328237" lon="13.8116904"><ele>28.666666666666664</ele><time>2026-04-12T09:14:53.986Z</time></trkpt><trkpt lat="44.9329318" lon="13.8117032"><ele>29.0</ele><time>2026-04-12T09:14:55.988Z</time></trkpt><trkpt lat="44.9330435" lon="13.8117045"><ele>28.999999999999996</ele><time>2026-04-12T09:14:57.988Z</time></trkpt><trkpt lat="44.9331398" lon="13.8117102"><ele>29.0</ele><time>2026-04-12T09:14:59.986Z</time></trkpt><trkpt lat="44.9332068" lon="13.8117112"><ele>29.0</ele><time>2026-04-12T09:15:01.985Z</time></trkpt><trkpt lat="44.933273" lon="13.811717"><ele>29.0</ele><time>2026-04-12T09:15:03.989Z</time></trkpt><trkpt lat="44.9333543" lon="13.8117382"><ele>28.999999999999996</ele><time>2026-04-12T09:15:06.984Z</time></trkpt><trkpt lat="44.9334251" lon="13.8117439"><ele>29.0</ele><time>2026-04-12T09:15:08.985Z</time></trkpt><trkpt lat="44.9334995" lon="13.8117545"><ele>29.6</ele><time>2026-04-12T09:15:09.995Z</time></trkpt><trkpt lat="44.9336016" lon="13.8117871"><ele>30.2</ele><time>2026-04-12T09:15:10.993Z</time></trkpt><trkpt lat="44.9337219" lon="13.8118231"><ele>30.800000000000004</ele><time>2026-04-12T09:15:11.985Z</time></trkpt><trkpt lat="44.9338063" lon="13.8118552"><ele>31.400000000000002</ele><time>2026-04-12T09:15:12.986Z</time></trkpt><trkpt lat="44.9338895" lon="13.8118731"><ele>32.0</ele><time>2026-04-12T09:15:13.987Z</time></trkpt><trkpt lat="44.9339751" lon="13.8118922"><ele>31.999999999999996</ele><time>2026-04-12T09:15:14.99Z</time></trkpt><trkpt lat="44.9340585" lon="13.8119106"><ele>32.0</ele><time>2026-04-12T09:15:15.986Z</time></trkpt><trkpt lat="44.9341397" lon="13.8119302"><ele>32.0</ele><time>2026-04-12T09:15:16.983Z</time></trkpt><trkpt lat="44.9342197" lon="13.8119461"><ele>32.0</ele><time>2026-04-12T09:15:17.986Z</time></trkpt><trkpt lat="44.9342985" lon="13.8119699"><ele>31.999999999999996</ele><time>2026-04-12T09:15:18.989Z</time></trkpt><trkpt lat="44.9343735" lon="13.8120048"><ele>32.0</ele><time>2026-04-12T09:15:19.991Z</time></trkpt><trkpt lat="44.9344505" lon="13.8120529"><ele>32.666666666666664</ele><time>2026-04-12T09:15:20.995Z</time></trkpt><trkpt lat="44.9345284" lon="13.8121016"><ele>33.33333333333333</ele><time>2026-04-12T09:15:21.987Z</time></trkpt><trkpt lat="44.9346023" lon="13.8121503"><ele>34.0</ele><time>2026-04-12T09:15:22.99Z</time></trkpt><trkpt lat="44.9346716" lon="13.8121988"><ele>34.666666666666664</ele><time>2026-04-12T09:15:23.984Z</time></trkpt><trkpt lat="44.9347407" lon="13.8122449"><ele>35.333333333333336</ele><time>2026-04-12T09:15:24.984Z</time></trkpt><trkpt lat="44.934808" lon="13.8122853"><ele>36.0</ele><time>2026-04-12T09:15:25.986Z</time></trkpt><trkpt lat="44.9348832" lon="13.8123138"><ele>36.0</ele><time>2026-04-12T09:15:26.981Z</time></trkpt><trkpt lat="44.9349671" lon="13.81233"><ele>36.0</ele><time>2026-04-12T09:15:27.987Z</time></trkpt><trkpt lat="44.9350544" lon="13.8123467"><ele>36.0</ele><time>2026-04-12T09:15:28.988Z</time></trkpt><trkpt lat="44.9351428" lon="13.8123662"><ele>36.0</ele><time>2026-04-12T09:15:29.987Z</time></trkpt><trkpt lat="44.9352313" lon="13.8123895"><ele>36.0</ele><time>2026-04-12T09:15:30.99Z</time></trkpt><trkpt lat="44.9353156" lon="13.8124164"><ele>36.0</ele><time>2026-04-12T09:15:31.987Z</time></trkpt><trkpt lat="44.935397" lon="13.8124491"><ele>36.666666666666664</ele><time>2026-04-12T09:15:32.984Z</time></trkpt><trkpt lat="44.9354757" lon="13.8124738"><ele>37.333333333333336</ele><time>2026-04-12T09:15:33.993Z</time></trkpt><trkpt lat="44.9355534" lon="13.8124799"><ele>38.0</ele><time>2026-04-12T09:15:34.994Z</time></trkpt><trkpt lat="44.9356293" lon="13.8124632"><ele>38.66666666666667</ele><time>2026-04-12T09:15:35.996Z</time></trkpt><trkpt lat="44.9356966" lon="13.8124274"><ele>39.333333333333336</ele><time>2026-04-12T09:15:36.986Z</time></trkpt><trkpt lat="44.9357545" lon="13.8123892"><ele>40.0</ele><time>2026-04-12T09:15:37.99Z</time></trkpt><trkpt lat="44.9358369" lon="13.8123512"><ele>40.5</ele><time>2026-04-12T09:15:39.989Z</time></trkpt><trkpt lat="44.9358873" lon="13.8124305"><ele>41.0</ele><time>2026-04-12T09:15:42.985Z</time></trkpt><trkpt lat="44.9359017" lon="13.8125219"><ele>41.5</ele><time>2026-04-12T09:15:43.99Z</time></trkpt><trkpt lat="44.9359309" lon="13.8126228"><ele>42.0</ele><time>2026-04-12T09:15:44.991Z</time></trkpt><trkpt lat="44.9359781" lon="13.8127322"><ele>42.5</ele><time>2026-04-12T09:15:45.994Z</time></trkpt><trkpt lat="44.9360389" lon="13.8128434"><ele>43.0</ele><time>2026-04-12T09:15:46.983Z</time></trkpt><trkpt lat="44.936119" lon="13.8129366"><ele>43.0</ele><time>2026-04-12T09:15:47.987Z</time></trkpt><trkpt lat="44.9362199" lon="13.8130135"><ele>43.0</ele><time>2026-04-12T09:15:48.986Z</time></trkpt><trkpt lat="44.9363319" lon="13.8130772"><ele>43.0</ele><time>2026-04-12T09:15:49.989Z</time></trkpt><trkpt lat="44.9364489" lon="13.8131374"><ele>43.0</ele><time>2026-04-12T09:15:50.989Z</time></trkpt><trkpt lat="44.9365681" lon="13.8132013"><ele>43.0</ele><time>2026-04-12T09:15:51.982Z</time></trkpt><trkpt lat="44.9366882" lon="13.8132679"><ele>43.0</ele><time>2026-04-12T09:15:52.982Z</time></trkpt><trkpt lat="44.9368117" lon="13.813327"><ele>43.0</ele><time>2026-04-12T09:15:53.997Z</time></trkpt><trkpt lat="44.9369368" lon="13.8133843"><ele>43.0</ele><time>2026-04-12T09:15:54.985Z</time></trkpt><trkpt lat="44.9370777" lon="13.8134422"><ele>44.66666666666667</ele><time>2026-04-12T09:15:55.986Z</time></trkpt><trkpt lat="44.9372233" lon="13.8135007"><ele>46.333333333333336</ele><time>2026-04-12T09:15:56.984Z</time></trkpt><trkpt lat="44.9373721" lon="13.8135577"><ele>48.0</ele><time>2026-04-12T09:15:57.988Z</time></trkpt><trkpt lat="44.9375192" lon="13.8136041"><ele>48.66666666666667</ele><time>2026-04-12T09:15:58.986Z</time></trkpt><trkpt lat="44.9376725" lon="13.8136577"><ele>49.333333333333336</ele><time>2026-04-12T09:15:59.986Z</time></trkpt><trkpt lat="44.9378196" lon="13.8137223"><ele>50.0</ele><time>2026-04-12T09:16:00.987Z</time></trkpt><trkpt lat="44.9379674" lon="13.8137731"><ele>50.0</ele><time>2026-04-12T09:16:01.983Z</time></trkpt><trkpt lat="44.9381198" lon="13.8138284"><ele>50.0</ele><time>2026-04-12T09:16:02.987Z</time></trkpt><trkpt lat="44.9382739" lon="13.813868"><ele>50.0</ele><time>2026-04-12T09:16:03.991Z</time></trkpt><trkpt lat="44.9384226" lon="13.8139042"><ele>50.25</ele><time>2026-04-12T09:16:04.989Z</time></trkpt><trkpt lat="44.9385705" lon="13.8139323"><ele>50.5</ele><time>2026-04-12T09:16:05.983Z</time></trkpt><trkpt lat="44.9387215" lon="13.8139585"><ele>50.75</ele><time>2026-04-12T09:16:06.986Z</time></trkpt><trkpt lat="44.938866" lon="13.8139855"><ele>51.0</ele><time>2026-04-12T09:16:07.99Z</time></trkpt><trkpt lat="44.9390156" lon="13.8140097"><ele>51.0</ele><time>2026-04-12T09:16:08.984Z</time></trkpt><trkpt lat="44.9391571" lon="13.8140351"><ele>51.0</ele><time>2026-04-12T09:16:09.983Z</time></trkpt><trkpt lat="44.9393012" lon="13.8140632"><ele>51.0</ele><time>2026-04-12T09:16:10.988Z</time></trkpt><trkpt lat="44.9394471" lon="13.8141092"><ele>51.0</ele><time>2026-04-12T09:16:11.985Z</time></trkpt><trkpt lat="44.9395923" lon="13.814164"><ele>51.0</ele><time>2026-04-12T09:16:12.993Z</time></trkpt><trkpt lat="44.939741" lon="13.8142264"><ele>51.0</ele><time>2026-04-12T09:16:13.985Z</time></trkpt><trkpt lat="44.9398902" lon="13.8142974"><ele>51.0</ele><time>2026-04-12T09:16:14.99Z</time></trkpt><trkpt lat="44.9400403" lon="13.8143691"><ele>50.66666666666667</ele><time>2026-04-12T09:16:15.988Z</time></trkpt><trkpt lat="44.9401878" lon="13.8144375"><ele>50.333333333333336</ele><time>2026-04-12T09:16:16.988Z</time></trkpt><trkpt lat="44.9403342" lon="13.8145056"><ele>50.0</ele><time>2026-04-12T09:16:17.993Z</time></trkpt><trkpt lat="44.9404781" lon="13.8145685"><ele>50.0</ele><time>2026-04-12T09:16:18.991Z</time></trkpt><trkpt lat="44.9406211" lon="13.8146361"><ele>50.0</ele><time>2026-04-12T09:16:19.994Z</time></trkpt><trkpt lat="44.9407659" lon="13.8147035"><ele>50.0</ele><time>2026-04-12T09:16:20.986Z</time></trkpt><trkpt lat="44.9409106" lon="13.8147658"><ele>49.75</ele><time>2026-04-12T09:16:21.985Z</time></trkpt><trkpt lat="44.9410559" lon="13.8148249"><ele>49.5</ele><time>2026-04-12T09:16:22.991Z</time></trkpt><trkpt lat="44.9411953" lon="13.8148804"><ele>49.25</ele><time>2026-04-12T09:16:23.984Z</time></trkpt><trkpt lat="44.9413387" lon="13.8149297"><ele>49.0</ele><time>2026-04-12T09:16:24.995Z</time></trkpt><trkpt lat="44.9414793" lon="13.8149889"><ele>49.0</ele><time>2026-04-12T09:16:25.987Z</time></trkpt><trkpt lat="44.9416243" lon="13.8150593"><ele>49.0</ele><time>2026-04-12T09:16:26.99Z</time></trkpt><trkpt lat="44.9417638" lon="13.8151462"><ele>49.0</ele><time>2026-04-12T09:16:27.988Z</time></trkpt><trkpt lat="44.9418903" lon="13.8152501"><ele>49.25</ele><time>2026-04-12T09:16:28.986Z</time></trkpt><trkpt lat="44.9420141" lon="13.8153595"><ele>49.5</ele><time>2026-04-12T09:16:29.986Z</time></trkpt><trkpt lat="44.9421378" lon="13.8154747"><ele>49.75</ele><time>2026-04-12T09:16:30.987Z</time></trkpt><trkpt lat="44.9422584" lon="13.8155882"><ele>50.0</ele><time>2026-04-12T09:16:31.986Z</time></trkpt><trkpt lat="44.9423805" lon="13.8157003"><ele>50.0</ele><time>2026-04-12T09:16:32.985Z</time></trkpt><trkpt lat="44.9425104" lon="13.8158041"><ele>50.0</ele><time>2026-04-12T09:16:33.99Z</time></trkpt><trkpt lat="44.9426332" lon="13.8159105"><ele>50.0</ele><time>2026-04-12T09:16:34.987Z</time></trkpt><trkpt lat="44.9427492" lon="13.8160161"><ele>50.0</ele><time>2026-04-12T09:16:35.989Z</time></trkpt><trkpt lat="44.942847" lon="13.8161414"><ele>49.75</ele><time>2026-04-12T09:16:36.989Z</time></trkpt><trkpt lat="44.9429473" lon="13.8162732"><ele>49.5</ele><time>2026-04-12T09:16:37.987Z</time></trkpt><trkpt lat="44.9430334" lon="13.8164106"><ele>49.25</ele><time>2026-04-12T09:16:38.991Z</time></trkpt><trkpt lat="44.9431137" lon="13.8165483"><ele>49.0</ele><time>2026-04-12T09:16:39.991Z</time></trkpt><trkpt lat="44.9431784" lon="13.8166748"><ele>49.0</ele><time>2026-04-12T09:16:40.985Z</time></trkpt><trkpt lat="44.943218" lon="13.816793"><ele>49.0</ele><time>2026-04-12T09:16:41.989Z</time></trkpt><trkpt lat="44.9432475" lon="13.8168907"><ele>49.0</ele><time>2026-04-12T09:16:42.987Z</time></trkpt><trkpt lat="44.9432793" lon="13.8170235"><ele>49.0</ele><time>2026-04-12T09:16:44.99Z</time></trkpt><trkpt lat="44.9433534" lon="13.8170568"><ele>49.0</ele><time>2026-04-12T09:16:48.001Z</time></trkpt><trkpt lat="44.9434522" lon="13.8170018"><ele>48.99999999999999</ele><time>2026-04-12T09:16:49.988Z</time></trkpt><trkpt lat="44.9435173" lon="13.816965"><ele>49.0</ele><time>2026-04-12T09:16:50.992Z</time></trkpt><trkpt lat="44.9435881" lon="13.816929"><ele>49.0</ele><time>2026-04-12T09:16:51.993Z</time></trkpt><trkpt lat="44.9436607" lon="13.8168971"><ele>49.0</ele><time>2026-04-12T09:16:52.988Z</time></trkpt><trkpt lat="44.9437377" lon="13.8168647"><ele>48.99999999999999</ele><time>2026-04-12T09:16:53.991Z</time></trkpt><trkpt lat="44.9438141" lon="13.816843"><ele>49.0</ele><time>2026-04-12T09:16:54.99Z</time></trkpt><trkpt lat="44.9438849" lon="13.8168153"><ele>48.99999999999999</ele><time>2026-04-12T09:16:55.988Z</time></trkpt><trkpt lat="44.9439513" lon="13.8167728"><ele>49.0</ele><time>2026-04-12T09:16:57.989Z</time></trkpt><trkpt lat="44.9440166" lon="13.8167426"><ele>49.0</ele><time>2026-04-12T09:17:00.995Z</time></trkpt><trkpt lat="44.9440998" lon="13.8167254"><ele>49.0</ele><time>2026-04-12T09:17:04.988Z</time></trkpt><trkpt lat="44.9441765" lon="13.8166918"><ele>48.99999999999999</ele><time>2026-04-12T09:17:05.995Z</time></trkpt><trkpt lat="44.9443029" lon="13.8166416"><ele>49.0</ele><time>2026-04-12T09:17:06.986Z</time></trkpt><trkpt lat="44.9444122" lon="13.8165982"><ele>49.0</ele><time>2026-04-12T09:17:08.987Z</time></trkpt><trkpt lat="44.9445088" lon="13.8165529"><ele>49.0</ele><time>2026-04-12T09:17:10.994Z</time></trkpt><trkpt lat="44.9445967" lon="13.8165081"><ele>49.0</ele><time>2026-04-12T09:17:12.986Z</time></trkpt><trkpt lat="44.9447003" lon="13.8164607"><ele>49.0</ele><time>2026-04-12T09:17:14.995Z</time></trkpt><trkpt lat="44.9448045" lon="13.816407"><ele>49.0</ele><time>2026-04-12T09:17:16.984Z</time></trkpt><trkpt lat="44.9449031" lon="13.8163624"><ele>49.0</ele><time>2026-04-12T09:17:18.989Z</time></trkpt><trkpt lat="44.945013" lon="13.8163015"><ele>49.0</ele><time>2026-04-12T09:17:20.992Z</time></trkpt><trkpt lat="44.9451128" lon="13.8162446"><ele>49.0</ele><time>2026-04-12T09:17:22.988Z</time></trkpt><trkpt lat="44.9452142" lon="13.8162243"><ele>49.0</ele><time>2026-04-12T09:17:24.984Z</time></trkpt><trkpt lat="44.9453276" lon="13.8161801"><ele>49.0</ele><time>2026-04-12T09:17:26.99Z</time></trkpt><trkpt lat="44.9454337" lon="13.8161224"><ele>49.33333333333333</ele><time>2026-04-12T09:17:28.983Z</time></trkpt><trkpt lat="44.9455388" lon="13.8160769"><ele>49.666666666666664</ele><time>2026-04-12T09:17:30.986Z</time></trkpt><trkpt lat="44.9456348" lon="13.816044"><ele>50.0</ele><time>2026-04-12T09:17:32.988Z</time></trkpt><trkpt lat="44.9456995" lon="13.8160311"><ele>50.33333333333333</ele><time>2026-04-12T09:17:35.01Z</time></trkpt><trkpt lat="44.9457631" lon="13.8160174"><ele>50.666666666666664</ele><time>2026-04-12T09:17:36.995Z</time></trkpt><trkpt lat="44.9458424" lon="13.8160265"><ele>51.0</ele><time>2026-04-12T09:17:40.986Z</time></trkpt><trkpt lat="44.9459352" lon="13.8160655"><ele>51.666666666666664</ele><time>2026-04-12T09:17:43.985Z</time></trkpt><trkpt lat="44.9460422" lon="13.8160956"><ele>52.33333333333333</ele><time>2026-04-12T09:17:45.982Z</time></trkpt><trkpt lat="44.9461128" lon="13.8161067"><ele>53.0</ele><time>2026-04-12T09:17:47.985Z</time></trkpt><trkpt lat="44.9461862" lon="13.816127"><ele>53.666666666666664</ele><time>2026-04-12T09:17:49.987Z</time></trkpt><trkpt lat="44.9462649" lon="13.8161556"><ele>54.33333333333333</ele><time>2026-04-12T09:17:51.985Z</time></trkpt><trkpt lat="44.9463651" lon="13.8161892"><ele>55.0</ele><time>2026-04-12T09:17:52.986Z</time></trkpt><trkpt lat="44.9464681" lon="13.8162253"><ele>54.99999999999999</ele><time>2026-04-12T09:17:53.981Z</time></trkpt><trkpt lat="44.9465408" lon="13.8162546"><ele>55.0</ele><time>2026-04-12T09:17:54.98Z</time></trkpt><trkpt lat="44.9466155" lon="13.8162857"><ele>55.0</ele><time>2026-04-12T09:17:55.983Z</time></trkpt><trkpt lat="44.946689" lon="13.8163144"><ele>55.0</ele><time>2026-04-12T09:17:56.984Z</time></trkpt><trkpt lat="44.9467598" lon="13.8163447"><ele>54.99999999999999</ele><time>2026-04-12T09:17:57.99Z</time></trkpt><trkpt lat="44.9468294" lon="13.8163732"><ele>55.0</ele><time>2026-04-12T09:17:58.99Z</time></trkpt><trkpt lat="44.9469045" lon="13.8163987"><ele>54.99999999999999</ele><time>2026-04-12T09:17:59.998Z</time></trkpt><trkpt lat="44.9469687" lon="13.8164243"><ele>55.0</ele><time>2026-04-12T09:18:00.985Z</time></trkpt><trkpt lat="44.9470757" lon="13.816455"><ele>55.0</ele><time>2026-04-12T09:18:02.985Z</time></trkpt><trkpt lat="44.947148" lon="13.8164586"><ele>55.0</ele><time>2026-04-12T09:18:05.997Z</time></trkpt><trkpt lat="44.9472255" lon="13.8163498"><ele>54.99999999999999</ele><time>2026-04-12T09:18:08.987Z</time></trkpt><trkpt lat="44.9472506" lon="13.8162619"><ele>55.0</ele><time>2026-04-12T09:18:09.997Z</time></trkpt><trkpt lat="44.9472683" lon="13.8161662"><ele>55.0</ele><time>2026-04-12T09:18:11.003Z</time></trkpt><trkpt lat="44.9472908" lon="13.8160489"><ele>55.0</ele><time>2026-04-12T09:18:11.988Z</time></trkpt><trkpt lat="44.9473207" lon="13.8159165"><ele>55.0</ele><time>2026-04-12T09:18:12.988Z</time></trkpt><trkpt lat="44.9473591" lon="13.815766"><ele>55.0</ele><time>2026-04-12T09:18:13.99Z</time></trkpt><trkpt lat="44.9474073" lon="13.8155897"><ele>55.0</ele><time>2026-04-12T09:18:14.988Z</time></trkpt><trkpt lat="44.9474517" lon="13.8154089"><ele>54.75</ele><time>2026-04-12T09:18:15.985Z</time></trkpt><trkpt lat="44.9474937" lon="13.8152247"><ele>54.5</ele><time>2026-04-12T09:18:16.981Z</time></trkpt><trkpt lat="44.9475297" lon="13.8150326"><ele>54.25</ele><time>2026-04-12T09:18:17.985Z</time></trkpt><trkpt lat="44.9475603" lon="13.8148372"><ele>54.0</ele><time>2026-04-12T09:18:18.993Z</time></trkpt><trkpt lat="44.9475804" lon="13.8146387"><ele>53.75</ele><time>2026-04-12T09:18:19.99Z</time></trkpt><trkpt lat="44.9476024" lon="13.8144373"><ele>53.5</ele><time>2026-04-12T09:18:20.988Z</time></trkpt><trkpt lat="44.9476237" lon="13.8142352"><ele>53.25</ele><time>2026-04-12T09:18:21.988Z</time></trkpt><trkpt lat="44.9476435" lon="13.8140293"><ele>53.0</ele><time>2026-04-12T09:18:22.984Z</time></trkpt><trkpt lat="44.9476567" lon="13.8138266"><ele>53.0</ele><time>2026-04-12T09:18:23.982Z</time></trkpt><trkpt lat="44.9476593" lon="13.8136356"><ele>53.0</ele><time>2026-04-12T09:18:24.987Z</time></trkpt><trkpt lat="44.9476551" lon="13.8134541"><ele>53.0</ele><time>2026-04-12T09:18:25.987Z</time></trkpt><trkpt lat="44.9476464" lon="13.8132673"><ele>53.0</ele><time>2026-04-12T09:18:26.988Z</time></trkpt><trkpt lat="44.9476299" lon="13.8130832"><ele>53.0</ele><time>2026-04-12T09:18:27.983Z</time></trkpt><trkpt lat="44.9476119" lon="13.8129036"><ele>53.0</ele><time>2026-04-12T09:18:28.981Z</time></trkpt><trkpt lat="44.947593" lon="13.8127405"><ele>53.0</ele><time>2026-04-12T09:18:29.989Z</time></trkpt><trkpt lat="44.9475778" lon="13.8125853"><ele>53.0</ele><time>2026-04-12T09:18:30.987Z</time></trkpt><trkpt lat="44.9475726" lon="13.812425"><ele>53.0</ele><time>2026-04-12T09:18:31.987Z</time></trkpt><trkpt lat="44.9475768" lon="13.8122672"><ele>53.0</ele><time>2026-04-12T09:18:32.986Z</time></trkpt><trkpt lat="44.9475915" lon="13.8121114"><ele>53.0</ele><time>2026-04-12T09:18:33.985Z</time></trkpt><trkpt lat="44.9476135" lon="13.8119508"><ele>53.0</ele><time>2026-04-12T09:18:34.988Z</time></trkpt><trkpt lat="44.9476502" lon="13.8117835"><ele>53.5</ele><time>2026-04-12T09:18:35.988Z</time></trkpt><trkpt lat="44.9476961" lon="13.8116009"><ele>54.0</ele><time>2026-04-12T09:18:36.984Z</time></trkpt><trkpt lat="44.9477387" lon="13.8114152"><ele>54.5</ele><time>2026-04-12T09:18:37.988Z</time></trkpt><trkpt lat="44.9477776" lon="13.8112262"><ele>55.0</ele><time>2026-04-12T09:18:38.986Z</time></trkpt><trkpt lat="44.947813" lon="13.8110404"><ele>55.25</ele><time>2026-04-12T09:18:39.99Z</time></trkpt><trkpt lat="44.9478458" lon="13.8108496"><ele>55.5</ele><time>2026-04-12T09:18:40.984Z</time></trkpt><trkpt lat="44.9478801" lon="13.8106596"><ele>55.75</ele><time>2026-04-12T09:18:41.984Z</time></trkpt><trkpt lat="44.9479201" lon="13.810468"><ele>56.0</ele><time>2026-04-12T09:18:42.983Z</time></trkpt><trkpt lat="44.9479618" lon="13.8102767"><ele>56.0</ele><time>2026-04-12T09:18:43.988Z</time></trkpt><trkpt lat="44.9480025" lon="13.8100859"><ele>56.0</ele><time>2026-04-12T09:18:44.985Z</time></trkpt><trkpt lat="44.9480418" lon="13.8098928"><ele>56.0</ele><time>2026-04-12T09:18:45.995Z</time></trkpt><trkpt lat="44.948081" lon="13.8097011"><ele>56.0</ele><time>2026-04-12T09:18:46.986Z</time></trkpt><trkpt lat="44.9481243" lon="13.8095102"><ele>56.0</ele><time>2026-04-12T09:18:47.989Z</time></trkpt><trkpt lat="44.9481764" lon="13.8093214"><ele>56.0</ele><time>2026-04-12T09:18:48.986Z</time></trkpt><trkpt lat="44.9482427" lon="13.809132"><ele>56.0</ele><time>2026-04-12T09:18:49.986Z</time></trkpt><trkpt lat="44.9483186" lon="13.8089479"><ele>56.0</ele><time>2026-04-12T09:18:50.987Z</time></trkpt><trkpt lat="44.9483965" lon="13.8087704"><ele>55.5</ele><time>2026-04-12T09:18:51.986Z</time></trkpt><trkpt lat="44.9484693" lon="13.8085891"><ele>55.0</ele><time>2026-04-12T09:18:52.983Z</time></trkpt><trkpt lat="44.9485399" lon="13.8084162"><ele>54.5</ele><time>2026-04-12T09:18:53.983Z</time></trkpt><trkpt lat="44.948614" lon="13.8082494"><ele>54.0</ele><time>2026-04-12T09:18:54.987Z</time></trkpt><trkpt lat="44.9486906" lon="13.8080914"><ele>54.0</ele><time>2026-04-12T09:18:55.991Z</time></trkpt><trkpt lat="44.9487778" lon="13.8079465"><ele>54.0</ele><time>2026-04-12T09:18:56.986Z</time></trkpt><trkpt lat="44.9488648" lon="13.807808"><ele>54.0</ele><time>2026-04-12T09:18:57.985Z</time></trkpt><trkpt lat="44.9489515" lon="13.8076723"><ele>54.0</ele><time>2026-04-12T09:18:58.989Z</time></trkpt><trkpt lat="44.9490351" lon="13.8075285"><ele>53.75</ele><time>2026-04-12T09:18:59.986Z</time></trkpt><trkpt lat="44.9491047" lon="13.8073688"><ele>53.5</ele><time>2026-04-12T09:19:00.985Z</time></trkpt><trkpt lat="44.9491591" lon="13.8071928"><ele>53.25</ele><time>2026-04-12T09:19:01.983Z</time></trkpt><trkpt lat="44.9492032" lon="13.8070072"><ele>53.0</ele><time>2026-04-12T09:19:02.986Z</time></trkpt><trkpt lat="44.9492515" lon="13.8068292"><ele>52.75</ele><time>2026-04-12T09:19:03.984Z</time></trkpt><trkpt lat="44.949314" lon="13.8066618"><ele>52.5</ele><time>2026-04-12T09:19:04.987Z</time></trkpt><trkpt lat="44.9493912" lon="13.8065218"><ele>52.25</ele><time>2026-04-12T09:19:05.983Z</time></trkpt><trkpt lat="44.9494954" lon="13.8064006"><ele>52.0</ele><time>2026-04-12T09:19:06.992Z</time></trkpt><trkpt lat="44.9496135" lon="13.8063071"><ele>52.0</ele><time>2026-04-12T09:19:07.983Z</time></trkpt><trkpt lat="44.9497358" lon="13.8062049"><ele>52.0</ele><time>2026-04-12T09:19:08.987Z</time></trkpt><trkpt lat="44.9498548" lon="13.8060937"><ele>52.0</ele><time>2026-04-12T09:19:09.983Z</time></trkpt><trkpt lat="44.9499642" lon="13.8059624"><ele>52.0</ele><time>2026-04-12T09:19:10.984Z</time></trkpt><trkpt lat="44.9500733" lon="13.8058181"><ele>50.5</ele><time>2026-04-12T09:19:11.985Z</time></trkpt><trkpt lat="44.9501785" lon="13.8056662"><ele>49.0</ele><time>2026-04-12T09:19:13.005Z</time></trkpt><trkpt lat="44.9502761" lon="13.8055129"><ele>47.5</ele><time>2026-04-12T09:19:13.987Z</time></trkpt><trkpt lat="44.9503739" lon="13.8053571"><ele>46.0</ele><time>2026-04-12T09:19:14.992Z</time></trkpt><trkpt lat="44.9504709" lon="13.805198"><ele>46.0</ele><time>2026-04-12T09:19:15.986Z</time></trkpt><trkpt lat="44.9505519" lon="13.8050301"><ele>46.0</ele><time>2026-04-12T09:19:16.988Z</time></trkpt><trkpt lat="44.9506272" lon="13.8048533"><ele>46.0</ele><time>2026-04-12T09:19:17.992Z</time></trkpt><trkpt lat="44.9506898" lon="13.8046695"><ele>46.0</ele><time>2026-04-12T09:19:18.985Z</time></trkpt><trkpt lat="44.9507443" lon="13.8044778"><ele>45.75</ele><time>2026-04-12T09:19:19.987Z</time></trkpt><trkpt lat="44.9507936" lon="13.8042818"><ele>45.5</ele><time>2026-04-12T09:19:20.988Z</time></trkpt><trkpt lat="44.9508415" lon="13.8040863"><ele>45.25</ele><time>2026-04-12T09:19:21.986Z</time></trkpt><trkpt lat="44.9508794" lon="13.803906"><ele>45.0</ele><time>2026-04-12T09:19:22.986Z</time></trkpt><trkpt lat="44.9509239" lon="13.803724"><ele>44.25</ele><time>2026-04-12T09:19:23.985Z</time></trkpt><trkpt lat="44.9509689" lon="13.8035326"><ele>43.5</ele><time>2026-04-12T09:19:24.987Z</time></trkpt><trkpt lat="44.9510098" lon="13.8033417"><ele>42.75</ele><time>2026-04-12T09:19:25.981Z</time></trkpt><trkpt lat="44.951046" lon="13.8031655"><ele>42.0</ele><time>2026-04-12T09:19:26.985Z</time></trkpt><trkpt lat="44.9510831" lon="13.8029912"><ele>41.75</ele><time>2026-04-12T09:19:27.984Z</time></trkpt><trkpt lat="44.9511173" lon="13.8028188"><ele>41.5</ele><time>2026-04-12T09:19:28.984Z</time></trkpt><trkpt lat="44.9511648" lon="13.8026348"><ele>41.25</ele><time>2026-04-12T09:19:29.995Z</time></trkpt><trkpt lat="44.9512115" lon="13.8024549"><ele>41.0</ele><time>2026-04-12T09:19:30.984Z</time></trkpt><trkpt lat="44.9512591" lon="13.8022797"><ele>41.0</ele><time>2026-04-12T09:19:31.982Z</time></trkpt><trkpt lat="44.951307" lon="13.8021196"><ele>41.0</ele><time>2026-04-12T09:19:32.989Z</time></trkpt><trkpt lat="44.9513536" lon="13.8019574"><ele>41.0</ele><time>2026-04-12T09:19:33.987Z</time></trkpt><trkpt lat="44.9514019" lon="13.8017913"><ele>41.0</ele><time>2026-04-12T09:19:34.989Z</time></trkpt><trkpt lat="44.9514499" lon="13.8016201"><ele>40.5</ele><time>2026-04-12T09:19:35.985Z</time></trkpt><trkpt lat="44.9514856" lon="13.8014557"><ele>40.0</ele><time>2026-04-12T09:19:36.987Z</time></trkpt><trkpt lat="44.9515188" lon="13.8012906"><ele>39.5</ele><time>2026-04-12T09:19:37.985Z</time></trkpt><trkpt lat="44.951553" lon="13.8011255"><ele>39.0</ele><time>2026-04-12T09:19:38.986Z</time></trkpt><trkpt lat="44.9515845" lon="13.8009605"><ele>38.75</ele><time>2026-04-12T09:19:39.986Z</time></trkpt><trkpt lat="44.9516136" lon="13.8008004"><ele>38.5</ele><time>2026-04-12T09:19:40.986Z</time></trkpt><trkpt lat="44.9516382" lon="13.8006361"><ele>38.25</ele><time>2026-04-12T09:19:41.987Z</time></trkpt><trkpt lat="44.9516568" lon="13.8004842"><ele>38.0</ele><time>2026-04-12T09:19:42.982Z</time></trkpt><trkpt lat="44.9516751" lon="13.8003367"><ele>38.0</ele><time>2026-04-12T09:19:43.985Z</time></trkpt><trkpt lat="44.9516915" lon="13.8001852"><ele>38.0</ele><time>2026-04-12T09:19:44.988Z</time></trkpt><trkpt lat="44.9517105" lon="13.800035"><ele>38.0</ele><time>2026-04-12T09:19:45.984Z</time></trkpt><trkpt lat="44.9517239" lon="13.7998886"><ele>38.0</ele><time>2026-04-12T09:19:46.982Z</time></trkpt><trkpt lat="44.9517275" lon="13.7997604"><ele>38.0</ele><time>2026-04-12T09:19:47.987Z</time></trkpt><trkpt lat="44.9517278" lon="13.7996489"><ele>37.199999999999996</ele><time>2026-04-12T09:19:48.986Z</time></trkpt><trkpt lat="44.9517338" lon="13.7995359"><ele>36.4</ele><time>2026-04-12T09:19:49.983Z</time></trkpt><trkpt lat="44.9517433" lon="13.7994402"><ele>35.599999999999994</ele><time>2026-04-12T09:19:50.984Z</time></trkpt><trkpt lat="44.9517674" lon="13.7992856"><ele>34.8</ele><time>2026-04-12T09:19:52.984Z</time></trkpt><trkpt lat="44.951826" lon="13.7991779"><ele>34.0</ele><time>2026-04-12T09:19:55.082Z</time></trkpt><trkpt lat="44.9519448" lon="13.7991287"><ele>33.8</ele><time>2026-04-12T09:19:56.99Z</time></trkpt><trkpt lat="44.9520248" lon="13.7991029"><ele>33.599999999999994</ele><time>2026-04-12T09:19:57.99Z</time></trkpt><trkpt lat="44.9521181" lon="13.79907"><ele>33.4</ele><time>2026-04-12T09:19:58.983Z</time></trkpt><trkpt lat="44.9522102" lon="13.7990362"><ele>33.199999999999996</ele><time>2026-04-12T09:19:59.987Z</time></trkpt><trkpt lat="44.9523089" lon="13.799004"><ele>33.0</ele><time>2026-04-12T09:20:00.983Z</time></trkpt><trkpt lat="44.9524071" lon="13.7989737"><ele>33.0</ele><time>2026-04-12T09:20:01.984Z</time></trkpt><trkpt lat="44.9525055" lon="13.7989364"><ele>33.0</ele><time>2026-04-12T09:20:02.989Z</time></trkpt><trkpt lat="44.9525876" lon="13.7988948"><ele>33.0</ele><time>2026-04-12T09:20:03.985Z</time></trkpt><trkpt lat="44.9526576" lon="13.7988229"><ele>33.0</ele><time>2026-04-12T09:20:04.988Z</time></trkpt><trkpt lat="44.952714" lon="13.7987191"><ele>33.0</ele><time>2026-04-12T09:20:05.99Z</time></trkpt><trkpt lat="44.952765" lon="13.7985861"><ele>31.75</ele><time>2026-04-12T09:20:06.986Z</time></trkpt><trkpt lat="44.9528069" lon="13.7984462"><ele>30.5</ele><time>2026-04-12T09:20:07.993Z</time></trkpt><trkpt lat="44.9528507" lon="13.7982997"><ele>29.25</ele><time>2026-04-12T09:20:08.981Z</time></trkpt><trkpt lat="44.9528966" lon="13.79815"><ele>28.0</ele><time>2026-04-12T09:20:09.986Z</time></trkpt><trkpt lat="44.9529413" lon="13.7979993"><ele>28.0</ele><time>2026-04-12T09:20:10.983Z</time></trkpt><trkpt lat="44.9529805" lon="13.7978516"><ele>27.999999999999996</ele><time>2026-04-12T09:20:11.983Z</time></trkpt><trkpt lat="44.953027" lon="13.7976993"><ele>27.999999999999996</ele><time>2026-04-12T09:20:12.988Z</time></trkpt><trkpt lat="44.9530653" lon="13.7975511"><ele>28.0</ele><time>2026-04-12T09:20:13.985Z</time></trkpt><trkpt lat="44.95309" lon="13.79741"><ele>28.0</ele><time>2026-04-12T09:20:14.989Z</time></trkpt><trkpt lat="44.9530967" lon="13.7972822"><ele>27.833333333333336</ele><time>2026-04-12T09:20:15.988Z</time></trkpt><trkpt lat="44.9530963" lon="13.7971715"><ele>27.666666666666668</ele><time>2026-04-12T09:20:16.983Z</time></trkpt><trkpt lat="44.9530724" lon="13.7970658"><ele>27.5</ele><time>2026-04-12T09:20:17.984Z</time></trkpt><trkpt lat="44.9530418" lon="13.7969692"><ele>27.333333333333336</ele><time>2026-04-12T09:20:18.991Z</time></trkpt><trkpt lat="44.9529986" lon="13.7968832"><ele>27.166666666666668</ele><time>2026-04-12T09:20:19.989Z</time></trkpt><trkpt lat="44.9529516" lon="13.7968013"><ele>27.0</ele><time>2026-04-12T09:20:20.986Z</time></trkpt><trkpt lat="44.9529001" lon="13.7967364"><ele>26.833333333333332</ele><time>2026-04-12T09:20:21.984Z</time></trkpt><trkpt lat="44.9528463" lon="13.7966526"><ele>26.666666666666664</ele><time>2026-04-12T09:20:23.983Z</time></trkpt><trkpt lat="44.9528692" lon="13.7965636"><ele>26.5</ele><time>2026-04-12T09:20:25.988Z</time></trkpt><trkpt lat="44.9529541" lon="13.7964362"><ele>26.333333333333332</ele><time>2026-04-12T09:20:27.995Z</time></trkpt><trkpt lat="44.9530127" lon="13.7963725"><ele>26.166666666666664</ele><time>2026-04-12T09:20:28.997Z</time></trkpt><trkpt lat="44.9530795" lon="13.7963285"><ele>26.0</ele><time>2026-04-12T09:20:29.987Z</time></trkpt><trkpt lat="44.9531529" lon="13.7963076"><ele>25.999999999999996</ele><time>2026-04-12T09:20:30.991Z</time></trkpt><trkpt lat="44.9532259" lon="13.7963052"><ele>26.0</ele><time>2026-04-12T09:20:31.986Z</time></trkpt><trkpt lat="44.9533052" lon="13.7963063"><ele>26.0</ele><time>2026-04-12T09:20:32.986Z</time></trkpt><trkpt lat="44.953371" lon="13.7963112"><ele>26.0</ele><time>2026-04-12T09:20:33.987Z</time></trkpt><trkpt lat="44.9534665" lon="13.7963672"><ele>25.999999999999996</ele><time>2026-04-12T09:20:35.987Z</time></trkpt><trkpt lat="44.9535306" lon="13.7964053"><ele>26.0</ele><time>2026-04-12T09:20:37.994Z</time></trkpt><trkpt lat="44.953599" lon="13.7964344"><ele>25.4</ele><time>2026-04-12T09:20:39.984Z</time></trkpt><trkpt lat="44.953716" lon="13.7964904"><ele>24.8</ele><time>2026-04-12T09:20:41.989Z</time></trkpt><trkpt lat="44.95378" lon="13.7965316"><ele>24.2</ele><time>2026-04-12T09:20:42.984Z</time></trkpt><trkpt lat="44.9538706" lon="13.7965697"><ele>23.599999999999998</ele><time>2026-04-12T09:20:43.984Z</time></trkpt><trkpt lat="44.9539566" lon="13.796613"><ele>23.0</ele><time>2026-04-12T09:20:44.995Z</time></trkpt><trkpt lat="44.9540415" lon="13.7966515"><ele>23.0</ele><time>2026-04-12T09:20:45.982Z</time></trkpt><trkpt lat="44.9541258" lon="13.796691"><ele>23.0</ele><time>2026-04-12T09:20:46.987Z</time></trkpt><trkpt lat="44.954214" lon="13.7967323"><ele>23.0</ele><time>2026-04-12T09:20:47.987Z</time></trkpt><trkpt lat="44.9542995" lon="13.7967741"><ele>23.0</ele><time>2026-04-12T09:20:48.982Z</time></trkpt><trkpt lat="44.9543854" lon="13.7968147"><ele>23.0</ele><time>2026-04-12T09:20:49.998Z</time></trkpt><trkpt lat="44.9544809" lon="13.7968574"><ele>23.599999999999998</ele><time>2026-04-12T09:20:50.988Z</time></trkpt><trkpt lat="44.9545772" lon="13.7968972"><ele>24.2</ele><time>2026-04-12T09:20:51.983Z</time></trkpt><trkpt lat="44.9546699" lon="13.7969391"><ele>24.8</ele><time>2026-04-12T09:20:52.995Z</time></trkpt><trkpt lat="44.9547653" lon="13.7969769"><ele>25.4</ele><time>2026-04-12T09:20:53.987Z</time></trkpt><trkpt lat="44.9548594" lon="13.7970042"><ele>26.0</ele><time>2026-04-12T09:20:54.984Z</time></trkpt><trkpt lat="44.9549561" lon="13.7970313"><ele>25.4</ele><time>2026-04-12T09:20:55.985Z</time></trkpt><trkpt lat="44.95504" lon="13.7970593"><ele>24.8</ele><time>2026-04-12T09:20:56.99Z</time></trkpt><trkpt lat="44.9551292" lon="13.7970835"><ele>24.2</ele><time>2026-04-12T09:20:57.99Z</time></trkpt><trkpt lat="44.955223" lon="13.7971192"><ele>23.599999999999998</ele><time>2026-04-12T09:20:58.984Z</time></trkpt><trkpt lat="44.955325" lon="13.7971652"><ele>23.0</ele><time>2026-04-12T09:20:59.985Z</time></trkpt><trkpt lat="44.9554282" lon="13.7972154"><ele>23.0</ele><time>2026-04-12T09:21:00.984Z</time></trkpt><trkpt lat="44.9555419" lon="13.7972578"><ele>23.0</ele><time>2026-04-12T09:21:01.989Z</time></trkpt><trkpt lat="44.955651" lon="13.7972905"><ele>23.0</ele><time>2026-04-12T09:21:02.988Z</time></trkpt><trkpt lat="44.9557614" lon="13.7972918"><ele>23.0</ele><time>2026-04-12T09:21:03.988Z</time></trkpt><trkpt lat="44.9558752" lon="13.7972688"><ele>22.799999999999997</ele><time>2026-04-12T09:21:04.985Z</time></trkpt><trkpt lat="44.955982" lon="13.7972427"><ele>22.6</ele><time>2026-04-12T09:21:05.986Z</time></trkpt><trkpt lat="44.9560834" lon="13.7972195"><ele>22.4</ele><time>2026-04-12T09:21:06.983Z</time></trkpt><trkpt lat="44.9561818" lon="13.7971958"><ele>22.200000000000003</ele><time>2026-04-12T09:21:07.986Z</time></trkpt><trkpt lat="44.9562665" lon="13.7971778"><ele>22.0</ele><time>2026-04-12T09:21:08.985Z</time></trkpt><trkpt lat="44.9563493" lon="13.7971599"><ele>22.0</ele><time>2026-04-12T09:21:09.983Z</time></trkpt><trkpt lat="44.9564242" lon="13.7971352"><ele>22.0</ele><time>2026-04-12T09:21:10.989Z</time></trkpt><trkpt lat="44.9566341" lon="13.7969848"><ele>22.0</ele><time>2026-04-12T09:21:13.988Z</time></trkpt><trkpt lat="44.9567142" lon="13.7968971"><ele>22.0</ele><time>2026-04-12T09:21:14.99Z</time></trkpt><trkpt lat="44.9569403" lon="13.7966503"><ele>21.0</ele><time>2026-04-12T09:21:17.985Z</time></trkpt><trkpt lat="44.9570279" lon="13.7966092"><ele>20.0</ele><time>2026-04-12T09:21:18.987Z</time></trkpt><trkpt lat="44.9572956" lon="13.7966228"><ele>19.0</ele><time>2026-04-12T09:21:21.998Z</time></trkpt><trkpt lat="44.9574216" lon="13.7966292"><ele>19.75</ele><time>2026-04-12T09:21:24.989Z</time></trkpt><trkpt lat="44.9575606" lon="13.7965822"><ele>20.5</ele><time>2026-04-12T09:21:27.993Z</time></trkpt><trkpt lat="44.9577242" lon="13.7964888"><ele>21.25</ele><time>2026-04-12T09:21:30.986Z</time></trkpt><trkpt lat="44.9577807" lon="13.7963889"><ele>22.0</ele><time>2026-04-12T09:21:33.99Z</time></trkpt><trkpt lat="44.9579272" lon="13.7961874"><ele>22.0</ele><time>2026-04-12T09:21:37.987Z</time></trkpt><trkpt lat="44.9579882" lon="13.7960892"><ele>22.0</ele><time>2026-04-12T09:21:39.986Z</time></trkpt><trkpt lat="44.9580342" lon="13.7959793"><ele>22.0</ele><time>2026-04-12T09:21:41.988Z</time></trkpt><trkpt lat="44.9580745" lon="13.7958469"><ele>22.0</ele><time>2026-04-12T09:21:43.99Z</time></trkpt><trkpt lat="44.9581279" lon="13.7956451"><ele>22.0</ele><time>2026-04-12T09:21:46.994Z</time></trkpt><trkpt lat="44.9581542" lon="13.7955057"><ele>21.833333333333332</ele><time>2026-04-12T09:21:49.99Z</time></trkpt><trkpt lat="44.9581767" lon="13.7954139"><ele>21.666666666666664</ele><time>2026-04-12T09:21:53.982Z</time></trkpt><trkpt lat="44.9582031" lon="13.7952937"><ele>21.5</ele><time>2026-04-12T09:21:55.981Z</time></trkpt><trkpt lat="44.9581915" lon="13.7952014"><ele>21.333333333333332</ele><time>2026-04-12T09:21:57.986Z</time></trkpt><trkpt lat="44.9581785" lon="13.7950538"><ele>21.166666666666668</ele><time>2026-04-12T09:21:58.987Z</time></trkpt><trkpt lat="44.9581663" lon="13.7949178"><ele>21.0</ele><time>2026-04-12T09:22:00.98Z</time></trkpt><trkpt lat="44.9581625" lon="13.7947771"><ele>21.0</ele><time>2026-04-12T09:22:02.985Z</time></trkpt><trkpt lat="44.9581606" lon="13.7946788"><ele>21.0</ele><time>2026-04-12T09:22:03.994Z</time></trkpt><trkpt lat="44.9581609" lon="13.7945826"><ele>21.0</ele><time>2026-04-12T09:22:04.992Z</time></trkpt><trkpt lat="44.9581564" lon="13.7944926"><ele>21.0</ele><time>2026-04-12T09:22:05.988Z</time></trkpt><trkpt lat="44.9581483" lon="13.7943353"><ele>21.0</ele><time>2026-04-12T09:22:07.984Z</time></trkpt><trkpt lat="44.9581322" lon="13.7941922"><ele>21.0</ele><time>2026-04-12T09:22:09.985Z</time></trkpt><trkpt lat="44.9581005" lon="13.7940392"><ele>20.5</ele><time>2026-04-12T09:22:11.988Z</time></trkpt><trkpt lat="44.9580776" lon="13.7938815"><ele>20.0</ele><time>2026-04-12T09:22:13.984Z</time></trkpt><trkpt lat="44.9580317" lon="13.7937257"><ele>19.5</ele><time>2026-04-12T09:22:15.987Z</time></trkpt><trkpt lat="44.9579687" lon="13.7935948"><ele>19.0</ele><time>2026-04-12T09:22:17.99Z</time></trkpt><trkpt lat="44.9578598" lon="13.7934806"><ele>18.833333333333332</ele><time>2026-04-12T09:22:19.988Z</time></trkpt><trkpt lat="44.9577943" lon="13.7934009"><ele>18.666666666666664</ele><time>2026-04-12T09:22:20.985Z</time></trkpt><trkpt lat="44.9577331" lon="13.7933234"><ele>18.5</ele><time>2026-04-12T09:22:21.985Z</time></trkpt><trkpt lat="44.9576774" lon="13.7932397"><ele>18.333333333333332</ele><time>2026-04-12T09:22:22.989Z</time></trkpt><trkpt lat="44.9576234" lon="13.7931645"><ele>18.166666666666668</ele><time>2026-04-12T09:22:23.984Z</time></trkpt><trkpt lat="44.9575518" lon="13.7930317"><ele>18.0</ele><time>2026-04-12T09:22:25.988Z</time></trkpt><trkpt lat="44.9575123" lon="13.7929342"><ele>17.8</ele><time>2026-04-12T09:22:27.985Z</time></trkpt><trkpt lat="44.9575162" lon="13.7928035"><ele>17.6</ele><time>2026-04-12T09:22:29.996Z</time></trkpt><trkpt lat="44.9575345" lon="13.7926028"><ele>17.4</ele><time>2026-04-12T09:22:31.988Z</time></trkpt><trkpt lat="44.9575481" lon="13.7924975"><ele>17.2</ele><time>2026-04-12T09:22:32.985Z</time></trkpt><trkpt lat="44.9575714" lon="13.792387"><ele>17.0</ele><time>2026-04-12T09:22:34.987Z</time></trkpt><trkpt lat="44.9575968" lon="13.7922932"><ele>17.0</ele><time>2026-04-12T09:22:36.986Z</time></trkpt><trkpt lat="44.9576361" lon="13.7922027"><ele>17.0</ele><time>2026-04-12T09:22:38.983Z</time></trkpt><trkpt lat="44.9576888" lon="13.7921316"><ele>17.0</ele><time>2026-04-12T09:22:40.985Z</time></trkpt><trkpt lat="44.9577685" lon="13.7920276"><ele>17.0</ele><time>2026-04-12T09:22:42.986Z</time></trkpt><trkpt lat="44.957895" lon="13.7918524"><ele>17.0</ele><time>2026-04-12T09:22:43.983Z</time></trkpt><trkpt lat="44.9579852" lon="13.7917087"><ele>16.833333333333336</ele><time>2026-04-12T09:22:44.985Z</time></trkpt><trkpt lat="44.958039" lon="13.7916264"><ele>16.666666666666668</ele><time>2026-04-12T09:22:45.981Z</time></trkpt><trkpt lat="44.9580963" lon="13.7915437"><ele>16.5</ele><time>2026-04-12T09:22:46.983Z</time></trkpt><trkpt lat="44.9581696" lon="13.7914582"><ele>16.333333333333332</ele><time>2026-04-12T09:22:47.991Z</time></trkpt><trkpt lat="44.9582491" lon="13.791377"><ele>16.166666666666664</ele><time>2026-04-12T09:22:48.99Z</time></trkpt><trkpt lat="44.9583293" lon="13.7913062"><ele>16.0</ele><time>2026-04-12T09:22:49.981Z</time></trkpt><trkpt lat="44.9584153" lon="13.7912467"><ele>16.400000000000002</ele><time>2026-04-12T09:22:50.987Z</time></trkpt><trkpt lat="44.958514" lon="13.7911978"><ele>16.8</ele><time>2026-04-12T09:22:51.987Z</time></trkpt><trkpt lat="44.9586193" lon="13.7911485"><ele>17.200000000000003</ele><time>2026-04-12T09:22:52.987Z</time></trkpt><trkpt lat="44.9587208" lon="13.7910877"><ele>17.6</ele><time>2026-04-12T09:22:53.993Z</time></trkpt><trkpt lat="44.9588216" lon="13.7910178"><ele>18.0</ele><time>2026-04-12T09:22:54.984Z</time></trkpt><trkpt lat="44.9589152" lon="13.7909376"><ele>18.0</ele><time>2026-04-12T09:22:55.983Z</time></trkpt><trkpt lat="44.9590087" lon="13.7908515"><ele>18.0</ele><time>2026-04-12T09:22:56.997Z</time></trkpt><trkpt lat="44.9591017" lon="13.7907647"><ele>18.0</ele><time>2026-04-12T09:22:57.983Z</time></trkpt><trkpt lat="44.9591948" lon="13.7906704"><ele>18.0</ele><time>2026-04-12T09:22:58.985Z</time></trkpt><trkpt lat="44.9592825" lon="13.7905869"><ele>18.0</ele><time>2026-04-12T09:22:59.991Z</time></trkpt><trkpt lat="44.9593611" lon="13.7905125"><ele>18.0</ele><time>2026-04-12T09:23:00.988Z</time></trkpt><trkpt lat="44.9594287" lon="13.7904438"><ele>18.0</ele><time>2026-04-12T09:23:01.983Z</time></trkpt><trkpt lat="44.959482" lon="13.7903797"><ele>18.0</ele><time>2026-04-12T09:23:02.988Z</time></trkpt><trkpt lat="44.9595235" lon="13.790309"><ele>18.0</ele><time>2026-04-12T09:23:03.983Z</time></trkpt><trkpt lat="44.9595556" lon="13.7902127"><ele>18.0</ele><time>2026-04-12T09:23:04.995Z</time></trkpt><trkpt lat="44.959603" lon="13.7900186"><ele>18.0</ele><time>2026-04-12T09:23:06.988Z</time></trkpt><trkpt lat="44.9596447" lon="13.7899055"><ele>18.0</ele><time>2026-04-12T09:23:07.988Z</time></trkpt><trkpt lat="44.9596736" lon="13.7897911"><ele>18.0</ele><time>2026-04-12T09:23:08.989Z</time></trkpt><trkpt lat="44.9597043" lon="13.7896708"><ele>18.0</ele><time>2026-04-12T09:23:09.99Z</time></trkpt><trkpt lat="44.9597188" lon="13.7895623"><ele>18.0</ele><time>2026-04-12T09:23:10.986Z</time></trkpt><trkpt lat="44.9597264" lon="13.789453"><ele>18.0</ele><time>2026-04-12T09:23:11.987Z</time></trkpt><trkpt lat="44.9597301" lon="13.7893418"><ele>18.0</ele><time>2026-04-12T09:23:12.986Z</time></trkpt><trkpt lat="44.9597281" lon="13.7892346"><ele>18.0</ele><time>2026-04-12T09:23:13.982Z</time></trkpt><trkpt lat="44.9597194" lon="13.7891349"><ele>18.0</ele><time>2026-04-12T09:23:14.985Z</time></trkpt><trkpt lat="44.959704" lon="13.7890365"><ele>18.0</ele><time>2026-04-12T09:23:15.985Z</time></trkpt><trkpt lat="44.9596863" lon="13.7889239"><ele>18.0</ele><time>2026-04-12T09:23:16.984Z</time></trkpt><trkpt lat="44.9596824" lon="13.7888042"><ele>18.0</ele><time>2026-04-12T09:23:17.986Z</time></trkpt><trkpt lat="44.9596893" lon="13.7886882"><ele>18.0</ele><time>2026-04-12T09:23:18.987Z</time></trkpt><trkpt lat="44.9597044" lon="13.7885842"><ele>17.8</ele><time>2026-04-12T09:23:19.986Z</time></trkpt><trkpt lat="44.9597377" lon="13.7884603"><ele>17.6</ele><time>2026-04-12T09:23:20.985Z</time></trkpt><trkpt lat="44.9597657" lon="13.7883209"><ele>17.4</ele><time>2026-04-12T09:23:21.984Z</time></trkpt><trkpt lat="44.959789" lon="13.7881913"><ele>17.2</ele><time>2026-04-12T09:23:22.986Z</time></trkpt><trkpt lat="44.9598082" lon="13.7880527"><ele>17.0</ele><time>2026-04-12T09:23:23.987Z</time></trkpt><trkpt lat="44.9598296" lon="13.7879085"><ele>17.0</ele><time>2026-04-12T09:23:24.984Z</time></trkpt><trkpt lat="44.9598516" lon="13.78776"><ele>17.0</ele><time>2026-04-12T09:23:25.987Z</time></trkpt><trkpt lat="44.9598672" lon="13.7876016"><ele>17.0</ele><time>2026-04-12T09:23:26.989Z</time></trkpt><trkpt lat="44.9598801" lon="13.7874411"><ele>17.0</ele><time>2026-04-12T09:23:27.985Z</time></trkpt><trkpt lat="44.9599017" lon="13.7872941"><ele>17.0</ele><time>2026-04-12T09:23:28.988Z</time></trkpt><trkpt lat="44.9599191" lon="13.7871604"><ele>17.0</ele><time>2026-04-12T09:23:29.983Z</time></trkpt><trkpt lat="44.9599412" lon="13.7870278"><ele>17.0</ele><time>2026-04-12T09:23:30.988Z</time></trkpt><trkpt lat="44.9599684" lon="13.7869027"><ele>17.0</ele><time>2026-04-12T09:23:31.992Z</time></trkpt><trkpt lat="44.9599929" lon="13.7867723"><ele>17.0</ele><time>2026-04-12T09:23:32.987Z</time></trkpt><trkpt lat="44.9600137" lon="13.7866478"><ele>17.0</ele><time>2026-04-12T09:23:33.988Z</time></trkpt><trkpt lat="44.9600293" lon="13.7865283"><ele>17.0</ele><time>2026-04-12T09:23:34.99Z</time></trkpt><trkpt lat="44.9600495" lon="13.7864207"><ele>17.0</ele><time>2026-04-12T09:23:35.986Z</time></trkpt><trkpt lat="44.9600828" lon="13.786328"><ele>17.0</ele><time>2026-04-12T09:23:36.984Z</time></trkpt><trkpt lat="44.960119" lon="13.786251"><ele>17.0</ele><time>2026-04-12T09:23:37.988Z</time></trkpt><trkpt lat="44.9602118" lon="13.7861283"><ele>17.0</ele><time>2026-04-12T09:23:39.984Z</time></trkpt><trkpt lat="44.9602805" lon="13.7861025"><ele>17.0</ele><time>2026-04-12T09:23:40.992Z</time></trkpt><trkpt lat="44.9603516" lon="13.7860619"><ele>17.0</ele><time>2026-04-12T09:23:41.986Z</time></trkpt><trkpt lat="44.9604674" lon="13.7860422"><ele>17.0</ele><time>2026-04-12T09:23:43.988Z</time></trkpt><trkpt lat="44.9605315" lon="13.786062"><ele>17.0</ele><time>2026-04-12T09:23:44.986Z</time></trkpt><trkpt lat="44.9606066" lon="13.7861066"><ele>17.0</ele><time>2026-04-12T09:23:45.989Z</time></trkpt><trkpt lat="44.9606844" lon="13.7861556"><ele>17.0</ele><time>2026-04-12T09:23:46.985Z</time></trkpt><trkpt lat="44.9607553" lon="13.7862018"><ele>17.0</ele><time>2026-04-12T09:23:47.984Z</time></trkpt><trkpt lat="44.9608224" lon="13.7862542"><ele>17.142857142857142</ele><time>2026-04-12T09:23:48.994Z</time></trkpt><trkpt lat="44.9608826" lon="13.7863191"><ele>17.285714285714285</ele><time>2026-04-12T09:23:49.982Z</time></trkpt><trkpt lat="44.9609403" lon="13.7863936"><ele>17.42857142857143</ele><time>2026-04-12T09:23:50.984Z</time></trkpt><trkpt lat="44.9609936" lon="13.7864654"><ele>17.57142857142857</ele><time>2026-04-12T09:23:51.985Z</time></trkpt><trkpt lat="44.9610496" lon="13.7865356"><ele>17.714285714285715</ele><time>2026-04-12T09:23:52.985Z</time></trkpt><trkpt lat="44.9611041" lon="13.7866065"><ele>17.857142857142858</ele><time>2026-04-12T09:23:53.984Z</time></trkpt><trkpt lat="44.9611261" lon="13.786696"><ele>18.0</ele><time>2026-04-12T09:23:54.985Z</time></trkpt><trkpt lat="44.9611517" lon="13.7868844"><ele>18.333333333333332</ele><time>2026-04-12T09:23:56.984Z</time></trkpt><trkpt lat="44.9611633" lon="13.7869908"><ele>18.666666666666668</ele><time>2026-04-12T09:23:57.988Z</time></trkpt><trkpt lat="44.9611766" lon="13.7871117"><ele>19.0</ele><time>2026-04-12T09:23:58.985Z</time></trkpt><trkpt lat="44.9611949" lon="13.7872491"><ele>19.333333333333336</ele><time>2026-04-12T09:23:59.988Z</time></trkpt><trkpt lat="44.961214" lon="13.7873831"><ele>19.666666666666668</ele><time>2026-04-12T09:24:00.985Z</time></trkpt><trkpt lat="44.9612268" lon="13.7875055"><ele>20.0</ele><time>2026-04-12T09:24:01.996Z</time></trkpt><trkpt lat="44.9612308" lon="13.7876125"><ele>20.0</ele><time>2026-04-12T09:24:02.986Z</time></trkpt><trkpt lat="44.9612375" lon="13.7877052"><ele>20.0</ele><time>2026-04-12T09:24:03.989Z</time></trkpt><trkpt lat="44.9612912" lon="13.7878192"><ele>20.0</ele><time>2026-04-12T09:24:05.989Z</time></trkpt><trkpt lat="44.9613871" lon="13.787808"><ele>20.0</ele><time>2026-04-12T09:24:07.985Z</time></trkpt><trkpt lat="44.9614418" lon="13.7877494"><ele>20.0</ele><time>2026-04-12T09:24:08.992Z</time></trkpt><trkpt lat="44.9615067" lon="13.7876856"><ele>20.0</ele><time>2026-04-12T09:24:09.989Z</time></trkpt><trkpt lat="44.9615755" lon="13.7876295"><ele>20.0</ele><time>2026-04-12T09:24:10.987Z</time></trkpt><trkpt lat="44.9616537" lon="13.7875747"><ele>20.0</ele><time>2026-04-12T09:24:11.983Z</time></trkpt><trkpt lat="44.9617338" lon="13.7875291"><ele>20.0</ele><time>2026-04-12T09:24:12.985Z</time></trkpt><trkpt lat="44.9618192" lon="13.787503"><ele>20.0</ele><time>2026-04-12T09:24:13.988Z</time></trkpt><trkpt lat="44.9619065" lon="13.7874849"><ele>20.0</ele><time>2026-04-12T09:24:14.99Z</time></trkpt><trkpt lat="44.9619883" lon="13.7874509"><ele>20.0</ele><time>2026-04-12T09:24:15.985Z</time></trkpt><trkpt lat="44.9620499" lon="13.787411"><ele>19.833333333333336</ele><time>2026-04-12T09:24:16.986Z</time></trkpt><trkpt lat="44.9621178" lon="13.7873578"><ele>19.666666666666668</ele><time>2026-04-12T09:24:17.99Z</time></trkpt><trkpt lat="44.9621928" lon="13.7873007"><ele>19.5</ele><time>2026-04-12T09:24:18.987Z</time></trkpt><trkpt lat="44.9622663" lon="13.7872419"><ele>19.333333333333332</ele><time>2026-04-12T09:24:19.984Z</time></trkpt><trkpt lat="44.9623361" lon="13.7871856"><ele>19.166666666666664</ele><time>2026-04-12T09:24:20.982Z</time></trkpt><trkpt lat="44.9624042" lon="13.7871274"><ele>19.0</ele><time>2026-04-12T09:24:21.988Z</time></trkpt><trkpt lat="44.9624718" lon="13.7870714"><ele>19.0</ele><time>2026-04-12T09:24:22.993Z</time></trkpt><trkpt lat="44.9625407" lon="13.7870209"><ele>19.0</ele><time>2026-04-12T09:24:23.986Z</time></trkpt><trkpt lat="44.9626076" lon="13.7869698"><ele>19.0</ele><time>2026-04-12T09:24:24.99Z</time></trkpt><trkpt lat="44.9626728" lon="13.786915"><ele>19.0</ele><time>2026-04-12T09:24:25.988Z</time></trkpt><trkpt lat="44.9627433" lon="13.7868609"><ele>19.0</ele><time>2026-04-12T09:24:26.986Z</time></trkpt><trkpt lat="44.9628172" lon="13.786805"><ele>19.0</ele><time>2026-04-12T09:24:27.985Z</time></trkpt><trkpt lat="44.962884" lon="13.7867538"><ele>19.0</ele><time>2026-04-12T09:24:28.99Z</time></trkpt><trkpt lat="44.9629619" lon="13.786673"><ele>19.0</ele><time>2026-04-12T09:24:30.989Z</time></trkpt><trkpt lat="44.96295" lon="13.7865721"><ele>19.0</ele><time>2026-04-12T09:24:33.984Z</time></trkpt><trkpt lat="44.9629087" lon="13.7864818"><ele>19.0</ele><time>2026-04-12T09:24:36.985Z</time></trkpt><trkpt lat="44.9628583" lon="13.786327"><ele>19.0</ele><time>2026-04-12T09:24:39.987Z</time></trkpt><trkpt lat="44.9627789" lon="13.7860936"><ele>18.833333333333332</ele><time>2026-04-12T09:24:40.983Z</time></trkpt><trkpt lat="44.9627321" lon="13.7859537"><ele>18.666666666666664</ele><time>2026-04-12T09:24:41.989Z</time></trkpt><trkpt lat="44.9626948" lon="13.7858754"><ele>18.5</ele><time>2026-04-12T09:24:42.979Z</time></trkpt><trkpt lat="44.9626666" lon="13.7857732"><ele>18.333333333333332</ele><time>2026-04-12T09:24:43.987Z</time></trkpt><trkpt lat="44.962639" lon="13.7856579"><ele>18.166666666666668</ele><time>2026-04-12T09:24:44.992Z</time></trkpt><trkpt lat="44.9626144" lon="13.7855392"><ele>18.0</ele><time>2026-04-12T09:24:45.987Z</time></trkpt><trkpt lat="44.9625898" lon="13.7854156"><ele>18.0</ele><time>2026-04-12T09:24:46.989Z</time></trkpt><trkpt lat="44.962567" lon="13.7852876"><ele>18.0</ele><time>2026-04-12T09:24:47.982Z</time></trkpt><trkpt lat="44.962536" lon="13.7851626"><ele>18.0</ele><time>2026-04-12T09:24:48.987Z</time></trkpt><trkpt lat="44.9625098" lon="13.7850419"><ele>18.0</ele><time>2026-04-12T09:24:49.985Z</time></trkpt><trkpt lat="44.9624863" lon="13.7849322"><ele>18.0</ele><time>2026-04-12T09:24:50.985Z</time></trkpt><trkpt lat="44.9624722" lon="13.7848294"><ele>18.0</ele><time>2026-04-12T09:24:51.984Z</time></trkpt><trkpt lat="44.9624764" lon="13.7847344"><ele>17.666666666666668</ele><time>2026-04-12T09:24:52.988Z</time></trkpt><trkpt lat="44.9625266" lon="13.7846021"><ele>17.333333333333332</ele><time>2026-04-12T09:24:54.99Z</time></trkpt><trkpt lat="44.9625791" lon="13.784553"><ele>17.0</ele><time>2026-04-12T09:24:55.984Z</time></trkpt><trkpt lat="44.9626494" lon="13.7845048"><ele>16.666666666666664</ele><time>2026-04-12T09:24:56.984Z</time></trkpt><trkpt lat="44.9627347" lon="13.7844497"><ele>16.333333333333332</ele><time>2026-04-12T09:24:58.009Z</time></trkpt><trkpt lat="44.9628204" lon="13.784398"><ele>16.0</ele><time>2026-04-12T09:24:58.985Z</time></trkpt><trkpt lat="44.9628981" lon="13.7843572"><ele>15.666666666666666</ele><time>2026-04-12T09:24:59.985Z</time></trkpt><trkpt lat="44.9629678" lon="13.7843124"><ele>15.333333333333332</ele><time>2026-04-12T09:25:00.987Z</time></trkpt><trkpt lat="44.9630268" lon="13.7842636"><ele>15.0</ele><time>2026-04-12T09:25:01.983Z</time></trkpt><trkpt lat="44.9630755" lon="13.7841463"><ele>14.666666666666668</ele><time>2026-04-12T09:25:03.987Z</time></trkpt><trkpt lat="44.9630189" lon="13.7840372"><ele>14.333333333333334</ele><time>2026-04-12T09:25:05.983Z</time></trkpt><trkpt lat="44.9629651" lon="13.7839641"><ele>14.0</ele><time>2026-04-12T09:25:06.996Z</time></trkpt><trkpt lat="44.9629035" lon="13.7838573"><ele>14.0</ele><time>2026-04-12T09:25:07.995Z</time></trkpt><trkpt lat="44.96285" lon="13.7837509"><ele>13.999999999999998</ele><time>2026-04-12T09:25:08.986Z</time></trkpt><trkpt lat="44.9627936" lon="13.7836506"><ele>13.999999999999998</ele><time>2026-04-12T09:25:09.989Z</time></trkpt><trkpt lat="44.9627418" lon="13.7835462"><ele>14.0</ele><time>2026-04-12T09:25:10.986Z</time></trkpt><trkpt lat="44.962683" lon="13.7834504"><ele>14.0</ele><time>2026-04-12T09:25:11.983Z</time></trkpt><trkpt lat="44.9626207" lon="13.7833613"><ele>13.500000000000002</ele><time>2026-04-12T09:25:12.983Z</time></trkpt><trkpt lat="44.9625717" lon="13.7832536"><ele>13.0</ele><time>2026-04-12T09:25:13.989Z</time></trkpt><trkpt lat="44.9625162" lon="13.7831548"><ele>12.5</ele><time>2026-04-12T09:25:14.984Z</time></trkpt><trkpt lat="44.9624614" lon="13.7830525"><ele>12.0</ele><time>2026-04-12T09:25:15.986Z</time></trkpt><trkpt lat="44.9624065" lon="13.7829592"><ele>11.5</ele><time>2026-04-12T09:25:16.982Z</time></trkpt><trkpt lat="44.962355" lon="13.78287"><ele>11.0</ele><time>2026-04-12T09:25:17.985Z</time></trkpt><trkpt lat="44.9623071" lon="13.7827854"><ele>11.0</ele><time>2026-04-12T09:25:18.983Z</time></trkpt><trkpt lat="44.9622642" lon="13.7826995"><ele>11.0</ele><time>2026-04-12T09:25:19.981Z</time></trkpt><trkpt lat="44.9622159" lon="13.7826085"><ele>11.0</ele><time>2026-04-12T09:25:20.983Z</time></trkpt><trkpt lat="44.962154" lon="13.7825308"><ele>11.0</ele><time>2026-04-12T09:25:21.985Z</time></trkpt><trkpt lat="44.9620948" lon="13.7824515"><ele>11.0</ele><time>2026-04-12T09:25:22.982Z</time></trkpt><trkpt lat="44.962021" lon="13.7823919"><ele>11.0</ele><time>2026-04-12T09:25:23.989Z</time></trkpt><trkpt lat="44.9619466" lon="13.782345"><ele>10.428571428571429</ele><time>2026-04-12T09:25:24.984Z</time></trkpt><trkpt lat="44.9618725" lon="13.7822909"><ele>9.857142857142858</ele><time>2026-04-12T09:25:25.993Z</time></trkpt><trkpt lat="44.9618112" lon="13.7822251"><ele>9.285714285714285</ele><time>2026-04-12T09:25:26.985Z</time></trkpt><trkpt lat="44.9617567" lon="13.7821572"><ele>8.714285714285715</ele><time>2026-04-12T09:25:27.986Z</time></trkpt><trkpt lat="44.961727" lon="13.7820723"><ele>8.142857142857142</ele><time>2026-04-12T09:25:28.982Z</time></trkpt><trkpt lat="44.9617092" lon="13.7819853"><ele>7.571428571428571</ele><time>2026-04-12T09:25:29.986Z</time></trkpt><trkpt lat="44.9616952" lon="13.7818898"><ele>7.0</ele><time>2026-04-12T09:25:30.988Z</time></trkpt><trkpt lat="44.9616526" lon="13.7817384"><ele>6.666666666666667</ele><time>2026-04-12T09:25:32.986Z</time></trkpt><trkpt lat="44.9615963" lon="13.7816622"><ele>6.333333333333334</ele><time>2026-04-12T09:25:35.986Z</time></trkpt><trkpt lat="44.9615079" lon="13.7816085"><ele>6.0</ele><time>2026-04-12T09:25:38.986Z</time></trkpt><trkpt lat="44.9614028" lon="13.7816172"><ele>5.666666666666667</ele><time>2026-04-12T09:25:40.992Z</time></trkpt><trkpt lat="44.9613201" lon="13.7815947"><ele>5.333333333333334</ele><time>2026-04-12T09:25:42.986Z</time></trkpt><trkpt lat="44.9613174" lon="13.7814901"><ele>5.0</ele><time>2026-04-12T09:25:45.99Z</time></trkpt><trkpt lat="44.9613689" lon="13.7814023"><ele>5.0</ele><time>2026-04-12T09:25:47.992Z</time></trkpt><trkpt lat="44.9614302" lon="13.7813716"><ele>5.0</ele><time>2026-04-12T09:25:48.992Z</time></trkpt><trkpt lat="44.961501" lon="13.781336"><ele>5.0</ele><time>2026-04-12T09:25:49.991Z</time></trkpt><trkpt lat="44.9615919" lon="13.7812933"><ele>5.0</ele><time>2026-04-12T09:25:50.99Z</time></trkpt><trkpt lat="44.9616929" lon="13.781244"><ele>5.0</ele><time>2026-04-12T09:25:51.987Z</time></trkpt><trkpt lat="44.9617981" lon="13.7811879"><ele>5.0</ele><time>2026-04-12T09:25:52.984Z</time></trkpt><trkpt lat="44.9619095" lon="13.781125"><ele>5.0</ele><time>2026-04-12T09:25:53.99Z</time></trkpt><trkpt lat="44.9620329" lon="13.781057"><ele>5.0</ele><time>2026-04-12T09:25:54.989Z</time></trkpt><trkpt lat="44.9621565" lon="13.7809903"><ele>5.0</ele><time>2026-04-12T09:25:55.986Z</time></trkpt><trkpt lat="44.9622806" lon="13.7809218"><ele>5.0</ele><time>2026-04-12T09:25:56.986Z</time></trkpt><trkpt lat="44.9624139" lon="13.7808498"><ele>5.0</ele><time>2026-04-12T09:25:57.981Z</time></trkpt><trkpt lat="44.9625479" lon="13.7807749"><ele>5.0</ele><time>2026-04-12T09:25:58.985Z</time></trkpt><trkpt lat="44.962684" lon="13.7806859"><ele>5.0</ele><time>2026-04-12T09:25:59.984Z</time></trkpt><trkpt lat="44.9628163" lon="13.7805912"><ele>6.0</ele><time>2026-04-12T09:26:00.984Z</time></trkpt><trkpt lat="44.9629486" lon="13.7804897"><ele>7.0</ele><time>2026-04-12T09:26:01.984Z</time></trkpt><trkpt lat="44.9630793" lon="13.7803768"><ele>8.0</ele><time>2026-04-12T09:26:02.985Z</time></trkpt><trkpt lat="44.9632087" lon="13.7802588"><ele>8.333333333333332</ele><time>2026-04-12T09:26:03.988Z</time></trkpt><trkpt lat="44.9633417" lon="13.7801281"><ele>8.666666666666666</ele><time>2026-04-12T09:26:04.988Z</time></trkpt><trkpt lat="44.9634803" lon="13.7799872"><ele>9.0</ele><time>2026-04-12T09:26:05.985Z</time></trkpt><trkpt lat="44.9636204" lon="13.7798398"><ele>9.666666666666666</ele><time>2026-04-12T09:26:06.984Z</time></trkpt><trkpt lat="44.9637658" lon="13.7796854"><ele>10.333333333333332</ele><time>2026-04-12T09:26:07.987Z</time></trkpt><trkpt lat="44.9639106" lon="13.7795278"><ele>11.0</ele><time>2026-04-12T09:26:08.987Z</time></trkpt><trkpt lat="44.9640573" lon="13.7793675"><ele>11.333333333333332</ele><time>2026-04-12T09:26:09.985Z</time></trkpt><trkpt lat="44.9642038" lon="13.7792062"><ele>11.666666666666666</ele><time>2026-04-12T09:26:10.982Z</time></trkpt><trkpt lat="44.96435" lon="13.779042"><ele>12.0</ele><time>2026-04-12T09:26:11.989Z</time></trkpt><trkpt lat="44.9644938" lon="13.7788699"><ele>12.0</ele><time>2026-04-12T09:26:12.981Z</time></trkpt><trkpt lat="44.9646296" lon="13.7786931"><ele>12.0</ele><time>2026-04-12T09:26:13.994Z</time></trkpt><trkpt lat="44.9647686" lon="13.7785136"><ele>12.0</ele><time>2026-04-12T09:26:14.985Z</time></trkpt><trkpt lat="44.9649059" lon="13.7783366"><ele>13.0</ele><time>2026-04-12T09:26:15.984Z</time></trkpt><trkpt lat="44.9650371" lon="13.7781607"><ele>14.0</ele><time>2026-04-12T09:26:16.986Z</time></trkpt><trkpt lat="44.9651647" lon="13.7779878"><ele>15.0</ele><time>2026-04-12T09:26:17.983Z</time></trkpt><trkpt lat="44.9652907" lon="13.7778185"><ele>14.333333333333332</ele><time>2026-04-12T09:26:18.987Z</time></trkpt><trkpt lat="44.965417" lon="13.7776523"><ele>13.666666666666666</ele><time>2026-04-12T09:26:19.992Z</time></trkpt><trkpt lat="44.9655408" lon="13.7774933"><ele>13.0</ele><time>2026-04-12T09:26:20.985Z</time></trkpt><trkpt lat="44.9656676" lon="13.7773306"><ele>13.0</ele><time>2026-04-12T09:26:21.984Z</time></trkpt><trkpt lat="44.9657969" lon="13.7771624"><ele>13.0</ele><time>2026-04-12T09:26:22.982Z</time></trkpt><trkpt lat="44.9659328" lon="13.7769844"><ele>13.0</ele><time>2026-04-12T09:26:23.984Z</time></trkpt><trkpt lat="44.9660784" lon="13.776793"><ele>12.333333333333332</ele><time>2026-04-12T09:26:24.983Z</time></trkpt><trkpt lat="44.9662266" lon="13.7766074"><ele>11.666666666666666</ele><time>2026-04-12T09:26:25.987Z</time></trkpt><trkpt lat="44.9663753" lon="13.7764193"><ele>11.0</ele><time>2026-04-12T09:26:26.981Z</time></trkpt><trkpt lat="44.9665223" lon="13.7762326"><ele>11.0</ele><time>2026-04-12T09:26:27.984Z</time></trkpt><trkpt lat="44.9666729" lon="13.7760434"><ele>11.0</ele><time>2026-04-12T09:26:28.989Z</time></trkpt><trkpt lat="44.9668208" lon="13.7758554"><ele>11.0</ele><time>2026-04-12T09:26:29.988Z</time></trkpt><trkpt lat="44.9669718" lon="13.775666"><ele>12.333333333333332</ele><time>2026-04-12T09:26:30.983Z</time></trkpt><trkpt lat="44.9671187" lon="13.7754805"><ele>13.666666666666666</ele><time>2026-04-12T09:26:31.983Z</time></trkpt><trkpt lat="44.9672643" lon="13.7752979"><ele>15.0</ele><time>2026-04-12T09:26:32.992Z</time></trkpt><trkpt lat="44.9674112" lon="13.7751117"><ele>16.333333333333332</ele><time>2026-04-12T09:26:33.985Z</time></trkpt><trkpt lat="44.9675588" lon="13.774925"><ele>17.666666666666664</ele><time>2026-04-12T09:26:34.982Z</time></trkpt><trkpt lat="44.9677064" lon="13.7747426"><ele>19.0</ele><time>2026-04-12T09:26:35.984Z</time></trkpt><trkpt lat="44.9678568" lon="13.7745646"><ele>19.0</ele><time>2026-04-12T09:26:36.987Z</time></trkpt><trkpt lat="44.9680131" lon="13.7743953"><ele>19.0</ele><time>2026-04-12T09:26:37.984Z</time></trkpt><trkpt lat="44.9681738" lon="13.7742319"><ele>19.0</ele><time>2026-04-12T09:26:38.984Z</time></trkpt><trkpt lat="44.96834" lon="13.7740732"><ele>18.0</ele><time>2026-04-12T09:26:39.984Z</time></trkpt><trkpt lat="44.9685035" lon="13.7739214"><ele>17.0</ele><time>2026-04-12T09:26:40.986Z</time></trkpt><trkpt lat="44.9686699" lon="13.7737622"><ele>16.0</ele><time>2026-04-12T09:26:41.983Z</time></trkpt><trkpt lat="44.9688405" lon="13.7736126"><ele>15.666666666666666</ele><time>2026-04-12T09:26:42.99Z</time></trkpt><trkpt lat="44.969007" lon="13.7734639"><ele>15.333333333333332</ele><time>2026-04-12T09:26:43.989Z</time></trkpt><trkpt lat="44.9691764" lon="13.7733154"><ele>15.0</ele><time>2026-04-12T09:26:44.982Z</time></trkpt><trkpt lat="44.9693459" lon="13.7731652"><ele>15.666666666666668</ele><time>2026-04-12T09:26:45.985Z</time></trkpt><trkpt lat="44.9695158" lon="13.7730236"><ele>16.333333333333336</ele><time>2026-04-12T09:26:46.983Z</time></trkpt><trkpt lat="44.9696828" lon="13.7728779"><ele>17.0</ele><time>2026-04-12T09:26:47.987Z</time></trkpt><trkpt lat="44.9698495" lon="13.7727316"><ele>17.0</ele><time>2026-04-12T09:26:48.985Z</time></trkpt><trkpt lat="44.9700152" lon="13.7725875"><ele>17.0</ele><time>2026-04-12T09:26:49.988Z</time></trkpt><trkpt lat="44.9701793" lon="13.7724422"><ele>17.0</ele><time>2026-04-12T09:26:50.99Z</time></trkpt><trkpt lat="44.9703454" lon="13.7722977"><ele>17.0</ele><time>2026-04-12T09:26:51.981Z</time></trkpt><trkpt lat="44.970513" lon="13.7721556"><ele>17.0</ele><time>2026-04-12T09:26:52.988Z</time></trkpt><trkpt lat="44.97068" lon="13.7720085"><ele>17.0</ele><time>2026-04-12T09:26:53.987Z</time></trkpt><trkpt lat="44.9708492" lon="13.7718612"><ele>16.333333333333336</ele><time>2026-04-12T09:26:54.981Z</time></trkpt><trkpt lat="44.9710196" lon="13.7717164"><ele>15.666666666666668</ele><time>2026-04-12T09:26:55.985Z</time></trkpt><trkpt lat="44.9711909" lon="13.7715668"><ele>15.0</ele><time>2026-04-12T09:26:56.983Z</time></trkpt><trkpt lat="44.9713628" lon="13.7714221"><ele>15.0</ele><time>2026-04-12T09:26:57.981Z</time></trkpt><trkpt lat="44.971537" lon="13.771265"><ele>15.0</ele><time>2026-04-12T09:26:58.985Z</time></trkpt><trkpt lat="44.9717073" lon="13.7711117"><ele>15.0</ele><time>2026-04-12T09:26:59.985Z</time></trkpt><trkpt lat="44.9718769" lon="13.7709605"><ele>14.0</ele><time>2026-04-12T09:27:00.981Z</time></trkpt><trkpt lat="44.9720482" lon="13.7708088"><ele>13.0</ele><time>2026-04-12T09:27:01.981Z</time></trkpt><trkpt lat="44.9722243" lon="13.7706609"><ele>12.0</ele><time>2026-04-12T09:27:02.989Z</time></trkpt><trkpt lat="44.9724034" lon="13.7705142"><ele>11.666666666666666</ele><time>2026-04-12T09:27:03.983Z</time></trkpt><trkpt lat="44.9725806" lon="13.7703759"><ele>11.333333333333332</ele><time>2026-04-12T09:27:05.001Z</time></trkpt><trkpt lat="44.9727597" lon="13.7702448"><ele>11.0</ele><time>2026-04-12T09:27:05.983Z</time></trkpt><trkpt lat="44.9729371" lon="13.7701146"><ele>11.0</ele><time>2026-04-12T09:27:06.984Z</time></trkpt><trkpt lat="44.9731145" lon="13.7699874"><ele>11.0</ele><time>2026-04-12T09:27:07.985Z</time></trkpt><trkpt lat="44.9732913" lon="13.769865"><ele>11.0</ele><time>2026-04-12T09:27:08.988Z</time></trkpt><trkpt lat="44.9734686" lon="13.7697425"><ele>11.666666666666666</ele><time>2026-04-12T09:27:09.982Z</time></trkpt><trkpt lat="44.9736423" lon="13.7696265"><ele>12.333333333333332</ele><time>2026-04-12T09:27:10.984Z</time></trkpt><trkpt lat="44.9738126" lon="13.7695096"><ele>13.0</ele><time>2026-04-12T09:27:11.985Z</time></trkpt><trkpt lat="44.9739809" lon="13.7693932"><ele>12.666666666666666</ele><time>2026-04-12T09:27:12.982Z</time></trkpt><trkpt lat="44.9741489" lon="13.769279"><ele>12.333333333333332</ele><time>2026-04-12T09:27:13.984Z</time></trkpt><trkpt lat="44.9743164" lon="13.7691674"><ele>12.0</ele><time>2026-04-12T09:27:14.982Z</time></trkpt><trkpt lat="44.9744854" lon="13.7690572"><ele>12.0</ele><time>2026-04-12T09:27:15.987Z</time></trkpt><trkpt lat="44.9746517" lon="13.7689482"><ele>12.0</ele><time>2026-04-12T09:27:16.984Z</time></trkpt><trkpt lat="44.9748187" lon="13.7688445"><ele>12.0</ele><time>2026-04-12T09:27:17.983Z</time></trkpt><trkpt lat="44.9749887" lon="13.7687449"><ele>12.666666666666668</ele><time>2026-04-12T09:27:18.988Z</time></trkpt><trkpt lat="44.9751569" lon="13.7686576"><ele>13.333333333333334</ele><time>2026-04-12T09:27:19.985Z</time></trkpt><trkpt lat="44.9753188" lon="13.768577"><ele>14.0</ele><time>2026-04-12T09:27:20.986Z</time></trkpt><trkpt lat="44.9754727" lon="13.7685162"><ele>12.666666666666668</ele><time>2026-04-12T09:27:21.984Z</time></trkpt><trkpt lat="44.9756295" lon="13.7684649"><ele>11.333333333333334</ele><time>2026-04-12T09:27:22.991Z</time></trkpt><trkpt lat="44.9757818" lon="13.7684298"><ele>10.0</ele><time>2026-04-12T09:27:23.988Z</time></trkpt><trkpt lat="44.9759272" lon="13.768408"><ele>10.0</ele><time>2026-04-12T09:27:24.984Z</time></trkpt><trkpt lat="44.9760666" lon="13.7683935"><ele>10.0</ele><time>2026-04-12T09:27:25.984Z</time></trkpt><trkpt lat="44.9762011" lon="13.7683848"><ele>10.0</ele><time>2026-04-12T09:27:26.98Z</time></trkpt><trkpt lat="44.9763269" lon="13.7683832"><ele>10.0</ele><time>2026-04-12T09:27:27.985Z</time></trkpt><trkpt lat="44.9764316" lon="13.7683859"><ele>10.0</ele><time>2026-04-12T09:27:28.983Z</time></trkpt><trkpt lat="44.9765158" lon="13.768375"><ele>10.0</ele><time>2026-04-12T09:27:29.982Z</time></trkpt><trkpt lat="44.9765919" lon="13.7683395"><ele>10.0</ele><time>2026-04-12T09:27:30.991Z</time></trkpt><trkpt lat="44.9766571" lon="13.7682895"><ele>10.0</ele><time>2026-04-12T09:27:31.985Z</time></trkpt><trkpt lat="44.9767377" lon="13.76823"><ele>10.0</ele><time>2026-04-12T09:27:32.985Z</time></trkpt><trkpt lat="44.9768291" lon="13.7681673"><ele>10.0</ele><time>2026-04-12T09:27:33.98Z</time></trkpt><trkpt lat="44.9769329" lon="13.7681055"><ele>10.0</ele><time>2026-04-12T09:27:34.984Z</time></trkpt><trkpt lat="44.9770409" lon="13.7680413"><ele>10.0</ele><time>2026-04-12T09:27:35.985Z</time></trkpt><trkpt lat="44.9771487" lon="13.7679813"><ele>10.0</ele><time>2026-04-12T09:27:36.984Z</time></trkpt><trkpt lat="44.9772529" lon="13.7679183"><ele>10.0</ele><time>2026-04-12T09:27:37.988Z</time></trkpt><trkpt lat="44.9773684" lon="13.7678586"><ele>10.0</ele><time>2026-04-12T09:27:38.983Z</time></trkpt><trkpt lat="44.9774815" lon="13.7677993"><ele>10.0</ele><time>2026-04-12T09:27:39.985Z</time></trkpt><trkpt lat="44.9775925" lon="13.7677361"><ele>10.0</ele><time>2026-04-12T09:27:40.984Z</time></trkpt><trkpt lat="44.9777012" lon="13.7676735"><ele>10.0</ele><time>2026-04-12T09:27:41.983Z</time></trkpt><trkpt lat="44.977798" lon="13.7676148"><ele>9.6</ele><time>2026-04-12T09:27:42.983Z</time></trkpt><trkpt lat="44.97789" lon="13.7675585"><ele>9.2</ele><time>2026-04-12T09:27:43.986Z</time></trkpt><trkpt lat="44.977974" lon="13.7675071"><ele>8.8</ele><time>2026-04-12T09:27:44.982Z</time></trkpt><trkpt lat="44.9780572" lon="13.767461"><ele>8.4</ele><time>2026-04-12T09:27:45.981Z</time></trkpt><trkpt lat="44.9781396" lon="13.7674155"><ele>8.0</ele><time>2026-04-12T09:27:46.983Z</time></trkpt><trkpt lat="44.9782236" lon="13.7673754"><ele>8.0</ele><time>2026-04-12T09:27:47.986Z</time></trkpt><trkpt lat="44.9783104" lon="13.7673272"><ele>8.0</ele><time>2026-04-12T09:27:48.988Z</time></trkpt><trkpt lat="44.9783958" lon="13.7672612"><ele>8.0</ele><time>2026-04-12T09:27:49.98Z</time></trkpt><trkpt lat="44.9784776" lon="13.7671883"><ele>8.0</ele><time>2026-04-12T09:27:50.984Z</time></trkpt><trkpt lat="44.9785563" lon="13.7670989"><ele>8.0</ele><time>2026-04-12T09:27:51.986Z</time></trkpt><trkpt lat="44.9786352" lon="13.7670092"><ele>7.999999999999999</ele><time>2026-04-12T09:27:52.984Z</time></trkpt><trkpt lat="44.9787104" lon="13.7669286"><ele>8.0</ele><time>2026-04-12T09:27:53.983Z</time></trkpt><trkpt lat="44.9787784" lon="13.7668509"><ele>8.0</ele><time>2026-04-12T09:27:54.985Z</time></trkpt><trkpt lat="44.9788426" lon="13.7667749"><ele>8.0</ele><time>2026-04-12T09:27:55.982Z</time></trkpt><trkpt lat="44.978902" lon="13.7667023"><ele>7.999999999999999</ele><time>2026-04-12T09:27:56.983Z</time></trkpt><trkpt lat="44.9789623" lon="13.7666317"><ele>8.0</ele><time>2026-04-12T09:27:57.984Z</time></trkpt><trkpt lat="44.9790326" lon="13.7665695"><ele>7.800000000000001</ele><time>2026-04-12T09:27:58.989Z</time></trkpt><trkpt lat="44.9791156" lon="13.7665107"><ele>7.6000000000000005</ele><time>2026-04-12T09:27:59.981Z</time></trkpt><trkpt lat="44.979206" lon="13.7664648"><ele>7.3999999999999995</ele><time>2026-04-12T09:28:00.986Z</time></trkpt><trkpt lat="44.9792974" lon="13.7664152"><ele>7.199999999999999</ele><time>2026-04-12T09:28:01.982Z</time></trkpt><trkpt lat="44.9793931" lon="13.7663735"><ele>7.0</ele><time>2026-04-12T09:28:02.988Z</time></trkpt><trkpt lat="44.9794879" lon="13.7663289"><ele>7.0</ele><time>2026-04-12T09:28:03.983Z</time></trkpt><trkpt lat="44.9795837" lon="13.7662759"><ele>6.999999999999999</ele><time>2026-04-12T09:28:04.981Z</time></trkpt><trkpt lat="44.9796807" lon="13.7662183"><ele>6.999999999999999</ele><time>2026-04-12T09:28:05.983Z</time></trkpt><trkpt lat="44.9797769" lon="13.7661694"><ele>7.0</ele><time>2026-04-12T09:28:06.983Z</time></trkpt><trkpt lat="44.9798771" lon="13.7661244"><ele>7.0</ele><time>2026-04-12T09:28:07.985Z</time></trkpt><trkpt lat="44.9799773" lon="13.7660771"><ele>7.199999999999999</ele><time>2026-04-12T09:28:08.987Z</time></trkpt><trkpt lat="44.9800747" lon="13.7660432"><ele>7.3999999999999995</ele><time>2026-04-12T09:28:09.984Z</time></trkpt><trkpt lat="44.9801621" lon="13.7660135"><ele>7.6000000000000005</ele><time>2026-04-12T09:28:10.986Z</time></trkpt><trkpt lat="44.9802643" lon="13.7660041"><ele>7.800000000000001</ele><time>2026-04-12T09:28:11.983Z</time></trkpt><trkpt lat="44.9803716" lon="13.7659695"><ele>8.0</ele><time>2026-04-12T09:28:12.984Z</time></trkpt><trkpt lat="44.9804752" lon="13.7659309"><ele>8.0</ele><time>2026-04-12T09:28:13.984Z</time></trkpt><trkpt lat="44.9805685" lon="13.7658927"><ele>8.0</ele><time>2026-04-12T09:28:14.986Z</time></trkpt><trkpt lat="44.980663" lon="13.7658764"><ele>8.0</ele><time>2026-04-12T09:28:15.984Z</time></trkpt><trkpt lat="44.9807627" lon="13.7658484"><ele>8.0</ele><time>2026-04-12T09:28:16.981Z</time></trkpt><trkpt lat="44.9808684" lon="13.7658121"><ele>8.0</ele><time>2026-04-12T09:28:17.98Z</time></trkpt><trkpt lat="44.980976" lon="13.7657826"><ele>9.0</ele><time>2026-04-12T09:28:18.985Z</time></trkpt><trkpt lat="44.9810851" lon="13.7657421"><ele>10.0</ele><time>2026-04-12T09:28:19.987Z</time></trkpt><trkpt lat="44.9811903" lon="13.7656822"><ele>11.0</ele><time>2026-04-12T09:28:20.984Z</time></trkpt><trkpt lat="44.981294" lon="13.7656229"><ele>12.0</ele><time>2026-04-12T09:28:21.984Z</time></trkpt><trkpt lat="44.9814074" lon="13.7655743"><ele>12.0</ele><time>2026-04-12T09:28:22.981Z</time></trkpt><trkpt lat="44.981511" lon="13.7655225"><ele>12.0</ele><time>2026-04-12T09:28:23.982Z</time></trkpt><trkpt lat="44.9816076" lon="13.7654755"><ele>12.0</ele><time>2026-04-12T09:28:24.982Z</time></trkpt><trkpt lat="44.9817092" lon="13.765428"><ele>12.0</ele><time>2026-04-12T09:28:25.98Z</time></trkpt><trkpt lat="44.9818125" lon="13.7653849"><ele>12.0</ele><time>2026-04-12T09:28:26.985Z</time></trkpt><trkpt lat="44.981933" lon="13.765339"><ele>12.2</ele><time>2026-04-12T09:28:27.981Z</time></trkpt><trkpt lat="44.9820356" lon="13.7653012"><ele>12.399999999999999</ele><time>2026-04-12T09:28:28.983Z</time></trkpt><trkpt lat="44.9821474" lon="13.765255"><ele>12.600000000000001</ele><time>2026-04-12T09:28:29.982Z</time></trkpt><trkpt lat="44.9822568" lon="13.7652287"><ele>12.8</ele><time>2026-04-12T09:28:30.991Z</time></trkpt><trkpt lat="44.982366" lon="13.7651991"><ele>13.0</ele><time>2026-04-12T09:28:31.982Z</time></trkpt><trkpt lat="44.9824704" lon="13.7651701"><ele>13.75</ele><time>2026-04-12T09:28:32.987Z</time></trkpt><trkpt lat="44.9825869" lon="13.765146"><ele>14.5</ele><time>2026-04-12T09:28:33.983Z</time></trkpt><trkpt lat="44.9827092" lon="13.7651256"><ele>15.25</ele><time>2026-04-12T09:28:34.982Z</time></trkpt><trkpt lat="44.9828149" lon="13.7650835"><ele>16.0</ele><time>2026-04-12T09:28:35.987Z</time></trkpt><trkpt lat="44.9829175" lon="13.7650202"><ele>16.0</ele><time>2026-04-12T09:28:36.986Z</time></trkpt><trkpt lat="44.9830253" lon="13.7649622"><ele>16.0</ele><time>2026-04-12T09:28:37.987Z</time></trkpt><trkpt lat="44.9831293" lon="13.7649072"><ele>16.0</ele><time>2026-04-12T09:28:38.983Z</time></trkpt><trkpt lat="44.9832298" lon="13.7648526"><ele>16.0</ele><time>2026-04-12T09:28:39.983Z</time></trkpt><trkpt lat="44.9833285" lon="13.7647941"><ele>16.0</ele><time>2026-04-12T09:28:40.987Z</time></trkpt><trkpt lat="44.9834301" lon="13.7647452"><ele>16.25</ele><time>2026-04-12T09:28:41.986Z</time></trkpt><trkpt lat="44.9835348" lon="13.7647039"><ele>16.5</ele><time>2026-04-12T09:28:42.985Z</time></trkpt><trkpt lat="44.9836481" lon="13.7646831"><ele>16.75</ele><time>2026-04-12T09:28:43.983Z</time></trkpt><trkpt lat="44.9837756" lon="13.7646636"><ele>17.0</ele><time>2026-04-12T09:28:44.989Z</time></trkpt><trkpt lat="44.9838933" lon="13.7646505"><ele>17.0</ele><time>2026-04-12T09:28:45.984Z</time></trkpt><trkpt lat="44.9840171" lon="13.7646319"><ele>17.0</ele><time>2026-04-12T09:28:46.983Z</time></trkpt><trkpt lat="44.9841345" lon="13.764618"><ele>17.0</ele><time>2026-04-12T09:28:47.982Z</time></trkpt><trkpt lat="44.984257" lon="13.7645836"><ele>17.0</ele><time>2026-04-12T09:28:48.984Z</time></trkpt><trkpt lat="44.9843851" lon="13.7645555"><ele>16.25</ele><time>2026-04-12T09:28:49.987Z</time></trkpt><trkpt lat="44.9845099" lon="13.764538"><ele>15.5</ele><time>2026-04-12T09:28:50.993Z</time></trkpt><trkpt lat="44.9846358" lon="13.7645276"><ele>14.75</ele><time>2026-04-12T09:28:52.008Z</time></trkpt><trkpt lat="44.9847582" lon="13.7645117"><ele>14.0</ele><time>2026-04-12T09:28:53.003Z</time></trkpt><trkpt lat="44.9848787" lon="13.7644911"><ele>14.0</ele><time>2026-04-12T09:28:53.986Z</time></trkpt><trkpt lat="44.9850015" lon="13.7644659"><ele>14.0</ele><time>2026-04-12T09:28:54.986Z</time></trkpt><trkpt lat="44.9851262" lon="13.7644471"><ele>14.0</ele><time>2026-04-12T09:28:55.983Z</time></trkpt><trkpt lat="44.9852514" lon="13.7644251"><ele>14.0</ele><time>2026-04-12T09:28:56.991Z</time></trkpt><trkpt lat="44.9853817" lon="13.7644013"><ele>13.0</ele><time>2026-04-12T09:28:57.985Z</time></trkpt><trkpt lat="44.9854955" lon="13.7643638"><ele>11.999999999999998</ele><time>2026-04-12T09:28:58.982Z</time></trkpt><trkpt lat="44.9856089" lon="13.7643403"><ele>11.0</ele><time>2026-04-12T09:28:59.988Z</time></trkpt><trkpt lat="44.9857135" lon="13.7643181"><ele>10.0</ele><time>2026-04-12T09:29:00.988Z</time></trkpt><trkpt lat="44.9858239" lon="13.7642955"><ele>9.0</ele><time>2026-04-12T09:29:01.985Z</time></trkpt><trkpt lat="44.9859192" lon="13.764252"><ele>8.2</ele><time>2026-04-12T09:29:02.98Z</time></trkpt><trkpt lat="44.9860021" lon="13.7641852"><ele>7.4</ele><time>2026-04-12T09:29:03.985Z</time></trkpt><trkpt lat="44.9860772" lon="13.7641016"><ele>6.6</ele><time>2026-04-12T09:29:04.987Z</time></trkpt><trkpt lat="44.9861319" lon="13.7639988"><ele>5.8</ele><time>2026-04-12T09:29:05.989Z</time></trkpt><trkpt lat="44.9861736" lon="13.7638827"><ele>5.0</ele><time>2026-04-12T09:29:06.983Z</time></trkpt><trkpt lat="44.986195" lon="13.7637525"><ele>5.0</ele><time>2026-04-12T09:29:07.987Z</time></trkpt><trkpt lat="44.9862046" lon="13.7636064"><ele>5.0</ele><time>2026-04-12T09:29:08.98Z</time></trkpt><trkpt lat="44.9862068" lon="13.7634578"><ele>5.0</ele><time>2026-04-12T09:29:09.996Z</time></trkpt><trkpt lat="44.9862027" lon="13.7633034"><ele>5.0</ele><time>2026-04-12T09:29:10.992Z</time></trkpt><trkpt lat="44.9861881" lon="13.763153"><ele>5.0</ele><time>2026-04-12T09:29:11.981Z</time></trkpt><trkpt lat="44.9861706" lon="13.7629983"><ele>5.0</ele><time>2026-04-12T09:29:12.986Z</time></trkpt><trkpt lat="44.9861644" lon="13.7628325"><ele>5.0</ele><time>2026-04-12T09:29:13.99Z</time></trkpt><trkpt lat="44.9861653" lon="13.7626682"><ele>5.0</ele><time>2026-04-12T09:29:14.985Z</time></trkpt><trkpt lat="44.9861729" lon="13.7625113"><ele>5.0</ele><time>2026-04-12T09:29:15.989Z</time></trkpt><trkpt lat="44.9861923" lon="13.7623548"><ele>5.5</ele><time>2026-04-12T09:29:16.99Z</time></trkpt><trkpt lat="44.9862136" lon="13.7621978"><ele>6.0</ele><time>2026-04-12T09:29:17.983Z</time></trkpt><trkpt lat="44.9862373" lon="13.7620428"><ele>6.5</ele><time>2026-04-12T09:29:18.989Z</time></trkpt><trkpt lat="44.9862677" lon="13.7618857"><ele>7.0</ele><time>2026-04-12T09:29:19.985Z</time></trkpt><trkpt lat="44.9862931" lon="13.7617249"><ele>7.0</ele><time>2026-04-12T09:29:20.983Z</time></trkpt><trkpt lat="44.9863207" lon="13.7615672"><ele>6.999999999999999</ele><time>2026-04-12T09:29:21.989Z</time></trkpt><trkpt lat="44.9863431" lon="13.761426"><ele>6.999999999999999</ele><time>2026-04-12T09:29:22.992Z</time></trkpt><trkpt lat="44.9863652" lon="13.7612927"><ele>7.0</ele><time>2026-04-12T09:29:23.989Z</time></trkpt><trkpt lat="44.9863804" lon="13.7611744"><ele>7.0</ele><time>2026-04-12T09:29:24.981Z</time></trkpt><trkpt lat="44.9864024" lon="13.7610649"><ele>6.571428571428571</ele><time>2026-04-12T09:29:25.989Z</time></trkpt><trkpt lat="44.9864255" lon="13.7609706"><ele>6.142857142857142</ele><time>2026-04-12T09:29:26.982Z</time></trkpt><trkpt lat="44.9864482" lon="13.7608855"><ele>5.714285714285714</ele><time>2026-04-12T09:29:27.991Z</time></trkpt><trkpt lat="44.986478" lon="13.7607929"><ele>5.285714285714286</ele><time>2026-04-12T09:29:28.99Z</time></trkpt><trkpt lat="44.9865027" lon="13.7606987"><ele>4.857142857142857</ele><time>2026-04-12T09:29:29.985Z</time></trkpt><trkpt lat="44.9865322" lon="13.7606091"><ele>4.428571428571429</ele><time>2026-04-12T09:29:30.984Z</time></trkpt><trkpt lat="44.9865694" lon="13.7605167"><ele>4.0</ele><time>2026-04-12T09:29:31.992Z</time></trkpt><trkpt lat="44.9866037" lon="13.7604257"><ele>3.9999999999999996</ele><time>2026-04-12T09:29:32.987Z</time></trkpt><trkpt lat="44.9866404" lon="13.7603382"><ele>4.0</ele><time>2026-04-12T09:29:33.985Z</time></trkpt><trkpt lat="44.9866688" lon="13.760248"><ele>4.0</ele><time>2026-04-12T09:29:34.99Z</time></trkpt><trkpt lat="44.9867025" lon="13.7601461"><ele>4.0</ele><time>2026-04-12T09:29:35.985Z</time></trkpt><trkpt lat="44.9867375" lon="13.7600301"><ele>3.9999999999999996</ele><time>2026-04-12T09:29:36.988Z</time></trkpt><trkpt lat="44.9867703" lon="13.7599075"><ele>4.0</ele><time>2026-04-12T09:29:37.98Z</time></trkpt><trkpt lat="44.9868043" lon="13.7597853"><ele>4.4</ele><time>2026-04-12T09:29:38.982Z</time></trkpt><trkpt lat="44.9868369" lon="13.7596659"><ele>4.800000000000001</ele><time>2026-04-12T09:29:39.985Z</time></trkpt><trkpt lat="44.9868715" lon="13.7595442"><ele>5.199999999999999</ele><time>2026-04-12T09:29:40.985Z</time></trkpt><trkpt lat="44.9869099" lon="13.7594194"><ele>5.6</ele><time>2026-04-12T09:29:41.983Z</time></trkpt><trkpt lat="44.9869481" lon="13.7592947"><ele>6.0</ele><time>2026-04-12T09:29:42.988Z</time></trkpt><trkpt lat="44.9869869" lon="13.7591701"><ele>6.0</ele><time>2026-04-12T09:29:43.997Z</time></trkpt><trkpt lat="44.9870268" lon="13.7590582"><ele>6.0</ele><time>2026-04-12T09:29:44.995Z</time></trkpt><trkpt lat="44.9870636" lon="13.7589307"><ele>6.0</ele><time>2026-04-12T09:29:45.982Z</time></trkpt><trkpt lat="44.9871052" lon="13.7588069"><ele>6.0</ele><time>2026-04-12T09:29:46.98Z</time></trkpt><trkpt lat="44.9871374" lon="13.7586682"><ele>6.0</ele><time>2026-04-12T09:29:47.985Z</time></trkpt><trkpt lat="44.9871714" lon="13.7585435"><ele>5.833333333333333</ele><time>2026-04-12T09:29:48.982Z</time></trkpt><trkpt lat="44.9872026" lon="13.7584281"><ele>5.666666666666667</ele><time>2026-04-12T09:29:49.982Z</time></trkpt><trkpt lat="44.9872335" lon="13.7583219"><ele>5.5</ele><time>2026-04-12T09:29:50.981Z</time></trkpt><trkpt lat="44.9872616" lon="13.7582316"><ele>5.333333333333334</ele><time>2026-04-12T09:29:51.986Z</time></trkpt><trkpt lat="44.9872912" lon="13.7581244"><ele>5.166666666666667</ele><time>2026-04-12T09:29:53.984Z</time></trkpt><trkpt lat="44.987335" lon="13.7580585"><ele>5.0</ele><time>2026-04-12T09:29:57.985Z</time></trkpt><trkpt lat="44.9873088" lon="13.7581547"><ele>5.0</ele><time>2026-04-12T09:30:01.992Z</time></trkpt><trkpt lat="44.9872658" lon="13.7582208"><ele>5.0</ele><time>2026-04-12T09:30:04.985Z</time></trkpt><trkpt lat="44.9872276" lon="13.758297"><ele>5.0</ele><time>2026-04-12T09:30:07.984Z</time></trkpt><trkpt lat="44.9873036" lon="13.7583524"><ele>5.0</ele><time>2026-04-12T09:30:10.985Z</time></trkpt><trkpt lat="44.9874161" lon="13.7583573"><ele>5.0</ele><time>2026-04-12T09:30:12.985Z</time></trkpt><trkpt lat="44.9874724" lon="13.7584051"><ele>5.0</ele><time>2026-04-12T09:30:13.989Z</time></trkpt><trkpt lat="44.9875288" lon="13.7584579"><ele>5.0</ele><time>2026-04-12T09:30:14.983Z</time></trkpt><trkpt lat="44.9875825" lon="13.758515"><ele>5.0</ele><time>2026-04-12T09:30:15.983Z</time></trkpt><trkpt lat="44.9876561" lon="13.7586086"><ele>5.0</ele><time>2026-04-12T09:30:17.985Z</time></trkpt><trkpt lat="44.9877176" lon="13.7587232"><ele>5.0</ele><time>2026-04-12T09:30:26.984Z</time></trkpt><trkpt lat="44.9877738" lon="13.7588002"><ele>5.0</ele><time>2026-04-12T09:30:29.984Z</time></trkpt><trkpt lat="44.9878444" lon="13.7588956"><ele>5.0</ele><time>2026-04-12T09:30:32.985Z</time></trkpt><trkpt lat="44.9878941" lon="13.7589682"><ele>5.75</ele><time>2026-04-12T09:30:34.986Z</time></trkpt><trkpt lat="44.9879509" lon="13.759077"><ele>6.5</ele><time>2026-04-12T09:30:36.983Z</time></trkpt><trkpt lat="44.9880306" lon="13.7592573"><ele>7.25</ele><time>2026-04-12T09:30:38.983Z</time></trkpt><trkpt lat="44.9880644" lon="13.7593993"><ele>8.0</ele><time>2026-04-12T09:30:40.985Z</time></trkpt><trkpt lat="44.9880338" lon="13.7595726"><ele>8.5</ele><time>2026-04-12T09:30:42.988Z</time></trkpt><trkpt lat="44.988019" lon="13.7596672"><ele>9.0</ele><time>2026-04-12T09:30:43.985Z</time></trkpt><trkpt lat="44.9880082" lon="13.7597549"><ele>9.5</ele><time>2026-04-12T09:30:44.983Z</time></trkpt><trkpt lat="44.9880276" lon="13.7599015"><ele>10.0</ele><time>2026-04-12T09:30:46.985Z</time></trkpt><trkpt lat="44.9880624" lon="13.7600215"><ele>10.5</ele><time>2026-04-12T09:30:48.983Z</time></trkpt><trkpt lat="44.9880998" lon="13.7601492"><ele>11.0</ele><time>2026-04-12T09:30:50.992Z</time></trkpt><trkpt lat="44.9881366" lon="13.7602648"><ele>11.166666666666666</ele><time>2026-04-12T09:30:52.983Z</time></trkpt><trkpt lat="44.9881784" lon="13.7603838"><ele>11.333333333333332</ele><time>2026-04-12T09:30:54.986Z</time></trkpt><trkpt lat="44.9881994" lon="13.7604888"><ele>11.5</ele><time>2026-04-12T09:30:56.989Z</time></trkpt><trkpt lat="44.9882487" lon="13.7605589"><ele>11.666666666666666</ele><time>2026-04-12T09:30:59.988Z</time></trkpt><trkpt lat="44.9883037" lon="13.7606139"><ele>11.833333333333334</ele><time>2026-04-12T09:31:01.986Z</time></trkpt><trkpt lat="44.988388" lon="13.7607145"><ele>12.0</ele><time>2026-04-12T09:31:02.988Z</time></trkpt><trkpt lat="44.9885118" lon="13.7608626"><ele>12.0</ele><time>2026-04-12T09:31:03.98Z</time></trkpt><trkpt lat="44.988607" lon="13.7609684"><ele>12.0</ele><time>2026-04-12T09:31:05.978Z</time></trkpt><trkpt lat="44.9887114" lon="13.7610658"><ele>12.0</ele><time>2026-04-12T09:31:07.989Z</time></trkpt><trkpt lat="44.9887681" lon="13.761112"><ele>12.0</ele><time>2026-04-12T09:31:08.99Z</time></trkpt><trkpt lat="44.9888242" lon="13.76116"><ele>12.0</ele><time>2026-04-12T09:31:09.982Z</time></trkpt><trkpt lat="44.9888765" lon="13.7612213"><ele>12.0</ele><time>2026-04-12T09:31:10.986Z</time></trkpt><trkpt lat="44.9889209" lon="13.7613016"><ele>12.142857142857142</ele><time>2026-04-12T09:31:11.981Z</time></trkpt><trkpt lat="44.9889597" lon="13.7613922"><ele>12.285714285714285</ele><time>2026-04-12T09:31:12.986Z</time></trkpt><trkpt lat="44.9889965" lon="13.7614712"><ele>12.428571428571427</ele><time>2026-04-12T09:31:13.983Z</time></trkpt><trkpt lat="44.9890356" lon="13.7615411"><ele>12.571428571428571</ele><time>2026-04-12T09:31:14.982Z</time></trkpt><trkpt lat="44.9890787" lon="13.7616213"><ele>12.714285714285715</ele><time>2026-04-12T09:31:15.985Z</time></trkpt><trkpt lat="44.9891131" lon="13.7617131"><ele>12.857142857142856</ele><time>2026-04-12T09:31:16.986Z</time></trkpt><trkpt lat="44.9891405" lon="13.7617998"><ele>13.0</ele><time>2026-04-12T09:31:17.986Z</time></trkpt><trkpt lat="44.989168" lon="13.7618845"><ele>13.999999999999998</ele><time>2026-04-12T09:31:18.984Z</time></trkpt><trkpt lat="44.9891985" lon="13.7619711"><ele>15.0</ele><time>2026-04-12T09:31:19.986Z</time></trkpt><trkpt lat="44.9892328" lon="13.762062"><ele>16.0</ele><time>2026-04-12T09:31:20.984Z</time></trkpt><trkpt lat="44.9892709" lon="13.7621526"><ele>17.0</ele><time>2026-04-12T09:31:21.984Z</time></trkpt><trkpt lat="44.9893166" lon="13.7622369"><ele>18.0</ele><time>2026-04-12T09:31:22.981Z</time></trkpt><trkpt lat="44.989353" lon="13.7623164"><ele>19.0</ele><time>2026-04-12T09:31:23.982Z</time></trkpt><trkpt lat="44.9894108" lon="13.7624468"><ele>19.0</ele><time>2026-04-12T09:31:25.984Z</time></trkpt><trkpt lat="44.9894506" lon="13.7625619"><ele>19.0</ele><time>2026-04-12T09:31:27.983Z</time></trkpt><trkpt lat="44.9894675" lon="13.7626841"><ele>19.0</ele><time>2026-04-12T09:32:58.988Z</time></trkpt><trkpt lat="44.9894881" lon="13.7627804"><ele>19.0</ele><time>2026-04-12T09:33:08.983Z</time></trkpt><trkpt lat="44.9895381" lon="13.7628599"><ele>19.0</ele><time>2026-04-12T09:33:11.981Z</time></trkpt><trkpt lat="44.9895964" lon="13.7628966"><ele>19.0</ele><time>2026-04-12T09:37:06.984Z</time></trkpt><trkpt lat="44.9896511" lon="13.7629877"><ele>19.0</ele><time>2026-04-12T09:37:09.983Z</time></trkpt><trkpt lat="44.9896955" lon="13.7630799"><ele>19.0</ele><time>2026-04-12T09:37:12.985Z</time></trkpt><trkpt lat="44.9897448" lon="13.7631951"><ele>19.0</ele><time>2026-04-12T09:37:15.983Z</time></trkpt><trkpt lat="44.9897776" lon="13.7632783"><ele>19.0</ele><time>2026-04-12T09:37:17.998Z</time></trkpt><trkpt lat="44.9898068" lon="13.7633583"><ele>19.0</ele><time>2026-04-12T09:37:19.985Z</time></trkpt><trkpt lat="44.9898395" lon="13.7634356"><ele>19.0</ele><time>2026-04-12T09:37:21.979Z</time></trkpt><trkpt lat="44.9898881" lon="13.7635478"><ele>18.857142857142858</ele><time>2026-04-12T09:37:24.984Z</time></trkpt><trkpt lat="44.9899267" lon="13.7636458"><ele>18.714285714285715</ele><time>2026-04-12T09:37:27.984Z</time></trkpt><trkpt lat="44.9899682" lon="13.7637298"><ele>18.571428571428573</ele><time>2026-04-12T09:37:36.987Z</time></trkpt><trkpt lat="44.9900162" lon="13.7638049"><ele>18.42857142857143</ele><time>2026-04-12T09:38:45.984Z</time></trkpt><trkpt lat="44.9900409" lon="13.7638995"><ele>18.285714285714285</ele><time>2026-04-12T09:38:49.984Z</time></trkpt><trkpt lat="44.9901024" lon="13.7639506"><ele>18.142857142857146</ele><time>2026-04-12T09:38:53.984Z</time></trkpt><trkpt lat="44.9901724" lon="13.7640007"><ele>18.0</ele><time>2026-04-12T09:38:56.986Z</time></trkpt><trkpt lat="44.9902412" lon="13.7640604"><ele>18.5</ele><time>2026-04-12T09:38:59.986Z</time></trkpt><trkpt lat="44.9903011" lon="13.7641038"><ele>19.0</ele><time>2026-04-12T09:39:14.992Z</time></trkpt><trkpt lat="44.9903482" lon="13.7642127"><ele>19.5</ele><time>2026-04-12T09:39:16.991Z</time></trkpt><trkpt lat="44.9903758" lon="13.7642962"><ele>20.0</ele><time>2026-04-12T09:39:18.996Z</time></trkpt><trkpt lat="44.9904941" lon="13.7646161"><ele>20.0</ele><time>2026-04-12T09:39:19.978Z</time></trkpt><trkpt lat="44.9905414" lon="13.764791"><ele>20.0</ele><time>2026-04-12T09:39:21.988Z</time></trkpt><trkpt lat="44.9905714" lon="13.7649188"><ele>20.0</ele><time>2026-04-12T09:39:22.987Z</time></trkpt><trkpt lat="44.9905994" lon="13.765046"><ele>20.0</ele><time>2026-04-12T09:39:23.986Z</time></trkpt><trkpt lat="44.9906291" lon="13.7651836"><ele>20.0</ele><time>2026-04-12T09:39:24.988Z</time></trkpt><trkpt lat="44.9906591" lon="13.7653267"><ele>20.0</ele><time>2026-04-12T09:39:25.98Z</time></trkpt><trkpt lat="44.9906914" lon="13.7654764"><ele>20.0</ele><time>2026-04-12T09:39:26.981Z</time></trkpt><trkpt lat="44.9907221" lon="13.7656321"><ele>20.0</ele><time>2026-04-12T09:39:27.983Z</time></trkpt><trkpt lat="44.9907506" lon="13.7657854"><ele>20.0</ele><time>2026-04-12T09:39:28.983Z</time></trkpt><trkpt lat="44.9907771" lon="13.7659414"><ele>19.75</ele><time>2026-04-12T09:39:29.983Z</time></trkpt><trkpt lat="44.9908026" lon="13.7660971"><ele>19.5</ele><time>2026-04-12T09:39:30.99Z</time></trkpt><trkpt lat="44.9908261" lon="13.7662531"><ele>19.25</ele><time>2026-04-12T09:39:31.987Z</time></trkpt><trkpt lat="44.9908424" lon="13.7664112"><ele>19.0</ele><time>2026-04-12T09:39:32.99Z</time></trkpt><trkpt lat="44.9908523" lon="13.7665722"><ele>18.599999999999998</ele><time>2026-04-12T09:39:33.98Z</time></trkpt><trkpt lat="44.9908591" lon="13.7667231"><ele>18.2</ele><time>2026-04-12T09:39:34.983Z</time></trkpt><trkpt lat="44.99086" lon="13.7668627"><ele>17.799999999999997</ele><time>2026-04-12T09:39:35.989Z</time></trkpt><trkpt lat="44.9908511" lon="13.7669915"><ele>17.4</ele><time>2026-04-12T09:39:36.981Z</time></trkpt><trkpt lat="44.9908353" lon="13.7671071"><ele>17.0</ele><time>2026-04-12T09:39:37.982Z</time></trkpt><trkpt lat="44.9908313" lon="13.7672167"><ele>17.8</ele><time>2026-04-12T09:39:38.981Z</time></trkpt><trkpt lat="44.990847" lon="13.7673345"><ele>18.6</ele><time>2026-04-12T09:39:39.981Z</time></trkpt><trkpt lat="44.9908815" lon="13.7674499"><ele>19.400000000000002</ele><time>2026-04-12T09:39:40.988Z</time></trkpt><trkpt lat="44.990934" lon="13.7675722"><ele>20.2</ele><time>2026-04-12T09:39:41.983Z</time></trkpt><trkpt lat="44.9910025" lon="13.7676893"><ele>21.0</ele><time>2026-04-12T09:39:43.007Z</time></trkpt><trkpt lat="44.9910817" lon="13.7678142"><ele>21.0</ele><time>2026-04-12T09:39:43.99Z</time></trkpt><trkpt lat="44.9911618" lon="13.7679547"><ele>21.0</ele><time>2026-04-12T09:39:44.986Z</time></trkpt><trkpt lat="44.9912379" lon="13.7681022"><ele>21.0</ele><time>2026-04-12T09:39:45.983Z</time></trkpt><trkpt lat="44.991305" lon="13.7682605"><ele>21.0</ele><time>2026-04-12T09:39:46.98Z</time></trkpt><trkpt lat="44.9913536" lon="13.7684326"><ele>20.25</ele><time>2026-04-12T09:39:47.982Z</time></trkpt><trkpt lat="44.9913877" lon="13.7686062"><ele>19.5</ele><time>2026-04-12T09:39:48.99Z</time></trkpt><trkpt lat="44.9914098" lon="13.7687831"><ele>18.75</ele><time>2026-04-12T09:39:49.99Z</time></trkpt><trkpt lat="44.9914318" lon="13.7689485"><ele>18.0</ele><time>2026-04-12T09:39:50.986Z</time></trkpt><trkpt lat="44.9914614" lon="13.7690983"><ele>18.0</ele><time>2026-04-12T09:39:51.98Z</time></trkpt><trkpt lat="44.9914998" lon="13.7692407"><ele>18.0</ele><time>2026-04-12T09:39:52.979Z</time></trkpt><trkpt lat="44.9915608" lon="13.7693834"><ele>18.0</ele><time>2026-04-12T09:39:53.98Z</time></trkpt><trkpt lat="44.9916358" lon="13.7695371"><ele>18.0</ele><time>2026-04-12T09:39:54.979Z</time></trkpt><trkpt lat="44.9917229" lon="13.7697032"><ele>19.666666666666668</ele><time>2026-04-12T09:39:55.984Z</time></trkpt><trkpt lat="44.9918142" lon="13.7698816"><ele>21.333333333333336</ele><time>2026-04-12T09:39:56.981Z</time></trkpt><trkpt lat="44.9919061" lon="13.770063"><ele>23.0</ele><time>2026-04-12T09:39:57.981Z</time></trkpt><trkpt lat="44.9920024" lon="13.7702535"><ele>23.333333333333336</ele><time>2026-04-12T09:39:58.979Z</time></trkpt><trkpt lat="44.9921017" lon="13.7704423"><ele>23.666666666666668</ele><time>2026-04-12T09:39:59.982Z</time></trkpt><trkpt lat="44.9921966" lon="13.770623"><ele>24.0</ele><time>2026-04-12T09:40:00.99Z</time></trkpt><trkpt lat="44.9922887" lon="13.7707935"><ele>24.0</ele><time>2026-04-12T09:40:01.985Z</time></trkpt><trkpt lat="44.9923774" lon="13.7709618"><ele>24.0</ele><time>2026-04-12T09:40:02.98Z</time></trkpt><trkpt lat="44.9924665" lon="13.7711287"><ele>24.0</ele><time>2026-04-12T09:40:03.982Z</time></trkpt><trkpt lat="44.9925702" lon="13.7712716"><ele>24.0</ele><time>2026-04-12T09:40:04.983Z</time></trkpt><trkpt lat="44.9926947" lon="13.771381"><ele>25.0</ele><time>2026-04-12T09:40:05.979Z</time></trkpt><trkpt lat="44.9928408" lon="13.7714671"><ele>26.0</ele><time>2026-04-12T09:40:06.981Z</time></trkpt><trkpt lat="44.9929863" lon="13.7715494"><ele>27.0</ele><time>2026-04-12T09:40:07.98Z</time></trkpt><trkpt lat="44.9931351" lon="13.77165"><ele>27.0</ele><time>2026-04-12T09:40:08.984Z</time></trkpt><trkpt lat="44.9932847" lon="13.7717654"><ele>27.0</ele><time>2026-04-12T09:40:09.978Z</time></trkpt><trkpt lat="44.9934136" lon="13.7718944"><ele>27.0</ele><time>2026-04-12T09:40:10.984Z</time></trkpt><trkpt lat="44.9935363" lon="13.7720229"><ele>28.0</ele><time>2026-04-12T09:40:11.99Z</time></trkpt><trkpt lat="44.9936522" lon="13.7721371"><ele>29.0</ele><time>2026-04-12T09:40:12.981Z</time></trkpt><trkpt lat="44.993772" lon="13.7722204"><ele>30.0</ele><time>2026-04-12T09:40:13.979Z</time></trkpt><trkpt lat="44.9939088" lon="13.7722733"><ele>31.0</ele><time>2026-04-12T09:40:14.983Z</time></trkpt><trkpt lat="44.99405" lon="13.7722905"><ele>32.0</ele><time>2026-04-12T09:40:15.991Z</time></trkpt><trkpt lat="44.9941985" lon="13.7722778"><ele>33.0</ele><time>2026-04-12T09:40:16.983Z</time></trkpt><trkpt lat="44.9943477" lon="13.7722468"><ele>34.0</ele><time>2026-04-12T09:40:17.985Z</time></trkpt><trkpt lat="44.9944936" lon="13.7722101"><ele>35.0</ele><time>2026-04-12T09:40:18.979Z</time></trkpt><trkpt lat="44.9946336" lon="13.7721712"><ele>35.0</ele><time>2026-04-12T09:40:19.983Z</time></trkpt><trkpt lat="44.9947628" lon="13.7721477"><ele>35.0</ele><time>2026-04-12T09:40:20.988Z</time></trkpt><trkpt lat="44.9948853" lon="13.7721456"><ele>35.0</ele><time>2026-04-12T09:40:21.992Z</time></trkpt><trkpt lat="44.9949989" lon="13.7721667"><ele>35.0</ele><time>2026-04-12T09:40:22.986Z</time></trkpt><trkpt lat="44.9951087" lon="13.7722232"><ele>35.4</ele><time>2026-04-12T09:40:23.981Z</time></trkpt><trkpt lat="44.9951969" lon="13.7723012"><ele>35.8</ele><time>2026-04-12T09:40:24.983Z</time></trkpt><trkpt lat="44.9952702" lon="13.7723835"><ele>36.2</ele><time>2026-04-12T09:40:25.983Z</time></trkpt><trkpt lat="44.9953388" lon="13.7724486"><ele>36.6</ele><time>2026-04-12T09:40:26.986Z</time></trkpt><trkpt lat="44.9954341" lon="13.7724802"><ele>37.0</ele><time>2026-04-12T09:40:28.981Z</time></trkpt><trkpt lat="44.9955143" lon="13.7724029"><ele>37.0</ele><time>2026-04-12T09:40:30.985Z</time></trkpt><trkpt lat="44.9956177" lon="13.772308"><ele>37.0</ele><time>2026-04-12T09:40:32.991Z</time></trkpt><trkpt lat="44.9956776" lon="13.7722504"><ele>37.0</ele><time>2026-04-12T09:40:33.983Z</time></trkpt><trkpt lat="44.9957424" lon="13.7721854"><ele>37.0</ele><time>2026-04-12T09:40:34.983Z</time></trkpt><trkpt lat="44.995815" lon="13.7721082"><ele>37.0</ele><time>2026-04-12T09:40:35.983Z</time></trkpt><trkpt lat="44.9958909" lon="13.772029"><ele>37.6</ele><time>2026-04-12T09:40:36.986Z</time></trkpt><trkpt lat="44.9959693" lon="13.7719486"><ele>38.2</ele><time>2026-04-12T09:40:37.983Z</time></trkpt><trkpt lat="44.9960456" lon="13.771855"><ele>38.8</ele><time>2026-04-12T09:40:38.983Z</time></trkpt><trkpt lat="44.9961171" lon="13.7717588"><ele>39.4</ele><time>2026-04-12T09:40:39.987Z</time></trkpt><trkpt lat="44.9961803" lon="13.7716523"><ele>40.0</ele><time>2026-04-12T09:40:40.981Z</time></trkpt><trkpt lat="44.9962408" lon="13.7715435"><ele>40.0</ele><time>2026-04-12T09:40:41.981Z</time></trkpt><trkpt lat="44.9962974" lon="13.771437"><ele>40.0</ele><time>2026-04-12T09:40:42.983Z</time></trkpt><trkpt lat="44.9963485" lon="13.7713211"><ele>40.0</ele><time>2026-04-12T09:40:43.988Z</time></trkpt><trkpt lat="44.9963927" lon="13.7711873"><ele>40.0</ele><time>2026-04-12T09:40:44.985Z</time></trkpt><trkpt lat="44.9964447" lon="13.7710566"><ele>40.0</ele><time>2026-04-12T09:40:45.983Z</time></trkpt><trkpt lat="44.996502" lon="13.770919"><ele>40.2</ele><time>2026-04-12T09:40:46.982Z</time></trkpt><trkpt lat="44.9965551" lon="13.7707857"><ele>40.4</ele><time>2026-04-12T09:40:47.98Z</time></trkpt><trkpt lat="44.9966068" lon="13.7706562"><ele>40.599999999999994</ele><time>2026-04-12T09:40:48.98Z</time></trkpt><trkpt lat="44.9966609" lon="13.7705273"><ele>40.8</ele><time>2026-04-12T09:40:49.982Z</time></trkpt><trkpt lat="44.9967114" lon="13.7703971"><ele>41.0</ele><time>2026-04-12T09:40:50.986Z</time></trkpt><trkpt lat="44.9967628" lon="13.770266"><ele>42.0</ele><time>2026-04-12T09:40:51.987Z</time></trkpt><trkpt lat="44.9968166" lon="13.7701345"><ele>43.0</ele><time>2026-04-12T09:40:52.978Z</time></trkpt><trkpt lat="44.9968599" lon="13.7699947"><ele>44.0</ele><time>2026-04-12T09:40:53.981Z</time></trkpt><trkpt lat="44.9969061" lon="13.7698573"><ele>45.0</ele><time>2026-04-12T09:40:54.987Z</time></trkpt><trkpt lat="44.9969557" lon="13.7697215"><ele>46.0</ele><time>2026-04-12T09:40:55.984Z</time></trkpt><trkpt lat="44.9969981" lon="13.7695825"><ele>46.0</ele><time>2026-04-12T09:40:56.987Z</time></trkpt><trkpt lat="44.9970339" lon="13.7694438"><ele>46.0</ele><time>2026-04-12T09:40:57.982Z</time></trkpt><trkpt lat="44.9970715" lon="13.7693084"><ele>46.0</ele><time>2026-04-12T09:40:58.981Z</time></trkpt><trkpt lat="44.9971093" lon="13.7691707"><ele>46.0</ele><time>2026-04-12T09:40:59.987Z</time></trkpt><trkpt lat="44.9971572" lon="13.7690148"><ele>46.0</ele><time>2026-04-12T09:41:00.995Z</time></trkpt><trkpt lat="44.9972056" lon="13.7688633"><ele>45.5</ele><time>2026-04-12T09:41:01.986Z</time></trkpt><trkpt lat="44.9972553" lon="13.7687122"><ele>45.0</ele><time>2026-04-12T09:41:02.981Z</time></trkpt><trkpt lat="44.9973085" lon="13.768566"><ele>44.5</ele><time>2026-04-12T09:41:03.983Z</time></trkpt><trkpt lat="44.9973605" lon="13.7684271"><ele>44.0</ele><time>2026-04-12T09:41:04.986Z</time></trkpt><trkpt lat="44.9974088" lon="13.7682932"><ele>43.800000000000004</ele><time>2026-04-12T09:41:05.98Z</time></trkpt><trkpt lat="44.9974542" lon="13.7681593"><ele>43.6</ele><time>2026-04-12T09:41:06.978Z</time></trkpt><trkpt lat="44.9975016" lon="13.7680312"><ele>43.4</ele><time>2026-04-12T09:41:07.985Z</time></trkpt><trkpt lat="44.9975513" lon="13.7679017"><ele>43.2</ele><time>2026-04-12T09:41:08.989Z</time></trkpt><trkpt lat="44.9975998" lon="13.7677734"><ele>43.0</ele><time>2026-04-12T09:41:09.978Z</time></trkpt><trkpt lat="44.9976458" lon="13.7676479"><ele>45.0</ele><time>2026-04-12T09:41:10.982Z</time></trkpt><trkpt lat="44.997694" lon="13.7675219"><ele>47.0</ele><time>2026-04-12T09:41:11.987Z</time></trkpt><trkpt lat="44.9977431" lon="13.7673982"><ele>49.0</ele><time>2026-04-12T09:41:12.982Z</time></trkpt><trkpt lat="44.9978065" lon="13.7672812"><ele>51.0</ele><time>2026-04-12T09:41:13.981Z</time></trkpt><trkpt lat="44.9978719" lon="13.767172"><ele>53.0</ele><time>2026-04-12T09:41:14.979Z</time></trkpt><trkpt lat="44.9979388" lon="13.7670623"><ele>53.0</ele><time>2026-04-12T09:41:15.981Z</time></trkpt><trkpt lat="44.9980068" lon="13.7669568"><ele>53.0</ele><time>2026-04-12T09:41:16.984Z</time></trkpt><trkpt lat="44.9980837" lon="13.7668497"><ele>53.0</ele><time>2026-04-12T09:41:17.978Z</time></trkpt><trkpt lat="44.9981586" lon="13.7667562"><ele>53.0</ele><time>2026-04-12T09:41:18.978Z</time></trkpt><trkpt lat="44.9982392" lon="13.7666597"><ele>53.0</ele><time>2026-04-12T09:41:19.989Z</time></trkpt><trkpt lat="44.9983147" lon="13.7665661"><ele>53.50000000000001</ele><time>2026-04-12T09:41:20.98Z</time></trkpt><trkpt lat="44.9983796" lon="13.7664836"><ele>54.0</ele><time>2026-04-12T09:41:21.982Z</time></trkpt><trkpt lat="44.9984452" lon="13.7664043"><ele>54.5</ele><time>2026-04-12T09:41:22.981Z</time></trkpt><trkpt lat="44.9985108" lon="13.7663156"><ele>55.0</ele><time>2026-04-12T09:41:23.982Z</time></trkpt><trkpt lat="44.9985707" lon="13.7662336"><ele>55.50000000000001</ele><time>2026-04-12T09:41:24.981Z</time></trkpt><trkpt lat="44.9986307" lon="13.7661668"><ele>56.0</ele><time>2026-04-12T09:41:25.98Z</time></trkpt><trkpt lat="44.9986897" lon="13.7660916"><ele>55.16666666666667</ele><time>2026-04-12T09:41:26.983Z</time></trkpt><trkpt lat="44.9987367" lon="13.7660147"><ele>54.333333333333336</ele><time>2026-04-12T09:41:27.983Z</time></trkpt><trkpt lat="44.9987887" lon="13.765928"><ele>53.5</ele><time>2026-04-12T09:41:28.981Z</time></trkpt><trkpt lat="44.9988527" lon="13.76584"><ele>52.66666666666667</ele><time>2026-04-12T09:41:29.994Z</time></trkpt><trkpt lat="44.998921" lon="13.7657495"><ele>51.833333333333336</ele><time>2026-04-12T09:41:30.991Z</time></trkpt><trkpt lat="44.9989953" lon="13.7656526"><ele>51.0</ele><time>2026-04-12T09:41:31.983Z</time></trkpt><trkpt lat="44.9990698" lon="13.7655714"><ele>51.0</ele><time>2026-04-12T09:41:32.987Z</time></trkpt><trkpt lat="44.9991441" lon="13.7654856"><ele>51.0</ele><time>2026-04-12T09:41:33.985Z</time></trkpt><trkpt lat="44.9992233" lon="13.7654002"><ele>51.0</ele><time>2026-04-12T09:41:34.98Z</time></trkpt><trkpt lat="44.9993126" lon="13.7653042"><ele>51.0</ele><time>2026-04-12T09:41:35.982Z</time></trkpt><trkpt lat="44.9993938" lon="13.7652181"><ele>51.0</ele><time>2026-04-12T09:41:36.98Z</time></trkpt><trkpt lat="44.9994853" lon="13.7651389"><ele>51.4</ele><time>2026-04-12T09:41:37.98Z</time></trkpt><trkpt lat="44.9995741" lon="13.7650574"><ele>51.8</ele><time>2026-04-12T09:41:38.983Z</time></trkpt><trkpt lat="44.9996724" lon="13.7649725"><ele>52.199999999999996</ele><time>2026-04-12T09:41:39.983Z</time></trkpt><trkpt lat="44.9997647" lon="13.7648967"><ele>52.599999999999994</ele><time>2026-04-12T09:41:40.981Z</time></trkpt><trkpt lat="44.9998492" lon="13.7648234"><ele>53.0</ele><time>2026-04-12T09:41:41.986Z</time></trkpt><trkpt lat="44.9999269" lon="13.7647543"><ele>53.0</ele><time>2026-04-12T09:41:42.981Z</time></trkpt><trkpt lat="45.000012" lon="13.7646798"><ele>53.0</ele><time>2026-04-12T09:41:43.983Z</time></trkpt><trkpt lat="45.0001076" lon="13.7645973"><ele>53.0</ele><time>2026-04-12T09:41:44.981Z</time></trkpt><trkpt lat="45.0001985" lon="13.7645223"><ele>53.0</ele><time>2026-04-12T09:41:45.984Z</time></trkpt><trkpt lat="45.0002889" lon="13.7644601"><ele>53.0</ele><time>2026-04-12T09:41:46.982Z</time></trkpt><trkpt lat="45.0003739" lon="13.7644016"><ele>52.16666666666667</ele><time>2026-04-12T09:41:47.984Z</time></trkpt><trkpt lat="45.0004513" lon="13.764334"><ele>51.333333333333336</ele><time>2026-04-12T09:41:48.982Z</time></trkpt><trkpt lat="45.0005187" lon="13.7642674"><ele>50.5</ele><time>2026-04-12T09:41:49.982Z</time></trkpt><trkpt lat="45.0005776" lon="13.7641879"><ele>49.66666666666667</ele><time>2026-04-12T09:41:50.982Z</time></trkpt><trkpt lat="45.0006399" lon="13.7641122"><ele>48.833333333333336</ele><time>2026-04-12T09:41:51.982Z</time></trkpt><trkpt lat="45.0007093" lon="13.7640323"><ele>48.0</ele><time>2026-04-12T09:41:52.987Z</time></trkpt><trkpt lat="45.0007862" lon="13.7639421"><ele>48.2</ele><time>2026-04-12T09:41:53.981Z</time></trkpt><trkpt lat="45.0008569" lon="13.763845"><ele>48.4</ele><time>2026-04-12T09:41:54.982Z</time></trkpt><trkpt lat="45.0009203" lon="13.7637267"><ele>48.6</ele><time>2026-04-12T09:41:55.987Z</time></trkpt><trkpt lat="45.0009781" lon="13.7635884"><ele>48.800000000000004</ele><time>2026-04-12T09:41:56.984Z</time></trkpt><trkpt lat="45.0010292" lon="13.7634516"><ele>49.0</ele><time>2026-04-12T09:41:57.983Z</time></trkpt><trkpt lat="45.0010882" lon="13.7633084"><ele>49.0</ele><time>2026-04-12T09:41:58.978Z</time></trkpt><trkpt lat="45.00115" lon="13.763173"><ele>49.0</ele><time>2026-04-12T09:41:59.982Z</time></trkpt><trkpt lat="45.0012077" lon="13.7630395"><ele>49.0</ele><time>2026-04-12T09:42:00.981Z</time></trkpt><trkpt lat="45.0012671" lon="13.7629026"><ele>49.0</ele><time>2026-04-12T09:42:01.985Z</time></trkpt><trkpt lat="45.0013236" lon="13.7627621"><ele>48.75</ele><time>2026-04-12T09:42:02.981Z</time></trkpt><trkpt lat="45.0013832" lon="13.7626238"><ele>48.5</ele><time>2026-04-12T09:42:03.98Z</time></trkpt><trkpt lat="45.0014459" lon="13.7624875"><ele>48.25</ele><time>2026-04-12T09:42:04.983Z</time></trkpt><trkpt lat="45.0015186" lon="13.7623626"><ele>48.0</ele><time>2026-04-12T09:42:05.977Z</time></trkpt><trkpt lat="45.0016008" lon="13.7622396"><ele>48.25</ele><time>2026-04-12T09:42:06.984Z</time></trkpt><trkpt lat="45.0016794" lon="13.762113"><ele>48.5</ele><time>2026-04-12T09:42:07.983Z</time></trkpt><trkpt lat="45.0017579" lon="13.7619959"><ele>48.75</ele><time>2026-04-12T09:42:08.983Z</time></trkpt><trkpt lat="45.0018449" lon="13.7618876"><ele>49.0</ele><time>2026-04-12T09:42:09.987Z</time></trkpt><trkpt lat="45.0019417" lon="13.7617853"><ele>49.0</ele><time>2026-04-12T09:42:10.981Z</time></trkpt><trkpt lat="45.0020346" lon="13.7616874"><ele>49.0</ele><time>2026-04-12T09:42:11.983Z</time></trkpt><trkpt lat="45.002123" lon="13.7615875"><ele>49.0</ele><time>2026-04-12T09:42:12.988Z</time></trkpt><trkpt lat="45.0022159" lon="13.7614966"><ele>49.0</ele><time>2026-04-12T09:42:13.983Z</time></trkpt><trkpt lat="45.0023159" lon="13.7614134"><ele>49.0</ele><time>2026-04-12T09:42:14.992Z</time></trkpt><trkpt lat="45.0024142" lon="13.761339"><ele>49.0</ele><time>2026-04-12T09:42:15.99Z</time></trkpt><trkpt lat="45.0025076" lon="13.7612677"><ele>49.0</ele><time>2026-04-12T09:42:16.988Z</time></trkpt><trkpt lat="45.0026018" lon="13.7612006"><ele>49.0</ele><time>2026-04-12T09:42:17.986Z</time></trkpt><trkpt lat="45.0026989" lon="13.7611314"><ele>49.0</ele><time>2026-04-12T09:42:18.989Z</time></trkpt><trkpt lat="45.0028003" lon="13.7610745"><ele>48.75</ele><time>2026-04-12T09:42:19.985Z</time></trkpt><trkpt lat="45.0029074" lon="13.7610165"><ele>48.5</ele><time>2026-04-12T09:42:20.989Z</time></trkpt><trkpt lat="45.0030206" lon="13.7609654"><ele>48.25</ele><time>2026-04-12T09:42:21.979Z</time></trkpt><trkpt lat="45.003134" lon="13.7609207"><ele>48.0</ele><time>2026-04-12T09:42:22.983Z</time></trkpt><trkpt lat="45.0032493" lon="13.7608745"><ele>47.5</ele><time>2026-04-12T09:42:23.983Z</time></trkpt><trkpt lat="45.0033543" lon="13.7608299"><ele>47.0</ele><time>2026-04-12T09:42:24.988Z</time></trkpt><trkpt lat="45.0034652" lon="13.7607846"><ele>46.5</ele><time>2026-04-12T09:42:25.985Z</time></trkpt><trkpt lat="45.0035789" lon="13.7607397"><ele>46.0</ele><time>2026-04-12T09:42:26.981Z</time></trkpt><trkpt lat="45.0036968" lon="13.7606961"><ele>46.0</ele><time>2026-04-12T09:42:27.981Z</time></trkpt><trkpt lat="45.0038166" lon="13.7606511"><ele>46.0</ele><time>2026-04-12T09:42:28.983Z</time></trkpt><trkpt lat="45.0039344" lon="13.7605947"><ele>46.0</ele><time>2026-04-12T09:42:29.979Z</time></trkpt><trkpt lat="45.0040484" lon="13.7605326"><ele>46.0</ele><time>2026-04-12T09:42:30.984Z</time></trkpt><trkpt lat="45.0041546" lon="13.7604626"><ele>46.0</ele><time>2026-04-12T09:42:31.984Z</time></trkpt><trkpt lat="45.0042548" lon="13.7603767"><ele>46.0</ele><time>2026-04-12T09:42:32.987Z</time></trkpt><trkpt lat="45.0043383" lon="13.7602738"><ele>46.0</ele><time>2026-04-12T09:42:33.979Z</time></trkpt><trkpt lat="45.0044132" lon="13.7601487"><ele>46.0</ele><time>2026-04-12T09:42:34.979Z</time></trkpt><trkpt lat="45.0044926" lon="13.7600111"><ele>46.25</ele><time>2026-04-12T09:42:35.989Z</time></trkpt><trkpt lat="45.004572" lon="13.7598672"><ele>46.5</ele><time>2026-04-12T09:42:36.99Z</time></trkpt><trkpt lat="45.0046498" lon="13.7597197"><ele>46.75</ele><time>2026-04-12T09:42:37.985Z</time></trkpt><trkpt lat="45.0047281" lon="13.7595712"><ele>47.0</ele><time>2026-04-12T09:42:38.996Z</time></trkpt><trkpt lat="45.0048042" lon="13.759428"><ele>47.0</ele><time>2026-04-12T09:42:39.981Z</time></trkpt><trkpt lat="45.004882" lon="13.7592821"><ele>47.0</ele><time>2026-04-12T09:42:40.988Z</time></trkpt><trkpt lat="45.0049589" lon="13.759142"><ele>47.0</ele><time>2026-04-12T09:42:41.98Z</time></trkpt><trkpt lat="45.0050356" lon="13.7590022"><ele>47.0</ele><time>2026-04-12T09:42:42.981Z</time></trkpt><trkpt lat="45.0051137" lon="13.7588649"><ele>47.5</ele><time>2026-04-12T09:42:43.981Z</time></trkpt><trkpt lat="45.0051896" lon="13.7587277"><ele>48.0</ele><time>2026-04-12T09:42:44.982Z</time></trkpt><trkpt lat="45.0052648" lon="13.7585888"><ele>48.5</ele><time>2026-04-12T09:42:45.985Z</time></trkpt><trkpt lat="45.0053373" lon="13.7584534"><ele>49.0</ele><time>2026-04-12T09:42:46.981Z</time></trkpt><trkpt lat="45.0054067" lon="13.7583283"><ele>49.0</ele><time>2026-04-12T09:42:47.98Z</time></trkpt><trkpt lat="45.0054745" lon="13.7582208"><ele>49.0</ele><time>2026-04-12T09:42:48.981Z</time></trkpt><trkpt lat="45.0055439" lon="13.7581188"><ele>49.0</ele><time>2026-04-12T09:42:49.983Z</time></trkpt><trkpt lat="45.0056364" lon="13.7580279"><ele>49.0</ele><time>2026-04-12T09:42:50.989Z</time></trkpt><trkpt lat="45.0057354" lon="13.7579452"><ele>49.0</ele><time>2026-04-12T09:42:51.98Z</time></trkpt><trkpt lat="45.005837" lon="13.757865"><ele>49.0</ele><time>2026-04-12T09:42:52.98Z</time></trkpt><trkpt lat="45.0059406" lon="13.757787"><ele>49.0</ele><time>2026-04-12T09:42:53.99Z</time></trkpt><trkpt lat="45.006048" lon="13.7577063"><ele>49.0</ele><time>2026-04-12T09:42:54.986Z</time></trkpt><trkpt lat="45.0061543" lon="13.7576253"><ele>49.0</ele><time>2026-04-12T09:42:55.979Z</time></trkpt><trkpt lat="45.0062585" lon="13.757546"><ele>49.0</ele><time>2026-04-12T09:42:56.987Z</time></trkpt><trkpt lat="45.0063615" lon="13.7574681"><ele>49.0</ele><time>2026-04-12T09:42:57.98Z</time></trkpt><trkpt lat="45.0064632" lon="13.7573919"><ele>49.0</ele><time>2026-04-12T09:42:58.985Z</time></trkpt><trkpt lat="45.0065656" lon="13.7573134"><ele>49.0</ele><time>2026-04-12T09:42:59.984Z</time></trkpt><trkpt lat="45.0066699" lon="13.7572355"><ele>49.75</ele><time>2026-04-12T09:43:00.996Z</time></trkpt><trkpt lat="45.0067737" lon="13.7571595"><ele>50.5</ele><time>2026-04-12T09:43:01.983Z</time></trkpt><trkpt lat="45.006882" lon="13.7570766"><ele>51.25</ele><time>2026-04-12T09:43:02.982Z</time></trkpt><trkpt lat="45.0069935" lon="13.7569884"><ele>52.0</ele><time>2026-04-12T09:43:03.986Z</time></trkpt><trkpt lat="45.0071033" lon="13.7569032"><ele>51.0</ele><time>2026-04-12T09:43:04.983Z</time></trkpt><trkpt lat="45.0072047" lon="13.756817"><ele>50.0</ele><time>2026-04-12T09:43:05.978Z</time></trkpt><trkpt lat="45.0072958" lon="13.7567289"><ele>49.0</ele><time>2026-04-12T09:43:06.981Z</time></trkpt><trkpt lat="45.0073722" lon="13.7566369"><ele>48.0</ele><time>2026-04-12T09:43:07.982Z</time></trkpt><trkpt lat="45.007435" lon="13.7565363"><ele>47.0</ele><time>2026-04-12T09:43:08.984Z</time></trkpt><trkpt lat="45.0074875" lon="13.75642"><ele>47.25</ele><time>2026-04-12T09:43:09.98Z</time></trkpt><trkpt lat="45.0075259" lon="13.7562835"><ele>47.5</ele><time>2026-04-12T09:43:10.98Z</time></trkpt><trkpt lat="45.0075541" lon="13.7561311"><ele>47.75</ele><time>2026-04-12T09:43:11.985Z</time></trkpt><trkpt lat="45.0075774" lon="13.7559655"><ele>48.0</ele><time>2026-04-12T09:43:12.979Z</time></trkpt><trkpt lat="45.0076" lon="13.7557915"><ele>47.5</ele><time>2026-04-12T09:43:13.979Z</time></trkpt><trkpt lat="45.007626" lon="13.7556153"><ele>47.0</ele><time>2026-04-12T09:43:14.985Z</time></trkpt><trkpt lat="45.0076537" lon="13.7554417"><ele>46.5</ele><time>2026-04-12T09:43:15.98Z</time></trkpt><trkpt lat="45.0076814" lon="13.7552717"><ele>46.0</ele><time>2026-04-12T09:43:16.978Z</time></trkpt><trkpt lat="45.0077098" lon="13.7551043"><ele>45.75</ele><time>2026-04-12T09:43:17.984Z</time></trkpt><trkpt lat="45.0077383" lon="13.7549373"><ele>45.5</ele><time>2026-04-12T09:43:18.981Z</time></trkpt><trkpt lat="45.0077666" lon="13.7547731"><ele>45.25</ele><time>2026-04-12T09:43:19.984Z</time></trkpt><trkpt lat="45.0077953" lon="13.7546124"><ele>45.0</ele><time>2026-04-12T09:43:20.985Z</time></trkpt><trkpt lat="45.0078258" lon="13.7544506"><ele>44.25</ele><time>2026-04-12T09:43:21.98Z</time></trkpt><trkpt lat="45.0078608" lon="13.7542891"><ele>43.5</ele><time>2026-04-12T09:43:22.982Z</time></trkpt><trkpt lat="45.0079089" lon="13.7541222"><ele>42.75</ele><time>2026-04-12T09:43:23.98Z</time></trkpt><trkpt lat="45.0079582" lon="13.7539577"><ele>42.0</ele><time>2026-04-12T09:43:24.98Z</time></trkpt><trkpt lat="45.0080089" lon="13.7538012"><ele>42.0</ele><time>2026-04-12T09:43:25.995Z</time></trkpt><trkpt lat="45.008063" lon="13.7536518"><ele>42.0</ele><time>2026-04-12T09:43:26.985Z</time></trkpt><trkpt lat="45.0081202" lon="13.7535009"><ele>42.0</ele><time>2026-04-12T09:43:27.985Z</time></trkpt><trkpt lat="45.008175" lon="13.7533564"><ele>42.0</ele><time>2026-04-12T09:43:28.985Z</time></trkpt><trkpt lat="45.0082255" lon="13.7532327"><ele>42.0</ele><time>2026-04-12T09:43:29.985Z</time></trkpt><trkpt lat="45.0082811" lon="13.7530933"><ele>42.0</ele><time>2026-04-12T09:43:30.983Z</time></trkpt><trkpt lat="45.0083351" lon="13.7529607"><ele>42.0</ele><time>2026-04-12T09:43:31.989Z</time></trkpt><trkpt lat="45.0083803" lon="13.7528392"><ele>42.0</ele><time>2026-04-12T09:43:32.985Z</time></trkpt><trkpt lat="45.0084181" lon="13.7527353"><ele>42.0</ele><time>2026-04-12T09:43:33.989Z</time></trkpt><trkpt lat="45.0084494" lon="13.7526516"><ele>42.0</ele><time>2026-04-12T09:43:34.978Z</time></trkpt><trkpt lat="45.0084968" lon="13.7525373"><ele>42.0</ele><time>2026-04-12T09:43:36.984Z</time></trkpt><trkpt lat="45.0085336" lon="13.7524371"><ele>42.0</ele><time>2026-04-12T09:43:38.98Z</time></trkpt><trkpt lat="45.008577" lon="13.752278"><ele>42.0</ele><time>2026-04-12T09:43:40.987Z</time></trkpt><trkpt lat="45.0086095" lon="13.752173"><ele>42.0</ele><time>2026-04-12T09:43:41.986Z</time></trkpt><trkpt lat="45.008645" lon="13.7520596"><ele>42.0</ele><time>2026-04-12T09:43:42.984Z</time></trkpt><trkpt lat="45.0086798" lon="13.7519508"><ele>42.0</ele><time>2026-04-12T09:43:43.982Z</time></trkpt><trkpt lat="45.0087193" lon="13.7518378"><ele>42.0</ele><time>2026-04-12T09:43:44.981Z</time></trkpt><trkpt lat="45.0087592" lon="13.7517299"><ele>42.0</ele><time>2026-04-12T09:43:45.982Z</time></trkpt><trkpt lat="45.0088008" lon="13.7516249"><ele>42.0</ele><time>2026-04-12T09:43:46.986Z</time></trkpt><trkpt lat="45.0088357" lon="13.7515234"><ele>42.0</ele><time>2026-04-12T09:43:47.984Z</time></trkpt><trkpt lat="45.0088726" lon="13.7514288"><ele>42.0</ele><time>2026-04-12T09:43:48.98Z</time></trkpt><trkpt lat="45.0089139" lon="13.7513347"><ele>42.0</ele><time>2026-04-12T09:43:49.983Z</time></trkpt><trkpt lat="45.0089542" lon="13.751241"><ele>42.0</ele><time>2026-04-12T09:43:50.982Z</time></trkpt><trkpt lat="45.0089971" lon="13.7511491"><ele>42.0</ele><time>2026-04-12T09:43:51.983Z</time></trkpt><trkpt lat="45.0090416" lon="13.7510552"><ele>42.0</ele><time>2026-04-12T09:43:52.985Z</time></trkpt><trkpt lat="45.0090896" lon="13.7509632"><ele>42.0</ele><time>2026-04-12T09:43:53.986Z</time></trkpt><trkpt lat="45.0091387" lon="13.7508765"><ele>42.833333333333336</ele><time>2026-04-12T09:43:54.982Z</time></trkpt><trkpt lat="45.0091904" lon="13.7507943"><ele>43.666666666666664</ele><time>2026-04-12T09:43:55.983Z</time></trkpt><trkpt lat="45.0092389" lon="13.7507102"><ele>44.5</ele><time>2026-04-12T09:43:56.984Z</time></trkpt><trkpt lat="45.0092875" lon="13.7506311"><ele>45.33333333333333</ele><time>2026-04-12T09:43:57.987Z</time></trkpt><trkpt lat="45.0093445" lon="13.7505527"><ele>46.166666666666664</ele><time>2026-04-12T09:43:58.98Z</time></trkpt><trkpt lat="45.0093982" lon="13.7504692"><ele>47.0</ele><time>2026-04-12T09:43:59.985Z</time></trkpt><trkpt lat="45.0094491" lon="13.7503767"><ele>47.0</ele><time>2026-04-12T09:44:00.981Z</time></trkpt><trkpt lat="45.0095001" lon="13.750285"><ele>47.0</ele><time>2026-04-12T09:44:01.982Z</time></trkpt><trkpt lat="45.0095487" lon="13.7501954"><ele>47.0</ele><time>2026-04-12T09:44:02.986Z</time></trkpt><trkpt lat="45.0096046" lon="13.7501062"><ele>47.0</ele><time>2026-04-12T09:44:03.984Z</time></trkpt><trkpt lat="45.0096609" lon="13.7500105"><ele>47.0</ele><time>2026-04-12T09:44:04.981Z</time></trkpt><trkpt lat="45.0097158" lon="13.749912"><ele>47.0</ele><time>2026-04-12T09:44:05.984Z</time></trkpt><trkpt lat="45.0097681" lon="13.7498135"><ele>46.83333333333333</ele><time>2026-04-12T09:44:06.988Z</time></trkpt><trkpt lat="45.0098159" lon="13.7497119"><ele>46.666666666666664</ele><time>2026-04-12T09:44:07.981Z</time></trkpt><trkpt lat="45.0098596" lon="13.7496078"><ele>46.5</ele><time>2026-04-12T09:44:08.979Z</time></trkpt><trkpt lat="45.0098951" lon="13.7495024"><ele>46.333333333333336</ele><time>2026-04-12T09:44:09.981Z</time></trkpt><trkpt lat="45.0099259" lon="13.7493929"><ele>46.16666666666667</ele><time>2026-04-12T09:44:10.987Z</time></trkpt><trkpt lat="45.0099486" lon="13.7492964"><ele>46.0</ele><time>2026-04-12T09:44:11.98Z</time></trkpt><trkpt lat="45.0099917" lon="13.7491732"><ele>46.599999999999994</ele><time>2026-04-12T09:44:13.988Z</time></trkpt><trkpt lat="45.0100569" lon="13.7491288"><ele>47.2</ele><time>2026-04-12T09:44:16.979Z</time></trkpt><trkpt lat="45.0101305" lon="13.7491683"><ele>47.8</ele><time>2026-04-12T09:44:19.979Z</time></trkpt><trkpt lat="45.0101956" lon="13.7492023"><ele>48.400000000000006</ele><time>2026-04-12T09:44:21.978Z</time></trkpt><trkpt lat="45.0103404" lon="13.7493456"><ele>49.0</ele><time>2026-04-12T09:44:22.981Z</time></trkpt><trkpt lat="45.010428" lon="13.7494638"><ele>48.99999999999999</ele><time>2026-04-12T09:44:23.981Z</time></trkpt><trkpt lat="45.0104778" lon="13.7495689"><ele>49.0</ele><time>2026-04-12T09:44:24.977Z</time></trkpt><trkpt lat="45.010522" lon="13.7496538"><ele>49.0</ele><time>2026-04-12T09:44:25.98Z</time></trkpt><trkpt lat="45.0106175" lon="13.7497528"><ele>49.0</ele><time>2026-04-12T09:44:27.983Z</time></trkpt><trkpt lat="45.0107151" lon="13.7497332"><ele>48.99999999999999</ele><time>2026-04-12T09:44:29.98Z</time></trkpt><trkpt lat="45.0107666" lon="13.7496816"><ele>49.0</ele><time>2026-04-12T09:44:30.985Z</time></trkpt><trkpt lat="45.0108244" lon="13.7496104"><ele>49.2</ele><time>2026-04-12T09:44:31.98Z</time></trkpt><trkpt lat="45.0108881" lon="13.7495128"><ele>49.400000000000006</ele><time>2026-04-12T09:44:32.985Z</time></trkpt><trkpt lat="45.0109625" lon="13.7493993"><ele>49.6</ele><time>2026-04-12T09:44:33.98Z</time></trkpt><trkpt lat="45.011043" lon="13.7492809"><ele>49.8</ele><time>2026-04-12T09:44:34.98Z</time></trkpt><trkpt lat="45.0111254" lon="13.7491699"><ele>50.0</ele><time>2026-04-12T09:44:35.985Z</time></trkpt><trkpt lat="45.0112088" lon="13.7490609"><ele>50.0</ele><time>2026-04-12T09:44:36.98Z</time></trkpt><trkpt lat="45.011294" lon="13.7489487"><ele>50.0</ele><time>2026-04-12T09:44:37.984Z</time></trkpt><trkpt lat="45.0113776" lon="13.7488403"><ele>50.0</ele><time>2026-04-12T09:44:38.981Z</time></trkpt><trkpt lat="45.0114638" lon="13.7487317"><ele>50.0</ele><time>2026-04-12T09:44:39.982Z</time></trkpt><trkpt lat="45.0115565" lon="13.748619"><ele>48.5</ele><time>2026-04-12T09:44:40.987Z</time></trkpt><trkpt lat="45.0116751" lon="13.7484749"><ele>47.0</ele><time>2026-04-12T09:44:43.431Z</time></trkpt><trkpt lat="45.0119137" lon="13.7481675"><ele>47.0</ele><time>2026-04-12T09:44:44.988Z</time></trkpt><trkpt lat="45.0120284" lon="13.7480159"><ele>47.0</ele><time>2026-04-12T09:44:45.988Z</time></trkpt><trkpt lat="45.0121261" lon="13.747886"><ele>47.0</ele><time>2026-04-12T09:44:46.98Z</time></trkpt><trkpt lat="45.0122204" lon="13.7477603"><ele>47.0</ele><time>2026-04-12T09:44:47.98Z</time></trkpt><trkpt lat="45.012316" lon="13.7476336"><ele>47.0</ele><time>2026-04-12T09:44:48.995Z</time></trkpt><trkpt lat="45.0124073" lon="13.7475115"><ele>47.0</ele><time>2026-04-12T09:44:49.982Z</time></trkpt><trkpt lat="45.0124996" lon="13.7473943"><ele>47.0</ele><time>2026-04-12T09:44:50.986Z</time></trkpt><trkpt lat="45.0125919" lon="13.7472806"><ele>47.0</ele><time>2026-04-12T09:44:51.986Z</time></trkpt><trkpt lat="45.0126828" lon="13.7471644"><ele>47.0</ele><time>2026-04-12T09:44:52.986Z</time></trkpt><trkpt lat="45.0127731" lon="13.7470413"><ele>47.0</ele><time>2026-04-12T09:44:53.984Z</time></trkpt><trkpt lat="45.012862" lon="13.7469151"><ele>47.0</ele><time>2026-04-12T09:44:54.998Z</time></trkpt><trkpt lat="45.0129459" lon="13.7467884"><ele>47.0</ele><time>2026-04-12T09:44:55.98Z</time></trkpt><trkpt lat="45.0130373" lon="13.7466678"><ele>47.5</ele><time>2026-04-12T09:44:56.981Z</time></trkpt><trkpt lat="45.0131336" lon="13.7465536"><ele>48.0</ele><time>2026-04-12T09:44:57.979Z</time></trkpt><trkpt lat="45.0132313" lon="13.7464385"><ele>48.5</ele><time>2026-04-12T09:44:58.982Z</time></trkpt><trkpt lat="45.0133268" lon="13.7463203"><ele>49.0</ele><time>2026-04-12T09:44:59.983Z</time></trkpt><trkpt lat="45.0134206" lon="13.7462017"><ele>49.0</ele><time>2026-04-12T09:45:00.982Z</time></trkpt><trkpt lat="45.0135133" lon="13.7460816"><ele>49.0</ele><time>2026-04-12T09:45:01.988Z</time></trkpt><trkpt lat="45.0136065" lon="13.7459609"><ele>49.0</ele><time>2026-04-12T09:45:02.981Z</time></trkpt><trkpt lat="45.0137059" lon="13.7458436"><ele>49.0</ele><time>2026-04-12T09:45:03.984Z</time></trkpt><trkpt lat="45.0138041" lon="13.7457202"><ele>49.5</ele><time>2026-04-12T09:45:04.984Z</time></trkpt><trkpt lat="45.0139065" lon="13.7455919"><ele>50.0</ele><time>2026-04-12T09:45:05.985Z</time></trkpt><trkpt lat="45.0140045" lon="13.7454626"><ele>50.5</ele><time>2026-04-12T09:45:06.979Z</time></trkpt><trkpt lat="45.0141042" lon="13.7453309"><ele>51.0</ele><time>2026-04-12T09:45:07.989Z</time></trkpt><trkpt lat="45.0142059" lon="13.7451992"><ele>52.0</ele><time>2026-04-12T09:45:08.982Z</time></trkpt><trkpt lat="45.0143103" lon="13.7450652"><ele>53.0</ele><time>2026-04-12T09:45:09.985Z</time></trkpt><trkpt lat="45.0144119" lon="13.7449331"><ele>54.0</ele><time>2026-04-12T09:45:10.982Z</time></trkpt><trkpt lat="45.014511" lon="13.744802"><ele>55.0</ele><time>2026-04-12T09:45:11.981Z</time></trkpt><trkpt lat="45.0146013" lon="13.7446741"><ele>55.0</ele><time>2026-04-12T09:45:12.98Z</time></trkpt><trkpt lat="45.0146798" lon="13.7445524"><ele>55.0</ele><time>2026-04-12T09:45:13.978Z</time></trkpt><trkpt lat="45.0147521" lon="13.7444399"><ele>55.0</ele><time>2026-04-12T09:45:14.979Z</time></trkpt><trkpt lat="45.0148257" lon="13.7443447"><ele>55.0</ele><time>2026-04-12T09:45:15.983Z</time></trkpt><trkpt lat="45.0149098" lon="13.7442494"><ele>55.0</ele><time>2026-04-12T09:45:16.98Z</time></trkpt><trkpt lat="45.0149983" lon="13.7441404"><ele>55.0</ele><time>2026-04-12T09:45:17.984Z</time></trkpt><trkpt lat="45.0150926" lon="13.7440236"><ele>55.0</ele><time>2026-04-12T09:45:18.98Z</time></trkpt><trkpt lat="45.0151899" lon="13.7439074"><ele>55.0</ele><time>2026-04-12T09:45:19.984Z</time></trkpt><trkpt lat="45.015284" lon="13.7437921"><ele>55.0</ele><time>2026-04-12T09:45:20.982Z</time></trkpt><trkpt lat="45.0153757" lon="13.7436761"><ele>55.0</ele><time>2026-04-12T09:45:21.986Z</time></trkpt><trkpt lat="45.0154669" lon="13.7435549"><ele>55.0</ele><time>2026-04-12T09:45:22.981Z</time></trkpt><trkpt lat="45.0155587" lon="13.7434296"><ele>55.0</ele><time>2026-04-12T09:45:23.977Z</time></trkpt><trkpt lat="45.0156512" lon="13.7433063"><ele>55.0</ele><time>2026-04-12T09:45:24.98Z</time></trkpt><trkpt lat="45.0157419" lon="13.7431844"><ele>54.75</ele><time>2026-04-12T09:45:25.99Z</time></trkpt><trkpt lat="45.0158324" lon="13.743066"><ele>54.5</ele><time>2026-04-12T09:45:26.984Z</time></trkpt><trkpt lat="45.015923" lon="13.7429493"><ele>54.25</ele><time>2026-04-12T09:45:27.984Z</time></trkpt><trkpt lat="45.016012" lon="13.7428279"><ele>54.0</ele><time>2026-04-12T09:45:28.981Z</time></trkpt><trkpt lat="45.0161017" lon="13.7427034"><ele>54.75</ele><time>2026-04-12T09:45:29.984Z</time></trkpt><trkpt lat="45.0161922" lon="13.7425819"><ele>55.5</ele><time>2026-04-12T09:45:30.981Z</time></trkpt><trkpt lat="45.0162854" lon="13.742466"><ele>56.25</ele><time>2026-04-12T09:45:31.98Z</time></trkpt><trkpt lat="45.0163744" lon="13.7423481"><ele>57.0</ele><time>2026-04-12T09:45:32.983Z</time></trkpt><trkpt lat="45.0164627" lon="13.7422263"><ele>57.0</ele><time>2026-04-12T09:45:33.979Z</time></trkpt><trkpt lat="45.0165436" lon="13.7421112"><ele>57.0</ele><time>2026-04-12T09:45:34.979Z</time></trkpt><trkpt lat="45.0166134" lon="13.742008"><ele>57.0</ele><time>2026-04-12T09:45:35.986Z</time></trkpt><trkpt lat="45.0166841" lon="13.7419073"><ele>57.0</ele><time>2026-04-12T09:45:36.98Z</time></trkpt><trkpt lat="45.0167651" lon="13.7418198"><ele>57.0</ele><time>2026-04-12T09:45:37.983Z</time></trkpt><trkpt lat="45.0168468" lon="13.7417338"><ele>57.0</ele><time>2026-04-12T09:45:38.981Z</time></trkpt><trkpt lat="45.0169356" lon="13.7416361"><ele>57.0</ele><time>2026-04-12T09:45:39.985Z</time></trkpt><trkpt lat="45.0170245" lon="13.7415146"><ele>57.0</ele><time>2026-04-12T09:45:40.983Z</time></trkpt><trkpt lat="45.0171043" lon="13.741373"><ele>57.0</ele><time>2026-04-12T09:45:41.98Z</time></trkpt><trkpt lat="45.0171877" lon="13.7412382"><ele>57.0</ele><time>2026-04-12T09:45:42.979Z</time></trkpt><trkpt lat="45.017282" lon="13.7411079"><ele>57.0</ele><time>2026-04-12T09:45:43.98Z</time></trkpt><trkpt lat="45.0173829" lon="13.740981"><ele>57.0</ele><time>2026-04-12T09:45:44.978Z</time></trkpt><trkpt lat="45.0174843" lon="13.7408601"><ele>57.0</ele><time>2026-04-12T09:45:45.986Z</time></trkpt><trkpt lat="45.0175818" lon="13.7407362"><ele>56.25</ele><time>2026-04-12T09:45:46.988Z</time></trkpt><trkpt lat="45.0176763" lon="13.7406084"><ele>55.5</ele><time>2026-04-12T09:45:47.983Z</time></trkpt><trkpt lat="45.017776" lon="13.74048"><ele>54.75</ele><time>2026-04-12T09:45:48.985Z</time></trkpt><trkpt lat="45.0178722" lon="13.7403548"><ele>54.0</ele><time>2026-04-12T09:45:49.978Z</time></trkpt><trkpt lat="45.0179733" lon="13.7402236"><ele>53.75</ele><time>2026-04-12T09:45:50.98Z</time></trkpt><trkpt lat="45.0180776" lon="13.7400915"><ele>53.5</ele><time>2026-04-12T09:45:51.981Z</time></trkpt><trkpt lat="45.0181778" lon="13.7399589"><ele>53.25</ele><time>2026-04-12T09:45:52.981Z</time></trkpt><trkpt lat="45.01827" lon="13.7398296"><ele>53.0</ele><time>2026-04-12T09:45:53.98Z</time></trkpt><trkpt lat="45.0183612" lon="13.7397094"><ele>52.75</ele><time>2026-04-12T09:45:54.98Z</time></trkpt><trkpt lat="45.0184591" lon="13.7395956"><ele>52.5</ele><time>2026-04-12T09:45:55.992Z</time></trkpt><trkpt lat="45.0185534" lon="13.7394891"><ele>52.25</ele><time>2026-04-12T09:45:56.989Z</time></trkpt><trkpt lat="45.0186389" lon="13.7393799"><ele>52.0</ele><time>2026-04-12T09:45:57.981Z</time></trkpt><trkpt lat="45.018721" lon="13.739255"><ele>52.0</ele><time>2026-04-12T09:45:58.981Z</time></trkpt><trkpt lat="45.0188034" lon="13.7391384"><ele>52.0</ele><time>2026-04-12T09:45:59.978Z</time></trkpt><trkpt lat="45.0188906" lon="13.7390259"><ele>52.0</ele><time>2026-04-12T09:46:00.978Z</time></trkpt><trkpt lat="45.0189729" lon="13.7389153"><ele>52.0</ele><time>2026-04-12T09:46:01.984Z</time></trkpt><trkpt lat="45.0190622" lon="13.7387953"><ele>52.0</ele><time>2026-04-12T09:46:02.977Z</time></trkpt><trkpt lat="45.0191505" lon="13.7386765"><ele>52.0</ele><time>2026-04-12T09:46:03.988Z</time></trkpt><trkpt lat="45.0192324" lon="13.7385667"><ele>52.0</ele><time>2026-04-12T09:46:04.979Z</time></trkpt><trkpt lat="45.0193065" lon="13.7384684"><ele>52.0</ele><time>2026-04-12T09:46:05.984Z</time></trkpt><trkpt lat="45.0193746" lon="13.7383724"><ele>52.0</ele><time>2026-04-12T09:46:06.989Z</time></trkpt><trkpt lat="45.0194353" lon="13.7382894"><ele>51.166666666666664</ele><time>2026-04-12T09:46:07.977Z</time></trkpt><trkpt lat="45.0194987" lon="13.7382101"><ele>50.33333333333333</ele><time>2026-04-12T09:46:08.983Z</time></trkpt><trkpt lat="45.0195622" lon="13.7381364"><ele>49.5</ele><time>2026-04-12T09:46:09.98Z</time></trkpt><trkpt lat="45.0196219" lon="13.738061"><ele>48.666666666666664</ele><time>2026-04-12T09:46:10.98Z</time></trkpt><trkpt lat="45.0196771" lon="13.7379883"><ele>47.83333333333333</ele><time>2026-04-12T09:46:11.977Z</time></trkpt><trkpt lat="45.0197271" lon="13.7379142"><ele>47.0</ele><time>2026-04-12T09:46:12.98Z</time></trkpt><trkpt lat="45.0197739" lon="13.7378454"><ele>47.0</ele><time>2026-04-12T09:46:13.979Z</time></trkpt><trkpt lat="45.0198335" lon="13.7377441"><ele>47.0</ele><time>2026-04-12T09:46:15.979Z</time></trkpt><trkpt lat="45.0198645" lon="13.7376107"><ele>47.0</ele><time>2026-04-12T09:46:17.981Z</time></trkpt><trkpt lat="45.0198763" lon="13.7375046"><ele>47.0</ele><time>2026-04-12T09:46:18.985Z</time></trkpt><trkpt lat="45.019879" lon="13.7373686"><ele>47.0</ele><time>2026-04-12T09:46:19.992Z</time></trkpt><trkpt lat="45.0198792" lon="13.7372102"><ele>46.25</ele><time>2026-04-12T09:46:20.983Z</time></trkpt><trkpt lat="45.019878" lon="13.7370347"><ele>45.5</ele><time>2026-04-12T09:46:21.983Z</time></trkpt><trkpt lat="45.0198813" lon="13.7368399"><ele>44.75</ele><time>2026-04-12T09:46:22.983Z</time></trkpt><trkpt lat="45.0198912" lon="13.736637"><ele>44.0</ele><time>2026-04-12T09:46:23.984Z</time></trkpt><trkpt lat="45.019906" lon="13.7364289"><ele>43.666666666666664</ele><time>2026-04-12T09:46:24.982Z</time></trkpt><trkpt lat="45.0199317" lon="13.7362149"><ele>43.333333333333336</ele><time>2026-04-12T09:46:25.986Z</time></trkpt><trkpt lat="45.019958" lon="13.7359998"><ele>43.0</ele><time>2026-04-12T09:46:26.981Z</time></trkpt><trkpt lat="45.0199851" lon="13.7357779"><ele>40.66666666666667</ele><time>2026-04-12T09:46:27.983Z</time></trkpt><trkpt lat="45.0200129" lon="13.7355544"><ele>38.333333333333336</ele><time>2026-04-12T09:46:28.979Z</time></trkpt><trkpt lat="45.0200365" lon="13.7353342"><ele>36.0</ele><time>2026-04-12T09:46:29.982Z</time></trkpt><trkpt lat="45.0200582" lon="13.7351148"><ele>35.666666666666664</ele><time>2026-04-12T09:46:30.983Z</time></trkpt><trkpt lat="45.0200794" lon="13.7348991"><ele>35.33333333333333</ele><time>2026-04-12T09:46:31.981Z</time></trkpt><trkpt lat="45.0200991" lon="13.7346832"><ele>35.0</ele><time>2026-04-12T09:46:32.986Z</time></trkpt><trkpt lat="45.0201162" lon="13.7344716"><ele>34.0</ele><time>2026-04-12T09:46:33.98Z</time></trkpt><trkpt lat="45.0201334" lon="13.7342721"><ele>33.0</ele><time>2026-04-12T09:46:34.977Z</time></trkpt><trkpt lat="45.0201471" lon="13.7340814"><ele>32.0</ele><time>2026-04-12T09:46:35.982Z</time></trkpt><trkpt lat="45.0201624" lon="13.7338993"><ele>31.0</ele><time>2026-04-12T09:46:36.98Z</time></trkpt><trkpt lat="45.0201628" lon="13.733732"><ele>31.000000000000004</ele><time>2026-04-12T09:46:37.982Z</time></trkpt><trkpt lat="45.0201613" lon="13.7335745"><ele>31.0</ele><time>2026-04-12T09:46:38.98Z</time></trkpt><trkpt lat="45.0201509" lon="13.7334317"><ele>31.0</ele><time>2026-04-12T09:46:39.982Z</time></trkpt><trkpt lat="45.0201364" lon="13.7333139"><ele>31.0</ele><time>2026-04-12T09:46:40.981Z</time></trkpt><trkpt lat="45.0201231" lon="13.7332243"><ele>31.000000000000004</ele><time>2026-04-12T09:46:41.98Z</time></trkpt><trkpt lat="45.0201092" lon="13.733116"><ele>31.0</ele><time>2026-04-12T09:46:43.982Z</time></trkpt><trkpt lat="45.0201602" lon="13.7330392"><ele>31.0</ele><time>2026-04-12T09:46:48.983Z</time></trkpt><trkpt lat="45.020357" lon="13.7330838"><ele>31.0</ele><time>2026-04-12T09:46:51.981Z</time></trkpt><trkpt lat="45.0204789" lon="13.7331114"><ele>31.0</ele><time>2026-04-12T09:46:52.978Z</time></trkpt><trkpt lat="45.0206103" lon="13.7331243"><ele>31.0</ele><time>2026-04-12T09:46:53.981Z</time></trkpt><trkpt lat="45.0207713" lon="13.7331201"><ele>31.0</ele><time>2026-04-12T09:46:54.979Z</time></trkpt><trkpt lat="45.0208791" lon="13.7331306"><ele>31.0</ele><time>2026-04-12T09:46:55.981Z</time></trkpt><trkpt lat="45.0209924" lon="13.7331396"><ele>31.0</ele><time>2026-04-12T09:46:56.978Z</time></trkpt><trkpt lat="45.0211039" lon="13.7331346"><ele>31.8</ele><time>2026-04-12T09:46:57.997Z</time></trkpt><trkpt lat="45.02118" lon="13.7330926"><ele>32.6</ele><time>2026-04-12T09:46:58.987Z</time></trkpt><trkpt lat="45.0212663" lon="13.7330236"><ele>33.4</ele><time>2026-04-12T09:46:59.986Z</time></trkpt><trkpt lat="45.0213591" lon="13.7329349"><ele>34.2</ele><time>2026-04-12T09:47:00.977Z</time></trkpt><trkpt lat="45.0214549" lon="13.7328662"><ele>35.0</ele><time>2026-04-12T09:47:01.983Z</time></trkpt><trkpt lat="45.0215437" lon="13.7327792"><ele>35.0</ele><time>2026-04-12T09:47:02.984Z</time></trkpt><trkpt lat="45.0216286" lon="13.7326866"><ele>35.0</ele><time>2026-04-12T09:47:03.979Z</time></trkpt><trkpt lat="45.0217068" lon="13.7325913"><ele>35.0</ele><time>2026-04-12T09:47:04.981Z</time></trkpt><trkpt lat="45.0217737" lon="13.7325104"><ele>35.0</ele><time>2026-04-12T09:47:05.98Z</time></trkpt><trkpt lat="45.0218164" lon="13.7324175"><ele>35.0</ele><time>2026-04-12T09:47:06.984Z</time></trkpt><trkpt lat="45.0218334" lon="13.7323027"><ele>35.0</ele><time>2026-04-12T09:47:07.983Z</time></trkpt><trkpt lat="45.0218476" lon="13.7321662"><ele>35.0</ele><time>2026-04-12T09:47:08.982Z</time></trkpt><trkpt lat="45.0218668" lon="13.7320147"><ele>35.0</ele><time>2026-04-12T09:47:09.984Z</time></trkpt><trkpt lat="45.0218906" lon="13.7318788"><ele>35.0</ele><time>2026-04-12T09:47:10.985Z</time></trkpt><trkpt lat="45.0219371" lon="13.7317517"><ele>35.0</ele><time>2026-04-12T09:47:11.983Z</time></trkpt><trkpt lat="45.0219996" lon="13.7316252"><ele>35.4</ele><time>2026-04-12T09:47:12.977Z</time></trkpt><trkpt lat="45.0220525" lon="13.7314867"><ele>35.8</ele><time>2026-04-12T09:47:13.979Z</time></trkpt><trkpt lat="45.0221035" lon="13.7313583"><ele>36.2</ele><time>2026-04-12T09:47:14.983Z</time></trkpt><trkpt lat="45.0221253" lon="13.7312356"><ele>36.6</ele><time>2026-04-12T09:47:15.979Z</time></trkpt><trkpt lat="45.0221587" lon="13.7311385"><ele>37.0</ele><time>2026-04-12T09:47:16.985Z</time></trkpt><trkpt lat="45.0222144" lon="13.7310673"><ele>36.800000000000004</ele><time>2026-04-12T09:47:17.982Z</time></trkpt><trkpt lat="45.0222817" lon="13.7310257"><ele>36.6</ele><time>2026-04-12T09:47:18.982Z</time></trkpt><trkpt lat="45.0223706" lon="13.7310203"><ele>36.400000000000006</ele><time>2026-04-12T09:47:19.98Z</time></trkpt><trkpt lat="45.0224714" lon="13.7310327"><ele>36.2</ele><time>2026-04-12T09:47:20.977Z</time></trkpt><trkpt lat="45.0225774" lon="13.731013"><ele>36.0</ele><time>2026-04-12T09:47:21.987Z</time></trkpt><trkpt lat="45.0226821" lon="13.7309609"><ele>36.0</ele><time>2026-04-12T09:47:22.978Z</time></trkpt><trkpt lat="45.022805" lon="13.730926"><ele>36.0</ele><time>2026-04-12T09:47:23.983Z</time></trkpt><trkpt lat="45.02293" lon="13.7308914"><ele>36.0</ele><time>2026-04-12T09:47:24.982Z</time></trkpt><trkpt lat="45.0230641" lon="13.7308619"><ele>36.0</ele><time>2026-04-12T09:47:25.979Z</time></trkpt><trkpt lat="45.0231753" lon="13.7308301"><ele>36.0</ele><time>2026-04-12T09:47:26.98Z</time></trkpt><trkpt lat="45.0232901" lon="13.7307836"><ele>36.0</ele><time>2026-04-12T09:47:27.978Z</time></trkpt><trkpt lat="45.0233918" lon="13.7307196"><ele>36.0</ele><time>2026-04-12T09:47:28.982Z</time></trkpt><trkpt lat="45.0234821" lon="13.7306467"><ele>36.0</ele><time>2026-04-12T09:47:29.979Z</time></trkpt><trkpt lat="45.0235536" lon="13.7305668"><ele>36.0</ele><time>2026-04-12T09:47:30.982Z</time></trkpt><trkpt lat="45.0236135" lon="13.7304568"><ele>36.5</ele><time>2026-04-12T09:47:31.978Z</time></trkpt><trkpt lat="45.0236911" lon="13.7303535"><ele>37.0</ele><time>2026-04-12T09:47:32.983Z</time></trkpt><trkpt lat="45.0237978" lon="13.7302426"><ele>37.5</ele><time>2026-04-12T09:47:33.985Z</time></trkpt><trkpt lat="45.0238784" lon="13.7301414"><ele>38.0</ele><time>2026-04-12T09:47:34.977Z</time></trkpt><trkpt lat="45.0239712" lon="13.7300235"><ele>38.0</ele><time>2026-04-12T09:47:35.982Z</time></trkpt><trkpt lat="45.0240363" lon="13.729896"><ele>38.0</ele><time>2026-04-12T09:47:36.982Z</time></trkpt><trkpt lat="45.0240979" lon="13.7297364"><ele>38.0</ele><time>2026-04-12T09:47:37.981Z</time></trkpt><trkpt lat="45.0241469" lon="13.729579"><ele>38.0</ele><time>2026-04-12T09:47:38.981Z</time></trkpt><trkpt lat="45.0241905" lon="13.7294118"><ele>37.0</ele><time>2026-04-12T09:47:39.979Z</time></trkpt><trkpt lat="45.0242278" lon="13.7292354"><ele>36.0</ele><time>2026-04-12T09:47:40.982Z</time></trkpt><trkpt lat="45.0242575" lon="13.7290626"><ele>35.0</ele><time>2026-04-12T09:47:41.98Z</time></trkpt><trkpt lat="45.0242749" lon="13.7289021"><ele>34.0</ele><time>2026-04-12T09:47:42.982Z</time></trkpt><trkpt lat="45.024295" lon="13.7287434"><ele>34.0</ele><time>2026-04-12T09:47:43.98Z</time></trkpt><trkpt lat="45.0243449" lon="13.7285918"><ele>34.0</ele><time>2026-04-12T09:47:44.98Z</time></trkpt><trkpt lat="45.0243914" lon="13.7284403"><ele>34.0</ele><time>2026-04-12T09:47:45.98Z</time></trkpt><trkpt lat="45.0244239" lon="13.7282774"><ele>34.0</ele><time>2026-04-12T09:47:46.977Z</time></trkpt><trkpt lat="45.0244514" lon="13.7281184"><ele>35.75</ele><time>2026-04-12T09:47:47.979Z</time></trkpt><trkpt lat="45.0244807" lon="13.7279524"><ele>37.5</ele><time>2026-04-12T09:47:48.979Z</time></trkpt><trkpt lat="45.024522" lon="13.7277857"><ele>39.25</ele><time>2026-04-12T09:47:49.991Z</time></trkpt><trkpt lat="45.0245681" lon="13.7276202"><ele>41.0</ele><time>2026-04-12T09:47:50.986Z</time></trkpt><trkpt lat="45.0246019" lon="13.7274675"><ele>41.599999999999994</ele><time>2026-04-12T09:47:51.979Z</time></trkpt><trkpt lat="45.0246265" lon="13.7273051"><ele>42.2</ele><time>2026-04-12T09:47:52.98Z</time></trkpt><trkpt lat="45.0246267" lon="13.7271604"><ele>42.8</ele><time>2026-04-12T09:47:53.992Z</time></trkpt><trkpt lat="45.024613" lon="13.727021"><ele>43.400000000000006</ele><time>2026-04-12T09:47:54.979Z</time></trkpt><trkpt lat="45.0246014" lon="13.7268709"><ele>44.0</ele><time>2026-04-12T09:47:55.981Z</time></trkpt><trkpt lat="45.0246121" lon="13.7267051"><ele>44.0</ele><time>2026-04-12T09:47:56.986Z</time></trkpt><trkpt lat="45.0246332" lon="13.7265372"><ele>44.0</ele><time>2026-04-12T09:47:57.981Z</time></trkpt><trkpt lat="45.0246596" lon="13.7263809"><ele>44.0</ele><time>2026-04-12T09:47:58.98Z</time></trkpt><trkpt lat="45.0246867" lon="13.726248"><ele>44.0</ele><time>2026-04-12T09:47:59.978Z</time></trkpt><trkpt lat="45.0247285" lon="13.7261169"><ele>44.0</ele><time>2026-04-12T09:48:00.983Z</time></trkpt><trkpt lat="45.0247904" lon="13.7259601"><ele>44.5</ele><time>2026-04-12T09:48:01.979Z</time></trkpt><trkpt lat="45.0248565" lon="13.7257827"><ele>45.0</ele><time>2026-04-12T09:48:02.981Z</time></trkpt><trkpt lat="45.024933" lon="13.7256241"><ele>45.5</ele><time>2026-04-12T09:48:03.981Z</time></trkpt><trkpt lat="45.0250112" lon="13.7254658"><ele>46.0</ele><time>2026-04-12T09:48:04.982Z</time></trkpt><trkpt lat="45.0250845" lon="13.7252977"><ele>44.0</ele><time>2026-04-12T09:48:05.986Z</time></trkpt><trkpt lat="45.0251518" lon="13.7251352"><ele>42.0</ele><time>2026-04-12T09:48:06.993Z</time></trkpt><trkpt lat="45.0252166" lon="13.7249699"><ele>40.0</ele><time>2026-04-12T09:48:07.98Z</time></trkpt><trkpt lat="45.0252695" lon="13.7247831"><ele>38.0</ele><time>2026-04-12T09:48:08.98Z</time></trkpt><trkpt lat="45.0253262" lon="13.7245895"><ele>39.666666666666664</ele><time>2026-04-12T09:48:09.981Z</time></trkpt><trkpt lat="45.0253845" lon="13.7243906"><ele>41.333333333333336</ele><time>2026-04-12T09:48:10.978Z</time></trkpt><trkpt lat="45.0254436" lon="13.7241936"><ele>43.0</ele><time>2026-04-12T09:48:11.983Z</time></trkpt><trkpt lat="45.0255028" lon="13.7240003"><ele>43.0</ele><time>2026-04-12T09:48:12.982Z</time></trkpt><trkpt lat="45.0255591" lon="13.7238171"><ele>43.0</ele><time>2026-04-12T09:48:13.982Z</time></trkpt><trkpt lat="45.0256129" lon="13.7236387"><ele>43.0</ele><time>2026-04-12T09:48:14.98Z</time></trkpt><trkpt lat="45.0256761" lon="13.7234683"><ele>43.0</ele><time>2026-04-12T09:48:15.981Z</time></trkpt><trkpt lat="45.0257468" lon="13.7233155"><ele>43.2</ele><time>2026-04-12T09:48:16.982Z</time></trkpt><trkpt lat="45.0258206" lon="13.7231903"><ele>43.4</ele><time>2026-04-12T09:48:17.98Z</time></trkpt><trkpt lat="45.0258695" lon="13.7230752"><ele>43.6</ele><time>2026-04-12T09:48:18.979Z</time></trkpt><trkpt lat="45.0258984" lon="13.7229403"><ele>43.800000000000004</ele><time>2026-04-12T09:48:19.983Z</time></trkpt><trkpt lat="45.0259274" lon="13.7227973"><ele>44.0</ele><time>2026-04-12T09:48:20.981Z</time></trkpt><trkpt lat="45.0259786" lon="13.7226541"><ele>44.0</ele><time>2026-04-12T09:48:21.982Z</time></trkpt><trkpt lat="45.026057" lon="13.7225096"><ele>44.0</ele><time>2026-04-12T09:48:22.981Z</time></trkpt><trkpt lat="45.026132" lon="13.7223696"><ele>44.0</ele><time>2026-04-12T09:48:23.982Z</time></trkpt><trkpt lat="45.02621" lon="13.7222367"><ele>44.0</ele><time>2026-04-12T09:48:24.98Z</time></trkpt><trkpt lat="45.0262959" lon="13.722102"><ele>44.0</ele><time>2026-04-12T09:48:25.983Z</time></trkpt><trkpt lat="45.0263836" lon="13.7219582"><ele>44.0</ele><time>2026-04-12T09:48:26.983Z</time></trkpt><trkpt lat="45.0264632" lon="13.7218075"><ele>44.0</ele><time>2026-04-12T09:48:27.983Z</time></trkpt><trkpt lat="45.0265249" lon="13.7216466"><ele>44.0</ele><time>2026-04-12T09:48:28.983Z</time></trkpt><trkpt lat="45.026571" lon="13.7214682"><ele>43.75</ele><time>2026-04-12T09:48:29.982Z</time></trkpt><trkpt lat="45.0266192" lon="13.7212869"><ele>43.5</ele><time>2026-04-12T09:48:30.984Z</time></trkpt><trkpt lat="45.0266535" lon="13.7210971"><ele>43.25</ele><time>2026-04-12T09:48:31.982Z</time></trkpt><trkpt lat="45.0266855" lon="13.7209066"><ele>43.0</ele><time>2026-04-12T09:48:32.982Z</time></trkpt><trkpt lat="45.0267119" lon="13.7207199"><ele>43.0</ele><time>2026-04-12T09:48:33.982Z</time></trkpt><trkpt lat="45.0267255" lon="13.7205576"><ele>43.0</ele><time>2026-04-12T09:48:34.982Z</time></trkpt><trkpt lat="45.0267443" lon="13.7204111"><ele>43.0</ele><time>2026-04-12T09:48:35.984Z</time></trkpt><trkpt lat="45.02676" lon="13.7202803"><ele>43.0</ele><time>2026-04-12T09:48:36.985Z</time></trkpt><trkpt lat="45.0267783" lon="13.7201547"><ele>43.0</ele><time>2026-04-12T09:48:37.981Z</time></trkpt><trkpt lat="45.0268349" lon="13.7200287"><ele>42.333333333333336</ele><time>2026-04-12T09:48:38.979Z</time></trkpt><trkpt lat="45.0268604" lon="13.7199134"><ele>41.66666666666667</ele><time>2026-04-12T09:48:39.981Z</time></trkpt><trkpt lat="45.0268624" lon="13.7197849"><ele>41.0</ele><time>2026-04-12T09:48:40.983Z</time></trkpt><trkpt lat="45.026869" lon="13.7196513"><ele>40.333333333333336</ele><time>2026-04-12T09:48:41.979Z</time></trkpt><trkpt lat="45.0268899" lon="13.7195395"><ele>39.666666666666664</ele><time>2026-04-12T09:48:42.984Z</time></trkpt><trkpt lat="45.0269322" lon="13.7194394"><ele>39.0</ele><time>2026-04-12T09:48:43.984Z</time></trkpt><trkpt lat="45.0269903" lon="13.7193381"><ele>38.5</ele><time>2026-04-12T09:48:44.987Z</time></trkpt><trkpt lat="45.0270719" lon="13.71924"><ele>38.0</ele><time>2026-04-12T09:48:45.984Z</time></trkpt><trkpt lat="45.0271616" lon="13.7191371"><ele>37.5</ele><time>2026-04-12T09:48:46.98Z</time></trkpt><trkpt lat="45.0272434" lon="13.7189973"><ele>37.0</ele><time>2026-04-12T09:48:47.982Z</time></trkpt><trkpt lat="45.0273225" lon="13.7188257"><ele>37.0</ele><time>2026-04-12T09:48:48.979Z</time></trkpt><trkpt lat="45.0274015" lon="13.7186544"><ele>37.0</ele><time>2026-04-12T09:48:49.979Z</time></trkpt><trkpt lat="45.0274898" lon="13.7184951"><ele>37.0</ele><time>2026-04-12T09:48:50.983Z</time></trkpt><trkpt lat="45.0275828" lon="13.7183404"><ele>37.0</ele><time>2026-04-12T09:48:51.992Z</time></trkpt><trkpt lat="45.0276859" lon="13.7181888"><ele>36.0</ele><time>2026-04-12T09:48:52.985Z</time></trkpt><trkpt lat="45.0277989" lon="13.7180448"><ele>35.0</ele><time>2026-04-12T09:48:53.979Z</time></trkpt><trkpt lat="45.0279264" lon="13.7179041"><ele>34.0</ele><time>2026-04-12T09:48:54.98Z</time></trkpt><trkpt lat="45.0280411" lon="13.7177745"><ele>34.0</ele><time>2026-04-12T09:48:55.979Z</time></trkpt><trkpt lat="45.0281505" lon="13.7176556"><ele>34.0</ele><time>2026-04-12T09:48:56.986Z</time></trkpt><trkpt lat="45.0282489" lon="13.7175355"><ele>34.0</ele><time>2026-04-12T09:48:57.979Z</time></trkpt><trkpt lat="45.0283541" lon="13.7174216"><ele>34.0</ele><time>2026-04-12T09:48:58.987Z</time></trkpt><trkpt lat="45.0284595" lon="13.7173213"><ele>34.0</ele><time>2026-04-12T09:48:59.977Z</time></trkpt><trkpt lat="45.0285717" lon="13.7172407"><ele>34.0</ele><time>2026-04-12T09:49:00.992Z</time></trkpt><trkpt lat="45.0286955" lon="13.7171695"><ele>34.0</ele><time>2026-04-12T09:49:01.982Z</time></trkpt><trkpt lat="45.028826" lon="13.7171045"><ele>34.0</ele><time>2026-04-12T09:49:02.991Z</time></trkpt><trkpt lat="45.0289427" lon="13.7170303"><ele>34.0</ele><time>2026-04-12T09:49:03.987Z</time></trkpt><trkpt lat="45.0290659" lon="13.7169621"><ele>34.0</ele><time>2026-04-12T09:49:04.98Z</time></trkpt><trkpt lat="45.0291754" lon="13.7168945"><ele>34.0</ele><time>2026-04-12T09:49:05.98Z</time></trkpt><trkpt lat="45.0292655" lon="13.7168179"><ele>34.0</ele><time>2026-04-12T09:49:06.98Z</time></trkpt><trkpt lat="45.0293466" lon="13.7167219"><ele>32.75</ele><time>2026-04-12T09:49:07.982Z</time></trkpt><trkpt lat="45.029423" lon="13.7165923"><ele>31.5</ele><time>2026-04-12T09:49:08.984Z</time></trkpt><trkpt lat="45.0294853" lon="13.716444"><ele>30.25</ele><time>2026-04-12T09:49:09.976Z</time></trkpt><trkpt lat="45.029531" lon="13.7162799"><ele>29.0</ele><time>2026-04-12T09:49:10.982Z</time></trkpt><trkpt lat="45.0295655" lon="13.7161292"><ele>28.2</ele><time>2026-04-12T09:49:11.989Z</time></trkpt><trkpt lat="45.0295879" lon="13.7159721"><ele>27.4</ele><time>2026-04-12T09:49:12.981Z</time></trkpt><trkpt lat="45.0295978" lon="13.7158076"><ele>26.6</ele><time>2026-04-12T09:49:13.981Z</time></trkpt><trkpt lat="45.0296076" lon="13.7156573"><ele>25.8</ele><time>2026-04-12T09:49:14.979Z</time></trkpt><trkpt lat="45.0296263" lon="13.7155253"><ele>25.0</ele><time>2026-04-12T09:49:15.982Z</time></trkpt><trkpt lat="45.0296608" lon="13.7153917"><ele>25.0</ele><time>2026-04-12T09:49:16.978Z</time></trkpt><trkpt lat="45.0297038" lon="13.7152389"><ele>25.0</ele><time>2026-04-12T09:49:17.98Z</time></trkpt><trkpt lat="45.029749" lon="13.7151128"><ele>25.0</ele><time>2026-04-12T09:49:18.98Z</time></trkpt><trkpt lat="45.0298036" lon="13.715003"><ele>25.0</ele><time>2026-04-12T09:49:19.983Z</time></trkpt><trkpt lat="45.0298481" lon="13.7149295"><ele>25.0</ele><time>2026-04-12T09:49:20.987Z</time></trkpt><trkpt lat="45.0299392" lon="13.7148746"><ele>25.333333333333336</ele><time>2026-04-12T09:49:22.984Z</time></trkpt><trkpt lat="45.0300368" lon="13.7148839"><ele>25.666666666666668</ele><time>2026-04-12T09:49:24.987Z</time></trkpt><trkpt lat="45.0301197" lon="13.7147916"><ele>26.0</ele><time>2026-04-12T09:49:26.986Z</time></trkpt><trkpt lat="45.0301759" lon="13.7147115"><ele>26.333333333333336</ele><time>2026-04-12T09:49:27.989Z</time></trkpt><trkpt lat="45.0302363" lon="13.7146344"><ele>26.666666666666668</ele><time>2026-04-12T09:49:28.982Z</time></trkpt><trkpt lat="45.0302935" lon="13.7145676"><ele>27.0</ele><time>2026-04-12T09:49:29.986Z</time></trkpt><trkpt lat="45.0303714" lon="13.7144196"><ele>26.666666666666668</ele><time>2026-04-12T09:49:31.977Z</time></trkpt><trkpt lat="45.0304088" lon="13.7143215"><ele>26.333333333333336</ele><time>2026-04-12T09:49:32.986Z</time></trkpt><trkpt lat="45.0304582" lon="13.7142242"><ele>26.0</ele><time>2026-04-12T09:49:33.98Z</time></trkpt><trkpt lat="45.0305175" lon="13.7141377"><ele>25.666666666666668</ele><time>2026-04-12T09:49:34.983Z</time></trkpt><trkpt lat="45.0305767" lon="13.7140541"><ele>25.333333333333336</ele><time>2026-04-12T09:49:35.979Z</time></trkpt><trkpt lat="45.0306253" lon="13.7139593"><ele>25.0</ele><time>2026-04-12T09:49:36.979Z</time></trkpt><trkpt lat="45.030682" lon="13.7138876"><ele>25.000000000000004</ele><time>2026-04-12T09:49:37.982Z</time></trkpt><trkpt lat="45.0307383" lon="13.7138399"><ele>25.0</ele><time>2026-04-12T09:49:38.984Z</time></trkpt><trkpt lat="45.0308285" lon="13.7137936"><ele>25.0</ele><time>2026-04-12T09:49:39.986Z</time></trkpt><trkpt lat="45.0309155" lon="13.7137532"><ele>25.0</ele><time>2026-04-12T09:49:40.981Z</time></trkpt><trkpt lat="45.0310112" lon="13.7137319"><ele>25.000000000000004</ele><time>2026-04-12T09:49:41.979Z</time></trkpt><trkpt lat="45.0310844" lon="13.713694"><ele>25.0</ele><time>2026-04-12T09:49:42.984Z</time></trkpt><trkpt lat="45.0311206" lon="13.7136158"><ele>25.0</ele><time>2026-04-12T09:49:43.983Z</time></trkpt><trkpt lat="45.0311679" lon="13.7135182"><ele>25.0</ele><time>2026-04-12T09:49:44.984Z</time></trkpt><trkpt lat="45.0312206" lon="13.7133846"><ele>25.0</ele><time>2026-04-12T09:49:45.982Z</time></trkpt><trkpt lat="45.0312545" lon="13.7132269"><ele>25.0</ele><time>2026-04-12T09:49:46.979Z</time></trkpt><trkpt lat="45.0312942" lon="13.7130811"><ele>25.0</ele><time>2026-04-12T09:49:47.981Z</time></trkpt><trkpt lat="45.0313286" lon="13.7129296"><ele>25.0</ele><time>2026-04-12T09:49:48.985Z</time></trkpt><trkpt lat="45.0313691" lon="13.7127686"><ele>25.0</ele><time>2026-04-12T09:49:49.985Z</time></trkpt><trkpt lat="45.0314197" lon="13.7126219"><ele>25.0</ele><time>2026-04-12T09:49:50.985Z</time></trkpt><trkpt lat="45.0314774" lon="13.7124624"><ele>25.0</ele><time>2026-04-12T09:49:51.98Z</time></trkpt><trkpt lat="45.0315214" lon="13.7122975"><ele>24.25</ele><time>2026-04-12T09:49:52.981Z</time></trkpt><trkpt lat="45.0315575" lon="13.7121222"><ele>23.5</ele><time>2026-04-12T09:49:53.982Z</time></trkpt><trkpt lat="45.0316058" lon="13.7119578"><ele>22.75</ele><time>2026-04-12T09:49:54.983Z</time></trkpt><trkpt lat="45.0316534" lon="13.7117919"><ele>22.0</ele><time>2026-04-12T09:49:55.98Z</time></trkpt><trkpt lat="45.0316958" lon="13.7116487"><ele>22.0</ele><time>2026-04-12T09:49:56.985Z</time></trkpt><trkpt lat="45.0317316" lon="13.7115152"><ele>22.0</ele><time>2026-04-12T09:49:57.981Z</time></trkpt><trkpt lat="45.0317696" lon="13.7114095"><ele>22.0</ele><time>2026-04-12T09:49:58.981Z</time></trkpt><trkpt lat="45.0318127" lon="13.7113373"><ele>22.0</ele><time>2026-04-12T09:49:59.985Z</time></trkpt><trkpt lat="45.0319149" lon="13.71132"><ele>22.0</ele><time>2026-04-12T09:50:01.985Z</time></trkpt><trkpt lat="45.0319731" lon="13.7113616"><ele>22.0</ele><time>2026-04-12T09:50:02.98Z</time></trkpt><trkpt lat="45.03204" lon="13.7114463"><ele>22.0</ele><time>2026-04-12T09:50:03.982Z</time></trkpt><trkpt lat="45.0320996" lon="13.7115567"><ele>22.0</ele><time>2026-04-12T09:50:04.98Z</time></trkpt><trkpt lat="45.032193" lon="13.7116469"><ele>22.0</ele><time>2026-04-12T09:50:05.979Z</time></trkpt><trkpt lat="45.0322808" lon="13.7117446"><ele>22.0</ele><time>2026-04-12T09:50:06.983Z</time></trkpt><trkpt lat="45.0323819" lon="13.711861"><ele>22.5</ele><time>2026-04-12T09:50:07.982Z</time></trkpt><trkpt lat="45.0324894" lon="13.7119786"><ele>23.0</ele><time>2026-04-12T09:50:08.985Z</time></trkpt><trkpt lat="45.0325624" lon="13.712102"><ele>23.5</ele><time>2026-04-12T09:50:09.983Z</time></trkpt><trkpt lat="45.0326154" lon="13.7122209"><ele>24.0</ele><time>2026-04-12T09:50:10.989Z</time></trkpt><trkpt lat="45.0326427" lon="13.7123697"><ele>24.0</ele><time>2026-04-12T09:50:11.978Z</time></trkpt><trkpt lat="45.0326611" lon="13.7125289"><ele>24.0</ele><time>2026-04-12T09:50:12.98Z</time></trkpt><trkpt lat="45.0326851" lon="13.712676"><ele>24.0</ele><time>2026-04-12T09:50:13.979Z</time></trkpt><trkpt lat="45.0327224" lon="13.7127971"><ele>24.0</ele><time>2026-04-12T09:50:14.98Z</time></trkpt><trkpt lat="45.0327811" lon="13.7128899"><ele>24.0</ele><time>2026-04-12T09:50:15.981Z</time></trkpt><trkpt lat="45.0328508" lon="13.7129433"><ele>23.799999999999997</ele><time>2026-04-12T09:50:16.981Z</time></trkpt><trkpt lat="45.0329251" lon="13.7129723"><ele>23.599999999999998</ele><time>2026-04-12T09:50:17.979Z</time></trkpt><trkpt lat="45.0330022" lon="13.7129785"><ele>23.4</ele><time>2026-04-12T09:50:18.991Z</time></trkpt><trkpt lat="45.0330899" lon="13.7129573"><ele>23.2</ele><time>2026-04-12T09:50:19.98Z</time></trkpt><trkpt lat="45.0331854" lon="13.7129283"><ele>23.0</ele><time>2026-04-12T09:50:20.981Z</time></trkpt><trkpt lat="45.0333049" lon="13.7128848"><ele>23.5</ele><time>2026-04-12T09:50:21.98Z</time></trkpt><trkpt lat="45.0334242" lon="13.7128251"><ele>24.0</ele><time>2026-04-12T09:50:22.982Z</time></trkpt><trkpt lat="45.0335493" lon="13.7127571"><ele>24.5</ele><time>2026-04-12T09:50:23.979Z</time></trkpt><trkpt lat="45.0336491" lon="13.7127086"><ele>25.0</ele><time>2026-04-12T09:50:24.977Z</time></trkpt><trkpt lat="45.0337535" lon="13.7126718"><ele>25.25</ele><time>2026-04-12T09:50:25.982Z</time></trkpt><trkpt lat="45.0338799" lon="13.7126545"><ele>25.5</ele><time>2026-04-12T09:50:26.981Z</time></trkpt><trkpt lat="45.0340184" lon="13.7126427"><ele>25.75</ele><time>2026-04-12T09:50:27.982Z</time></trkpt><trkpt lat="45.0341623" lon="13.712644"><ele>26.0</ele><time>2026-04-12T09:50:28.98Z</time></trkpt><trkpt lat="45.0343097" lon="13.7126394"><ele>26.75</ele><time>2026-04-12T09:50:29.98Z</time></trkpt><trkpt lat="45.0344478" lon="13.7126357"><ele>27.5</ele><time>2026-04-12T09:50:30.982Z</time></trkpt><trkpt lat="45.0345898" lon="13.7126496"><ele>28.25</ele><time>2026-04-12T09:50:31.981Z</time></trkpt><trkpt lat="45.0347299" lon="13.7126469"><ele>29.0</ele><time>2026-04-12T09:50:32.981Z</time></trkpt><trkpt lat="45.0348542" lon="13.7126371"><ele>29.0</ele><time>2026-04-12T09:50:33.981Z</time></trkpt><trkpt lat="45.0349696" lon="13.712602"><ele>29.0</ele><time>2026-04-12T09:50:34.98Z</time></trkpt><trkpt lat="45.0350708" lon="13.7125412"><ele>29.0</ele><time>2026-04-12T09:50:35.982Z</time></trkpt><trkpt lat="45.0351791" lon="13.7124531"><ele>29.0</ele><time>2026-04-12T09:50:36.988Z</time></trkpt><trkpt lat="45.0352938" lon="13.7123692"><ele>29.5</ele><time>2026-04-12T09:50:37.979Z</time></trkpt><trkpt lat="45.0354045" lon="13.7123147"><ele>30.0</ele><time>2026-04-12T09:50:38.98Z</time></trkpt><trkpt lat="45.0355312" lon="13.7122574"><ele>30.5</ele><time>2026-04-12T09:50:39.989Z</time></trkpt><trkpt lat="45.0356434" lon="13.712203"><ele>31.0</ele><time>2026-04-12T09:50:40.981Z</time></trkpt><trkpt lat="45.0357514" lon="13.712118"><ele>31.0</ele><time>2026-04-12T09:50:41.98Z</time></trkpt><trkpt lat="45.0358774" lon="13.7120307"><ele>31.0</ele><time>2026-04-12T09:50:42.979Z</time></trkpt><trkpt lat="45.0360131" lon="13.7119548"><ele>31.0</ele><time>2026-04-12T09:50:43.98Z</time></trkpt><trkpt lat="45.0361361" lon="13.7119026"><ele>31.0</ele><time>2026-04-12T09:50:44.981Z</time></trkpt><trkpt lat="45.0362828" lon="13.711874"><ele>31.0</ele><time>2026-04-12T09:50:45.98Z</time></trkpt><trkpt lat="45.0364501" lon="13.7118698"><ele>31.0</ele><time>2026-04-12T09:50:46.985Z</time></trkpt><trkpt lat="45.036596" lon="13.7118741"><ele>31.0</ele><time>2026-04-12T09:50:47.986Z</time></trkpt><trkpt lat="45.0367394" lon="13.7118798"><ele>30.75</ele><time>2026-04-12T09:50:48.983Z</time></trkpt><trkpt lat="45.0368664" lon="13.7118882"><ele>30.5</ele><time>2026-04-12T09:50:49.981Z</time></trkpt><trkpt lat="45.0369812" lon="13.711887"><ele>30.25</ele><time>2026-04-12T09:50:50.994Z</time></trkpt><trkpt lat="45.0370943" lon="13.7118653"><ele>30.0</ele><time>2026-04-12T09:50:51.984Z</time></trkpt><trkpt lat="45.0371996" lon="13.7118123"><ele>30.0</ele><time>2026-04-12T09:50:52.982Z</time></trkpt><trkpt lat="45.037321" lon="13.7117314"><ele>30.0</ele><time>2026-04-12T09:50:53.985Z</time></trkpt><trkpt lat="45.0374251" lon="13.7116749"><ele>30.0</ele><time>2026-04-12T09:50:54.98Z</time></trkpt><trkpt lat="45.0375271" lon="13.7116456"><ele>30.0</ele><time>2026-04-12T09:50:55.982Z</time></trkpt><trkpt lat="45.0376298" lon="13.7116548"><ele>30.25</ele><time>2026-04-12T09:50:56.983Z</time></trkpt><trkpt lat="45.0377325" lon="13.7116955"><ele>30.5</ele><time>2026-04-12T09:50:57.983Z</time></trkpt><trkpt lat="45.0378507" lon="13.711765"><ele>30.75</ele><time>2026-04-12T09:50:58.986Z</time></trkpt><trkpt lat="45.0379799" lon="13.7118468"><ele>31.0</ele><time>2026-04-12T09:50:59.98Z</time></trkpt><trkpt lat="45.038096" lon="13.7119159"><ele>30.5</ele><time>2026-04-12T09:51:00.982Z</time></trkpt><trkpt lat="45.0382115" lon="13.711958"><ele>30.0</ele><time>2026-04-12T09:51:01.981Z</time></trkpt><trkpt lat="45.0383326" lon="13.711984"><ele>29.5</ele><time>2026-04-12T09:51:02.981Z</time></trkpt><trkpt lat="45.038459" lon="13.7119879"><ele>29.0</ele><time>2026-04-12T09:51:03.981Z</time></trkpt><trkpt lat="45.0385903" lon="13.7120002"><ele>29.0</ele><time>2026-04-12T09:51:04.98Z</time></trkpt><trkpt lat="45.038717" lon="13.7120209"><ele>29.0</ele><time>2026-04-12T09:51:05.982Z</time></trkpt><trkpt lat="45.0388574" lon="13.7120517"><ele>29.0</ele><time>2026-04-12T09:51:06.981Z</time></trkpt><trkpt lat="45.0389886" lon="13.7120884"><ele>29.0</ele><time>2026-04-12T09:51:07.984Z</time></trkpt><trkpt lat="45.0391186" lon="13.7121375"><ele>30.0</ele><time>2026-04-12T09:51:08.98Z</time></trkpt><trkpt lat="45.0392386" lon="13.7121938"><ele>31.0</ele><time>2026-04-12T09:51:09.981Z</time></trkpt><trkpt lat="45.0393604" lon="13.7122455"><ele>32.0</ele><time>2026-04-12T09:51:10.983Z</time></trkpt><trkpt lat="45.0394744" lon="13.7122918"><ele>33.0</ele><time>2026-04-12T09:51:11.988Z</time></trkpt><trkpt lat="45.0395924" lon="13.7123166"><ele>33.0</ele><time>2026-04-12T09:51:12.987Z</time></trkpt><trkpt lat="45.0397092" lon="13.7123448"><ele>33.0</ele><time>2026-04-12T09:51:13.982Z</time></trkpt><trkpt lat="45.0398083" lon="13.7123735"><ele>33.0</ele><time>2026-04-12T09:51:14.982Z</time></trkpt><trkpt lat="45.0398984" lon="13.7124187"><ele>33.0</ele><time>2026-04-12T09:51:15.987Z</time></trkpt><trkpt lat="45.0399857" lon="13.7124696"><ele>33.0</ele><time>2026-04-12T09:51:16.982Z</time></trkpt><trkpt lat="45.0400426" lon="13.7125784"><ele>33.666666666666664</ele><time>2026-04-12T09:51:17.982Z</time></trkpt><trkpt lat="45.0401034" lon="13.7126588"><ele>34.333333333333336</ele><time>2026-04-12T09:51:18.98Z</time></trkpt><trkpt lat="45.0401587" lon="13.7127145"><ele>35.0</ele><time>2026-04-12T09:51:19.98Z</time></trkpt><trkpt lat="45.0402371" lon="13.7127402"><ele>35.66666666666667</ele><time>2026-04-12T09:51:20.982Z</time></trkpt><trkpt lat="45.0403262" lon="13.7127688"><ele>36.333333333333336</ele><time>2026-04-12T09:51:21.981Z</time></trkpt><trkpt lat="45.0404195" lon="13.7127957"><ele>37.0</ele><time>2026-04-12T09:51:22.986Z</time></trkpt><trkpt lat="45.0405327" lon="13.7128258"><ele>37.25</ele><time>2026-04-12T09:51:23.977Z</time></trkpt><trkpt lat="45.0406484" lon="13.7128535"><ele>37.5</ele><time>2026-04-12T09:51:24.985Z</time></trkpt><trkpt lat="45.0407523" lon="13.7128854"><ele>37.75</ele><time>2026-04-12T09:51:25.98Z</time></trkpt><trkpt lat="45.0408744" lon="13.7129081"><ele>38.0</ele><time>2026-04-12T09:51:26.981Z</time></trkpt><trkpt lat="45.040982" lon="13.7129193"><ele>39.0</ele><time>2026-04-12T09:51:27.985Z</time></trkpt><trkpt lat="45.0410941" lon="13.7129044"><ele>40.0</ele><time>2026-04-12T09:51:28.983Z</time></trkpt><trkpt lat="45.0412033" lon="13.7128695"><ele>41.0</ele><time>2026-04-12T09:51:29.987Z</time></trkpt><trkpt lat="45.0413267" lon="13.7128304"><ele>42.0</ele><time>2026-04-12T09:51:30.982Z</time></trkpt><trkpt lat="45.0414358" lon="13.7127927"><ele>42.0</ele><time>2026-04-12T09:51:31.981Z</time></trkpt><trkpt lat="45.0415528" lon="13.7127572"><ele>42.0</ele><time>2026-04-12T09:51:32.977Z</time></trkpt><trkpt lat="45.0416752" lon="13.7127236"><ele>42.0</ele><time>2026-04-12T09:51:33.982Z</time></trkpt><trkpt lat="45.0418098" lon="13.7126804"><ele>42.0</ele><time>2026-04-12T09:51:34.979Z</time></trkpt><trkpt lat="45.0419598" lon="13.7126303"><ele>42.75</ele><time>2026-04-12T09:51:35.982Z</time></trkpt><trkpt lat="45.0420936" lon="13.7125847"><ele>43.5</ele><time>2026-04-12T09:51:36.988Z</time></trkpt><trkpt lat="45.0422265" lon="13.7125456"><ele>44.25</ele><time>2026-04-12T09:51:37.981Z</time></trkpt><trkpt lat="45.0423501" lon="13.7125131"><ele>45.0</ele><time>2026-04-12T09:51:38.984Z</time></trkpt><trkpt lat="45.0424572" lon="13.7124842"><ele>46.0</ele><time>2026-04-12T09:51:39.98Z</time></trkpt><trkpt lat="45.0425571" lon="13.7124529"><ele>47.0</ele><time>2026-04-12T09:51:40.98Z</time></trkpt><trkpt lat="45.0426612" lon="13.7124223"><ele>48.0</ele><time>2026-04-12T09:51:41.981Z</time></trkpt><trkpt lat="45.0427729" lon="13.7124095"><ele>49.0</ele><time>2026-04-12T09:51:42.983Z</time></trkpt><trkpt lat="45.0428895" lon="13.7124009"><ele>50.0</ele><time>2026-04-12T09:51:43.98Z</time></trkpt><trkpt lat="45.0429978" lon="13.7123909"><ele>50.0</ele><time>2026-04-12T09:51:44.984Z</time></trkpt><trkpt lat="45.0431043" lon="13.7123872"><ele>50.0</ele><time>2026-04-12T09:51:45.981Z</time></trkpt><trkpt lat="45.0432076" lon="13.7123884"><ele>50.0</ele><time>2026-04-12T09:51:46.979Z</time></trkpt><trkpt lat="45.0433021" lon="13.7123977"><ele>50.0</ele><time>2026-04-12T09:51:47.986Z</time></trkpt><trkpt lat="45.0433917" lon="13.7124196"><ele>50.0</ele><time>2026-04-12T09:51:48.984Z</time></trkpt><trkpt lat="45.0434833" lon="13.7124665"><ele>50.2</ele><time>2026-04-12T09:51:49.982Z</time></trkpt><trkpt lat="45.0435831" lon="13.7125138"><ele>50.4</ele><time>2026-04-12T09:51:50.979Z</time></trkpt><trkpt lat="45.0436993" lon="13.7125666"><ele>50.599999999999994</ele><time>2026-04-12T09:51:51.981Z</time></trkpt><trkpt lat="45.0438033" lon="13.7126271"><ele>50.8</ele><time>2026-04-12T09:51:52.983Z</time></trkpt><trkpt lat="45.043896" lon="13.7126845"><ele>51.0</ele><time>2026-04-12T09:51:53.982Z</time></trkpt><trkpt lat="45.0439922" lon="13.7127568"><ele>51.5</ele><time>2026-04-12T09:51:54.981Z</time></trkpt><trkpt lat="45.0441057" lon="13.7127814"><ele>52.0</ele><time>2026-04-12T09:51:55.99Z</time></trkpt><trkpt lat="45.0442137" lon="13.7128026"><ele>52.5</ele><time>2026-04-12T09:51:56.989Z</time></trkpt><trkpt lat="45.0443259" lon="13.7127909"><ele>53.0</ele><time>2026-04-12T09:51:57.993Z</time></trkpt><trkpt lat="45.0444437" lon="13.7127578"><ele>52.75</ele><time>2026-04-12T09:51:58.986Z</time></trkpt><trkpt lat="45.0445587" lon="13.7127186"><ele>52.5</ele><time>2026-04-12T09:51:59.981Z</time></trkpt><trkpt lat="45.0446728" lon="13.7126868"><ele>52.25</ele><time>2026-04-12T09:52:00.982Z</time></trkpt><trkpt lat="45.0448083" lon="13.7126701"><ele>52.0</ele><time>2026-04-12T09:52:01.988Z</time></trkpt><trkpt lat="45.0449491" lon="13.7126565"><ele>52.25</ele><time>2026-04-12T09:52:02.99Z</time></trkpt><trkpt lat="45.0450876" lon="13.7126288"><ele>52.5</ele><time>2026-04-12T09:52:03.984Z</time></trkpt><trkpt lat="45.0452194" lon="13.7125885"><ele>52.75</ele><time>2026-04-12T09:52:04.981Z</time></trkpt><trkpt lat="45.045349" lon="13.7125319"><ele>53.0</ele><time>2026-04-12T09:52:05.985Z</time></trkpt><trkpt lat="45.0454768" lon="13.7124661"><ele>53.0</ele><time>2026-04-12T09:52:06.979Z</time></trkpt><trkpt lat="45.0456084" lon="13.7124083"><ele>53.0</ele><time>2026-04-12T09:52:07.981Z</time></trkpt><trkpt lat="45.0457353" lon="13.712355"><ele>53.0</ele><time>2026-04-12T09:52:08.984Z</time></trkpt><trkpt lat="45.0458496" lon="13.712299"><ele>53.0</ele><time>2026-04-12T09:52:09.982Z</time></trkpt><trkpt lat="45.0459622" lon="13.7122273"><ele>52.75</ele><time>2026-04-12T09:52:10.982Z</time></trkpt><trkpt lat="45.0460776" lon="13.7121626"><ele>52.5</ele><time>2026-04-12T09:52:11.986Z</time></trkpt><trkpt lat="45.046203" lon="13.7120983"><ele>52.25</ele><time>2026-04-12T09:52:12.982Z</time></trkpt><trkpt lat="45.0463134" lon="13.7120304"><ele>52.0</ele><time>2026-04-12T09:52:13.984Z</time></trkpt><trkpt lat="45.0464144" lon="13.7119851"><ele>52.0</ele><time>2026-04-12T09:52:14.989Z</time></trkpt><trkpt lat="45.0465104" lon="13.7119686"><ele>52.0</ele><time>2026-04-12T09:52:15.98Z</time></trkpt><trkpt lat="45.0466071" lon="13.7119771"><ele>52.0</ele><time>2026-04-12T09:52:16.98Z</time></trkpt><trkpt lat="45.0467092" lon="13.7120056"><ele>52.0</ele><time>2026-04-12T09:52:17.985Z</time></trkpt><trkpt lat="45.0468254" lon="13.7120465"><ele>52.0</ele><time>2026-04-12T09:52:18.991Z</time></trkpt><trkpt lat="45.0469499" lon="13.7120851"><ele>51.0</ele><time>2026-04-12T09:52:19.987Z</time></trkpt><trkpt lat="45.0470701" lon="13.7121247"><ele>50.0</ele><time>2026-04-12T09:52:20.99Z</time></trkpt><trkpt lat="45.0471747" lon="13.7121601"><ele>49.0</ele><time>2026-04-12T09:52:21.985Z</time></trkpt><trkpt lat="45.0472659" lon="13.7121841"><ele>48.0</ele><time>2026-04-12T09:52:22.98Z</time></trkpt><trkpt lat="45.0473421" lon="13.7121843"><ele>47.0</ele><time>2026-04-12T09:52:23.983Z</time></trkpt><trkpt lat="45.0474152" lon="13.7121654"><ele>46.857142857142854</ele><time>2026-04-12T09:52:24.983Z</time></trkpt><trkpt lat="45.0474857" lon="13.7121212"><ele>46.71428571428571</ele><time>2026-04-12T09:52:25.981Z</time></trkpt><trkpt lat="45.0475483" lon="13.7120808"><ele>46.57142857142857</ele><time>2026-04-12T09:52:26.98Z</time></trkpt><trkpt lat="45.047606" lon="13.7120207"><ele>46.42857142857143</ele><time>2026-04-12T09:52:27.983Z</time></trkpt><trkpt lat="45.0476417" lon="13.711937"><ele>46.285714285714285</ele><time>2026-04-12T09:52:28.991Z</time></trkpt><trkpt lat="45.0476669" lon="13.7118377"><ele>46.142857142857146</ele><time>2026-04-12T09:52:29.981Z</time></trkpt><trkpt lat="45.0476816" lon="13.7117157"><ele>46.0</ele><time>2026-04-12T09:52:30.983Z</time></trkpt><trkpt lat="45.0476986" lon="13.7115737"><ele>46.333333333333336</ele><time>2026-04-12T09:52:31.981Z</time></trkpt><trkpt lat="45.0477175" lon="13.7114305"><ele>46.66666666666667</ele><time>2026-04-12T09:52:32.979Z</time></trkpt><trkpt lat="45.0477265" lon="13.7113027"><ele>47.0</ele><time>2026-04-12T09:52:33.984Z</time></trkpt><trkpt lat="45.0477431" lon="13.7111938"><ele>47.333333333333336</ele><time>2026-04-12T09:52:34.985Z</time></trkpt><trkpt lat="45.0477759" lon="13.7111003"><ele>47.666666666666664</ele><time>2026-04-12T09:52:35.977Z</time></trkpt><trkpt lat="45.0478269" lon="13.7110176"><ele>48.0</ele><time>2026-04-12T09:52:36.983Z</time></trkpt><trkpt lat="45.0478954" lon="13.7109456"><ele>47.833333333333336</ele><time>2026-04-12T09:52:37.977Z</time></trkpt><trkpt lat="45.0479772" lon="13.7108805"><ele>47.666666666666664</ele><time>2026-04-12T09:52:38.984Z</time></trkpt><trkpt lat="45.048064" lon="13.7108353"><ele>47.5</ele><time>2026-04-12T09:52:39.985Z</time></trkpt><trkpt lat="45.0481479" lon="13.7108226"><ele>47.33333333333333</ele><time>2026-04-12T09:52:40.989Z</time></trkpt><trkpt lat="45.0482305" lon="13.7108402"><ele>47.166666666666664</ele><time>2026-04-12T09:52:41.979Z</time></trkpt><trkpt lat="45.0483174" lon="13.7108825"><ele>47.0</ele><time>2026-04-12T09:52:42.981Z</time></trkpt><trkpt lat="45.0484055" lon="13.710946"><ele>47.0</ele><time>2026-04-12T09:52:43.982Z</time></trkpt><trkpt lat="45.0484956" lon="13.711034"><ele>47.0</ele><time>2026-04-12T09:52:44.984Z</time></trkpt><trkpt lat="45.0485982" lon="13.7111268"><ele>47.0</ele><time>2026-04-12T09:52:45.978Z</time></trkpt><trkpt lat="45.0487128" lon="13.711207"><ele>47.0</ele><time>2026-04-12T09:52:46.991Z</time></trkpt><trkpt lat="45.0488297" lon="13.7112662"><ele>47.0</ele><time>2026-04-12T09:52:47.987Z</time></trkpt><trkpt lat="45.0489435" lon="13.7113155"><ele>47.0</ele><time>2026-04-12T09:52:48.98Z</time></trkpt><trkpt lat="45.0490547" lon="13.7113732"><ele>47.0</ele><time>2026-04-12T09:52:49.984Z</time></trkpt><trkpt lat="45.0491637" lon="13.711446"><ele>47.0</ele><time>2026-04-12T09:52:50.983Z</time></trkpt><trkpt lat="45.0492714" lon="13.7115373"><ele>47.8</ele><time>2026-04-12T09:52:51.991Z</time></trkpt><trkpt lat="45.0493686" lon="13.7116303"><ele>48.6</ele><time>2026-04-12T09:52:52.984Z</time></trkpt><trkpt lat="45.0494558" lon="13.7117122"><ele>49.4</ele><time>2026-04-12T09:52:53.982Z</time></trkpt><trkpt lat="45.0495284" lon="13.7117765"><ele>50.199999999999996</ele><time>2026-04-12T09:52:54.979Z</time></trkpt><trkpt lat="45.0495981" lon="13.7118172"><ele>51.0</ele><time>2026-04-12T09:52:55.982Z</time></trkpt><trkpt lat="45.0496742" lon="13.7118391"><ele>51.0</ele><time>2026-04-12T09:52:56.988Z</time></trkpt><trkpt lat="45.0497579" lon="13.7118419"><ele>51.0</ele><time>2026-04-12T09:52:57.984Z</time></trkpt><trkpt lat="45.0498472" lon="13.7118216"><ele>51.0</ele><time>2026-04-12T09:52:58.989Z</time></trkpt><trkpt lat="45.0499474" lon="13.7117842"><ele>51.0</ele><time>2026-04-12T09:52:59.98Z</time></trkpt><trkpt lat="45.0500604" lon="13.7117405"><ele>51.0</ele><time>2026-04-12T09:53:00.983Z</time></trkpt><trkpt lat="45.0501833" lon="13.7116978"><ele>52.5</ele><time>2026-04-12T09:53:01.981Z</time></trkpt><trkpt lat="45.0503088" lon="13.711664"><ele>54.0</ele><time>2026-04-12T09:53:02.985Z</time></trkpt><trkpt lat="45.0504224" lon="13.7116412"><ele>55.5</ele><time>2026-04-12T09:53:03.983Z</time></trkpt><trkpt lat="45.0505274" lon="13.7116213"><ele>57.0</ele><time>2026-04-12T09:53:04.978Z</time></trkpt><trkpt lat="45.0506393" lon="13.7115902"><ele>57.0</ele><time>2026-04-12T09:53:05.993Z</time></trkpt><trkpt lat="45.0507438" lon="13.7115463"><ele>57.0</ele><time>2026-04-12T09:53:06.98Z</time></trkpt><trkpt lat="45.0508447" lon="13.7114825"><ele>57.0</ele><time>2026-04-12T09:53:07.981Z</time></trkpt><trkpt lat="45.0509398" lon="13.7113988"><ele>57.0</ele><time>2026-04-12T09:53:08.987Z</time></trkpt><trkpt lat="45.0510199" lon="13.7113031"><ele>57.0</ele><time>2026-04-12T09:53:09.985Z</time></trkpt><trkpt lat="45.0510912" lon="13.7112031"><ele>57.6</ele><time>2026-04-12T09:53:10.983Z</time></trkpt><trkpt lat="45.0511674" lon="13.7111091"><ele>58.2</ele><time>2026-04-12T09:53:11.979Z</time></trkpt><trkpt lat="45.0512578" lon="13.711014"><ele>58.8</ele><time>2026-04-12T09:53:12.982Z</time></trkpt><trkpt lat="45.0513576" lon="13.7109272"><ele>59.4</ele><time>2026-04-12T09:53:13.982Z</time></trkpt><trkpt lat="45.0514563" lon="13.7108701"><ele>60.0</ele><time>2026-04-12T09:53:14.981Z</time></trkpt><trkpt lat="45.0515614" lon="13.7108355"><ele>59.75</ele><time>2026-04-12T09:53:15.981Z</time></trkpt><trkpt lat="45.051686" lon="13.7108222"><ele>59.5</ele><time>2026-04-12T09:53:16.988Z</time></trkpt><trkpt lat="45.0518127" lon="13.7108143"><ele>59.25</ele><time>2026-04-12T09:53:17.98Z</time></trkpt><trkpt lat="45.0519303" lon="13.710798"><ele>59.0</ele><time>2026-04-12T09:53:18.982Z</time></trkpt><trkpt lat="45.0520426" lon="13.7107516"><ele>59.0</ele><time>2026-04-12T09:53:19.981Z</time></trkpt><trkpt lat="45.0521521" lon="13.7106756"><ele>59.0</ele><time>2026-04-12T09:53:20.984Z</time></trkpt><trkpt lat="45.0522608" lon="13.7105819"><ele>59.0</ele><time>2026-04-12T09:53:21.984Z</time></trkpt><trkpt lat="45.0523674" lon="13.7104852"><ele>59.0</ele><time>2026-04-12T09:53:22.978Z</time></trkpt><trkpt lat="45.0524645" lon="13.7104052"><ele>59.25</ele><time>2026-04-12T09:53:23.982Z</time></trkpt><trkpt lat="45.0525644" lon="13.710325"><ele>59.5</ele><time>2026-04-12T09:53:24.981Z</time></trkpt><trkpt lat="45.0526674" lon="13.7102375"><ele>59.75</ele><time>2026-04-12T09:53:25.979Z</time></trkpt><trkpt lat="45.0527749" lon="13.7101438"><ele>60.0</ele><time>2026-04-12T09:53:26.981Z</time></trkpt><trkpt lat="45.0528833" lon="13.7100429"><ele>60.0</ele><time>2026-04-12T09:53:27.98Z</time></trkpt><trkpt lat="45.0529872" lon="13.7099442"><ele>60.0</ele><time>2026-04-12T09:53:28.986Z</time></trkpt><trkpt lat="45.0530901" lon="13.7098419"><ele>60.0</ele><time>2026-04-12T09:53:29.982Z</time></trkpt><trkpt lat="45.053201" lon="13.7097428"><ele>60.0</ele><time>2026-04-12T09:53:30.981Z</time></trkpt><trkpt lat="45.0533121" lon="13.7096543"><ele>59.75</ele><time>2026-04-12T09:53:31.99Z</time></trkpt><trkpt lat="45.0534188" lon="13.7095781"><ele>59.5</ele><time>2026-04-12T09:53:32.978Z</time></trkpt><trkpt lat="45.0535206" lon="13.7095148"><ele>59.25</ele><time>2026-04-12T09:53:33.979Z</time></trkpt><trkpt lat="45.0536332" lon="13.7094537"><ele>59.0</ele><time>2026-04-12T09:53:34.982Z</time></trkpt><trkpt lat="45.0537499" lon="13.709384"><ele>59.0</ele><time>2026-04-12T09:53:35.981Z</time></trkpt><trkpt lat="45.0538675" lon="13.7092994"><ele>59.0</ele><time>2026-04-12T09:53:36.982Z</time></trkpt><trkpt lat="45.0539914" lon="13.7091923"><ele>59.0</ele><time>2026-04-12T09:53:37.985Z</time></trkpt><trkpt lat="45.0541198" lon="13.7090801"><ele>59.0</ele><time>2026-04-12T09:53:38.982Z</time></trkpt><trkpt lat="45.054243" lon="13.7089758"><ele>59.0</ele><time>2026-04-12T09:53:39.979Z</time></trkpt><trkpt lat="45.0543624" lon="13.7088637"><ele>59.0</ele><time>2026-04-12T09:53:40.984Z</time></trkpt><trkpt lat="45.0544711" lon="13.708746"><ele>59.0</ele><time>2026-04-12T09:53:41.992Z</time></trkpt><trkpt lat="45.0545743" lon="13.7086356"><ele>59.0</ele><time>2026-04-12T09:53:42.98Z</time></trkpt><trkpt lat="45.0546756" lon="13.7085305"><ele>58.75</ele><time>2026-04-12T09:53:43.978Z</time></trkpt><trkpt lat="45.0547808" lon="13.7084236"><ele>58.5</ele><time>2026-04-12T09:53:44.982Z</time></trkpt><trkpt lat="45.0548793" lon="13.7083201"><ele>58.25</ele><time>2026-04-12T09:53:45.98Z</time></trkpt><trkpt lat="45.0549699" lon="13.7082274"><ele>58.0</ele><time>2026-04-12T09:53:46.978Z</time></trkpt><trkpt lat="45.0550594" lon="13.7081368"><ele>58.5</ele><time>2026-04-12T09:53:47.983Z</time></trkpt><trkpt lat="45.0551443" lon="13.7080389"><ele>59.0</ele><time>2026-04-12T09:53:48.979Z</time></trkpt><trkpt lat="45.0552305" lon="13.707941"><ele>59.5</ele><time>2026-04-12T09:53:49.981Z</time></trkpt><trkpt lat="45.0553184" lon="13.7078398"><ele>60.0</ele><time>2026-04-12T09:53:50.983Z</time></trkpt><trkpt lat="45.0554156" lon="13.7077325"><ele>60.75</ele><time>2026-04-12T09:53:51.984Z</time></trkpt><trkpt lat="45.0555138" lon="13.7076179"><ele>61.5</ele><time>2026-04-12T09:53:52.976Z</time></trkpt><trkpt lat="45.0556052" lon="13.707513"><ele>62.25</ele><time>2026-04-12T09:53:53.994Z</time></trkpt><trkpt lat="45.055686" lon="13.7074163"><ele>63.0</ele><time>2026-04-12T09:53:54.98Z</time></trkpt><trkpt lat="45.0557578" lon="13.7073143"><ele>62.833333333333336</ele><time>2026-04-12T09:53:55.983Z</time></trkpt><trkpt lat="45.05582" lon="13.7072193"><ele>62.66666666666667</ele><time>2026-04-12T09:53:56.985Z</time></trkpt><trkpt lat="45.0558777" lon="13.7071386"><ele>62.5</ele><time>2026-04-12T09:53:57.981Z</time></trkpt><trkpt lat="45.0559228" lon="13.707071"><ele>62.333333333333336</ele><time>2026-04-12T09:53:58.979Z</time></trkpt><trkpt lat="45.0559956" lon="13.7069643"><ele>62.16666666666667</ele><time>2026-04-12T09:54:00.983Z</time></trkpt><trkpt lat="45.0560273" lon="13.7068442"><ele>62.0</ele><time>2026-04-12T09:54:02.982Z</time></trkpt><trkpt lat="45.0560558" lon="13.7066406"><ele>62.0</ele><time>2026-04-12T09:54:04.992Z</time></trkpt><trkpt lat="45.0560867" lon="13.7064965"><ele>62.0</ele><time>2026-04-12T09:54:05.982Z</time></trkpt><trkpt lat="45.0561171" lon="13.7063528"><ele>62.0</ele><time>2026-04-12T09:54:06.989Z</time></trkpt><trkpt lat="45.0561416" lon="13.7062169"><ele>62.0</ele><time>2026-04-12T09:54:07.98Z</time></trkpt><trkpt lat="45.0561673" lon="13.7060921"><ele>62.0</ele><time>2026-04-12T09:54:08.981Z</time></trkpt><trkpt lat="45.056202" lon="13.7059712"><ele>62.2</ele><time>2026-04-12T09:54:09.975Z</time></trkpt><trkpt lat="45.0562413" lon="13.7058432"><ele>62.400000000000006</ele><time>2026-04-12T09:54:10.977Z</time></trkpt><trkpt lat="45.0562888" lon="13.7057063"><ele>62.599999999999994</ele><time>2026-04-12T09:54:11.983Z</time></trkpt><trkpt lat="45.0563456" lon="13.7055603"><ele>62.8</ele><time>2026-04-12T09:54:12.981Z</time></trkpt><trkpt lat="45.0564047" lon="13.7054289"><ele>63.0</ele><time>2026-04-12T09:54:13.986Z</time></trkpt><trkpt lat="45.0564611" lon="13.7053164"><ele>62.0</ele><time>2026-04-12T09:54:14.979Z</time></trkpt><trkpt lat="45.0565125" lon="13.7052091"><ele>61.0</ele><time>2026-04-12T09:54:15.985Z</time></trkpt><trkpt lat="45.0565676" lon="13.7050973"><ele>60.0</ele><time>2026-04-12T09:54:16.979Z</time></trkpt><trkpt lat="45.0566274" lon="13.7049727"><ele>59.0</ele><time>2026-04-12T09:54:17.983Z</time></trkpt><trkpt lat="45.0566891" lon="13.7048456"><ele>58.0</ele><time>2026-04-12T09:54:18.983Z</time></trkpt><trkpt lat="45.0567396" lon="13.7047225"><ele>56.0</ele><time>2026-04-12T09:54:19.983Z</time></trkpt><trkpt lat="45.0567904" lon="13.704598"><ele>54.0</ele><time>2026-04-12T09:54:20.979Z</time></trkpt><trkpt lat="45.0568375" lon="13.7044806"><ele>52.0</ele><time>2026-04-12T09:54:21.986Z</time></trkpt><trkpt lat="45.0568839" lon="13.7043609"><ele>50.0</ele><time>2026-04-12T09:54:22.981Z</time></trkpt><trkpt lat="45.0569261" lon="13.7042397"><ele>48.0</ele><time>2026-04-12T09:54:23.989Z</time></trkpt><trkpt lat="45.0569681" lon="13.7041297"><ele>47.5</ele><time>2026-04-12T09:54:24.991Z</time></trkpt><trkpt lat="45.0570115" lon="13.7040305"><ele>47.0</ele><time>2026-04-12T09:54:25.985Z</time></trkpt><trkpt lat="45.0570617" lon="13.7039459"><ele>46.5</ele><time>2026-04-12T09:54:26.984Z</time></trkpt><trkpt lat="45.0571289" lon="13.703855"><ele>46.0</ele><time>2026-04-12T09:54:27.98Z</time></trkpt><trkpt lat="45.0572008" lon="13.7037678"><ele>45.5</ele><time>2026-04-12T09:54:28.983Z</time></trkpt><trkpt lat="45.0572648" lon="13.7036988"><ele>45.0</ele><time>2026-04-12T09:54:29.988Z</time></trkpt><trkpt lat="45.0573585" lon="13.703636"><ele>45.0</ele><time>2026-04-12T09:54:31.982Z</time></trkpt><trkpt lat="45.0574435" lon="13.7036363"><ele>45.0</ele><time>2026-04-12T09:54:34.978Z</time></trkpt><trkpt lat="45.0575513" lon="13.7036514"><ele>45.0</ele><time>2026-04-12T09:55:42.988Z</time></trkpt><trkpt lat="45.0576269" lon="13.7036759"><ele>45.0</ele><time>2026-04-12T09:55:43.986Z</time></trkpt><trkpt lat="45.0577116" lon="13.7037118"><ele>45.0</ele><time>2026-04-12T09:55:44.978Z</time></trkpt><trkpt lat="45.0577983" lon="13.7037524"><ele>44.4</ele><time>2026-04-12T09:55:45.983Z</time></trkpt><trkpt lat="45.0579044" lon="13.7038073"><ele>43.8</ele><time>2026-04-12T09:55:46.981Z</time></trkpt><trkpt lat="45.0579879" lon="13.7038281"><ele>43.2</ele><time>2026-04-12T09:55:47.979Z</time></trkpt><trkpt lat="45.0580753" lon="13.7038654"><ele>42.6</ele><time>2026-04-12T09:55:48.978Z</time></trkpt><trkpt lat="45.0581641" lon="13.7039319"><ele>42.0</ele><time>2026-04-12T09:55:49.984Z</time></trkpt><trkpt lat="45.0582424" lon="13.704015"><ele>42.5</ele><time>2026-04-12T09:55:50.986Z</time></trkpt><trkpt lat="45.0583282" lon="13.7041103"><ele>43.0</ele><time>2026-04-12T09:55:51.985Z</time></trkpt><trkpt lat="45.0584292" lon="13.7042136"><ele>43.5</ele><time>2026-04-12T09:55:52.985Z</time></trkpt><trkpt lat="45.0585547" lon="13.7042919"><ele>44.0</ele><time>2026-04-12T09:55:53.987Z</time></trkpt><trkpt lat="45.0586748" lon="13.7043684"><ele>45.25</ele><time>2026-04-12T09:55:54.982Z</time></trkpt><trkpt lat="45.058788" lon="13.7044511"><ele>46.5</ele><time>2026-04-12T09:55:55.976Z</time></trkpt><trkpt lat="45.0588927" lon="13.7045466"><ele>47.75</ele><time>2026-04-12T09:55:56.984Z</time></trkpt><trkpt lat="45.0589896" lon="13.7046529"><ele>49.0</ele><time>2026-04-12T09:55:57.981Z</time></trkpt><trkpt lat="45.0590727" lon="13.7047757"><ele>49.25</ele><time>2026-04-12T09:55:58.98Z</time></trkpt><trkpt lat="45.0591392" lon="13.7049273"><ele>49.5</ele><time>2026-04-12T09:55:59.98Z</time></trkpt><trkpt lat="45.0591996" lon="13.7051059"><ele>49.75</ele><time>2026-04-12T09:56:00.982Z</time></trkpt><trkpt lat="45.0592576" lon="13.70528"><ele>50.0</ele><time>2026-04-12T09:56:01.98Z</time></trkpt><trkpt lat="45.0593145" lon="13.7054236"><ele>50.8</ele><time>2026-04-12T09:56:02.979Z</time></trkpt><trkpt lat="45.0593623" lon="13.7055238"><ele>51.6</ele><time>2026-04-12T09:56:03.986Z</time></trkpt><trkpt lat="45.0594142" lon="13.7055881"><ele>52.400000000000006</ele><time>2026-04-12T09:56:04.983Z</time></trkpt><trkpt lat="45.059501" lon="13.705634"><ele>53.2</ele><time>2026-04-12T09:56:05.98Z</time></trkpt><trkpt lat="45.0596043" lon="13.7056759"><ele>54.0</ele><time>2026-04-12T09:56:06.984Z</time></trkpt><trkpt lat="45.0597135" lon="13.7057467"><ele>54.0</ele><time>2026-04-12T09:56:07.98Z</time></trkpt><trkpt lat="45.0598326" lon="13.705834"><ele>54.0</ele><time>2026-04-12T09:56:08.979Z</time></trkpt><trkpt lat="45.0599555" lon="13.705931"><ele>54.0</ele><time>2026-04-12T09:56:09.982Z</time></trkpt><trkpt lat="45.0600736" lon="13.7060424"><ele>54.0</ele><time>2026-04-12T09:56:10.981Z</time></trkpt><trkpt lat="45.0601841" lon="13.7061597"><ele>55.66666666666667</ele><time>2026-04-12T09:56:11.988Z</time></trkpt><trkpt lat="45.0602906" lon="13.7063056"><ele>57.333333333333336</ele><time>2026-04-12T09:56:12.981Z</time></trkpt><trkpt lat="45.060391" lon="13.7064723"><ele>59.0</ele><time>2026-04-12T09:56:13.982Z</time></trkpt><trkpt lat="45.0604848" lon="13.7066462"><ele>59.0</ele><time>2026-04-12T09:56:14.98Z</time></trkpt><trkpt lat="45.0605842" lon="13.7068134"><ele>59.0</ele><time>2026-04-12T09:56:15.976Z</time></trkpt><trkpt lat="45.0606914" lon="13.7069684"><ele>59.0</ele><time>2026-04-12T09:56:16.983Z</time></trkpt><trkpt lat="45.0607915" lon="13.707124"><ele>59.25</ele><time>2026-04-12T09:56:17.977Z</time></trkpt><trkpt lat="45.0609077" lon="13.7072585"><ele>59.5</ele><time>2026-04-12T09:56:18.986Z</time></trkpt><trkpt lat="45.0610203" lon="13.7073869"><ele>59.75</ele><time>2026-04-12T09:56:19.978Z</time></trkpt><trkpt lat="45.0611325" lon="13.707487"><ele>60.0</ele><time>2026-04-12T09:56:20.977Z</time></trkpt><trkpt lat="45.0612496" lon="13.7075589"><ele>60.0</ele><time>2026-04-12T09:56:21.984Z</time></trkpt><trkpt lat="45.0613807" lon="13.7076196"><ele>60.0</ele><time>2026-04-12T09:56:22.98Z</time></trkpt><trkpt lat="45.0615017" lon="13.7076927"><ele>60.0</ele><time>2026-04-12T09:56:23.98Z</time></trkpt><trkpt lat="45.061601" lon="13.7077841"><ele>60.0</ele><time>2026-04-12T09:56:24.978Z</time></trkpt><trkpt lat="45.0617052" lon="13.7079081"><ele>59.5</ele><time>2026-04-12T09:56:25.976Z</time></trkpt><trkpt lat="45.0618022" lon="13.7080568"><ele>59.0</ele><time>2026-04-12T09:56:26.983Z</time></trkpt><trkpt lat="45.0619012" lon="13.7082116"><ele>58.5</ele><time>2026-04-12T09:56:27.978Z</time></trkpt><trkpt lat="45.0620079" lon="13.7083592"><ele>58.0</ele><time>2026-04-12T09:56:28.985Z</time></trkpt><trkpt lat="45.0621156" lon="13.708494"><ele>57.5</ele><time>2026-04-12T09:56:29.979Z</time></trkpt><trkpt lat="45.0622229" lon="13.7086211"><ele>57.0</ele><time>2026-04-12T09:56:30.98Z</time></trkpt><trkpt lat="45.0623437" lon="13.7087322"><ele>56.5</ele><time>2026-04-12T09:56:31.981Z</time></trkpt><trkpt lat="45.062449" lon="13.7088274"><ele>56.0</ele><time>2026-04-12T09:56:32.98Z</time></trkpt><trkpt lat="45.0625388" lon="13.708922"><ele>56.0</ele><time>2026-04-12T09:56:33.98Z</time></trkpt><trkpt lat="45.0626106" lon="13.7090112"><ele>55.99999999999999</ele><time>2026-04-12T09:56:34.979Z</time></trkpt><trkpt lat="45.0626565" lon="13.7091057"><ele>55.99999999999999</ele><time>2026-04-12T09:56:35.98Z</time></trkpt><trkpt lat="45.0626865" lon="13.7092143"><ele>56.0</ele><time>2026-04-12T09:56:36.983Z</time></trkpt><trkpt lat="45.0627044" lon="13.7093436"><ele>56.0</ele><time>2026-04-12T09:56:37.978Z</time></trkpt><trkpt lat="45.0627031" lon="13.7094884"><ele>56.25</ele><time>2026-04-12T09:56:38.988Z</time></trkpt><trkpt lat="45.062704" lon="13.7096352"><ele>56.5</ele><time>2026-04-12T09:56:39.982Z</time></trkpt><trkpt lat="45.0627151" lon="13.7097963"><ele>56.75</ele><time>2026-04-12T09:56:40.984Z</time></trkpt><trkpt lat="45.0627515" lon="13.7099768"><ele>57.0</ele><time>2026-04-12T09:56:41.983Z</time></trkpt><trkpt lat="45.0627928" lon="13.7101647"><ele>57.25</ele><time>2026-04-12T09:56:42.987Z</time></trkpt><trkpt lat="45.0628424" lon="13.7103542"><ele>57.5</ele><time>2026-04-12T09:56:44.001Z</time></trkpt><trkpt lat="45.0628959" lon="13.7105245"><ele>57.75</ele><time>2026-04-12T09:56:44.987Z</time></trkpt><trkpt lat="45.062963" lon="13.71068"><ele>58.0</ele><time>2026-04-12T09:56:45.988Z</time></trkpt><trkpt lat="45.0630331" lon="13.7108292"><ele>58.0</ele><time>2026-04-12T09:56:46.987Z</time></trkpt><trkpt lat="45.0631105" lon="13.7109504"><ele>58.0</ele><time>2026-04-12T09:56:47.98Z</time></trkpt><trkpt lat="45.0632015" lon="13.711059"><ele>58.0</ele><time>2026-04-12T09:56:48.984Z</time></trkpt><trkpt lat="45.0633118" lon="13.7111568"><ele>58.0</ele><time>2026-04-12T09:56:49.979Z</time></trkpt><trkpt lat="45.0634033" lon="13.7112515"><ele>58.8</ele><time>2026-04-12T09:56:50.983Z</time></trkpt><trkpt lat="45.0634855" lon="13.711376"><ele>59.599999999999994</ele><time>2026-04-12T09:56:51.991Z</time></trkpt><trkpt lat="45.0635442" lon="13.7115094"><ele>60.400000000000006</ele><time>2026-04-12T09:56:52.98Z</time></trkpt><trkpt lat="45.0635927" lon="13.7116263"><ele>61.2</ele><time>2026-04-12T09:56:53.985Z</time></trkpt><trkpt lat="45.0636182" lon="13.7117086"><ele>62.0</ele><time>2026-04-12T09:56:54.979Z</time></trkpt><trkpt lat="45.0636366" lon="13.711801"><ele>62.0</ele><time>2026-04-12T09:56:55.982Z</time></trkpt><trkpt lat="45.0636492" lon="13.7119183"><ele>62.0</ele><time>2026-04-12T09:56:56.983Z</time></trkpt><trkpt lat="45.0636639" lon="13.7120452"><ele>62.0</ele><time>2026-04-12T09:56:57.988Z</time></trkpt><trkpt lat="45.0636867" lon="13.712181"><ele>62.0</ele><time>2026-04-12T09:56:58.983Z</time></trkpt><trkpt lat="45.0637127" lon="13.7123371"><ele>62.0</ele><time>2026-04-12T09:56:59.979Z</time></trkpt><trkpt lat="45.0637313" lon="13.7125045"><ele>62.0</ele><time>2026-04-12T09:57:00.977Z</time></trkpt><trkpt lat="45.0637394" lon="13.7126578"><ele>62.0</ele><time>2026-04-12T09:57:01.982Z</time></trkpt><trkpt lat="45.0637337" lon="13.7128264"><ele>62.0</ele><time>2026-04-12T09:57:02.979Z</time></trkpt><trkpt lat="45.0637141" lon="13.7130149"><ele>62.0</ele><time>2026-04-12T09:57:03.98Z</time></trkpt><trkpt lat="45.0636891" lon="13.7132284"><ele>62.25</ele><time>2026-04-12T09:57:04.978Z</time></trkpt><trkpt lat="45.0636611" lon="13.7134219"><ele>62.5</ele><time>2026-04-12T09:57:05.981Z</time></trkpt><trkpt lat="45.0636464" lon="13.7136048"><ele>62.75</ele><time>2026-04-12T09:57:06.98Z</time></trkpt><trkpt lat="45.0636437" lon="13.7137726"><ele>63.0</ele><time>2026-04-12T09:57:07.981Z</time></trkpt><trkpt lat="45.0636684" lon="13.7139414"><ele>64.0</ele><time>2026-04-12T09:57:08.983Z</time></trkpt><trkpt lat="45.0637147" lon="13.7141209"><ele>65.0</ele><time>2026-04-12T09:57:09.982Z</time></trkpt><trkpt lat="45.0637767" lon="13.7143095"><ele>66.0</ele><time>2026-04-12T09:57:10.998Z</time></trkpt><trkpt lat="45.0638318" lon="13.7145071"><ele>67.0</ele><time>2026-04-12T09:57:11.994Z</time></trkpt><trkpt lat="45.0638811" lon="13.7147095"><ele>69.0</ele><time>2026-04-12T09:57:12.981Z</time></trkpt><trkpt lat="45.0639198" lon="13.7149139"><ele>71.0</ele><time>2026-04-12T09:57:13.983Z</time></trkpt><trkpt lat="45.0639482" lon="13.7151189"><ele>73.0</ele><time>2026-04-12T09:57:14.978Z</time></trkpt><trkpt lat="45.0639808" lon="13.7153207"><ele>75.0</ele><time>2026-04-12T09:57:15.984Z</time></trkpt><trkpt lat="45.0640124" lon="13.7155052"><ele>75.25</ele><time>2026-04-12T09:57:16.982Z</time></trkpt><trkpt lat="45.0640458" lon="13.7156845"><ele>75.5</ele><time>2026-04-12T09:57:17.98Z</time></trkpt><trkpt lat="45.0640665" lon="13.715863"><ele>75.75</ele><time>2026-04-12T09:57:18.979Z</time></trkpt><trkpt lat="45.064069" lon="13.716055"><ele>76.0</ele><time>2026-04-12T09:57:19.986Z</time></trkpt><trkpt lat="45.0640537" lon="13.7162525"><ele>74.5</ele><time>2026-04-12T09:57:20.989Z</time></trkpt><trkpt lat="45.0640356" lon="13.7164324"><ele>73.0</ele><time>2026-04-12T09:57:21.98Z</time></trkpt><trkpt lat="45.0640169" lon="13.7165978"><ele>71.5</ele><time>2026-04-12T09:57:22.984Z</time></trkpt><trkpt lat="45.0640027" lon="13.7167462"><ele>70.0</ele><time>2026-04-12T09:57:23.981Z</time></trkpt><trkpt lat="45.063984" lon="13.7168825"><ele>69.33333333333333</ele><time>2026-04-12T09:57:24.982Z</time></trkpt><trkpt lat="45.0639646" lon="13.717"><ele>68.66666666666666</ele><time>2026-04-12T09:57:25.979Z</time></trkpt><trkpt lat="45.0639544" lon="13.7171169"><ele>68.0</ele><time>2026-04-12T09:57:26.989Z</time></trkpt><trkpt lat="45.0639571" lon="13.7172259"><ele>67.33333333333333</ele><time>2026-04-12T09:57:27.989Z</time></trkpt><trkpt lat="45.0639768" lon="13.7173255"><ele>66.66666666666667</ele><time>2026-04-12T09:57:28.981Z</time></trkpt><trkpt lat="45.0640057" lon="13.7174291"><ele>66.0</ele><time>2026-04-12T09:57:29.978Z</time></trkpt><trkpt lat="45.0640416" lon="13.717539"><ele>66.0</ele><time>2026-04-12T09:57:30.982Z</time></trkpt><trkpt lat="45.0640807" lon="13.7176537"><ele>66.0</ele><time>2026-04-12T09:57:31.981Z</time></trkpt><trkpt lat="45.0641186" lon="13.7177729"><ele>66.0</ele><time>2026-04-12T09:57:32.98Z</time></trkpt><trkpt lat="45.0641566" lon="13.7178959"><ele>66.0</ele><time>2026-04-12T09:57:33.983Z</time></trkpt><trkpt lat="45.0642131" lon="13.7180031"><ele>66.0</ele><time>2026-04-12T09:57:34.985Z</time></trkpt><trkpt lat="45.0642786" lon="13.7180991"><ele>65.8</ele><time>2026-04-12T09:57:35.982Z</time></trkpt><trkpt lat="45.0643574" lon="13.7181814"><ele>65.6</ele><time>2026-04-12T09:57:36.979Z</time></trkpt><trkpt lat="45.0644389" lon="13.7182482"><ele>65.4</ele><time>2026-04-12T09:57:37.984Z</time></trkpt><trkpt lat="45.0645297" lon="13.7183016"><ele>65.2</ele><time>2026-04-12T09:57:38.981Z</time></trkpt><trkpt lat="45.0646228" lon="13.7183649"><ele>65.0</ele><time>2026-04-12T09:57:39.976Z</time></trkpt><trkpt lat="45.0647095" lon="13.718431"><ele>65.0</ele><time>2026-04-12T09:57:40.981Z</time></trkpt><trkpt lat="45.0647908" lon="13.7185128"><ele>65.0</ele><time>2026-04-12T09:57:41.977Z</time></trkpt><trkpt lat="45.0648607" lon="13.7186145"><ele>65.0</ele><time>2026-04-12T09:57:42.982Z</time></trkpt><trkpt lat="45.0649136" lon="13.7187248"><ele>65.0</ele><time>2026-04-12T09:57:43.985Z</time></trkpt><trkpt lat="45.0649518" lon="13.7188226"><ele>65.0</ele><time>2026-04-12T09:57:44.979Z</time></trkpt><trkpt lat="45.0649912" lon="13.7189044"><ele>65.0</ele><time>2026-04-12T09:57:45.984Z</time></trkpt><trkpt lat="45.0650771" lon="13.718992"><ele>65.66666666666667</ele><time>2026-04-12T09:57:47.98Z</time></trkpt><trkpt lat="45.065181" lon="13.718973"><ele>66.33333333333334</ele><time>2026-04-12T09:57:49.98Z</time></trkpt><trkpt lat="45.0652522" lon="13.7189506"><ele>67.0</ele><time>2026-04-12T09:57:50.98Z</time></trkpt><trkpt lat="45.0653271" lon="13.7189243"><ele>67.66666666666667</ele><time>2026-04-12T09:57:51.981Z</time></trkpt><trkpt lat="45.0653985" lon="13.7188963"><ele>68.33333333333333</ele><time>2026-04-12T09:57:52.98Z</time></trkpt><trkpt lat="45.0655054" lon="13.7188778"><ele>69.0</ele><time>2026-04-12T09:57:54.984Z</time></trkpt><trkpt lat="45.0656122" lon="13.7189487"><ele>69.0</ele><time>2026-04-12T09:57:56.984Z</time></trkpt><trkpt lat="45.0656764" lon="13.7190258"><ele>69.0</ele><time>2026-04-12T09:57:57.988Z</time></trkpt><trkpt lat="45.0657346" lon="13.7190961"><ele>69.0</ele><time>2026-04-12T09:57:58.978Z</time></trkpt><trkpt lat="45.065776" lon="13.7191783"><ele>69.0</ele><time>2026-04-12T09:57:59.98Z</time></trkpt><trkpt lat="45.0658107" lon="13.7192685"><ele>69.0</ele><time>2026-04-12T09:58:00.987Z</time></trkpt><trkpt lat="45.0658419" lon="13.7193737"><ele>69.0</ele><time>2026-04-12T09:58:01.982Z</time></trkpt><trkpt lat="45.0658813" lon="13.7194804"><ele>69.0</ele><time>2026-04-12T09:58:02.978Z</time></trkpt><trkpt lat="45.0659194" lon="13.7195843"><ele>69.0</ele><time>2026-04-12T09:58:03.981Z</time></trkpt><trkpt lat="45.0659693" lon="13.71968"><ele>69.0</ele><time>2026-04-12T09:58:04.978Z</time></trkpt><trkpt lat="45.0660302" lon="13.7197606"><ele>69.0</ele><time>2026-04-12T09:58:05.99Z</time></trkpt><trkpt lat="45.0660849" lon="13.719843"><ele>69.0</ele><time>2026-04-12T09:58:06.988Z</time></trkpt><trkpt lat="45.0661406" lon="13.7199175"><ele>69.0</ele><time>2026-04-12T09:58:07.978Z</time></trkpt><trkpt lat="45.0661951" lon="13.7199922"><ele>69.0</ele><time>2026-04-12T09:58:08.98Z</time></trkpt><trkpt lat="45.0662416" lon="13.7200592"><ele>69.0</ele><time>2026-04-12T09:58:09.987Z</time></trkpt><trkpt lat="45.0662805" lon="13.7201316"><ele>69.0</ele><time>2026-04-12T09:58:10.981Z</time></trkpt><trkpt lat="45.0663114" lon="13.7202191"><ele>69.0</ele><time>2026-04-12T09:58:11.988Z</time></trkpt><trkpt lat="45.066336" lon="13.7203207"><ele>69.0</ele><time>2026-04-12T09:58:12.982Z</time></trkpt><trkpt lat="45.0663484" lon="13.720415"><ele>69.0</ele><time>2026-04-12T09:58:13.98Z</time></trkpt><trkpt lat="45.0663822" lon="13.72057"><ele>68.66666666666667</ele><time>2026-04-12T09:58:15.977Z</time></trkpt><trkpt lat="45.0664632" lon="13.7206554"><ele>68.33333333333333</ele><time>2026-04-12T09:58:17.981Z</time></trkpt><trkpt lat="45.0665794" lon="13.7206626"><ele>68.0</ele><time>2026-04-12T09:58:19.978Z</time></trkpt><trkpt lat="45.0666397" lon="13.7206325"><ele>67.66666666666666</ele><time>2026-04-12T09:58:20.977Z</time></trkpt><trkpt lat="45.0667039" lon="13.7205849"><ele>67.33333333333333</ele><time>2026-04-12T09:58:21.978Z</time></trkpt><trkpt lat="45.0667777" lon="13.7205149"><ele>67.0</ele><time>2026-04-12T09:58:22.981Z</time></trkpt><trkpt lat="45.066853" lon="13.7204349"><ele>67.8</ele><time>2026-04-12T09:58:23.984Z</time></trkpt><trkpt lat="45.0669423" lon="13.7203485"><ele>68.6</ele><time>2026-04-12T09:58:24.982Z</time></trkpt><trkpt lat="45.067036" lon="13.7202555"><ele>69.39999999999999</ele><time>2026-04-12T09:58:25.977Z</time></trkpt><trkpt lat="45.067128" lon="13.7201594"><ele>70.2</ele><time>2026-04-12T09:58:26.979Z</time></trkpt><trkpt lat="45.0672107" lon="13.720072"><ele>71.0</ele><time>2026-04-12T09:58:27.976Z</time></trkpt><trkpt lat="45.0672887" lon="13.7199933"><ele>71.0</ele><time>2026-04-12T09:58:28.982Z</time></trkpt><trkpt lat="45.0673537" lon="13.7199269"><ele>71.0</ele><time>2026-04-12T09:58:29.99Z</time></trkpt><trkpt lat="45.0674589" lon="13.7198684"><ele>71.0</ele><time>2026-04-12T09:58:31.979Z</time></trkpt><trkpt lat="45.0675589" lon="13.7198922"><ele>71.0</ele><time>2026-04-12T09:58:33.98Z</time></trkpt><trkpt lat="45.0676323" lon="13.7199264"><ele>71.0</ele><time>2026-04-12T09:58:34.979Z</time></trkpt><trkpt lat="45.0677202" lon="13.7199777"><ele>71.0</ele><time>2026-04-12T09:58:35.979Z</time></trkpt><trkpt lat="45.0678205" lon="13.7200416"><ele>71.0</ele><time>2026-04-12T09:58:36.98Z</time></trkpt><trkpt lat="45.0679188" lon="13.7201301"><ele>71.0</ele><time>2026-04-12T09:58:37.979Z</time></trkpt><trkpt lat="45.0680187" lon="13.7202459"><ele>71.0</ele><time>2026-04-12T09:58:38.98Z</time></trkpt><trkpt lat="45.0681112" lon="13.7203757"><ele>71.25</ele><time>2026-04-12T09:58:39.982Z</time></trkpt><trkpt lat="45.0681838" lon="13.720531"><ele>71.5</ele><time>2026-04-12T09:58:40.98Z</time></trkpt><trkpt lat="45.0682551" lon="13.7207086"><ele>71.75</ele><time>2026-04-12T09:58:41.981Z</time></trkpt><trkpt lat="45.0683245" lon="13.7208907"><ele>72.0</ele><time>2026-04-12T09:58:42.977Z</time></trkpt><trkpt lat="45.0683933" lon="13.7210731"><ele>72.0</ele><time>2026-04-12T09:58:43.981Z</time></trkpt><trkpt lat="45.0684659" lon="13.7212535"><ele>72.0</ele><time>2026-04-12T09:58:44.981Z</time></trkpt><trkpt lat="45.0685356" lon="13.7214165"><ele>72.0</ele><time>2026-04-12T09:58:45.979Z</time></trkpt><trkpt lat="45.0686077" lon="13.721554"><ele>72.0</ele><time>2026-04-12T09:58:46.992Z</time></trkpt><trkpt lat="45.0686813" lon="13.7216797"><ele>72.0</ele><time>2026-04-12T09:58:47.981Z</time></trkpt><trkpt lat="45.0687474" lon="13.7217751"><ele>72.0</ele><time>2026-04-12T09:58:48.978Z</time></trkpt><trkpt lat="45.068827" lon="13.721849"><ele>72.0</ele><time>2026-04-12T09:58:49.98Z</time></trkpt><trkpt lat="45.0689188" lon="13.7219059"><ele>72.0</ele><time>2026-04-12T09:58:50.979Z</time></trkpt><trkpt lat="45.0690266" lon="13.7219493"><ele>72.0</ele><time>2026-04-12T09:58:51.979Z</time></trkpt><trkpt lat="45.0691342" lon="13.72201"><ele>73.0</ele><time>2026-04-12T09:58:52.978Z</time></trkpt><trkpt lat="45.0692425" lon="13.7220779"><ele>74.0</ele><time>2026-04-12T09:58:53.978Z</time></trkpt><trkpt lat="45.0693549" lon="13.7221312"><ele>75.0</ele><time>2026-04-12T09:58:54.978Z</time></trkpt><trkpt lat="45.069465" lon="13.7221726"><ele>76.0</ele><time>2026-04-12T09:58:55.98Z</time></trkpt><trkpt lat="45.0695658" lon="13.722216"><ele>76.0</ele><time>2026-04-12T09:58:56.979Z</time></trkpt><trkpt lat="45.0696663" lon="13.7222606"><ele>76.0</ele><time>2026-04-12T09:58:57.98Z</time></trkpt><trkpt lat="45.0697496" lon="13.7223061"><ele>76.0</ele><time>2026-04-12T09:58:58.98Z</time></trkpt><trkpt lat="45.0698209" lon="13.722348"><ele>76.0</ele><time>2026-04-12T09:58:59.98Z</time></trkpt><trkpt lat="45.069883" lon="13.7223872"><ele>76.0</ele><time>2026-04-12T09:59:00.98Z</time></trkpt><trkpt lat="45.0699767" lon="13.7224591"><ele>76.0</ele><time>2026-04-12T09:59:02.978Z</time></trkpt><trkpt lat="45.0700738" lon="13.7225275"><ele>76.6</ele><time>2026-04-12T09:59:04.981Z</time></trkpt><trkpt lat="45.0701338" lon="13.7225732"><ele>77.19999999999999</ele><time>2026-04-12T09:59:05.981Z</time></trkpt><trkpt lat="45.0702385" lon="13.7226199"><ele>77.80000000000001</ele><time>2026-04-12T09:59:07.985Z</time></trkpt><trkpt lat="45.0703683" lon="13.7226167"><ele>78.4</ele><time>2026-04-12T09:59:09.983Z</time></trkpt><trkpt lat="45.0704431" lon="13.7226069"><ele>79.0</ele><time>2026-04-12T09:59:10.978Z</time></trkpt><trkpt lat="45.070513" lon="13.7226013"><ele>79.0</ele><time>2026-04-12T09:59:11.979Z</time></trkpt><trkpt lat="45.0705894" lon="13.7225988"><ele>79.0</ele><time>2026-04-12T09:59:12.976Z</time></trkpt><trkpt lat="45.0706687" lon="13.7226056"><ele>79.0</ele><time>2026-04-12T09:59:13.983Z</time></trkpt><trkpt lat="45.0707566" lon="13.7226208"><ele>79.0</ele><time>2026-04-12T09:59:14.979Z</time></trkpt><trkpt lat="45.0708435" lon="13.7226462"><ele>79.0</ele><time>2026-04-12T09:59:15.979Z</time></trkpt><trkpt lat="45.0709346" lon="13.7226638"><ele>79.0</ele><time>2026-04-12T09:59:16.98Z</time></trkpt><trkpt lat="45.0710256" lon="13.7226712"><ele>79.4</ele><time>2026-04-12T09:59:17.993Z</time></trkpt><trkpt lat="45.0711307" lon="13.7226738"><ele>79.80000000000001</ele><time>2026-04-12T09:59:18.984Z</time></trkpt><trkpt lat="45.0712352" lon="13.7226773"><ele>80.19999999999999</ele><time>2026-04-12T09:59:19.984Z</time></trkpt><trkpt lat="45.0713438" lon="13.7226837"><ele>80.6</ele><time>2026-04-12T09:59:20.982Z</time></trkpt><trkpt lat="45.0714535" lon="13.7227021"><ele>81.0</ele><time>2026-04-12T09:59:21.98Z</time></trkpt><trkpt lat="45.0715654" lon="13.7227432"><ele>82.5</ele><time>2026-04-12T09:59:22.982Z</time></trkpt><trkpt lat="45.0716842" lon="13.7228189"><ele>84.0</ele><time>2026-04-12T09:59:23.981Z</time></trkpt><trkpt lat="45.0718056" lon="13.722901"><ele>85.5</ele><time>2026-04-12T09:59:24.98Z</time></trkpt><trkpt lat="45.0719357" lon="13.7229636"><ele>87.0</ele><time>2026-04-12T09:59:25.981Z</time></trkpt><trkpt lat="45.0720739" lon="13.7230143"><ele>87.0</ele><time>2026-04-12T09:59:26.981Z</time></trkpt><trkpt lat="45.0722115" lon="13.7230571"><ele>87.0</ele><time>2026-04-12T09:59:27.983Z</time></trkpt><trkpt lat="45.0723448" lon="13.7230967"><ele>87.0</ele><time>2026-04-12T09:59:28.978Z</time></trkpt><trkpt lat="45.0724764" lon="13.7231434"><ele>87.0</ele><time>2026-04-12T09:59:29.977Z</time></trkpt><trkpt lat="45.0726033" lon="13.723193"><ele>87.75</ele><time>2026-04-12T09:59:30.985Z</time></trkpt><trkpt lat="45.0727232" lon="13.7232377"><ele>88.5</ele><time>2026-04-12T09:59:31.977Z</time></trkpt><trkpt lat="45.0728387" lon="13.7232544"><ele>89.25</ele><time>2026-04-12T09:59:32.979Z</time></trkpt><trkpt lat="45.0729474" lon="13.7232384"><ele>90.0</ele><time>2026-04-12T09:59:33.988Z</time></trkpt><trkpt lat="45.0730523" lon="13.7231951"><ele>90.0</ele><time>2026-04-12T09:59:34.978Z</time></trkpt><trkpt lat="45.0731569" lon="13.7231324"><ele>90.0</ele><time>2026-04-12T09:59:35.984Z</time></trkpt><trkpt lat="45.073265" lon="13.7230137"><ele>90.0</ele><time>2026-04-12T09:59:36.98Z</time></trkpt><trkpt lat="45.0733528" lon="13.7229366"><ele>90.0</ele><time>2026-04-12T09:59:37.99Z</time></trkpt><trkpt lat="45.0734328" lon="13.7228958"><ele>90.0</ele><time>2026-04-12T09:59:38.98Z</time></trkpt><trkpt lat="45.0735257" lon="13.7228847"><ele>91.5</ele><time>2026-04-12T09:59:39.979Z</time></trkpt><trkpt lat="45.0736343" lon="13.7229041"><ele>93.0</ele><time>2026-04-12T09:59:40.981Z</time></trkpt><trkpt lat="45.0737515" lon="13.7229142"><ele>94.5</ele><time>2026-04-12T09:59:41.98Z</time></trkpt><trkpt lat="45.0738838" lon="13.7229215"><ele>96.0</ele><time>2026-04-12T09:59:42.979Z</time></trkpt><trkpt lat="45.0740077" lon="13.7229412"><ele>97.0</ele><time>2026-04-12T09:59:43.978Z</time></trkpt><trkpt lat="45.0741334" lon="13.7229786"><ele>98.0</ele><time>2026-04-12T09:59:44.981Z</time></trkpt><trkpt lat="45.074246" lon="13.7230326"><ele>99.0</ele><time>2026-04-12T09:59:45.991Z</time></trkpt><trkpt lat="45.0743368" lon="13.7231092"><ele>100.0</ele><time>2026-04-12T09:59:46.984Z</time></trkpt><trkpt lat="45.0744224" lon="13.7232165"><ele>100.0</ele><time>2026-04-12T09:59:47.984Z</time></trkpt><trkpt lat="45.0744987" lon="13.7233403"><ele>100.0</ele><time>2026-04-12T09:59:48.978Z</time></trkpt><trkpt lat="45.0745728" lon="13.7234352"><ele>100.0</ele><time>2026-04-12T09:59:49.978Z</time></trkpt><trkpt lat="45.074659" lon="13.7235093"><ele>100.0</ele><time>2026-04-12T09:59:50.985Z</time></trkpt><trkpt lat="45.0747429" lon="13.7235433"><ele>100.0</ele><time>2026-04-12T09:59:51.98Z</time></trkpt><trkpt lat="45.0748342" lon="13.7235511"><ele>100.0</ele><time>2026-04-12T09:59:52.981Z</time></trkpt><trkpt lat="45.074923" lon="13.7235363"><ele>100.0</ele><time>2026-04-12T09:59:53.983Z</time></trkpt><trkpt lat="45.0750177" lon="13.7234991"><ele>100.0</ele><time>2026-04-12T09:59:54.98Z</time></trkpt><trkpt lat="45.0751297" lon="13.723444"><ele>100.0</ele><time>2026-04-12T09:59:55.986Z</time></trkpt><trkpt lat="45.0752556" lon="13.7233932"><ele>100.0</ele><time>2026-04-12T09:59:56.986Z</time></trkpt><trkpt lat="45.0753896" lon="13.7233554"><ele>99.75</ele><time>2026-04-12T09:59:57.983Z</time></trkpt><trkpt lat="45.0755233" lon="13.7233011"><ele>99.5</ele><time>2026-04-12T09:59:58.978Z</time></trkpt><trkpt lat="45.0756612" lon="13.7232593"><ele>99.25</ele><time>2026-04-12T09:59:59.979Z</time></trkpt><trkpt lat="45.0757982" lon="13.7232319"><ele>99.0</ele><time>2026-04-12T10:00:00.978Z</time></trkpt><trkpt lat="45.0759249" lon="13.7232018"><ele>99.4</ele><time>2026-04-12T10:00:01.978Z</time></trkpt><trkpt lat="45.0760139" lon="13.7231643"><ele>99.80000000000001</ele><time>2026-04-12T10:00:02.981Z</time></trkpt><trkpt lat="45.0761136" lon="13.7231105"><ele>100.19999999999999</ele><time>2026-04-12T10:00:03.979Z</time></trkpt><trkpt lat="45.0762029" lon="13.7230248"><ele>100.6</ele><time>2026-04-12T10:00:04.978Z</time></trkpt><trkpt lat="45.0762965" lon="13.7229146"><ele>101.0</ele><time>2026-04-12T10:00:05.977Z</time></trkpt><trkpt lat="45.0764003" lon="13.72283"><ele>101.0</ele><time>2026-04-12T10:00:06.977Z</time></trkpt><trkpt lat="45.0765137" lon="13.7227378"><ele>101.0</ele><time>2026-04-12T10:00:07.98Z</time></trkpt><trkpt lat="45.0766259" lon="13.7226607"><ele>101.0</ele><time>2026-04-12T10:00:08.978Z</time></trkpt><trkpt lat="45.076736" lon="13.722598"><ele>101.0</ele><time>2026-04-12T10:00:09.981Z</time></trkpt><trkpt lat="45.0768532" lon="13.7225548"><ele>100.25</ele><time>2026-04-12T10:00:10.98Z</time></trkpt><trkpt lat="45.0769783" lon="13.7225375"><ele>99.5</ele><time>2026-04-12T10:00:11.981Z</time></trkpt><trkpt lat="45.0771081" lon="13.722541"><ele>98.75</ele><time>2026-04-12T10:00:12.979Z</time></trkpt><trkpt lat="45.0772427" lon="13.72253"><ele>98.0</ele><time>2026-04-12T10:00:13.98Z</time></trkpt><trkpt lat="45.0773684" lon="13.7224936"><ele>98.75</ele><time>2026-04-12T10:00:14.983Z</time></trkpt><trkpt lat="45.0775072" lon="13.7224387"><ele>99.5</ele><time>2026-04-12T10:00:15.979Z</time></trkpt><trkpt lat="45.077634" lon="13.7223969"><ele>100.25</ele><time>2026-04-12T10:00:16.979Z</time></trkpt><trkpt lat="45.0777636" lon="13.7223573"><ele>101.0</ele><time>2026-04-12T10:00:17.98Z</time></trkpt><trkpt lat="45.0778965" lon="13.722326"><ele>101.0</ele><time>2026-04-12T10:00:18.979Z</time></trkpt><trkpt lat="45.0780103" lon="13.722298"><ele>101.0</ele><time>2026-04-12T10:00:19.977Z</time></trkpt><trkpt lat="45.0781327" lon="13.7222694"><ele>101.0</ele><time>2026-04-12T10:00:20.978Z</time></trkpt><trkpt lat="45.0782617" lon="13.7222445"><ele>101.0</ele><time>2026-04-12T10:00:21.979Z</time></trkpt><trkpt lat="45.0783871" lon="13.7222294"><ele>102.0</ele><time>2026-04-12T10:00:22.979Z</time></trkpt><trkpt lat="45.0785147" lon="13.722227"><ele>103.0</ele><time>2026-04-12T10:00:23.98Z</time></trkpt><trkpt lat="45.0786585" lon="13.7222398"><ele>104.0</ele><time>2026-04-12T10:00:24.982Z</time></trkpt><trkpt lat="45.0787957" lon="13.7222686"><ele>105.0</ele><time>2026-04-12T10:00:25.978Z</time></trkpt><trkpt lat="45.0789258" lon="13.7222998"><ele>105.0</ele><time>2026-04-12T10:00:26.977Z</time></trkpt><trkpt lat="45.0790578" lon="13.7223263"><ele>105.0</ele><time>2026-04-12T10:00:27.987Z</time></trkpt><trkpt lat="45.0791659" lon="13.7223568"><ele>105.0</ele><time>2026-04-12T10:00:28.987Z</time></trkpt><trkpt lat="45.0792605" lon="13.7223889"><ele>105.0</ele><time>2026-04-12T10:00:29.992Z</time></trkpt><trkpt lat="45.0793515" lon="13.7224021"><ele>105.0</ele><time>2026-04-12T10:00:30.976Z</time></trkpt><trkpt lat="45.0794525" lon="13.7223887"><ele>104.75</ele><time>2026-04-12T10:00:31.982Z</time></trkpt><trkpt lat="45.0795695" lon="13.7223465"><ele>104.5</ele><time>2026-04-12T10:00:32.982Z</time></trkpt><trkpt lat="45.0796881" lon="13.7223063"><ele>104.25</ele><time>2026-04-12T10:00:33.982Z</time></trkpt><trkpt lat="45.0798005" lon="13.7222802"><ele>104.0</ele><time>2026-04-12T10:00:34.978Z</time></trkpt><trkpt lat="45.0799052" lon="13.7222436"><ele>104.25</ele><time>2026-04-12T10:00:35.981Z</time></trkpt><trkpt lat="45.0800185" lon="13.722183"><ele>104.5</ele><time>2026-04-12T10:00:36.979Z</time></trkpt><trkpt lat="45.0801292" lon="13.7221157"><ele>104.75</ele><time>2026-04-12T10:00:37.985Z</time></trkpt><trkpt lat="45.0802462" lon="13.7220315"><ele>105.0</ele><time>2026-04-12T10:00:38.982Z</time></trkpt><trkpt lat="45.0803667" lon="13.7219507"><ele>105.25</ele><time>2026-04-12T10:00:39.982Z</time></trkpt><trkpt lat="45.08049" lon="13.7218742"><ele>105.5</ele><time>2026-04-12T10:00:40.98Z</time></trkpt><trkpt lat="45.0806036" lon="13.7217962"><ele>105.75</ele><time>2026-04-12T10:00:41.982Z</time></trkpt><trkpt lat="45.0807249" lon="13.7217087"><ele>106.0</ele><time>2026-04-12T10:00:42.98Z</time></trkpt><trkpt lat="45.0808397" lon="13.7216155"><ele>106.0</ele><time>2026-04-12T10:00:43.977Z</time></trkpt><trkpt lat="45.080956" lon="13.7215375"><ele>106.0</ele><time>2026-04-12T10:00:44.982Z</time></trkpt><trkpt lat="45.0810715" lon="13.7214724"><ele>106.0</ele><time>2026-04-12T10:00:45.978Z</time></trkpt><trkpt lat="45.0811827" lon="13.7214286"><ele>106.0</ele><time>2026-04-12T10:00:46.988Z</time></trkpt><trkpt lat="45.0812868" lon="13.7213871"><ele>106.0</ele><time>2026-04-12T10:00:47.987Z</time></trkpt><trkpt lat="45.0813892" lon="13.721311"><ele>106.0</ele><time>2026-04-12T10:00:48.986Z</time></trkpt><trkpt lat="45.08149" lon="13.7212133"><ele>106.0</ele><time>2026-04-12T10:00:49.978Z</time></trkpt><trkpt lat="45.0815829" lon="13.7211092"><ele>106.0</ele><time>2026-04-12T10:00:50.983Z</time></trkpt><trkpt lat="45.081651" lon="13.720995"><ele>106.4</ele><time>2026-04-12T10:00:51.988Z</time></trkpt><trkpt lat="45.081718" lon="13.7209108"><ele>106.8</ele><time>2026-04-12T10:00:52.985Z</time></trkpt><trkpt lat="45.0817741" lon="13.720862"><ele>107.20000000000002</ele><time>2026-04-12T10:00:53.983Z</time></trkpt><trkpt lat="45.0818911" lon="13.7208568"><ele>107.60000000000001</ele><time>2026-04-12T10:00:55.983Z</time></trkpt><trkpt lat="45.0819756" lon="13.7208875"><ele>108.0</ele><time>2026-04-12T10:00:56.981Z</time></trkpt><trkpt lat="45.0820749" lon="13.7209292"><ele>108.0</ele><time>2026-04-12T10:00:57.982Z</time></trkpt><trkpt lat="45.0821839" lon="13.7209723"><ele>108.0</ele><time>2026-04-12T10:00:58.985Z</time></trkpt><trkpt lat="45.0822999" lon="13.7210286"><ele>108.0</ele><time>2026-04-12T10:00:59.98Z</time></trkpt><trkpt lat="45.0824249" lon="13.7210893"><ele>108.0</ele><time>2026-04-12T10:01:00.984Z</time></trkpt><trkpt lat="45.0825458" lon="13.7211544"><ele>109.0</ele><time>2026-04-12T10:01:01.98Z</time></trkpt><trkpt lat="45.0826618" lon="13.7212121"><ele>110.00000000000001</ele><time>2026-04-12T10:01:02.987Z</time></trkpt><trkpt lat="45.0827624" lon="13.7212594"><ele>111.00000000000001</ele><time>2026-04-12T10:01:03.978Z</time></trkpt><trkpt lat="45.0828645" lon="13.7213201"><ele>112.0</ele><time>2026-04-12T10:01:04.979Z</time></trkpt><trkpt lat="45.0829558" lon="13.721391"><ele>113.0</ele><time>2026-04-12T10:01:05.979Z</time></trkpt><trkpt lat="45.0830375" lon="13.721463"><ele>113.0</ele><time>2026-04-12T10:01:06.984Z</time></trkpt><trkpt lat="45.0830943" lon="13.72155"><ele>113.00000000000001</ele><time>2026-04-12T10:01:07.976Z</time></trkpt><trkpt lat="45.0831449" lon="13.7216665"><ele>113.00000000000001</ele><time>2026-04-12T10:01:08.978Z</time></trkpt><trkpt lat="45.0831964" lon="13.7217923"><ele>113.0</ele><time>2026-04-12T10:01:09.977Z</time></trkpt><trkpt lat="45.0832641" lon="13.7219089"><ele>113.0</ele><time>2026-04-12T10:01:10.978Z</time></trkpt><trkpt lat="45.0833293" lon="13.7220048"><ele>114.66666666666666</ele><time>2026-04-12T10:01:11.979Z</time></trkpt><trkpt lat="45.0833947" lon="13.7220611"><ele>116.33333333333333</ele><time>2026-04-12T10:01:12.978Z</time></trkpt><trkpt lat="45.0834699" lon="13.7220969"><ele>118.0</ele><time>2026-04-12T10:01:13.978Z</time></trkpt><trkpt lat="45.0835549" lon="13.7221055"><ele>119.66666666666666</ele><time>2026-04-12T10:01:14.983Z</time></trkpt><trkpt lat="45.0836526" lon="13.7221088"><ele>121.33333333333333</ele><time>2026-04-12T10:01:15.983Z</time></trkpt><trkpt lat="45.0837581" lon="13.7221252"><ele>123.0</ele><time>2026-04-12T10:01:16.979Z</time></trkpt><trkpt lat="45.0838736" lon="13.7221433"><ele>123.0</ele><time>2026-04-12T10:01:17.98Z</time></trkpt><trkpt lat="45.0839917" lon="13.7221686"><ele>123.00000000000001</ele><time>2026-04-12T10:01:18.98Z</time></trkpt><trkpt lat="45.0840809" lon="13.7222154"><ele>123.00000000000001</ele><time>2026-04-12T10:01:19.981Z</time></trkpt><trkpt lat="45.0841556" lon="13.7222801"><ele>123.0</ele><time>2026-04-12T10:01:20.98Z</time></trkpt><trkpt lat="45.0842106" lon="13.7223539"><ele>123.0</ele><time>2026-04-12T10:01:21.982Z</time></trkpt><trkpt lat="45.0842421" lon="13.7224464"><ele>124.0</ele><time>2026-04-12T10:01:22.979Z</time></trkpt><trkpt lat="45.0842966" lon="13.7225823"><ele>125.00000000000001</ele><time>2026-04-12T10:01:24.98Z</time></trkpt><trkpt lat="45.0844216" lon="13.722632"><ele>126.00000000000001</ele><time>2026-04-12T10:01:26.985Z</time></trkpt><trkpt lat="45.0845059" lon="13.7226223"><ele>127.0</ele><time>2026-04-12T10:01:27.982Z</time></trkpt><trkpt lat="45.0845942" lon="13.7226025"><ele>128.0</ele><time>2026-04-12T10:01:28.979Z</time></trkpt><trkpt lat="45.0846833" lon="13.7225845"><ele>127.99999999999999</ele><time>2026-04-12T10:01:29.977Z</time></trkpt><trkpt lat="45.0847739" lon="13.7225804"><ele>128.0</ele><time>2026-04-12T10:01:30.982Z</time></trkpt><trkpt lat="45.0848566" lon="13.7225913"><ele>128.0</ele><time>2026-04-12T10:01:31.979Z</time></trkpt><trkpt lat="45.0849357" lon="13.7226011"><ele>128.0</ele><time>2026-04-12T10:01:32.982Z</time></trkpt><trkpt lat="45.0850138" lon="13.7226125"><ele>127.99999999999999</ele><time>2026-04-12T10:01:33.98Z</time></trkpt><trkpt lat="45.0850905" lon="13.7226256"><ele>128.0</ele><time>2026-04-12T10:01:34.99Z</time></trkpt><trkpt lat="45.0851657" lon="13.722635"><ele>128.66666666666666</ele><time>2026-04-12T10:01:35.982Z</time></trkpt><trkpt lat="45.085253" lon="13.7226463"><ele>129.33333333333331</ele><time>2026-04-12T10:01:36.98Z</time></trkpt><trkpt lat="45.0853277" lon="13.7226745"><ele>130.0</ele><time>2026-04-12T10:01:37.982Z</time></trkpt><trkpt lat="45.0854095" lon="13.7226962"><ele>130.66666666666666</ele><time>2026-04-12T10:01:38.98Z</time></trkpt><trkpt lat="45.0854813" lon="13.7226945"><ele>131.33333333333334</ele><time>2026-04-12T10:01:39.98Z</time></trkpt><trkpt lat="45.0855509" lon="13.7226707"><ele>132.0</ele><time>2026-04-12T10:01:40.978Z</time></trkpt><trkpt lat="45.085623" lon="13.7226212"><ele>132.0</ele><time>2026-04-12T10:01:41.982Z</time></trkpt><trkpt lat="45.0857123" lon="13.7225584"><ele>132.0</ele><time>2026-04-12T10:01:42.983Z</time></trkpt><trkpt lat="45.085814" lon="13.722497"><ele>132.0</ele><time>2026-04-12T10:01:43.982Z</time></trkpt><trkpt lat="45.0859411" lon="13.7224423"><ele>132.0</ele><time>2026-04-12T10:01:44.978Z</time></trkpt><trkpt lat="45.0860601" lon="13.7223786"><ele>132.25</ele><time>2026-04-12T10:01:45.98Z</time></trkpt><trkpt lat="45.0861789" lon="13.7222903"><ele>132.5</ele><time>2026-04-12T10:01:46.994Z</time></trkpt><trkpt lat="45.0862874" lon="13.7221767"><ele>132.75</ele><time>2026-04-12T10:01:47.982Z</time></trkpt><trkpt lat="45.0863995" lon="13.7220501"><ele>133.0</ele><time>2026-04-12T10:01:48.983Z</time></trkpt><trkpt lat="45.0865143" lon="13.7219115"><ele>133.0</ele><time>2026-04-12T10:01:49.985Z</time></trkpt><trkpt lat="45.0866247" lon="13.7217629"><ele>133.0</ele><time>2026-04-12T10:01:50.981Z</time></trkpt><trkpt lat="45.08672" lon="13.7216173"><ele>133.0</ele><time>2026-04-12T10:01:51.989Z</time></trkpt><trkpt lat="45.0868012" lon="13.7214792"><ele>133.0</ele><time>2026-04-12T10:01:52.98Z</time></trkpt><trkpt lat="45.0868747" lon="13.7213449"><ele>133.0</ele><time>2026-04-12T10:01:53.98Z</time></trkpt><trkpt lat="45.0869323" lon="13.7212076"><ele>133.0</ele><time>2026-04-12T10:01:54.982Z</time></trkpt><trkpt lat="45.0869693" lon="13.7210769"><ele>133.0</ele><time>2026-04-12T10:01:55.98Z</time></trkpt><trkpt lat="45.0869838" lon="13.7209369"><ele>133.0</ele><time>2026-04-12T10:01:56.98Z</time></trkpt><trkpt lat="45.0870062" lon="13.7207868"><ele>133.0</ele><time>2026-04-12T10:01:57.982Z</time></trkpt><trkpt lat="45.0870599" lon="13.7206602"><ele>133.20000000000002</ele><time>2026-04-12T10:01:58.982Z</time></trkpt><trkpt lat="45.0871311" lon="13.7205535"><ele>133.4</ele><time>2026-04-12T10:01:59.98Z</time></trkpt><trkpt lat="45.0872154" lon="13.7204709"><ele>133.60000000000002</ele><time>2026-04-12T10:02:00.981Z</time></trkpt><trkpt lat="45.0873153" lon="13.7204057"><ele>133.8</ele><time>2026-04-12T10:02:01.988Z</time></trkpt><trkpt lat="45.0874259" lon="13.7203575"><ele>134.0</ele><time>2026-04-12T10:02:02.981Z</time></trkpt><trkpt lat="45.0875409" lon="13.7203415"><ele>133.5</ele><time>2026-04-12T10:02:03.978Z</time></trkpt><trkpt lat="45.0876685" lon="13.7203515"><ele>133.0</ele><time>2026-04-12T10:02:04.987Z</time></trkpt><trkpt lat="45.0878135" lon="13.7203806"><ele>132.5</ele><time>2026-04-12T10:02:05.992Z</time></trkpt><trkpt lat="45.0879582" lon="13.7203949"><ele>132.0</ele><time>2026-04-12T10:02:06.991Z</time></trkpt><trkpt lat="45.0881048" lon="13.7203997"><ele>132.0</ele><time>2026-04-12T10:02:07.987Z</time></trkpt><trkpt lat="45.0882466" lon="13.7203994"><ele>132.0</ele><time>2026-04-12T10:02:08.983Z</time></trkpt><trkpt lat="45.0883963" lon="13.7203748"><ele>132.0</ele><time>2026-04-12T10:02:09.987Z</time></trkpt><trkpt lat="45.0885249" lon="13.720345"><ele>132.0</ele><time>2026-04-12T10:02:10.981Z</time></trkpt><trkpt lat="45.0886546" lon="13.7203027"><ele>132.75</ele><time>2026-04-12T10:02:11.979Z</time></trkpt><trkpt lat="45.0887708" lon="13.7202618"><ele>133.5</ele><time>2026-04-12T10:02:12.985Z</time></trkpt><trkpt lat="45.0888939" lon="13.7202214"><ele>134.25</ele><time>2026-04-12T10:02:13.981Z</time></trkpt><trkpt lat="45.089013" lon="13.7201755"><ele>135.0</ele><time>2026-04-12T10:02:14.985Z</time></trkpt><trkpt lat="45.0891281" lon="13.7201223"><ele>136.0</ele><time>2026-04-12T10:02:15.981Z</time></trkpt><trkpt lat="45.089238" lon="13.7200445"><ele>137.0</ele><time>2026-04-12T10:02:16.981Z</time></trkpt><trkpt lat="45.0893673" lon="13.7199262"><ele>138.0</ele><time>2026-04-12T10:02:17.982Z</time></trkpt><trkpt lat="45.0894832" lon="13.7198136"><ele>139.0</ele><time>2026-04-12T10:02:18.985Z</time></trkpt><trkpt lat="45.0895936" lon="13.7197021"><ele>139.0</ele><time>2026-04-12T10:02:19.984Z</time></trkpt><trkpt lat="45.0896923" lon="13.7195893"><ele>139.0</ele><time>2026-04-12T10:02:20.988Z</time></trkpt><trkpt lat="45.0897856" lon="13.7194936"><ele>139.0</ele><time>2026-04-12T10:02:21.984Z</time></trkpt><trkpt lat="45.0898902" lon="13.719421"><ele>139.0</ele><time>2026-04-12T10:02:22.982Z</time></trkpt><trkpt lat="45.0900017" lon="13.7193605"><ele>139.5</ele><time>2026-04-12T10:02:23.98Z</time></trkpt><trkpt lat="45.0901172" lon="13.7193171"><ele>140.0</ele><time>2026-04-12T10:02:24.978Z</time></trkpt><trkpt lat="45.0902383" lon="13.7192806"><ele>140.5</ele><time>2026-04-12T10:02:25.985Z</time></trkpt><trkpt lat="45.0903608" lon="13.719265"><ele>141.0</ele><time>2026-04-12T10:02:26.978Z</time></trkpt><trkpt lat="45.0904654" lon="13.7192626"><ele>141.0</ele><time>2026-04-12T10:02:27.984Z</time></trkpt><trkpt lat="45.0905647" lon="13.7192516"><ele>141.0</ele><time>2026-04-12T10:02:28.978Z</time></trkpt><trkpt lat="45.0906416" lon="13.719208"><ele>141.0</ele><time>2026-04-12T10:02:29.98Z</time></trkpt><trkpt lat="45.090726" lon="13.7191427"><ele>141.0</ele><time>2026-04-12T10:02:30.982Z</time></trkpt><trkpt lat="45.0908069" lon="13.7190894"><ele>141.0</ele><time>2026-04-12T10:02:31.979Z</time></trkpt><trkpt lat="45.0908865" lon="13.7190628"><ele>142.25</ele><time>2026-04-12T10:02:32.981Z</time></trkpt><trkpt lat="45.0909877" lon="13.7190385"><ele>143.5</ele><time>2026-04-12T10:02:33.987Z</time></trkpt><trkpt lat="45.0910983" lon="13.7190129"><ele>144.75</ele><time>2026-04-12T10:02:34.981Z</time></trkpt><trkpt lat="45.0912181" lon="13.7189881"><ele>146.0</ele><time>2026-04-12T10:02:35.98Z</time></trkpt><trkpt lat="45.0913502" lon="13.7189764"><ele>146.0</ele><time>2026-04-12T10:02:36.978Z</time></trkpt><trkpt lat="45.0914839" lon="13.7189641"><ele>146.0</ele><time>2026-04-12T10:02:37.98Z</time></trkpt><trkpt lat="45.0916105" lon="13.7189541"><ele>146.0</ele><time>2026-04-12T10:02:38.977Z</time></trkpt><trkpt lat="45.0917258" lon="13.7189264"><ele>146.0</ele><time>2026-04-12T10:02:39.979Z</time></trkpt><trkpt lat="45.0918444" lon="13.7188946"><ele>147.25</ele><time>2026-04-12T10:02:40.982Z</time></trkpt><trkpt lat="45.0919673" lon="13.7188938"><ele>148.5</ele><time>2026-04-12T10:02:41.978Z</time></trkpt><trkpt lat="45.0920832" lon="13.7189004"><ele>149.75</ele><time>2026-04-12T10:02:42.984Z</time></trkpt><trkpt lat="45.092189" lon="13.7188768"><ele>151.0</ele><time>2026-04-12T10:02:43.982Z</time></trkpt><trkpt lat="45.0922996" lon="13.7188472"><ele>152.0</ele><time>2026-04-12T10:02:44.983Z</time></trkpt><trkpt lat="45.0924294" lon="13.7188054"><ele>153.0</ele><time>2026-04-12T10:02:45.981Z</time></trkpt><trkpt lat="45.0925558" lon="13.7187558"><ele>154.0</ele><time>2026-04-12T10:02:46.982Z</time></trkpt><trkpt lat="45.0926714" lon="13.718692"><ele>155.0</ele><time>2026-04-12T10:02:47.981Z</time></trkpt><trkpt lat="45.0927872" lon="13.7186439"><ele>155.0</ele><time>2026-04-12T10:02:48.985Z</time></trkpt><trkpt lat="45.0929116" lon="13.7185969"><ele>155.0</ele><time>2026-04-12T10:02:49.983Z</time></trkpt><trkpt lat="45.0930304" lon="13.7185527"><ele>155.0</ele><time>2026-04-12T10:02:50.984Z</time></trkpt><trkpt lat="45.0931556" lon="13.7185279"><ele>155.0</ele><time>2026-04-12T10:02:51.981Z</time></trkpt><trkpt lat="45.0932708" lon="13.7185429"><ele>156.4</ele><time>2026-04-12T10:02:52.984Z</time></trkpt><trkpt lat="45.0933926" lon="13.7185644"><ele>157.8</ele><time>2026-04-12T10:02:53.976Z</time></trkpt><trkpt lat="45.0934957" lon="13.7185598"><ele>159.2</ele><time>2026-04-12T10:02:54.98Z</time></trkpt><trkpt lat="45.0935878" lon="13.7185337"><ele>160.6</ele><time>2026-04-12T10:02:55.989Z</time></trkpt><trkpt lat="45.0936949" lon="13.7184786"><ele>162.0</ele><time>2026-04-12T10:02:56.984Z</time></trkpt><trkpt lat="45.0938056" lon="13.7184247"><ele>162.0</ele><time>2026-04-12T10:02:57.991Z</time></trkpt><trkpt lat="45.0939256" lon="13.7183526"><ele>162.0</ele><time>2026-04-12T10:02:58.987Z</time></trkpt><trkpt lat="45.0940395" lon="13.7182645"><ele>162.0</ele><time>2026-04-12T10:02:59.986Z</time></trkpt><trkpt lat="45.0941588" lon="13.7181696"><ele>162.0</ele><time>2026-04-12T10:03:00.983Z</time></trkpt><trkpt lat="45.0942562" lon="13.7180526"><ele>163.25</ele><time>2026-04-12T10:03:01.981Z</time></trkpt><trkpt lat="45.0943456" lon="13.7179144"><ele>164.5</ele><time>2026-04-12T10:03:02.979Z</time></trkpt><trkpt lat="45.0944413" lon="13.7177864"><ele>165.75</ele><time>2026-04-12T10:03:03.98Z</time></trkpt><trkpt lat="45.0945556" lon="13.7176876"><ele>167.0</ele><time>2026-04-12T10:03:04.984Z</time></trkpt><trkpt lat="45.0946759" lon="13.7175909"><ele>167.5</ele><time>2026-04-12T10:03:05.981Z</time></trkpt><trkpt lat="45.0947872" lon="13.7174967"><ele>168.0</ele><time>2026-04-12T10:03:06.983Z</time></trkpt><trkpt lat="45.094903" lon="13.7174347"><ele>168.5</ele><time>2026-04-12T10:03:07.98Z</time></trkpt><trkpt lat="45.0950186" lon="13.7173985"><ele>169.0</ele><time>2026-04-12T10:03:08.98Z</time></trkpt><trkpt lat="45.0951454" lon="13.7173661"><ele>169.75</ele><time>2026-04-12T10:03:09.985Z</time></trkpt><trkpt lat="45.0952819" lon="13.7173178"><ele>170.5</ele><time>2026-04-12T10:03:10.987Z</time></trkpt><trkpt lat="45.0954181" lon="13.7172876"><ele>171.25</ele><time>2026-04-12T10:03:11.982Z</time></trkpt><trkpt lat="45.0955415" lon="13.717284"><ele>172.0</ele><time>2026-04-12T10:03:12.982Z</time></trkpt><trkpt lat="45.0956673" lon="13.7172963"><ele>172.75</ele><time>2026-04-12T10:03:13.98Z</time></trkpt><trkpt lat="45.0958012" lon="13.717357"><ele>173.5</ele><time>2026-04-12T10:03:14.982Z</time></trkpt><trkpt lat="45.0959405" lon="13.7174355"><ele>174.25</ele><time>2026-04-12T10:03:15.983Z</time></trkpt><trkpt lat="45.0960813" lon="13.7175205"><ele>175.0</ele><time>2026-04-12T10:03:16.983Z</time></trkpt><trkpt lat="45.0962097" lon="13.7175864"><ele>175.0</ele><time>2026-04-12T10:03:17.976Z</time></trkpt><trkpt lat="45.0963312" lon="13.7176269"><ele>175.0</ele><time>2026-04-12T10:03:18.986Z</time></trkpt><trkpt lat="45.0964633" lon="13.7176655"><ele>175.0</ele><time>2026-04-12T10:03:19.98Z</time></trkpt><trkpt lat="45.0965951" lon="13.7177029"><ele>175.0</ele><time>2026-04-12T10:03:20.979Z</time></trkpt><trkpt lat="45.0967133" lon="13.7177413"><ele>175.0</ele><time>2026-04-12T10:03:21.985Z</time></trkpt><trkpt lat="45.0968194" lon="13.7177641"><ele>175.0</ele><time>2026-04-12T10:03:22.982Z</time></trkpt><trkpt lat="45.0969471" lon="13.7177477"><ele>175.0</ele><time>2026-04-12T10:03:23.98Z</time></trkpt><trkpt lat="45.0970815" lon="13.7177082"><ele>175.0</ele><time>2026-04-12T10:03:24.979Z</time></trkpt><trkpt lat="45.0972375" lon="13.7176592"><ele>175.0</ele><time>2026-04-12T10:03:25.985Z</time></trkpt><trkpt lat="45.0973927" lon="13.717609"><ele>175.0</ele><time>2026-04-12T10:03:26.984Z</time></trkpt><trkpt lat="45.0975482" lon="13.7175451"><ele>175.0</ele><time>2026-04-12T10:03:27.99Z</time></trkpt><trkpt lat="45.0976935" lon="13.71749"><ele>175.4</ele><time>2026-04-12T10:03:28.979Z</time></trkpt><trkpt lat="45.097808" lon="13.7174482"><ele>175.8</ele><time>2026-04-12T10:03:29.984Z</time></trkpt><trkpt lat="45.0979053" lon="13.7174347"><ele>176.2</ele><time>2026-04-12T10:03:30.981Z</time></trkpt><trkpt lat="45.0979958" lon="13.7174391"><ele>176.6</ele><time>2026-04-12T10:03:31.982Z</time></trkpt><trkpt lat="45.0980891" lon="13.7174801"><ele>177.0</ele><time>2026-04-12T10:03:32.987Z</time></trkpt><trkpt lat="45.098187" lon="13.7175478"><ele>176.75</ele><time>2026-04-12T10:03:33.982Z</time></trkpt><trkpt lat="45.0982903" lon="13.7176462"><ele>176.5</ele><time>2026-04-12T10:03:34.979Z</time></trkpt><trkpt lat="45.0984029" lon="13.7177572"><ele>176.25</ele><time>2026-04-12T10:03:35.978Z</time></trkpt><trkpt lat="45.0985277" lon="13.7178685"><ele>176.0</ele><time>2026-04-12T10:03:36.983Z</time></trkpt><trkpt lat="45.0986536" lon="13.7179717"><ele>177.75</ele><time>2026-04-12T10:03:37.979Z</time></trkpt><trkpt lat="45.0987808" lon="13.7180578"><ele>179.5</ele><time>2026-04-12T10:03:38.979Z</time></trkpt><trkpt lat="45.0989146" lon="13.7181303"><ele>181.25</ele><time>2026-04-12T10:03:39.978Z</time></trkpt><trkpt lat="45.0990488" lon="13.7181876"><ele>183.0</ele><time>2026-04-12T10:03:40.981Z</time></trkpt><trkpt lat="45.0991902" lon="13.7182276"><ele>183.0</ele><time>2026-04-12T10:03:41.98Z</time></trkpt><trkpt lat="45.0993405" lon="13.7182467"><ele>183.0</ele><time>2026-04-12T10:03:42.977Z</time></trkpt><trkpt lat="45.0994935" lon="13.7182486"><ele>183.0</ele><time>2026-04-12T10:03:43.978Z</time></trkpt><trkpt lat="45.0996482" lon="13.7182381"><ele>183.0</ele><time>2026-04-12T10:03:44.978Z</time></trkpt><trkpt lat="45.0997945" lon="13.7182096"><ele>183.0</ele><time>2026-04-12T10:03:45.994Z</time></trkpt><trkpt lat="45.099949" lon="13.7181882"><ele>183.0</ele><time>2026-04-12T10:03:46.986Z</time></trkpt><trkpt lat="45.1000972" lon="13.7181757"><ele>182.5</ele><time>2026-04-12T10:03:47.98Z</time></trkpt><trkpt lat="45.100249" lon="13.7181631"><ele>182.0</ele><time>2026-04-12T10:03:48.976Z</time></trkpt><trkpt lat="45.1003986" lon="13.7181463"><ele>181.5</ele><time>2026-04-12T10:03:49.981Z</time></trkpt><trkpt lat="45.1005415" lon="13.7181272"><ele>181.0</ele><time>2026-04-12T10:03:50.981Z</time></trkpt><trkpt lat="45.100693" lon="13.7181177"><ele>181.0</ele><time>2026-04-12T10:03:51.983Z</time></trkpt><trkpt lat="45.100832" lon="13.7181347"><ele>181.0</ele><time>2026-04-12T10:03:52.984Z</time></trkpt><trkpt lat="45.1009583" lon="13.7181607"><ele>181.0</ele><time>2026-04-12T10:03:53.983Z</time></trkpt><trkpt lat="45.1010723" lon="13.7181705"><ele>181.0</ele><time>2026-04-12T10:03:54.978Z</time></trkpt><trkpt lat="45.1011644" lon="13.7181537"><ele>181.0</ele><time>2026-04-12T10:03:55.989Z</time></trkpt><trkpt lat="45.1012463" lon="13.7181019"><ele>181.0</ele><time>2026-04-12T10:03:56.996Z</time></trkpt><trkpt lat="45.1013319" lon="13.7180051"><ele>181.0</ele><time>2026-04-12T10:03:57.986Z</time></trkpt><trkpt lat="45.1014364" lon="13.717887"><ele>181.0</ele><time>2026-04-12T10:03:58.981Z</time></trkpt><trkpt lat="45.1015556" lon="13.7177873"><ele>180.25</ele><time>2026-04-12T10:03:59.977Z</time></trkpt><trkpt lat="45.1016868" lon="13.7176848"><ele>179.5</ele><time>2026-04-12T10:04:00.979Z</time></trkpt><trkpt lat="45.1018112" lon="13.7175973"><ele>178.75</ele><time>2026-04-12T10:04:01.986Z</time></trkpt><trkpt lat="45.1019252" lon="13.7175354"><ele>178.0</ele><time>2026-04-12T10:04:02.979Z</time></trkpt><trkpt lat="45.1020223" lon="13.7174988"><ele>178.0</ele><time>2026-04-12T10:04:03.976Z</time></trkpt><trkpt lat="45.1021089" lon="13.7175034"><ele>178.0</ele><time>2026-04-12T10:04:04.99Z</time></trkpt><trkpt lat="45.1021997" lon="13.7175247"><ele>178.0</ele><time>2026-04-12T10:04:05.989Z</time></trkpt><trkpt lat="45.1023014" lon="13.7176056"><ele>178.0</ele><time>2026-04-12T10:04:06.98Z</time></trkpt><trkpt lat="45.1024051" lon="13.7176895"><ele>178.0</ele><time>2026-04-12T10:04:07.987Z</time></trkpt><trkpt lat="45.1025032" lon="13.7177762"><ele>177.83333333333334</ele><time>2026-04-12T10:04:08.982Z</time></trkpt><trkpt lat="45.1025528" lon="13.7178546"><ele>177.66666666666669</ele><time>2026-04-12T10:04:09.986Z</time></trkpt><trkpt lat="45.1026198" lon="13.7179625"><ele>177.5</ele><time>2026-04-12T10:04:11.984Z</time></trkpt><trkpt lat="45.1026825" lon="13.7179886"><ele>177.33333333333334</ele><time>2026-04-12T10:04:53.979Z</time></trkpt><trkpt lat="45.1027557" lon="13.7179145"><ele>177.16666666666666</ele><time>2026-04-12T10:04:56.987Z</time></trkpt><trkpt lat="45.1028616" lon="13.7178607"><ele>177.0</ele><time>2026-04-12T10:04:59.987Z</time></trkpt><trkpt lat="45.1029605" lon="13.7178495"><ele>177.0</ele><time>2026-04-12T10:05:00.978Z</time></trkpt><trkpt lat="45.103111" lon="13.7178757"><ele>177.0</ele><time>2026-04-12T10:05:01.98Z</time></trkpt><trkpt lat="45.103226" lon="13.7178679"><ele>177.0</ele><time>2026-04-12T10:05:02.979Z</time></trkpt><trkpt lat="45.1032993" lon="13.7178673"><ele>177.0</ele><time>2026-04-12T10:05:03.975Z</time></trkpt><trkpt lat="45.1033807" lon="13.7178613"><ele>177.0</ele><time>2026-04-12T10:05:04.976Z</time></trkpt><trkpt lat="45.1034689" lon="13.7178496"><ele>175.0</ele><time>2026-04-12T10:05:05.983Z</time></trkpt><trkpt lat="45.1035584" lon="13.7178359"><ele>173.0</ele><time>2026-04-12T10:05:06.981Z</time></trkpt><trkpt lat="45.1036538" lon="13.717833"><ele>171.0</ele><time>2026-04-12T10:05:07.978Z</time></trkpt><trkpt lat="45.1037507" lon="13.7178352"><ele>169.0</ele><time>2026-04-12T10:05:08.979Z</time></trkpt><trkpt lat="45.1038448" lon="13.717843"><ele>167.0</ele><time>2026-04-12T10:05:09.976Z</time></trkpt><trkpt lat="45.1039375" lon="13.717851"><ele>167.0</ele><time>2026-04-12T10:05:10.979Z</time></trkpt><trkpt lat="45.1040283" lon="13.7178688"><ele>167.0</ele><time>2026-04-12T10:05:11.985Z</time></trkpt><trkpt lat="45.1041238" lon="13.7178861"><ele>167.0</ele><time>2026-04-12T10:05:12.98Z</time></trkpt><trkpt lat="45.1042206" lon="13.7179101"><ele>167.0</ele><time>2026-04-12T10:05:13.98Z</time></trkpt><trkpt lat="45.1043156" lon="13.7179366"><ele>167.0</ele><time>2026-04-12T10:05:14.986Z</time></trkpt><trkpt lat="45.1044033" lon="13.7179634"><ele>166.0</ele><time>2026-04-12T10:05:15.976Z</time></trkpt><trkpt lat="45.10449" lon="13.71797"><ele>165.0</ele><time>2026-04-12T10:05:16.983Z</time></trkpt><trkpt lat="45.1045705" lon="13.7179482"><ele>164.0</ele><time>2026-04-12T10:05:17.98Z</time></trkpt><trkpt lat="45.1046535" lon="13.7178903"><ele>163.0</ele><time>2026-04-12T10:05:18.979Z</time></trkpt><trkpt lat="45.1047366" lon="13.7178174"><ele>162.0</ele><time>2026-04-12T10:05:19.975Z</time></trkpt><trkpt lat="45.1048106" lon="13.7177365"><ele>162.2</ele><time>2026-04-12T10:05:20.976Z</time></trkpt><trkpt lat="45.1048796" lon="13.7176479"><ele>162.39999999999998</ele><time>2026-04-12T10:05:21.982Z</time></trkpt><trkpt lat="45.1049447" lon="13.7175508"><ele>162.60000000000002</ele><time>2026-04-12T10:05:22.982Z</time></trkpt><trkpt lat="45.1050068" lon="13.7174567"><ele>162.8</ele><time>2026-04-12T10:05:23.981Z</time></trkpt><trkpt lat="45.1050724" lon="13.7173618"><ele>163.0</ele><time>2026-04-12T10:05:24.99Z</time></trkpt><trkpt lat="45.1051413" lon="13.7172836"><ele>162.16666666666669</ele><time>2026-04-12T10:05:25.979Z</time></trkpt><trkpt lat="45.10521" lon="13.7172095"><ele>161.33333333333334</ele><time>2026-04-12T10:05:26.979Z</time></trkpt><trkpt lat="45.105275" lon="13.7171341"><ele>160.5</ele><time>2026-04-12T10:05:27.99Z</time></trkpt><trkpt lat="45.105331" lon="13.7170673"><ele>159.66666666666666</ele><time>2026-04-12T10:05:28.976Z</time></trkpt><trkpt lat="45.1053918" lon="13.7170106"><ele>158.83333333333331</ele><time>2026-04-12T10:05:29.979Z</time></trkpt><trkpt lat="45.1055104" lon="13.7169851"><ele>158.0</ele><time>2026-04-12T10:05:31.979Z</time></trkpt><trkpt lat="45.1056264" lon="13.7169928"><ele>158.00000000000003</ele><time>2026-04-12T10:05:33.988Z</time></trkpt><trkpt lat="45.1056871" lon="13.7170211"><ele>158.0</ele><time>2026-04-12T10:05:34.978Z</time></trkpt><trkpt lat="45.1057459" lon="13.7170641"><ele>158.0</ele><time>2026-04-12T10:05:35.977Z</time></trkpt><trkpt lat="45.1058082" lon="13.7171144"><ele>158.0</ele><time>2026-04-12T10:05:36.979Z</time></trkpt><trkpt lat="45.1058715" lon="13.717169"><ele>158.0</ele><time>2026-04-12T10:05:37.98Z</time></trkpt><trkpt lat="45.1059272" lon="13.7172126"><ele>158.00000000000003</ele><time>2026-04-12T10:05:38.98Z</time></trkpt><trkpt lat="45.1060044" lon="13.7172776"><ele>158.0</ele><time>2026-04-12T10:05:40.985Z</time></trkpt><trkpt lat="45.1060599" lon="13.7173348"><ele>157.20000000000002</ele><time>2026-04-12T10:05:47.984Z</time></trkpt><trkpt lat="45.1061494" lon="13.7173395"><ele>156.4</ele><time>2026-04-12T10:05:49.991Z</time></trkpt><trkpt lat="45.1062583" lon="13.7172541"><ele>155.60000000000002</ele><time>2026-04-12T10:05:51.991Z</time></trkpt><trkpt lat="45.1063326" lon="13.7172031"><ele>154.8</ele><time>2026-04-12T10:05:52.977Z</time></trkpt><trkpt lat="45.1064175" lon="13.7171578"><ele>154.0</ele><time>2026-04-12T10:05:53.978Z</time></trkpt><trkpt lat="45.1064967" lon="13.7171194"><ele>152.8</ele><time>2026-04-12T10:05:54.977Z</time></trkpt><trkpt lat="45.1065788" lon="13.7170726"><ele>151.60000000000002</ele><time>2026-04-12T10:05:55.978Z</time></trkpt><trkpt lat="45.1066546" lon="13.7169984"><ele>150.4</ele><time>2026-04-12T10:05:56.983Z</time></trkpt><trkpt lat="45.1067183" lon="13.7169108"><ele>149.20000000000002</ele><time>2026-04-12T10:05:57.985Z</time></trkpt><trkpt lat="45.1067831" lon="13.7168039"><ele>148.0</ele><time>2026-04-12T10:05:58.982Z</time></trkpt><trkpt lat="45.1068431" lon="13.7166926"><ele>148.0</ele><time>2026-04-12T10:05:59.978Z</time></trkpt><trkpt lat="45.1068969" lon="13.7165758"><ele>148.0</ele><time>2026-04-12T10:06:00.979Z</time></trkpt><trkpt lat="45.1069447" lon="13.7164582"><ele>148.0</ele><time>2026-04-12T10:06:01.985Z</time></trkpt><trkpt lat="45.1069982" lon="13.7163346"><ele>148.0</ele><time>2026-04-12T10:06:02.984Z</time></trkpt><trkpt lat="45.1070446" lon="13.7162033"><ele>148.0</ele><time>2026-04-12T10:06:03.983Z</time></trkpt><trkpt lat="45.1070931" lon="13.7160664"><ele>148.4</ele><time>2026-04-12T10:06:04.983Z</time></trkpt><trkpt lat="45.1071493" lon="13.7159385"><ele>148.8</ele><time>2026-04-12T10:06:05.981Z</time></trkpt><trkpt lat="45.1072133" lon="13.7158327"><ele>149.2</ele><time>2026-04-12T10:06:06.982Z</time></trkpt><trkpt lat="45.1072942" lon="13.7157422"><ele>149.6</ele><time>2026-04-12T10:06:07.98Z</time></trkpt><trkpt lat="45.1073791" lon="13.7156659"><ele>150.0</ele><time>2026-04-12T10:06:08.981Z</time></trkpt><trkpt lat="45.1074578" lon="13.7155959"><ele>148.66666666666666</ele><time>2026-04-12T10:06:09.984Z</time></trkpt><trkpt lat="45.1075227" lon="13.7155412"><ele>147.33333333333334</ele><time>2026-04-12T10:06:10.985Z</time></trkpt><trkpt lat="45.1075834" lon="13.7155094"><ele>146.0</ele><time>2026-04-12T10:06:11.983Z</time></trkpt><trkpt lat="45.1076926" lon="13.715555"><ele>144.66666666666669</ele><time>2026-04-12T10:06:13.985Z</time></trkpt><trkpt lat="45.1077665" lon="13.7156463"><ele>143.33333333333334</ele><time>2026-04-12T10:06:15.98Z</time></trkpt><trkpt lat="45.1078585" lon="13.7156364"><ele>142.0</ele><time>2026-04-12T10:06:22.98Z</time></trkpt><trkpt lat="45.1079289" lon="13.7155059"><ele>142.0</ele><time>2026-04-12T10:06:24.983Z</time></trkpt><trkpt lat="45.107966" lon="13.7154099"><ele>142.0</ele><time>2026-04-12T10:06:25.981Z</time></trkpt><trkpt lat="45.1080103" lon="13.7152999"><ele>142.0</ele><time>2026-04-12T10:06:26.98Z</time></trkpt><trkpt lat="45.1080554" lon="13.7151953"><ele>142.0</ele><time>2026-04-12T10:06:27.99Z</time></trkpt><trkpt lat="45.1080964" lon="13.7151105"><ele>142.0</ele><time>2026-04-12T10:06:28.979Z</time></trkpt><trkpt lat="45.1081448" lon="13.7149982"><ele>142.0</ele><time>2026-04-12T10:06:30.982Z</time></trkpt><trkpt lat="45.1081731" lon="13.7148677"><ele>141.71428571428572</ele><time>2026-04-12T10:06:32.985Z</time></trkpt><trkpt lat="45.1081916" lon="13.7147665"><ele>141.42857142857142</ele><time>2026-04-12T10:06:33.985Z</time></trkpt><trkpt lat="45.108216" lon="13.714682"><ele>141.14285714285714</ele><time>2026-04-12T10:06:34.981Z</time></trkpt><trkpt lat="45.1082585" lon="13.7145882"><ele>140.85714285714286</ele><time>2026-04-12T10:06:36.989Z</time></trkpt><trkpt lat="45.1082464" lon="13.7145002"><ele>140.57142857142856</ele><time>2026-04-12T10:06:39.981Z</time></trkpt><trkpt lat="45.1081964" lon="13.7146061"><ele>140.28571428571428</ele><time>2026-04-12T10:06:42.992Z</time></trkpt><trkpt lat="45.1081846" lon="13.7147106"><ele>140.0</ele><time>2026-04-12T10:06:43.992Z</time></trkpt><trkpt lat="45.1081644" lon="13.7148191"><ele>140.4</ele><time>2026-04-12T10:06:44.992Z</time></trkpt><trkpt lat="45.1081284" lon="13.7149414"><ele>140.8</ele><time>2026-04-12T10:06:45.985Z</time></trkpt><trkpt lat="45.1080829" lon="13.715078"><ele>141.2</ele><time>2026-04-12T10:06:46.985Z</time></trkpt><trkpt lat="45.1080316" lon="13.7152045"><ele>141.6</ele><time>2026-04-12T10:06:47.979Z</time></trkpt><trkpt lat="45.1079756" lon="13.7153197"><ele>142.0</ele><time>2026-04-12T10:06:48.982Z</time></trkpt><trkpt lat="45.1079224" lon="13.7154388"><ele>142.0</ele><time>2026-04-12T10:06:49.981Z</time></trkpt><trkpt lat="45.1078807" lon="13.7155488"><ele>142.0</ele><time>2026-04-12T10:06:50.982Z</time></trkpt><trkpt lat="45.1078436" lon="13.7156541"><ele>142.0</ele><time>2026-04-12T10:06:51.979Z</time></trkpt><trkpt lat="45.1078141" lon="13.7157538"><ele>142.0</ele><time>2026-04-12T10:06:52.982Z</time></trkpt><trkpt lat="45.1077919" lon="13.7158439"><ele>142.0</ele><time>2026-04-12T10:06:53.98Z</time></trkpt><trkpt lat="45.1078178" lon="13.7160046"><ele>142.0</ele><time>2026-04-12T10:06:55.988Z</time></trkpt><trkpt lat="45.1078722" lon="13.7160584"><ele>141.83333333333334</ele><time>2026-04-12T10:06:56.978Z</time></trkpt><trkpt lat="45.1079404" lon="13.7160969"><ele>141.66666666666669</ele><time>2026-04-12T10:06:57.986Z</time></trkpt><trkpt lat="45.1080207" lon="13.716135"><ele>141.5</ele><time>2026-04-12T10:06:58.98Z</time></trkpt><trkpt lat="45.1081095" lon="13.7161623"><ele>141.33333333333334</ele><time>2026-04-12T10:06:59.979Z</time></trkpt><trkpt lat="45.1082037" lon="13.7161692"><ele>141.16666666666666</ele><time>2026-04-12T10:07:00.985Z</time></trkpt><trkpt lat="45.1083029" lon="13.7161586"><ele>141.0</ele><time>2026-04-12T10:07:01.991Z</time></trkpt><trkpt lat="45.1084039" lon="13.7161615"><ele>140.2</ele><time>2026-04-12T10:07:02.986Z</time></trkpt><trkpt lat="45.108507" lon="13.7161839"><ele>139.39999999999998</ele><time>2026-04-12T10:07:03.977Z</time></trkpt><trkpt lat="45.1086074" lon="13.7162127"><ele>138.6</ele><time>2026-04-12T10:07:04.979Z</time></trkpt><trkpt lat="45.1087057" lon="13.7162352"><ele>137.79999999999998</ele><time>2026-04-12T10:07:05.981Z</time></trkpt><trkpt lat="45.1088054" lon="13.7162471"><ele>137.0</ele><time>2026-04-12T10:07:06.978Z</time></trkpt><trkpt lat="45.1089052" lon="13.7162383"><ele>137.0</ele><time>2026-04-12T10:07:07.982Z</time></trkpt><trkpt lat="45.1090049" lon="13.7162078"><ele>137.0</ele><time>2026-04-12T10:07:08.985Z</time></trkpt><trkpt lat="45.1090999" lon="13.7161686"><ele>137.0</ele><time>2026-04-12T10:07:09.986Z</time></trkpt><trkpt lat="45.1092031" lon="13.7161078"><ele>137.0</ele><time>2026-04-12T10:07:10.983Z</time></trkpt><trkpt lat="45.1093009" lon="13.7160198"><ele>137.0</ele><time>2026-04-12T10:07:11.982Z</time></trkpt><trkpt lat="45.1093979" lon="13.7159146"><ele>137.0</ele><time>2026-04-12T10:07:12.977Z</time></trkpt><trkpt lat="45.1094941" lon="13.7158022"><ele>137.0</ele><time>2026-04-12T10:07:13.976Z</time></trkpt><trkpt lat="45.109593" lon="13.7156973"><ele>137.0</ele><time>2026-04-12T10:07:14.98Z</time></trkpt><trkpt lat="45.109702" lon="13.7156117"><ele>137.0</ele><time>2026-04-12T10:07:15.978Z</time></trkpt><trkpt lat="45.1098173" lon="13.7155426"><ele>136.0</ele><time>2026-04-12T10:07:16.983Z</time></trkpt><trkpt lat="45.1099329" lon="13.7154855"><ele>135.0</ele><time>2026-04-12T10:07:17.982Z</time></trkpt><trkpt lat="45.1100427" lon="13.7154392"><ele>134.0</ele><time>2026-04-12T10:07:18.978Z</time></trkpt><trkpt lat="45.1101256" lon="13.7154023"><ele>133.0</ele><time>2026-04-12T10:07:19.978Z</time></trkpt><trkpt lat="45.1102129" lon="13.7153792"><ele>132.0</ele><time>2026-04-12T10:07:21.979Z</time></trkpt><trkpt lat="45.1102357" lon="13.7154721"><ele>132.0</ele><time>2026-04-12T10:07:27.98Z</time></trkpt><trkpt lat="45.1101935" lon="13.7156115"><ele>132.0</ele><time>2026-04-12T10:07:29.978Z</time></trkpt><trkpt lat="45.1101519" lon="13.7156885"><ele>132.0</ele><time>2026-04-12T10:07:30.993Z</time></trkpt><trkpt lat="45.1101065" lon="13.715785"><ele>132.0</ele><time>2026-04-12T10:07:31.987Z</time></trkpt><trkpt lat="45.1100692" lon="13.7158988"><ele>132.0</ele><time>2026-04-12T10:07:32.978Z</time></trkpt><trkpt lat="45.1100505" lon="13.7160225"><ele>132.0</ele><time>2026-04-12T10:07:33.991Z</time></trkpt><trkpt lat="45.1100577" lon="13.7161612"><ele>131.79999999999998</ele><time>2026-04-12T10:07:34.983Z</time></trkpt><trkpt lat="45.1100722" lon="13.7163118"><ele>131.6</ele><time>2026-04-12T10:07:35.981Z</time></trkpt><trkpt lat="45.1100861" lon="13.7164635"><ele>131.39999999999998</ele><time>2026-04-12T10:07:36.985Z</time></trkpt><trkpt lat="45.1100986" lon="13.7166235"><ele>131.2</ele><time>2026-04-12T10:07:37.981Z</time></trkpt><trkpt lat="45.1101071" lon="13.7167924"><ele>131.0</ele><time>2026-04-12T10:07:38.982Z</time></trkpt><trkpt lat="45.1101113" lon="13.7169644"><ele>130.5</ele><time>2026-04-12T10:07:39.98Z</time></trkpt><trkpt lat="45.1101108" lon="13.7171394"><ele>130.0</ele><time>2026-04-12T10:07:40.982Z</time></trkpt><trkpt lat="45.1101104" lon="13.7173144"><ele>129.5</ele><time>2026-04-12T10:07:41.983Z</time></trkpt><trkpt lat="45.1101122" lon="13.71749"><ele>129.0</ele><time>2026-04-12T10:07:42.982Z</time></trkpt><trkpt lat="45.1101136" lon="13.717666"><ele>128.6</ele><time>2026-04-12T10:07:43.984Z</time></trkpt><trkpt lat="45.1101136" lon="13.7178283"><ele>128.2</ele><time>2026-04-12T10:07:44.979Z</time></trkpt><trkpt lat="45.110124" lon="13.7179769"><ele>127.79999999999998</ele><time>2026-04-12T10:07:45.985Z</time></trkpt><trkpt lat="45.1101604" lon="13.7181017"><ele>127.39999999999999</ele><time>2026-04-12T10:07:46.983Z</time></trkpt><trkpt lat="45.110214" lon="13.7182081"><ele>127.0</ele><time>2026-04-12T10:07:47.978Z</time></trkpt><trkpt lat="45.1102807" lon="13.7182888"><ele>127.0</ele><time>2026-04-12T10:07:48.984Z</time></trkpt><trkpt lat="45.1103529" lon="13.7183713"><ele>126.99999999999999</ele><time>2026-04-12T10:07:49.98Z</time></trkpt><trkpt lat="45.1104132" lon="13.7184794"><ele>126.99999999999999</ele><time>2026-04-12T10:07:50.981Z</time></trkpt><trkpt lat="45.1104662" lon="13.7185964"><ele>127.0</ele><time>2026-04-12T10:07:51.978Z</time></trkpt><trkpt lat="45.1105159" lon="13.7187075"><ele>127.0</ele><time>2026-04-12T10:07:52.99Z</time></trkpt><trkpt lat="45.1105584" lon="13.7188089"><ele>127.33333333333334</ele><time>2026-04-12T10:07:53.984Z</time></trkpt><trkpt lat="45.1105916" lon="13.7188924"><ele>127.66666666666667</ele><time>2026-04-12T10:07:54.979Z</time></trkpt><trkpt lat="45.1106141" lon="13.7190517"><ele>128.0</ele><time>2026-04-12T10:07:56.983Z</time></trkpt><trkpt lat="45.1106336" lon="13.7192262"><ele>128.33333333333334</ele><time>2026-04-12T10:07:58.979Z</time></trkpt><trkpt lat="45.1106532" lon="13.7193134"><ele>128.66666666666666</ele><time>2026-04-12T10:07:59.979Z</time></trkpt><trkpt lat="45.1106848" lon="13.7193956"><ele>129.0</ele><time>2026-04-12T10:08:00.98Z</time></trkpt><trkpt lat="45.1107165" lon="13.7194767"><ele>128.66666666666666</ele><time>2026-04-12T10:08:01.984Z</time></trkpt><trkpt lat="45.1107414" lon="13.7195735"><ele>128.33333333333334</ele><time>2026-04-12T10:08:02.978Z</time></trkpt><trkpt lat="45.1107575" lon="13.7196813"><ele>128.0</ele><time>2026-04-12T10:08:03.98Z</time></trkpt><trkpt lat="45.1107695" lon="13.7197998"><ele>127.66666666666667</ele><time>2026-04-12T10:08:04.981Z</time></trkpt><trkpt lat="45.1107884" lon="13.7199176"><ele>127.33333333333334</ele><time>2026-04-12T10:08:05.98Z</time></trkpt><trkpt lat="45.1108094" lon="13.7200333"><ele>127.0</ele><time>2026-04-12T10:08:06.984Z</time></trkpt><trkpt lat="45.1108341" lon="13.7201523"><ele>127.19999999999999</ele><time>2026-04-12T10:08:07.98Z</time></trkpt><trkpt lat="45.1108682" lon="13.7202923"><ele>127.39999999999999</ele><time>2026-04-12T10:08:08.98Z</time></trkpt><trkpt lat="45.1109076" lon="13.720431"><ele>127.60000000000001</ele><time>2026-04-12T10:08:09.982Z</time></trkpt><trkpt lat="45.110948" lon="13.7205751"><ele>127.80000000000001</ele><time>2026-04-12T10:08:10.981Z</time></trkpt><trkpt lat="45.1109839" lon="13.7207285"><ele>128.0</ele><time>2026-04-12T10:08:11.979Z</time></trkpt><trkpt lat="45.1110188" lon="13.7208864"><ele>128.0</ele><time>2026-04-12T10:08:12.98Z</time></trkpt><trkpt lat="45.1110492" lon="13.7210617"><ele>128.0</ele><time>2026-04-12T10:08:13.978Z</time></trkpt><trkpt lat="45.1110791" lon="13.7212482"><ele>128.0</ele><time>2026-04-12T10:08:14.985Z</time></trkpt><trkpt lat="45.1111079" lon="13.7214343"><ele>128.0</ele><time>2026-04-12T10:08:15.979Z</time></trkpt><trkpt lat="45.1111377" lon="13.7216044"><ele>128.0</ele><time>2026-04-12T10:08:16.985Z</time></trkpt><trkpt lat="45.111177" lon="13.7217665"><ele>128.0</ele><time>2026-04-12T10:08:17.979Z</time></trkpt><trkpt lat="45.1112225" lon="13.7219245"><ele>128.0</ele><time>2026-04-12T10:08:18.984Z</time></trkpt><trkpt lat="45.1112763" lon="13.7220794"><ele>128.0</ele><time>2026-04-12T10:08:19.979Z</time></trkpt><trkpt lat="45.1113454" lon="13.7222314"><ele>128.0</ele><time>2026-04-12T10:08:20.979Z</time></trkpt><trkpt lat="45.1114109" lon="13.7223883"><ele>128.0</ele><time>2026-04-12T10:08:21.982Z</time></trkpt><trkpt lat="45.1114751" lon="13.7225483"><ele>128.0</ele><time>2026-04-12T10:08:22.978Z</time></trkpt><trkpt lat="45.1115442" lon="13.7227054"><ele>128.0</ele><time>2026-04-12T10:08:23.983Z</time></trkpt><trkpt lat="45.1116193" lon="13.7228707"><ele>128.0</ele><time>2026-04-12T10:08:24.976Z</time></trkpt><trkpt lat="45.1116959" lon="13.7230582"><ele>128.0</ele><time>2026-04-12T10:08:25.979Z</time></trkpt><trkpt lat="45.1117674" lon="13.723254"><ele>128.0</ele><time>2026-04-12T10:08:26.981Z</time></trkpt><trkpt lat="45.1118356" lon="13.7234476"><ele>128.75</ele><time>2026-04-12T10:08:27.982Z</time></trkpt><trkpt lat="45.1118956" lon="13.7236372"><ele>129.5</ele><time>2026-04-12T10:08:28.984Z</time></trkpt><trkpt lat="45.1119454" lon="13.7238245"><ele>130.25</ele><time>2026-04-12T10:08:29.979Z</time></trkpt><trkpt lat="45.1120083" lon="13.7240015"><ele>131.0</ele><time>2026-04-12T10:08:30.982Z</time></trkpt><trkpt lat="45.1120852" lon="13.7241676"><ele>131.0</ele><time>2026-04-12T10:08:31.983Z</time></trkpt><trkpt lat="45.1121685" lon="13.7243367"><ele>131.0</ele><time>2026-04-12T10:08:32.98Z</time></trkpt><trkpt lat="45.1122477" lon="13.7245014"><ele>131.0</ele><time>2026-04-12T10:08:33.987Z</time></trkpt><trkpt lat="45.1123282" lon="13.7246639"><ele>131.0</ele><time>2026-04-12T10:08:34.985Z</time></trkpt><trkpt lat="45.1124081" lon="13.7248244"><ele>131.0</ele><time>2026-04-12T10:08:35.981Z</time></trkpt><trkpt lat="45.1124873" lon="13.7249652"><ele>131.0</ele><time>2026-04-12T10:08:36.981Z</time></trkpt><trkpt lat="45.1125709" lon="13.725085"><ele>131.0</ele><time>2026-04-12T10:08:37.979Z</time></trkpt><trkpt lat="45.1126632" lon="13.7251833"><ele>131.0</ele><time>2026-04-12T10:08:38.979Z</time></trkpt><trkpt lat="45.1127547" lon="13.7252672"><ele>131.8</ele><time>2026-04-12T10:08:39.979Z</time></trkpt><trkpt lat="45.1128424" lon="13.7253358"><ele>132.6</ele><time>2026-04-12T10:08:40.979Z</time></trkpt><trkpt lat="45.1129307" lon="13.7254002"><ele>133.4</ele><time>2026-04-12T10:08:41.978Z</time></trkpt><trkpt lat="45.1130068" lon="13.7254844"><ele>134.2</ele><time>2026-04-12T10:08:42.977Z</time></trkpt><trkpt lat="45.1130718" lon="13.7255945"><ele>135.0</ele><time>2026-04-12T10:08:43.981Z</time></trkpt><trkpt lat="45.1131387" lon="13.7257256"><ele>135.0</ele><time>2026-04-12T10:08:44.976Z</time></trkpt><trkpt lat="45.1132015" lon="13.7258683"><ele>135.0</ele><time>2026-04-12T10:08:45.98Z</time></trkpt><trkpt lat="45.1132632" lon="13.7260271"><ele>135.0</ele><time>2026-04-12T10:08:46.979Z</time></trkpt><trkpt lat="45.1133201" lon="13.7261809"><ele>135.0</ele><time>2026-04-12T10:08:47.977Z</time></trkpt><trkpt lat="45.1133846" lon="13.7263148"><ele>134.5</ele><time>2026-04-12T10:08:48.982Z</time></trkpt><trkpt lat="45.1134698" lon="13.7264527"><ele>134.0</ele><time>2026-04-12T10:08:49.977Z</time></trkpt><trkpt lat="45.113557" lon="13.726596"><ele>133.5</ele><time>2026-04-12T10:08:50.977Z</time></trkpt><trkpt lat="45.1136315" lon="13.7267504"><ele>133.0</ele><time>2026-04-12T10:08:51.978Z</time></trkpt><trkpt lat="45.1136991" lon="13.7269192"><ele>134.0</ele><time>2026-04-12T10:08:52.976Z</time></trkpt><trkpt lat="45.1137558" lon="13.7270957"><ele>135.0</ele><time>2026-04-12T10:08:53.983Z</time></trkpt><trkpt lat="45.1137986" lon="13.7272737"><ele>136.0</ele><time>2026-04-12T10:08:54.977Z</time></trkpt><trkpt lat="45.1138315" lon="13.7274488"><ele>137.0</ele><time>2026-04-12T10:08:55.986Z</time></trkpt><trkpt lat="45.1138459" lon="13.7276185"><ele>136.75</ele><time>2026-04-12T10:08:56.98Z</time></trkpt><trkpt lat="45.1138432" lon="13.7277943"><ele>136.5</ele><time>2026-04-12T10:08:57.983Z</time></trkpt><trkpt lat="45.1138243" lon="13.7279777"><ele>136.25</ele><time>2026-04-12T10:08:58.979Z</time></trkpt><trkpt lat="45.1138003" lon="13.7281785"><ele>136.0</ele><time>2026-04-12T10:08:59.978Z</time></trkpt><trkpt lat="45.1137916" lon="13.7283787"><ele>135.0</ele><time>2026-04-12T10:09:00.979Z</time></trkpt><trkpt lat="45.1137968" lon="13.7285858"><ele>134.0</ele><time>2026-04-12T10:09:01.978Z</time></trkpt><trkpt lat="45.1138188" lon="13.7288024"><ele>133.0</ele><time>2026-04-12T10:09:02.981Z</time></trkpt><trkpt lat="45.1138465" lon="13.7290344"><ele>133.0</ele><time>2026-04-12T10:09:03.976Z</time></trkpt><trkpt lat="45.1138743" lon="13.7292606"><ele>133.0</ele><time>2026-04-12T10:09:04.977Z</time></trkpt><trkpt lat="45.1139066" lon="13.729479"><ele>133.0</ele><time>2026-04-12T10:09:05.983Z</time></trkpt><trkpt lat="45.1139332" lon="13.7296975"><ele>132.66666666666669</ele><time>2026-04-12T10:09:06.981Z</time></trkpt><trkpt lat="45.1139636" lon="13.7299204"><ele>132.33333333333334</ele><time>2026-04-12T10:09:07.98Z</time></trkpt><trkpt lat="45.1139943" lon="13.7301389"><ele>132.0</ele><time>2026-04-12T10:09:08.982Z</time></trkpt><trkpt lat="45.1140265" lon="13.7303611"><ele>132.0</ele><time>2026-04-12T10:09:09.986Z</time></trkpt><trkpt lat="45.1140591" lon="13.7305877"><ele>132.0</ele><time>2026-04-12T10:09:10.982Z</time></trkpt><trkpt lat="45.1140907" lon="13.7308137"><ele>132.0</ele><time>2026-04-12T10:09:11.982Z</time></trkpt><trkpt lat="45.1141169" lon="13.7310442"><ele>133.0</ele><time>2026-04-12T10:09:12.984Z</time></trkpt><trkpt lat="45.1141451" lon="13.7312714"><ele>134.0</ele><time>2026-04-12T10:09:13.979Z</time></trkpt><trkpt lat="45.1141717" lon="13.7314956"><ele>135.0</ele><time>2026-04-12T10:09:14.978Z</time></trkpt><trkpt lat="45.114197" lon="13.731713"><ele>135.33333333333334</ele><time>2026-04-12T10:09:15.985Z</time></trkpt><trkpt lat="45.1142188" lon="13.7319319"><ele>135.66666666666669</ele><time>2026-04-12T10:09:16.979Z</time></trkpt><trkpt lat="45.114241" lon="13.7321403"><ele>136.0</ele><time>2026-04-12T10:09:17.982Z</time></trkpt><trkpt lat="45.1142582" lon="13.7323553"><ele>136.0</ele><time>2026-04-12T10:09:18.983Z</time></trkpt><trkpt lat="45.1142718" lon="13.7325685"><ele>136.0</ele><time>2026-04-12T10:09:19.984Z</time></trkpt><trkpt lat="45.114291" lon="13.7327796"><ele>136.0</ele><time>2026-04-12T10:09:20.982Z</time></trkpt><trkpt lat="45.1143159" lon="13.7329902"><ele>136.33333333333334</ele><time>2026-04-12T10:09:21.982Z</time></trkpt><trkpt lat="45.1143403" lon="13.7332076"><ele>136.66666666666666</ele><time>2026-04-12T10:09:22.984Z</time></trkpt><trkpt lat="45.1143526" lon="13.7334371"><ele>137.0</ele><time>2026-04-12T10:09:23.978Z</time></trkpt><trkpt lat="45.1143627" lon="13.7336726"><ele>137.25</ele><time>2026-04-12T10:09:24.978Z</time></trkpt><trkpt lat="45.1143639" lon="13.7339043"><ele>137.5</ele><time>2026-04-12T10:09:25.984Z</time></trkpt><trkpt lat="45.1143592" lon="13.7341146"><ele>137.75</ele><time>2026-04-12T10:09:26.981Z</time></trkpt><trkpt lat="45.1143708" lon="13.734308"><ele>138.0</ele><time>2026-04-12T10:09:27.977Z</time></trkpt><trkpt lat="45.1143984" lon="13.7344936"><ele>138.25</ele><time>2026-04-12T10:09:28.979Z</time></trkpt><trkpt lat="45.1144466" lon="13.7346537"><ele>138.5</ele><time>2026-04-12T10:09:29.979Z</time></trkpt><trkpt lat="45.1145125" lon="13.734793"><ele>138.75</ele><time>2026-04-12T10:09:30.984Z</time></trkpt><trkpt lat="45.1145924" lon="13.7349081"><ele>139.0</ele><time>2026-04-12T10:09:31.98Z</time></trkpt><trkpt lat="45.114696" lon="13.7349879"><ele>139.0</ele><time>2026-04-12T10:09:32.988Z</time></trkpt><trkpt lat="45.1148037" lon="13.7350392"><ele>139.0</ele><time>2026-04-12T10:09:33.977Z</time></trkpt><trkpt lat="45.1149236" lon="13.7350951"><ele>139.0</ele><time>2026-04-12T10:09:34.98Z</time></trkpt><trkpt lat="45.1150302" lon="13.7351731"><ele>139.0</ele><time>2026-04-12T10:09:35.98Z</time></trkpt><trkpt lat="45.1151199" lon="13.7352682"><ele>139.5</ele><time>2026-04-12T10:09:36.981Z</time></trkpt><trkpt lat="45.1151911" lon="13.73539"><ele>140.0</ele><time>2026-04-12T10:09:37.978Z</time></trkpt><trkpt lat="45.1152404" lon="13.7355448"><ele>140.5</ele><time>2026-04-12T10:09:38.982Z</time></trkpt><trkpt lat="45.1152748" lon="13.73572"><ele>141.0</ele><time>2026-04-12T10:09:39.981Z</time></trkpt><trkpt lat="45.115305" lon="13.7358994"><ele>142.0</ele><time>2026-04-12T10:09:40.978Z</time></trkpt><trkpt lat="45.1153349" lon="13.7360988"><ele>143.0</ele><time>2026-04-12T10:09:41.982Z</time></trkpt><trkpt lat="45.1153572" lon="13.7363041"><ele>144.0</ele><time>2026-04-12T10:09:42.983Z</time></trkpt><trkpt lat="45.1153703" lon="13.7365152"><ele>145.0</ele><time>2026-04-12T10:09:43.979Z</time></trkpt><trkpt lat="45.1153738" lon="13.7367172"><ele>145.5</ele><time>2026-04-12T10:09:44.977Z</time></trkpt><trkpt lat="45.1153635" lon="13.7369218"><ele>146.0</ele><time>2026-04-12T10:09:45.98Z</time></trkpt><trkpt lat="45.1153523" lon="13.7371203"><ele>146.5</ele><time>2026-04-12T10:09:46.978Z</time></trkpt><trkpt lat="45.1153387" lon="13.737281"><ele>147.0</ele><time>2026-04-12T10:09:47.984Z</time></trkpt><trkpt lat="45.1153106" lon="13.7374322"><ele>147.0</ele><time>2026-04-12T10:09:48.976Z</time></trkpt><trkpt lat="45.1152546" lon="13.7375793"><ele>147.0</ele><time>2026-04-12T10:09:49.981Z</time></trkpt><trkpt lat="45.1151941" lon="13.7377202"><ele>147.0</ele><time>2026-04-12T10:09:50.978Z</time></trkpt><trkpt lat="45.1151268" lon="13.7378478"><ele>147.0</ele><time>2026-04-12T10:09:51.985Z</time></trkpt><trkpt lat="45.1150468" lon="13.7379765"><ele>147.0</ele><time>2026-04-12T10:09:52.979Z</time></trkpt><trkpt lat="45.1149758" lon="13.738116"><ele>147.0</ele><time>2026-04-12T10:09:53.979Z</time></trkpt><trkpt lat="45.1149187" lon="13.7382547"><ele>147.0</ele><time>2026-04-12T10:09:54.98Z</time></trkpt><trkpt lat="45.1148687" lon="13.7383767"><ele>147.0</ele><time>2026-04-12T10:09:55.98Z</time></trkpt><trkpt lat="45.1148204" lon="13.738494"><ele>147.0</ele><time>2026-04-12T10:09:56.984Z</time></trkpt><trkpt lat="45.1147758" lon="13.738608"><ele>147.6</ele><time>2026-04-12T10:09:57.984Z</time></trkpt><trkpt lat="45.1147368" lon="13.7387282"><ele>148.2</ele><time>2026-04-12T10:09:58.975Z</time></trkpt><trkpt lat="45.1146944" lon="13.7388481"><ele>148.8</ele><time>2026-04-12T10:09:59.98Z</time></trkpt><trkpt lat="45.1146523" lon="13.7389684"><ele>149.4</ele><time>2026-04-12T10:10:00.977Z</time></trkpt><trkpt lat="45.1146174" lon="13.7391009"><ele>150.0</ele><time>2026-04-12T10:10:01.988Z</time></trkpt><trkpt lat="45.1145915" lon="13.7392471"><ele>151.0</ele><time>2026-04-12T10:10:02.982Z</time></trkpt><trkpt lat="45.1145733" lon="13.7393961"><ele>152.0</ele><time>2026-04-12T10:10:03.979Z</time></trkpt><trkpt lat="45.114553" lon="13.7395344"><ele>153.0</ele><time>2026-04-12T10:10:04.977Z</time></trkpt><trkpt lat="45.1145365" lon="13.7396607"><ele>154.0</ele><time>2026-04-12T10:10:05.976Z</time></trkpt><trkpt lat="45.1145292" lon="13.7397855"><ele>155.0</ele><time>2026-04-12T10:10:06.98Z</time></trkpt><trkpt lat="45.1145172" lon="13.7399122"><ele>155.0</ele><time>2026-04-12T10:10:07.978Z</time></trkpt><trkpt lat="45.1145076" lon="13.7400395"><ele>155.0</ele><time>2026-04-12T10:10:08.987Z</time></trkpt><trkpt lat="45.114496" lon="13.7401694"><ele>155.0</ele><time>2026-04-12T10:10:09.98Z</time></trkpt><trkpt lat="45.1144873" lon="13.7402897"><ele>155.0</ele><time>2026-04-12T10:10:10.979Z</time></trkpt><trkpt lat="45.1144824" lon="13.7403969"><ele>155.0</ele><time>2026-04-12T10:10:11.977Z</time></trkpt><trkpt lat="45.1144713" lon="13.7405174"><ele>155.0</ele><time>2026-04-12T10:10:12.982Z</time></trkpt><trkpt lat="45.1144622" lon="13.740629"><ele>155.83333333333331</ele><time>2026-04-12T10:10:13.977Z</time></trkpt><trkpt lat="45.1144493" lon="13.7407499"><ele>156.66666666666666</ele><time>2026-04-12T10:10:14.981Z</time></trkpt><trkpt lat="45.1144304" lon="13.740874"><ele>157.5</ele><time>2026-04-12T10:10:15.98Z</time></trkpt><trkpt lat="45.1144172" lon="13.7409935"><ele>158.33333333333334</ele><time>2026-04-12T10:10:16.984Z</time></trkpt><trkpt lat="45.1144019" lon="13.7411161"><ele>159.16666666666669</ele><time>2026-04-12T10:10:17.984Z</time></trkpt><trkpt lat="45.11439" lon="13.7412371"><ele>160.0</ele><time>2026-04-12T10:10:18.98Z</time></trkpt><trkpt lat="45.1143781" lon="13.7413549"><ele>160.66666666666669</ele><time>2026-04-12T10:10:19.987Z</time></trkpt><trkpt lat="45.114362" lon="13.7414763"><ele>161.33333333333334</ele><time>2026-04-12T10:10:20.984Z</time></trkpt><trkpt lat="45.1143451" lon="13.7415927"><ele>162.0</ele><time>2026-04-12T10:10:21.982Z</time></trkpt><trkpt lat="45.1143161" lon="13.7417078"><ele>162.66666666666666</ele><time>2026-04-12T10:10:22.989Z</time></trkpt><trkpt lat="45.1142899" lon="13.7418228"><ele>163.33333333333331</ele><time>2026-04-12T10:10:23.985Z</time></trkpt><trkpt lat="45.1142658" lon="13.7419385"><ele>164.0</ele><time>2026-04-12T10:10:24.98Z</time></trkpt><trkpt lat="45.1142423" lon="13.7420579"><ele>164.2</ele><time>2026-04-12T10:10:25.983Z</time></trkpt><trkpt lat="45.1142162" lon="13.7421786"><ele>164.39999999999998</ele><time>2026-04-12T10:10:26.98Z</time></trkpt><trkpt lat="45.1141944" lon="13.7422955"><ele>164.6</ele><time>2026-04-12T10:10:27.987Z</time></trkpt><trkpt lat="45.1141725" lon="13.7424212"><ele>164.8</ele><time>2026-04-12T10:10:28.982Z</time></trkpt><trkpt lat="45.1141466" lon="13.7425504"><ele>165.0</ele><time>2026-04-12T10:10:29.981Z</time></trkpt><trkpt lat="45.1141223" lon="13.7426792"><ele>165.6</ele><time>2026-04-12T10:10:30.978Z</time></trkpt><trkpt lat="45.1140957" lon="13.7428123"><ele>166.2</ele><time>2026-04-12T10:10:31.984Z</time></trkpt><trkpt lat="45.1140725" lon="13.7429472"><ele>166.8</ele><time>2026-04-12T10:10:32.983Z</time></trkpt><trkpt lat="45.1140497" lon="13.7430803"><ele>167.4</ele><time>2026-04-12T10:10:33.98Z</time></trkpt><trkpt lat="45.1140418" lon="13.7432119"><ele>168.0</ele><time>2026-04-12T10:10:34.982Z</time></trkpt><trkpt lat="45.1140487" lon="13.7433391"><ele>168.0</ele><time>2026-04-12T10:10:35.989Z</time></trkpt><trkpt lat="45.1140705" lon="13.7434583"><ele>168.0</ele><time>2026-04-12T10:10:36.982Z</time></trkpt><trkpt lat="45.1141003" lon="13.7435696"><ele>168.0</ele><time>2026-04-12T10:10:37.98Z</time></trkpt><trkpt lat="45.1141336" lon="13.7436784"><ele>168.0</ele><time>2026-04-12T10:10:38.981Z</time></trkpt><trkpt lat="45.1141685" lon="13.7437881"><ele>168.0</ele><time>2026-04-12T10:10:39.984Z</time></trkpt><trkpt lat="45.1142043" lon="13.7439027"><ele>168.0</ele><time>2026-04-12T10:10:40.981Z</time></trkpt><trkpt lat="45.1142483" lon="13.744027"><ele>168.2</ele><time>2026-04-12T10:10:41.99Z</time></trkpt><trkpt lat="45.1143012" lon="13.744158"><ele>168.4</ele><time>2026-04-12T10:10:42.986Z</time></trkpt><trkpt lat="45.1143583" lon="13.744291"><ele>168.6</ele><time>2026-04-12T10:10:43.978Z</time></trkpt><trkpt lat="45.1144188" lon="13.7444236"><ele>168.79999999999998</ele><time>2026-04-12T10:10:44.982Z</time></trkpt><trkpt lat="45.114491" lon="13.7445458"><ele>169.0</ele><time>2026-04-12T10:10:45.98Z</time></trkpt><trkpt lat="45.1145849" lon="13.7446469"><ele>169.0</ele><time>2026-04-12T10:10:46.979Z</time></trkpt><trkpt lat="45.1146819" lon="13.7447471"><ele>169.0</ele><time>2026-04-12T10:10:47.981Z</time></trkpt><trkpt lat="45.1147782" lon="13.7448356"><ele>169.0</ele><time>2026-04-12T10:10:48.984Z</time></trkpt><trkpt lat="45.1148629" lon="13.7449294"><ele>169.0</ele><time>2026-04-12T10:10:49.98Z</time></trkpt><trkpt lat="45.1149482" lon="13.7450209"><ele>169.0</ele><time>2026-04-12T10:10:50.982Z</time></trkpt><trkpt lat="45.1150332" lon="13.7450979"><ele>169.16666666666669</ele><time>2026-04-12T10:10:51.981Z</time></trkpt><trkpt lat="45.1151186" lon="13.7451625"><ele>169.33333333333334</ele><time>2026-04-12T10:10:52.981Z</time></trkpt><trkpt lat="45.1152025" lon="13.7451901"><ele>169.5</ele><time>2026-04-12T10:10:53.986Z</time></trkpt><trkpt lat="45.115274" lon="13.7451986"><ele>169.66666666666666</ele><time>2026-04-12T10:10:54.987Z</time></trkpt><trkpt lat="45.1153431" lon="13.7451998"><ele>169.83333333333331</ele><time>2026-04-12T10:10:55.98Z</time></trkpt><trkpt lat="45.1154175" lon="13.7452064"><ele>170.0</ele><time>2026-04-12T10:10:56.981Z</time></trkpt><trkpt lat="45.1155093" lon="13.745212"><ele>169.5</ele><time>2026-04-12T10:10:57.983Z</time></trkpt><trkpt lat="45.1156136" lon="13.7452133"><ele>169.0</ele><time>2026-04-12T10:10:58.987Z</time></trkpt><trkpt lat="45.1157118" lon="13.7452238"><ele>168.5</ele><time>2026-04-12T10:10:59.984Z</time></trkpt><trkpt lat="45.1157871" lon="13.7452328"><ele>168.0</ele><time>2026-04-12T10:11:00.981Z</time></trkpt><trkpt lat="45.1158904" lon="13.745251"><ele>167.5</ele><time>2026-04-12T10:11:02.983Z</time></trkpt><trkpt lat="45.1159563" lon="13.7452626"><ele>167.0</ele><time>2026-04-12T10:11:05.984Z</time></trkpt><trkpt lat="45.1158623" lon="13.7452224"><ele>167.0</ele><time>2026-04-12T10:11:09.986Z</time></trkpt><trkpt lat="45.1157989" lon="13.7452273"><ele>167.0</ele><time>2026-04-12T10:11:10.984Z</time></trkpt><trkpt lat="45.1157127" lon="13.7452346"><ele>167.0</ele><time>2026-04-12T10:11:11.988Z</time></trkpt><trkpt lat="45.1156059" lon="13.7452332"><ele>167.0</ele><time>2026-04-12T10:11:12.99Z</time></trkpt><trkpt lat="45.115497" lon="13.7452238"><ele>167.0</ele><time>2026-04-12T10:11:13.987Z</time></trkpt><trkpt lat="45.1153965" lon="13.7452227"><ele>167.0</ele><time>2026-04-12T10:11:14.981Z</time></trkpt><trkpt lat="45.1153111" lon="13.7452218"><ele>167.0</ele><time>2026-04-12T10:11:15.981Z</time></trkpt><trkpt lat="45.1152023" lon="13.7452442"><ele>167.0</ele><time>2026-04-12T10:11:17.982Z</time></trkpt><trkpt lat="45.1151439" lon="13.7453248"><ele>167.0</ele><time>2026-04-12T10:11:19.977Z</time></trkpt><trkpt lat="45.1150852" lon="13.7454448"><ele>167.0</ele><time>2026-04-12T10:11:21.98Z</time></trkpt><trkpt lat="45.1150554" lon="13.7455274"><ele>167.0</ele><time>2026-04-12T10:11:22.99Z</time></trkpt><trkpt lat="45.115028" lon="13.7456512"><ele>167.0</ele><time>2026-04-12T10:11:23.988Z</time></trkpt><trkpt lat="45.1150053" lon="13.7457892"><ele>167.0</ele><time>2026-04-12T10:11:24.982Z</time></trkpt><trkpt lat="45.1149715" lon="13.7459357"><ele>167.0</ele><time>2026-04-12T10:11:25.985Z</time></trkpt><trkpt lat="45.1149387" lon="13.7460897"><ele>167.0</ele><time>2026-04-12T10:11:26.99Z</time></trkpt><trkpt lat="45.1149204" lon="13.7462528"><ele>167.0</ele><time>2026-04-12T10:11:27.983Z</time></trkpt><trkpt lat="45.1149187" lon="13.7464035"><ele>166.66666666666666</ele><time>2026-04-12T10:11:28.978Z</time></trkpt><trkpt lat="45.1149113" lon="13.7465412"><ele>166.33333333333331</ele><time>2026-04-12T10:11:29.986Z</time></trkpt><trkpt lat="45.1149114" lon="13.7466448"><ele>166.0</ele><time>2026-04-12T10:11:30.977Z</time></trkpt><trkpt lat="45.1149301" lon="13.7467322"><ele>165.66666666666666</ele><time>2026-04-12T10:11:31.999Z</time></trkpt><trkpt lat="45.114968" lon="13.7468428"><ele>165.33333333333334</ele><time>2026-04-12T10:11:32.978Z</time></trkpt><trkpt lat="45.1150109" lon="13.7469575"><ele>165.0</ele><time>2026-04-12T10:11:33.984Z</time></trkpt><trkpt lat="45.1150367" lon="13.7470848"><ele>164.8</ele><time>2026-04-12T10:11:34.977Z</time></trkpt><trkpt lat="45.1150461" lon="13.7472141"><ele>164.6</ele><time>2026-04-12T10:11:35.979Z</time></trkpt><trkpt lat="45.1150332" lon="13.7473543"><ele>164.39999999999998</ele><time>2026-04-12T10:11:36.975Z</time></trkpt><trkpt lat="45.1150122" lon="13.7475078"><ele>164.2</ele><time>2026-04-12T10:11:37.986Z</time></trkpt><trkpt lat="45.1150041" lon="13.7476582"><ele>164.0</ele><time>2026-04-12T10:11:38.979Z</time></trkpt><trkpt lat="45.1150039" lon="13.7478313"><ele>164.25</ele><time>2026-04-12T10:11:39.978Z</time></trkpt><trkpt lat="45.1149864" lon="13.7480004"><ele>164.5</ele><time>2026-04-12T10:11:40.977Z</time></trkpt><trkpt lat="45.1149576" lon="13.7481563"><ele>164.75</ele><time>2026-04-12T10:11:41.988Z</time></trkpt><trkpt lat="45.1149127" lon="13.7483093"><ele>165.0</ele><time>2026-04-12T10:11:42.977Z</time></trkpt><trkpt lat="45.1148588" lon="13.7484821"><ele>164.8</ele><time>2026-04-12T10:11:43.98Z</time></trkpt><trkpt lat="45.114805" lon="13.7486497"><ele>164.6</ele><time>2026-04-12T10:11:44.979Z</time></trkpt><trkpt lat="45.1147577" lon="13.7487993"><ele>164.39999999999998</ele><time>2026-04-12T10:11:45.977Z</time></trkpt><trkpt lat="45.1147245" lon="13.7489308"><ele>164.2</ele><time>2026-04-12T10:11:46.98Z</time></trkpt><trkpt lat="45.1147088" lon="13.7490557"><ele>164.0</ele><time>2026-04-12T10:11:47.979Z</time></trkpt><trkpt lat="45.1147053" lon="13.7491649"><ele>164.0</ele><time>2026-04-12T10:11:48.987Z</time></trkpt><trkpt lat="45.1147527" lon="13.7493338"><ele>164.0</ele><time>2026-04-12T10:11:50.979Z</time></trkpt><trkpt lat="45.1147938" lon="13.7494344"><ele>164.0</ele><time>2026-04-12T10:11:51.981Z</time></trkpt><trkpt lat="45.114844" lon="13.7495222"><ele>164.0</ele><time>2026-04-12T10:11:52.976Z</time></trkpt><trkpt lat="45.1148942" lon="13.7496088"><ele>164.0</ele><time>2026-04-12T10:11:53.981Z</time></trkpt><trkpt lat="45.1149431" lon="13.7497001"><ele>164.0</ele><time>2026-04-12T10:11:54.982Z</time></trkpt><trkpt lat="45.1149834" lon="13.7497866"><ele>164.0</ele><time>2026-04-12T10:11:55.978Z</time></trkpt><trkpt lat="45.1149936" lon="13.7498841"><ele>164.0</ele><time>2026-04-12T10:11:56.976Z</time></trkpt><trkpt lat="45.1149963" lon="13.7499829"><ele>164.0</ele><time>2026-04-12T10:11:57.983Z</time></trkpt><trkpt lat="45.1150053" lon="13.7500767"><ele>164.0</ele><time>2026-04-12T10:11:58.978Z</time></trkpt><trkpt lat="45.1150821" lon="13.750195"><ele>164.0</ele><time>2026-04-12T10:12:00.978Z</time></trkpt><trkpt lat="45.1151522" lon="13.7502312"><ele>164.0</ele><time>2026-04-12T10:12:01.986Z</time></trkpt><trkpt lat="45.1152308" lon="13.7502686"><ele>164.0</ele><time>2026-04-12T10:12:02.977Z</time></trkpt><trkpt lat="45.1152939" lon="13.750342"><ele>164.0</ele><time>2026-04-12T10:12:03.984Z</time></trkpt><trkpt lat="45.1153448" lon="13.7504366"><ele>164.0</ele><time>2026-04-12T10:12:04.979Z</time></trkpt><trkpt lat="45.1153839" lon="13.7505479"><ele>164.0</ele><time>2026-04-12T10:12:05.985Z</time></trkpt><trkpt lat="45.1154087" lon="13.750671"><ele>164.0</ele><time>2026-04-12T10:12:06.979Z</time></trkpt><trkpt lat="45.1154311" lon="13.7507909"><ele>164.0</ele><time>2026-04-12T10:12:07.98Z</time></trkpt><trkpt lat="45.115453" lon="13.7508851"><ele>164.0</ele><time>2026-04-12T10:12:08.978Z</time></trkpt><trkpt lat="45.1154557" lon="13.7510587"><ele>164.0</ele><time>2026-04-12T10:12:10.987Z</time></trkpt><trkpt lat="45.115432" lon="13.7511548"><ele>164.0</ele><time>2026-04-12T10:12:11.982Z</time></trkpt><trkpt lat="45.1154032" lon="13.7512531"><ele>164.0</ele><time>2026-04-12T10:12:12.979Z</time></trkpt><trkpt lat="45.1153728" lon="13.7513571"><ele>164.0</ele><time>2026-04-12T10:12:13.982Z</time></trkpt><trkpt lat="45.1153496" lon="13.7514483"><ele>163.83333333333331</ele><time>2026-04-12T10:12:14.979Z</time></trkpt><trkpt lat="45.11532" lon="13.7515847"><ele>163.66666666666666</ele><time>2026-04-12T10:12:16.984Z</time></trkpt><trkpt lat="45.1153562" lon="13.7516895"><ele>163.5</ele><time>2026-04-12T10:12:19.976Z</time></trkpt><trkpt lat="45.1154058" lon="13.7517459"><ele>163.33333333333334</ele><time>2026-04-12T10:12:21.986Z</time></trkpt><trkpt lat="45.1155113" lon="13.7518076"><ele>163.16666666666669</ele><time>2026-04-12T10:12:23.983Z</time></trkpt><trkpt lat="45.1155793" lon="13.7518413"><ele>163.0</ele><time>2026-04-12T10:12:24.987Z</time></trkpt><trkpt lat="45.1156451" lon="13.7518807"><ele>162.83333333333334</ele><time>2026-04-12T10:12:25.98Z</time></trkpt><trkpt lat="45.1157053" lon="13.7519177"><ele>162.66666666666669</ele><time>2026-04-12T10:12:26.979Z</time></trkpt><trkpt lat="45.1157644" lon="13.7519669"><ele>162.5</ele><time>2026-04-12T10:12:27.981Z</time></trkpt><trkpt lat="45.1157923" lon="13.7520495"><ele>162.33333333333334</ele><time>2026-04-12T10:12:28.98Z</time></trkpt><trkpt lat="45.1158351" lon="13.7521454"><ele>162.16666666666666</ele><time>2026-04-12T10:12:29.977Z</time></trkpt><trkpt lat="45.1158849" lon="13.752216"><ele>162.0</ele><time>2026-04-12T10:12:30.977Z</time></trkpt><trkpt lat="45.1160137" lon="13.7522831"><ele>160.2</ele><time>2026-04-12T10:12:32.979Z</time></trkpt><trkpt lat="45.1161036" lon="13.7523143"><ele>158.39999999999998</ele><time>2026-04-12T10:12:33.977Z</time></trkpt><trkpt lat="45.1161881" lon="13.752342"><ele>156.60000000000002</ele><time>2026-04-12T10:12:34.978Z</time></trkpt><trkpt lat="45.1162709" lon="13.7523731"><ele>154.8</ele><time>2026-04-12T10:12:35.979Z</time></trkpt><trkpt lat="45.1163572" lon="13.7523824"><ele>153.0</ele><time>2026-04-12T10:12:36.982Z</time></trkpt><trkpt lat="45.1164577" lon="13.7523724"><ele>153.0</ele><time>2026-04-12T10:12:37.977Z</time></trkpt><trkpt lat="45.1165493" lon="13.7523697"><ele>153.0</ele><time>2026-04-12T10:12:38.98Z</time></trkpt><trkpt lat="45.1166307" lon="13.752396"><ele>153.0</ele><time>2026-04-12T10:12:39.981Z</time></trkpt><trkpt lat="45.1167245" lon="13.7524417"><ele>153.0</ele><time>2026-04-12T10:12:40.98Z</time></trkpt><trkpt lat="45.1168123" lon="13.7525021"><ele>153.0</ele><time>2026-04-12T10:12:41.987Z</time></trkpt><trkpt lat="45.116882" lon="13.7525623"><ele>152.20000000000002</ele><time>2026-04-12T10:12:42.979Z</time></trkpt><trkpt lat="45.1169202" lon="13.7526464"><ele>151.4</ele><time>2026-04-12T10:12:43.976Z</time></trkpt><trkpt lat="45.1169622" lon="13.7527659"><ele>150.60000000000002</ele><time>2026-04-12T10:12:44.978Z</time></trkpt><trkpt lat="45.1170048" lon="13.7529049"><ele>149.8</ele><time>2026-04-12T10:12:45.981Z</time></trkpt><trkpt lat="45.1170608" lon="13.7530444"><ele>149.0</ele><time>2026-04-12T10:12:46.976Z</time></trkpt><trkpt lat="45.1171194" lon="13.7531599"><ele>148.6</ele><time>2026-04-12T10:12:47.978Z</time></trkpt><trkpt lat="45.1171864" lon="13.7532467"><ele>148.2</ele><time>2026-04-12T10:12:48.98Z</time></trkpt><trkpt lat="45.1172669" lon="13.7533051"><ele>147.79999999999998</ele><time>2026-04-12T10:12:49.985Z</time></trkpt><trkpt lat="45.1173581" lon="13.753348"><ele>147.4</ele><time>2026-04-12T10:12:50.977Z</time></trkpt><trkpt lat="45.1174672" lon="13.7533891"><ele>147.0</ele><time>2026-04-12T10:12:51.983Z</time></trkpt><trkpt lat="45.1175563" lon="13.7534387"><ele>148.25</ele><time>2026-04-12T10:12:52.978Z</time></trkpt><trkpt lat="45.1176551" lon="13.7534663"><ele>149.5</ele><time>2026-04-12T10:12:53.976Z</time></trkpt><trkpt lat="45.1177726" lon="13.7534796"><ele>150.75</ele><time>2026-04-12T10:12:54.978Z</time></trkpt><trkpt lat="45.1178958" lon="13.7535041"><ele>152.0</ele><time>2026-04-12T10:12:55.977Z</time></trkpt><trkpt lat="45.1180163" lon="13.7535268"><ele>152.2</ele><time>2026-04-12T10:12:56.985Z</time></trkpt><trkpt lat="45.118125" lon="13.7535546"><ele>152.39999999999998</ele><time>2026-04-12T10:12:57.976Z</time></trkpt><trkpt lat="45.118223" lon="13.7535927"><ele>152.60000000000002</ele><time>2026-04-12T10:12:58.983Z</time></trkpt><trkpt lat="45.1183103" lon="13.7536572"><ele>152.8</ele><time>2026-04-12T10:12:59.984Z</time></trkpt><trkpt lat="45.1183963" lon="13.7537495"><ele>153.0</ele><time>2026-04-12T10:13:00.978Z</time></trkpt><trkpt lat="45.1184756" lon="13.7538542"><ele>153.0</ele><time>2026-04-12T10:13:01.976Z</time></trkpt><trkpt lat="45.1185547" lon="13.7539323"><ele>153.0</ele><time>2026-04-12T10:13:02.981Z</time></trkpt><trkpt lat="45.1186397" lon="13.7539891"><ele>153.0</ele><time>2026-04-12T10:13:03.977Z</time></trkpt><trkpt lat="45.1187322" lon="13.7540043"><ele>153.0</ele><time>2026-04-12T10:13:04.979Z</time></trkpt><trkpt lat="45.11882" lon="13.7539969"><ele>153.0</ele><time>2026-04-12T10:13:05.977Z</time></trkpt><trkpt lat="45.1189033" lon="13.7539558"><ele>153.0</ele><time>2026-04-12T10:13:06.982Z</time></trkpt><trkpt lat="45.1189987" lon="13.7538837"><ele>153.0</ele><time>2026-04-12T10:13:07.979Z</time></trkpt><trkpt lat="45.1190885" lon="13.7538112"><ele>153.0</ele><time>2026-04-12T10:13:08.983Z</time></trkpt><trkpt lat="45.1191702" lon="13.753748"><ele>153.0</ele><time>2026-04-12T10:13:09.982Z</time></trkpt><trkpt lat="45.1192781" lon="13.7537257"><ele>153.0</ele><time>2026-04-12T10:13:11.978Z</time></trkpt><trkpt lat="45.1193554" lon="13.7538423"><ele>153.20000000000002</ele><time>2026-04-12T10:13:13.981Z</time></trkpt><trkpt lat="45.1194167" lon="13.753918"><ele>153.4</ele><time>2026-04-12T10:13:14.983Z</time></trkpt><trkpt lat="45.119476" lon="13.753993"><ele>153.60000000000002</ele><time>2026-04-12T10:13:15.983Z</time></trkpt><trkpt lat="45.1195157" lon="13.7540713"><ele>153.8</ele><time>2026-04-12T10:13:16.978Z</time></trkpt><trkpt lat="45.1195601" lon="13.7542263"><ele>154.0</ele><time>2026-04-12T10:13:18.979Z</time></trkpt><trkpt lat="45.119599" lon="13.7543797"><ele>154.0</ele><time>2026-04-12T10:13:20.978Z</time></trkpt><trkpt lat="45.1196049" lon="13.7545379"><ele>154.0</ele><time>2026-04-12T10:13:22.978Z</time></trkpt><trkpt lat="45.1195824" lon="13.7547187"><ele>154.0</ele><time>2026-04-12T10:13:24.987Z</time></trkpt><trkpt lat="45.1195628" lon="13.7548176"><ele>154.0</ele><time>2026-04-12T10:13:25.979Z</time></trkpt><trkpt lat="45.1195395" lon="13.7549155"><ele>154.0</ele><time>2026-04-12T10:13:26.981Z</time></trkpt><trkpt lat="45.1195134" lon="13.75501"><ele>154.0</ele><time>2026-04-12T10:13:27.979Z</time></trkpt><trkpt lat="45.1194701" lon="13.7551561"><ele>154.0</ele><time>2026-04-12T10:13:29.979Z</time></trkpt><trkpt lat="45.1194343" lon="13.7552511"><ele>154.0</ele><time>2026-04-12T10:13:31.976Z</time></trkpt><trkpt lat="45.1194537" lon="13.7553448"><ele>154.0</ele><time>2026-04-12T10:13:34.982Z</time></trkpt><trkpt lat="45.1195231" lon="13.7553124"><ele>154.0</ele><time>2026-04-12T10:13:39.976Z</time></trkpt><trkpt lat="45.1195652" lon="13.755234"><ele>154.0</ele><time>2026-04-12T10:13:41.978Z</time></trkpt><trkpt lat="45.1196005" lon="13.7551401"><ele>154.0</ele><time>2026-04-12T10:13:42.978Z</time></trkpt><trkpt lat="45.1196463" lon="13.7550475"><ele>154.0</ele><time>2026-04-12T10:13:43.978Z</time></trkpt><trkpt lat="45.1197047" lon="13.7549321"><ele>154.0</ele><time>2026-04-12T10:13:44.984Z</time></trkpt><trkpt lat="45.1197525" lon="13.7548266"><ele>154.0</ele><time>2026-04-12T10:13:45.98Z</time></trkpt><trkpt lat="45.1197953" lon="13.7547204"><ele>154.0</ele><time>2026-04-12T10:13:46.981Z</time></trkpt><trkpt lat="45.1198413" lon="13.7546096"><ele>154.0</ele><time>2026-04-12T10:13:47.979Z</time></trkpt><trkpt lat="45.1198867" lon="13.754526"><ele>152.2</ele><time>2026-04-12T10:13:48.981Z</time></trkpt><trkpt lat="45.1199438" lon="13.754456"><ele>150.4</ele><time>2026-04-12T10:13:49.984Z</time></trkpt><trkpt lat="45.1200225" lon="13.75437"><ele>148.6</ele><time>2026-04-12T10:13:50.978Z</time></trkpt><trkpt lat="45.1201121" lon="13.75427"><ele>146.8</ele><time>2026-04-12T10:13:51.981Z</time></trkpt><trkpt lat="45.1202057" lon="13.7541792"><ele>145.0</ele><time>2026-04-12T10:13:52.984Z</time></trkpt><trkpt lat="45.1202998" lon="13.7540873"><ele>145.0</ele><time>2026-04-12T10:13:53.983Z</time></trkpt><trkpt lat="45.1203932" lon="13.7540007"><ele>145.0</ele><time>2026-04-12T10:13:54.984Z</time></trkpt><trkpt lat="45.1204793" lon="13.7539238"><ele>145.0</ele><time>2026-04-12T10:13:55.984Z</time></trkpt><trkpt lat="45.1205686" lon="13.7538691"><ele>145.0</ele><time>2026-04-12T10:13:56.976Z</time></trkpt><trkpt lat="45.1206617" lon="13.753826"><ele>145.0</ele><time>2026-04-12T10:13:57.982Z</time></trkpt><trkpt lat="45.1207527" lon="13.7537981"><ele>141.0</ele><time>2026-04-12T10:13:58.979Z</time></trkpt><trkpt lat="45.1208452" lon="13.7537651"><ele>137.0</ele><time>2026-04-12T10:13:59.981Z</time></trkpt><trkpt lat="45.1209283" lon="13.7537376"><ele>133.0</ele><time>2026-04-12T10:14:00.983Z</time></trkpt><trkpt lat="45.1210143" lon="13.7537055"><ele>129.0</ele><time>2026-04-12T10:14:01.979Z</time></trkpt><trkpt lat="45.1210916" lon="13.7536677"><ele>125.00000000000001</ele><time>2026-04-12T10:14:02.977Z</time></trkpt><trkpt lat="45.121175" lon="13.7536378"><ele>121.0</ele><time>2026-04-12T10:14:03.977Z</time></trkpt><trkpt lat="45.1212534" lon="13.7536132"><ele>121.00000000000001</ele><time>2026-04-12T10:14:04.977Z</time></trkpt><trkpt lat="45.1213327" lon="13.753582"><ele>121.0</ele><time>2026-04-12T10:14:05.977Z</time></trkpt><trkpt lat="45.1214114" lon="13.7535492"><ele>121.0</ele><time>2026-04-12T10:14:06.979Z</time></trkpt><trkpt lat="45.1214885" lon="13.7535085"><ele>121.0</ele><time>2026-04-12T10:14:07.988Z</time></trkpt><trkpt lat="45.1215618" lon="13.753457"><ele>121.00000000000001</ele><time>2026-04-12T10:14:08.979Z</time></trkpt><trkpt lat="45.1216409" lon="13.7533936"><ele>121.0</ele><time>2026-04-12T10:14:09.976Z</time></trkpt><trkpt lat="45.121716" lon="13.753348"><ele>120.57142857142857</ele><time>2026-04-12T10:14:10.984Z</time></trkpt><trkpt lat="45.1217937" lon="13.7533115"><ele>120.14285714285714</ele><time>2026-04-12T10:14:11.981Z</time></trkpt><trkpt lat="45.1218666" lon="13.7532923"><ele>119.71428571428571</ele><time>2026-04-12T10:14:12.984Z</time></trkpt><trkpt lat="45.1219306" lon="13.7532877"><ele>119.28571428571428</ele><time>2026-04-12T10:14:13.98Z</time></trkpt><trkpt lat="45.1219942" lon="13.7532962"><ele>118.85714285714286</ele><time>2026-04-12T10:14:14.98Z</time></trkpt><trkpt lat="45.1220593" lon="13.7532976"><ele>118.42857142857142</ele><time>2026-04-12T10:14:15.98Z</time></trkpt><trkpt lat="45.1221226" lon="13.7533004"><ele>118.0</ele><time>2026-04-12T10:14:16.977Z</time></trkpt><trkpt lat="45.1221957" lon="13.7532955"><ele>118.00000000000001</ele><time>2026-04-12T10:14:17.989Z</time></trkpt><trkpt lat="45.1222627" lon="13.753283"><ele>118.0</ele><time>2026-04-12T10:14:18.975Z</time></trkpt><trkpt lat="45.1223387" lon="13.7532674"><ele>118.0</ele><time>2026-04-12T10:14:19.981Z</time></trkpt><trkpt lat="45.1224172" lon="13.7532592"><ele>118.0</ele><time>2026-04-12T10:14:20.978Z</time></trkpt><trkpt lat="45.1224951" lon="13.7532503"><ele>118.00000000000001</ele><time>2026-04-12T10:14:21.977Z</time></trkpt><trkpt lat="45.1225768" lon="13.7532394"><ele>118.0</ele><time>2026-04-12T10:14:22.982Z</time></trkpt><trkpt lat="45.1226567" lon="13.7532362"><ele>114.4</ele><time>2026-04-12T10:14:23.985Z</time></trkpt><trkpt lat="45.1227344" lon="13.7532178"><ele>110.80000000000001</ele><time>2026-04-12T10:14:24.981Z</time></trkpt><trkpt lat="45.1228005" lon="13.753201"><ele>107.2</ele><time>2026-04-12T10:14:25.98Z</time></trkpt><trkpt lat="45.122864" lon="13.7531891"><ele>103.6</ele><time>2026-04-12T10:14:26.98Z</time></trkpt><trkpt lat="45.1229865" lon="13.7531666"><ele>100.0</ele><time>2026-04-12T10:14:28.984Z</time></trkpt><trkpt lat="45.1231064" lon="13.7531688"><ele>100.00000000000001</ele><time>2026-04-12T10:14:30.984Z</time></trkpt><trkpt lat="45.1232261" lon="13.7531641"><ele>100.0</ele><time>2026-04-12T10:14:32.978Z</time></trkpt><trkpt lat="45.1233167" lon="13.7531542"><ele>100.0</ele><time>2026-04-12T10:14:34.985Z</time></trkpt><trkpt lat="45.1233923" lon="13.7531176"><ele>100.0</ele><time>2026-04-12T10:14:37.985Z</time></trkpt><trkpt lat="45.1234462" lon="13.753169"><ele>100.00000000000001</ele><time>2026-04-12T10:14:43.977Z</time></trkpt><trkpt lat="45.1233949" lon="13.7532431"><ele>100.0</ele><time>2026-04-12T10:14:47.977Z</time></trkpt><trkpt lat="45.1233099" lon="13.7532921"><ele>96.83333333333334</ele><time>2026-04-12T10:14:50.979Z</time></trkpt><trkpt lat="45.1232596" lon="13.7533483"><ele>93.66666666666667</ele><time>2026-04-12T10:14:53.979Z</time></trkpt><trkpt lat="45.1232845" lon="13.7534492"><ele>90.5</ele><time>2026-04-12T10:15:38.98Z</time></trkpt><trkpt lat="45.1233799" lon="13.7534035"><ele>87.33333333333334</ele><time>2026-04-12T10:15:40.978Z</time></trkpt><trkpt lat="45.1234458" lon="13.7533562"><ele>84.16666666666667</ele><time>2026-04-12T10:15:41.983Z</time></trkpt><trkpt lat="45.1235221" lon="13.7533056"><ele>81.0</ele><time>2026-04-12T10:15:42.98Z</time></trkpt><trkpt lat="45.1236302" lon="13.7532054"><ele>81.0</ele><time>2026-04-12T10:15:43.983Z</time></trkpt><trkpt lat="45.1237138" lon="13.7531382"><ele>81.0</ele><time>2026-04-12T10:15:44.978Z</time></trkpt><trkpt lat="45.1238151" lon="13.7530515"><ele>81.0</ele><time>2026-04-12T10:15:45.979Z</time></trkpt><trkpt lat="45.1239115" lon="13.7529558"><ele>81.0</ele><time>2026-04-12T10:15:46.974Z</time></trkpt><trkpt lat="45.124008" lon="13.7528523"><ele>80.5</ele><time>2026-04-12T10:15:47.981Z</time></trkpt><trkpt lat="45.1241008" lon="13.7527373"><ele>80.0</ele><time>2026-04-12T10:15:48.981Z</time></trkpt><trkpt lat="45.1241954" lon="13.7526115"><ele>79.5</ele><time>2026-04-12T10:15:49.982Z</time></trkpt><trkpt lat="45.1242854" lon="13.7524739"><ele>79.0</ele><time>2026-04-12T10:15:50.985Z</time></trkpt><trkpt lat="45.1243708" lon="13.7523214"><ele>79.0</ele><time>2026-04-12T10:15:51.98Z</time></trkpt><trkpt lat="45.1244507" lon="13.7521605"><ele>79.0</ele><time>2026-04-12T10:15:52.978Z</time></trkpt><trkpt lat="45.1245225" lon="13.7519913"><ele>79.0</ele><time>2026-04-12T10:15:53.975Z</time></trkpt><trkpt lat="45.1245919" lon="13.751813"><ele>79.0</ele><time>2026-04-12T10:15:54.98Z</time></trkpt><trkpt lat="45.1246533" lon="13.7516262"><ele>75.25</ele><time>2026-04-12T10:15:55.979Z</time></trkpt><trkpt lat="45.1247179" lon="13.751435"><ele>71.5</ele><time>2026-04-12T10:15:56.982Z</time></trkpt><trkpt lat="45.1247872" lon="13.7512499"><ele>67.75</ele><time>2026-04-12T10:15:57.981Z</time></trkpt><trkpt lat="45.1248585" lon="13.7510752"><ele>64.0</ele><time>2026-04-12T10:15:58.978Z</time></trkpt><trkpt lat="45.1249367" lon="13.7509108"><ele>64.0</ele><time>2026-04-12T10:15:59.976Z</time></trkpt><trkpt lat="45.1250228" lon="13.7507608"><ele>64.0</ele><time>2026-04-12T10:16:00.981Z</time></trkpt><trkpt lat="45.1251175" lon="13.750615"><ele>64.0</ele><time>2026-04-12T10:16:01.975Z</time></trkpt><trkpt lat="45.1252281" lon="13.7504823"><ele>64.0</ele><time>2026-04-12T10:16:02.98Z</time></trkpt><trkpt lat="45.1253457" lon="13.750357"><ele>64.0</ele><time>2026-04-12T10:16:03.974Z</time></trkpt><trkpt lat="45.125471" lon="13.7502466"><ele>64.0</ele><time>2026-04-12T10:16:04.985Z</time></trkpt><trkpt lat="45.1256108" lon="13.7501433"><ele>64.0</ele><time>2026-04-12T10:16:05.975Z</time></trkpt><trkpt lat="45.1257517" lon="13.7500366"><ele>62.0</ele><time>2026-04-12T10:16:06.98Z</time></trkpt><trkpt lat="45.1258947" lon="13.7499235"><ele>60.0</ele><time>2026-04-12T10:16:07.978Z</time></trkpt><trkpt lat="45.1260333" lon="13.7498143"><ele>58.0</ele><time>2026-04-12T10:16:08.976Z</time></trkpt><trkpt lat="45.1261751" lon="13.7497063"><ele>58.0</ele><time>2026-04-12T10:16:09.983Z</time></trkpt><trkpt lat="45.1263201" lon="13.7495947"><ele>58.0</ele><time>2026-04-12T10:16:10.984Z</time></trkpt><trkpt lat="45.1264644" lon="13.7494919"><ele>58.0</ele><time>2026-04-12T10:16:11.98Z</time></trkpt><trkpt lat="45.1265988" lon="13.7493957"><ele>56.75</ele><time>2026-04-12T10:16:12.976Z</time></trkpt><trkpt lat="45.1267249" lon="13.7492965"><ele>55.5</ele><time>2026-04-12T10:16:13.976Z</time></trkpt><trkpt lat="45.1268428" lon="13.7491888"><ele>54.25</ele><time>2026-04-12T10:16:14.992Z</time></trkpt><trkpt lat="45.1269449" lon="13.7490637"><ele>53.0</ele><time>2026-04-12T10:16:15.979Z</time></trkpt><trkpt lat="45.1270393" lon="13.7489062"><ele>53.0</ele><time>2026-04-12T10:16:16.986Z</time></trkpt><trkpt lat="45.1271222" lon="13.7487227"><ele>53.0</ele><time>2026-04-12T10:16:17.978Z</time></trkpt><trkpt lat="45.1271688" lon="13.7485285"><ele>53.0</ele><time>2026-04-12T10:16:18.974Z</time></trkpt><trkpt lat="45.1271847" lon="13.7483288"><ele>53.0</ele><time>2026-04-12T10:16:19.978Z</time></trkpt><trkpt lat="45.1271746" lon="13.7481149"><ele>57.333333333333336</ele><time>2026-04-12T10:16:20.98Z</time></trkpt><trkpt lat="45.1271443" lon="13.7478963"><ele>61.66666666666667</ele><time>2026-04-12T10:16:21.98Z</time></trkpt><trkpt lat="45.1271014" lon="13.7476824"><ele>66.0</ele><time>2026-04-12T10:16:22.977Z</time></trkpt><trkpt lat="45.1270596" lon="13.747462"><ele>66.0</ele><time>2026-04-12T10:16:23.977Z</time></trkpt><trkpt lat="45.1270269" lon="13.7472336"><ele>66.0</ele><time>2026-04-12T10:16:24.977Z</time></trkpt><trkpt lat="45.1270197" lon="13.7469994"><ele>66.0</ele><time>2026-04-12T10:16:25.977Z</time></trkpt><trkpt lat="45.1270186" lon="13.7467557"><ele>64.66666666666667</ele><time>2026-04-12T10:16:26.975Z</time></trkpt><trkpt lat="45.1270396" lon="13.7464989"><ele>63.333333333333336</ele><time>2026-04-12T10:16:27.992Z</time></trkpt><trkpt lat="45.1270697" lon="13.746255"><ele>62.0</ele><time>2026-04-12T10:16:28.975Z</time></trkpt><trkpt lat="45.1270962" lon="13.7460255"><ele>61.66666666666667</ele><time>2026-04-12T10:16:29.989Z</time></trkpt><trkpt lat="45.1271225" lon="13.7458055"><ele>61.33333333333333</ele><time>2026-04-12T10:16:30.981Z</time></trkpt><trkpt lat="45.1271601" lon="13.7455992"><ele>61.0</ele><time>2026-04-12T10:16:31.981Z</time></trkpt><trkpt lat="45.1272247" lon="13.7454084"><ele>61.0</ele><time>2026-04-12T10:16:32.981Z</time></trkpt><trkpt lat="45.1273168" lon="13.745226"><ele>61.0</ele><time>2026-04-12T10:16:33.979Z</time></trkpt><trkpt lat="45.1274262" lon="13.7450495"><ele>61.0</ele><time>2026-04-12T10:16:34.983Z</time></trkpt><trkpt lat="45.1275546" lon="13.744891"><ele>49.33333333333333</ele><time>2026-04-12T10:16:35.98Z</time></trkpt><trkpt lat="45.1276949" lon="13.7447466"><ele>37.666666666666664</ele><time>2026-04-12T10:16:36.982Z</time></trkpt><trkpt lat="45.1278398" lon="13.7446022"><ele>26.0</ele><time>2026-04-12T10:16:37.978Z</time></trkpt><trkpt lat="45.1279875" lon="13.7444526"><ele>25.333333333333332</ele><time>2026-04-12T10:16:38.979Z</time></trkpt><trkpt lat="45.1281382" lon="13.7443009"><ele>24.666666666666664</ele><time>2026-04-12T10:16:39.984Z</time></trkpt><trkpt lat="45.1282904" lon="13.7441488"><ele>24.0</ele><time>2026-04-12T10:16:40.98Z</time></trkpt><trkpt lat="45.1284429" lon="13.743999"><ele>24.0</ele><time>2026-04-12T10:16:41.979Z</time></trkpt><trkpt lat="45.1285957" lon="13.7438532"><ele>24.0</ele><time>2026-04-12T10:16:42.98Z</time></trkpt><trkpt lat="45.1287483" lon="13.7437053"><ele>24.0</ele><time>2026-04-12T10:16:43.978Z</time></trkpt><trkpt lat="45.1288755" lon="13.7435393"><ele>24.333333333333336</ele><time>2026-04-12T10:16:44.977Z</time></trkpt><trkpt lat="45.1289792" lon="13.7433446"><ele>24.666666666666668</ele><time>2026-04-12T10:16:45.977Z</time></trkpt><trkpt lat="45.1290584" lon="13.7431268"><ele>25.0</ele><time>2026-04-12T10:16:46.976Z</time></trkpt><trkpt lat="45.1291197" lon="13.7428885"><ele>22.666666666666668</ele><time>2026-04-12T10:16:47.982Z</time></trkpt><trkpt lat="45.1291755" lon="13.7426423"><ele>20.333333333333336</ele><time>2026-04-12T10:16:48.976Z</time></trkpt><trkpt lat="45.1292282" lon="13.7423948"><ele>18.0</ele><time>2026-04-12T10:16:49.98Z</time></trkpt><trkpt lat="45.1292862" lon="13.7421426"><ele>18.0</ele><time>2026-04-12T10:16:50.98Z</time></trkpt><trkpt lat="45.1293397" lon="13.7419024"><ele>18.0</ele><time>2026-04-12T10:16:51.982Z</time></trkpt><trkpt lat="45.1293934" lon="13.7416654"><ele>18.0</ele><time>2026-04-12T10:16:52.98Z</time></trkpt><trkpt lat="45.1294406" lon="13.7414451"><ele>17.333333333333332</ele><time>2026-04-12T10:16:53.974Z</time></trkpt><trkpt lat="45.1294716" lon="13.7412302"><ele>16.666666666666664</ele><time>2026-04-12T10:16:54.977Z</time></trkpt><trkpt lat="45.1294727" lon="13.7410098"><ele>16.0</ele><time>2026-04-12T10:16:55.976Z</time></trkpt><trkpt lat="45.1294611" lon="13.7407884"><ele>15.0</ele><time>2026-04-12T10:16:56.978Z</time></trkpt><trkpt lat="45.1294535" lon="13.7405659"><ele>14.0</ele><time>2026-04-12T10:16:57.977Z</time></trkpt><trkpt lat="45.1294642" lon="13.7403482"><ele>13.0</ele><time>2026-04-12T10:16:58.977Z</time></trkpt><trkpt lat="45.1294988" lon="13.7401437"><ele>12.25</ele><time>2026-04-12T10:16:59.981Z</time></trkpt><trkpt lat="45.1295712" lon="13.7399618"><ele>11.5</ele><time>2026-04-12T10:17:00.976Z</time></trkpt><trkpt lat="45.1296693" lon="13.7398057"><ele>10.75</ele><time>2026-04-12T10:17:01.979Z</time></trkpt><trkpt lat="45.1297844" lon="13.7396708"><ele>10.0</ele><time>2026-04-12T10:17:02.975Z</time></trkpt><trkpt lat="45.129904" lon="13.7395286"><ele>13.666666666666668</ele><time>2026-04-12T10:17:03.981Z</time></trkpt><trkpt lat="45.1300218" lon="13.7393838"><ele>17.333333333333332</ele><time>2026-04-12T10:17:04.978Z</time></trkpt><trkpt lat="45.1301452" lon="13.7392403"><ele>21.0</ele><time>2026-04-12T10:17:05.98Z</time></trkpt><trkpt lat="45.13027" lon="13.739096"><ele>21.0</ele><time>2026-04-12T10:17:06.977Z</time></trkpt><trkpt lat="45.1303949" lon="13.7389466"><ele>21.0</ele><time>2026-04-12T10:17:07.979Z</time></trkpt><trkpt lat="45.130523" lon="13.7387931"><ele>21.0</ele><time>2026-04-12T10:17:08.981Z</time></trkpt><trkpt lat="45.1306487" lon="13.7386366"><ele>25.333333333333336</ele><time>2026-04-12T10:17:09.976Z</time></trkpt><trkpt lat="45.1307792" lon="13.7384788"><ele>29.666666666666668</ele><time>2026-04-12T10:17:10.989Z</time></trkpt><trkpt lat="45.1309095" lon="13.7383122"><ele>34.0</ele><time>2026-04-12T10:17:11.974Z</time></trkpt><trkpt lat="45.1310416" lon="13.7381376"><ele>34.0</ele><time>2026-04-12T10:17:12.979Z</time></trkpt><trkpt lat="45.1311726" lon="13.7379508"><ele>34.0</ele><time>2026-04-12T10:17:13.984Z</time></trkpt><trkpt lat="45.1313001" lon="13.7377606"><ele>34.0</ele><time>2026-04-12T10:17:14.977Z</time></trkpt><trkpt lat="45.1314289" lon="13.7375703"><ele>40.333333333333336</ele><time>2026-04-12T10:17:15.977Z</time></trkpt><trkpt lat="45.1315584" lon="13.7373785"><ele>46.66666666666667</ele><time>2026-04-12T10:17:16.981Z</time></trkpt><trkpt lat="45.1316878" lon="13.7371912"><ele>53.0</ele><time>2026-04-12T10:17:17.982Z</time></trkpt><trkpt lat="45.1318204" lon="13.737013"><ele>45.66666666666667</ele><time>2026-04-12T10:17:18.983Z</time></trkpt><trkpt lat="45.1319692" lon="13.7368649"><ele>38.333333333333336</ele><time>2026-04-12T10:17:19.985Z</time></trkpt><trkpt lat="45.1321288" lon="13.7367495"><ele>31.0</ele><time>2026-04-12T10:17:20.978Z</time></trkpt><trkpt lat="45.1322969" lon="13.7366609"><ele>38.0</ele><time>2026-04-12T10:17:21.983Z</time></trkpt><trkpt lat="45.1324678" lon="13.7365861"><ele>45.0</ele><time>2026-04-12T10:17:22.979Z</time></trkpt><trkpt lat="45.1326418" lon="13.7365347"><ele>52.0</ele><time>2026-04-12T10:17:23.974Z</time></trkpt><trkpt lat="45.1327998" lon="13.7365144"><ele>52.0</ele><time>2026-04-12T10:17:24.98Z</time></trkpt><trkpt lat="45.1329411" lon="13.7365311"><ele>52.0</ele><time>2026-04-12T10:17:25.977Z</time></trkpt><trkpt lat="45.1330797" lon="13.7365713"><ele>52.0</ele><time>2026-04-12T10:17:26.982Z</time></trkpt><trkpt lat="45.1332136" lon="13.7365972"><ele>52.0</ele><time>2026-04-12T10:17:27.978Z</time></trkpt><trkpt lat="45.1333377" lon="13.73659"><ele>53.75</ele><time>2026-04-12T10:17:28.981Z</time></trkpt><trkpt lat="45.1334537" lon="13.7365384"><ele>55.5</ele><time>2026-04-12T10:17:29.984Z</time></trkpt><trkpt lat="45.1335558" lon="13.7364396"><ele>57.25</ele><time>2026-04-12T10:17:30.985Z</time></trkpt><trkpt lat="45.1336353" lon="13.7363081"><ele>59.0</ele><time>2026-04-12T10:17:31.976Z</time></trkpt><trkpt lat="45.1336852" lon="13.7361537"><ele>55.75</ele><time>2026-04-12T10:17:32.977Z</time></trkpt><trkpt lat="45.1336969" lon="13.7359694"><ele>52.5</ele><time>2026-04-12T10:17:33.979Z</time></trkpt><trkpt lat="45.1337046" lon="13.7357613"><ele>49.25</ele><time>2026-04-12T10:17:34.981Z</time></trkpt><trkpt lat="45.1337105" lon="13.7355476"><ele>46.0</ele><time>2026-04-12T10:17:35.975Z</time></trkpt><trkpt lat="45.1337167" lon="13.7353313"><ele>46.0</ele><time>2026-04-12T10:17:36.976Z</time></trkpt><trkpt lat="45.1337176" lon="13.7351209"><ele>46.0</ele><time>2026-04-12T10:17:37.977Z</time></trkpt><trkpt lat="45.133724" lon="13.7349135"><ele>46.0</ele><time>2026-04-12T10:17:38.976Z</time></trkpt><trkpt lat="45.1337343" lon="13.7347215"><ele>46.0</ele><time>2026-04-12T10:17:39.98Z</time></trkpt><trkpt lat="45.1337433" lon="13.7345357"><ele>46.25</ele><time>2026-04-12T10:17:40.979Z</time></trkpt><trkpt lat="45.1337457" lon="13.7343533"><ele>46.5</ele><time>2026-04-12T10:17:41.977Z</time></trkpt><trkpt lat="45.1337495" lon="13.734179"><ele>46.75</ele><time>2026-04-12T10:17:42.978Z</time></trkpt><trkpt lat="45.1337581" lon="13.734009"><ele>47.0</ele><time>2026-04-12T10:17:43.982Z</time></trkpt><trkpt lat="45.1337785" lon="13.7338451"><ele>47.0</ele><time>2026-04-12T10:17:44.975Z</time></trkpt><trkpt lat="45.1338242" lon="13.7336877"><ele>47.0</ele><time>2026-04-12T10:17:45.981Z</time></trkpt><trkpt lat="45.1338875" lon="13.7335428"><ele>47.0</ele><time>2026-04-12T10:17:46.977Z</time></trkpt><trkpt lat="45.1339585" lon="13.7333998"><ele>47.0</ele><time>2026-04-12T10:17:47.98Z</time></trkpt><trkpt lat="45.1340418" lon="13.7332626"><ele>54.5</ele><time>2026-04-12T10:17:48.98Z</time></trkpt><trkpt lat="45.1341433" lon="13.7331462"><ele>62.0</ele><time>2026-04-12T10:17:49.976Z</time></trkpt><trkpt lat="45.1342571" lon="13.7330423"><ele>69.5</ele><time>2026-04-12T10:17:50.977Z</time></trkpt><trkpt lat="45.1343785" lon="13.7329385"><ele>77.0</ele><time>2026-04-12T10:17:51.979Z</time></trkpt><trkpt lat="45.1344957" lon="13.7328271"><ele>80.25</ele><time>2026-04-12T10:17:52.981Z</time></trkpt><trkpt lat="45.134608" lon="13.7327014"><ele>83.5</ele><time>2026-04-12T10:17:53.978Z</time></trkpt><trkpt lat="45.1347114" lon="13.7325638"><ele>86.75</ele><time>2026-04-12T10:17:54.979Z</time></trkpt><trkpt lat="45.1348127" lon="13.7324194"><ele>90.0</ele><time>2026-04-12T10:17:55.977Z</time></trkpt><trkpt lat="45.1349159" lon="13.7322735"><ele>90.0</ele><time>2026-04-12T10:17:56.976Z</time></trkpt><trkpt lat="45.1350269" lon="13.7321267"><ele>90.0</ele><time>2026-04-12T10:17:57.978Z</time></trkpt><trkpt lat="45.1351385" lon="13.7319785"><ele>90.0</ele><time>2026-04-12T10:17:58.984Z</time></trkpt><trkpt lat="45.1352525" lon="13.7318188"><ele>84.0</ele><time>2026-04-12T10:17:59.977Z</time></trkpt><trkpt lat="45.1353617" lon="13.7316579"><ele>78.0</ele><time>2026-04-12T10:18:00.984Z</time></trkpt><trkpt lat="45.1354656" lon="13.7314867"><ele>72.0</ele><time>2026-04-12T10:18:01.977Z</time></trkpt><trkpt lat="45.1355619" lon="13.7313065"><ele>72.0</ele><time>2026-04-12T10:18:02.979Z</time></trkpt><trkpt lat="45.1356506" lon="13.731113"><ele>72.0</ele><time>2026-04-12T10:18:03.981Z</time></trkpt><trkpt lat="45.13573" lon="13.7309171"><ele>72.0</ele><time>2026-04-12T10:18:04.977Z</time></trkpt><trkpt lat="45.1357995" lon="13.7307144"><ele>76.33333333333333</ele><time>2026-04-12T10:18:05.978Z</time></trkpt><trkpt lat="45.1358614" lon="13.7305039"><ele>80.66666666666666</ele><time>2026-04-12T10:18:06.978Z</time></trkpt><trkpt lat="45.1359155" lon="13.7302918"><ele>85.0</ele><time>2026-04-12T10:18:07.98Z</time></trkpt><trkpt lat="45.1359703" lon="13.7300771"><ele>85.0</ele><time>2026-04-12T10:18:08.976Z</time></trkpt><trkpt lat="45.1360214" lon="13.7298617"><ele>85.0</ele><time>2026-04-12T10:18:09.981Z</time></trkpt><trkpt lat="45.136074" lon="13.7296486"><ele>85.0</ele><time>2026-04-12T10:18:10.981Z</time></trkpt><trkpt lat="45.1361253" lon="13.729439"><ele>82.33333333333333</ele><time>2026-04-12T10:18:11.983Z</time></trkpt><trkpt lat="45.1361805" lon="13.7292313"><ele>79.66666666666667</ele><time>2026-04-12T10:18:12.979Z</time></trkpt><trkpt lat="45.1362383" lon="13.729022"><ele>77.0</ele><time>2026-04-12T10:18:13.981Z</time></trkpt><trkpt lat="45.1363024" lon="13.7288203"><ele>77.0</ele><time>2026-04-12T10:18:14.981Z</time></trkpt><trkpt lat="45.13638" lon="13.728629"><ele>77.0</ele><time>2026-04-12T10:18:15.979Z</time></trkpt><trkpt lat="45.1364626" lon="13.7284471"><ele>77.0</ele><time>2026-04-12T10:18:16.983Z</time></trkpt><trkpt lat="45.1365482" lon="13.7282655"><ele>86.0</ele><time>2026-04-12T10:18:17.978Z</time></trkpt><trkpt lat="45.1366347" lon="13.7280864"><ele>95.0</ele><time>2026-04-12T10:18:18.98Z</time></trkpt><trkpt lat="45.1367224" lon="13.7279122"><ele>104.0</ele><time>2026-04-12T10:18:19.98Z</time></trkpt><trkpt lat="45.1368257" lon="13.727754"><ele>101.0</ele><time>2026-04-12T10:18:20.98Z</time></trkpt><trkpt lat="45.1369392" lon="13.7276099"><ele>98.0</ele><time>2026-04-12T10:18:21.979Z</time></trkpt><trkpt lat="45.1370522" lon="13.7274719"><ele>95.0</ele><time>2026-04-12T10:18:22.976Z</time></trkpt><trkpt lat="45.1371518" lon="13.7273252"><ele>92.0</ele><time>2026-04-12T10:18:23.981Z</time></trkpt><trkpt lat="45.1372317" lon="13.7271498"><ele>92.0</ele><time>2026-04-12T10:18:24.982Z</time></trkpt><trkpt lat="45.1372936" lon="13.7269636"><ele>92.0</ele><time>2026-04-12T10:18:25.978Z</time></trkpt><trkpt lat="45.1373459" lon="13.7267683"><ele>92.0</ele><time>2026-04-12T10:18:26.983Z</time></trkpt><trkpt lat="45.1373958" lon="13.7265721"><ele>92.0</ele><time>2026-04-12T10:18:27.977Z</time></trkpt><trkpt lat="45.1374476" lon="13.7263713"><ele>96.25</ele><time>2026-04-12T10:18:28.976Z</time></trkpt><trkpt lat="45.137497" lon="13.7261716"><ele>100.5</ele><time>2026-04-12T10:18:29.981Z</time></trkpt><trkpt lat="45.1375528" lon="13.7259726"><ele>104.75</ele><time>2026-04-12T10:18:30.978Z</time></trkpt><trkpt lat="45.1376025" lon="13.7257816"><ele>109.0</ele><time>2026-04-12T10:18:31.983Z</time></trkpt><trkpt lat="45.1376456" lon="13.7255965"><ele>109.0</ele><time>2026-04-12T10:18:32.991Z</time></trkpt><trkpt lat="45.1376864" lon="13.7254303"><ele>109.0</ele><time>2026-04-12T10:18:33.982Z</time></trkpt><trkpt lat="45.1377332" lon="13.7252684"><ele>109.0</ele><time>2026-04-12T10:18:34.981Z</time></trkpt><trkpt lat="45.1377935" lon="13.7251083"><ele>109.0</ele><time>2026-04-12T10:18:35.979Z</time></trkpt><trkpt lat="45.1378717" lon="13.7249628"><ele>108.0</ele><time>2026-04-12T10:18:36.975Z</time></trkpt><trkpt lat="45.1379638" lon="13.72484"><ele>107.0</ele><time>2026-04-12T10:18:37.979Z</time></trkpt><trkpt lat="45.1380652" lon="13.7247395"><ele>106.0</ele><time>2026-04-12T10:18:38.98Z</time></trkpt><trkpt lat="45.1381787" lon="13.7246603"><ele>105.0</ele><time>2026-04-12T10:18:39.982Z</time></trkpt><trkpt lat="45.1382946" lon="13.7245952"><ele>107.8</ele><time>2026-04-12T10:18:40.981Z</time></trkpt><trkpt lat="45.1383994" lon="13.7245267"><ele>110.6</ele><time>2026-04-12T10:18:41.977Z</time></trkpt><trkpt lat="45.1384954" lon="13.7244665"><ele>113.4</ele><time>2026-04-12T10:18:42.98Z</time></trkpt><trkpt lat="45.1385874" lon="13.7244154"><ele>116.2</ele><time>2026-04-12T10:18:43.978Z</time></trkpt><trkpt lat="45.1386758" lon="13.7243626"><ele>119.0</ele><time>2026-04-12T10:18:44.981Z</time></trkpt><trkpt lat="45.1387707" lon="13.7243043"><ele>118.99999999999999</ele><time>2026-04-12T10:18:45.982Z</time></trkpt><trkpt lat="45.1388627" lon="13.7242474"><ele>119.0</ele><time>2026-04-12T10:18:46.98Z</time></trkpt><trkpt lat="45.1389466" lon="13.7241986"><ele>119.0</ele><time>2026-04-12T10:18:47.978Z</time></trkpt><trkpt lat="45.1390272" lon="13.724152"><ele>119.0</ele><time>2026-04-12T10:18:48.976Z</time></trkpt><trkpt lat="45.1390913" lon="13.7241139"><ele>118.99999999999999</ele><time>2026-04-12T10:18:49.985Z</time></trkpt><trkpt lat="45.139141" lon="13.7240156"><ele>119.0</ele><time>2026-04-12T10:18:51.979Z</time></trkpt><trkpt lat="45.1390813" lon="13.7239696"><ele>119.0</ele><time>2026-04-12T10:18:53.985Z</time></trkpt><trkpt lat="45.1389995" lon="13.7240705"><ele>119.0</ele><time>2026-04-12T10:18:55.978Z</time></trkpt><trkpt lat="45.1389316" lon="13.7241368"><ele>119.0</ele><time>2026-04-12T10:18:56.987Z</time></trkpt><trkpt lat="45.1388392" lon="13.7242121"><ele>119.0</ele><time>2026-04-12T10:18:57.983Z</time></trkpt><trkpt lat="45.1387373" lon="13.724285"><ele>119.0</ele><time>2026-04-12T10:18:58.976Z</time></trkpt><trkpt lat="45.1386504" lon="13.724346"><ele>118.99999999999999</ele><time>2026-04-12T10:18:59.984Z</time></trkpt><trkpt lat="45.1385757" lon="13.7243859"><ele>119.0</ele><time>2026-04-12T10:19:00.979Z</time></trkpt><trkpt lat="45.1385169" lon="13.7244257"><ele>119.0</ele><time>2026-04-12T10:19:01.98Z</time></trkpt><trkpt lat="45.1384442" lon="13.7245248"><ele>119.0</ele><time>2026-04-12T10:19:03.982Z</time></trkpt><trkpt lat="45.1384818" lon="13.7246381"><ele>118.99999999999999</ele><time>2026-04-12T10:19:05.976Z</time></trkpt><trkpt lat="45.1385386" lon="13.7247736"><ele>119.0</ele><time>2026-04-12T10:19:07.986Z</time></trkpt><trkpt lat="45.1385818" lon="13.7248556"><ele>119.49999999999999</ele><time>2026-04-12T10:19:08.987Z</time></trkpt><trkpt lat="45.1386251" lon="13.7249435"><ele>120.0</ele><time>2026-04-12T10:19:09.978Z</time></trkpt><trkpt lat="45.1386696" lon="13.7250289"><ele>120.5</ele><time>2026-04-12T10:19:10.978Z</time></trkpt><trkpt lat="45.1387225" lon="13.7251123"><ele>121.0</ele><time>2026-04-12T10:19:11.977Z</time></trkpt><trkpt lat="45.1387822" lon="13.7251971"><ele>121.49999999999999</ele><time>2026-04-12T10:19:12.982Z</time></trkpt><trkpt lat="45.1388489" lon="13.7252775"><ele>122.0</ele><time>2026-04-12T10:19:13.977Z</time></trkpt><trkpt lat="45.1389121" lon="13.7253616"><ele>122.6</ele><time>2026-04-12T10:19:14.975Z</time></trkpt><trkpt lat="45.1389835" lon="13.7254333"><ele>123.19999999999999</ele><time>2026-04-12T10:19:15.977Z</time></trkpt><trkpt lat="45.1390521" lon="13.7255029"><ele>123.8</ele><time>2026-04-12T10:19:16.98Z</time></trkpt><trkpt lat="45.139127" lon="13.7255722"><ele>124.4</ele><time>2026-04-12T10:19:17.978Z</time></trkpt><trkpt lat="45.1392062" lon="13.72565"><ele>125.0</ele><time>2026-04-12T10:19:18.978Z</time></trkpt><trkpt lat="45.1392851" lon="13.7257413"><ele>125.4</ele><time>2026-04-12T10:19:19.976Z</time></trkpt><trkpt lat="45.1393718" lon="13.7258383"><ele>125.8</ele><time>2026-04-12T10:19:20.979Z</time></trkpt><trkpt lat="45.1394565" lon="13.7259355"><ele>126.19999999999999</ele><time>2026-04-12T10:19:21.98Z</time></trkpt><trkpt lat="45.1395364" lon="13.7260303"><ele>126.6</ele><time>2026-04-12T10:19:22.976Z</time></trkpt><trkpt lat="45.1396175" lon="13.7261115"><ele>127.0</ele><time>2026-04-12T10:19:23.98Z</time></trkpt><trkpt lat="45.1397056" lon="13.7261861"><ele>127.0</ele><time>2026-04-12T10:19:24.98Z</time></trkpt><trkpt lat="45.1398069" lon="13.7262629"><ele>126.99999999999999</ele><time>2026-04-12T10:19:25.988Z</time></trkpt><trkpt lat="45.1399165" lon="13.7263237"><ele>126.99999999999999</ele><time>2026-04-12T10:19:26.982Z</time></trkpt><trkpt lat="45.1400186" lon="13.7263625"><ele>127.0</ele><time>2026-04-12T10:19:27.979Z</time></trkpt><trkpt lat="45.1401118" lon="13.7263649"><ele>127.0</ele><time>2026-04-12T10:19:28.98Z</time></trkpt><trkpt lat="45.1401908" lon="13.7263542"><ele>127.16666666666667</ele><time>2026-04-12T10:19:29.98Z</time></trkpt><trkpt lat="45.1402583" lon="13.7263531"><ele>127.33333333333334</ele><time>2026-04-12T10:19:30.979Z</time></trkpt><trkpt lat="45.1403899" lon="13.7263724"><ele>127.5</ele><time>2026-04-12T10:19:32.979Z</time></trkpt><trkpt lat="45.1404747" lon="13.7263866"><ele>127.66666666666666</ele><time>2026-04-12T10:19:33.982Z</time></trkpt><trkpt lat="45.1405419" lon="13.7264387"><ele>127.83333333333333</ele><time>2026-04-12T10:19:34.977Z</time></trkpt><trkpt lat="45.1406004" lon="13.7265007"><ele>128.0</ele><time>2026-04-12T10:19:35.978Z</time></trkpt><trkpt lat="45.1406653" lon="13.7265631"><ele>128.6</ele><time>2026-04-12T10:19:36.976Z</time></trkpt><trkpt lat="45.1407349" lon="13.7266402"><ele>129.20000000000002</ele><time>2026-04-12T10:19:37.975Z</time></trkpt><trkpt lat="45.1408011" lon="13.7267328"><ele>129.8</ele><time>2026-04-12T10:19:38.976Z</time></trkpt><trkpt lat="45.1408662" lon="13.7268437"><ele>130.4</ele><time>2026-04-12T10:19:39.979Z</time></trkpt><trkpt lat="45.140932" lon="13.7269783"><ele>131.0</ele><time>2026-04-12T10:19:40.975Z</time></trkpt><trkpt lat="45.1409961" lon="13.7271357"><ele>131.5</ele><time>2026-04-12T10:19:41.977Z</time></trkpt><trkpt lat="45.141054" lon="13.7273033"><ele>132.0</ele><time>2026-04-12T10:19:42.984Z</time></trkpt><trkpt lat="45.1411235" lon="13.7274727"><ele>132.5</ele><time>2026-04-12T10:19:43.985Z</time></trkpt><trkpt lat="45.1411865" lon="13.7276197"><ele>133.0</ele><time>2026-04-12T10:19:44.976Z</time></trkpt><trkpt lat="45.1412537" lon="13.7277567"><ele>133.4</ele><time>2026-04-12T10:19:45.979Z</time></trkpt><trkpt lat="45.1413268" lon="13.7278549"><ele>133.8</ele><time>2026-04-12T10:19:46.98Z</time></trkpt><trkpt lat="45.1414077" lon="13.7279365"><ele>134.2</ele><time>2026-04-12T10:19:47.981Z</time></trkpt><trkpt lat="45.1415064" lon="13.7279959"><ele>134.6</ele><time>2026-04-12T10:19:48.98Z</time></trkpt><trkpt lat="45.1416159" lon="13.728043"><ele>135.0</ele><time>2026-04-12T10:19:49.974Z</time></trkpt><trkpt lat="45.1417255" lon="13.7281083"><ele>135.75</ele><time>2026-04-12T10:19:50.976Z</time></trkpt><trkpt lat="45.1418238" lon="13.7281843"><ele>136.5</ele><time>2026-04-12T10:19:51.984Z</time></trkpt><trkpt lat="45.1418967" lon="13.7282816"><ele>137.25</ele><time>2026-04-12T10:19:52.978Z</time></trkpt><trkpt lat="45.1419667" lon="13.7284079"><ele>138.0</ele><time>2026-04-12T10:19:53.986Z</time></trkpt><trkpt lat="45.1420342" lon="13.7285574"><ele>138.0</ele><time>2026-04-12T10:19:54.977Z</time></trkpt><trkpt lat="45.142104" lon="13.7287192"><ele>138.0</ele><time>2026-04-12T10:19:55.98Z</time></trkpt><trkpt lat="45.1421887" lon="13.7289093"><ele>138.0</ele><time>2026-04-12T10:19:56.979Z</time></trkpt><trkpt lat="45.1422734" lon="13.7291052"><ele>138.0</ele><time>2026-04-12T10:19:57.979Z</time></trkpt><trkpt lat="45.1423482" lon="13.7292846"><ele>138.0</ele><time>2026-04-12T10:19:58.979Z</time></trkpt><trkpt lat="45.1424193" lon="13.7294801"><ele>138.0</ele><time>2026-04-12T10:19:59.98Z</time></trkpt><trkpt lat="45.1424907" lon="13.7296826"><ele>138.33333333333334</ele><time>2026-04-12T10:20:00.981Z</time></trkpt><trkpt lat="45.1425635" lon="13.7298873"><ele>138.66666666666669</ele><time>2026-04-12T10:20:01.979Z</time></trkpt><trkpt lat="45.1426413" lon="13.7300835"><ele>139.0</ele><time>2026-04-12T10:20:02.986Z</time></trkpt><trkpt lat="45.1427214" lon="13.7302657"><ele>139.33333333333334</ele><time>2026-04-12T10:20:03.979Z</time></trkpt><trkpt lat="45.1428069" lon="13.730448"><ele>139.66666666666666</ele><time>2026-04-12T10:20:04.977Z</time></trkpt><trkpt lat="45.1428993" lon="13.7306342"><ele>140.0</ele><time>2026-04-12T10:20:05.977Z</time></trkpt><trkpt lat="45.1430042" lon="13.7308099"><ele>140.0</ele><time>2026-04-12T10:20:06.977Z</time></trkpt><trkpt lat="45.1430961" lon="13.7309804"><ele>140.0</ele><time>2026-04-12T10:20:07.98Z</time></trkpt><trkpt lat="45.143187" lon="13.7311334"><ele>140.0</ele><time>2026-04-12T10:20:08.979Z</time></trkpt><trkpt lat="45.1432792" lon="13.7312571"><ele>140.0</ele><time>2026-04-12T10:20:09.977Z</time></trkpt><trkpt lat="45.1433798" lon="13.7313584"><ele>140.5</ele><time>2026-04-12T10:20:10.978Z</time></trkpt><trkpt lat="45.1434904" lon="13.7314276"><ele>141.0</ele><time>2026-04-12T10:20:11.98Z</time></trkpt><trkpt lat="45.1436148" lon="13.7314785"><ele>141.5</ele><time>2026-04-12T10:20:12.98Z</time></trkpt><trkpt lat="45.1437438" lon="13.7315275"><ele>142.0</ele><time>2026-04-12T10:20:13.977Z</time></trkpt><trkpt lat="45.1438709" lon="13.7316004"><ele>142.0</ele><time>2026-04-12T10:20:14.977Z</time></trkpt><trkpt lat="45.1440033" lon="13.7316957"><ele>142.0</ele><time>2026-04-12T10:20:15.976Z</time></trkpt><trkpt lat="45.1441271" lon="13.7317947"><ele>142.0</ele><time>2026-04-12T10:20:16.987Z</time></trkpt><trkpt lat="45.1442503" lon="13.7318833"><ele>142.0</ele><time>2026-04-12T10:20:17.981Z</time></trkpt><trkpt lat="45.1443824" lon="13.7319787"><ele>145.33333333333334</ele><time>2026-04-12T10:20:18.976Z</time></trkpt><trkpt lat="45.1445134" lon="13.7320766"><ele>148.66666666666666</ele><time>2026-04-12T10:20:19.979Z</time></trkpt><trkpt lat="45.1446469" lon="13.7321793"><ele>152.0</ele><time>2026-04-12T10:20:20.981Z</time></trkpt><trkpt lat="45.1447785" lon="13.7322822"><ele>151.5</ele><time>2026-04-12T10:20:21.98Z</time></trkpt><trkpt lat="45.1449012" lon="13.7323754"><ele>151.0</ele><time>2026-04-12T10:20:22.987Z</time></trkpt><trkpt lat="45.1450173" lon="13.7324815"><ele>150.5</ele><time>2026-04-12T10:20:23.982Z</time></trkpt><trkpt lat="45.1451278" lon="13.7326049"><ele>150.0</ele><time>2026-04-12T10:20:24.974Z</time></trkpt><trkpt lat="45.1452339" lon="13.7327487"><ele>152.25</ele><time>2026-04-12T10:20:25.977Z</time></trkpt><trkpt lat="45.1453405" lon="13.7328965"><ele>154.5</ele><time>2026-04-12T10:20:26.982Z</time></trkpt><trkpt lat="45.1454461" lon="13.7330446"><ele>156.75</ele><time>2026-04-12T10:20:27.985Z</time></trkpt><trkpt lat="45.1455551" lon="13.7331707"><ele>159.0</ele><time>2026-04-12T10:20:28.977Z</time></trkpt><trkpt lat="45.1456594" lon="13.7333118"><ele>156.75</ele><time>2026-04-12T10:20:29.982Z</time></trkpt><trkpt lat="45.1457712" lon="13.7334652"><ele>154.5</ele><time>2026-04-12T10:20:30.981Z</time></trkpt><trkpt lat="45.1458697" lon="13.7336298"><ele>152.25</ele><time>2026-04-12T10:20:31.984Z</time></trkpt><trkpt lat="45.145957" lon="13.7337837"><ele>150.0</ele><time>2026-04-12T10:20:32.985Z</time></trkpt><trkpt lat="45.1460458" lon="13.7339391"><ele>150.0</ele><time>2026-04-12T10:20:33.978Z</time></trkpt><trkpt lat="45.1461214" lon="13.7340741"><ele>150.0</ele><time>2026-04-12T10:20:34.982Z</time></trkpt><trkpt lat="45.1461821" lon="13.7341971"><ele>150.0</ele><time>2026-04-12T10:20:35.978Z</time></trkpt><trkpt lat="45.1462395" lon="13.7343259"><ele>150.0</ele><time>2026-04-12T10:20:36.979Z</time></trkpt><trkpt lat="45.1462924" lon="13.7344658"><ele>150.0</ele><time>2026-04-12T10:20:37.986Z</time></trkpt><trkpt lat="45.146335" lon="13.7346244"><ele>149.8</ele><time>2026-04-12T10:20:38.979Z</time></trkpt><trkpt lat="45.1463743" lon="13.7347741"><ele>149.6</ele><time>2026-04-12T10:20:39.983Z</time></trkpt><trkpt lat="45.1464141" lon="13.7349162"><ele>149.4</ele><time>2026-04-12T10:20:40.981Z</time></trkpt><trkpt lat="45.1464533" lon="13.735049"><ele>149.2</ele><time>2026-04-12T10:20:41.978Z</time></trkpt><trkpt lat="45.1464915" lon="13.7351759"><ele>149.0</ele><time>2026-04-12T10:20:42.98Z</time></trkpt><trkpt lat="45.1465304" lon="13.7353027"><ele>148.0</ele><time>2026-04-12T10:20:43.977Z</time></trkpt><trkpt lat="45.1465699" lon="13.7354175"><ele>147.0</ele><time>2026-04-12T10:20:44.977Z</time></trkpt><trkpt lat="45.1466061" lon="13.7355068"><ele>146.0</ele><time>2026-04-12T10:20:45.979Z</time></trkpt><trkpt lat="45.1466597" lon="13.7355909"><ele>145.0</ele><time>2026-04-12T10:20:47.977Z</time></trkpt><trkpt lat="45.1467352" lon="13.7356299"><ele>144.0</ele><time>2026-04-12T10:20:49.975Z</time></trkpt><trkpt lat="45.1468019" lon="13.7356538"><ele>143.0</ele><time>2026-04-12T10:20:50.983Z</time></trkpt><trkpt lat="45.1468823" lon="13.7356728"><ele>143.0</ele><time>2026-04-12T10:20:51.985Z</time></trkpt><trkpt lat="45.1469718" lon="13.7356839"><ele>143.0</ele><time>2026-04-12T10:20:52.979Z</time></trkpt><trkpt lat="45.1470671" lon="13.7356922"><ele>143.0</ele><time>2026-04-12T10:20:53.985Z</time></trkpt><trkpt lat="45.1471622" lon="13.7357042"><ele>143.0</ele><time>2026-04-12T10:20:54.976Z</time></trkpt><trkpt lat="45.1472644" lon="13.7357277"><ele>143.0</ele><time>2026-04-12T10:20:55.982Z</time></trkpt><trkpt lat="45.1473649" lon="13.7357574"><ele>142.5</ele><time>2026-04-12T10:20:56.977Z</time></trkpt><trkpt lat="45.1474703" lon="13.7357867"><ele>142.0</ele><time>2026-04-12T10:20:57.98Z</time></trkpt><trkpt lat="45.1475624" lon="13.7358078"><ele>141.5</ele><time>2026-04-12T10:20:58.977Z</time></trkpt><trkpt lat="45.147645" lon="13.7358018"><ele>141.0</ele><time>2026-04-12T10:20:59.986Z</time></trkpt><trkpt lat="45.147718" lon="13.7357636"><ele>140.5</ele><time>2026-04-12T10:21:00.978Z</time></trkpt><trkpt lat="45.1477817" lon="13.7357337"><ele>140.0</ele><time>2026-04-12T10:21:01.987Z</time></trkpt><trkpt lat="45.1478846" lon="13.7357835"><ele>140.0</ele><time>2026-04-12T10:21:03.984Z</time></trkpt><trkpt lat="45.147924" lon="13.7358564"><ele>140.0</ele><time>2026-04-12T10:21:04.994Z</time></trkpt><trkpt lat="45.1479774" lon="13.7359384"><ele>140.0</ele><time>2026-04-12T10:21:05.976Z</time></trkpt><trkpt lat="45.14804" lon="13.7360281"><ele>140.0</ele><time>2026-04-12T10:21:06.979Z</time></trkpt><trkpt lat="45.1481073" lon="13.7361318"><ele>140.0</ele><time>2026-04-12T10:21:07.981Z</time></trkpt><trkpt lat="45.148174" lon="13.73625"><ele>140.0</ele><time>2026-04-12T10:21:08.979Z</time></trkpt><trkpt lat="45.1482431" lon="13.7363779"><ele>139.5</ele><time>2026-04-12T10:21:09.98Z</time></trkpt><trkpt lat="45.1483116" lon="13.736509"><ele>139.0</ele><time>2026-04-12T10:21:10.98Z</time></trkpt><trkpt lat="45.1483835" lon="13.7366389"><ele>138.5</ele><time>2026-04-12T10:21:11.999Z</time></trkpt><trkpt lat="45.1484542" lon="13.7367661"><ele>138.0</ele><time>2026-04-12T10:21:12.998Z</time></trkpt><trkpt lat="45.1485227" lon="13.7368911"><ele>139.20000000000002</ele><time>2026-04-12T10:21:13.979Z</time></trkpt><trkpt lat="45.1485883" lon="13.7370088"><ele>140.4</ele><time>2026-04-12T10:21:14.979Z</time></trkpt><trkpt lat="45.1486429" lon="13.7371101"><ele>141.60000000000002</ele><time>2026-04-12T10:21:15.979Z</time></trkpt><trkpt lat="45.1486958" lon="13.7371811"><ele>142.8</ele><time>2026-04-12T10:21:16.98Z</time></trkpt><trkpt lat="45.1488013" lon="13.7371892"><ele>144.0</ele><time>2026-04-12T10:21:18.981Z</time></trkpt><trkpt lat="45.1489148" lon="13.7370997"><ele>144.0</ele><time>2026-04-12T10:21:20.977Z</time></trkpt><trkpt lat="45.1489859" lon="13.7370367"><ele>144.0</ele><time>2026-04-12T10:21:21.975Z</time></trkpt><trkpt lat="45.1490586" lon="13.7369582"><ele>144.0</ele><time>2026-04-12T10:21:22.975Z</time></trkpt><trkpt lat="45.1491391" lon="13.7368655"><ele>144.0</ele><time>2026-04-12T10:21:23.978Z</time></trkpt><trkpt lat="45.1492287" lon="13.7367747"><ele>144.0</ele><time>2026-04-12T10:21:24.98Z</time></trkpt><trkpt lat="45.1493174" lon="13.7367046"><ele>143.2</ele><time>2026-04-12T10:21:25.983Z</time></trkpt><trkpt lat="45.149417" lon="13.7366495"><ele>142.4</ele><time>2026-04-12T10:21:26.983Z</time></trkpt><trkpt lat="45.1495199" lon="13.7365954"><ele>141.6</ele><time>2026-04-12T10:21:27.981Z</time></trkpt><trkpt lat="45.1496149" lon="13.736529"><ele>140.8</ele><time>2026-04-12T10:21:28.979Z</time></trkpt><trkpt lat="45.1496961" lon="13.7364329"><ele>140.0</ele><time>2026-04-12T10:21:29.978Z</time></trkpt><trkpt lat="45.1497586" lon="13.7363142"><ele>140.0</ele><time>2026-04-12T10:21:30.981Z</time></trkpt><trkpt lat="45.149813" lon="13.7361715"><ele>140.0</ele><time>2026-04-12T10:21:31.98Z</time></trkpt><trkpt lat="45.1498548" lon="13.7360172"><ele>140.0</ele><time>2026-04-12T10:21:32.979Z</time></trkpt><trkpt lat="45.1498977" lon="13.735864"><ele>140.0</ele><time>2026-04-12T10:21:33.979Z</time></trkpt><trkpt lat="45.1499425" lon="13.7357289"><ele>140.0</ele><time>2026-04-12T10:21:34.981Z</time></trkpt><trkpt lat="45.1499902" lon="13.7356119"><ele>140.0</ele><time>2026-04-12T10:21:35.981Z</time></trkpt><trkpt lat="45.1500446" lon="13.735495"><ele>140.0</ele><time>2026-04-12T10:21:36.978Z</time></trkpt><trkpt lat="45.150082" lon="13.7353777"><ele>140.0</ele><time>2026-04-12T10:21:37.98Z</time></trkpt><trkpt lat="45.150099" lon="13.7352596"><ele>140.0</ele><time>2026-04-12T10:21:38.989Z</time></trkpt><trkpt lat="45.1501064" lon="13.7351444"><ele>140.2</ele><time>2026-04-12T10:21:39.98Z</time></trkpt><trkpt lat="45.15013" lon="13.7350314"><ele>140.4</ele><time>2026-04-12T10:21:40.985Z</time></trkpt><trkpt lat="45.1501692" lon="13.7349459"><ele>140.6</ele><time>2026-04-12T10:21:41.983Z</time></trkpt><trkpt lat="45.1502304" lon="13.7347981"><ele>140.8</ele><time>2026-04-12T10:21:43.979Z</time></trkpt><trkpt lat="45.1502082" lon="13.7346138"><ele>141.0</ele><time>2026-04-12T10:21:45.98Z</time></trkpt><trkpt lat="45.1501873" lon="13.7344945"><ele>141.0</ele><time>2026-04-12T10:21:46.976Z</time></trkpt><trkpt lat="45.1501764" lon="13.7343676"><ele>141.0</ele><time>2026-04-12T10:21:47.983Z</time></trkpt><trkpt lat="45.1502014" lon="13.7342346"><ele>141.0</ele><time>2026-04-12T10:21:48.981Z</time></trkpt><trkpt lat="45.1502404" lon="13.734098"><ele>141.0</ele><time>2026-04-12T10:21:49.981Z</time></trkpt><trkpt lat="45.1502783" lon="13.7339579"><ele>141.0</ele><time>2026-04-12T10:21:50.981Z</time></trkpt><trkpt lat="45.150307" lon="13.7338254"><ele>141.0</ele><time>2026-04-12T10:21:51.982Z</time></trkpt><trkpt lat="45.1503333" lon="13.73368"><ele>141.0</ele><time>2026-04-12T10:21:52.98Z</time></trkpt><trkpt lat="45.1503555" lon="13.733537"><ele>141.0</ele><time>2026-04-12T10:21:53.978Z</time></trkpt><trkpt lat="45.1503708" lon="13.7333968"><ele>141.0</ele><time>2026-04-12T10:21:54.981Z</time></trkpt><trkpt lat="45.150382" lon="13.7332494"><ele>141.0</ele><time>2026-04-12T10:21:55.977Z</time></trkpt><trkpt lat="45.1503881" lon="13.733092"><ele>140.75</ele><time>2026-04-12T10:21:56.978Z</time></trkpt><trkpt lat="45.1504035" lon="13.7329362"><ele>140.5</ele><time>2026-04-12T10:21:57.986Z</time></trkpt><trkpt lat="45.1504245" lon="13.7327698"><ele>140.25</ele><time>2026-04-12T10:21:58.976Z</time></trkpt><trkpt lat="45.1504528" lon="13.7326002"><ele>140.0</ele><time>2026-04-12T10:21:59.98Z</time></trkpt><trkpt lat="45.1504674" lon="13.7324223"><ele>139.5</ele><time>2026-04-12T10:22:00.98Z</time></trkpt><trkpt lat="45.150468" lon="13.7322403"><ele>139.0</ele><time>2026-04-12T10:22:01.978Z</time></trkpt><trkpt lat="45.1504695" lon="13.7320611"><ele>138.5</ele><time>2026-04-12T10:22:02.986Z</time></trkpt><trkpt lat="45.1504729" lon="13.7318901"><ele>138.0</ele><time>2026-04-12T10:22:03.979Z</time></trkpt><trkpt lat="45.1504903" lon="13.7317127"><ele>138.0</ele><time>2026-04-12T10:22:04.984Z</time></trkpt><trkpt lat="45.1505162" lon="13.7315231"><ele>138.0</ele><time>2026-04-12T10:22:05.974Z</time></trkpt><trkpt lat="45.1505455" lon="13.7313215"><ele>138.0</ele><time>2026-04-12T10:22:06.979Z</time></trkpt><trkpt lat="45.150574" lon="13.7311374"><ele>138.0</ele><time>2026-04-12T10:22:07.98Z</time></trkpt><trkpt lat="45.1505906" lon="13.7309633"><ele>138.0</ele><time>2026-04-12T10:22:08.986Z</time></trkpt><trkpt lat="45.1506082" lon="13.7307801"><ele>138.0</ele><time>2026-04-12T10:22:09.984Z</time></trkpt><trkpt lat="45.1506317" lon="13.7306019"><ele>138.0</ele><time>2026-04-12T10:22:10.984Z</time></trkpt><trkpt lat="45.1506567" lon="13.7304286"><ele>138.0</ele><time>2026-04-12T10:22:11.983Z</time></trkpt><trkpt lat="45.1506891" lon="13.7302536"><ele>138.25</ele><time>2026-04-12T10:22:12.979Z</time></trkpt><trkpt lat="45.1507171" lon="13.7300451"><ele>138.5</ele><time>2026-04-12T10:22:13.976Z</time></trkpt><trkpt lat="45.1507414" lon="13.7298651"><ele>138.75</ele><time>2026-04-12T10:22:14.975Z</time></trkpt><trkpt lat="45.1507792" lon="13.7296781"><ele>139.0</ele><time>2026-04-12T10:22:15.984Z</time></trkpt><trkpt lat="45.1508222" lon="13.7295048"><ele>138.6</ele><time>2026-04-12T10:22:16.986Z</time></trkpt><trkpt lat="45.1508545" lon="13.7293486"><ele>138.2</ele><time>2026-04-12T10:22:17.981Z</time></trkpt><trkpt lat="45.1508808" lon="13.7292305"><ele>137.79999999999998</ele><time>2026-04-12T10:22:18.98Z</time></trkpt><trkpt lat="45.1509145" lon="13.7291196"><ele>137.4</ele><time>2026-04-12T10:22:19.984Z</time></trkpt><trkpt lat="45.150969" lon="13.7290316"><ele>137.0</ele><time>2026-04-12T10:22:20.977Z</time></trkpt><trkpt lat="45.1510496" lon="13.7289442"><ele>137.0</ele><time>2026-04-12T10:22:21.981Z</time></trkpt><trkpt lat="45.1511447" lon="13.7288623"><ele>137.0</ele><time>2026-04-12T10:22:22.977Z</time></trkpt><trkpt lat="45.1512448" lon="13.7288034"><ele>137.0</ele><time>2026-04-12T10:22:23.975Z</time></trkpt><trkpt lat="45.1513338" lon="13.7287636"><ele>137.0</ele><time>2026-04-12T10:22:24.98Z</time></trkpt><trkpt lat="45.1513984" lon="13.7287538"><ele>137.0</ele><time>2026-04-12T10:22:25.979Z</time></trkpt><trkpt lat="45.1514631" lon="13.7287594"><ele>137.0</ele><time>2026-04-12T10:22:26.981Z</time></trkpt><trkpt lat="45.1515269" lon="13.7287521"><ele>136.79999999999998</ele><time>2026-04-12T10:22:27.978Z</time></trkpt><trkpt lat="45.151604" lon="13.7286425"><ele>136.6</ele><time>2026-04-12T10:22:29.977Z</time></trkpt><trkpt lat="45.1516316" lon="13.7285347"><ele>136.39999999999998</ele><time>2026-04-12T10:22:30.978Z</time></trkpt><trkpt lat="45.1516643" lon="13.7283968"><ele>136.2</ele><time>2026-04-12T10:22:31.976Z</time></trkpt><trkpt lat="45.1516965" lon="13.7282367"><ele>136.0</ele><time>2026-04-12T10:22:32.981Z</time></trkpt><trkpt lat="45.1517395" lon="13.7280628"><ele>136.0</ele><time>2026-04-12T10:22:33.98Z</time></trkpt><trkpt lat="45.1517705" lon="13.7278856"><ele>136.0</ele><time>2026-04-12T10:22:34.975Z</time></trkpt><trkpt lat="45.1518073" lon="13.7277219"><ele>136.0</ele><time>2026-04-12T10:22:35.977Z</time></trkpt><trkpt lat="45.1518521" lon="13.7275605"><ele>136.0</ele><time>2026-04-12T10:22:36.981Z</time></trkpt><trkpt lat="45.1519057" lon="13.7274141"><ele>135.75</ele><time>2026-04-12T10:22:37.978Z</time></trkpt><trkpt lat="45.1519548" lon="13.7272565"><ele>135.5</ele><time>2026-04-12T10:22:38.979Z</time></trkpt><trkpt lat="45.1519903" lon="13.727094"><ele>135.25</ele><time>2026-04-12T10:22:39.977Z</time></trkpt><trkpt lat="45.1520167" lon="13.7269188"><ele>135.0</ele><time>2026-04-12T10:22:40.98Z</time></trkpt><trkpt lat="45.1520298" lon="13.7267195"><ele>133.75</ele><time>2026-04-12T10:22:41.975Z</time></trkpt><trkpt lat="45.1520358" lon="13.7264998"><ele>132.5</ele><time>2026-04-12T10:22:42.98Z</time></trkpt><trkpt lat="45.1520409" lon="13.7262948"><ele>131.25</ele><time>2026-04-12T10:22:43.992Z</time></trkpt><trkpt lat="45.1520581" lon="13.7260984"><ele>130.0</ele><time>2026-04-12T10:22:44.986Z</time></trkpt><trkpt lat="45.1520558" lon="13.7259033"><ele>129.75</ele><time>2026-04-12T10:22:45.977Z</time></trkpt><trkpt lat="45.1520463" lon="13.7257042"><ele>129.5</ele><time>2026-04-12T10:22:46.984Z</time></trkpt><trkpt lat="45.1520528" lon="13.7254876"><ele>129.25</ele><time>2026-04-12T10:22:47.982Z</time></trkpt><trkpt lat="45.152065" lon="13.725279"><ele>129.0</ele><time>2026-04-12T10:22:48.974Z</time></trkpt><trkpt lat="45.1520716" lon="13.7250889"><ele>129.0</ele><time>2026-04-12T10:22:49.977Z</time></trkpt><trkpt lat="45.1520995" lon="13.7249269"><ele>129.0</ele><time>2026-04-12T10:22:50.98Z</time></trkpt><trkpt lat="45.1521079" lon="13.7247509"><ele>129.0</ele><time>2026-04-12T10:22:51.982Z</time></trkpt><trkpt lat="45.1521034" lon="13.7245583"><ele>129.0</ele><time>2026-04-12T10:22:52.978Z</time></trkpt><trkpt lat="45.1520965" lon="13.7243585"><ele>129.25</ele><time>2026-04-12T10:22:53.977Z</time></trkpt><trkpt lat="45.152095" lon="13.7241692"><ele>129.5</ele><time>2026-04-12T10:22:54.977Z</time></trkpt><trkpt lat="45.1520977" lon="13.72399"><ele>129.75</ele><time>2026-04-12T10:22:55.977Z</time></trkpt><trkpt lat="45.1521231" lon="13.7238204"><ele>130.0</ele><time>2026-04-12T10:22:56.976Z</time></trkpt><trkpt lat="45.1521649" lon="13.7236391"><ele>130.66666666666669</ele><time>2026-04-12T10:22:57.977Z</time></trkpt><trkpt lat="45.1522286" lon="13.7234479"><ele>131.33333333333334</ele><time>2026-04-12T10:22:58.975Z</time></trkpt><trkpt lat="45.1522932" lon="13.7232447"><ele>132.0</ele><time>2026-04-12T10:22:59.98Z</time></trkpt><trkpt lat="45.1523577" lon="13.7230556"><ele>132.25</ele><time>2026-04-12T10:23:00.988Z</time></trkpt><trkpt lat="45.1524162" lon="13.7228837"><ele>132.5</ele><time>2026-04-12T10:23:01.974Z</time></trkpt><trkpt lat="45.1524715" lon="13.7227338"><ele>132.75</ele><time>2026-04-12T10:23:02.976Z</time></trkpt><trkpt lat="45.1525435" lon="13.7226167"><ele>133.0</ele><time>2026-04-12T10:23:03.979Z</time></trkpt><trkpt lat="45.1526217" lon="13.7225233"><ele>133.0</ele><time>2026-04-12T10:23:04.977Z</time></trkpt><trkpt lat="45.1526971" lon="13.7224654"><ele>133.0</ele><time>2026-04-12T10:23:05.976Z</time></trkpt><trkpt lat="45.1527723" lon="13.7224378"><ele>133.0</ele><time>2026-04-12T10:23:06.976Z</time></trkpt><trkpt lat="45.1528649" lon="13.7224463"><ele>133.0</ele><time>2026-04-12T10:23:07.98Z</time></trkpt><trkpt lat="45.1529776" lon="13.7224741"><ele>133.0</ele><time>2026-04-12T10:23:08.98Z</time></trkpt><trkpt lat="45.153091" lon="13.7225077"><ele>132.8</ele><time>2026-04-12T10:23:09.976Z</time></trkpt><trkpt lat="45.1532139" lon="13.7225345"><ele>132.60000000000002</ele><time>2026-04-12T10:23:10.975Z</time></trkpt><trkpt lat="45.1533255" lon="13.7225801"><ele>132.39999999999998</ele><time>2026-04-12T10:23:11.98Z</time></trkpt><trkpt lat="45.1534258" lon="13.7226332"><ele>132.2</ele><time>2026-04-12T10:23:12.977Z</time></trkpt><trkpt lat="45.1535187" lon="13.7226554"><ele>132.0</ele><time>2026-04-12T10:23:13.978Z</time></trkpt><trkpt lat="45.1536169" lon="13.7226607"><ele>132.0</ele><time>2026-04-12T10:23:14.977Z</time></trkpt><trkpt lat="45.1537234" lon="13.7226339"><ele>132.0</ele><time>2026-04-12T10:23:15.977Z</time></trkpt><trkpt lat="45.1538482" lon="13.7225957"><ele>132.0</ele><time>2026-04-12T10:23:16.98Z</time></trkpt><trkpt lat="45.1539633" lon="13.7225861"><ele>132.0</ele><time>2026-04-12T10:23:17.974Z</time></trkpt><trkpt lat="45.1540817" lon="13.7225887"><ele>132.4</ele><time>2026-04-12T10:23:18.977Z</time></trkpt><trkpt lat="45.1541982" lon="13.7226"><ele>132.79999999999998</ele><time>2026-04-12T10:23:19.977Z</time></trkpt><trkpt lat="45.1543005" lon="13.7226124"><ele>133.2</ele><time>2026-04-12T10:23:20.978Z</time></trkpt><trkpt lat="45.1544131" lon="13.7226165"><ele>133.6</ele><time>2026-04-12T10:23:21.978Z</time></trkpt><trkpt lat="45.154516" lon="13.7226275"><ele>134.0</ele><time>2026-04-12T10:23:22.986Z</time></trkpt><trkpt lat="45.1546335" lon="13.7226264"><ele>134.0</ele><time>2026-04-12T10:23:23.978Z</time></trkpt><trkpt lat="45.1547599" lon="13.7226123"><ele>134.0</ele><time>2026-04-12T10:23:24.982Z</time></trkpt><trkpt lat="45.1548882" lon="13.7225834"><ele>134.0</ele><time>2026-04-12T10:23:25.98Z</time></trkpt><trkpt lat="45.1550085" lon="13.7225608"><ele>134.0</ele><time>2026-04-12T10:23:26.977Z</time></trkpt><trkpt lat="45.1551395" lon="13.7225565"><ele>133.4</ele><time>2026-04-12T10:23:27.977Z</time></trkpt><trkpt lat="45.1552823" lon="13.72257"><ele>132.8</ele><time>2026-04-12T10:23:28.979Z</time></trkpt><trkpt lat="45.1554166" lon="13.7225923"><ele>132.2</ele><time>2026-04-12T10:23:29.978Z</time></trkpt><trkpt lat="45.1555157" lon="13.7226037"><ele>131.6</ele><time>2026-04-12T10:23:30.977Z</time></trkpt><trkpt lat="45.1555855" lon="13.7225957"><ele>131.0</ele><time>2026-04-12T10:23:31.982Z</time></trkpt><trkpt lat="45.1556457" lon="13.7225624"><ele>131.4</ele><time>2026-04-12T10:23:32.979Z</time></trkpt><trkpt lat="45.1557048" lon="13.7224978"><ele>131.8</ele><time>2026-04-12T10:23:33.976Z</time></trkpt><trkpt lat="45.1557754" lon="13.7224124"><ele>132.20000000000002</ele><time>2026-04-12T10:23:34.977Z</time></trkpt><trkpt lat="45.1558581" lon="13.7223277"><ele>132.6</ele><time>2026-04-12T10:23:35.977Z</time></trkpt><trkpt lat="45.1559246" lon="13.7222796"><ele>133.0</ele><time>2026-04-12T10:23:36.978Z</time></trkpt><trkpt lat="45.1560489" lon="13.7222757"><ele>133.0</ele><time>2026-04-12T10:23:38.986Z</time></trkpt><trkpt lat="45.156161" lon="13.7223647"><ele>133.0</ele><time>2026-04-12T10:23:40.978Z</time></trkpt><trkpt lat="45.1562371" lon="13.7223709"><ele>133.0</ele><time>2026-04-12T10:23:41.977Z</time></trkpt><trkpt lat="45.1563104" lon="13.7223507"><ele>133.0</ele><time>2026-04-12T10:23:42.981Z</time></trkpt><trkpt lat="45.1563713" lon="13.7223031"><ele>133.0</ele><time>2026-04-12T10:23:43.977Z</time></trkpt><trkpt lat="45.1564281" lon="13.7222225"><ele>133.0</ele><time>2026-04-12T10:23:44.983Z</time></trkpt><trkpt lat="45.1565041" lon="13.7221293"><ele>133.8</ele><time>2026-04-12T10:23:45.976Z</time></trkpt><trkpt lat="45.1565723" lon="13.7220675"><ele>134.60000000000002</ele><time>2026-04-12T10:23:46.977Z</time></trkpt><trkpt lat="45.1566524" lon="13.7220375"><ele>135.39999999999998</ele><time>2026-04-12T10:23:47.981Z</time></trkpt><trkpt lat="45.1567512" lon="13.7220394"><ele>136.2</ele><time>2026-04-12T10:23:48.985Z</time></trkpt><trkpt lat="45.1568646" lon="13.7220402"><ele>137.0</ele><time>2026-04-12T10:23:49.978Z</time></trkpt><trkpt lat="45.1569941" lon="13.722058"><ele>137.0</ele><time>2026-04-12T10:23:50.978Z</time></trkpt><trkpt lat="45.157126" lon="13.7220677"><ele>137.0</ele><time>2026-04-12T10:23:51.979Z</time></trkpt><trkpt lat="45.1572579" lon="13.7220516"><ele>137.0</ele><time>2026-04-12T10:23:52.979Z</time></trkpt><trkpt lat="45.1573696" lon="13.7220394"><ele>137.0</ele><time>2026-04-12T10:23:53.98Z</time></trkpt><trkpt lat="45.1574479" lon="13.7220621"><ele>137.0</ele><time>2026-04-12T10:23:54.983Z</time></trkpt><trkpt lat="45.1575302" lon="13.7220953"><ele>137.0</ele><time>2026-04-12T10:23:55.979Z</time></trkpt><trkpt lat="45.1576001" lon="13.7222081"><ele>137.0</ele><time>2026-04-12T10:23:56.978Z</time></trkpt><trkpt lat="45.1576747" lon="13.7223331"><ele>137.0</ele><time>2026-04-12T10:23:57.977Z</time></trkpt><trkpt lat="45.1577331" lon="13.7224188"><ele>137.0</ele><time>2026-04-12T10:23:58.979Z</time></trkpt><trkpt lat="45.1578372" lon="13.7224622"><ele>137.0</ele><time>2026-04-12T10:24:00.979Z</time></trkpt><trkpt lat="45.1578992" lon="13.7224111"><ele>137.0</ele><time>2026-04-12T10:24:02.981Z</time></trkpt><trkpt lat="45.1579941" lon="13.7223203"><ele>137.0</ele><time>2026-04-12T10:24:03.977Z</time></trkpt><trkpt lat="45.1580785" lon="13.7222661"><ele>137.0</ele><time>2026-04-12T10:24:04.985Z</time></trkpt><trkpt lat="45.1581756" lon="13.7222273"><ele>137.0</ele><time>2026-04-12T10:24:05.982Z</time></trkpt><trkpt lat="45.1582742" lon="13.722196"><ele>137.66666666666666</ele><time>2026-04-12T10:24:06.986Z</time></trkpt><trkpt lat="45.1583635" lon="13.7221817"><ele>138.33333333333331</ele><time>2026-04-12T10:24:07.981Z</time></trkpt><trkpt lat="45.1584477" lon="13.7221667"><ele>139.0</ele><time>2026-04-12T10:24:08.981Z</time></trkpt><trkpt lat="45.1585274" lon="13.722151"><ele>139.66666666666666</ele><time>2026-04-12T10:24:09.985Z</time></trkpt><trkpt lat="45.1585956" lon="13.7221476"><ele>140.33333333333334</ele><time>2026-04-12T10:24:10.977Z</time></trkpt><trkpt lat="45.1587028" lon="13.7221652"><ele>141.0</ele><time>2026-04-12T10:24:12.981Z</time></trkpt><trkpt lat="45.158771" lon="13.7222485"><ele>141.0</ele><time>2026-04-12T10:24:15.988Z</time></trkpt><trkpt lat="45.158811" lon="13.7223359"><ele>141.0</ele><time>2026-04-12T10:24:19.981Z</time></trkpt><trkpt lat="45.1588642" lon="13.7224355"><ele>141.0</ele><time>2026-04-12T10:40:10.986Z</time></trkpt><trkpt lat="45.1588969" lon="13.72253"><ele>141.0</ele><time>2026-04-12T10:40:13.984Z</time></trkpt><trkpt lat="45.1589279" lon="13.7226364"><ele>141.0</ele><time>2026-04-12T10:40:15.973Z</time></trkpt><trkpt lat="45.1590533" lon="13.7230262"><ele>142.66666666666666</ele><time>2026-04-12T10:40:17.976Z</time></trkpt><trkpt lat="45.1591335" lon="13.7232404"><ele>144.33333333333331</ele><time>2026-04-12T10:40:18.975Z</time></trkpt><trkpt lat="45.1592163" lon="13.7234331"><ele>146.0</ele><time>2026-04-12T10:40:19.988Z</time></trkpt><trkpt lat="45.1592693" lon="13.723589"><ele>146.0</ele><time>2026-04-12T10:40:20.971Z</time></trkpt><trkpt lat="45.1593249" lon="13.7237501"><ele>146.0</ele><time>2026-04-12T10:40:21.979Z</time></trkpt><trkpt lat="45.1593816" lon="13.7239132"><ele>146.0</ele><time>2026-04-12T10:40:22.982Z</time></trkpt><trkpt lat="45.1594366" lon="13.7240824"><ele>146.0</ele><time>2026-04-12T10:40:23.985Z</time></trkpt><trkpt lat="45.1594853" lon="13.7242524"><ele>146.25</ele><time>2026-04-12T10:40:24.973Z</time></trkpt><trkpt lat="45.1595219" lon="13.7244248"><ele>146.5</ele><time>2026-04-12T10:40:25.979Z</time></trkpt><trkpt lat="45.159532" lon="13.7246066"><ele>146.75</ele><time>2026-04-12T10:40:26.977Z</time></trkpt><trkpt lat="45.1595218" lon="13.7247911"><ele>147.0</ele><time>2026-04-12T10:40:27.986Z</time></trkpt><trkpt lat="45.159506" lon="13.7249752"><ele>147.0</ele><time>2026-04-12T10:40:28.978Z</time></trkpt><trkpt lat="45.159489" lon="13.7251634"><ele>147.0</ele><time>2026-04-12T10:40:29.98Z</time></trkpt><trkpt lat="45.1594729" lon="13.7253555"><ele>147.0</ele><time>2026-04-12T10:40:30.98Z</time></trkpt><trkpt lat="45.1594569" lon="13.7255503"><ele>147.0</ele><time>2026-04-12T10:40:31.975Z</time></trkpt><trkpt lat="45.1594362" lon="13.7257431"><ele>147.25</ele><time>2026-04-12T10:40:32.979Z</time></trkpt><trkpt lat="45.1594136" lon="13.7259421"><ele>147.5</ele><time>2026-04-12T10:40:33.977Z</time></trkpt><trkpt lat="45.1593914" lon="13.7261414"><ele>147.75</ele><time>2026-04-12T10:40:34.977Z</time></trkpt><trkpt lat="45.1593638" lon="13.7263438"><ele>148.0</ele><time>2026-04-12T10:40:35.978Z</time></trkpt><trkpt lat="45.1593273" lon="13.7265437"><ele>147.0</ele><time>2026-04-12T10:40:36.976Z</time></trkpt><trkpt lat="45.1592926" lon="13.7267411"><ele>146.0</ele><time>2026-04-12T10:40:37.981Z</time></trkpt><trkpt lat="45.159258" lon="13.7269415"><ele>145.0</ele><time>2026-04-12T10:40:38.975Z</time></trkpt><trkpt lat="45.1592232" lon="13.7271456"><ele>144.0</ele><time>2026-04-12T10:40:39.979Z</time></trkpt><trkpt lat="45.1591914" lon="13.7273446"><ele>143.25</ele><time>2026-04-12T10:40:40.978Z</time></trkpt><trkpt lat="45.1591509" lon="13.7275295"><ele>142.5</ele><time>2026-04-12T10:40:41.975Z</time></trkpt><trkpt lat="45.1591071" lon="13.7277066"><ele>141.75</ele><time>2026-04-12T10:40:42.976Z</time></trkpt><trkpt lat="45.1590651" lon="13.7278809"><ele>141.0</ele><time>2026-04-12T10:40:43.987Z</time></trkpt><trkpt lat="45.1590136" lon="13.7280624"><ele>141.0</ele><time>2026-04-12T10:40:44.975Z</time></trkpt><trkpt lat="45.1589568" lon="13.7282473"><ele>141.0</ele><time>2026-04-12T10:40:45.978Z</time></trkpt><trkpt lat="45.1589007" lon="13.7284349"><ele>141.0</ele><time>2026-04-12T10:40:46.979Z</time></trkpt><trkpt lat="45.1588446" lon="13.7286208"><ele>141.0</ele><time>2026-04-12T10:40:47.977Z</time></trkpt><trkpt lat="45.1587987" lon="13.7288079"><ele>140.0</ele><time>2026-04-12T10:40:48.983Z</time></trkpt><trkpt lat="45.1587726" lon="13.7289874"><ele>139.0</ele><time>2026-04-12T10:40:49.973Z</time></trkpt><trkpt lat="45.1587704" lon="13.7291679"><ele>138.0</ele><time>2026-04-12T10:40:50.985Z</time></trkpt><trkpt lat="45.1587867" lon="13.7293468"><ele>137.0</ele><time>2026-04-12T10:40:51.981Z</time></trkpt><trkpt lat="45.1588088" lon="13.7295248"><ele>136.75</ele><time>2026-04-12T10:40:52.989Z</time></trkpt><trkpt lat="45.1588376" lon="13.729702"><ele>136.5</ele><time>2026-04-12T10:40:53.975Z</time></trkpt><trkpt lat="45.1588702" lon="13.7298859"><ele>136.25</ele><time>2026-04-12T10:40:54.982Z</time></trkpt><trkpt lat="45.1589018" lon="13.7300656"><ele>136.0</ele><time>2026-04-12T10:40:55.989Z</time></trkpt><trkpt lat="45.1589283" lon="13.7302368"><ele>135.8</ele><time>2026-04-12T10:40:56.982Z</time></trkpt><trkpt lat="45.1589554" lon="13.7303978"><ele>135.6</ele><time>2026-04-12T10:40:57.98Z</time></trkpt><trkpt lat="45.1589819" lon="13.7305497"><ele>135.4</ele><time>2026-04-12T10:40:58.977Z</time></trkpt><trkpt lat="45.1590119" lon="13.7306683"><ele>135.2</ele><time>2026-04-12T10:40:59.984Z</time></trkpt><trkpt lat="45.1590959" lon="13.7307788"><ele>135.0</ele><time>2026-04-12T10:41:01.98Z</time></trkpt><trkpt lat="45.1592049" lon="13.7307883"><ele>135.33333333333334</ele><time>2026-04-12T10:41:03.977Z</time></trkpt><trkpt lat="45.1592729" lon="13.7307859"><ele>135.66666666666666</ele><time>2026-04-12T10:41:04.976Z</time></trkpt><trkpt lat="45.1593394" lon="13.7307951"><ele>136.0</ele><time>2026-04-12T10:41:05.979Z</time></trkpt><trkpt lat="45.1594092" lon="13.7307982"><ele>136.33333333333331</ele><time>2026-04-12T10:41:06.983Z</time></trkpt><trkpt lat="45.1594722" lon="13.7307896"><ele>136.66666666666666</ele><time>2026-04-12T10:41:07.981Z</time></trkpt><trkpt lat="45.1595543" lon="13.7307455"><ele>137.0</ele><time>2026-04-12T10:41:09.974Z</time></trkpt><trkpt lat="45.1596573" lon="13.7306945"><ele>137.00000000000003</ele><time>2026-04-12T10:41:11.977Z</time></trkpt><trkpt lat="45.1597215" lon="13.7306586"><ele>137.0</ele><time>2026-04-12T10:41:12.984Z</time></trkpt><trkpt lat="45.1597898" lon="13.7306132"><ele>137.0</ele><time>2026-04-12T10:41:13.983Z</time></trkpt><trkpt lat="45.1598583" lon="13.7305687"><ele>137.0</ele><time>2026-04-12T10:41:14.973Z</time></trkpt><trkpt lat="45.1599263" lon="13.7305251"><ele>137.0</ele><time>2026-04-12T10:41:15.977Z</time></trkpt><trkpt lat="45.1599916" lon="13.7304756"><ele>137.00000000000003</ele><time>2026-04-12T10:41:16.981Z</time></trkpt><trkpt lat="45.1600529" lon="13.7304194"><ele>137.0</ele><time>2026-04-12T10:41:17.981Z</time></trkpt><trkpt lat="45.1601206" lon="13.730357"><ele>136.6</ele><time>2026-04-12T10:41:18.977Z</time></trkpt><trkpt lat="45.1602036" lon="13.7302918"><ele>136.2</ele><time>2026-04-12T10:41:19.976Z</time></trkpt><trkpt lat="45.1602815" lon="13.7302273"><ele>135.8</ele><time>2026-04-12T10:41:20.973Z</time></trkpt><trkpt lat="45.1603677" lon="13.7301621"><ele>135.4</ele><time>2026-04-12T10:41:21.979Z</time></trkpt><trkpt lat="45.1604549" lon="13.7301022"><ele>135.0</ele><time>2026-04-12T10:41:22.972Z</time></trkpt><trkpt lat="45.1605388" lon="13.7300418"><ele>135.0</ele><time>2026-04-12T10:41:23.977Z</time></trkpt><trkpt lat="45.1606258" lon="13.729982"><ele>135.0</ele><time>2026-04-12T10:41:24.974Z</time></trkpt><trkpt lat="45.1607131" lon="13.7299267"><ele>135.0</ele><time>2026-04-12T10:41:25.986Z</time></trkpt><trkpt lat="45.1607964" lon="13.7298688"><ele>135.0</ele><time>2026-04-12T10:41:26.976Z</time></trkpt><trkpt lat="45.1608743" lon="13.7298041"><ele>135.0</ele><time>2026-04-12T10:41:27.976Z</time></trkpt><trkpt lat="45.1609475" lon="13.7297453"><ele>135.0</ele><time>2026-04-12T10:41:28.976Z</time></trkpt><trkpt lat="45.1610183" lon="13.7296977"><ele>135.0</ele><time>2026-04-12T10:41:29.976Z</time></trkpt><trkpt lat="45.1610902" lon="13.7296585"><ele>135.0</ele><time>2026-04-12T10:41:30.977Z</time></trkpt><trkpt lat="45.1611926" lon="13.7296154"><ele>135.0</ele><time>2026-04-12T10:41:32.976Z</time></trkpt><trkpt lat="45.1612713" lon="13.7295364"><ele>135.0</ele><time>2026-04-12T10:41:34.975Z</time></trkpt><trkpt lat="45.1613312" lon="13.7294166"><ele>135.2</ele><time>2026-04-12T10:41:36.978Z</time></trkpt><trkpt lat="45.1613902" lon="13.7293561"><ele>135.4</ele><time>2026-04-12T10:41:38.975Z</time></trkpt><trkpt lat="45.1614698" lon="13.7293585"><ele>135.6</ele><time>2026-04-12T10:41:40.98Z</time></trkpt><trkpt lat="45.1616023" lon="13.7293639"><ele>135.8</ele><time>2026-04-12T10:41:42.982Z</time></trkpt><trkpt lat="45.161693" lon="13.7293693"><ele>136.0</ele><time>2026-04-12T10:41:43.972Z</time></trkpt><trkpt lat="45.1617822" lon="13.7293761"><ele>135.2</ele><time>2026-04-12T10:41:44.979Z</time></trkpt><trkpt lat="45.1618793" lon="13.7293877"><ele>134.39999999999998</ele><time>2026-04-12T10:41:45.973Z</time></trkpt><trkpt lat="45.1619812" lon="13.7293954"><ele>133.6</ele><time>2026-04-12T10:41:46.975Z</time></trkpt><trkpt lat="45.16209" lon="13.7294054"><ele>132.79999999999998</ele><time>2026-04-12T10:41:47.976Z</time></trkpt><trkpt lat="45.1621957" lon="13.7294218"><ele>132.0</ele><time>2026-04-12T10:41:48.976Z</time></trkpt><trkpt lat="45.1622984" lon="13.7294288"><ele>131.4</ele><time>2026-04-12T10:41:49.971Z</time></trkpt><trkpt lat="45.1623953" lon="13.7294349"><ele>130.79999999999998</ele><time>2026-04-12T10:41:50.977Z</time></trkpt><trkpt lat="45.1624942" lon="13.7294378"><ele>130.2</ele><time>2026-04-12T10:41:51.979Z</time></trkpt><trkpt lat="45.1625976" lon="13.7294439"><ele>129.6</ele><time>2026-04-12T10:41:52.978Z</time></trkpt><trkpt lat="45.1626917" lon="13.7294425"><ele>129.0</ele><time>2026-04-12T10:41:53.976Z</time></trkpt><trkpt lat="45.1627933" lon="13.7294513"><ele>129.0</ele><time>2026-04-12T10:41:54.972Z</time></trkpt><trkpt lat="45.1628906" lon="13.7294612"><ele>129.0</ele><time>2026-04-12T10:41:55.973Z</time></trkpt><trkpt lat="45.1629881" lon="13.7294712"><ele>129.0</ele><time>2026-04-12T10:41:56.977Z</time></trkpt><trkpt lat="45.1630876" lon="13.7294859"><ele>129.0</ele><time>2026-04-12T10:41:57.975Z</time></trkpt><trkpt lat="45.1631896" lon="13.7295042"><ele>129.0</ele><time>2026-04-12T10:41:58.98Z</time></trkpt><trkpt lat="45.1632913" lon="13.7295219"><ele>130.0</ele><time>2026-04-12T10:41:59.983Z</time></trkpt><trkpt lat="45.1633927" lon="13.7295391"><ele>131.0</ele><time>2026-04-12T10:42:00.974Z</time></trkpt><trkpt lat="45.1634789" lon="13.729552"><ele>132.0</ele><time>2026-04-12T10:42:01.974Z</time></trkpt><trkpt lat="45.1635694" lon="13.7295683"><ele>133.0</ele><time>2026-04-12T10:42:02.975Z</time></trkpt><trkpt lat="45.1636583" lon="13.7295889"><ele>134.0</ele><time>2026-04-12T10:42:03.973Z</time></trkpt><trkpt lat="45.1637505" lon="13.7296102"><ele>134.0</ele><time>2026-04-12T10:42:04.975Z</time></trkpt><trkpt lat="45.1638478" lon="13.7296365"><ele>134.0</ele><time>2026-04-12T10:42:05.976Z</time></trkpt><trkpt lat="45.1639441" lon="13.7296667"><ele>134.0</ele><time>2026-04-12T10:42:06.973Z</time></trkpt><trkpt lat="45.1640405" lon="13.7296976"><ele>134.0</ele><time>2026-04-12T10:42:07.987Z</time></trkpt><trkpt lat="45.164142" lon="13.7297269"><ele>134.0</ele><time>2026-04-12T10:42:08.978Z</time></trkpt><trkpt lat="45.1642448" lon="13.7297627"><ele>134.8</ele><time>2026-04-12T10:42:09.975Z</time></trkpt><trkpt lat="45.1643477" lon="13.7297952"><ele>135.60000000000002</ele><time>2026-04-12T10:42:10.977Z</time></trkpt><trkpt lat="45.1644468" lon="13.7298213"><ele>136.4</ele><time>2026-04-12T10:42:11.975Z</time></trkpt><trkpt lat="45.1645225" lon="13.7298619"><ele>137.20000000000002</ele><time>2026-04-12T10:42:12.976Z</time></trkpt><trkpt lat="45.164605" lon="13.729901"><ele>138.0</ele><time>2026-04-12T10:42:13.976Z</time></trkpt><trkpt lat="45.1646905" lon="13.7299536"><ele>138.0</ele><time>2026-04-12T10:42:14.975Z</time></trkpt><trkpt lat="45.1647839" lon="13.7299962"><ele>138.0</ele><time>2026-04-12T10:42:15.979Z</time></trkpt><trkpt lat="45.1648682" lon="13.7300223"><ele>138.0</ele><time>2026-04-12T10:42:16.977Z</time></trkpt><trkpt lat="45.1649537" lon="13.7300318"><ele>138.0</ele><time>2026-04-12T10:42:17.984Z</time></trkpt><trkpt lat="45.1650313" lon="13.7300447"><ele>138.0</ele><time>2026-04-12T10:42:18.976Z</time></trkpt><trkpt lat="45.1651097" lon="13.7300644"><ele>138.0</ele><time>2026-04-12T10:42:19.978Z</time></trkpt><trkpt lat="45.1651893" lon="13.7301015"><ele>138.6</ele><time>2026-04-12T10:42:20.977Z</time></trkpt><trkpt lat="45.1652776" lon="13.7301428"><ele>139.20000000000002</ele><time>2026-04-12T10:42:21.973Z</time></trkpt><trkpt lat="45.1653711" lon="13.7301787"><ele>139.8</ele><time>2026-04-12T10:42:22.979Z</time></trkpt><trkpt lat="45.1654619" lon="13.7302127"><ele>140.4</ele><time>2026-04-12T10:42:23.979Z</time></trkpt><trkpt lat="45.1655571" lon="13.7302449"><ele>141.0</ele><time>2026-04-12T10:42:24.978Z</time></trkpt><trkpt lat="45.1656557" lon="13.7302824"><ele>141.4</ele><time>2026-04-12T10:42:25.98Z</time></trkpt><trkpt lat="45.1657507" lon="13.7303243"><ele>141.8</ele><time>2026-04-12T10:42:26.974Z</time></trkpt><trkpt lat="45.1658593" lon="13.730372"><ele>142.20000000000002</ele><time>2026-04-12T10:42:27.976Z</time></trkpt><trkpt lat="45.1659619" lon="13.7304166"><ele>142.6</ele><time>2026-04-12T10:42:28.979Z</time></trkpt><trkpt lat="45.166068" lon="13.7304603"><ele>143.0</ele><time>2026-04-12T10:42:29.978Z</time></trkpt><trkpt lat="45.1661723" lon="13.7305086"><ele>143.0</ele><time>2026-04-12T10:42:30.976Z</time></trkpt><trkpt lat="45.1662744" lon="13.7305602"><ele>143.0</ele><time>2026-04-12T10:42:31.977Z</time></trkpt><trkpt lat="45.1663781" lon="13.7306103"><ele>143.0</ele><time>2026-04-12T10:42:32.976Z</time></trkpt><trkpt lat="45.1664854" lon="13.7306595"><ele>143.0</ele><time>2026-04-12T10:42:33.979Z</time></trkpt><trkpt lat="45.1665908" lon="13.7307148"><ele>143.0</ele><time>2026-04-12T10:42:34.98Z</time></trkpt><trkpt lat="45.1666974" lon="13.7307684"><ele>143.6</ele><time>2026-04-12T10:42:35.974Z</time></trkpt><trkpt lat="45.1668073" lon="13.7308226"><ele>144.20000000000002</ele><time>2026-04-12T10:42:36.987Z</time></trkpt><trkpt lat="45.1669149" lon="13.7308693"><ele>144.8</ele><time>2026-04-12T10:42:37.974Z</time></trkpt><trkpt lat="45.1670204" lon="13.7309163"><ele>145.4</ele><time>2026-04-12T10:42:38.973Z</time></trkpt><trkpt lat="45.1671236" lon="13.7309637"><ele>146.0</ele><time>2026-04-12T10:42:39.978Z</time></trkpt><trkpt lat="45.167223" lon="13.7310075"><ele>146.0</ele><time>2026-04-12T10:42:40.975Z</time></trkpt><trkpt lat="45.167325" lon="13.7310495"><ele>146.0</ele><time>2026-04-12T10:42:41.975Z</time></trkpt><trkpt lat="45.1674246" lon="13.731102"><ele>146.0</ele><time>2026-04-12T10:42:42.973Z</time></trkpt><trkpt lat="45.1675061" lon="13.7311735"><ele>146.0</ele><time>2026-04-12T10:42:43.976Z</time></trkpt><trkpt lat="45.1675989" lon="13.7312122"><ele>146.0</ele><time>2026-04-12T10:42:44.979Z</time></trkpt><trkpt lat="45.1677049" lon="13.7312484"><ele>145.75</ele><time>2026-04-12T10:42:45.979Z</time></trkpt><trkpt lat="45.167821" lon="13.7312969"><ele>145.5</ele><time>2026-04-12T10:42:46.976Z</time></trkpt><trkpt lat="45.167951" lon="13.7313639"><ele>145.25</ele><time>2026-04-12T10:42:47.984Z</time></trkpt><trkpt lat="45.1680745" lon="13.7314233"><ele>145.0</ele><time>2026-04-12T10:42:48.975Z</time></trkpt><trkpt lat="45.1681953" lon="13.7314806"><ele>145.0</ele><time>2026-04-12T10:42:49.974Z</time></trkpt><trkpt lat="45.1683202" lon="13.7315322"><ele>145.0</ele><time>2026-04-12T10:42:50.974Z</time></trkpt><trkpt lat="45.1684436" lon="13.7315822"><ele>145.0</ele><time>2026-04-12T10:42:51.981Z</time></trkpt><trkpt lat="45.1685659" lon="13.731632"><ele>145.0</ele><time>2026-04-12T10:42:52.974Z</time></trkpt><trkpt lat="45.1686875" lon="13.7316821"><ele>145.0</ele><time>2026-04-12T10:42:53.974Z</time></trkpt><trkpt lat="45.168806" lon="13.7317333"><ele>145.0</ele><time>2026-04-12T10:42:54.975Z</time></trkpt><trkpt lat="45.1689249" lon="13.7317853"><ele>145.0</ele><time>2026-04-12T10:42:55.982Z</time></trkpt><trkpt lat="45.16904" lon="13.7318491"><ele>145.0</ele><time>2026-04-12T10:42:56.984Z</time></trkpt><trkpt lat="45.1691357" lon="13.7319106"><ele>145.0</ele><time>2026-04-12T10:42:57.975Z</time></trkpt><trkpt lat="45.1692197" lon="13.7319666"><ele>145.0</ele><time>2026-04-12T10:42:58.98Z</time></trkpt><trkpt lat="45.1692972" lon="13.7320095"><ele>145.0</ele><time>2026-04-12T10:42:59.973Z</time></trkpt><trkpt lat="45.1693925" lon="13.7320403"><ele>145.0</ele><time>2026-04-12T10:43:00.978Z</time></trkpt><trkpt lat="45.169497" lon="13.732066"><ele>145.0</ele><time>2026-04-12T10:43:01.972Z</time></trkpt><trkpt lat="45.1696005" lon="13.7320987"><ele>145.0</ele><time>2026-04-12T10:43:02.978Z</time></trkpt><trkpt lat="45.1697159" lon="13.73214"><ele>145.0</ele><time>2026-04-12T10:43:03.976Z</time></trkpt><trkpt lat="45.1698394" lon="13.7321766"><ele>145.0</ele><time>2026-04-12T10:43:04.977Z</time></trkpt><trkpt lat="45.1699643" lon="13.7322207"><ele>145.0</ele><time>2026-04-12T10:43:05.976Z</time></trkpt><trkpt lat="45.1700863" lon="13.7322658"><ele>145.75</ele><time>2026-04-12T10:43:06.976Z</time></trkpt><trkpt lat="45.1702087" lon="13.7323083"><ele>146.5</ele><time>2026-04-12T10:43:07.98Z</time></trkpt><trkpt lat="45.1703363" lon="13.7323542"><ele>147.25</ele><time>2026-04-12T10:43:08.987Z</time></trkpt><trkpt lat="45.1704645" lon="13.7324091"><ele>148.0</ele><time>2026-04-12T10:43:09.973Z</time></trkpt><trkpt lat="45.1705967" lon="13.7324717"><ele>148.5</ele><time>2026-04-12T10:43:10.975Z</time></trkpt><trkpt lat="45.1707301" lon="13.7325283"><ele>149.0</ele><time>2026-04-12T10:43:11.973Z</time></trkpt><trkpt lat="45.1708554" lon="13.7325791"><ele>149.5</ele><time>2026-04-12T10:43:12.983Z</time></trkpt><trkpt lat="45.1709707" lon="13.7326286"><ele>150.0</ele><time>2026-04-12T10:43:13.982Z</time></trkpt><trkpt lat="45.1710747" lon="13.7326856"><ele>149.4</ele><time>2026-04-12T10:43:14.977Z</time></trkpt><trkpt lat="45.1711669" lon="13.7327387"><ele>148.8</ele><time>2026-04-12T10:43:15.974Z</time></trkpt><trkpt lat="45.1712482" lon="13.7328069"><ele>148.2</ele><time>2026-04-12T10:43:16.975Z</time></trkpt><trkpt lat="45.17131" lon="13.7329027"><ele>147.6</ele><time>2026-04-12T10:43:17.976Z</time></trkpt><trkpt lat="45.1713684" lon="13.7330295"><ele>147.0</ele><time>2026-04-12T10:43:18.974Z</time></trkpt><trkpt lat="45.1714149" lon="13.73317"><ele>147.0</ele><time>2026-04-12T10:43:19.982Z</time></trkpt><trkpt lat="45.1714627" lon="13.7333054"><ele>147.0</ele><time>2026-04-12T10:43:20.977Z</time></trkpt><trkpt lat="45.1715101" lon="13.7334228"><ele>147.0</ele><time>2026-04-12T10:43:21.974Z</time></trkpt><trkpt lat="45.1715519" lon="13.7335203"><ele>147.0</ele><time>2026-04-12T10:43:22.984Z</time></trkpt><trkpt lat="45.1715745" lon="13.733607"><ele>147.0</ele><time>2026-04-12T10:43:23.973Z</time></trkpt><trkpt lat="45.1715436" lon="13.7337344"><ele>147.0</ele><time>2026-04-12T10:43:25.973Z</time></trkpt><trkpt lat="45.1714437" lon="13.7338435"><ele>146.79999999999998</ele><time>2026-04-12T10:43:27.979Z</time></trkpt><trkpt lat="45.1713878" lon="13.7339549"><ele>146.6</ele><time>2026-04-12T10:43:29.977Z</time></trkpt><trkpt lat="45.1714012" lon="13.7340748"><ele>146.39999999999998</ele><time>2026-04-12T10:43:31.974Z</time></trkpt><trkpt lat="45.1714624" lon="13.734229"><ele>146.2</ele><time>2026-04-12T10:43:33.981Z</time></trkpt><trkpt lat="45.1714864" lon="13.7343413"><ele>146.0</ele><time>2026-04-12T10:43:34.978Z</time></trkpt><trkpt lat="45.171507" lon="13.7344759"><ele>146.0</ele><time>2026-04-12T10:43:35.978Z</time></trkpt><trkpt lat="45.1715274" lon="13.7346204"><ele>146.0</ele><time>2026-04-12T10:43:36.999Z</time></trkpt><trkpt lat="45.1715399" lon="13.7347708"><ele>146.0</ele><time>2026-04-12T10:43:37.995Z</time></trkpt><trkpt lat="45.1715397" lon="13.734953"><ele>146.0</ele><time>2026-04-12T10:43:38.989Z</time></trkpt><trkpt lat="45.1715408" lon="13.7351485"><ele>146.4</ele><time>2026-04-12T10:43:39.973Z</time></trkpt><trkpt lat="45.1715534" lon="13.735314"><ele>146.8</ele><time>2026-04-12T10:43:40.979Z</time></trkpt><trkpt lat="45.1715789" lon="13.7354451"><ele>147.20000000000002</ele><time>2026-04-12T10:43:41.981Z</time></trkpt><trkpt lat="45.1716107" lon="13.7355501"><ele>147.6</ele><time>2026-04-12T10:43:42.981Z</time></trkpt><trkpt lat="45.1716582" lon="13.7356417"><ele>148.0</ele><time>2026-04-12T10:43:43.975Z</time></trkpt><trkpt lat="45.171727" lon="13.7357252"><ele>148.0</ele><time>2026-04-12T10:43:44.977Z</time></trkpt><trkpt lat="45.1718005" lon="13.7358053"><ele>148.0</ele><time>2026-04-12T10:43:45.973Z</time></trkpt><trkpt lat="45.1718721" lon="13.7358783"><ele>148.0</ele><time>2026-04-12T10:43:46.976Z</time></trkpt><trkpt lat="45.1719476" lon="13.7359278"><ele>148.0</ele><time>2026-04-12T10:43:47.975Z</time></trkpt><trkpt lat="45.1720333" lon="13.7359768"><ele>148.0</ele><time>2026-04-12T10:43:48.985Z</time></trkpt><trkpt lat="45.172119" lon="13.7360201"><ele>148.0</ele><time>2026-04-12T10:43:49.973Z</time></trkpt><trkpt lat="45.172189" lon="13.7360762"><ele>148.20000000000002</ele><time>2026-04-12T10:43:50.975Z</time></trkpt><trkpt lat="45.172254" lon="13.7361587"><ele>148.4</ele><time>2026-04-12T10:43:51.981Z</time></trkpt><trkpt lat="45.1723138" lon="13.7362639"><ele>148.60000000000002</ele><time>2026-04-12T10:43:52.973Z</time></trkpt><trkpt lat="45.172373" lon="13.7363838"><ele>148.8</ele><time>2026-04-12T10:43:53.979Z</time></trkpt><trkpt lat="45.1724389" lon="13.7365135"><ele>149.0</ele><time>2026-04-12T10:43:54.975Z</time></trkpt><trkpt lat="45.1725075" lon="13.7366351"><ele>149.4</ele><time>2026-04-12T10:43:55.977Z</time></trkpt><trkpt lat="45.1725809" lon="13.7367531"><ele>149.8</ele><time>2026-04-12T10:43:56.976Z</time></trkpt><trkpt lat="45.1726535" lon="13.7368647"><ele>150.2</ele><time>2026-04-12T10:43:57.972Z</time></trkpt><trkpt lat="45.1727273" lon="13.7369757"><ele>150.6</ele><time>2026-04-12T10:43:58.975Z</time></trkpt><trkpt lat="45.1728033" lon="13.7370704"><ele>151.0</ele><time>2026-04-12T10:43:59.974Z</time></trkpt><trkpt lat="45.1728869" lon="13.7371598"><ele>151.2</ele><time>2026-04-12T10:44:00.973Z</time></trkpt><trkpt lat="45.1729686" lon="13.7372478"><ele>151.39999999999998</ele><time>2026-04-12T10:44:01.979Z</time></trkpt><trkpt lat="45.173035" lon="13.7373443"><ele>151.6</ele><time>2026-04-12T10:44:02.973Z</time></trkpt><trkpt lat="45.1730852" lon="13.7374534"><ele>151.79999999999998</ele><time>2026-04-12T10:44:03.976Z</time></trkpt><trkpt lat="45.1731225" lon="13.7375876"><ele>152.0</ele><time>2026-04-12T10:44:04.976Z</time></trkpt><trkpt lat="45.1731678" lon="13.7377301"><ele>153.0</ele><time>2026-04-12T10:44:05.976Z</time></trkpt><trkpt lat="45.1732232" lon="13.7378734"><ele>154.0</ele><time>2026-04-12T10:44:06.975Z</time></trkpt><trkpt lat="45.1732734" lon="13.7380278"><ele>155.0</ele><time>2026-04-12T10:44:07.974Z</time></trkpt><trkpt lat="45.173318" lon="13.7381885"><ele>156.0</ele><time>2026-04-12T10:44:08.977Z</time></trkpt><trkpt lat="45.1733507" lon="13.7383571"><ele>156.0</ele><time>2026-04-12T10:44:09.975Z</time></trkpt><trkpt lat="45.1733761" lon="13.7385266"><ele>156.0</ele><time>2026-04-12T10:44:10.977Z</time></trkpt><trkpt lat="45.173401" lon="13.7386959"><ele>156.0</ele><time>2026-04-12T10:44:11.976Z</time></trkpt><trkpt lat="45.1734153" lon="13.7388599"><ele>156.0</ele><time>2026-04-12T10:44:12.977Z</time></trkpt><trkpt lat="45.1734327" lon="13.7390006"><ele>156.8</ele><time>2026-04-12T10:44:13.972Z</time></trkpt><trkpt lat="45.1734431" lon="13.7391319"><ele>157.6</ele><time>2026-04-12T10:44:14.98Z</time></trkpt><trkpt lat="45.1734427" lon="13.7392686"><ele>158.4</ele><time>2026-04-12T10:44:15.972Z</time></trkpt><trkpt lat="45.1734377" lon="13.7393991"><ele>159.2</ele><time>2026-04-12T10:44:16.977Z</time></trkpt><trkpt lat="45.1734394" lon="13.7395194"><ele>160.0</ele><time>2026-04-12T10:44:17.982Z</time></trkpt><trkpt lat="45.1734625" lon="13.7396349"><ele>160.4</ele><time>2026-04-12T10:44:18.974Z</time></trkpt><trkpt lat="45.1735067" lon="13.7397506"><ele>160.8</ele><time>2026-04-12T10:44:19.975Z</time></trkpt><trkpt lat="45.1735684" lon="13.7398592"><ele>161.2</ele><time>2026-04-12T10:44:20.975Z</time></trkpt><trkpt lat="45.1736432" lon="13.7399655"><ele>161.6</ele><time>2026-04-12T10:44:21.977Z</time></trkpt><trkpt lat="45.1737261" lon="13.7400891"><ele>162.0</ele><time>2026-04-12T10:44:22.988Z</time></trkpt><trkpt lat="45.1738116" lon="13.7402162"><ele>163.0</ele><time>2026-04-12T10:44:23.978Z</time></trkpt><trkpt lat="45.1738932" lon="13.7403449"><ele>164.0</ele><time>2026-04-12T10:44:24.976Z</time></trkpt><trkpt lat="45.1739632" lon="13.740477"><ele>165.0</ele><time>2026-04-12T10:44:25.974Z</time></trkpt><trkpt lat="45.1740445" lon="13.7405874"><ele>166.0</ele><time>2026-04-12T10:44:26.974Z</time></trkpt><trkpt lat="45.1741319" lon="13.7406808"><ele>166.83333333333334</ele><time>2026-04-12T10:44:27.976Z</time></trkpt><trkpt lat="45.1742007" lon="13.7407639"><ele>167.66666666666669</ele><time>2026-04-12T10:44:28.976Z</time></trkpt><trkpt lat="45.1742428" lon="13.7408556"><ele>168.5</ele><time>2026-04-12T10:44:29.981Z</time></trkpt><trkpt lat="45.1742718" lon="13.7409648"><ele>169.33333333333334</ele><time>2026-04-12T10:44:30.975Z</time></trkpt><trkpt lat="45.1742837" lon="13.741083"><ele>170.16666666666666</ele><time>2026-04-12T10:44:31.973Z</time></trkpt><trkpt lat="45.1742843" lon="13.7412103"><ele>171.0</ele><time>2026-04-12T10:44:32.985Z</time></trkpt><trkpt lat="45.1742841" lon="13.7413304"><ele>171.8</ele><time>2026-04-12T10:44:33.976Z</time></trkpt><trkpt lat="45.1742928" lon="13.7414307"><ele>172.60000000000002</ele><time>2026-04-12T10:44:34.979Z</time></trkpt><trkpt lat="45.1743291" lon="13.7415508"><ele>173.4</ele><time>2026-04-12T10:44:36.974Z</time></trkpt><trkpt lat="45.1743513" lon="13.7416361"><ele>174.2</ele><time>2026-04-12T10:44:41.973Z</time></trkpt><trkpt lat="45.1743662" lon="13.741775"><ele>175.0</ele><time>2026-04-12T10:44:49.978Z</time></trkpt><trkpt lat="45.1744049" lon="13.7419473"><ele>175.83333333333334</ele><time>2026-04-12T10:44:51.984Z</time></trkpt><trkpt lat="45.1744198" lon="13.7420377"><ele>176.66666666666669</ele><time>2026-04-12T10:44:52.972Z</time></trkpt><trkpt lat="45.1744255" lon="13.7421387"><ele>177.5</ele><time>2026-04-12T10:44:53.974Z</time></trkpt><trkpt lat="45.1744233" lon="13.7422346"><ele>178.33333333333334</ele><time>2026-04-12T10:44:54.983Z</time></trkpt><trkpt lat="45.1744715" lon="13.7423916"><ele>179.16666666666666</ele><time>2026-04-12T10:44:56.976Z</time></trkpt><trkpt lat="45.1745178" lon="13.7424583"><ele>180.0</ele><time>2026-04-12T10:44:57.972Z</time></trkpt><trkpt lat="45.174567" lon="13.7425262"><ele>180.0</ele><time>2026-04-12T10:44:58.972Z</time></trkpt><trkpt lat="45.1746131" lon="13.7425922"><ele>180.0</ele><time>2026-04-12T10:44:59.973Z</time></trkpt><trkpt lat="45.1746741" lon="13.7427007"><ele>180.0</ele><time>2026-04-12T10:45:01.972Z</time></trkpt><trkpt lat="45.1747337" lon="13.7427618"><ele>180.0</ele><time>2026-04-12T10:45:04.975Z</time></trkpt><trkpt lat="45.1747979" lon="13.7428309"><ele>180.0</ele><time>2026-04-12T10:45:06.974Z</time></trkpt><trkpt lat="45.1748491" lon="13.7428904"><ele>180.0</ele><time>2026-04-12T10:45:07.978Z</time></trkpt><trkpt lat="45.1749052" lon="13.7429529"><ele>182.8</ele><time>2026-04-12T10:45:08.977Z</time></trkpt><trkpt lat="45.1749556" lon="13.7430167"><ele>185.6</ele><time>2026-04-12T10:45:09.983Z</time></trkpt><trkpt lat="45.1750421" lon="13.7431152"><ele>188.39999999999998</ele><time>2026-04-12T10:45:11.977Z</time></trkpt><trkpt lat="45.1750571" lon="13.7432323"><ele>191.2</ele><time>2026-04-12T10:45:15.985Z</time></trkpt><trkpt lat="45.1749918" lon="13.7433875"><ele>194.0</ele><time>2026-04-12T10:45:17.986Z</time></trkpt><trkpt lat="45.1749727" lon="13.7434863"><ele>194.66666666666669</ele><time>2026-04-12T10:45:18.982Z</time></trkpt><trkpt lat="45.1749611" lon="13.7435912"><ele>195.33333333333334</ele><time>2026-04-12T10:45:19.984Z</time></trkpt><trkpt lat="45.1749638" lon="13.7437024"><ele>196.0</ele><time>2026-04-12T10:45:20.98Z</time></trkpt><trkpt lat="45.1749839" lon="13.7438125"><ele>196.66666666666669</ele><time>2026-04-12T10:45:21.978Z</time></trkpt><trkpt lat="45.1750098" lon="13.7439181"><ele>197.33333333333334</ele><time>2026-04-12T10:45:22.971Z</time></trkpt><trkpt lat="45.1750409" lon="13.7440216"><ele>198.0</ele><time>2026-04-12T10:45:23.975Z</time></trkpt><trkpt lat="45.1750665" lon="13.7441079"><ele>198.0</ele><time>2026-04-12T10:45:24.979Z</time></trkpt><trkpt lat="45.1750907" lon="13.7442104"><ele>198.0</ele><time>2026-04-12T10:45:26.977Z</time></trkpt><trkpt lat="45.1750899" lon="13.7443189"><ele>198.0</ele><time>2026-04-12T10:45:30.983Z</time></trkpt><trkpt lat="45.1750293" lon="13.7444321"><ele>198.0</ele><time>2026-04-12T10:45:32.98Z</time></trkpt><trkpt lat="45.1749761" lon="13.7445172"><ele>198.0</ele><time>2026-04-12T10:45:34.978Z</time></trkpt><trkpt lat="45.1749358" lon="13.7446346"><ele>198.0</ele><time>2026-04-12T10:45:52.973Z</time></trkpt><trkpt lat="45.1749097" lon="13.7447421"><ele>198.0</ele><time>2026-04-12T10:45:55.98Z</time></trkpt><trkpt lat="45.1749566" lon="13.7446286"><ele>198.0</ele><time>2026-04-12T10:46:01.979Z</time></trkpt><trkpt lat="45.17502" lon="13.7444449"><ele>198.0</ele><time>2026-04-12T10:46:03.975Z</time></trkpt><trkpt lat="45.1750907" lon="13.7443474"><ele>198.0</ele><time>2026-04-12T10:46:05.976Z</time></trkpt><trkpt lat="45.1750923" lon="13.7442577"><ele>198.0</ele><time>2026-04-12T10:46:07.976Z</time></trkpt><trkpt lat="45.1751611" lon="13.7442209"><ele>198.0</ele><time>2026-04-12T10:46:10.976Z</time></trkpt><trkpt lat="45.1752234" lon="13.7442794"><ele>198.0</ele><time>2026-04-12T10:46:13.986Z</time></trkpt><trkpt lat="45.1752975" lon="13.7443457"><ele>198.0</ele><time>2026-04-12T10:46:16.983Z</time></trkpt><trkpt lat="45.1753681" lon="13.7444013"><ele>198.0</ele><time>2026-04-12T10:46:17.977Z</time></trkpt><trkpt lat="45.1754483" lon="13.7444557"><ele>198.0</ele><time>2026-04-12T10:46:18.974Z</time></trkpt><trkpt lat="45.1755112" lon="13.7444761"><ele>198.0</ele><time>2026-04-12T10:46:20.976Z</time></trkpt><trkpt lat="45.1755774" lon="13.7443934"><ele>198.0</ele><time>2026-04-12T10:46:23.975Z</time></trkpt><trkpt lat="45.1756246" lon="13.7443093"><ele>198.0</ele><time>2026-04-12T10:46:26.975Z</time></trkpt><trkpt lat="45.1756933" lon="13.7442765"><ele>198.0</ele><time>2026-04-12T10:46:29.975Z</time></trkpt><trkpt lat="45.1757667" lon="13.7442238"><ele>198.0</ele><time>2026-04-12T10:46:32.99Z</time></trkpt><trkpt lat="45.1757322" lon="13.7441388"><ele>198.0</ele><time>2026-04-12T10:46:36.985Z</time></trkpt><trkpt lat="45.1756806" lon="13.7442164"><ele>198.0</ele><time>2026-04-12T10:46:39.982Z</time></trkpt><trkpt lat="45.1756339" lon="13.7443029"><ele>198.0</ele><time>2026-04-12T10:46:42.981Z</time></trkpt><trkpt lat="45.1755877" lon="13.7443879"><ele>198.0</ele><time>2026-04-12T10:46:45.98Z</time></trkpt><trkpt lat="45.1755303" lon="13.7444525"><ele>198.0</ele><time>2026-04-12T10:46:48.984Z</time></trkpt><trkpt lat="45.1754644" lon="13.7444568"><ele>198.0</ele><time>2026-04-12T10:46:51.976Z</time></trkpt><trkpt lat="45.1754014" lon="13.7444376"><ele>198.0</ele><time>2026-04-12T10:46:54.989Z</time></trkpt><trkpt lat="45.1753405" lon="13.7444087"><ele>198.0</ele><time>2026-04-12T10:46:57.974Z</time></trkpt><trkpt lat="45.1752714" lon="13.7443498"><ele>198.0</ele><time>2026-04-12T10:47:00.975Z</time></trkpt><trkpt lat="45.1751958" lon="13.7442803"><ele>198.0</ele><time>2026-04-12T10:47:03.971Z</time></trkpt><trkpt lat="45.1751232" lon="13.7442977"><ele>198.0</ele><time>2026-04-12T10:47:06.98Z</time></trkpt><trkpt lat="45.1750627" lon="13.7443811"><ele>198.0</ele><time>2026-04-12T10:47:09.976Z</time></trkpt><trkpt lat="45.1749507" lon="13.7445843"><ele>198.0</ele><time>2026-04-12T10:47:11.971Z</time></trkpt><trkpt lat="45.1749195" lon="13.7446703"><ele>198.0</ele><time>2026-04-12T10:47:13.978Z</time></trkpt><trkpt lat="45.1748887" lon="13.7447558"><ele>196.5</ele><time>2026-04-12T10:47:17.979Z</time></trkpt><trkpt lat="45.1748541" lon="13.7448676"><ele>195.0</ele><time>2026-04-12T10:48:13.978Z</time></trkpt><trkpt lat="45.1747965" lon="13.745017"><ele>193.5</ele><time>2026-04-12T10:48:15.987Z</time></trkpt><trkpt lat="45.174758" lon="13.7451033"><ele>192.0</ele><time>2026-04-12T10:48:16.98Z</time></trkpt><trkpt lat="45.1747192" lon="13.7451989"><ele>190.5</ele><time>2026-04-12T10:48:17.977Z</time></trkpt><trkpt lat="45.1746792" lon="13.7452961"><ele>189.0</ele><time>2026-04-12T10:48:18.98Z</time></trkpt><trkpt lat="45.1746402" lon="13.745396"><ele>189.0</ele><time>2026-04-12T10:48:19.978Z</time></trkpt><trkpt lat="45.1746017" lon="13.7454958"><ele>189.0</ele><time>2026-04-12T10:48:20.983Z</time></trkpt><trkpt lat="45.1745721" lon="13.745589"><ele>189.0</ele><time>2026-04-12T10:48:21.98Z</time></trkpt><trkpt lat="45.1745405" lon="13.7456759"><ele>189.0</ele><time>2026-04-12T10:48:22.979Z</time></trkpt><trkpt lat="45.1745077" lon="13.7457599"><ele>189.0</ele><time>2026-04-12T10:48:23.977Z</time></trkpt><trkpt lat="45.1744796" lon="13.7458434"><ele>189.0</ele><time>2026-04-12T10:48:24.982Z</time></trkpt><trkpt lat="45.1744463" lon="13.7459402"><ele>189.0</ele><time>2026-04-12T10:48:25.973Z</time></trkpt><trkpt lat="45.1744014" lon="13.7460443"><ele>189.0</ele><time>2026-04-12T10:48:26.978Z</time></trkpt><trkpt lat="45.1743647" lon="13.7461211"><ele>189.0</ele><time>2026-04-12T10:48:27.982Z</time></trkpt><trkpt lat="45.1743422" lon="13.746219"><ele>189.0</ele><time>2026-04-12T10:48:29.988Z</time></trkpt><trkpt lat="45.1743825" lon="13.7463208"><ele>189.0</ele><time>2026-04-12T10:48:31.985Z</time></trkpt><trkpt lat="45.1744676" lon="13.7464603"><ele>189.0</ele><time>2026-04-12T10:48:33.987Z</time></trkpt><trkpt lat="45.1745157" lon="13.7465441"><ele>189.0</ele><time>2026-04-12T10:48:34.986Z</time></trkpt><trkpt lat="45.1745503" lon="13.7466405"><ele>189.0</ele><time>2026-04-12T10:48:35.976Z</time></trkpt><trkpt lat="45.1745874" lon="13.7467371"><ele>189.0</ele><time>2026-04-12T10:48:36.982Z</time></trkpt><trkpt lat="45.1746183" lon="13.746843"><ele>189.0</ele><time>2026-04-12T10:48:37.974Z</time></trkpt><trkpt lat="45.1746505" lon="13.7469475"><ele>189.0</ele><time>2026-04-12T10:48:38.978Z</time></trkpt><trkpt lat="45.1746865" lon="13.7470366"><ele>189.0</ele><time>2026-04-12T10:48:39.984Z</time></trkpt><trkpt lat="45.1747271" lon="13.7471108"><ele>189.0</ele><time>2026-04-12T10:48:40.98Z</time></trkpt><trkpt lat="45.1747893" lon="13.7472372"><ele>189.5</ele><time>2026-04-12T10:48:42.976Z</time></trkpt><trkpt lat="45.1747922" lon="13.7473584"><ele>190.0</ele><time>2026-04-12T10:48:44.985Z</time></trkpt><trkpt lat="45.1747337" lon="13.7475007"><ele>190.5</ele><time>2026-04-12T10:48:46.981Z</time></trkpt><trkpt lat="45.1746961" lon="13.7475876"><ele>191.0</ele><time>2026-04-12T10:48:47.979Z</time></trkpt><trkpt lat="45.1746637" lon="13.7476823"><ele>191.5</ele><time>2026-04-12T10:48:48.974Z</time></trkpt><trkpt lat="45.1746357" lon="13.7477839"><ele>192.0</ele><time>2026-04-12T10:48:49.974Z</time></trkpt><trkpt lat="45.174606" lon="13.7478847"><ele>192.8</ele><time>2026-04-12T10:48:50.977Z</time></trkpt><trkpt lat="45.17458" lon="13.7479908"><ele>193.6</ele><time>2026-04-12T10:48:51.981Z</time></trkpt><trkpt lat="45.1745583" lon="13.7481109"><ele>194.4</ele><time>2026-04-12T10:48:52.974Z</time></trkpt><trkpt lat="45.1745338" lon="13.7482375"><ele>195.20000000000002</ele><time>2026-04-12T10:48:53.974Z</time></trkpt><trkpt lat="45.174511" lon="13.7483697"><ele>196.0</ele><time>2026-04-12T10:48:54.977Z</time></trkpt><trkpt lat="45.1744844" lon="13.7485139"><ele>196.75</ele><time>2026-04-12T10:48:55.972Z</time></trkpt><trkpt lat="45.1744528" lon="13.7486627"><ele>197.5</ele><time>2026-04-12T10:48:56.974Z</time></trkpt><trkpt lat="45.1744112" lon="13.7488145"><ele>198.25</ele><time>2026-04-12T10:48:57.975Z</time></trkpt><trkpt lat="45.1743512" lon="13.7489936"><ele>199.0</ele><time>2026-04-12T10:48:58.972Z</time></trkpt><trkpt lat="45.1743008" lon="13.7491705"><ele>199.0</ele><time>2026-04-12T10:48:59.979Z</time></trkpt><trkpt lat="45.1742619" lon="13.7493377"><ele>199.0</ele><time>2026-04-12T10:49:00.978Z</time></trkpt><trkpt lat="45.17423" lon="13.7494991"><ele>199.0</ele><time>2026-04-12T10:49:01.974Z</time></trkpt><trkpt lat="45.1742072" lon="13.7496463"><ele>199.0</ele><time>2026-04-12T10:49:02.975Z</time></trkpt><trkpt lat="45.1741934" lon="13.7498018"><ele>198.79999999999998</ele><time>2026-04-12T10:49:03.976Z</time></trkpt><trkpt lat="45.1741809" lon="13.7499476"><ele>198.6</ele><time>2026-04-12T10:49:04.972Z</time></trkpt><trkpt lat="45.1741704" lon="13.7500893"><ele>198.4</ele><time>2026-04-12T10:49:05.975Z</time></trkpt><trkpt lat="45.1741625" lon="13.7502253"><ele>198.2</ele><time>2026-04-12T10:49:06.976Z</time></trkpt><trkpt lat="45.1741529" lon="13.7503511"><ele>198.0</ele><time>2026-04-12T10:49:07.979Z</time></trkpt><trkpt lat="45.1741435" lon="13.7504708"><ele>197.5</ele><time>2026-04-12T10:49:08.978Z</time></trkpt><trkpt lat="45.1741365" lon="13.7505773"><ele>197.0</ele><time>2026-04-12T10:49:09.974Z</time></trkpt><trkpt lat="45.1741341" lon="13.7506776"><ele>196.5</ele><time>2026-04-12T10:49:10.975Z</time></trkpt><trkpt lat="45.1741377" lon="13.7507726"><ele>196.0</ele><time>2026-04-12T10:49:11.975Z</time></trkpt><trkpt lat="45.1741427" lon="13.7508877"><ele>195.5</ele><time>2026-04-12T10:49:12.976Z</time></trkpt><trkpt lat="45.1741586" lon="13.7510193"><ele>195.0</ele><time>2026-04-12T10:49:13.977Z</time></trkpt><trkpt lat="45.1741832" lon="13.7511631"><ele>194.5</ele><time>2026-04-12T10:49:14.971Z</time></trkpt><trkpt lat="45.1742216" lon="13.7513257"><ele>194.0</ele><time>2026-04-12T10:49:15.977Z</time></trkpt><trkpt lat="45.1742697" lon="13.7515033"><ele>193.5</ele><time>2026-04-12T10:49:16.975Z</time></trkpt><trkpt lat="45.1743183" lon="13.7516917"><ele>193.0</ele><time>2026-04-12T10:49:17.981Z</time></trkpt><trkpt lat="45.1743642" lon="13.7518671"><ele>193.2</ele><time>2026-04-12T10:49:18.975Z</time></trkpt><trkpt lat="45.1744029" lon="13.7520307"><ele>193.4</ele><time>2026-04-12T10:49:19.975Z</time></trkpt><trkpt lat="45.1744358" lon="13.7521814"><ele>193.6</ele><time>2026-04-12T10:49:20.97Z</time></trkpt><trkpt lat="45.1744677" lon="13.7523023"><ele>193.79999999999998</ele><time>2026-04-12T10:49:21.973Z</time></trkpt><trkpt lat="45.1745033" lon="13.7523827"><ele>194.0</ele><time>2026-04-12T10:49:22.975Z</time></trkpt><trkpt lat="45.1746138" lon="13.7524684"><ele>194.00000000000003</ele><time>2026-04-12T10:49:24.974Z</time></trkpt><trkpt lat="45.1746867" lon="13.7524821"><ele>194.0</ele><time>2026-04-12T10:49:25.974Z</time></trkpt><trkpt lat="45.17476" lon="13.7524696"><ele>194.0</ele><time>2026-04-12T10:49:26.977Z</time></trkpt><trkpt lat="45.1748375" lon="13.7524437"><ele>194.0</ele><time>2026-04-12T10:49:27.978Z</time></trkpt><trkpt lat="45.1749294" lon="13.7524187"><ele>194.00000000000003</ele><time>2026-04-12T10:49:28.974Z</time></trkpt><trkpt lat="45.1750337" lon="13.7523917"><ele>194.0</ele><time>2026-04-12T10:49:29.974Z</time></trkpt><trkpt lat="45.1751502" lon="13.7523686"><ele>194.0</ele><time>2026-04-12T10:49:30.977Z</time></trkpt><trkpt lat="45.1752857" lon="13.7523544"><ele>194.0</ele><time>2026-04-12T10:49:31.975Z</time></trkpt><trkpt lat="45.175426" lon="13.7523533"><ele>194.0</ele><time>2026-04-12T10:49:32.979Z</time></trkpt><trkpt lat="45.1755733" lon="13.752376"><ele>194.0</ele><time>2026-04-12T10:49:33.977Z</time></trkpt><trkpt lat="45.1757125" lon="13.7524096"><ele>194.25</ele><time>2026-04-12T10:49:34.973Z</time></trkpt><trkpt lat="45.1758459" lon="13.7524632"><ele>194.5</ele><time>2026-04-12T10:49:35.973Z</time></trkpt><trkpt lat="45.1759822" lon="13.7525292"><ele>194.75</ele><time>2026-04-12T10:49:36.973Z</time></trkpt><trkpt lat="45.1761176" lon="13.7526147"><ele>195.0</ele><time>2026-04-12T10:49:37.981Z</time></trkpt><trkpt lat="45.1762436" lon="13.7527206"><ele>195.0</ele><time>2026-04-12T10:49:38.976Z</time></trkpt><trkpt lat="45.1763692" lon="13.7528282"><ele>195.0</ele><time>2026-04-12T10:49:39.974Z</time></trkpt><trkpt lat="45.1764946" lon="13.7529262"><ele>195.0</ele><time>2026-04-12T10:49:40.985Z</time></trkpt><trkpt lat="45.1766157" lon="13.753022"><ele>195.0</ele><time>2026-04-12T10:49:41.975Z</time></trkpt><trkpt lat="45.1767431" lon="13.7531035"><ele>196.25</ele><time>2026-04-12T10:49:42.974Z</time></trkpt><trkpt lat="45.1768756" lon="13.7531633"><ele>197.5</ele><time>2026-04-12T10:49:43.972Z</time></trkpt><trkpt lat="45.1770069" lon="13.7532072"><ele>198.75</ele><time>2026-04-12T10:49:44.972Z</time></trkpt><trkpt lat="45.1771283" lon="13.7532409"><ele>200.0</ele><time>2026-04-12T10:49:45.974Z</time></trkpt><trkpt lat="45.1772434" lon="13.75325"><ele>200.5</ele><time>2026-04-12T10:49:46.973Z</time></trkpt><trkpt lat="45.1773641" lon="13.7532196"><ele>201.0</ele><time>2026-04-12T10:49:47.973Z</time></trkpt><trkpt lat="45.1774866" lon="13.753179"><ele>201.5</ele><time>2026-04-12T10:49:48.978Z</time></trkpt><trkpt lat="45.1775965" lon="13.7531455"><ele>202.0</ele><time>2026-04-12T10:49:49.974Z</time></trkpt><trkpt lat="45.1777104" lon="13.7531438"><ele>202.0</ele><time>2026-04-12T10:49:50.976Z</time></trkpt><trkpt lat="45.1778391" lon="13.7531803"><ele>202.0</ele><time>2026-04-12T10:49:51.98Z</time></trkpt><trkpt lat="45.177966" lon="13.7532263"><ele>202.0</ele><time>2026-04-12T10:49:52.974Z</time></trkpt><trkpt lat="45.1780977" lon="13.7532713"><ele>202.0</ele><time>2026-04-12T10:49:53.978Z</time></trkpt><trkpt lat="45.1782195" lon="13.7533081"><ele>201.8</ele><time>2026-04-12T10:49:54.975Z</time></trkpt><trkpt lat="45.1783286" lon="13.7533461"><ele>201.6</ele><time>2026-04-12T10:49:55.979Z</time></trkpt><trkpt lat="45.1784262" lon="13.7533982"><ele>201.4</ele><time>2026-04-12T10:49:56.978Z</time></trkpt><trkpt lat="45.1785175" lon="13.7534685"><ele>201.20000000000002</ele><time>2026-04-12T10:49:57.974Z</time></trkpt><trkpt lat="45.1786172" lon="13.7535491"><ele>201.0</ele><time>2026-04-12T10:49:58.978Z</time></trkpt><trkpt lat="45.1787192" lon="13.7536379"><ele>200.5</ele><time>2026-04-12T10:49:59.973Z</time></trkpt><trkpt lat="45.1788178" lon="13.7537291"><ele>200.0</ele><time>2026-04-12T10:50:00.974Z</time></trkpt><trkpt lat="45.1789078" lon="13.753838"><ele>199.5</ele><time>2026-04-12T10:50:01.982Z</time></trkpt><trkpt lat="45.178991" lon="13.7539587"><ele>199.0</ele><time>2026-04-12T10:50:02.974Z</time></trkpt><trkpt lat="45.1790748" lon="13.7540824"><ele>199.75</ele><time>2026-04-12T10:50:03.974Z</time></trkpt><trkpt lat="45.1791594" lon="13.7542154"><ele>200.5</ele><time>2026-04-12T10:50:04.975Z</time></trkpt><trkpt lat="45.1792143" lon="13.754376"><ele>201.25</ele><time>2026-04-12T10:50:05.977Z</time></trkpt><trkpt lat="45.1792655" lon="13.7545473"><ele>202.0</ele><time>2026-04-12T10:50:06.975Z</time></trkpt><trkpt lat="45.1793108" lon="13.7547453"><ele>202.0</ele><time>2026-04-12T10:50:07.977Z</time></trkpt><trkpt lat="45.1793506" lon="13.7549422"><ele>202.0</ele><time>2026-04-12T10:50:08.979Z</time></trkpt><trkpt lat="45.179383" lon="13.7551569"><ele>202.0</ele><time>2026-04-12T10:50:09.975Z</time></trkpt><trkpt lat="45.1794141" lon="13.7553669"><ele>202.75</ele><time>2026-04-12T10:50:10.976Z</time></trkpt><trkpt lat="45.1794542" lon="13.7555705"><ele>203.5</ele><time>2026-04-12T10:50:11.977Z</time></trkpt><trkpt lat="45.1795101" lon="13.755768"><ele>204.25</ele><time>2026-04-12T10:50:12.977Z</time></trkpt><trkpt lat="45.1795729" lon="13.7559604"><ele>205.0</ele><time>2026-04-12T10:50:13.976Z</time></trkpt><trkpt lat="45.1796411" lon="13.7561527"><ele>205.25</ele><time>2026-04-12T10:50:14.973Z</time></trkpt><trkpt lat="45.1797027" lon="13.7563431"><ele>205.5</ele><time>2026-04-12T10:50:15.979Z</time></trkpt><trkpt lat="45.1797545" lon="13.7565177"><ele>205.75</ele><time>2026-04-12T10:50:16.975Z</time></trkpt><trkpt lat="45.1798071" lon="13.7566799"><ele>206.0</ele><time>2026-04-12T10:50:17.974Z</time></trkpt><trkpt lat="45.1798734" lon="13.7568342"><ele>206.75</ele><time>2026-04-12T10:50:18.981Z</time></trkpt><trkpt lat="45.1799563" lon="13.756969"><ele>207.5</ele><time>2026-04-12T10:50:19.981Z</time></trkpt><trkpt lat="45.1800434" lon="13.7570938"><ele>208.25</ele><time>2026-04-12T10:50:20.98Z</time></trkpt><trkpt lat="45.1801195" lon="13.7572328"><ele>209.0</ele><time>2026-04-12T10:50:21.976Z</time></trkpt><trkpt lat="45.1801693" lon="13.7573989"><ele>209.0</ele><time>2026-04-12T10:50:22.98Z</time></trkpt><trkpt lat="45.1802073" lon="13.7575809"><ele>209.0</ele><time>2026-04-12T10:50:23.973Z</time></trkpt><trkpt lat="45.1802476" lon="13.757767"><ele>209.0</ele><time>2026-04-12T10:50:24.981Z</time></trkpt><trkpt lat="45.1802961" lon="13.7579511"><ele>209.0</ele><time>2026-04-12T10:50:25.978Z</time></trkpt><trkpt lat="45.1803617" lon="13.7581291"><ele>210.0</ele><time>2026-04-12T10:50:26.974Z</time></trkpt><trkpt lat="45.1804403" lon="13.7582911"><ele>211.0</ele><time>2026-04-12T10:50:27.979Z</time></trkpt><trkpt lat="45.1805142" lon="13.7584566"><ele>212.0</ele><time>2026-04-12T10:50:28.978Z</time></trkpt><trkpt lat="45.1805985" lon="13.7586169"><ele>213.0</ele><time>2026-04-12T10:50:29.973Z</time></trkpt><trkpt lat="45.1806903" lon="13.7587697"><ele>214.5</ele><time>2026-04-12T10:50:30.977Z</time></trkpt><trkpt lat="45.1807877" lon="13.7589201"><ele>216.0</ele><time>2026-04-12T10:50:31.97Z</time></trkpt><trkpt lat="45.1808844" lon="13.7590726"><ele>217.5</ele><time>2026-04-12T10:50:32.975Z</time></trkpt><trkpt lat="45.1809763" lon="13.7592334"><ele>219.0</ele><time>2026-04-12T10:50:33.974Z</time></trkpt><trkpt lat="45.1810491" lon="13.7594088"><ele>219.5</ele><time>2026-04-12T10:50:34.981Z</time></trkpt><trkpt lat="45.1811179" lon="13.7595941"><ele>220.0</ele><time>2026-04-12T10:50:35.974Z</time></trkpt><trkpt lat="45.181179" lon="13.7597815"><ele>220.5</ele><time>2026-04-12T10:50:36.982Z</time></trkpt><trkpt lat="45.1812333" lon="13.7599648"><ele>221.0</ele><time>2026-04-12T10:50:37.972Z</time></trkpt><trkpt lat="45.18129" lon="13.7601442"><ele>221.5</ele><time>2026-04-12T10:50:38.976Z</time></trkpt><trkpt lat="45.181355" lon="13.7603063"><ele>222.0</ele><time>2026-04-12T10:50:39.983Z</time></trkpt><trkpt lat="45.1814199" lon="13.7604536"><ele>222.5</ele><time>2026-04-12T10:50:40.974Z</time></trkpt><trkpt lat="45.1814945" lon="13.7605966"><ele>223.0</ele><time>2026-04-12T10:50:41.977Z</time></trkpt><trkpt lat="45.1815584" lon="13.7607531"><ele>223.0</ele><time>2026-04-12T10:50:42.983Z</time></trkpt><trkpt lat="45.1816012" lon="13.7609268"><ele>223.0</ele><time>2026-04-12T10:50:43.982Z</time></trkpt><trkpt lat="45.1816249" lon="13.7611144"><ele>223.0</ele><time>2026-04-12T10:50:44.983Z</time></trkpt><trkpt lat="45.1816358" lon="13.7613156"><ele>223.0</ele><time>2026-04-12T10:50:45.973Z</time></trkpt><trkpt lat="45.1816327" lon="13.7615185"><ele>223.25</ele><time>2026-04-12T10:50:46.976Z</time></trkpt><trkpt lat="45.1816348" lon="13.7617225"><ele>223.5</ele><time>2026-04-12T10:50:47.976Z</time></trkpt><trkpt lat="45.1816526" lon="13.7619232"><ele>223.75</ele><time>2026-04-12T10:50:48.975Z</time></trkpt><trkpt lat="45.1816887" lon="13.7621134"><ele>224.0</ele><time>2026-04-12T10:50:49.975Z</time></trkpt><trkpt lat="45.181742" lon="13.7622942"><ele>224.5</ele><time>2026-04-12T10:50:50.973Z</time></trkpt><trkpt lat="45.1818104" lon="13.762468"><ele>225.0</ele><time>2026-04-12T10:50:51.976Z</time></trkpt><trkpt lat="45.1818883" lon="13.7626398"><ele>225.5</ele><time>2026-04-12T10:50:52.982Z</time></trkpt><trkpt lat="45.1819756" lon="13.7628086"><ele>226.0</ele><time>2026-04-12T10:50:53.975Z</time></trkpt><trkpt lat="45.1820728" lon="13.7629626"><ele>226.66666666666666</ele><time>2026-04-12T10:50:54.975Z</time></trkpt><trkpt lat="45.1821665" lon="13.7631254"><ele>227.33333333333331</ele><time>2026-04-12T10:50:55.978Z</time></trkpt><trkpt lat="45.1822479" lon="13.763307"><ele>228.0</ele><time>2026-04-12T10:50:56.983Z</time></trkpt><trkpt lat="45.1823237" lon="13.7634938"><ele>228.66666666666669</ele><time>2026-04-12T10:50:57.976Z</time></trkpt><trkpt lat="45.1823966" lon="13.763686"><ele>229.33333333333334</ele><time>2026-04-12T10:50:58.973Z</time></trkpt><trkpt lat="45.1824709" lon="13.7638784"><ele>230.0</ele><time>2026-04-12T10:50:59.977Z</time></trkpt><trkpt lat="45.1825456" lon="13.7640734"><ele>230.0</ele><time>2026-04-12T10:51:00.978Z</time></trkpt><trkpt lat="45.1826233" lon="13.7642612"><ele>230.0</ele><time>2026-04-12T10:51:01.996Z</time></trkpt><trkpt lat="45.1827114" lon="13.7644407"><ele>230.0</ele><time>2026-04-12T10:51:02.991Z</time></trkpt><trkpt lat="45.1828063" lon="13.7646095"><ele>231.0</ele><time>2026-04-12T10:51:03.975Z</time></trkpt><trkpt lat="45.182903" lon="13.7647741"><ele>232.0</ele><time>2026-04-12T10:51:04.978Z</time></trkpt><trkpt lat="45.1830013" lon="13.7649362"><ele>233.0</ele><time>2026-04-12T10:51:05.979Z</time></trkpt><trkpt lat="45.1830956" lon="13.7650988"><ele>233.5</ele><time>2026-04-12T10:51:06.973Z</time></trkpt><trkpt lat="45.183184" lon="13.7652627"><ele>234.0</ele><time>2026-04-12T10:51:07.978Z</time></trkpt><trkpt lat="45.1832632" lon="13.7654286"><ele>234.5</ele><time>2026-04-12T10:51:08.987Z</time></trkpt><trkpt lat="45.1833353" lon="13.7656002"><ele>235.0</ele><time>2026-04-12T10:51:09.975Z</time></trkpt><trkpt lat="45.1834001" lon="13.7657688"><ele>235.0</ele><time>2026-04-12T10:51:10.978Z</time></trkpt><trkpt lat="45.1834653" lon="13.7659378"><ele>235.0</ele><time>2026-04-12T10:51:11.978Z</time></trkpt><trkpt lat="45.1835287" lon="13.7661069"><ele>235.0</ele><time>2026-04-12T10:51:12.981Z</time></trkpt><trkpt lat="45.1835923" lon="13.7662765"><ele>235.0</ele><time>2026-04-12T10:51:13.984Z</time></trkpt><trkpt lat="45.1836418" lon="13.7664495"><ele>235.5</ele><time>2026-04-12T10:51:14.976Z</time></trkpt><trkpt lat="45.1836785" lon="13.7666361"><ele>236.0</ele><time>2026-04-12T10:51:15.977Z</time></trkpt><trkpt lat="45.1837003" lon="13.7668297"><ele>236.5</ele><time>2026-04-12T10:51:16.981Z</time></trkpt><trkpt lat="45.1837174" lon="13.7670319"><ele>237.0</ele><time>2026-04-12T10:51:17.979Z</time></trkpt><trkpt lat="45.1837357" lon="13.7672388"><ele>237.0</ele><time>2026-04-12T10:51:18.982Z</time></trkpt><trkpt lat="45.1837544" lon="13.7674445"><ele>237.0</ele><time>2026-04-12T10:51:19.975Z</time></trkpt><trkpt lat="45.1837837" lon="13.767647"><ele>237.0</ele><time>2026-04-12T10:51:20.979Z</time></trkpt><trkpt lat="45.1838222" lon="13.767846"><ele>237.0</ele><time>2026-04-12T10:51:21.979Z</time></trkpt><trkpt lat="45.1838573" lon="13.7680437"><ele>236.75</ele><time>2026-04-12T10:51:22.981Z</time></trkpt><trkpt lat="45.1838788" lon="13.7682289"><ele>236.5</ele><time>2026-04-12T10:51:23.978Z</time></trkpt><trkpt lat="45.1838746" lon="13.7684006"><ele>236.25</ele><time>2026-04-12T10:51:24.976Z</time></trkpt><trkpt lat="45.1838547" lon="13.7685794"><ele>236.0</ele><time>2026-04-12T10:51:25.977Z</time></trkpt><trkpt lat="45.1838325" lon="13.7687464"><ele>236.0</ele><time>2026-04-12T10:51:26.978Z</time></trkpt><trkpt lat="45.183812" lon="13.7688946"><ele>236.00000000000003</ele><time>2026-04-12T10:51:27.975Z</time></trkpt><trkpt lat="45.1837999" lon="13.7690348"><ele>236.00000000000003</ele><time>2026-04-12T10:51:28.973Z</time></trkpt><trkpt lat="45.1838149" lon="13.7691854"><ele>236.0</ele><time>2026-04-12T10:51:29.976Z</time></trkpt><trkpt lat="45.183848" lon="13.7693364"><ele>236.0</ele><time>2026-04-12T10:51:30.974Z</time></trkpt><trkpt lat="45.1839073" lon="13.7694774"><ele>236.0</ele><time>2026-04-12T10:51:31.974Z</time></trkpt><trkpt lat="45.1839864" lon="13.7696042"><ele>236.0</ele><time>2026-04-12T10:51:32.981Z</time></trkpt><trkpt lat="45.1840772" lon="13.7697258"><ele>236.0</ele><time>2026-04-12T10:51:33.994Z</time></trkpt><trkpt lat="45.1841794" lon="13.7698473"><ele>236.0</ele><time>2026-04-12T10:51:34.976Z</time></trkpt><trkpt lat="45.1842855" lon="13.7699708"><ele>238.25</ele><time>2026-04-12T10:51:35.982Z</time></trkpt><trkpt lat="45.184393" lon="13.7700939"><ele>240.5</ele><time>2026-04-12T10:51:36.975Z</time></trkpt><trkpt lat="45.1845016" lon="13.7702191"><ele>242.75</ele><time>2026-04-12T10:51:37.98Z</time></trkpt><trkpt lat="45.1846086" lon="13.7703353"><ele>245.0</ele><time>2026-04-12T10:51:38.978Z</time></trkpt><trkpt lat="45.1847204" lon="13.7704521"><ele>245.0</ele><time>2026-04-12T10:51:39.985Z</time></trkpt><trkpt lat="45.1848326" lon="13.7705701"><ele>245.0</ele><time>2026-04-12T10:51:40.977Z</time></trkpt><trkpt lat="45.1849464" lon="13.7706929"><ele>245.0</ele><time>2026-04-12T10:51:41.978Z</time></trkpt><trkpt lat="45.1850545" lon="13.7708171"><ele>245.0</ele><time>2026-04-12T10:51:42.973Z</time></trkpt><trkpt lat="45.185156" lon="13.7709462"><ele>246.25</ele><time>2026-04-12T10:51:43.973Z</time></trkpt><trkpt lat="45.1852609" lon="13.7710594"><ele>247.5</ele><time>2026-04-12T10:51:44.975Z</time></trkpt><trkpt lat="45.1853788" lon="13.7711489"><ele>248.75</ele><time>2026-04-12T10:51:45.973Z</time></trkpt><trkpt lat="45.1855033" lon="13.771226"><ele>250.0</ele><time>2026-04-12T10:51:46.976Z</time></trkpt><trkpt lat="45.1856304" lon="13.771308"><ele>252.0</ele><time>2026-04-12T10:51:47.977Z</time></trkpt><trkpt lat="45.1857535" lon="13.7713929"><ele>254.0</ele><time>2026-04-12T10:51:48.981Z</time></trkpt><trkpt lat="45.1858747" lon="13.7714838"><ele>256.0</ele><time>2026-04-12T10:51:49.976Z</time></trkpt><trkpt lat="45.1859892" lon="13.7715683"><ele>258.0</ele><time>2026-04-12T10:51:50.975Z</time></trkpt><trkpt lat="45.1861004" lon="13.7716596"><ele>258.0</ele><time>2026-04-12T10:51:51.975Z</time></trkpt><trkpt lat="45.1862055" lon="13.7717679"><ele>258.0</ele><time>2026-04-12T10:51:52.974Z</time></trkpt><trkpt lat="45.1863011" lon="13.771901"><ele>258.0</ele><time>2026-04-12T10:51:53.978Z</time></trkpt><trkpt lat="45.1863943" lon="13.7720438"><ele>258.0</ele><time>2026-04-12T10:51:54.976Z</time></trkpt><trkpt lat="45.1864886" lon="13.7721898"><ele>259.75</ele><time>2026-04-12T10:51:55.977Z</time></trkpt><trkpt lat="45.186596" lon="13.7723127"><ele>261.5</ele><time>2026-04-12T10:51:56.975Z</time></trkpt><trkpt lat="45.1867117" lon="13.7724053"><ele>263.25</ele><time>2026-04-12T10:51:57.975Z</time></trkpt><trkpt lat="45.1868354" lon="13.7724844"><ele>265.0</ele><time>2026-04-12T10:51:59.013Z</time></trkpt><trkpt lat="45.1869586" lon="13.7725611"><ele>265.0</ele><time>2026-04-12T10:51:59.976Z</time></trkpt><trkpt lat="45.1870781" lon="13.7726459"><ele>265.0</ele><time>2026-04-12T10:52:00.977Z</time></trkpt><trkpt lat="45.187198" lon="13.7727488"><ele>265.0</ele><time>2026-04-12T10:52:01.979Z</time></trkpt><trkpt lat="45.1873057" lon="13.7728805"><ele>265.0</ele><time>2026-04-12T10:52:02.976Z</time></trkpt><trkpt lat="45.1873985" lon="13.7730329"><ele>266.0</ele><time>2026-04-12T10:52:03.976Z</time></trkpt><trkpt lat="45.1874787" lon="13.7731999"><ele>267.0</ele><time>2026-04-12T10:52:04.974Z</time></trkpt><trkpt lat="45.1875596" lon="13.7733658"><ele>268.0</ele><time>2026-04-12T10:52:05.971Z</time></trkpt><trkpt lat="45.187651" lon="13.7735235"><ele>269.0</ele><time>2026-04-12T10:52:06.974Z</time></trkpt><trkpt lat="45.1877498" lon="13.7736667"><ele>269.0</ele><time>2026-04-12T10:52:07.982Z</time></trkpt><trkpt lat="45.1878474" lon="13.7738019"><ele>269.0</ele><time>2026-04-12T10:52:08.972Z</time></trkpt><trkpt lat="45.187941" lon="13.7739399"><ele>269.0</ele><time>2026-04-12T10:52:09.979Z</time></trkpt><trkpt lat="45.1880204" lon="13.7740809"><ele>269.0</ele><time>2026-04-12T10:52:10.974Z</time></trkpt><trkpt lat="45.188098" lon="13.7742247"><ele>270.75</ele><time>2026-04-12T10:52:11.975Z</time></trkpt><trkpt lat="45.1881856" lon="13.7743582"><ele>272.5</ele><time>2026-04-12T10:52:12.971Z</time></trkpt><trkpt lat="45.1882765" lon="13.7744812"><ele>274.25</ele><time>2026-04-12T10:52:13.985Z</time></trkpt><trkpt lat="45.1883661" lon="13.7745985"><ele>276.0</ele><time>2026-04-12T10:52:14.98Z</time></trkpt><trkpt lat="45.1884446" lon="13.7747093"><ele>276.0</ele><time>2026-04-12T10:52:15.977Z</time></trkpt><trkpt lat="45.1885187" lon="13.774807"><ele>276.0</ele><time>2026-04-12T10:52:16.974Z</time></trkpt><trkpt lat="45.1885833" lon="13.7748923"><ele>276.0</ele><time>2026-04-12T10:52:17.985Z</time></trkpt><trkpt lat="45.1886403" lon="13.774976"><ele>276.0</ele><time>2026-04-12T10:52:18.982Z</time></trkpt><trkpt lat="45.188705" lon="13.7750468"><ele>276.0</ele><time>2026-04-12T10:52:19.977Z</time></trkpt><trkpt lat="45.1887813" lon="13.7751037"><ele>276.0</ele><time>2026-04-12T10:52:20.974Z</time></trkpt><trkpt lat="45.1888559" lon="13.7751503"><ele>276.14285714285717</ele><time>2026-04-12T10:52:21.977Z</time></trkpt><trkpt lat="45.1889271" lon="13.7751945"><ele>276.28571428571433</ele><time>2026-04-12T10:52:22.979Z</time></trkpt><trkpt lat="45.1889974" lon="13.7752364"><ele>276.42857142857144</ele><time>2026-04-12T10:52:23.975Z</time></trkpt><trkpt lat="45.1890608" lon="13.7752762"><ele>276.57142857142856</ele><time>2026-04-12T10:52:24.974Z</time></trkpt><trkpt lat="45.189128" lon="13.7753002"><ele>276.71428571428567</ele><time>2026-04-12T10:52:25.981Z</time></trkpt><trkpt lat="45.1892017" lon="13.7753161"><ele>276.85714285714283</ele><time>2026-04-12T10:52:26.976Z</time></trkpt><trkpt lat="45.1892806" lon="13.7753355"><ele>277.0</ele><time>2026-04-12T10:52:27.974Z</time></trkpt><trkpt lat="45.1893516" lon="13.7753821"><ele>277.0</ele><time>2026-04-12T10:52:28.987Z</time></trkpt><trkpt lat="45.189409" lon="13.7754616"><ele>277.0</ele><time>2026-04-12T10:52:29.979Z</time></trkpt><trkpt lat="45.1894534" lon="13.7755748"><ele>277.0</ele><time>2026-04-12T10:52:30.98Z</time></trkpt><trkpt lat="45.1894921" lon="13.7757091"><ele>277.0</ele><time>2026-04-12T10:52:31.981Z</time></trkpt><trkpt lat="45.1895362" lon="13.7758471"><ele>277.0</ele><time>2026-04-12T10:52:32.972Z</time></trkpt><trkpt lat="45.1895779" lon="13.7759762"><ele>276.8</ele><time>2026-04-12T10:52:33.973Z</time></trkpt><trkpt lat="45.1896301" lon="13.7760871"><ele>276.6</ele><time>2026-04-12T10:52:34.973Z</time></trkpt><trkpt lat="45.1896896" lon="13.7761777"><ele>276.40000000000003</ele><time>2026-04-12T10:52:35.98Z</time></trkpt><trkpt lat="45.1897632" lon="13.776242"><ele>276.2</ele><time>2026-04-12T10:52:36.975Z</time></trkpt><trkpt lat="45.1898523" lon="13.7762847"><ele>276.0</ele><time>2026-04-12T10:52:37.973Z</time></trkpt><trkpt lat="45.189953" lon="13.7763306"><ele>276.75</ele><time>2026-04-12T10:52:38.975Z</time></trkpt><trkpt lat="45.19006" lon="13.7763821"><ele>277.5</ele><time>2026-04-12T10:52:39.977Z</time></trkpt><trkpt lat="45.1901757" lon="13.7764443"><ele>278.25</ele><time>2026-04-12T10:52:40.973Z</time></trkpt><trkpt lat="45.1902969" lon="13.7765108"><ele>279.0</ele><time>2026-04-12T10:52:41.974Z</time></trkpt><trkpt lat="45.190419" lon="13.7765853"><ele>279.0</ele><time>2026-04-12T10:52:42.975Z</time></trkpt><trkpt lat="45.1905386" lon="13.7766627"><ele>279.0</ele><time>2026-04-12T10:52:43.978Z</time></trkpt><trkpt lat="45.1906561" lon="13.7767154"><ele>279.0</ele><time>2026-04-12T10:52:44.978Z</time></trkpt><trkpt lat="45.1907765" lon="13.7767299"><ele>279.0</ele><time>2026-04-12T10:52:45.973Z</time></trkpt><trkpt lat="45.1909037" lon="13.7767153"><ele>279.0</ele><time>2026-04-12T10:52:46.974Z</time></trkpt><trkpt lat="45.1910341" lon="13.7767138"><ele>279.0</ele><time>2026-04-12T10:52:47.974Z</time></trkpt><trkpt lat="45.1911582" lon="13.7767268"><ele>279.0</ele><time>2026-04-12T10:52:48.975Z</time></trkpt><trkpt lat="45.1912745" lon="13.7767439"><ele>279.0</ele><time>2026-04-12T10:52:49.971Z</time></trkpt><trkpt lat="45.1913899" lon="13.7767295"><ele>279.0</ele><time>2026-04-12T10:52:50.975Z</time></trkpt><trkpt lat="45.1915016" lon="13.7766891"><ele>279.0</ele><time>2026-04-12T10:52:51.978Z</time></trkpt><trkpt lat="45.1916167" lon="13.7766483"><ele>279.0</ele><time>2026-04-12T10:52:52.977Z</time></trkpt><trkpt lat="45.1917218" lon="13.7766074"><ele>279.0</ele><time>2026-04-12T10:52:53.978Z</time></trkpt><trkpt lat="45.1918137" lon="13.7765593"><ele>279.0</ele><time>2026-04-12T10:52:54.977Z</time></trkpt><trkpt lat="45.1919085" lon="13.7765177"><ele>279.75</ele><time>2026-04-12T10:52:55.972Z</time></trkpt><trkpt lat="45.192012" lon="13.7764809"><ele>280.5</ele><time>2026-04-12T10:52:56.976Z</time></trkpt><trkpt lat="45.1921205" lon="13.7764595"><ele>281.25</ele><time>2026-04-12T10:52:57.975Z</time></trkpt><trkpt lat="45.1922365" lon="13.7764717"><ele>282.0</ele><time>2026-04-12T10:52:58.973Z</time></trkpt><trkpt lat="45.1923599" lon="13.7764938"><ele>282.25</ele><time>2026-04-12T10:52:59.974Z</time></trkpt><trkpt lat="45.1924897" lon="13.7765149"><ele>282.5</ele><time>2026-04-12T10:53:00.979Z</time></trkpt><trkpt lat="45.192623" lon="13.7765224"><ele>282.75</ele><time>2026-04-12T10:53:01.974Z</time></trkpt><trkpt lat="45.1927511" lon="13.7765162"><ele>283.0</ele><time>2026-04-12T10:53:02.978Z</time></trkpt><trkpt lat="45.1928742" lon="13.7764974"><ele>283.0</ele><time>2026-04-12T10:53:03.983Z</time></trkpt><trkpt lat="45.1929965" lon="13.7764637"><ele>283.0</ele><time>2026-04-12T10:53:04.978Z</time></trkpt><trkpt lat="45.1931204" lon="13.7764209"><ele>283.0</ele><time>2026-04-12T10:53:05.974Z</time></trkpt><trkpt lat="45.1932374" lon="13.7763711"><ele>283.0</ele><time>2026-04-12T10:53:06.97Z</time></trkpt><trkpt lat="45.1933324" lon="13.7763246"><ele>283.16666666666663</ele><time>2026-04-12T10:53:07.971Z</time></trkpt><trkpt lat="45.1934092" lon="13.7763023"><ele>283.3333333333333</ele><time>2026-04-12T10:53:08.981Z</time></trkpt><trkpt lat="45.1934796" lon="13.7763077"><ele>283.5</ele><time>2026-04-12T10:53:09.975Z</time></trkpt><trkpt lat="45.1935753" lon="13.776409"><ele>283.6666666666667</ele><time>2026-04-12T10:53:11.976Z</time></trkpt><trkpt lat="45.1935897" lon="13.7765032"><ele>283.83333333333337</ele><time>2026-04-12T10:53:12.978Z</time></trkpt><trkpt lat="45.1935869" lon="13.7766019"><ele>284.0</ele><time>2026-04-12T10:53:13.978Z</time></trkpt><trkpt lat="45.1935838" lon="13.7766985"><ele>284.0</ele><time>2026-04-12T10:53:14.986Z</time></trkpt><trkpt lat="45.1936106" lon="13.7767795"><ele>284.0</ele><time>2026-04-12T10:53:15.972Z</time></trkpt><trkpt lat="45.1937289" lon="13.7768349"><ele>284.0</ele><time>2026-04-12T10:53:17.973Z</time></trkpt><trkpt lat="45.1938189" lon="13.7768175"><ele>284.0</ele><time>2026-04-12T10:53:18.978Z</time></trkpt><trkpt lat="45.1939268" lon="13.7768033"><ele>284.0</ele><time>2026-04-12T10:53:19.976Z</time></trkpt><trkpt lat="45.1940407" lon="13.7767972"><ele>283.0</ele><time>2026-04-12T10:53:20.978Z</time></trkpt><trkpt lat="45.1941664" lon="13.776786"><ele>282.0</ele><time>2026-04-12T10:53:21.972Z</time></trkpt><trkpt lat="45.1942987" lon="13.7767709"><ele>281.0</ele><time>2026-04-12T10:53:22.981Z</time></trkpt><trkpt lat="45.1944311" lon="13.7767503"><ele>280.0</ele><time>2026-04-12T10:53:23.973Z</time></trkpt><trkpt lat="45.19456" lon="13.7767372"><ele>280.0</ele><time>2026-04-12T10:53:24.974Z</time></trkpt><trkpt lat="45.1946949" lon="13.7767302"><ele>280.0</ele><time>2026-04-12T10:53:25.977Z</time></trkpt><trkpt lat="45.1948234" lon="13.7767246"><ele>280.0</ele><time>2026-04-12T10:53:26.977Z</time></trkpt><trkpt lat="45.1949394" lon="13.7767185"><ele>280.0</ele><time>2026-04-12T10:53:27.975Z</time></trkpt><trkpt lat="45.1950461" lon="13.7766975"><ele>279.6</ele><time>2026-04-12T10:53:28.976Z</time></trkpt><trkpt lat="45.1951358" lon="13.7766429"><ele>279.2</ele><time>2026-04-12T10:53:29.974Z</time></trkpt><trkpt lat="45.1952221" lon="13.7765553"><ele>278.8</ele><time>2026-04-12T10:53:30.976Z</time></trkpt><trkpt lat="45.1953187" lon="13.7764555"><ele>278.4</ele><time>2026-04-12T10:53:31.975Z</time></trkpt><trkpt lat="45.1954036" lon="13.7763737"><ele>278.0</ele><time>2026-04-12T10:53:32.976Z</time></trkpt><trkpt lat="45.1955079" lon="13.7763194"><ele>278.0</ele><time>2026-04-12T10:53:33.982Z</time></trkpt><trkpt lat="45.1956218" lon="13.7762797"><ele>278.0</ele><time>2026-04-12T10:53:34.979Z</time></trkpt><trkpt lat="45.1957487" lon="13.7762283"><ele>278.0</ele><time>2026-04-12T10:53:35.977Z</time></trkpt><trkpt lat="45.1958909" lon="13.7761578"><ele>278.0</ele><time>2026-04-12T10:53:36.976Z</time></trkpt><trkpt lat="45.1960448" lon="13.7760775"><ele>278.0</ele><time>2026-04-12T10:53:37.979Z</time></trkpt><trkpt lat="45.1961967" lon="13.7760028"><ele>278.0</ele><time>2026-04-12T10:53:38.975Z</time></trkpt><trkpt lat="45.196346" lon="13.7759322"><ele>278.0</ele><time>2026-04-12T10:53:39.977Z</time></trkpt><trkpt lat="45.196496" lon="13.7758626"><ele>277.25</ele><time>2026-04-12T10:53:40.982Z</time></trkpt><trkpt lat="45.196642" lon="13.7757997"><ele>276.5</ele><time>2026-04-12T10:53:41.974Z</time></trkpt><trkpt lat="45.1967873" lon="13.7757518"><ele>275.75</ele><time>2026-04-12T10:53:42.975Z</time></trkpt><trkpt lat="45.1969245" lon="13.775719"><ele>275.0</ele><time>2026-04-12T10:53:43.973Z</time></trkpt><trkpt lat="45.1970443" lon="13.7757125"><ele>275.0</ele><time>2026-04-12T10:53:44.975Z</time></trkpt><trkpt lat="45.1971614" lon="13.7757383"><ele>275.0</ele><time>2026-04-12T10:53:45.974Z</time></trkpt><trkpt lat="45.1972874" lon="13.7757657"><ele>275.0</ele><time>2026-04-12T10:53:46.974Z</time></trkpt><trkpt lat="45.1974163" lon="13.7757859"><ele>275.0</ele><time>2026-04-12T10:53:47.977Z</time></trkpt><trkpt lat="45.1975245" lon="13.7757911"><ele>276.2</ele><time>2026-04-12T10:53:48.97Z</time></trkpt><trkpt lat="45.1976186" lon="13.7757689"><ele>277.4</ele><time>2026-04-12T10:53:49.975Z</time></trkpt><trkpt lat="45.1977036" lon="13.775728"><ele>278.6</ele><time>2026-04-12T10:53:50.975Z</time></trkpt><trkpt lat="45.1978006" lon="13.7756597"><ele>279.8</ele><time>2026-04-12T10:53:51.973Z</time></trkpt><trkpt lat="45.1978982" lon="13.7755905"><ele>281.0</ele><time>2026-04-12T10:53:52.975Z</time></trkpt><trkpt lat="45.1980116" lon="13.7755326"><ele>281.0</ele><time>2026-04-12T10:53:53.971Z</time></trkpt><trkpt lat="45.1981364" lon="13.77548"><ele>281.0</ele><time>2026-04-12T10:53:54.978Z</time></trkpt><trkpt lat="45.1982537" lon="13.7754148"><ele>281.0</ele><time>2026-04-12T10:53:55.974Z</time></trkpt><trkpt lat="45.1983718" lon="13.7753362"><ele>281.0</ele><time>2026-04-12T10:53:56.97Z</time></trkpt><trkpt lat="45.1984871" lon="13.775242"><ele>283.25</ele><time>2026-04-12T10:53:57.972Z</time></trkpt><trkpt lat="45.1986012" lon="13.7751428"><ele>285.5</ele><time>2026-04-12T10:53:58.975Z</time></trkpt><trkpt lat="45.1987106" lon="13.7750383"><ele>287.75</ele><time>2026-04-12T10:53:59.974Z</time></trkpt><trkpt lat="45.1988078" lon="13.7749172"><ele>290.0</ele><time>2026-04-12T10:54:00.975Z</time></trkpt><trkpt lat="45.1989011" lon="13.7748156"><ele>290.6</ele><time>2026-04-12T10:54:01.975Z</time></trkpt><trkpt lat="45.1990068" lon="13.7747338"><ele>291.2</ele><time>2026-04-12T10:54:02.972Z</time></trkpt><trkpt lat="45.1991198" lon="13.7746816"><ele>291.8</ele><time>2026-04-12T10:54:03.975Z</time></trkpt><trkpt lat="45.1992173" lon="13.7746421"><ele>292.4</ele><time>2026-04-12T10:54:04.976Z</time></trkpt><trkpt lat="45.1992868" lon="13.7746034"><ele>293.0</ele><time>2026-04-12T10:54:05.98Z</time></trkpt><trkpt lat="45.1993488" lon="13.7745776"><ele>293.0</ele><time>2026-04-12T10:54:07.986Z</time></trkpt><trkpt lat="45.1994173" lon="13.7746354"><ele>293.0</ele><time>2026-04-12T10:54:11.976Z</time></trkpt><trkpt lat="45.1993753" lon="13.7747603"><ele>293.0</ele><time>2026-04-12T10:54:14.974Z</time></trkpt><trkpt lat="45.1993065" lon="13.7748362"><ele>293.0</ele><time>2026-04-12T10:54:16.976Z</time></trkpt><trkpt lat="45.1992751" lon="13.7749175"><ele>293.0</ele><time>2026-04-12T10:54:18.977Z</time></trkpt><trkpt lat="45.1993238" lon="13.7750255"><ele>293.0</ele><time>2026-04-12T10:54:21.976Z</time></trkpt><trkpt lat="45.1993887" lon="13.7750813"><ele>293.0</ele><time>2026-04-12T10:54:23.981Z</time></trkpt><trkpt lat="45.1994429" lon="13.7751528"><ele>293.0</ele><time>2026-04-12T10:54:26.976Z</time></trkpt><trkpt lat="45.1994048" lon="13.7752284"><ele>293.0</ele><time>2026-04-12T10:54:29.993Z</time></trkpt><trkpt lat="45.1993375" lon="13.7752026"><ele>293.0</ele><time>2026-04-12T10:54:31.986Z</time></trkpt><trkpt lat="45.1992693" lon="13.7750167"><ele>293.0</ele><time>2026-04-12T10:54:33.978Z</time></trkpt><trkpt lat="45.1992507" lon="13.7748616"><ele>293.0</ele><time>2026-04-12T10:54:35.977Z</time></trkpt><trkpt lat="45.1992865" lon="13.7747265"><ele>293.0</ele><time>2026-04-12T10:54:37.977Z</time></trkpt><trkpt lat="45.1993598" lon="13.7746305"><ele>293.0</ele><time>2026-04-12T10:54:39.982Z</time></trkpt><trkpt lat="45.1994034" lon="13.7745194"><ele>293.0</ele><time>2026-04-12T10:54:41.979Z</time></trkpt><trkpt lat="45.1994126" lon="13.7744154"><ele>293.0</ele><time>2026-04-12T10:54:44.976Z</time></trkpt><trkpt lat="45.1994067" lon="13.7743251"><ele>293.0</ele><time>2026-04-12T10:54:46.975Z</time></trkpt><trkpt lat="45.1993716" lon="13.774202"><ele>293.0</ele><time>2026-04-12T10:54:48.977Z</time></trkpt><trkpt lat="45.1993112" lon="13.7741246"><ele>293.0</ele><time>2026-04-12T10:54:50.972Z</time></trkpt><trkpt lat="45.1992622" lon="13.7740423"><ele>293.0</ele><time>2026-04-12T10:54:53.974Z</time></trkpt><trkpt lat="45.1992665" lon="13.7741367"><ele>293.0</ele><time>2026-04-12T10:54:59.976Z</time></trkpt><trkpt lat="45.1993524" lon="13.7741927"><ele>293.0</ele><time>2026-04-12T10:55:01.971Z</time></trkpt><trkpt lat="45.1994287" lon="13.7742995"><ele>293.0</ele><time>2026-04-12T10:55:03.979Z</time></trkpt><trkpt lat="45.1994368" lon="13.7744103"><ele>293.0</ele><time>2026-04-12T10:55:04.976Z</time></trkpt><trkpt lat="45.1994779" lon="13.7744954"><ele>293.0</ele><time>2026-04-12T10:55:06.969Z</time></trkpt><trkpt lat="45.1995466" lon="13.774492"><ele>293.0</ele><time>2026-04-12T10:55:08.985Z</time></trkpt><trkpt lat="45.1996221" lon="13.774458"><ele>293.0</ele><time>2026-04-12T10:55:10.981Z</time></trkpt><trkpt lat="45.1996948" lon="13.7744384"><ele>293.0</ele><time>2026-04-12T10:55:13.977Z</time></trkpt><trkpt lat="45.1999064" lon="13.7743959"><ele>293.0</ele><time>2026-04-12T10:55:16.975Z</time></trkpt><trkpt lat="45.1999834" lon="13.774354"><ele>293.0</ele><time>2026-04-12T10:55:19.977Z</time></trkpt><trkpt lat="45.2000431" lon="13.7743071"><ele>293.0</ele><time>2026-04-12T10:55:22.972Z</time></trkpt><trkpt lat="45.2000733" lon="13.7744002"><ele>293.0</ele><time>2026-04-12T10:55:27.977Z</time></trkpt><trkpt lat="45.1999846" lon="13.7744129"><ele>293.0</ele><time>2026-04-12T10:55:30.973Z</time></trkpt><trkpt lat="45.1998847" lon="13.7744264"><ele>293.0</ele><time>2026-04-12T10:55:33.974Z</time></trkpt><trkpt lat="45.1997967" lon="13.7744358"><ele>293.0</ele><time>2026-04-12T10:55:35.976Z</time></trkpt><trkpt lat="45.19969" lon="13.7744512"><ele>293.0</ele><time>2026-04-12T10:55:37.978Z</time></trkpt><trkpt lat="45.1995841" lon="13.7744812"><ele>293.0</ele><time>2026-04-12T10:55:39.974Z</time></trkpt><trkpt lat="45.1994766" lon="13.7745297"><ele>293.0</ele><time>2026-04-12T10:55:41.979Z</time></trkpt><trkpt lat="45.19938" lon="13.7746001"><ele>293.0</ele><time>2026-04-12T10:55:43.973Z</time></trkpt><trkpt lat="45.1993111" lon="13.7747204"><ele>293.0</ele><time>2026-04-12T10:55:45.975Z</time></trkpt><trkpt lat="45.199276" lon="13.7748503"><ele>293.0</ele><time>2026-04-12T10:55:47.976Z</time></trkpt><trkpt lat="45.1992696" lon="13.7749768"><ele>293.0</ele><time>2026-04-12T10:55:49.982Z</time></trkpt><trkpt lat="45.1992958" lon="13.7751051"><ele>293.0</ele><time>2026-04-12T10:55:51.974Z</time></trkpt><trkpt lat="45.1993637" lon="13.7751955"><ele>293.0</ele><time>2026-04-12T10:55:53.978Z</time></trkpt><trkpt lat="45.1994338" lon="13.775231"><ele>293.0</ele><time>2026-04-12T10:55:55.843Z</time></trkpt><trkpt lat="45.1995011" lon="13.775223"><ele>293.1666666666667</ele><time>2026-04-12T10:55:56.98Z</time></trkpt><trkpt lat="45.1996172" lon="13.7752787"><ele>293.33333333333337</ele><time>2026-04-12T10:55:58.971Z</time></trkpt><trkpt lat="45.1996681" lon="13.7753404"><ele>293.5</ele><time>2026-04-12T10:55:59.979Z</time></trkpt><trkpt lat="45.1997195" lon="13.775402"><ele>293.6666666666667</ele><time>2026-04-12T10:56:00.985Z</time></trkpt><trkpt lat="45.1997701" lon="13.7754661"><ele>293.8333333333333</ele><time>2026-04-12T10:56:01.974Z</time></trkpt><trkpt lat="45.1998274" lon="13.7755103"><ele>294.0</ele><time>2026-04-12T10:56:02.978Z</time></trkpt><trkpt lat="45.1999267" lon="13.7755777"><ele>293.0</ele><time>2026-04-12T10:56:04.979Z</time></trkpt><trkpt lat="45.2000272" lon="13.7756934"><ele>292.0</ele><time>2026-04-12T10:56:06.974Z</time></trkpt><trkpt lat="45.2000976" lon="13.7758286"><ele>291.0</ele><time>2026-04-12T10:56:08.981Z</time></trkpt><trkpt lat="45.2002007" lon="13.7758904"><ele>290.0</ele><time>2026-04-12T10:56:10.974Z</time></trkpt><trkpt lat="45.2003079" lon="13.7759506"><ele>289.6</ele><time>2026-04-12T10:56:12.974Z</time></trkpt><trkpt lat="45.2003315" lon="13.776095"><ele>289.2</ele><time>2026-04-12T10:56:14.98Z</time></trkpt><trkpt lat="45.2002961" lon="13.7762834"><ele>288.8</ele><time>2026-04-12T10:56:16.975Z</time></trkpt><trkpt lat="45.2002723" lon="13.7763949"><ele>288.4</ele><time>2026-04-12T10:56:17.977Z</time></trkpt><trkpt lat="45.2002433" lon="13.7765086"><ele>288.0</ele><time>2026-04-12T10:56:18.973Z</time></trkpt><trkpt lat="45.2002196" lon="13.7766258"><ele>288.0</ele><time>2026-04-12T10:56:19.975Z</time></trkpt><trkpt lat="45.2002043" lon="13.7767334"><ele>288.0</ele><time>2026-04-12T10:56:20.973Z</time></trkpt><trkpt lat="45.2001946" lon="13.7768225"><ele>288.0</ele><time>2026-04-12T10:56:21.975Z</time></trkpt><trkpt lat="45.2001993" lon="13.7769566"><ele>288.0</ele><time>2026-04-12T10:56:23.976Z</time></trkpt><trkpt lat="45.2002433" lon="13.7770493"><ele>288.0</ele><time>2026-04-12T10:56:25.978Z</time></trkpt><trkpt lat="45.2003208" lon="13.777123"><ele>288.0</ele><time>2026-04-12T10:56:27.975Z</time></trkpt><trkpt lat="45.2004472" lon="13.7772191"><ele>287.5714285714286</ele><time>2026-04-12T10:56:29.98Z</time></trkpt><trkpt lat="45.2005106" lon="13.7772685"><ele>287.14285714285717</ele><time>2026-04-12T10:56:30.978Z</time></trkpt><trkpt lat="45.2005685" lon="13.7773219"><ele>286.7142857142857</ele><time>2026-04-12T10:56:31.978Z</time></trkpt><trkpt lat="45.2006234" lon="13.7773693"><ele>286.28571428571433</ele><time>2026-04-12T10:56:32.977Z</time></trkpt><trkpt lat="45.2007209" lon="13.7773989"><ele>285.8571428571429</ele><time>2026-04-12T10:56:34.981Z</time></trkpt><trkpt lat="45.2007866" lon="13.7773906"><ele>285.42857142857144</ele><time>2026-04-12T10:56:35.972Z</time></trkpt><trkpt lat="45.2008598" lon="13.7773818"><ele>285.0</ele><time>2026-04-12T10:56:36.975Z</time></trkpt><trkpt lat="45.200939" lon="13.7773707"><ele>284.6666666666667</ele><time>2026-04-12T10:56:37.979Z</time></trkpt><trkpt lat="45.2010204" lon="13.7773706"><ele>284.3333333333333</ele><time>2026-04-12T10:56:38.971Z</time></trkpt><trkpt lat="45.201094" lon="13.7773681"><ele>284.0</ele><time>2026-04-12T10:56:39.98Z</time></trkpt><trkpt lat="45.2011619" lon="13.7773741"><ele>283.66666666666663</ele><time>2026-04-12T10:56:40.981Z</time></trkpt><trkpt lat="45.2012521" lon="13.777396"><ele>283.3333333333333</ele><time>2026-04-12T10:56:42.974Z</time></trkpt><trkpt lat="45.2013103" lon="13.777497"><ele>283.0</ele><time>2026-04-12T10:56:44.976Z</time></trkpt><trkpt lat="45.201379" lon="13.777664"><ele>282.5</ele><time>2026-04-12T10:56:46.979Z</time></trkpt><trkpt lat="45.201415" lon="13.7777586"><ele>282.0</ele><time>2026-04-12T10:56:47.976Z</time></trkpt><trkpt lat="45.2014489" lon="13.7778412"><ele>281.5</ele><time>2026-04-12T10:56:48.974Z</time></trkpt><trkpt lat="45.2014838" lon="13.7779157"><ele>281.0</ele><time>2026-04-12T10:56:49.974Z</time></trkpt><trkpt lat="45.2015485" lon="13.7780371"><ele>280.5</ele><time>2026-04-12T10:56:51.987Z</time></trkpt><trkpt lat="45.2015627" lon="13.7781614"><ele>280.0</ele><time>2026-04-12T10:56:53.972Z</time></trkpt><trkpt lat="45.2015563" lon="13.7782517"><ele>279.66666666666663</ele><time>2026-04-12T10:56:54.974Z</time></trkpt><trkpt lat="45.2015494" lon="13.7783624"><ele>279.3333333333333</ele><time>2026-04-12T10:56:55.982Z</time></trkpt><trkpt lat="45.2015463" lon="13.7784856"><ele>279.0</ele><time>2026-04-12T10:56:56.977Z</time></trkpt><trkpt lat="45.2015397" lon="13.7786163"><ele>278.6666666666667</ele><time>2026-04-12T10:56:57.976Z</time></trkpt><trkpt lat="45.2015421" lon="13.7787407"><ele>278.33333333333337</ele><time>2026-04-12T10:56:58.974Z</time></trkpt><trkpt lat="45.2015494" lon="13.778866"><ele>278.0</ele><time>2026-04-12T10:56:59.982Z</time></trkpt><trkpt lat="45.201554" lon="13.7789773"><ele>278.0</ele><time>2026-04-12T10:57:00.97Z</time></trkpt><trkpt lat="45.2015668" lon="13.7791005"><ele>278.0</ele><time>2026-04-12T10:57:01.972Z</time></trkpt><trkpt lat="45.2015741" lon="13.7792352"><ele>278.0</ele><time>2026-04-12T10:57:02.975Z</time></trkpt><trkpt lat="45.2015687" lon="13.7793734"><ele>278.0</ele><time>2026-04-12T10:57:03.973Z</time></trkpt><trkpt lat="45.2015556" lon="13.7795132"><ele>278.0</ele><time>2026-04-12T10:57:04.975Z</time></trkpt><trkpt lat="45.2015246" lon="13.7796685"><ele>277.75</ele><time>2026-04-12T10:57:05.978Z</time></trkpt><trkpt lat="45.2014931" lon="13.7798243"><ele>277.5</ele><time>2026-04-12T10:57:06.974Z</time></trkpt><trkpt lat="45.201465" lon="13.7799784"><ele>277.25</ele><time>2026-04-12T10:57:07.974Z</time></trkpt><trkpt lat="45.2014462" lon="13.7801357"><ele>277.0</ele><time>2026-04-12T10:57:08.976Z</time></trkpt><trkpt lat="45.2014285" lon="13.7803083"><ele>275.25</ele><time>2026-04-12T10:57:09.973Z</time></trkpt><trkpt lat="45.2014113" lon="13.7804663"><ele>273.5</ele><time>2026-04-12T10:57:10.979Z</time></trkpt><trkpt lat="45.2013997" lon="13.7806236"><ele>271.75</ele><time>2026-04-12T10:57:11.973Z</time></trkpt><trkpt lat="45.2013814" lon="13.7807887"><ele>270.0</ele><time>2026-04-12T10:57:12.976Z</time></trkpt><trkpt lat="45.2013605" lon="13.7809565"><ele>271.5</ele><time>2026-04-12T10:57:13.977Z</time></trkpt><trkpt lat="45.2013424" lon="13.7811265"><ele>273.0</ele><time>2026-04-12T10:57:14.975Z</time></trkpt><trkpt lat="45.2013267" lon="13.7812884"><ele>274.5</ele><time>2026-04-12T10:57:15.973Z</time></trkpt><trkpt lat="45.2013128" lon="13.7814489"><ele>276.0</ele><time>2026-04-12T10:57:16.973Z</time></trkpt><trkpt lat="45.2013018" lon="13.7816072"><ele>276.0</ele><time>2026-04-12T10:57:17.975Z</time></trkpt><trkpt lat="45.2012904" lon="13.7817684"><ele>276.0</ele><time>2026-04-12T10:57:18.983Z</time></trkpt><trkpt lat="45.201278" lon="13.7819047"><ele>276.0</ele><time>2026-04-12T10:57:19.974Z</time></trkpt><trkpt lat="45.2012727" lon="13.7820008"><ele>276.0</ele><time>2026-04-12T10:57:20.977Z</time></trkpt><trkpt lat="45.2012794" lon="13.7821122"><ele>276.0</ele><time>2026-04-12T10:57:23.973Z</time></trkpt><trkpt lat="45.2013394" lon="13.7821402"><ele>276.0</ele><time>2026-04-12T10:57:26.976Z</time></trkpt><trkpt lat="45.2014177" lon="13.7821061"><ele>276.25</ele><time>2026-04-12T10:57:30.98Z</time></trkpt><trkpt lat="45.2015719" lon="13.782079"><ele>276.5</ele><time>2026-04-12T10:57:31.973Z</time></trkpt><trkpt lat="45.201698" lon="13.7820587"><ele>276.75</ele><time>2026-04-12T10:57:32.974Z</time></trkpt><trkpt lat="45.2018249" lon="13.7820209"><ele>277.0</ele><time>2026-04-12T10:57:33.977Z</time></trkpt><trkpt lat="45.2019534" lon="13.7819827"><ele>277.0</ele><time>2026-04-12T10:57:34.972Z</time></trkpt><trkpt lat="45.2022601" lon="13.7819036"><ele>277.0</ele><time>2026-04-12T10:57:35.973Z</time></trkpt><trkpt lat="45.2023896" lon="13.7818745"><ele>277.0</ele><time>2026-04-12T10:57:36.97Z</time></trkpt><trkpt lat="45.2025232" lon="13.7818338"><ele>276.3333333333333</ele><time>2026-04-12T10:57:37.969Z</time></trkpt><trkpt lat="45.2026659" lon="13.7817889"><ele>275.6666666666667</ele><time>2026-04-12T10:57:38.979Z</time></trkpt><trkpt lat="45.2028193" lon="13.7817649"><ele>275.0</ele><time>2026-04-12T10:57:39.971Z</time></trkpt><trkpt lat="45.2029744" lon="13.7817504"><ele>275.0</ele><time>2026-04-12T10:57:40.974Z</time></trkpt><trkpt lat="45.2031305" lon="13.7817379"><ele>275.0</ele><time>2026-04-12T10:57:41.981Z</time></trkpt><trkpt lat="45.2032867" lon="13.7817235"><ele>275.0</ele><time>2026-04-12T10:57:42.98Z</time></trkpt><trkpt lat="45.2034419" lon="13.781703"><ele>274.25</ele><time>2026-04-12T10:57:43.971Z</time></trkpt><trkpt lat="45.2035953" lon="13.7816743"><ele>273.5</ele><time>2026-04-12T10:57:44.975Z</time></trkpt><trkpt lat="45.2037378" lon="13.7816546"><ele>272.75</ele><time>2026-04-12T10:57:45.971Z</time></trkpt><trkpt lat="45.2038684" lon="13.781661"><ele>272.0</ele><time>2026-04-12T10:57:46.972Z</time></trkpt><trkpt lat="45.2040019" lon="13.7816951"><ele>272.0</ele><time>2026-04-12T10:57:47.978Z</time></trkpt><trkpt lat="45.2041329" lon="13.7817525"><ele>272.0</ele><time>2026-04-12T10:57:48.979Z</time></trkpt><trkpt lat="45.2042641" lon="13.7818193"><ele>272.0</ele><time>2026-04-12T10:57:49.975Z</time></trkpt><trkpt lat="45.2043922" lon="13.7818868"><ele>272.0</ele><time>2026-04-12T10:57:50.975Z</time></trkpt><trkpt lat="45.2045157" lon="13.781957"><ele>271.8</ele><time>2026-04-12T10:57:51.971Z</time></trkpt><trkpt lat="45.2046338" lon="13.7820254"><ele>271.6</ele><time>2026-04-12T10:57:52.976Z</time></trkpt><trkpt lat="45.2047389" lon="13.782089"><ele>271.40000000000003</ele><time>2026-04-12T10:57:53.972Z</time></trkpt><trkpt lat="45.2048351" lon="13.7821524"><ele>271.2</ele><time>2026-04-12T10:57:54.973Z</time></trkpt><trkpt lat="45.2048967" lon="13.782202"><ele>271.0</ele><time>2026-04-12T10:57:55.973Z</time></trkpt><trkpt lat="45.2049691" lon="13.782258"><ele>271.0</ele><time>2026-04-12T10:57:57.973Z</time></trkpt><trkpt lat="45.2050346" lon="13.782341"><ele>271.0</ele><time>2026-04-12T10:58:00.979Z</time></trkpt><trkpt lat="45.205091" lon="13.782389"><ele>271.0</ele><time>2026-04-12T10:58:03.979Z</time></trkpt><trkpt lat="45.2052496" lon="13.7824452"><ele>271.0</ele><time>2026-04-12T10:58:06.975Z</time></trkpt><trkpt lat="45.2053777" lon="13.7824883"><ele>271.0</ele><time>2026-04-12T10:58:07.971Z</time></trkpt><trkpt lat="45.2054428" lon="13.7825086"><ele>271.0</ele><time>2026-04-12T10:58:08.968Z</time></trkpt><trkpt lat="45.2055078" lon="13.7825315"><ele>271.0</ele><time>2026-04-12T10:58:09.971Z</time></trkpt><trkpt lat="45.2056121" lon="13.7825715"><ele>271.0</ele><time>2026-04-12T10:58:11.973Z</time></trkpt><trkpt lat="45.2056861" lon="13.7826153"><ele>271.0</ele><time>2026-04-12T10:58:13.977Z</time></trkpt><trkpt lat="45.2057604" lon="13.7826416"><ele>271.0</ele><time>2026-04-12T10:58:15.973Z</time></trkpt><trkpt lat="45.2058379" lon="13.7826659"><ele>271.0</ele><time>2026-04-12T10:58:18.973Z</time></trkpt><trkpt lat="45.2059067" lon="13.7826992"><ele>270.5</ele><time>2026-04-12T10:58:21.975Z</time></trkpt><trkpt lat="45.205965" lon="13.7827334"><ele>270.0</ele><time>2026-04-12T10:58:24.972Z</time></trkpt><trkpt lat="45.2060234" lon="13.782814"><ele>269.5</ele><time>2026-04-12T10:59:41.973Z</time></trkpt><trkpt lat="45.2061025" lon="13.7828886"><ele>269.0</ele><time>2026-04-12T10:59:44.983Z</time></trkpt><trkpt lat="45.206306" lon="13.7830224"><ele>269.0</ele><time>2026-04-12T10:59:46.985Z</time></trkpt><trkpt lat="45.2063694" lon="13.7830671"><ele>269.0</ele><time>2026-04-12T10:59:47.968Z</time></trkpt><trkpt lat="45.2064337" lon="13.7831145"><ele>269.0</ele><time>2026-04-12T10:59:48.972Z</time></trkpt><trkpt lat="45.2065032" lon="13.7831602"><ele>269.0</ele><time>2026-04-12T10:59:49.988Z</time></trkpt><trkpt lat="45.206579" lon="13.7832057"><ele>269.0</ele><time>2026-04-12T10:59:50.976Z</time></trkpt><trkpt lat="45.206656" lon="13.783251"><ele>269.0</ele><time>2026-04-12T10:59:51.975Z</time></trkpt><trkpt lat="45.2067345" lon="13.7832929"><ele>268.2</ele><time>2026-04-12T10:59:52.976Z</time></trkpt><trkpt lat="45.2068155" lon="13.783341"><ele>267.4</ele><time>2026-04-12T10:59:53.977Z</time></trkpt><trkpt lat="45.2069111" lon="13.783386"><ele>266.6</ele><time>2026-04-12T10:59:54.984Z</time></trkpt><trkpt lat="45.207021" lon="13.7834361"><ele>265.8</ele><time>2026-04-12T10:59:55.975Z</time></trkpt><trkpt lat="45.2071382" lon="13.7834785"><ele>265.0</ele><time>2026-04-12T10:59:56.976Z</time></trkpt><trkpt lat="45.2072565" lon="13.7835241"><ele>266.0</ele><time>2026-04-12T10:59:57.974Z</time></trkpt><trkpt lat="45.2073919" lon="13.7835936"><ele>267.0</ele><time>2026-04-12T10:59:58.978Z</time></trkpt><trkpt lat="45.2075387" lon="13.7836805"><ele>268.0</ele><time>2026-04-12T10:59:59.975Z</time></trkpt><trkpt lat="45.2076808" lon="13.7837642"><ele>268.0</ele><time>2026-04-12T11:00:00.975Z</time></trkpt><trkpt lat="45.2078149" lon="13.7838368"><ele>268.0</ele><time>2026-04-12T11:00:01.976Z</time></trkpt><trkpt lat="45.2079339" lon="13.7838978"><ele>268.0</ele><time>2026-04-12T11:00:02.974Z</time></trkpt><trkpt lat="45.2080372" lon="13.783958"><ele>268.0</ele><time>2026-04-12T11:00:03.976Z</time></trkpt><trkpt lat="45.2081143" lon="13.7840264"><ele>268.0</ele><time>2026-04-12T11:00:04.972Z</time></trkpt><trkpt lat="45.2081752" lon="13.7841231"><ele>268.0</ele><time>2026-04-12T11:00:05.974Z</time></trkpt><trkpt lat="45.2082309" lon="13.784251"><ele>268.0</ele><time>2026-04-12T11:00:06.979Z</time></trkpt><trkpt lat="45.2082874" lon="13.7844044"><ele>268.0</ele><time>2026-04-12T11:00:07.977Z</time></trkpt><trkpt lat="45.2083407" lon="13.7845694"><ele>268.0</ele><time>2026-04-12T11:00:08.977Z</time></trkpt><trkpt lat="45.2084035" lon="13.7847366"><ele>268.0</ele><time>2026-04-12T11:00:09.974Z</time></trkpt><trkpt lat="45.2084714" lon="13.7849046"><ele>268.0</ele><time>2026-04-12T11:00:10.974Z</time></trkpt><trkpt lat="45.2085396" lon="13.7850648"><ele>268.0</ele><time>2026-04-12T11:00:11.975Z</time></trkpt><trkpt lat="45.2086148" lon="13.7852239"><ele>268.0</ele><time>2026-04-12T11:00:12.98Z</time></trkpt><trkpt lat="45.2086941" lon="13.7853807"><ele>267.75</ele><time>2026-04-12T11:00:13.976Z</time></trkpt><trkpt lat="45.2087823" lon="13.7855376"><ele>267.5</ele><time>2026-04-12T11:00:14.976Z</time></trkpt><trkpt lat="45.2088731" lon="13.7856932"><ele>267.25</ele><time>2026-04-12T11:00:15.974Z</time></trkpt><trkpt lat="45.2089698" lon="13.7858577"><ele>267.0</ele><time>2026-04-12T11:00:16.976Z</time></trkpt><trkpt lat="45.2090668" lon="13.7860249"><ele>265.6666666666667</ele><time>2026-04-12T11:00:17.978Z</time></trkpt><trkpt lat="45.2091637" lon="13.7861952"><ele>264.33333333333337</ele><time>2026-04-12T11:00:18.974Z</time></trkpt><trkpt lat="45.2092596" lon="13.7863677"><ele>263.0</ele><time>2026-04-12T11:00:19.977Z</time></trkpt><trkpt lat="45.2093627" lon="13.7865442"><ele>263.0</ele><time>2026-04-12T11:00:20.977Z</time></trkpt><trkpt lat="45.2094608" lon="13.7867231"><ele>263.0</ele><time>2026-04-12T11:00:21.979Z</time></trkpt><trkpt lat="45.2095562" lon="13.7869066"><ele>263.0</ele><time>2026-04-12T11:00:22.98Z</time></trkpt><trkpt lat="45.209661" lon="13.7870833"><ele>262.5</ele><time>2026-04-12T11:00:23.977Z</time></trkpt><trkpt lat="45.2097623" lon="13.7872521"><ele>262.0</ele><time>2026-04-12T11:00:24.977Z</time></trkpt><trkpt lat="45.2098582" lon="13.7874077"><ele>261.5</ele><time>2026-04-12T11:00:25.978Z</time></trkpt><trkpt lat="45.2099593" lon="13.7875524"><ele>261.0</ele><time>2026-04-12T11:00:26.975Z</time></trkpt><trkpt lat="45.21006" lon="13.7877028"><ele>262.0</ele><time>2026-04-12T11:00:27.973Z</time></trkpt><trkpt lat="45.2101597" lon="13.7878536"><ele>263.0</ele><time>2026-04-12T11:00:28.976Z</time></trkpt><trkpt lat="45.2102572" lon="13.7880122"><ele>264.0</ele><time>2026-04-12T11:00:29.977Z</time></trkpt><trkpt lat="45.2103493" lon="13.7881645"><ele>265.0</ele><time>2026-04-12T11:00:30.975Z</time></trkpt><trkpt lat="45.2104435" lon="13.7883176"><ele>265.0</ele><time>2026-04-12T11:00:31.978Z</time></trkpt><trkpt lat="45.2105434" lon="13.7884686"><ele>265.0</ele><time>2026-04-12T11:00:32.972Z</time></trkpt><trkpt lat="45.2106525" lon="13.7886326"><ele>265.0</ele><time>2026-04-12T11:00:33.977Z</time></trkpt><trkpt lat="45.2107718" lon="13.7887954"><ele>265.0</ele><time>2026-04-12T11:00:34.981Z</time></trkpt><trkpt lat="45.2108861" lon="13.788947"><ele>265.0</ele><time>2026-04-12T11:00:35.982Z</time></trkpt><trkpt lat="45.2109984" lon="13.7891004"><ele>265.0</ele><time>2026-04-12T11:00:36.978Z</time></trkpt><trkpt lat="45.2111015" lon="13.789249"><ele>265.0</ele><time>2026-04-12T11:00:37.977Z</time></trkpt><trkpt lat="45.2111849" lon="13.7893977"><ele>265.0</ele><time>2026-04-12T11:00:38.98Z</time></trkpt><trkpt lat="45.2112648" lon="13.7895342"><ele>265.0</ele><time>2026-04-12T11:00:39.974Z</time></trkpt><trkpt lat="45.2113397" lon="13.7896434"><ele>265.0</ele><time>2026-04-12T11:00:40.98Z</time></trkpt><trkpt lat="45.2114177" lon="13.7897196"><ele>265.3333333333333</ele><time>2026-04-12T11:00:41.979Z</time></trkpt><trkpt lat="45.2115006" lon="13.7897522"><ele>265.66666666666663</ele><time>2026-04-12T11:00:42.978Z</time></trkpt><trkpt lat="45.2115915" lon="13.7897562"><ele>266.0</ele><time>2026-04-12T11:00:43.976Z</time></trkpt><trkpt lat="45.2116846" lon="13.7897444"><ele>266.3333333333333</ele><time>2026-04-12T11:00:44.975Z</time></trkpt><trkpt lat="45.2117624" lon="13.7897302"><ele>266.6666666666667</ele><time>2026-04-12T11:00:45.971Z</time></trkpt><trkpt lat="45.2118583" lon="13.7897252"><ele>267.0</ele><time>2026-04-12T11:00:47.971Z</time></trkpt><trkpt lat="45.2119416" lon="13.7897316"><ele>267.0</ele><time>2026-04-12T11:00:53.977Z</time></trkpt><trkpt lat="45.2120288" lon="13.7898229"><ele>267.0</ele><time>2026-04-12T11:00:55.977Z</time></trkpt><trkpt lat="45.2120881" lon="13.789884"><ele>267.0</ele><time>2026-04-12T11:00:56.976Z</time></trkpt><trkpt lat="45.2121617" lon="13.7899522"><ele>267.0</ele><time>2026-04-12T11:00:57.976Z</time></trkpt><trkpt lat="45.2122509" lon="13.7900199"><ele>267.0</ele><time>2026-04-12T11:00:58.975Z</time></trkpt><trkpt lat="45.2123531" lon="13.7900942"><ele>268.0</ele><time>2026-04-12T11:00:59.976Z</time></trkpt><trkpt lat="45.212454" lon="13.7901621"><ele>269.0</ele><time>2026-04-12T11:01:00.975Z</time></trkpt><trkpt lat="45.2125643" lon="13.7902322"><ele>270.0</ele><time>2026-04-12T11:01:01.973Z</time></trkpt><trkpt lat="45.2126726" lon="13.7903095"><ele>271.0</ele><time>2026-04-12T11:01:02.974Z</time></trkpt><trkpt lat="45.2127854" lon="13.7903973"><ele>271.75</ele><time>2026-04-12T11:01:03.978Z</time></trkpt><trkpt lat="45.2129012" lon="13.7904875"><ele>272.5</ele><time>2026-04-12T11:01:04.978Z</time></trkpt><trkpt lat="45.2130287" lon="13.7905791"><ele>273.25</ele><time>2026-04-12T11:01:05.973Z</time></trkpt><trkpt lat="45.2131703" lon="13.790671"><ele>274.0</ele><time>2026-04-12T11:01:06.973Z</time></trkpt><trkpt lat="45.2133212" lon="13.7907472"><ele>274.3333333333333</ele><time>2026-04-12T11:01:07.974Z</time></trkpt><trkpt lat="45.2134766" lon="13.79081"><ele>274.6666666666667</ele><time>2026-04-12T11:01:08.972Z</time></trkpt><trkpt lat="45.2136437" lon="13.7908608"><ele>275.0</ele><time>2026-04-12T11:01:09.979Z</time></trkpt><trkpt lat="45.2138202" lon="13.7908939"><ele>276.33333333333337</ele><time>2026-04-12T11:01:10.971Z</time></trkpt><trkpt lat="45.2139999" lon="13.7909122"><ele>277.6666666666667</ele><time>2026-04-12T11:01:11.971Z</time></trkpt><trkpt lat="45.214178" lon="13.7909148"><ele>279.0</ele><time>2026-04-12T11:01:12.98Z</time></trkpt><trkpt lat="45.2143647" lon="13.7909125"><ele>279.0</ele><time>2026-04-12T11:01:13.974Z</time></trkpt><trkpt lat="45.2145488" lon="13.7909155"><ele>279.0</ele><time>2026-04-12T11:01:14.972Z</time></trkpt><trkpt lat="45.2147297" lon="13.7909385"><ele>279.0</ele><time>2026-04-12T11:01:15.97Z</time></trkpt><trkpt lat="45.2149075" lon="13.7909646"><ele>281.0</ele><time>2026-04-12T11:01:16.973Z</time></trkpt><trkpt lat="45.2150808" lon="13.7909968"><ele>283.0</ele><time>2026-04-12T11:01:17.983Z</time></trkpt><trkpt lat="45.2152498" lon="13.7910313"><ele>285.0</ele><time>2026-04-12T11:01:18.972Z</time></trkpt><trkpt lat="45.2154104" lon="13.7910666"><ele>285.5</ele><time>2026-04-12T11:01:19.974Z</time></trkpt><trkpt lat="45.2155528" lon="13.7910973"><ele>286.0</ele><time>2026-04-12T11:01:20.973Z</time></trkpt><trkpt lat="45.2156825" lon="13.7911256"><ele>286.5</ele><time>2026-04-12T11:01:21.973Z</time></trkpt><trkpt lat="45.2157981" lon="13.7911647"><ele>287.0</ele><time>2026-04-12T11:01:22.972Z</time></trkpt><trkpt lat="45.2159112" lon="13.791237"><ele>288.0</ele><time>2026-04-12T11:01:23.972Z</time></trkpt><trkpt lat="45.2160066" lon="13.7913472"><ele>289.0</ele><time>2026-04-12T11:01:24.976Z</time></trkpt><trkpt lat="45.2160826" lon="13.7914934"><ele>290.0</ele><time>2026-04-12T11:01:25.982Z</time></trkpt><trkpt lat="45.216138" lon="13.7916744"><ele>291.0</ele><time>2026-04-12T11:01:26.975Z</time></trkpt><trkpt lat="45.2162084" lon="13.791861"><ele>292.0</ele><time>2026-04-12T11:01:27.981Z</time></trkpt><trkpt lat="45.2162883" lon="13.7920483"><ele>293.0</ele><time>2026-04-12T11:01:28.973Z</time></trkpt><trkpt lat="45.2163813" lon="13.7922412"><ele>294.0</ele><time>2026-04-12T11:01:29.972Z</time></trkpt><trkpt lat="45.2164809" lon="13.7924343"><ele>294.6666666666667</ele><time>2026-04-12T11:01:30.973Z</time></trkpt><trkpt lat="45.2165909" lon="13.7926275"><ele>295.33333333333337</ele><time>2026-04-12T11:01:31.972Z</time></trkpt><trkpt lat="45.2166956" lon="13.7928284"><ele>296.0</ele><time>2026-04-12T11:01:32.972Z</time></trkpt><trkpt lat="45.2167901" lon="13.7930351"><ele>297.0</ele><time>2026-04-12T11:01:33.973Z</time></trkpt><trkpt lat="45.2168719" lon="13.7932504"><ele>298.0</ele><time>2026-04-12T11:01:34.972Z</time></trkpt><trkpt lat="45.2169434" lon="13.7934681"><ele>299.0</ele><time>2026-04-12T11:01:35.974Z</time></trkpt><trkpt lat="45.2170086" lon="13.7936924"><ele>299.33333333333337</ele><time>2026-04-12T11:01:36.977Z</time></trkpt><trkpt lat="45.2170681" lon="13.7939258"><ele>299.6666666666667</ele><time>2026-04-12T11:01:37.973Z</time></trkpt><trkpt lat="45.2171227" lon="13.7941587"><ele>300.0</ele><time>2026-04-12T11:01:38.971Z</time></trkpt><trkpt lat="45.2171838" lon="13.7943951"><ele>299.3333333333333</ele><time>2026-04-12T11:01:39.978Z</time></trkpt><trkpt lat="45.2172498" lon="13.794622"><ele>298.66666666666663</ele><time>2026-04-12T11:01:40.972Z</time></trkpt><trkpt lat="45.2173193" lon="13.7948502"><ele>298.0</ele><time>2026-04-12T11:01:41.972Z</time></trkpt><trkpt lat="45.2173881" lon="13.7950629"><ele>297.75</ele><time>2026-04-12T11:01:42.974Z</time></trkpt><trkpt lat="45.2174526" lon="13.7952638"><ele>297.5</ele><time>2026-04-12T11:01:43.977Z</time></trkpt><trkpt lat="45.217515" lon="13.795439"><ele>297.25</ele><time>2026-04-12T11:01:44.976Z</time></trkpt><trkpt lat="45.2175898" lon="13.795591"><ele>297.0</ele><time>2026-04-12T11:01:45.974Z</time></trkpt><trkpt lat="45.217691" lon="13.7957104"><ele>297.0</ele><time>2026-04-12T11:01:46.977Z</time></trkpt><trkpt lat="45.2178139" lon="13.7958001"><ele>297.0</ele><time>2026-04-12T11:01:47.974Z</time></trkpt><trkpt lat="45.2179525" lon="13.7958506"><ele>297.0</ele><time>2026-04-12T11:01:48.972Z</time></trkpt><trkpt lat="45.2181051" lon="13.7958589"><ele>297.0</ele><time>2026-04-12T11:01:49.973Z</time></trkpt><trkpt lat="45.218265" lon="13.795839"><ele>297.0</ele><time>2026-04-12T11:01:50.974Z</time></trkpt><trkpt lat="45.2184286" lon="13.795802"><ele>297.0</ele><time>2026-04-12T11:01:51.988Z</time></trkpt><trkpt lat="45.2185951" lon="13.7957616"><ele>297.0</ele><time>2026-04-12T11:01:52.976Z</time></trkpt><trkpt lat="45.2187581" lon="13.7957339"><ele>297.0</ele><time>2026-04-12T11:01:53.979Z</time></trkpt><trkpt lat="45.2189151" lon="13.7957297"><ele>297.0</ele><time>2026-04-12T11:01:54.977Z</time></trkpt><trkpt lat="45.2190799" lon="13.7957564"><ele>297.0</ele><time>2026-04-12T11:01:55.977Z</time></trkpt><trkpt lat="45.2192501" lon="13.795807"><ele>297.6666666666667</ele><time>2026-04-12T11:01:56.978Z</time></trkpt><trkpt lat="45.2194214" lon="13.7958743"><ele>298.33333333333337</ele><time>2026-04-12T11:01:57.977Z</time></trkpt><trkpt lat="45.2195982" lon="13.795942"><ele>299.0</ele><time>2026-04-12T11:01:58.972Z</time></trkpt><trkpt lat="45.2197724" lon="13.7960054"><ele>297.33333333333337</ele><time>2026-04-12T11:01:59.98Z</time></trkpt><trkpt lat="45.21995" lon="13.796076"><ele>295.6666666666667</ele><time>2026-04-12T11:02:00.985Z</time></trkpt><trkpt lat="45.2201249" lon="13.796165"><ele>294.0</ele><time>2026-04-12T11:02:01.978Z</time></trkpt><trkpt lat="45.2202961" lon="13.7962659"><ele>294.0</ele><time>2026-04-12T11:02:02.978Z</time></trkpt><trkpt lat="45.2204644" lon="13.7963755"><ele>294.0</ele><time>2026-04-12T11:02:03.977Z</time></trkpt><trkpt lat="45.2206303" lon="13.7964838"><ele>294.0</ele><time>2026-04-12T11:02:04.978Z</time></trkpt><trkpt lat="45.2207867" lon="13.7965975"><ele>294.6666666666667</ele><time>2026-04-12T11:02:05.974Z</time></trkpt><trkpt lat="45.2209348" lon="13.7967291"><ele>295.33333333333337</ele><time>2026-04-12T11:02:06.976Z</time></trkpt><trkpt lat="45.2210741" lon="13.7968792"><ele>296.0</ele><time>2026-04-12T11:02:07.972Z</time></trkpt><trkpt lat="45.2212042" lon="13.7970379"><ele>296.0</ele><time>2026-04-12T11:02:08.991Z</time></trkpt><trkpt lat="45.2213195" lon="13.797195"><ele>296.0</ele><time>2026-04-12T11:02:09.983Z</time></trkpt><trkpt lat="45.2214137" lon="13.7973499"><ele>296.0</ele><time>2026-04-12T11:02:10.983Z</time></trkpt><trkpt lat="45.2214981" lon="13.7974928"><ele>296.0</ele><time>2026-04-12T11:02:11.98Z</time></trkpt><trkpt lat="45.2215734" lon="13.7976281"><ele>297.40000000000003</ele><time>2026-04-12T11:02:12.976Z</time></trkpt><trkpt lat="45.2216386" lon="13.7977552"><ele>298.8</ele><time>2026-04-12T11:02:13.979Z</time></trkpt><trkpt lat="45.2216977" lon="13.7978819"><ele>300.20000000000005</ele><time>2026-04-12T11:02:14.973Z</time></trkpt><trkpt lat="45.2217479" lon="13.7980189"><ele>301.6</ele><time>2026-04-12T11:02:15.977Z</time></trkpt><trkpt lat="45.2217881" lon="13.7981509"><ele>303.0</ele><time>2026-04-12T11:02:16.974Z</time></trkpt><trkpt lat="45.2218222" lon="13.7982724"><ele>303.0</ele><time>2026-04-12T11:02:17.976Z</time></trkpt><trkpt lat="45.2218552" lon="13.7983872"><ele>303.0</ele><time>2026-04-12T11:02:18.978Z</time></trkpt><trkpt lat="45.2218771" lon="13.7984973"><ele>303.0</ele><time>2026-04-12T11:02:19.984Z</time></trkpt><trkpt lat="45.2218869" lon="13.7985951"><ele>303.0</ele><time>2026-04-12T11:02:20.974Z</time></trkpt><trkpt lat="45.2218846" lon="13.7986865"><ele>303.0</ele><time>2026-04-12T11:02:21.974Z</time></trkpt><trkpt lat="45.2218744" lon="13.7987758"><ele>303.0</ele><time>2026-04-12T11:02:22.969Z</time></trkpt><trkpt lat="45.2218672" lon="13.7988704"><ele>303.0</ele><time>2026-04-12T11:02:23.972Z</time></trkpt><trkpt lat="45.2218602" lon="13.7989764"><ele>303.1666666666667</ele><time>2026-04-12T11:02:24.976Z</time></trkpt><trkpt lat="45.2218567" lon="13.7990865"><ele>303.3333333333333</ele><time>2026-04-12T11:02:25.983Z</time></trkpt><trkpt lat="45.2218463" lon="13.7991981"><ele>303.5</ele><time>2026-04-12T11:02:26.976Z</time></trkpt><trkpt lat="45.2218381" lon="13.7992903"><ele>303.66666666666663</ele><time>2026-04-12T11:02:27.98Z</time></trkpt><trkpt lat="45.2218543" lon="13.7994407"><ele>303.8333333333333</ele><time>2026-04-12T11:02:29.979Z</time></trkpt><trkpt lat="45.2218725" lon="13.7995808"><ele>304.0</ele><time>2026-04-12T11:02:31.979Z</time></trkpt><trkpt lat="45.2219468" lon="13.7997092"><ele>304.5</ele><time>2026-04-12T11:02:33.98Z</time></trkpt><trkpt lat="45.2220028" lon="13.7997602"><ele>305.0</ele><time>2026-04-12T11:02:34.977Z</time></trkpt><trkpt lat="45.2220652" lon="13.7998156"><ele>305.5</ele><time>2026-04-12T11:02:35.982Z</time></trkpt><trkpt lat="45.2221288" lon="13.7998806"><ele>306.0</ele><time>2026-04-12T11:02:36.98Z</time></trkpt><trkpt lat="45.2222164" lon="13.7999743"><ele>306.5</ele><time>2026-04-12T11:02:37.974Z</time></trkpt><trkpt lat="45.2222917" lon="13.8000732"><ele>307.0</ele><time>2026-04-12T11:02:38.971Z</time></trkpt><trkpt lat="45.2223688" lon="13.800179"><ele>308.0</ele><time>2026-04-12T11:02:39.985Z</time></trkpt><trkpt lat="45.2224432" lon="13.8003015"><ele>309.0</ele><time>2026-04-12T11:02:40.97Z</time></trkpt><trkpt lat="45.2225209" lon="13.8004309"><ele>310.0</ele><time>2026-04-12T11:02:41.972Z</time></trkpt><trkpt lat="45.2226002" lon="13.8005641"><ele>311.0</ele><time>2026-04-12T11:02:42.98Z</time></trkpt><trkpt lat="45.2226913" lon="13.8006927"><ele>311.0</ele><time>2026-04-12T11:02:43.971Z</time></trkpt><trkpt lat="45.2227815" lon="13.8008243"><ele>311.0</ele><time>2026-04-12T11:02:44.978Z</time></trkpt><trkpt lat="45.2228784" lon="13.8009585"><ele>311.0</ele><time>2026-04-12T11:02:45.973Z</time></trkpt><trkpt lat="45.2229813" lon="13.8010928"><ele>311.0</ele><time>2026-04-12T11:02:46.972Z</time></trkpt><trkpt lat="45.2230851" lon="13.8012246"><ele>312.0</ele><time>2026-04-12T11:02:47.979Z</time></trkpt><trkpt lat="45.2231917" lon="13.801353"><ele>313.0</ele><time>2026-04-12T11:02:48.975Z</time></trkpt><trkpt lat="45.2232916" lon="13.801481"><ele>314.0</ele><time>2026-04-12T11:02:49.973Z</time></trkpt><trkpt lat="45.223372" lon="13.8016205"><ele>315.0</ele><time>2026-04-12T11:02:50.978Z</time></trkpt><trkpt lat="45.2234363" lon="13.8017504"><ele>315.4</ele><time>2026-04-12T11:02:51.979Z</time></trkpt><trkpt lat="45.2234866" lon="13.8018766"><ele>315.8</ele><time>2026-04-12T11:02:52.981Z</time></trkpt><trkpt lat="45.2235312" lon="13.801985"><ele>316.2</ele><time>2026-04-12T11:02:53.978Z</time></trkpt><trkpt lat="45.2235817" lon="13.8020771"><ele>316.6</ele><time>2026-04-12T11:02:54.977Z</time></trkpt><trkpt lat="45.2236378" lon="13.8021712"><ele>317.0</ele><time>2026-04-12T11:02:55.969Z</time></trkpt><trkpt lat="45.2236949" lon="13.8022737"><ele>317.0</ele><time>2026-04-12T11:02:56.975Z</time></trkpt><trkpt lat="45.2237486" lon="13.8023715"><ele>317.0</ele><time>2026-04-12T11:02:57.976Z</time></trkpt><trkpt lat="45.2237972" lon="13.8024587"><ele>317.0</ele><time>2026-04-12T11:02:58.971Z</time></trkpt><trkpt lat="45.2238382" lon="13.8025388"><ele>317.0</ele><time>2026-04-12T11:02:59.973Z</time></trkpt><trkpt lat="45.2238741" lon="13.8026254"><ele>317.0</ele><time>2026-04-12T11:03:01.974Z</time></trkpt><trkpt lat="45.2239397" lon="13.8027383"><ele>317.0</ele><time>2026-04-12T11:03:04.988Z</time></trkpt><trkpt lat="45.2239958" lon="13.8028091"><ele>317.5</ele><time>2026-04-12T11:03:05.986Z</time></trkpt><trkpt lat="45.224059" lon="13.8028735"><ele>318.0</ele><time>2026-04-12T11:03:06.987Z</time></trkpt><trkpt lat="45.2241209" lon="13.8029519"><ele>318.5</ele><time>2026-04-12T11:03:07.977Z</time></trkpt><trkpt lat="45.2241788" lon="13.8030279"><ele>319.0</ele><time>2026-04-12T11:03:08.968Z</time></trkpt><trkpt lat="45.2242321" lon="13.8030984"><ele>319.5</ele><time>2026-04-12T11:03:09.971Z</time></trkpt><trkpt lat="45.2242946" lon="13.8031791"><ele>320.0</ele><time>2026-04-12T11:03:10.973Z</time></trkpt><trkpt lat="45.2243656" lon="13.8032779"><ele>320.0</ele><time>2026-04-12T11:03:11.975Z</time></trkpt><trkpt lat="45.2244431" lon="13.8033832"><ele>320.0</ele><time>2026-04-12T11:03:12.978Z</time></trkpt><trkpt lat="45.2245271" lon="13.803484"><ele>320.0</ele><time>2026-04-12T11:03:13.971Z</time></trkpt><trkpt lat="45.2246178" lon="13.8035927"><ele>320.0</ele><time>2026-04-12T11:03:14.984Z</time></trkpt><trkpt lat="45.2247169" lon="13.8036964"><ele>321.25</ele><time>2026-04-12T11:03:15.975Z</time></trkpt><trkpt lat="45.2248215" lon="13.8038035"><ele>322.5</ele><time>2026-04-12T11:03:16.975Z</time></trkpt><trkpt lat="45.2249177" lon="13.8039288"><ele>323.75</ele><time>2026-04-12T11:03:17.975Z</time></trkpt><trkpt lat="45.2250055" lon="13.8040672"><ele>325.0</ele><time>2026-04-12T11:03:18.972Z</time></trkpt><trkpt lat="45.2250989" lon="13.8042044"><ele>324.75</ele><time>2026-04-12T11:03:19.975Z</time></trkpt><trkpt lat="45.2252073" lon="13.8043335"><ele>324.5</ele><time>2026-04-12T11:03:20.98Z</time></trkpt><trkpt lat="45.2253156" lon="13.8044505"><ele>324.25</ele><time>2026-04-12T11:03:21.971Z</time></trkpt><trkpt lat="45.2254425" lon="13.8045616"><ele>324.0</ele><time>2026-04-12T11:03:22.972Z</time></trkpt><trkpt lat="45.2255728" lon="13.8046728"><ele>323.75</ele><time>2026-04-12T11:03:23.973Z</time></trkpt><trkpt lat="45.2257061" lon="13.8047751"><ele>323.5</ele><time>2026-04-12T11:03:24.974Z</time></trkpt><trkpt lat="45.2258354" lon="13.8048807"><ele>323.25</ele><time>2026-04-12T11:03:25.971Z</time></trkpt><trkpt lat="45.2259586" lon="13.8049773"><ele>323.0</ele><time>2026-04-12T11:03:26.972Z</time></trkpt><trkpt lat="45.2260684" lon="13.8050901"><ele>322.25</ele><time>2026-04-12T11:03:27.973Z</time></trkpt><trkpt lat="45.2261694" lon="13.8052294"><ele>321.5</ele><time>2026-04-12T11:03:28.974Z</time></trkpt><trkpt lat="45.2262616" lon="13.8053933"><ele>320.75</ele><time>2026-04-12T11:03:29.974Z</time></trkpt><trkpt lat="45.2263508" lon="13.8055719"><ele>320.0</ele><time>2026-04-12T11:03:30.971Z</time></trkpt><trkpt lat="45.2264428" lon="13.8057522"><ele>320.0</ele><time>2026-04-12T11:03:31.973Z</time></trkpt><trkpt lat="45.2265378" lon="13.8059288"><ele>320.0</ele><time>2026-04-12T11:03:32.977Z</time></trkpt><trkpt lat="45.2266363" lon="13.8061066"><ele>320.0</ele><time>2026-04-12T11:03:33.975Z</time></trkpt><trkpt lat="45.2267265" lon="13.8062884"><ele>320.33333333333337</ele><time>2026-04-12T11:03:34.976Z</time></trkpt><trkpt lat="45.2268136" lon="13.8064771"><ele>320.6666666666667</ele><time>2026-04-12T11:03:35.974Z</time></trkpt><trkpt lat="45.226886" lon="13.8066753"><ele>321.0</ele><time>2026-04-12T11:03:36.972Z</time></trkpt><trkpt lat="45.226956" lon="13.8068673"><ele>322.0</ele><time>2026-04-12T11:03:37.973Z</time></trkpt><trkpt lat="45.227026" lon="13.8070335"><ele>323.0</ele><time>2026-04-12T11:03:38.973Z</time></trkpt><trkpt lat="45.2271074" lon="13.8071589"><ele>324.0</ele><time>2026-04-12T11:03:39.974Z</time></trkpt><trkpt lat="45.2271937" lon="13.8072483"><ele>325.0</ele><time>2026-04-12T11:03:40.978Z</time></trkpt><trkpt lat="45.2272764" lon="13.8073081"><ele>325.6</ele><time>2026-04-12T11:03:41.976Z</time></trkpt><trkpt lat="45.22736" lon="13.8073574"><ele>326.2</ele><time>2026-04-12T11:03:42.97Z</time></trkpt><trkpt lat="45.2274489" lon="13.8074155"><ele>326.79999999999995</ele><time>2026-04-12T11:03:43.974Z</time></trkpt><trkpt lat="45.2275412" lon="13.8074912"><ele>327.4</ele><time>2026-04-12T11:03:44.976Z</time></trkpt><trkpt lat="45.2276279" lon="13.8075741"><ele>328.0</ele><time>2026-04-12T11:03:45.972Z</time></trkpt><trkpt lat="45.2277166" lon="13.8076662"><ele>328.4</ele><time>2026-04-12T11:03:46.975Z</time></trkpt><trkpt lat="45.2278037" lon="13.8077607"><ele>328.79999999999995</ele><time>2026-04-12T11:03:47.977Z</time></trkpt><trkpt lat="45.2278933" lon="13.8078583"><ele>329.2</ele><time>2026-04-12T11:03:48.972Z</time></trkpt><trkpt lat="45.2279795" lon="13.8079419"><ele>329.6</ele><time>2026-04-12T11:03:49.976Z</time></trkpt><trkpt lat="45.2280501" lon="13.808009"><ele>330.0</ele><time>2026-04-12T11:03:50.973Z</time></trkpt><trkpt lat="45.2281169" lon="13.80807"><ele>330.1666666666667</ele><time>2026-04-12T11:03:51.979Z</time></trkpt><trkpt lat="45.2281748" lon="13.8081222"><ele>330.3333333333333</ele><time>2026-04-12T11:03:52.977Z</time></trkpt><trkpt lat="45.228285" lon="13.8082242"><ele>330.5</ele><time>2026-04-12T11:03:54.978Z</time></trkpt><trkpt lat="45.2283367" lon="13.8082984"><ele>330.66666666666663</ele><time>2026-04-12T11:03:55.978Z</time></trkpt><trkpt lat="45.2283977" lon="13.8083671"><ele>330.8333333333333</ele><time>2026-04-12T11:03:56.973Z</time></trkpt><trkpt lat="45.2284667" lon="13.8084328"><ele>331.0</ele><time>2026-04-12T11:03:57.98Z</time></trkpt><trkpt lat="45.2285337" lon="13.8084983"><ele>330.66666666666663</ele><time>2026-04-12T11:03:58.97Z</time></trkpt><trkpt lat="45.2286028" lon="13.8085535"><ele>330.3333333333333</ele><time>2026-04-12T11:03:59.974Z</time></trkpt><trkpt lat="45.2286753" lon="13.8085993"><ele>330.0</ele><time>2026-04-12T11:04:00.969Z</time></trkpt><trkpt lat="45.2287528" lon="13.8086233"><ele>329.6666666666667</ele><time>2026-04-12T11:04:01.975Z</time></trkpt><trkpt lat="45.2288214" lon="13.8086349"><ele>329.33333333333337</ele><time>2026-04-12T11:04:02.982Z</time></trkpt><trkpt lat="45.2289028" lon="13.8086866"><ele>329.0</ele><time>2026-04-12T11:04:05.979Z</time></trkpt><trkpt lat="45.228878" lon="13.8087949"><ele>329.0</ele><time>2026-04-12T11:04:09.981Z</time></trkpt><trkpt lat="45.2288225" lon="13.808872"><ele>329.0</ele><time>2026-04-12T11:04:12.973Z</time></trkpt><trkpt lat="45.2287413" lon="13.8089392"><ele>329.0</ele><time>2026-04-12T11:04:14.98Z</time></trkpt><trkpt lat="45.2286689" lon="13.8089913"><ele>329.0</ele><time>2026-04-12T11:04:15.975Z</time></trkpt><trkpt lat="45.2285885" lon="13.8090516"><ele>329.0</ele><time>2026-04-12T11:04:16.979Z</time></trkpt><trkpt lat="45.2284628" lon="13.8091545"><ele>329.0</ele><time>2026-04-12T11:04:17.975Z</time></trkpt><trkpt lat="45.2283544" lon="13.8092635"><ele>329.0</ele><time>2026-04-12T11:04:18.981Z</time></trkpt><trkpt lat="45.2282934" lon="13.8093148"><ele>329.0</ele><time>2026-04-12T11:04:19.971Z</time></trkpt><trkpt lat="45.2282395" lon="13.8093639"><ele>329.0</ele><time>2026-04-12T11:04:20.969Z</time></trkpt><trkpt lat="45.2281308" lon="13.8094452"><ele>329.0</ele><time>2026-04-12T11:04:22.983Z</time></trkpt><trkpt lat="45.2280692" lon="13.8094947"><ele>329.1666666666667</ele><time>2026-04-12T11:04:23.975Z</time></trkpt><trkpt lat="45.2280158" lon="13.8095549"><ele>329.33333333333337</ele><time>2026-04-12T11:04:24.976Z</time></trkpt><trkpt lat="45.2279691" lon="13.8096208"><ele>329.5</ele><time>2026-04-12T11:04:25.977Z</time></trkpt><trkpt lat="45.227923" lon="13.809682"><ele>329.6666666666667</ele><time>2026-04-12T11:04:26.975Z</time></trkpt><trkpt lat="45.2278765" lon="13.8097497"><ele>329.8333333333333</ele><time>2026-04-12T11:04:27.973Z</time></trkpt><trkpt lat="45.2278277" lon="13.8098142"><ele>330.0</ele><time>2026-04-12T11:04:28.972Z</time></trkpt><trkpt lat="45.2277309" lon="13.809951"><ele>330.0</ele><time>2026-04-12T11:04:30.977Z</time></trkpt><trkpt lat="45.2276772" lon="13.8100145"><ele>330.0</ele><time>2026-04-12T11:04:31.977Z</time></trkpt><trkpt lat="45.2275896" lon="13.8101468"><ele>330.0</ele><time>2026-04-12T11:04:33.972Z</time></trkpt><trkpt lat="45.2275166" lon="13.8102731"><ele>330.0</ele><time>2026-04-12T11:04:35.973Z</time></trkpt><trkpt lat="45.227458" lon="13.8103468"><ele>330.0</ele><time>2026-04-12T11:04:38.975Z</time></trkpt><trkpt lat="45.2274271" lon="13.8104778"><ele>330.2</ele><time>2026-04-12T11:08:37.971Z</time></trkpt><trkpt lat="45.227407" lon="13.8106247"><ele>330.4</ele><time>2026-04-12T11:08:39.985Z</time></trkpt><trkpt lat="45.2273513" lon="13.8107947"><ele>330.6</ele><time>2026-04-12T11:08:41.975Z</time></trkpt><trkpt lat="45.2272949" lon="13.8108744"><ele>330.8</ele><time>2026-04-12T11:08:42.974Z</time></trkpt><trkpt lat="45.2272475" lon="13.8109642"><ele>331.0</ele><time>2026-04-12T11:08:43.979Z</time></trkpt><trkpt lat="45.2271981" lon="13.8110515"><ele>331.3333333333333</ele><time>2026-04-12T11:08:44.972Z</time></trkpt><trkpt lat="45.2271577" lon="13.8111312"><ele>331.66666666666663</ele><time>2026-04-12T11:08:45.976Z</time></trkpt><trkpt lat="45.2271155" lon="13.8112096"><ele>332.0</ele><time>2026-04-12T11:08:46.972Z</time></trkpt><trkpt lat="45.2270933" lon="13.8113556"><ele>332.3333333333333</ele><time>2026-04-12T11:08:48.971Z</time></trkpt><trkpt lat="45.2270985" lon="13.8114879"><ele>332.6666666666667</ele><time>2026-04-12T11:08:50.977Z</time></trkpt><trkpt lat="45.2270755" lon="13.8115946"><ele>333.0</ele><time>2026-04-12T11:08:53.971Z</time></trkpt><trkpt lat="45.2270399" lon="13.8116743"><ele>333.0</ele><time>2026-04-12T11:08:55.979Z</time></trkpt><trkpt lat="45.226971" lon="13.811793"><ele>333.0</ele><time>2026-04-12T11:08:56.976Z</time></trkpt><trkpt lat="45.2268949" lon="13.8119503"><ele>333.0</ele><time>2026-04-12T11:08:57.969Z</time></trkpt><trkpt lat="45.2268557" lon="13.8120915"><ele>333.0</ele><time>2026-04-12T11:08:59.966Z</time></trkpt><trkpt lat="45.2268382" lon="13.8122345"><ele>333.75</ele><time>2026-04-12T11:09:01.982Z</time></trkpt><trkpt lat="45.226853" lon="13.8123745"><ele>334.5</ele><time>2026-04-12T11:09:03.972Z</time></trkpt><trkpt lat="45.226893" lon="13.8125295"><ele>335.25</ele><time>2026-04-12T11:09:05.97Z</time></trkpt><trkpt lat="45.2269333" lon="13.8126934"><ele>336.0</ele><time>2026-04-12T11:09:07.972Z</time></trkpt><trkpt lat="45.2269552" lon="13.8128502"><ele>336.20000000000005</ele><time>2026-04-12T11:09:09.974Z</time></trkpt><trkpt lat="45.2269943" lon="13.812977"><ele>336.40000000000003</ele><time>2026-04-12T11:09:11.974Z</time></trkpt><trkpt lat="45.2270416" lon="13.8130771"><ele>336.6</ele><time>2026-04-12T11:09:13.978Z</time></trkpt><trkpt lat="45.227127" lon="13.8131982"><ele>336.8</ele><time>2026-04-12T11:09:15.977Z</time></trkpt><trkpt lat="45.2272324" lon="13.8132956"><ele>337.0</ele><time>2026-04-12T11:09:17.973Z</time></trkpt><trkpt lat="45.2272954" lon="13.8133302"><ele>337.14285714285717</ele><time>2026-04-12T11:09:18.974Z</time></trkpt><trkpt lat="45.2273615" lon="13.8133494"><ele>337.2857142857143</ele><time>2026-04-12T11:09:19.978Z</time></trkpt><trkpt lat="45.2274279" lon="13.8133792"><ele>337.42857142857144</ele><time>2026-04-12T11:09:20.974Z</time></trkpt><trkpt lat="45.2274902" lon="13.8134162"><ele>337.57142857142856</ele><time>2026-04-12T11:09:21.973Z</time></trkpt><trkpt lat="45.2275506" lon="13.8134571"><ele>337.7142857142857</ele><time>2026-04-12T11:09:22.975Z</time></trkpt><trkpt lat="45.2276129" lon="13.8135015"><ele>337.8571428571429</ele><time>2026-04-12T11:09:23.973Z</time></trkpt><trkpt lat="45.227674" lon="13.8135412"><ele>338.0</ele><time>2026-04-12T11:09:24.971Z</time></trkpt><trkpt lat="45.2277786" lon="13.8136029"><ele>338.0</ele><time>2026-04-12T11:09:26.973Z</time></trkpt><trkpt lat="45.2278679" lon="13.8136464"><ele>338.0</ele><time>2026-04-12T11:09:28.975Z</time></trkpt><trkpt lat="45.227952" lon="13.813704"><ele>338.0</ele><time>2026-04-12T11:09:30.975Z</time></trkpt><trkpt lat="45.2280175" lon="13.8137608"><ele>338.0</ele><time>2026-04-12T11:09:34.974Z</time></trkpt><trkpt lat="45.2280935" lon="13.8138191"><ele>338.0</ele><time>2026-04-12T11:09:37.976Z</time></trkpt><trkpt lat="45.2281626" lon="13.8138666"><ele>338.0</ele><time>2026-04-12T11:09:39.974Z</time></trkpt><trkpt lat="45.2282534" lon="13.8139001"><ele>337.33333333333337</ele><time>2026-04-12T11:09:42.973Z</time></trkpt><trkpt lat="45.2283694" lon="13.8139302"><ele>336.6666666666667</ele><time>2026-04-12T11:09:44.976Z</time></trkpt><trkpt lat="45.2284511" lon="13.8139565"><ele>336.0</ele><time>2026-04-12T11:09:45.973Z</time></trkpt><trkpt lat="45.2286935" lon="13.8140629"><ele>336.0</ele><time>2026-04-12T11:09:46.973Z</time></trkpt><trkpt lat="45.2287909" lon="13.8141217"><ele>336.0</ele><time>2026-04-12T11:09:47.975Z</time></trkpt><trkpt lat="45.2288617" lon="13.8141909"><ele>336.0</ele><time>2026-04-12T11:09:48.97Z</time></trkpt><trkpt lat="45.2289241" lon="13.8142502"><ele>336.0</ele><time>2026-04-12T11:09:49.968Z</time></trkpt><trkpt lat="45.2290067" lon="13.8143304"><ele>336.0</ele><time>2026-04-12T11:09:51.976Z</time></trkpt><trkpt lat="45.2290599" lon="13.8143807"><ele>336.0</ele><time>2026-04-12T11:09:53.975Z</time></trkpt><trkpt lat="45.2291169" lon="13.8144462"><ele>335.6666666666667</ele><time>2026-04-12T11:09:57.975Z</time></trkpt><trkpt lat="45.2291769" lon="13.814509"><ele>335.3333333333333</ele><time>2026-04-12T11:10:00.985Z</time></trkpt><trkpt lat="45.2292256" lon="13.8145682"><ele>335.0</ele><time>2026-04-12T11:10:02.972Z</time></trkpt><trkpt lat="45.2292782" lon="13.8146291"><ele>334.66666666666663</ele><time>2026-04-12T11:10:04.974Z</time></trkpt><trkpt lat="45.2293524" lon="13.814708"><ele>334.3333333333333</ele><time>2026-04-12T11:10:07.969Z</time></trkpt><trkpt lat="45.2294578" lon="13.8148217"><ele>334.0</ele><time>2026-04-12T11:10:09.977Z</time></trkpt><trkpt lat="45.2296677" lon="13.8150631"><ele>334.2</ele><time>2026-04-12T11:10:10.973Z</time></trkpt><trkpt lat="45.2297574" lon="13.8151817"><ele>334.4</ele><time>2026-04-12T11:10:11.97Z</time></trkpt><trkpt lat="45.2298464" lon="13.815298"><ele>334.6</ele><time>2026-04-12T11:10:12.975Z</time></trkpt><trkpt lat="45.2299182" lon="13.8154009"><ele>334.8</ele><time>2026-04-12T11:10:13.97Z</time></trkpt><trkpt lat="45.2299792" lon="13.8155051"><ele>335.0</ele><time>2026-04-12T11:10:14.967Z</time></trkpt><trkpt lat="45.2300408" lon="13.8155994"><ele>335.0</ele><time>2026-04-12T11:10:15.975Z</time></trkpt><trkpt lat="45.2301047" lon="13.8156797"><ele>335.0</ele><time>2026-04-12T11:10:16.976Z</time></trkpt><trkpt lat="45.2301786" lon="13.815734"><ele>335.0</ele><time>2026-04-12T11:10:17.972Z</time></trkpt><trkpt lat="45.2302584" lon="13.8157831"><ele>335.0</ele><time>2026-04-12T11:10:18.979Z</time></trkpt><trkpt lat="45.2303351" lon="13.8158415"><ele>335.0</ele><time>2026-04-12T11:10:19.971Z</time></trkpt><trkpt lat="45.2303893" lon="13.8159234"><ele>335.0</ele><time>2026-04-12T11:10:20.979Z</time></trkpt><trkpt lat="45.2304262" lon="13.816024"><ele>334.8</ele><time>2026-04-12T11:10:21.978Z</time></trkpt><trkpt lat="45.2304579" lon="13.8161508"><ele>334.6</ele><time>2026-04-12T11:10:22.975Z</time></trkpt><trkpt lat="45.2304966" lon="13.8162673"><ele>334.4</ele><time>2026-04-12T11:10:23.974Z</time></trkpt><trkpt lat="45.2305405" lon="13.816393"><ele>334.2</ele><time>2026-04-12T11:10:24.978Z</time></trkpt><trkpt lat="45.2305848" lon="13.8165157"><ele>334.0</ele><time>2026-04-12T11:10:25.972Z</time></trkpt><trkpt lat="45.2306405" lon="13.8166335"><ele>333.79999999999995</ele><time>2026-04-12T11:10:26.971Z</time></trkpt><trkpt lat="45.230708" lon="13.8167537"><ele>333.59999999999997</ele><time>2026-04-12T11:10:27.978Z</time></trkpt><trkpt lat="45.2307805" lon="13.8168742"><ele>333.4</ele><time>2026-04-12T11:10:28.974Z</time></trkpt><trkpt lat="45.2308489" lon="13.817003"><ele>333.2</ele><time>2026-04-12T11:10:29.973Z</time></trkpt><trkpt lat="45.2309272" lon="13.8171226"><ele>333.0</ele><time>2026-04-12T11:10:30.969Z</time></trkpt><trkpt lat="45.2310086" lon="13.8172396"><ele>333.0</ele><time>2026-04-12T11:10:31.97Z</time></trkpt><trkpt lat="45.2310809" lon="13.8173616"><ele>333.0</ele><time>2026-04-12T11:10:32.978Z</time></trkpt><trkpt lat="45.2311504" lon="13.8174865"><ele>333.0</ele><time>2026-04-12T11:10:33.975Z</time></trkpt><trkpt lat="45.2312213" lon="13.8176079"><ele>333.0</ele><time>2026-04-12T11:10:34.973Z</time></trkpt><trkpt lat="45.2312945" lon="13.817724"><ele>333.0</ele><time>2026-04-12T11:10:35.978Z</time></trkpt><trkpt lat="45.2313601" lon="13.8178483"><ele>333.0</ele><time>2026-04-12T11:10:36.982Z</time></trkpt><trkpt lat="45.2314222" lon="13.8179702"><ele>333.0</ele><time>2026-04-12T11:10:37.984Z</time></trkpt><trkpt lat="45.231484" lon="13.818101"><ele>333.0</ele><time>2026-04-12T11:10:38.983Z</time></trkpt><trkpt lat="45.2315281" lon="13.8182479"><ele>333.0</ele><time>2026-04-12T11:10:39.973Z</time></trkpt><trkpt lat="45.2315937" lon="13.8183692"><ele>333.0</ele><time>2026-04-12T11:10:40.977Z</time></trkpt><trkpt lat="45.2316601" lon="13.8184989"><ele>332.25</ele><time>2026-04-12T11:10:41.979Z</time></trkpt><trkpt lat="45.2317111" lon="13.8186404"><ele>331.5</ele><time>2026-04-12T11:10:42.982Z</time></trkpt><trkpt lat="45.2317741" lon="13.8187801"><ele>330.75</ele><time>2026-04-12T11:10:43.972Z</time></trkpt><trkpt lat="45.2318458" lon="13.8189177"><ele>330.0</ele><time>2026-04-12T11:10:44.973Z</time></trkpt><trkpt lat="45.2319144" lon="13.8190493"><ele>330.0</ele><time>2026-04-12T11:10:45.97Z</time></trkpt><trkpt lat="45.231974" lon="13.819175"><ele>330.0</ele><time>2026-04-12T11:10:46.977Z</time></trkpt><trkpt lat="45.2320431" lon="13.8192968"><ele>330.0</ele><time>2026-04-12T11:10:47.975Z</time></trkpt><trkpt lat="45.2321242" lon="13.8194032"><ele>330.0</ele><time>2026-04-12T11:10:48.97Z</time></trkpt><trkpt lat="45.2321971" lon="13.8195259"><ele>330.0</ele><time>2026-04-12T11:10:49.98Z</time></trkpt><trkpt lat="45.2322547" lon="13.8196847"><ele>330.25</ele><time>2026-04-12T11:10:50.974Z</time></trkpt><trkpt lat="45.2323203" lon="13.8198481"><ele>330.5</ele><time>2026-04-12T11:10:51.977Z</time></trkpt><trkpt lat="45.2323884" lon="13.8200084"><ele>330.75</ele><time>2026-04-12T11:10:52.979Z</time></trkpt><trkpt lat="45.2324539" lon="13.8201662"><ele>331.0</ele><time>2026-04-12T11:10:53.979Z</time></trkpt><trkpt lat="45.2325201" lon="13.8203274"><ele>330.0</ele><time>2026-04-12T11:10:54.971Z</time></trkpt><trkpt lat="45.2325741" lon="13.8204823"><ele>329.0</ele><time>2026-04-12T11:10:55.972Z</time></trkpt><trkpt lat="45.2326409" lon="13.8206344"><ele>328.0</ele><time>2026-04-12T11:10:56.976Z</time></trkpt><trkpt lat="45.2327026" lon="13.8207861"><ele>327.0</ele><time>2026-04-12T11:10:57.97Z</time></trkpt><trkpt lat="45.2327619" lon="13.8209385"><ele>327.0</ele><time>2026-04-12T11:10:58.971Z</time></trkpt><trkpt lat="45.2328304" lon="13.8210781"><ele>327.0</ele><time>2026-04-12T11:10:59.976Z</time></trkpt><trkpt lat="45.2329042" lon="13.8212159"><ele>327.0</ele><time>2026-04-12T11:11:00.974Z</time></trkpt><trkpt lat="45.2329794" lon="13.8213408"><ele>327.0</ele><time>2026-04-12T11:11:01.976Z</time></trkpt><trkpt lat="45.2330534" lon="13.8214734"><ele>327.0</ele><time>2026-04-12T11:11:02.975Z</time></trkpt><trkpt lat="45.2331219" lon="13.8216092"><ele>327.0</ele><time>2026-04-12T11:11:03.987Z</time></trkpt><trkpt lat="45.2331814" lon="13.8217517"><ele>327.0</ele><time>2026-04-12T11:11:04.972Z</time></trkpt><trkpt lat="45.2332478" lon="13.8218957"><ele>327.0</ele><time>2026-04-12T11:11:05.975Z</time></trkpt><trkpt lat="45.2333255" lon="13.8220289"><ele>328.0</ele><time>2026-04-12T11:11:06.979Z</time></trkpt><trkpt lat="45.2333962" lon="13.8221739"><ele>329.0</ele><time>2026-04-12T11:11:07.98Z</time></trkpt><trkpt lat="45.2334607" lon="13.8223229"><ele>330.0</ele><time>2026-04-12T11:11:08.97Z</time></trkpt><trkpt lat="45.2335133" lon="13.8224779"><ele>331.0</ele><time>2026-04-12T11:11:09.979Z</time></trkpt><trkpt lat="45.2335578" lon="13.822631"><ele>330.0</ele><time>2026-04-12T11:11:10.983Z</time></trkpt><trkpt lat="45.2336075" lon="13.8227845"><ele>329.0</ele><time>2026-04-12T11:11:11.975Z</time></trkpt><trkpt lat="45.233658" lon="13.8229226"><ele>328.0</ele><time>2026-04-12T11:11:12.977Z</time></trkpt><trkpt lat="45.2337063" lon="13.823031"><ele>327.0</ele><time>2026-04-12T11:11:13.978Z</time></trkpt><trkpt lat="45.233751" lon="13.8231306"><ele>326.0</ele><time>2026-04-12T11:11:14.97Z</time></trkpt><trkpt lat="45.2337911" lon="13.8232088"><ele>326.0</ele><time>2026-04-12T11:11:15.973Z</time></trkpt><trkpt lat="45.2338438" lon="13.8233132"><ele>326.0</ele><time>2026-04-12T11:11:17.972Z</time></trkpt><trkpt lat="45.2339171" lon="13.8233843"><ele>326.0</ele><time>2026-04-12T11:11:20.979Z</time></trkpt><trkpt lat="45.2340194" lon="13.8233377"><ele>326.0</ele><time>2026-04-12T11:11:22.975Z</time></trkpt><trkpt lat="45.2340895" lon="13.8233017"><ele>326.0</ele><time>2026-04-12T11:11:23.978Z</time></trkpt><trkpt lat="45.2341755" lon="13.8232685"><ele>327.0</ele><time>2026-04-12T11:11:24.978Z</time></trkpt><trkpt lat="45.2342716" lon="13.8232296"><ele>328.0</ele><time>2026-04-12T11:11:25.969Z</time></trkpt><trkpt lat="45.2343771" lon="13.8231809"><ele>329.0</ele><time>2026-04-12T11:11:26.973Z</time></trkpt><trkpt lat="45.2344904" lon="13.8231288"><ele>330.0</ele><time>2026-04-12T11:11:27.969Z</time></trkpt><trkpt lat="45.2346148" lon="13.8230759"><ele>330.0</ele><time>2026-04-12T11:11:28.981Z</time></trkpt><trkpt lat="45.2347421" lon="13.8230198"><ele>330.0</ele><time>2026-04-12T11:11:29.973Z</time></trkpt><trkpt lat="45.2348754" lon="13.8229627"><ele>330.0</ele><time>2026-04-12T11:11:30.977Z</time></trkpt><trkpt lat="45.2350072" lon="13.8229068"><ele>330.0</ele><time>2026-04-12T11:11:31.974Z</time></trkpt><trkpt lat="45.2351398" lon="13.8228473"><ele>330.75</ele><time>2026-04-12T11:11:32.974Z</time></trkpt><trkpt lat="45.2352689" lon="13.8227814"><ele>331.5</ele><time>2026-04-12T11:11:33.972Z</time></trkpt><trkpt lat="45.2353933" lon="13.8227014"><ele>332.25</ele><time>2026-04-12T11:11:34.982Z</time></trkpt><trkpt lat="45.2355191" lon="13.8226127"><ele>333.0</ele><time>2026-04-12T11:11:35.971Z</time></trkpt><trkpt lat="45.2356424" lon="13.8225116"><ele>333.0</ele><time>2026-04-12T11:11:36.979Z</time></trkpt><trkpt lat="45.2357671" lon="13.8224064"><ele>333.0</ele><time>2026-04-12T11:11:37.972Z</time></trkpt><trkpt lat="45.2358976" lon="13.8222924"><ele>333.0</ele><time>2026-04-12T11:11:38.975Z</time></trkpt><trkpt lat="45.2360235" lon="13.822167"><ele>333.0</ele><time>2026-04-12T11:11:39.974Z</time></trkpt><trkpt lat="45.2361441" lon="13.8220229"><ele>333.0</ele><time>2026-04-12T11:11:40.974Z</time></trkpt><trkpt lat="45.2362461" lon="13.8218581"><ele>333.0</ele><time>2026-04-12T11:11:41.978Z</time></trkpt><trkpt lat="45.2363319" lon="13.8216747"><ele>334.0</ele><time>2026-04-12T11:11:42.977Z</time></trkpt><trkpt lat="45.2364014" lon="13.8214836"><ele>335.0</ele><time>2026-04-12T11:11:43.974Z</time></trkpt><trkpt lat="45.2364599" lon="13.8212864"><ele>336.0</ele><time>2026-04-12T11:11:44.973Z</time></trkpt><trkpt lat="45.236518" lon="13.8210947"><ele>337.0</ele><time>2026-04-12T11:11:45.978Z</time></trkpt><trkpt lat="45.2365704" lon="13.82092"><ele>337.6</ele><time>2026-04-12T11:11:46.971Z</time></trkpt><trkpt lat="45.2366174" lon="13.8207583"><ele>338.20000000000005</ele><time>2026-04-12T11:11:47.971Z</time></trkpt><trkpt lat="45.236655" lon="13.8206064"><ele>338.8</ele><time>2026-04-12T11:11:48.971Z</time></trkpt><trkpt lat="45.2366801" lon="13.8204718"><ele>339.4</ele><time>2026-04-12T11:11:49.976Z</time></trkpt><trkpt lat="45.2367009" lon="13.8203669"><ele>340.0</ele><time>2026-04-12T11:11:50.974Z</time></trkpt><trkpt lat="45.2367555" lon="13.8202714"><ele>340.0</ele><time>2026-04-12T11:11:52.975Z</time></trkpt><trkpt lat="45.2368547" lon="13.820256"><ele>340.0</ele><time>2026-04-12T11:11:54.98Z</time></trkpt><trkpt lat="45.2369729" lon="13.8203488"><ele>340.0</ele><time>2026-04-12T11:11:56.978Z</time></trkpt><trkpt lat="45.2370629" lon="13.8204327"><ele>340.0</ele><time>2026-04-12T11:11:57.976Z</time></trkpt><trkpt lat="45.2371469" lon="13.8205195"><ele>340.0</ele><time>2026-04-12T11:11:58.974Z</time></trkpt><trkpt lat="45.2372418" lon="13.820624"><ele>340.0</ele><time>2026-04-12T11:11:59.976Z</time></trkpt><trkpt lat="45.2373355" lon="13.820737"><ele>340.0</ele><time>2026-04-12T11:12:00.977Z</time></trkpt><trkpt lat="45.2374392" lon="13.8208482"><ele>340.0</ele><time>2026-04-12T11:12:01.971Z</time></trkpt><trkpt lat="45.237532" lon="13.8209489"><ele>340.0</ele><time>2026-04-12T11:12:02.974Z</time></trkpt><trkpt lat="45.2376024" lon="13.8210544"><ele>340.75</ele><time>2026-04-12T11:12:03.976Z</time></trkpt><trkpt lat="45.2376581" lon="13.8211813"><ele>341.5</ele><time>2026-04-12T11:12:04.98Z</time></trkpt><trkpt lat="45.2376966" lon="13.8213325"><ele>342.25</ele><time>2026-04-12T11:12:05.971Z</time></trkpt><trkpt lat="45.2377336" lon="13.8215063"><ele>343.0</ele><time>2026-04-12T11:12:06.971Z</time></trkpt><trkpt lat="45.2377819" lon="13.8216834"><ele>342.0</ele><time>2026-04-12T11:12:07.974Z</time></trkpt><trkpt lat="45.2378363" lon="13.8218639"><ele>341.0</ele><time>2026-04-12T11:12:08.971Z</time></trkpt><trkpt lat="45.2379076" lon="13.8220488"><ele>340.0</ele><time>2026-04-12T11:12:09.973Z</time></trkpt><trkpt lat="45.237964" lon="13.8222312"><ele>339.0</ele><time>2026-04-12T11:12:10.971Z</time></trkpt><trkpt lat="45.2380146" lon="13.8224018"><ele>339.0</ele><time>2026-04-12T11:12:11.976Z</time></trkpt><trkpt lat="45.2380657" lon="13.8225692"><ele>339.0</ele><time>2026-04-12T11:12:12.973Z</time></trkpt><trkpt lat="45.2381173" lon="13.8227417"><ele>339.0</ele><time>2026-04-12T11:12:13.978Z</time></trkpt><trkpt lat="45.238166" lon="13.8229305"><ele>339.0</ele><time>2026-04-12T11:12:14.971Z</time></trkpt><trkpt lat="45.2382134" lon="13.8231182"><ele>341.25</ele><time>2026-04-12T11:12:15.972Z</time></trkpt><trkpt lat="45.2382756" lon="13.8233111"><ele>343.5</ele><time>2026-04-12T11:12:16.972Z</time></trkpt><trkpt lat="45.2383358" lon="13.8235055"><ele>345.75</ele><time>2026-04-12T11:12:17.972Z</time></trkpt><trkpt lat="45.2383965" lon="13.8236941"><ele>348.0</ele><time>2026-04-12T11:12:18.974Z</time></trkpt><trkpt lat="45.2384515" lon="13.8238922"><ele>348.0</ele><time>2026-04-12T11:12:19.972Z</time></trkpt><trkpt lat="45.2384873" lon="13.8240921"><ele>348.0</ele><time>2026-04-12T11:12:20.976Z</time></trkpt><trkpt lat="45.2385264" lon="13.8242893"><ele>348.0</ele><time>2026-04-12T11:12:21.97Z</time></trkpt><trkpt lat="45.2385747" lon="13.8244855"><ele>348.0</ele><time>2026-04-12T11:12:22.972Z</time></trkpt><trkpt lat="45.2386314" lon="13.8246785"><ele>347.75</ele><time>2026-04-12T11:12:23.971Z</time></trkpt><trkpt lat="45.2386904" lon="13.8248758"><ele>347.5</ele><time>2026-04-12T11:12:24.971Z</time></trkpt><trkpt lat="45.2387404" lon="13.8250774"><ele>347.25</ele><time>2026-04-12T11:12:25.976Z</time></trkpt><trkpt lat="45.2387743" lon="13.8252802"><ele>347.0</ele><time>2026-04-12T11:12:26.973Z</time></trkpt><trkpt lat="45.2388155" lon="13.8254834"><ele>346.75</ele><time>2026-04-12T11:12:27.972Z</time></trkpt><trkpt lat="45.2388633" lon="13.8256759"><ele>346.5</ele><time>2026-04-12T11:12:28.981Z</time></trkpt><trkpt lat="45.238906" lon="13.8258556"><ele>346.25</ele><time>2026-04-12T11:12:29.97Z</time></trkpt><trkpt lat="45.2389531" lon="13.8260119"><ele>346.0</ele><time>2026-04-12T11:12:30.971Z</time></trkpt><trkpt lat="45.2390056" lon="13.8261705"><ele>346.75</ele><time>2026-04-12T11:12:31.973Z</time></trkpt><trkpt lat="45.2390622" lon="13.826344"><ele>347.5</ele><time>2026-04-12T11:12:32.973Z</time></trkpt><trkpt lat="45.2391304" lon="13.8265231"><ele>348.25</ele><time>2026-04-12T11:12:33.976Z</time></trkpt><trkpt lat="45.2391938" lon="13.8266908"><ele>349.0</ele><time>2026-04-12T11:12:34.972Z</time></trkpt><trkpt lat="45.2392568" lon="13.8268471"><ele>349.0</ele><time>2026-04-12T11:12:35.97Z</time></trkpt><trkpt lat="45.2393122" lon="13.8270232"><ele>349.0</ele><time>2026-04-12T11:12:36.974Z</time></trkpt><trkpt lat="45.2393582" lon="13.8272129"><ele>349.0</ele><time>2026-04-12T11:12:37.976Z</time></trkpt><trkpt lat="45.2394005" lon="13.8273935"><ele>349.0</ele><time>2026-04-12T11:12:38.98Z</time></trkpt><trkpt lat="45.2394608" lon="13.8275506"><ele>348.79999999999995</ele><time>2026-04-12T11:12:39.974Z</time></trkpt><trkpt lat="45.239514" lon="13.8276989"><ele>348.59999999999997</ele><time>2026-04-12T11:12:40.972Z</time></trkpt><trkpt lat="45.2395615" lon="13.8278297"><ele>348.4</ele><time>2026-04-12T11:12:41.972Z</time></trkpt><trkpt lat="45.2396179" lon="13.8279409"><ele>348.2</ele><time>2026-04-12T11:12:42.973Z</time></trkpt><trkpt lat="45.2396982" lon="13.8280421"><ele>348.0</ele><time>2026-04-12T11:12:43.976Z</time></trkpt><trkpt lat="45.2397982" lon="13.8281304"><ele>349.0</ele><time>2026-04-12T11:12:44.974Z</time></trkpt><trkpt lat="45.2399126" lon="13.8282104"><ele>350.0</ele><time>2026-04-12T11:12:45.97Z</time></trkpt><trkpt lat="45.2400365" lon="13.828282"><ele>351.0</ele><time>2026-04-12T11:12:46.974Z</time></trkpt><trkpt lat="45.2401572" lon="13.828357"><ele>352.0</ele><time>2026-04-12T11:12:47.975Z</time></trkpt><trkpt lat="45.2402764" lon="13.8284276"><ele>352.0</ele><time>2026-04-12T11:12:48.97Z</time></trkpt><trkpt lat="45.2403731" lon="13.8284997"><ele>352.0</ele><time>2026-04-12T11:12:49.975Z</time></trkpt><trkpt lat="45.2404527" lon="13.8285668"><ele>352.0</ele><time>2026-04-12T11:12:50.968Z</time></trkpt><trkpt lat="45.2405278" lon="13.8285966"><ele>352.0</ele><time>2026-04-12T11:12:51.974Z</time></trkpt><trkpt lat="45.2406022" lon="13.8285822"><ele>352.0</ele><time>2026-04-12T11:12:52.974Z</time></trkpt><trkpt lat="45.2406996" lon="13.8285342"><ele>353.25</ele><time>2026-04-12T11:12:53.977Z</time></trkpt><trkpt lat="45.2408016" lon="13.828476"><ele>354.5</ele><time>2026-04-12T11:12:54.977Z</time></trkpt><trkpt lat="45.2409131" lon="13.8284241"><ele>355.75</ele><time>2026-04-12T11:12:55.97Z</time></trkpt><trkpt lat="45.2410187" lon="13.8283687"><ele>357.0</ele><time>2026-04-12T11:12:56.975Z</time></trkpt><trkpt lat="45.2411313" lon="13.8283178"><ele>357.0</ele><time>2026-04-12T11:12:57.975Z</time></trkpt><trkpt lat="45.2412457" lon="13.8282521"><ele>357.0</ele><time>2026-04-12T11:12:58.969Z</time></trkpt><trkpt lat="45.2413443" lon="13.8281958"><ele>357.0</ele><time>2026-04-12T11:12:59.971Z</time></trkpt><trkpt lat="45.2414388" lon="13.8281588"><ele>357.0</ele><time>2026-04-12T11:13:00.973Z</time></trkpt><trkpt lat="45.2415343" lon="13.8281278"><ele>357.0</ele><time>2026-04-12T11:13:01.978Z</time></trkpt><trkpt lat="45.2416107" lon="13.8280781"><ele>358.0</ele><time>2026-04-12T11:13:02.97Z</time></trkpt><trkpt lat="45.2416856" lon="13.828006"><ele>359.0</ele><time>2026-04-12T11:13:03.98Z</time></trkpt><trkpt lat="45.2417658" lon="13.8279366"><ele>360.0</ele><time>2026-04-12T11:13:04.972Z</time></trkpt><trkpt lat="45.24186" lon="13.8278723"><ele>361.0</ele><time>2026-04-12T11:13:05.974Z</time></trkpt><trkpt lat="45.2419821" lon="13.8278137"><ele>362.0</ele><time>2026-04-12T11:13:06.977Z</time></trkpt><trkpt lat="45.2420794" lon="13.8277656"><ele>362.0</ele><time>2026-04-12T11:13:07.971Z</time></trkpt><trkpt lat="45.2421761" lon="13.8277112"><ele>362.0</ele><time>2026-04-12T11:13:08.974Z</time></trkpt><trkpt lat="45.2422676" lon="13.8276237"><ele>362.0</ele><time>2026-04-12T11:13:09.984Z</time></trkpt><trkpt lat="45.2423584" lon="13.8275163"><ele>362.0</ele><time>2026-04-12T11:13:10.972Z</time></trkpt><trkpt lat="45.2424467" lon="13.8274278"><ele>362.0</ele><time>2026-04-12T11:13:11.972Z</time></trkpt><trkpt lat="45.2425406" lon="13.8273531"><ele>361.75</ele><time>2026-04-12T11:13:12.978Z</time></trkpt><trkpt lat="45.2426434" lon="13.8273204"><ele>361.5</ele><time>2026-04-12T11:13:13.975Z</time></trkpt><trkpt lat="45.2427627" lon="13.8272865"><ele>361.25</ele><time>2026-04-12T11:13:14.971Z</time></trkpt><trkpt lat="45.2428876" lon="13.8272559"><ele>361.0</ele><time>2026-04-12T11:13:15.973Z</time></trkpt><trkpt lat="45.2430079" lon="13.8272399"><ele>361.0</ele><time>2026-04-12T11:13:16.972Z</time></trkpt><trkpt lat="45.2431284" lon="13.8272142"><ele>361.0</ele><time>2026-04-12T11:13:17.974Z</time></trkpt><trkpt lat="45.2432533" lon="13.8271667"><ele>361.0</ele><time>2026-04-12T11:13:18.979Z</time></trkpt><trkpt lat="45.2433904" lon="13.8271209"><ele>361.0</ele><time>2026-04-12T11:13:19.976Z</time></trkpt><trkpt lat="45.243518" lon="13.8270986"><ele>361.25</ele><time>2026-04-12T11:13:20.971Z</time></trkpt><trkpt lat="45.2436574" lon="13.8270817"><ele>361.5</ele><time>2026-04-12T11:13:21.971Z</time></trkpt><trkpt lat="45.2437829" lon="13.8270518"><ele>361.75</ele><time>2026-04-12T11:13:22.976Z</time></trkpt><trkpt lat="45.2439094" lon="13.8270035"><ele>362.0</ele><time>2026-04-12T11:13:23.971Z</time></trkpt><trkpt lat="45.2440288" lon="13.8269721"><ele>362.0</ele><time>2026-04-12T11:13:24.978Z</time></trkpt><trkpt lat="45.2441467" lon="13.8269713"><ele>362.0</ele><time>2026-04-12T11:13:25.973Z</time></trkpt><trkpt lat="45.2442751" lon="13.8269964"><ele>362.0</ele><time>2026-04-12T11:13:26.972Z</time></trkpt><trkpt lat="45.2444008" lon="13.8270298"><ele>362.0</ele><time>2026-04-12T11:13:27.97Z</time></trkpt><trkpt lat="45.2445032" lon="13.8270771"><ele>362.0</ele><time>2026-04-12T11:13:28.971Z</time></trkpt><trkpt lat="45.2446078" lon="13.8271513"><ele>362.0</ele><time>2026-04-12T11:13:29.976Z</time></trkpt><trkpt lat="45.2447037" lon="13.827227"><ele>362.0</ele><time>2026-04-12T11:13:30.974Z</time></trkpt><trkpt lat="45.2447862" lon="13.8272785"><ele>362.0</ele><time>2026-04-12T11:13:31.971Z</time></trkpt><trkpt lat="45.2448853" lon="13.8273035"><ele>362.0</ele><time>2026-04-12T11:13:32.975Z</time></trkpt><trkpt lat="45.2449817" lon="13.8272895"><ele>362.8</ele><time>2026-04-12T11:13:33.97Z</time></trkpt><trkpt lat="45.2450795" lon="13.8272508"><ele>363.6</ele><time>2026-04-12T11:13:34.975Z</time></trkpt><trkpt lat="45.2451872" lon="13.8271648"><ele>364.40000000000003</ele><time>2026-04-12T11:13:35.981Z</time></trkpt><trkpt lat="45.2452724" lon="13.8270889"><ele>365.20000000000005</ele><time>2026-04-12T11:13:36.968Z</time></trkpt><trkpt lat="45.2453608" lon="13.8269818"><ele>366.0</ele><time>2026-04-12T11:13:37.968Z</time></trkpt><trkpt lat="45.2454444" lon="13.8268785"><ele>366.20000000000005</ele><time>2026-04-12T11:13:38.971Z</time></trkpt><trkpt lat="45.2455325" lon="13.8268109"><ele>366.40000000000003</ele><time>2026-04-12T11:13:39.973Z</time></trkpt><trkpt lat="45.2456301" lon="13.8267759"><ele>366.6</ele><time>2026-04-12T11:13:40.98Z</time></trkpt><trkpt lat="45.2457467" lon="13.8267592"><ele>366.8</ele><time>2026-04-12T11:13:41.973Z</time></trkpt><trkpt lat="45.245865" lon="13.8267513"><ele>367.0</ele><time>2026-04-12T11:13:42.974Z</time></trkpt><trkpt lat="45.2459848" lon="13.8267538"><ele>367.0</ele><time>2026-04-12T11:13:43.971Z</time></trkpt><trkpt lat="45.2460961" lon="13.8267933"><ele>367.0</ele><time>2026-04-12T11:13:44.975Z</time></trkpt><trkpt lat="45.2461975" lon="13.826845"><ele>367.0</ele><time>2026-04-12T11:13:45.973Z</time></trkpt><trkpt lat="45.2463023" lon="13.8268821"><ele>367.0</ele><time>2026-04-12T11:13:46.973Z</time></trkpt><trkpt lat="45.2464232" lon="13.8269087"><ele>368.0</ele><time>2026-04-12T11:13:47.972Z</time></trkpt><trkpt lat="45.2465519" lon="13.8269168"><ele>369.0</ele><time>2026-04-12T11:13:48.971Z</time></trkpt><trkpt lat="45.2466884" lon="13.8269252"><ele>370.0</ele><time>2026-04-12T11:13:49.973Z</time></trkpt><trkpt lat="45.2468251" lon="13.8269371"><ele>371.0</ele><time>2026-04-12T11:13:50.974Z</time></trkpt><trkpt lat="45.2469451" lon="13.8269593"><ele>371.0</ele><time>2026-04-12T11:13:51.978Z</time></trkpt><trkpt lat="45.2470529" lon="13.8270069"><ele>371.0</ele><time>2026-04-12T11:13:52.973Z</time></trkpt><trkpt lat="45.2471619" lon="13.8270891"><ele>371.0</ele><time>2026-04-12T11:13:53.975Z</time></trkpt><trkpt lat="45.2472595" lon="13.8271644"><ele>371.0</ele><time>2026-04-12T11:13:54.97Z</time></trkpt><trkpt lat="45.2473517" lon="13.8272118"><ele>371.0</ele><time>2026-04-12T11:13:55.974Z</time></trkpt><trkpt lat="45.2474441" lon="13.8272107"><ele>370.0</ele><time>2026-04-12T11:13:56.978Z</time></trkpt><trkpt lat="45.2475346" lon="13.8271789"><ele>369.0</ele><time>2026-04-12T11:13:57.981Z</time></trkpt><trkpt lat="45.2476409" lon="13.8271328"><ele>368.0</ele><time>2026-04-12T11:13:58.974Z</time></trkpt><trkpt lat="45.2477548" lon="13.8270854"><ele>367.0</ele><time>2026-04-12T11:13:59.976Z</time></trkpt><trkpt lat="45.2478781" lon="13.8270289"><ele>367.0</ele><time>2026-04-12T11:14:00.972Z</time></trkpt><trkpt lat="45.248004" lon="13.8269475"><ele>367.0</ele><time>2026-04-12T11:14:01.978Z</time></trkpt><trkpt lat="45.248144" lon="13.8268497"><ele>367.0</ele><time>2026-04-12T11:14:02.975Z</time></trkpt><trkpt lat="45.2482782" lon="13.8267461"><ele>367.0</ele><time>2026-04-12T11:14:03.974Z</time></trkpt><trkpt lat="45.2484041" lon="13.8266453"><ele>366.6</ele><time>2026-04-12T11:14:04.982Z</time></trkpt><trkpt lat="45.2485035" lon="13.826561"><ele>366.20000000000005</ele><time>2026-04-12T11:14:05.973Z</time></trkpt><trkpt lat="45.2486019" lon="13.8265004"><ele>365.8</ele><time>2026-04-12T11:14:06.973Z</time></trkpt><trkpt lat="45.2486928" lon="13.8264491"><ele>365.4</ele><time>2026-04-12T11:14:07.984Z</time></trkpt><trkpt lat="45.2487571" lon="13.8263904"><ele>365.0</ele><time>2026-04-12T11:14:08.979Z</time></trkpt><trkpt lat="45.2488249" lon="13.8262233"><ele>365.0</ele><time>2026-04-12T11:14:10.982Z</time></trkpt><trkpt lat="45.248842" lon="13.8260922"><ele>365.0</ele><time>2026-04-12T11:14:11.977Z</time></trkpt><trkpt lat="45.2488623" lon="13.8259296"><ele>365.0</ele><time>2026-04-12T11:14:12.972Z</time></trkpt><trkpt lat="45.2488702" lon="13.8257454"><ele>365.0</ele><time>2026-04-12T11:14:13.972Z</time></trkpt><trkpt lat="45.2488595" lon="13.8255488"><ele>365.25</ele><time>2026-04-12T11:14:14.973Z</time></trkpt><trkpt lat="45.2488484" lon="13.8253408"><ele>365.5</ele><time>2026-04-12T11:14:15.975Z</time></trkpt><trkpt lat="45.2488321" lon="13.8251278"><ele>365.75</ele><time>2026-04-12T11:14:16.975Z</time></trkpt><trkpt lat="45.2488175" lon="13.8249388"><ele>366.0</ele><time>2026-04-12T11:14:17.97Z</time></trkpt><trkpt lat="45.2488146" lon="13.8247512"><ele>366.5</ele><time>2026-04-12T11:14:18.974Z</time></trkpt><trkpt lat="45.2487944" lon="13.8245812"><ele>367.0</ele><time>2026-04-12T11:14:19.973Z</time></trkpt><trkpt lat="45.2487603" lon="13.8244081"><ele>367.5</ele><time>2026-04-12T11:14:20.971Z</time></trkpt><trkpt lat="45.2487039" lon="13.8242594"><ele>368.0</ele><time>2026-04-12T11:14:21.981Z</time></trkpt><trkpt lat="45.2486743" lon="13.8241012"><ele>368.0</ele><time>2026-04-12T11:14:22.989Z</time></trkpt><trkpt lat="45.2486673" lon="13.823941"><ele>368.0</ele><time>2026-04-12T11:14:23.977Z</time></trkpt><trkpt lat="45.2486719" lon="13.8237825"><ele>368.0</ele><time>2026-04-12T11:14:24.976Z</time></trkpt><trkpt lat="45.2486685" lon="13.8236304"><ele>368.0</ele><time>2026-04-12T11:14:25.973Z</time></trkpt><trkpt lat="45.2486867" lon="13.8234916"><ele>368.0</ele><time>2026-04-12T11:14:26.975Z</time></trkpt><trkpt lat="45.2487138" lon="13.8233598"><ele>368.0</ele><time>2026-04-12T11:14:27.982Z</time></trkpt><trkpt lat="45.2487621" lon="13.8232356"><ele>368.0</ele><time>2026-04-12T11:14:28.975Z</time></trkpt><trkpt lat="45.2488268" lon="13.8231204"><ele>368.0</ele><time>2026-04-12T11:14:29.979Z</time></trkpt><trkpt lat="45.2488993" lon="13.8230115"><ele>368.0</ele><time>2026-04-12T11:14:30.974Z</time></trkpt><trkpt lat="45.2489841" lon="13.8229159"><ele>368.0</ele><time>2026-04-12T11:14:31.974Z</time></trkpt><trkpt lat="45.2490817" lon="13.8228364"><ele>367.5</ele><time>2026-04-12T11:14:32.975Z</time></trkpt><trkpt lat="45.2491846" lon="13.822768"><ele>367.0</ele><time>2026-04-12T11:14:33.97Z</time></trkpt><trkpt lat="45.2493031" lon="13.8226921"><ele>366.5</ele><time>2026-04-12T11:14:34.975Z</time></trkpt><trkpt lat="45.2494155" lon="13.8226078"><ele>366.0</ele><time>2026-04-12T11:14:35.977Z</time></trkpt><trkpt lat="45.2495056" lon="13.8225393"><ele>366.0</ele><time>2026-04-12T11:14:36.971Z</time></trkpt><trkpt lat="45.2495901" lon="13.8224779"><ele>366.0</ele><time>2026-04-12T11:14:37.973Z</time></trkpt><trkpt lat="45.2496642" lon="13.822429"><ele>366.0</ele><time>2026-04-12T11:14:38.97Z</time></trkpt><trkpt lat="45.249734" lon="13.8223805"><ele>366.0</ele><time>2026-04-12T11:14:39.969Z</time></trkpt><trkpt lat="45.2498018" lon="13.8223374"><ele>366.0</ele><time>2026-04-12T11:14:40.977Z</time></trkpt><trkpt lat="45.2498685" lon="13.8223011"><ele>366.0</ele><time>2026-04-12T11:14:41.973Z</time></trkpt><trkpt lat="45.2499387" lon="13.8222657"><ele>366.3333333333333</ele><time>2026-04-12T11:14:42.977Z</time></trkpt><trkpt lat="45.2500118" lon="13.8222185"><ele>366.6666666666667</ele><time>2026-04-12T11:14:43.97Z</time></trkpt><trkpt lat="45.2500836" lon="13.8221652"><ele>367.0</ele><time>2026-04-12T11:14:44.981Z</time></trkpt><trkpt lat="45.2501556" lon="13.8221013"><ele>367.33333333333337</ele><time>2026-04-12T11:14:45.969Z</time></trkpt><trkpt lat="45.2502235" lon="13.8220227"><ele>367.6666666666667</ele><time>2026-04-12T11:14:46.972Z</time></trkpt><trkpt lat="45.2502891" lon="13.8219303"><ele>368.0</ele><time>2026-04-12T11:14:47.974Z</time></trkpt><trkpt lat="45.250368" lon="13.8218395"><ele>368.2</ele><time>2026-04-12T11:14:48.973Z</time></trkpt><trkpt lat="45.2504589" lon="13.8217626"><ele>368.4</ele><time>2026-04-12T11:14:49.98Z</time></trkpt><trkpt lat="45.2505611" lon="13.821697"><ele>368.59999999999997</ele><time>2026-04-12T11:14:50.979Z</time></trkpt><trkpt lat="45.2506601" lon="13.8216353"><ele>368.79999999999995</ele><time>2026-04-12T11:14:51.972Z</time></trkpt><trkpt lat="45.2507579" lon="13.8215659"><ele>369.0</ele><time>2026-04-12T11:14:52.97Z</time></trkpt><trkpt lat="45.2508584" lon="13.8214859"><ele>368.6</ele><time>2026-04-12T11:14:53.974Z</time></trkpt><trkpt lat="45.250957" lon="13.8213943"><ele>368.2</ele><time>2026-04-12T11:14:54.989Z</time></trkpt><trkpt lat="45.2510436" lon="13.8213065"><ele>367.8</ele><time>2026-04-12T11:14:55.969Z</time></trkpt><trkpt lat="45.2511322" lon="13.8212324"><ele>367.40000000000003</ele><time>2026-04-12T11:14:56.972Z</time></trkpt><trkpt lat="45.2512158" lon="13.8211794"><ele>367.0</ele><time>2026-04-12T11:14:57.971Z</time></trkpt><trkpt lat="45.2512893" lon="13.8211444"><ele>367.0</ele><time>2026-04-12T11:14:58.974Z</time></trkpt><trkpt lat="45.2513583" lon="13.8211219"><ele>367.0</ele><time>2026-04-12T11:14:59.977Z</time></trkpt><trkpt lat="45.2514454" lon="13.821105"><ele>367.0</ele><time>2026-04-12T11:15:01.975Z</time></trkpt><trkpt lat="45.2515434" lon="13.8211199"><ele>367.0</ele><time>2026-04-12T11:15:30.974Z</time></trkpt><trkpt lat="45.2516054" lon="13.8211453"><ele>367.0</ele><time>2026-04-12T11:15:31.975Z</time></trkpt><trkpt lat="45.2516729" lon="13.8211865"><ele>367.0</ele><time>2026-04-12T11:15:32.983Z</time></trkpt><trkpt lat="45.2517515" lon="13.8212317"><ele>367.0</ele><time>2026-04-12T11:15:33.977Z</time></trkpt><trkpt lat="45.2518343" lon="13.8212808"><ele>367.0</ele><time>2026-04-12T11:15:34.971Z</time></trkpt><trkpt lat="45.2519242" lon="13.8213284"><ele>367.0</ele><time>2026-04-12T11:15:35.972Z</time></trkpt><trkpt lat="45.2520159" lon="13.8213818"><ele>367.0</ele><time>2026-04-12T11:15:36.977Z</time></trkpt><trkpt lat="45.2521103" lon="13.821444"><ele>367.0</ele><time>2026-04-12T11:15:37.98Z</time></trkpt><trkpt lat="45.2522081" lon="13.8215045"><ele>366.66666666666663</ele><time>2026-04-12T11:15:38.972Z</time></trkpt><trkpt lat="45.2523038" lon="13.8215667"><ele>366.3333333333333</ele><time>2026-04-12T11:15:39.974Z</time></trkpt><trkpt lat="45.2523901" lon="13.8216321"><ele>366.0</ele><time>2026-04-12T11:15:40.971Z</time></trkpt><trkpt lat="45.2524704" lon="13.821688"><ele>365.6666666666667</ele><time>2026-04-12T11:15:41.973Z</time></trkpt><trkpt lat="45.2525428" lon="13.8217381"><ele>365.33333333333337</ele><time>2026-04-12T11:15:42.974Z</time></trkpt><trkpt lat="45.2526072" lon="13.8217813"><ele>365.0</ele><time>2026-04-12T11:15:43.981Z</time></trkpt><trkpt lat="45.2526706" lon="13.8218085"><ele>365.0</ele><time>2026-04-12T11:15:44.979Z</time></trkpt><trkpt lat="45.2527926" lon="13.8217827"><ele>365.0</ele><time>2026-04-12T11:15:46.971Z</time></trkpt><trkpt lat="45.2528603" lon="13.8217446"><ele>365.0</ele><time>2026-04-12T11:15:47.975Z</time></trkpt><trkpt lat="45.2529349" lon="13.8216829"><ele>365.0</ele><time>2026-04-12T11:15:48.973Z</time></trkpt><trkpt lat="45.2530191" lon="13.8216087"><ele>365.0</ele><time>2026-04-12T11:15:49.979Z</time></trkpt><trkpt lat="45.2531111" lon="13.821534"><ele>365.0</ele><time>2026-04-12T11:15:50.973Z</time></trkpt><trkpt lat="45.2532019" lon="13.8214636"><ele>365.0</ele><time>2026-04-12T11:15:51.971Z</time></trkpt><trkpt lat="45.2533012" lon="13.8213745"><ele>365.0</ele><time>2026-04-12T11:15:52.972Z</time></trkpt><trkpt lat="45.2534195" lon="13.8212707"><ele>365.0</ele><time>2026-04-12T11:15:53.995Z</time></trkpt><trkpt lat="45.2535271" lon="13.8211767"><ele>365.0</ele><time>2026-04-12T11:15:54.993Z</time></trkpt><trkpt lat="45.2536283" lon="13.8210955"><ele>365.0</ele><time>2026-04-12T11:15:55.975Z</time></trkpt><trkpt lat="45.2537108" lon="13.8210267"><ele>365.0</ele><time>2026-04-12T11:15:56.977Z</time></trkpt><trkpt lat="45.2537954" lon="13.8209772"><ele>365.0</ele><time>2026-04-12T11:15:57.974Z</time></trkpt><trkpt lat="45.2538854" lon="13.8209655"><ele>365.0</ele><time>2026-04-12T11:15:58.972Z</time></trkpt><trkpt lat="45.2539942" lon="13.8209718"><ele>363.25</ele><time>2026-04-12T11:15:59.989Z</time></trkpt><trkpt lat="45.2541059" lon="13.8209853"><ele>361.5</ele><time>2026-04-12T11:16:00.983Z</time></trkpt><trkpt lat="45.2542205" lon="13.8210206"><ele>359.75</ele><time>2026-04-12T11:16:01.985Z</time></trkpt><trkpt lat="45.2543299" lon="13.8210535"><ele>358.0</ele><time>2026-04-12T11:16:02.973Z</time></trkpt><trkpt lat="45.2544627" lon="13.8210632"><ele>358.0</ele><time>2026-04-12T11:16:03.983Z</time></trkpt><trkpt lat="45.2545728" lon="13.8210784"><ele>358.0</ele><time>2026-04-12T11:16:04.974Z</time></trkpt><trkpt lat="45.2546769" lon="13.821105"><ele>358.0</ele><time>2026-04-12T11:16:05.981Z</time></trkpt><trkpt lat="45.2547769" lon="13.8211372"><ele>358.0</ele><time>2026-04-12T11:16:06.978Z</time></trkpt><trkpt lat="45.254881" lon="13.8211691"><ele>358.0</ele><time>2026-04-12T11:16:07.973Z</time></trkpt><trkpt lat="45.2549839" lon="13.8211921"><ele>357.2</ele><time>2026-04-12T11:16:08.973Z</time></trkpt><trkpt lat="45.2550744" lon="13.8212028"><ele>356.4</ele><time>2026-04-12T11:16:09.977Z</time></trkpt><trkpt lat="45.2551639" lon="13.821209"><ele>355.59999999999997</ele><time>2026-04-12T11:16:10.978Z</time></trkpt><trkpt lat="45.255258" lon="13.8211861"><ele>354.79999999999995</ele><time>2026-04-12T11:16:11.969Z</time></trkpt><trkpt lat="45.2553498" lon="13.8211437"><ele>354.0</ele><time>2026-04-12T11:16:12.971Z</time></trkpt><trkpt lat="45.2554556" lon="13.8210929"><ele>354.0</ele><time>2026-04-12T11:16:13.975Z</time></trkpt><trkpt lat="45.25554" lon="13.8210259"><ele>354.0</ele><time>2026-04-12T11:16:14.975Z</time></trkpt><trkpt lat="45.2556316" lon="13.8209583"><ele>354.0</ele><time>2026-04-12T11:16:15.976Z</time></trkpt><trkpt lat="45.2557272" lon="13.8209085"><ele>354.0</ele><time>2026-04-12T11:16:16.972Z</time></trkpt><trkpt lat="45.2558325" lon="13.8208433"><ele>354.0</ele><time>2026-04-12T11:16:17.973Z</time></trkpt><trkpt lat="45.2559457" lon="13.8207458"><ele>353.0</ele><time>2026-04-12T11:16:18.974Z</time></trkpt><trkpt lat="45.2560563" lon="13.8206563"><ele>352.0</ele><time>2026-04-12T11:16:19.973Z</time></trkpt><trkpt lat="45.2561668" lon="13.8205894"><ele>351.0</ele><time>2026-04-12T11:16:20.978Z</time></trkpt><trkpt lat="45.2562775" lon="13.8205062"><ele>350.0</ele><time>2026-04-12T11:16:21.971Z</time></trkpt><trkpt lat="45.2563836" lon="13.820434"><ele>348.8</ele><time>2026-04-12T11:16:22.981Z</time></trkpt><trkpt lat="45.2564858" lon="13.8203543"><ele>347.6</ele><time>2026-04-12T11:16:23.98Z</time></trkpt><trkpt lat="45.2565763" lon="13.8202701"><ele>346.4</ele><time>2026-04-12T11:16:24.98Z</time></trkpt><trkpt lat="45.2566597" lon="13.8201719"><ele>345.2</ele><time>2026-04-12T11:16:25.977Z</time></trkpt><trkpt lat="45.256741" lon="13.8200627"><ele>344.0</ele><time>2026-04-12T11:16:26.979Z</time></trkpt><trkpt lat="45.2568257" lon="13.8199504"><ele>343.75</ele><time>2026-04-12T11:16:27.969Z</time></trkpt><trkpt lat="45.2569188" lon="13.8198281"><ele>343.5</ele><time>2026-04-12T11:16:28.978Z</time></trkpt><trkpt lat="45.2569935" lon="13.8196899"><ele>343.25</ele><time>2026-04-12T11:16:29.997Z</time></trkpt><trkpt lat="45.2570722" lon="13.8195558"><ele>343.0</ele><time>2026-04-12T11:16:30.977Z</time></trkpt><trkpt lat="45.257121" lon="13.8194497"><ele>343.0</ele><time>2026-04-12T11:16:31.979Z</time></trkpt><trkpt lat="45.2571687" lon="13.8193697"><ele>343.0</ele><time>2026-04-12T11:16:32.973Z</time></trkpt><trkpt lat="45.2572185" lon="13.819305"><ele>343.0</ele><time>2026-04-12T11:16:33.974Z</time></trkpt><trkpt lat="45.257294" lon="13.8192623"><ele>343.0</ele><time>2026-04-12T11:16:34.986Z</time></trkpt><trkpt lat="45.2573711" lon="13.8192217"><ele>343.0</ele><time>2026-04-12T11:16:35.974Z</time></trkpt><trkpt lat="45.2574584" lon="13.8191972"><ele>343.0</ele><time>2026-04-12T11:16:36.973Z</time></trkpt><trkpt lat="45.2575342" lon="13.81919"><ele>342.66666666666663</ele><time>2026-04-12T11:16:37.98Z</time></trkpt><trkpt lat="45.2575924" lon="13.8192268"><ele>342.3333333333333</ele><time>2026-04-12T11:16:38.969Z</time></trkpt><trkpt lat="45.2576423" lon="13.8192886"><ele>342.0</ele><time>2026-04-12T11:16:39.981Z</time></trkpt><trkpt lat="45.257681" lon="13.8193686"><ele>341.6666666666667</ele><time>2026-04-12T11:16:40.976Z</time></trkpt><trkpt lat="45.2577049" lon="13.8194872"><ele>341.33333333333337</ele><time>2026-04-12T11:16:41.972Z</time></trkpt><trkpt lat="45.2577653" lon="13.8195977"><ele>341.0</ele><time>2026-04-12T11:16:42.972Z</time></trkpt><trkpt lat="45.2578269" lon="13.819711"><ele>341.0</ele><time>2026-04-12T11:16:43.976Z</time></trkpt><trkpt lat="45.2578947" lon="13.8198267"><ele>341.0</ele><time>2026-04-12T11:16:44.976Z</time></trkpt><trkpt lat="45.2579727" lon="13.819968"><ele>341.0</ele><time>2026-04-12T11:16:45.976Z</time></trkpt><trkpt lat="45.2580558" lon="13.8201216"><ele>341.0</ele><time>2026-04-12T11:16:46.971Z</time></trkpt><trkpt lat="45.2581347" lon="13.8202771"><ele>341.0</ele><time>2026-04-12T11:16:47.99Z</time></trkpt><trkpt lat="45.2582053" lon="13.8204069"><ele>341.0</ele><time>2026-04-12T11:16:48.974Z</time></trkpt><trkpt lat="45.2582698" lon="13.8205314"><ele>341.0</ele><time>2026-04-12T11:16:49.977Z</time></trkpt><trkpt lat="45.2583405" lon="13.8206419"><ele>341.0</ele><time>2026-04-12T11:16:50.98Z</time></trkpt><trkpt lat="45.2584141" lon="13.8207192"><ele>341.0</ele><time>2026-04-12T11:16:51.974Z</time></trkpt><trkpt lat="45.2584781" lon="13.8207648"><ele>341.0</ele><time>2026-04-12T11:16:52.971Z</time></trkpt><trkpt lat="45.2585482" lon="13.8207956"><ele>341.0</ele><time>2026-04-12T11:16:53.969Z</time></trkpt><trkpt lat="45.2586332" lon="13.8207939"><ele>341.0</ele><time>2026-04-12T11:16:54.973Z</time></trkpt><trkpt lat="45.2587431" lon="13.8208037"><ele>341.0</ele><time>2026-04-12T11:16:55.974Z</time></trkpt><trkpt lat="45.2588365" lon="13.8208027"><ele>341.0</ele><time>2026-04-12T11:16:56.978Z</time></trkpt><trkpt lat="45.258923" lon="13.8207788"><ele>341.0</ele><time>2026-04-12T11:16:57.974Z</time></trkpt><trkpt lat="45.2590248" lon="13.8207421"><ele>341.0</ele><time>2026-04-12T11:16:58.975Z</time></trkpt><trkpt lat="45.2591123" lon="13.8206913"><ele>341.0</ele><time>2026-04-12T11:16:59.981Z</time></trkpt><trkpt lat="45.2591992" lon="13.820618"><ele>341.0</ele><time>2026-04-12T11:17:00.974Z</time></trkpt><trkpt lat="45.259287" lon="13.8205217"><ele>341.0</ele><time>2026-04-12T11:17:01.972Z</time></trkpt><trkpt lat="45.2593933" lon="13.8204275"><ele>341.0</ele><time>2026-04-12T11:17:02.974Z</time></trkpt><trkpt lat="45.2594958" lon="13.8203558"><ele>341.0</ele><time>2026-04-12T11:17:03.977Z</time></trkpt><trkpt lat="45.2595832" lon="13.8203111"><ele>341.0</ele><time>2026-04-12T11:17:04.973Z</time></trkpt><trkpt lat="45.2596794" lon="13.8202798"><ele>341.0</ele><time>2026-04-12T11:17:05.974Z</time></trkpt><trkpt lat="45.2597873" lon="13.8202838"><ele>341.0</ele><time>2026-04-12T11:17:06.973Z</time></trkpt><trkpt lat="45.2599043" lon="13.8203183"><ele>340.8</ele><time>2026-04-12T11:17:07.979Z</time></trkpt><trkpt lat="45.2599975" lon="13.8203793"><ele>340.6</ele><time>2026-04-12T11:17:08.97Z</time></trkpt><trkpt lat="45.260088" lon="13.8204662"><ele>340.4</ele><time>2026-04-12T11:17:09.977Z</time></trkpt><trkpt lat="45.260176" lon="13.8205717"><ele>340.2</ele><time>2026-04-12T11:17:10.973Z</time></trkpt><trkpt lat="45.260262" lon="13.8206687"><ele>340.0</ele><time>2026-04-12T11:17:11.971Z</time></trkpt><trkpt lat="45.2603684" lon="13.8207352"><ele>340.0</ele><time>2026-04-12T11:17:12.982Z</time></trkpt><trkpt lat="45.2604859" lon="13.8207979"><ele>340.0</ele><time>2026-04-12T11:17:13.976Z</time></trkpt><trkpt lat="45.2606014" lon="13.8208534"><ele>340.0</ele><time>2026-04-12T11:17:14.976Z</time></trkpt><trkpt lat="45.2607047" lon="13.8208715"><ele>340.0</ele><time>2026-04-12T11:17:15.975Z</time></trkpt><trkpt lat="45.2607982" lon="13.8208651"><ele>340.0</ele><time>2026-04-12T11:17:16.976Z</time></trkpt><trkpt lat="45.2608973" lon="13.8208267"><ele>339.5</ele><time>2026-04-12T11:17:17.97Z</time></trkpt><trkpt lat="45.2609972" lon="13.8207583"><ele>339.0</ele><time>2026-04-12T11:17:18.973Z</time></trkpt><trkpt lat="45.2611057" lon="13.8206583"><ele>338.5</ele><time>2026-04-12T11:17:19.983Z</time></trkpt><trkpt lat="45.2612184" lon="13.820572"><ele>338.0</ele><time>2026-04-12T11:17:20.975Z</time></trkpt><trkpt lat="45.2613342" lon="13.8205179"><ele>338.0</ele><time>2026-04-12T11:17:21.981Z</time></trkpt><trkpt lat="45.261441" lon="13.8204899"><ele>338.0</ele><time>2026-04-12T11:17:22.978Z</time></trkpt><trkpt lat="45.2615598" lon="13.8204728"><ele>338.0</ele><time>2026-04-12T11:17:23.974Z</time></trkpt><trkpt lat="45.2616864" lon="13.8204613"><ele>338.0</ele><time>2026-04-12T11:17:24.975Z</time></trkpt><trkpt lat="45.2618186" lon="13.8204645"><ele>337.75</ele><time>2026-04-12T11:17:25.974Z</time></trkpt><trkpt lat="45.2619593" lon="13.8204756"><ele>337.5</ele><time>2026-04-12T11:17:26.977Z</time></trkpt><trkpt lat="45.2621016" lon="13.8204896"><ele>337.25</ele><time>2026-04-12T11:17:27.975Z</time></trkpt><trkpt lat="45.2622383" lon="13.8205097"><ele>337.0</ele><time>2026-04-12T11:17:28.977Z</time></trkpt><trkpt lat="45.2623631" lon="13.8205203"><ele>337.8</ele><time>2026-04-12T11:17:29.975Z</time></trkpt><trkpt lat="45.2624729" lon="13.82054"><ele>338.6</ele><time>2026-04-12T11:17:30.978Z</time></trkpt><trkpt lat="45.2625813" lon="13.8205727"><ele>339.40000000000003</ele><time>2026-04-12T11:17:31.98Z</time></trkpt><trkpt lat="45.2626934" lon="13.8206066"><ele>340.20000000000005</ele><time>2026-04-12T11:17:32.987Z</time></trkpt><trkpt lat="45.262792" lon="13.8206284"><ele>341.0</ele><time>2026-04-12T11:17:33.969Z</time></trkpt><trkpt lat="45.2628933" lon="13.8206454"><ele>341.0</ele><time>2026-04-12T11:17:34.977Z</time></trkpt><trkpt lat="45.2629957" lon="13.8206836"><ele>341.0</ele><time>2026-04-12T11:17:35.972Z</time></trkpt><trkpt lat="45.2631031" lon="13.820731"><ele>341.0</ele><time>2026-04-12T11:17:36.974Z</time></trkpt><trkpt lat="45.2631937" lon="13.8207753"><ele>341.0</ele><time>2026-04-12T11:17:37.974Z</time></trkpt><trkpt lat="45.2632819" lon="13.8207946"><ele>341.0</ele><time>2026-04-12T11:17:38.969Z</time></trkpt><trkpt lat="45.2633723" lon="13.8207943"><ele>342.0</ele><time>2026-04-12T11:17:39.973Z</time></trkpt><trkpt lat="45.2634718" lon="13.8207794"><ele>343.0</ele><time>2026-04-12T11:17:40.978Z</time></trkpt><trkpt lat="45.2635754" lon="13.8207538"><ele>344.0</ele><time>2026-04-12T11:17:41.973Z</time></trkpt><trkpt lat="45.2636679" lon="13.8207449"><ele>345.0</ele><time>2026-04-12T11:17:42.978Z</time></trkpt><trkpt lat="45.2637528" lon="13.8207638"><ele>346.0</ele><time>2026-04-12T11:17:43.972Z</time></trkpt><trkpt lat="45.2638282" lon="13.8207916"><ele>346.0</ele><time>2026-04-12T11:17:44.976Z</time></trkpt><trkpt lat="45.2639164" lon="13.8208188"><ele>346.0</ele><time>2026-04-12T11:17:45.977Z</time></trkpt><trkpt lat="45.2639948" lon="13.8208419"><ele>346.0</ele><time>2026-04-12T11:17:46.984Z</time></trkpt><trkpt lat="45.2640856" lon="13.8208806"><ele>346.0</ele><time>2026-04-12T11:17:48.971Z</time></trkpt><trkpt lat="45.2641186" lon="13.820778"><ele>346.0</ele><time>2026-04-12T11:17:51.972Z</time></trkpt><trkpt lat="45.2641449" lon="13.8205706"><ele>345.8</ele><time>2026-04-12T11:17:53.98Z</time></trkpt><trkpt lat="45.264173" lon="13.8204407"><ele>345.6</ele><time>2026-04-12T11:17:54.989Z</time></trkpt><trkpt lat="45.2642003" lon="13.820311"><ele>345.4</ele><time>2026-04-12T11:17:55.969Z</time></trkpt><trkpt lat="45.2642193" lon="13.8201631"><ele>345.2</ele><time>2026-04-12T11:17:56.97Z</time></trkpt><trkpt lat="45.2642248" lon="13.8199978"><ele>345.0</ele><time>2026-04-12T11:17:57.97Z</time></trkpt><trkpt lat="45.2642267" lon="13.8198232"><ele>345.0</ele><time>2026-04-12T11:17:58.978Z</time></trkpt><trkpt lat="45.2642305" lon="13.8196185"><ele>345.0</ele><time>2026-04-12T11:17:59.97Z</time></trkpt><trkpt lat="45.2642254" lon="13.8194059"><ele>345.0</ele><time>2026-04-12T11:18:00.973Z</time></trkpt><trkpt lat="45.2642355" lon="13.8191864"><ele>345.0</ele><time>2026-04-12T11:18:01.976Z</time></trkpt><trkpt lat="45.2642499" lon="13.8189623"><ele>346.0</ele><time>2026-04-12T11:18:02.972Z</time></trkpt><trkpt lat="45.2642535" lon="13.8187337"><ele>347.0</ele><time>2026-04-12T11:18:03.971Z</time></trkpt><trkpt lat="45.2642522" lon="13.818505"><ele>348.0</ele><time>2026-04-12T11:18:04.971Z</time></trkpt><trkpt lat="45.2642449" lon="13.818295"><ele>348.59999999999997</ele><time>2026-04-12T11:18:05.969Z</time></trkpt><trkpt lat="45.2642385" lon="13.818119"><ele>349.2</ele><time>2026-04-12T11:18:06.975Z</time></trkpt><trkpt lat="45.2642406" lon="13.8179777"><ele>349.8</ele><time>2026-04-12T11:18:07.971Z</time></trkpt><trkpt lat="45.2642563" lon="13.8178635"><ele>350.4</ele><time>2026-04-12T11:18:08.974Z</time></trkpt><trkpt lat="45.2642979" lon="13.8177793"><ele>351.0</ele><time>2026-04-12T11:18:09.97Z</time></trkpt><trkpt lat="45.264364" lon="13.8177063"><ele>351.0</ele><time>2026-04-12T11:18:10.972Z</time></trkpt><trkpt lat="45.2644332" lon="13.8176654"><ele>351.0</ele><time>2026-04-12T11:18:11.971Z</time></trkpt><trkpt lat="45.264522" lon="13.8176537"><ele>351.0</ele><time>2026-04-12T11:18:12.974Z</time></trkpt><trkpt lat="45.2646173" lon="13.8176271"><ele>351.0</ele><time>2026-04-12T11:18:13.969Z</time></trkpt><trkpt lat="45.2647282" lon="13.8175779"><ele>351.0</ele><time>2026-04-12T11:18:14.969Z</time></trkpt><trkpt lat="45.264816" lon="13.8175007"><ele>351.6</ele><time>2026-04-12T11:18:15.973Z</time></trkpt><trkpt lat="45.2648828" lon="13.8174057"><ele>352.20000000000005</ele><time>2026-04-12T11:18:16.97Z</time></trkpt><trkpt lat="45.2649256" lon="13.8172815"><ele>352.79999999999995</ele><time>2026-04-12T11:18:17.971Z</time></trkpt><trkpt lat="45.2649576" lon="13.8171156"><ele>353.4</ele><time>2026-04-12T11:18:18.97Z</time></trkpt><trkpt lat="45.2649849" lon="13.8169306"><ele>354.0</ele><time>2026-04-12T11:18:19.971Z</time></trkpt><trkpt lat="45.2650107" lon="13.8167323"><ele>354.0</ele><time>2026-04-12T11:18:20.974Z</time></trkpt><trkpt lat="45.2650582" lon="13.8165321"><ele>354.0</ele><time>2026-04-12T11:18:21.971Z</time></trkpt><trkpt lat="45.2651187" lon="13.8163463"><ele>354.0</ele><time>2026-04-12T11:18:22.968Z</time></trkpt><trkpt lat="45.2651414" lon="13.8161525"><ele>354.0</ele><time>2026-04-12T11:18:23.971Z</time></trkpt><trkpt lat="45.2651506" lon="13.8159536"><ele>353.6666666666667</ele><time>2026-04-12T11:18:24.973Z</time></trkpt><trkpt lat="45.2651451" lon="13.8157392"><ele>353.33333333333337</ele><time>2026-04-12T11:18:25.972Z</time></trkpt><trkpt lat="45.2651404" lon="13.8155192"><ele>353.0</ele><time>2026-04-12T11:18:26.982Z</time></trkpt><trkpt lat="45.2651254" lon="13.8152916"><ele>354.0</ele><time>2026-04-12T11:18:27.974Z</time></trkpt><trkpt lat="45.2651167" lon="13.815072"><ele>355.0</ele><time>2026-04-12T11:18:28.97Z</time></trkpt><trkpt lat="45.2651128" lon="13.8148575"><ele>356.0</ele><time>2026-04-12T11:18:29.976Z</time></trkpt><trkpt lat="45.2651192" lon="13.8146624"><ele>357.0</ele><time>2026-04-12T11:18:30.975Z</time></trkpt><trkpt lat="45.2651423" lon="13.8144725"><ele>357.25</ele><time>2026-04-12T11:18:31.986Z</time></trkpt><trkpt lat="45.2651693" lon="13.8142916"><ele>357.5</ele><time>2026-04-12T11:18:32.973Z</time></trkpt><trkpt lat="45.2651953" lon="13.814131"><ele>357.75</ele><time>2026-04-12T11:18:33.977Z</time></trkpt><trkpt lat="45.2652359" lon="13.8139663"><ele>358.0</ele><time>2026-04-12T11:18:34.975Z</time></trkpt><trkpt lat="45.2652949" lon="13.8138188"><ele>358.0</ele><time>2026-04-12T11:18:35.977Z</time></trkpt><trkpt lat="45.2653634" lon="13.8136867"><ele>358.0</ele><time>2026-04-12T11:18:36.97Z</time></trkpt><trkpt lat="45.2654084" lon="13.813558"><ele>358.0</ele><time>2026-04-12T11:18:37.973Z</time></trkpt><trkpt lat="45.265423" lon="13.8134194"><ele>358.0</ele><time>2026-04-12T11:18:38.969Z</time></trkpt><trkpt lat="45.2654341" lon="13.8132736"><ele>358.0</ele><time>2026-04-12T11:18:39.974Z</time></trkpt><trkpt lat="45.2654637" lon="13.8131305"><ele>357.25</ele><time>2026-04-12T11:18:40.974Z</time></trkpt><trkpt lat="45.2655191" lon="13.8129779"><ele>356.5</ele><time>2026-04-12T11:18:41.986Z</time></trkpt><trkpt lat="45.2655675" lon="13.8128288"><ele>355.75</ele><time>2026-04-12T11:18:42.976Z</time></trkpt><trkpt lat="45.2655849" lon="13.8126723"><ele>355.0</ele><time>2026-04-12T11:18:43.977Z</time></trkpt><trkpt lat="45.2655781" lon="13.812496"><ele>354.25</ele><time>2026-04-12T11:18:44.975Z</time></trkpt><trkpt lat="45.2655648" lon="13.8123048"><ele>353.5</ele><time>2026-04-12T11:18:45.971Z</time></trkpt><trkpt lat="45.2655603" lon="13.8120945"><ele>352.75</ele><time>2026-04-12T11:18:46.979Z</time></trkpt><trkpt lat="45.2655595" lon="13.8118821"><ele>352.0</ele><time>2026-04-12T11:18:47.976Z</time></trkpt><trkpt lat="45.2655455" lon="13.8116791"><ele>351.3333333333333</ele><time>2026-04-12T11:18:48.971Z</time></trkpt><trkpt lat="45.2655029" lon="13.8114813"><ele>350.6666666666667</ele><time>2026-04-12T11:18:49.968Z</time></trkpt><trkpt lat="45.2654517" lon="13.811271"><ele>350.0</ele><time>2026-04-12T11:18:50.973Z</time></trkpt><trkpt lat="45.2654066" lon="13.8110483"><ele>349.0</ele><time>2026-04-12T11:18:51.976Z</time></trkpt><trkpt lat="45.2653696" lon="13.8108196"><ele>348.0</ele><time>2026-04-12T11:18:52.973Z</time></trkpt><trkpt lat="45.2653336" lon="13.8105917"><ele>347.0</ele><time>2026-04-12T11:18:53.976Z</time></trkpt><trkpt lat="45.2652964" lon="13.8103839"><ele>347.0</ele><time>2026-04-12T11:18:54.974Z</time></trkpt><trkpt lat="45.2652561" lon="13.8101858"><ele>347.0</ele><time>2026-04-12T11:18:55.976Z</time></trkpt><trkpt lat="45.2652267" lon="13.8099851"><ele>347.0</ele><time>2026-04-12T11:18:56.984Z</time></trkpt><trkpt lat="45.2652047" lon="13.809788"><ele>347.0</ele><time>2026-04-12T11:18:57.991Z</time></trkpt><trkpt lat="45.2652034" lon="13.8096044"><ele>347.20000000000005</ele><time>2026-04-12T11:18:58.975Z</time></trkpt><trkpt lat="45.2652051" lon="13.809413"><ele>347.4</ele><time>2026-04-12T11:18:59.98Z</time></trkpt><trkpt lat="45.2651856" lon="13.8092471"><ele>347.6</ele><time>2026-04-12T11:19:00.975Z</time></trkpt><trkpt lat="45.2651463" lon="13.8091319"><ele>347.79999999999995</ele><time>2026-04-12T11:19:01.973Z</time></trkpt><trkpt lat="45.2650719" lon="13.8090244"><ele>348.0</ele><time>2026-04-12T11:19:02.98Z</time></trkpt><trkpt lat="45.2649702" lon="13.8089122"><ele>348.4</ele><time>2026-04-12T11:19:03.975Z</time></trkpt><trkpt lat="45.2648721" lon="13.8088133"><ele>348.79999999999995</ele><time>2026-04-12T11:19:04.98Z</time></trkpt><trkpt lat="45.2647992" lon="13.8087035"><ele>349.2</ele><time>2026-04-12T11:19:05.972Z</time></trkpt><trkpt lat="45.2647453" lon="13.8085943"><ele>349.6</ele><time>2026-04-12T11:19:06.97Z</time></trkpt><trkpt lat="45.2646973" lon="13.8084902"><ele>350.0</ele><time>2026-04-12T11:19:07.974Z</time></trkpt><trkpt lat="45.2646569" lon="13.8083912"><ele>349.0</ele><time>2026-04-12T11:19:08.971Z</time></trkpt><trkpt lat="45.26461" lon="13.8082767"><ele>348.0</ele><time>2026-04-12T11:19:09.973Z</time></trkpt><trkpt lat="45.264555" lon="13.8081731"><ele>347.0</ele><time>2026-04-12T11:19:10.976Z</time></trkpt><trkpt lat="45.2645038" lon="13.8080868"><ele>346.0</ele><time>2026-04-12T11:19:11.969Z</time></trkpt><trkpt lat="45.2644638" lon="13.8080131"><ele>345.0</ele><time>2026-04-12T11:19:12.974Z</time></trkpt><trkpt lat="45.264407" lon="13.8079578"><ele>344.0</ele><time>2026-04-12T11:19:14.971Z</time></trkpt><trkpt lat="45.2644138" lon="13.8078614"><ele>344.0</ele><time>2026-04-12T11:19:19.969Z</time></trkpt><trkpt lat="45.2644522" lon="13.8079562"><ele>344.0</ele><time>2026-04-12T11:19:24.974Z</time></trkpt><trkpt lat="45.26454" lon="13.8081091"><ele>344.0</ele><time>2026-04-12T11:19:26.971Z</time></trkpt><trkpt lat="45.2646184" lon="13.8082493"><ele>344.0</ele><time>2026-04-12T11:19:27.971Z</time></trkpt><trkpt lat="45.2646787" lon="13.808386"><ele>343.4</ele><time>2026-04-12T11:19:28.973Z</time></trkpt><trkpt lat="45.2647399" lon="13.8085287"><ele>342.79999999999995</ele><time>2026-04-12T11:19:29.978Z</time></trkpt><trkpt lat="45.2647957" lon="13.8086617"><ele>342.20000000000005</ele><time>2026-04-12T11:19:30.969Z</time></trkpt><trkpt lat="45.2648584" lon="13.8087811"><ele>341.6</ele><time>2026-04-12T11:19:31.97Z</time></trkpt><trkpt lat="45.2649347" lon="13.808879"><ele>341.0</ele><time>2026-04-12T11:19:32.974Z</time></trkpt><trkpt lat="45.265029" lon="13.8089736"><ele>342.1666666666667</ele><time>2026-04-12T11:19:33.978Z</time></trkpt><trkpt lat="45.2651114" lon="13.8090701"><ele>343.33333333333337</ele><time>2026-04-12T11:19:34.973Z</time></trkpt><trkpt lat="45.2651593" lon="13.809148"><ele>344.5</ele><time>2026-04-12T11:19:35.976Z</time></trkpt><trkpt lat="45.2651907" lon="13.8092286"><ele>345.6666666666667</ele><time>2026-04-12T11:19:36.974Z</time></trkpt><trkpt lat="45.2652124" lon="13.8093352"><ele>346.8333333333333</ele><time>2026-04-12T11:19:37.979Z</time></trkpt><trkpt lat="45.2652233" lon="13.8094582"><ele>348.0</ele><time>2026-04-12T11:19:38.973Z</time></trkpt><trkpt lat="45.2652261" lon="13.8096063"><ele>348.0</ele><time>2026-04-12T11:19:39.974Z</time></trkpt><trkpt lat="45.265219" lon="13.8097748"><ele>348.0</ele><time>2026-04-12T11:19:40.979Z</time></trkpt><trkpt lat="45.2652233" lon="13.8099285"><ele>348.0</ele><time>2026-04-12T11:19:41.984Z</time></trkpt><trkpt lat="45.2652392" lon="13.8100634"><ele>348.0</ele><time>2026-04-12T11:19:42.969Z</time></trkpt><trkpt lat="45.2652685" lon="13.8101753"><ele>348.0</ele><time>2026-04-12T11:19:43.971Z</time></trkpt><trkpt lat="45.265337" lon="13.8102852"><ele>347.79999999999995</ele><time>2026-04-12T11:19:45.97Z</time></trkpt><trkpt lat="45.2654538" lon="13.8103066"><ele>347.6</ele><time>2026-04-12T11:19:47.971Z</time></trkpt><trkpt lat="45.2655289" lon="13.8102994"><ele>347.4</ele><time>2026-04-12T11:19:48.975Z</time></trkpt><trkpt lat="45.2656006" lon="13.8102928"><ele>347.20000000000005</ele><time>2026-04-12T11:19:49.983Z</time></trkpt><trkpt lat="45.2656948" lon="13.8102877"><ele>347.0</ele><time>2026-04-12T11:19:50.97Z</time></trkpt><trkpt lat="45.2658126" lon="13.810295"><ele>347.6666666666667</ele><time>2026-04-12T11:19:51.976Z</time></trkpt><trkpt lat="45.2659506" lon="13.8103188"><ele>348.3333333333333</ele><time>2026-04-12T11:19:52.979Z</time></trkpt><trkpt lat="45.2660901" lon="13.810339"><ele>349.0</ele><time>2026-04-12T11:19:53.975Z</time></trkpt><trkpt lat="45.2662624" lon="13.8103533"><ele>349.0</ele><time>2026-04-12T11:19:54.977Z</time></trkpt><trkpt lat="45.2664327" lon="13.8103738"><ele>349.0</ele><time>2026-04-12T11:19:55.976Z</time></trkpt><trkpt lat="45.266594" lon="13.8103867"><ele>349.0</ele><time>2026-04-12T11:19:56.97Z</time></trkpt><trkpt lat="45.2667469" lon="13.8104031"><ele>347.0</ele><time>2026-04-12T11:19:57.971Z</time></trkpt><trkpt lat="45.2668971" lon="13.8104157"><ele>345.0</ele><time>2026-04-12T11:19:58.976Z</time></trkpt><trkpt lat="45.2670523" lon="13.8104267"><ele>343.0</ele><time>2026-04-12T11:19:59.985Z</time></trkpt><trkpt lat="45.2672078" lon="13.8104428"><ele>341.66666666666663</ele><time>2026-04-12T11:20:00.969Z</time></trkpt><trkpt lat="45.2673636" lon="13.8104625"><ele>340.3333333333333</ele><time>2026-04-12T11:20:01.977Z</time></trkpt><trkpt lat="45.2675226" lon="13.8104747"><ele>339.0</ele><time>2026-04-12T11:20:02.97Z</time></trkpt><trkpt lat="45.2676701" lon="13.8104866"><ele>339.0</ele><time>2026-04-12T11:20:03.977Z</time></trkpt><trkpt lat="45.2678087" lon="13.8104944"><ele>339.0</ele><time>2026-04-12T11:20:04.979Z</time></trkpt><trkpt lat="45.2679453" lon="13.8105003"><ele>339.0</ele><time>2026-04-12T11:20:05.969Z</time></trkpt><trkpt lat="45.2680838" lon="13.8105065"><ele>339.0</ele><time>2026-04-12T11:20:06.971Z</time></trkpt><trkpt lat="45.2682303" lon="13.8105113"><ele>338.6666666666667</ele><time>2026-04-12T11:20:07.975Z</time></trkpt><trkpt lat="45.2683869" lon="13.810488"><ele>338.33333333333337</ele><time>2026-04-12T11:20:08.972Z</time></trkpt><trkpt lat="45.2685505" lon="13.8104471"><ele>338.0</ele><time>2026-04-12T11:20:09.974Z</time></trkpt><trkpt lat="45.2687189" lon="13.8104027"><ele>338.0</ele><time>2026-04-12T11:20:10.969Z</time></trkpt><trkpt lat="45.2688827" lon="13.8103798"><ele>338.0</ele><time>2026-04-12T11:20:11.975Z</time></trkpt><trkpt lat="45.2690316" lon="13.8103629"><ele>338.0</ele><time>2026-04-12T11:20:12.973Z</time></trkpt><trkpt lat="45.2691701" lon="13.8103489"><ele>337.25</ele><time>2026-04-12T11:20:13.968Z</time></trkpt><trkpt lat="45.2692955" lon="13.8103532"><ele>336.5</ele><time>2026-04-12T11:20:14.976Z</time></trkpt><trkpt lat="45.2694226" lon="13.8103959"><ele>335.75</ele><time>2026-04-12T11:20:15.973Z</time></trkpt><trkpt lat="45.2695531" lon="13.8104612"><ele>335.0</ele><time>2026-04-12T11:20:16.971Z</time></trkpt><trkpt lat="45.2696932" lon="13.8105379"><ele>336.0</ele><time>2026-04-12T11:20:17.968Z</time></trkpt><trkpt lat="45.2698389" lon="13.8106154"><ele>337.0</ele><time>2026-04-12T11:20:18.976Z</time></trkpt><trkpt lat="45.2699799" lon="13.8106814"><ele>338.0</ele><time>2026-04-12T11:20:19.976Z</time></trkpt><trkpt lat="45.2701148" lon="13.8107402"><ele>339.0</ele><time>2026-04-12T11:20:20.972Z</time></trkpt><trkpt lat="45.2702441" lon="13.8108205"><ele>339.0</ele><time>2026-04-12T11:20:21.973Z</time></trkpt><trkpt lat="45.2703795" lon="13.810914"><ele>339.0</ele><time>2026-04-12T11:20:22.975Z</time></trkpt><trkpt lat="45.2705209" lon="13.8109911"><ele>339.0</ele><time>2026-04-12T11:20:23.967Z</time></trkpt><trkpt lat="45.2706661" lon="13.8110589"><ele>338.25</ele><time>2026-04-12T11:20:24.971Z</time></trkpt><trkpt lat="45.2708041" lon="13.8111213"><ele>337.5</ele><time>2026-04-12T11:20:25.977Z</time></trkpt><trkpt lat="45.270934" lon="13.8111736"><ele>336.75</ele><time>2026-04-12T11:20:26.969Z</time></trkpt><trkpt lat="45.2710477" lon="13.8112106"><ele>336.0</ele><time>2026-04-12T11:20:27.977Z</time></trkpt><trkpt lat="45.2711544" lon="13.8112472"><ele>336.0</ele><time>2026-04-12T11:20:28.974Z</time></trkpt><trkpt lat="45.2712413" lon="13.8112729"><ele>336.0</ele><time>2026-04-12T11:20:29.974Z</time></trkpt><trkpt lat="45.2713422" lon="13.8112736"><ele>336.0</ele><time>2026-04-12T11:20:31.973Z</time></trkpt><trkpt lat="45.2714301" lon="13.811199"><ele>336.0</ele><time>2026-04-12T11:20:33.98Z</time></trkpt><trkpt lat="45.2714685" lon="13.8111243"><ele>336.0</ele><time>2026-04-12T11:20:34.974Z</time></trkpt><trkpt lat="45.2715244" lon="13.8110207"><ele>336.0</ele><time>2026-04-12T11:20:35.97Z</time></trkpt><trkpt lat="45.2715803" lon="13.8108975"><ele>336.0</ele><time>2026-04-12T11:20:36.973Z</time></trkpt><trkpt lat="45.2716359" lon="13.8107376"><ele>336.0</ele><time>2026-04-12T11:20:37.971Z</time></trkpt><trkpt lat="45.2716909" lon="13.8105501"><ele>336.0</ele><time>2026-04-12T11:20:38.975Z</time></trkpt><trkpt lat="45.2717393" lon="13.8103511"><ele>336.0</ele><time>2026-04-12T11:20:39.974Z</time></trkpt><trkpt lat="45.2717911" lon="13.8101368"><ele>336.0</ele><time>2026-04-12T11:20:40.968Z</time></trkpt><trkpt lat="45.2718475" lon="13.8099265"><ele>336.0</ele><time>2026-04-12T11:20:41.973Z</time></trkpt><trkpt lat="45.2719054" lon="13.809719"><ele>336.0</ele><time>2026-04-12T11:20:42.97Z</time></trkpt><trkpt lat="45.2719591" lon="13.8095272"><ele>336.0</ele><time>2026-04-12T11:20:43.969Z</time></trkpt><trkpt lat="45.2720266" lon="13.8093422"><ele>336.0</ele><time>2026-04-12T11:20:44.968Z</time></trkpt><trkpt lat="45.2720902" lon="13.8091642"><ele>336.0</ele><time>2026-04-12T11:20:45.975Z</time></trkpt><trkpt lat="45.2721389" lon="13.8089797"><ele>336.0</ele><time>2026-04-12T11:20:46.969Z</time></trkpt><trkpt lat="45.2721818" lon="13.8088047"><ele>335.75</ele><time>2026-04-12T11:20:47.976Z</time></trkpt><trkpt lat="45.2722363" lon="13.8086127"><ele>335.5</ele><time>2026-04-12T11:20:48.975Z</time></trkpt><trkpt lat="45.2723051" lon="13.8084224"><ele>335.25</ele><time>2026-04-12T11:20:49.971Z</time></trkpt><trkpt lat="45.2723868" lon="13.808261"><ele>335.0</ele><time>2026-04-12T11:20:50.972Z</time></trkpt><trkpt lat="45.2724851" lon="13.8081085"><ele>335.0</ele><time>2026-04-12T11:20:51.973Z</time></trkpt><trkpt lat="45.2725953" lon="13.8079568"><ele>335.0</ele><time>2026-04-12T11:20:52.969Z</time></trkpt><trkpt lat="45.2727027" lon="13.8077946"><ele>335.0</ele><time>2026-04-12T11:20:53.971Z</time></trkpt><trkpt lat="45.2727975" lon="13.8076357"><ele>335.5</ele><time>2026-04-12T11:20:54.97Z</time></trkpt><trkpt lat="45.2728741" lon="13.8074736"><ele>336.0</ele><time>2026-04-12T11:20:55.97Z</time></trkpt><trkpt lat="45.2729378" lon="13.8073068"><ele>336.5</ele><time>2026-04-12T11:20:56.973Z</time></trkpt><trkpt lat="45.2730016" lon="13.8071259"><ele>337.0</ele><time>2026-04-12T11:20:57.977Z</time></trkpt><trkpt lat="45.2730679" lon="13.8069424"><ele>333.66666666666663</ele><time>2026-04-12T11:20:58.969Z</time></trkpt><trkpt lat="45.273121" lon="13.8067514"><ele>330.3333333333333</ele><time>2026-04-12T11:20:59.967Z</time></trkpt><trkpt lat="45.2731678" lon="13.8065422"><ele>327.0</ele><time>2026-04-12T11:21:00.97Z</time></trkpt><trkpt lat="45.2732232" lon="13.8063224"><ele>327.0</ele><time>2026-04-12T11:21:01.969Z</time></trkpt><trkpt lat="45.2732811" lon="13.8061168"><ele>327.0</ele><time>2026-04-12T11:21:02.969Z</time></trkpt><trkpt lat="45.2733409" lon="13.805919"><ele>327.0</ele><time>2026-04-12T11:21:03.972Z</time></trkpt><trkpt lat="45.2734014" lon="13.8057297"><ele>326.6</ele><time>2026-04-12T11:21:04.977Z</time></trkpt><trkpt lat="45.2734609" lon="13.8055543"><ele>326.20000000000005</ele><time>2026-04-12T11:21:05.975Z</time></trkpt><trkpt lat="45.2735166" lon="13.8054096"><ele>325.8</ele><time>2026-04-12T11:21:06.969Z</time></trkpt><trkpt lat="45.2735656" lon="13.8052923"><ele>325.4</ele><time>2026-04-12T11:21:07.972Z</time></trkpt><trkpt lat="45.2736146" lon="13.8052063"><ele>325.0</ele><time>2026-04-12T11:21:08.971Z</time></trkpt><trkpt lat="45.2737001" lon="13.8051468"><ele>325.0</ele><time>2026-04-12T11:21:10.978Z</time></trkpt><trkpt lat="45.2737984" lon="13.8051865"><ele>325.0</ele><time>2026-04-12T11:21:12.977Z</time></trkpt><trkpt lat="45.2738664" lon="13.8052456"><ele>325.0</ele><time>2026-04-12T11:21:13.979Z</time></trkpt><trkpt lat="45.2739557" lon="13.8053178"><ele>325.0</ele><time>2026-04-12T11:21:14.982Z</time></trkpt><trkpt lat="45.2740603" lon="13.8053986"><ele>325.0</ele><time>2026-04-12T11:21:15.973Z</time></trkpt><trkpt lat="45.2741726" lon="13.8054876"><ele>324.0</ele><time>2026-04-12T11:21:16.973Z</time></trkpt><trkpt lat="45.2743082" lon="13.8055883"><ele>323.0</ele><time>2026-04-12T11:21:17.974Z</time></trkpt><trkpt lat="45.2744464" lon="13.8056916"><ele>322.0</ele><time>2026-04-12T11:21:18.973Z</time></trkpt><trkpt lat="45.2745954" lon="13.805784"><ele>322.0</ele><time>2026-04-12T11:21:19.974Z</time></trkpt><trkpt lat="45.2747518" lon="13.8058603"><ele>322.0</ele><time>2026-04-12T11:21:20.969Z</time></trkpt><trkpt lat="45.2749169" lon="13.8059262"><ele>322.0</ele><time>2026-04-12T11:21:21.973Z</time></trkpt><trkpt lat="45.2750864" lon="13.8059758"><ele>320.66666666666663</ele><time>2026-04-12T11:21:22.968Z</time></trkpt><trkpt lat="45.2752569" lon="13.8060219"><ele>319.3333333333333</ele><time>2026-04-12T11:21:23.97Z</time></trkpt><trkpt lat="45.2754203" lon="13.8060787"><ele>318.0</ele><time>2026-04-12T11:21:24.969Z</time></trkpt><trkpt lat="45.2755829" lon="13.8061461"><ele>317.0</ele><time>2026-04-12T11:21:25.969Z</time></trkpt><trkpt lat="45.2757464" lon="13.806216"><ele>316.0</ele><time>2026-04-12T11:21:26.971Z</time></trkpt><trkpt lat="45.2759163" lon="13.8062902"><ele>315.0</ele><time>2026-04-12T11:21:27.971Z</time></trkpt><trkpt lat="45.2760866" lon="13.8063658"><ele>315.0</ele><time>2026-04-12T11:21:28.977Z</time></trkpt><trkpt lat="45.2762501" lon="13.8064377"><ele>315.0</ele><time>2026-04-12T11:21:29.968Z</time></trkpt><trkpt lat="45.2764024" lon="13.8065156"><ele>315.0</ele><time>2026-04-12T11:21:30.971Z</time></trkpt><trkpt lat="45.2765444" lon="13.8065977"><ele>314.6666666666667</ele><time>2026-04-12T11:21:31.969Z</time></trkpt><trkpt lat="45.2766859" lon="13.8067068"><ele>314.33333333333337</ele><time>2026-04-12T11:21:32.97Z</time></trkpt><trkpt lat="45.276827" lon="13.8068268"><ele>314.0</ele><time>2026-04-12T11:21:33.975Z</time></trkpt><trkpt lat="45.2769713" lon="13.8069859"><ele>314.0</ele><time>2026-04-12T11:21:34.976Z</time></trkpt><trkpt lat="45.2771184" lon="13.8071386"><ele>314.0</ele><time>2026-04-12T11:21:35.976Z</time></trkpt><trkpt lat="45.2772644" lon="13.8072905"><ele>314.0</ele><time>2026-04-12T11:21:36.974Z</time></trkpt><trkpt lat="45.2774015" lon="13.8074261"><ele>314.0</ele><time>2026-04-12T11:21:37.973Z</time></trkpt><trkpt lat="45.2775355" lon="13.8075498"><ele>314.0</ele><time>2026-04-12T11:21:38.972Z</time></trkpt><trkpt lat="45.2776765" lon="13.8076767"><ele>314.0</ele><time>2026-04-12T11:21:39.974Z</time></trkpt><trkpt lat="45.2778076" lon="13.8078078"><ele>314.33333333333337</ele><time>2026-04-12T11:21:40.971Z</time></trkpt><trkpt lat="45.2779476" lon="13.807934"><ele>314.6666666666667</ele><time>2026-04-12T11:21:41.97Z</time></trkpt><trkpt lat="45.2780809" lon="13.8080686"><ele>315.0</ele><time>2026-04-12T11:21:42.971Z</time></trkpt><trkpt lat="45.2782038" lon="13.8081814"><ele>315.0</ele><time>2026-04-12T11:21:43.969Z</time></trkpt><trkpt lat="45.2783199" lon="13.8082843"><ele>315.0</ele><time>2026-04-12T11:21:44.969Z</time></trkpt><trkpt lat="45.2784347" lon="13.8083705"><ele>315.0</ele><time>2026-04-12T11:21:45.971Z</time></trkpt><trkpt lat="45.2785446" lon="13.8084443"><ele>315.0</ele><time>2026-04-12T11:21:46.971Z</time></trkpt><trkpt lat="45.2786385" lon="13.8085242"><ele>315.0</ele><time>2026-04-12T11:21:47.983Z</time></trkpt><trkpt lat="45.2787144" lon="13.808597"><ele>315.0</ele><time>2026-04-12T11:21:48.976Z</time></trkpt><trkpt lat="45.2787722" lon="13.808661"><ele>315.0</ele><time>2026-04-12T11:21:49.972Z</time></trkpt><trkpt lat="45.2788253" lon="13.8087218"><ele>315.0</ele><time>2026-04-12T11:21:50.968Z</time></trkpt><trkpt lat="45.2789207" lon="13.80883"><ele>315.0</ele><time>2026-04-12T11:21:52.971Z</time></trkpt><trkpt lat="45.2789736" lon="13.8088935"><ele>315.0</ele><time>2026-04-12T11:21:53.973Z</time></trkpt><trkpt lat="45.2790274" lon="13.8089656"><ele>315.0</ele><time>2026-04-12T11:21:54.979Z</time></trkpt><trkpt lat="45.2790885" lon="13.8090466"><ele>315.0</ele><time>2026-04-12T11:21:55.973Z</time></trkpt><trkpt lat="45.2791559" lon="13.8091371"><ele>315.0</ele><time>2026-04-12T11:21:56.973Z</time></trkpt><trkpt lat="45.2792313" lon="13.809252"><ele>315.0</ele><time>2026-04-12T11:21:57.977Z</time></trkpt><trkpt lat="45.2793205" lon="13.8093744"><ele>315.0</ele><time>2026-04-12T11:21:58.976Z</time></trkpt><trkpt lat="45.2794352" lon="13.8095172"><ele>314.3333333333333</ele><time>2026-04-12T11:21:59.97Z</time></trkpt><trkpt lat="45.2795482" lon="13.8096862"><ele>313.66666666666663</ele><time>2026-04-12T11:22:00.973Z</time></trkpt><trkpt lat="45.2796671" lon="13.8098921"><ele>313.0</ele><time>2026-04-12T11:22:01.968Z</time></trkpt><trkpt lat="45.2797702" lon="13.8100967"><ele>314.3333333333333</ele><time>2026-04-12T11:22:02.974Z</time></trkpt><trkpt lat="45.2798789" lon="13.8102985"><ele>315.6666666666667</ele><time>2026-04-12T11:22:03.969Z</time></trkpt><trkpt lat="45.2799821" lon="13.8105021"><ele>317.0</ele><time>2026-04-12T11:22:04.973Z</time></trkpt><trkpt lat="45.280078" lon="13.8107128"><ele>317.0</ele><time>2026-04-12T11:22:05.97Z</time></trkpt><trkpt lat="45.2801598" lon="13.8109209"><ele>317.0</ele><time>2026-04-12T11:22:06.981Z</time></trkpt><trkpt lat="45.2802433" lon="13.8111265"><ele>317.0</ele><time>2026-04-12T11:22:07.973Z</time></trkpt><trkpt lat="45.2803316" lon="13.8113265"><ele>316.6666666666667</ele><time>2026-04-12T11:22:08.977Z</time></trkpt><trkpt lat="45.2804271" lon="13.8115218"><ele>316.3333333333333</ele><time>2026-04-12T11:22:09.968Z</time></trkpt><trkpt lat="45.280522" lon="13.811699"><ele>316.0</ele><time>2026-04-12T11:22:10.967Z</time></trkpt><trkpt lat="45.2806067" lon="13.8118668"><ele>316.75</ele><time>2026-04-12T11:22:11.969Z</time></trkpt><trkpt lat="45.2806826" lon="13.8120254"><ele>317.5</ele><time>2026-04-12T11:22:12.972Z</time></trkpt><trkpt lat="45.2807605" lon="13.8121485"><ele>318.25</ele><time>2026-04-12T11:22:13.973Z</time></trkpt><trkpt lat="45.280853" lon="13.812261"><ele>319.0</ele><time>2026-04-12T11:22:14.969Z</time></trkpt><trkpt lat="45.2809647" lon="13.8123738"><ele>319.0</ele><time>2026-04-12T11:22:15.972Z</time></trkpt><trkpt lat="45.2810903" lon="13.8124883"><ele>319.0</ele><time>2026-04-12T11:22:16.975Z</time></trkpt><trkpt lat="45.2812221" lon="13.8126102"><ele>319.0</ele><time>2026-04-12T11:22:17.974Z</time></trkpt><trkpt lat="45.2813641" lon="13.8127369"><ele>319.0</ele><time>2026-04-12T11:22:18.981Z</time></trkpt><trkpt lat="45.281518" lon="13.8128506"><ele>319.0</ele><time>2026-04-12T11:22:19.969Z</time></trkpt><trkpt lat="45.2816747" lon="13.8129778"><ele>319.0</ele><time>2026-04-12T11:22:20.97Z</time></trkpt><trkpt lat="45.2818252" lon="13.8131015"><ele>319.0</ele><time>2026-04-12T11:22:21.97Z</time></trkpt><trkpt lat="45.2819694" lon="13.8132326"><ele>319.0</ele><time>2026-04-12T11:22:22.972Z</time></trkpt><trkpt lat="45.2821087" lon="13.8133783"><ele>319.0</ele><time>2026-04-12T11:22:23.982Z</time></trkpt><trkpt lat="45.2822455" lon="13.8135285"><ele>319.5</ele><time>2026-04-12T11:22:24.974Z</time></trkpt><trkpt lat="45.2823688" lon="13.8136577"><ele>320.0</ele><time>2026-04-12T11:22:25.973Z</time></trkpt><trkpt lat="45.2824717" lon="13.8137939"><ele>320.5</ele><time>2026-04-12T11:22:26.97Z</time></trkpt><trkpt lat="45.2825608" lon="13.8139636"><ele>321.0</ele><time>2026-04-12T11:22:27.985Z</time></trkpt><trkpt lat="45.2826408" lon="13.8141468"><ele>321.25</ele><time>2026-04-12T11:22:28.971Z</time></trkpt><trkpt lat="45.2827189" lon="13.8143257"><ele>321.5</ele><time>2026-04-12T11:22:29.971Z</time></trkpt><trkpt lat="45.2827755" lon="13.814489"><ele>321.75</ele><time>2026-04-12T11:22:30.97Z</time></trkpt><trkpt lat="45.2828184" lon="13.8146456"><ele>322.0</ele><time>2026-04-12T11:22:31.973Z</time></trkpt><trkpt lat="45.2828524" lon="13.8147876"><ele>322.0</ele><time>2026-04-12T11:22:32.975Z</time></trkpt><trkpt lat="45.2828799" lon="13.8149362"><ele>322.0</ele><time>2026-04-12T11:22:33.971Z</time></trkpt><trkpt lat="45.2828854" lon="13.8150818"><ele>322.0</ele><time>2026-04-12T11:22:34.969Z</time></trkpt><trkpt lat="45.2828707" lon="13.8152269"><ele>322.0</ele><time>2026-04-12T11:22:35.973Z</time></trkpt><trkpt lat="45.2828577" lon="13.8153763"><ele>322.0</ele><time>2026-04-12T11:22:36.972Z</time></trkpt><trkpt lat="45.2828621" lon="13.8155305"><ele>322.40000000000003</ele><time>2026-04-12T11:22:37.982Z</time></trkpt><trkpt lat="45.2828864" lon="13.8156609"><ele>322.8</ele><time>2026-04-12T11:22:38.968Z</time></trkpt><trkpt lat="45.2829374" lon="13.8157826"><ele>323.2</ele><time>2026-04-12T11:22:39.969Z</time></trkpt><trkpt lat="45.2830155" lon="13.8158967"><ele>323.6</ele><time>2026-04-12T11:22:40.969Z</time></trkpt><trkpt lat="45.2831122" lon="13.8160092"><ele>324.0</ele><time>2026-04-12T11:22:41.975Z</time></trkpt><trkpt lat="45.2832177" lon="13.8161328"><ele>324.0</ele><time>2026-04-12T11:22:42.97Z</time></trkpt><trkpt lat="45.2833264" lon="13.8162696"><ele>324.0</ele><time>2026-04-12T11:22:43.971Z</time></trkpt><trkpt lat="45.2834448" lon="13.8164016"><ele>324.0</ele><time>2026-04-12T11:22:44.975Z</time></trkpt><trkpt lat="45.2835712" lon="13.8165439"><ele>324.0</ele><time>2026-04-12T11:22:45.968Z</time></trkpt><trkpt lat="45.2837057" lon="13.8166889"><ele>324.0</ele><time>2026-04-12T11:22:46.971Z</time></trkpt><trkpt lat="45.2838327" lon="13.8168215"><ele>324.0</ele><time>2026-04-12T11:22:47.974Z</time></trkpt><trkpt lat="45.2839592" lon="13.8169348"><ele>324.75</ele><time>2026-04-12T11:22:48.98Z</time></trkpt><trkpt lat="45.2840792" lon="13.8170551"><ele>325.5</ele><time>2026-04-12T11:22:49.975Z</time></trkpt><trkpt lat="45.2841955" lon="13.817182"><ele>326.25</ele><time>2026-04-12T11:22:50.973Z</time></trkpt><trkpt lat="45.284301" lon="13.8172791"><ele>327.0</ele><time>2026-04-12T11:22:51.972Z</time></trkpt><trkpt lat="45.2843858" lon="13.8173468"><ele>327.0</ele><time>2026-04-12T11:22:52.972Z</time></trkpt><trkpt lat="45.28445" lon="13.8174318"><ele>327.0</ele><time>2026-04-12T11:22:53.983Z</time></trkpt><trkpt lat="45.2845034" lon="13.8175467"><ele>327.0</ele><time>2026-04-12T11:22:54.97Z</time></trkpt><trkpt lat="45.284544" lon="13.8176794"><ele>327.0</ele><time>2026-04-12T11:22:55.975Z</time></trkpt><trkpt lat="45.2845941" lon="13.8178299"><ele>327.0</ele><time>2026-04-12T11:22:56.974Z</time></trkpt><trkpt lat="45.2846627" lon="13.8179624"><ele>328.25</ele><time>2026-04-12T11:22:57.973Z</time></trkpt><trkpt lat="45.2847479" lon="13.8180817"><ele>329.5</ele><time>2026-04-12T11:22:58.978Z</time></trkpt><trkpt lat="45.2848353" lon="13.8182089"><ele>330.75</ele><time>2026-04-12T11:22:59.975Z</time></trkpt><trkpt lat="45.2849138" lon="13.8183536"><ele>332.0</ele><time>2026-04-12T11:23:00.974Z</time></trkpt><trkpt lat="45.2849862" lon="13.8184986"><ele>332.25</ele><time>2026-04-12T11:23:01.973Z</time></trkpt><trkpt lat="45.2850719" lon="13.8186307"><ele>332.5</ele><time>2026-04-12T11:23:02.969Z</time></trkpt><trkpt lat="45.2851678" lon="13.8187645"><ele>332.75</ele><time>2026-04-12T11:23:03.971Z</time></trkpt><trkpt lat="45.2852795" lon="13.8189188"><ele>333.0</ele><time>2026-04-12T11:23:04.973Z</time></trkpt><trkpt lat="45.2853981" lon="13.819075"><ele>333.0</ele><time>2026-04-12T11:23:05.974Z</time></trkpt><trkpt lat="45.2855267" lon="13.8192349"><ele>333.0</ele><time>2026-04-12T11:23:06.975Z</time></trkpt><trkpt lat="45.2856492" lon="13.8193855"><ele>333.0</ele><time>2026-04-12T11:23:07.972Z</time></trkpt><trkpt lat="45.2857539" lon="13.819496"><ele>333.5</ele><time>2026-04-12T11:23:08.973Z</time></trkpt><trkpt lat="45.2858654" lon="13.8195926"><ele>334.0</ele><time>2026-04-12T11:23:09.976Z</time></trkpt><trkpt lat="45.2859682" lon="13.8196676"><ele>334.5</ele><time>2026-04-12T11:23:10.972Z</time></trkpt><trkpt lat="45.2860731" lon="13.8197242"><ele>335.0</ele><time>2026-04-12T11:23:11.973Z</time></trkpt><trkpt lat="45.2861877" lon="13.8197616"><ele>335.0</ele><time>2026-04-12T11:23:12.976Z</time></trkpt><trkpt lat="45.2863094" lon="13.8197874"><ele>335.0</ele><time>2026-04-12T11:23:13.971Z</time></trkpt><trkpt lat="45.2864515" lon="13.819814"><ele>335.0</ele><time>2026-04-12T11:23:14.966Z</time></trkpt><trkpt lat="45.286591" lon="13.8198447"><ele>335.0</ele><time>2026-04-12T11:23:15.975Z</time></trkpt><trkpt lat="45.2867268" lon="13.8198905"><ele>335.2</ele><time>2026-04-12T11:23:16.974Z</time></trkpt><trkpt lat="45.2868372" lon="13.8199445"><ele>335.4</ele><time>2026-04-12T11:23:17.97Z</time></trkpt><trkpt lat="45.2869274" lon="13.820014"><ele>335.6</ele><time>2026-04-12T11:23:18.967Z</time></trkpt><trkpt lat="45.2869961" lon="13.8201087"><ele>335.8</ele><time>2026-04-12T11:23:19.968Z</time></trkpt><trkpt lat="45.2870528" lon="13.8202315"><ele>336.0</ele><time>2026-04-12T11:23:20.974Z</time></trkpt><trkpt lat="45.2870871" lon="13.8203767"><ele>336.0</ele><time>2026-04-12T11:23:21.971Z</time></trkpt><trkpt lat="45.2871121" lon="13.8205505"><ele>336.0</ele><time>2026-04-12T11:23:22.974Z</time></trkpt><trkpt lat="45.2871428" lon="13.8207423"><ele>336.0</ele><time>2026-04-12T11:23:23.978Z</time></trkpt><trkpt lat="45.2871884" lon="13.8209392"><ele>336.0</ele><time>2026-04-12T11:23:24.972Z</time></trkpt><trkpt lat="45.2872454" lon="13.8211252"><ele>337.0</ele><time>2026-04-12T11:23:25.977Z</time></trkpt><trkpt lat="45.2873101" lon="13.8213006"><ele>338.0</ele><time>2026-04-12T11:23:26.978Z</time></trkpt><trkpt lat="45.2873879" lon="13.8214727"><ele>339.0</ele><time>2026-04-12T11:23:27.976Z</time></trkpt><trkpt lat="45.2874857" lon="13.821646"><ele>340.0</ele><time>2026-04-12T11:23:28.973Z</time></trkpt><trkpt lat="45.2875854" lon="13.8218103"><ele>340.6</ele><time>2026-04-12T11:23:29.97Z</time></trkpt><trkpt lat="45.2876823" lon="13.8219605"><ele>341.2</ele><time>2026-04-12T11:23:30.975Z</time></trkpt><trkpt lat="45.2877587" lon="13.8220792"><ele>341.79999999999995</ele><time>2026-04-12T11:23:31.972Z</time></trkpt><trkpt lat="45.2878406" lon="13.8221642"><ele>342.4</ele><time>2026-04-12T11:23:32.969Z</time></trkpt><trkpt lat="45.2879254" lon="13.8222129"><ele>343.0</ele><time>2026-04-12T11:23:33.968Z</time></trkpt><trkpt lat="45.2880201" lon="13.822223"><ele>342.4</ele><time>2026-04-12T11:23:34.971Z</time></trkpt><trkpt lat="45.2881259" lon="13.8222098"><ele>341.79999999999995</ele><time>2026-04-12T11:23:35.971Z</time></trkpt><trkpt lat="45.288225" lon="13.822203"><ele>341.2</ele><time>2026-04-12T11:23:36.97Z</time></trkpt><trkpt lat="45.2883161" lon="13.8222125"><ele>340.6</ele><time>2026-04-12T11:23:37.974Z</time></trkpt><trkpt lat="45.2883783" lon="13.8222513"><ele>340.0</ele><time>2026-04-12T11:23:38.969Z</time></trkpt><trkpt lat="45.2884678" lon="13.8222924"><ele>340.0</ele><time>2026-04-12T11:23:40.98Z</time></trkpt><trkpt lat="45.2885407" lon="13.822319"><ele>340.0</ele><time>2026-04-12T11:23:42.968Z</time></trkpt><trkpt lat="45.2886047" lon="13.8223524"><ele>340.0</ele><time>2026-04-12T11:23:44.971Z</time></trkpt><trkpt lat="45.2886717" lon="13.8224068"><ele>340.0</ele><time>2026-04-12T11:23:47.972Z</time></trkpt><trkpt lat="45.2887972" lon="13.8225041"><ele>340.0</ele><time>2026-04-12T11:23:49.975Z</time></trkpt><trkpt lat="45.2889418" lon="13.8225697"><ele>339.4</ele><time>2026-04-12T11:23:50.976Z</time></trkpt><trkpt lat="45.2890223" lon="13.8225728"><ele>338.8</ele><time>2026-04-12T11:23:51.969Z</time></trkpt><trkpt lat="45.2891117" lon="13.822559"><ele>338.20000000000005</ele><time>2026-04-12T11:23:52.972Z</time></trkpt><trkpt lat="45.2892094" lon="13.8225462"><ele>337.6</ele><time>2026-04-12T11:23:53.978Z</time></trkpt><trkpt lat="45.2893054" lon="13.8225622"><ele>337.0</ele><time>2026-04-12T11:23:54.977Z</time></trkpt><trkpt lat="45.289416" lon="13.8226155"><ele>336.5</ele><time>2026-04-12T11:23:55.97Z</time></trkpt><trkpt lat="45.2895467" lon="13.8227021"><ele>336.0</ele><time>2026-04-12T11:23:56.971Z</time></trkpt><trkpt lat="45.2896709" lon="13.8228118"><ele>335.5</ele><time>2026-04-12T11:23:57.981Z</time></trkpt><trkpt lat="45.2897908" lon="13.8229107"><ele>335.0</ele><time>2026-04-12T11:23:58.969Z</time></trkpt><trkpt lat="45.2899013" lon="13.8230112"><ele>334.0</ele><time>2026-04-12T11:23:59.97Z</time></trkpt><trkpt lat="45.2900075" lon="13.8230897"><ele>333.0</ele><time>2026-04-12T11:24:00.972Z</time></trkpt><trkpt lat="45.2901222" lon="13.8231673"><ele>332.0</ele><time>2026-04-12T11:24:01.969Z</time></trkpt><trkpt lat="45.2902294" lon="13.8232432"><ele>331.0</ele><time>2026-04-12T11:24:02.972Z</time></trkpt><trkpt lat="45.2903255" lon="13.8233173"><ele>331.0</ele><time>2026-04-12T11:24:03.971Z</time></trkpt><trkpt lat="45.2904088" lon="13.8233823"><ele>331.0</ele><time>2026-04-12T11:24:04.969Z</time></trkpt><trkpt lat="45.2905019" lon="13.8234149"><ele>331.0</ele><time>2026-04-12T11:24:05.974Z</time></trkpt><trkpt lat="45.2905925" lon="13.8234318"><ele>331.0</ele><time>2026-04-12T11:24:06.976Z</time></trkpt><trkpt lat="45.2906777" lon="13.8234193"><ele>331.0</ele><time>2026-04-12T11:24:07.974Z</time></trkpt><trkpt lat="45.290765" lon="13.8233706"><ele>330.6</ele><time>2026-04-12T11:24:08.972Z</time></trkpt><trkpt lat="45.2908661" lon="13.8232997"><ele>330.20000000000005</ele><time>2026-04-12T11:24:09.969Z</time></trkpt><trkpt lat="45.2909665" lon="13.8232475"><ele>329.79999999999995</ele><time>2026-04-12T11:24:10.975Z</time></trkpt><trkpt lat="45.2910569" lon="13.8232525"><ele>329.4</ele><time>2026-04-12T11:24:11.975Z</time></trkpt><trkpt lat="45.2911681" lon="13.82328"><ele>329.0</ele><time>2026-04-12T11:24:12.977Z</time></trkpt><trkpt lat="45.2912932" lon="13.8233258"><ele>327.0</ele><time>2026-04-12T11:24:13.972Z</time></trkpt><trkpt lat="45.2914239" lon="13.8233807"><ele>325.0</ele><time>2026-04-12T11:24:14.975Z</time></trkpt><trkpt lat="45.2915365" lon="13.8234574"><ele>323.0</ele><time>2026-04-12T11:24:15.975Z</time></trkpt><trkpt lat="45.2916282" lon="13.8235523"><ele>321.0</ele><time>2026-04-12T11:24:16.973Z</time></trkpt><trkpt lat="45.2917064" lon="13.8236286"><ele>320.6</ele><time>2026-04-12T11:24:17.973Z</time></trkpt><trkpt lat="45.2917925" lon="13.8237214"><ele>320.20000000000005</ele><time>2026-04-12T11:24:19.972Z</time></trkpt><trkpt lat="45.291861" lon="13.823798"><ele>319.79999999999995</ele><time>2026-04-12T11:29:56.968Z</time></trkpt><trkpt lat="45.2919767" lon="13.8238483"><ele>319.4</ele><time>2026-04-12T11:29:58.979Z</time></trkpt><trkpt lat="45.2920556" lon="13.8238635"><ele>319.0</ele><time>2026-04-12T11:29:59.973Z</time></trkpt><trkpt lat="45.2921491" lon="13.823888"><ele>319.0</ele><time>2026-04-12T11:30:00.969Z</time></trkpt><trkpt lat="45.2922388" lon="13.8239084"><ele>319.0</ele><time>2026-04-12T11:30:01.967Z</time></trkpt><trkpt lat="45.2923359" lon="13.8239331"><ele>319.0</ele><time>2026-04-12T11:30:02.971Z</time></trkpt><trkpt lat="45.2924455" lon="13.823961"><ele>319.0</ele><time>2026-04-12T11:30:03.967Z</time></trkpt><trkpt lat="45.2925616" lon="13.8239938"><ele>319.0</ele><time>2026-04-12T11:30:04.974Z</time></trkpt><trkpt lat="45.292684" lon="13.8240319"><ele>318.25</ele><time>2026-04-12T11:30:05.974Z</time></trkpt><trkpt lat="45.2928123" lon="13.8240686"><ele>317.5</ele><time>2026-04-12T11:30:06.97Z</time></trkpt><trkpt lat="45.2929448" lon="13.8241087"><ele>316.75</ele><time>2026-04-12T11:30:07.976Z</time></trkpt><trkpt lat="45.2930798" lon="13.8241456"><ele>316.0</ele><time>2026-04-12T11:30:08.97Z</time></trkpt><trkpt lat="45.2932218" lon="13.8241812"><ele>315.75</ele><time>2026-04-12T11:30:09.971Z</time></trkpt><trkpt lat="45.2933678" lon="13.8242171"><ele>315.5</ele><time>2026-04-12T11:30:10.97Z</time></trkpt><trkpt lat="45.2935123" lon="13.8242524"><ele>315.25</ele><time>2026-04-12T11:30:11.976Z</time></trkpt><trkpt lat="45.2936622" lon="13.8242855"><ele>315.0</ele><time>2026-04-12T11:30:12.972Z</time></trkpt><trkpt lat="45.2938045" lon="13.824315"><ele>313.25</ele><time>2026-04-12T11:30:13.971Z</time></trkpt><trkpt lat="45.2939419" lon="13.8243467"><ele>311.5</ele><time>2026-04-12T11:30:14.975Z</time></trkpt><trkpt lat="45.2940761" lon="13.8243767"><ele>309.75</ele><time>2026-04-12T11:30:15.973Z</time></trkpt><trkpt lat="45.294203" lon="13.8244108"><ele>308.0</ele><time>2026-04-12T11:30:16.97Z</time></trkpt><trkpt lat="45.2943283" lon="13.8244302"><ele>308.0</ele><time>2026-04-12T11:30:17.974Z</time></trkpt><trkpt lat="45.294453" lon="13.8244437"><ele>308.0</ele><time>2026-04-12T11:30:18.973Z</time></trkpt><trkpt lat="45.2945804" lon="13.8244245"><ele>308.0</ele><time>2026-04-12T11:30:19.975Z</time></trkpt><trkpt lat="45.2947113" lon="13.824379"><ele>308.0</ele><time>2026-04-12T11:30:20.974Z</time></trkpt><trkpt lat="45.2948298" lon="13.8242896"><ele>307.75</ele><time>2026-04-12T11:30:21.97Z</time></trkpt><trkpt lat="45.2949383" lon="13.8241793"><ele>307.5</ele><time>2026-04-12T11:30:22.971Z</time></trkpt><trkpt lat="45.2950429" lon="13.824055"><ele>307.25</ele><time>2026-04-12T11:30:23.971Z</time></trkpt><trkpt lat="45.2951463" lon="13.823927"><ele>307.0</ele><time>2026-04-12T11:30:24.965Z</time></trkpt><trkpt lat="45.2952532" lon="13.8238088"><ele>307.0</ele><time>2026-04-12T11:30:25.968Z</time></trkpt><trkpt lat="45.2953703" lon="13.823702"><ele>307.0</ele><time>2026-04-12T11:30:26.972Z</time></trkpt><trkpt lat="45.2955099" lon="13.8236154"><ele>307.0</ele><time>2026-04-12T11:30:27.971Z</time></trkpt><trkpt lat="45.2956571" lon="13.8235253"><ele>305.66666666666663</ele><time>2026-04-12T11:30:28.973Z</time></trkpt><trkpt lat="45.2958097" lon="13.8234344"><ele>304.3333333333333</ele><time>2026-04-12T11:30:29.972Z</time></trkpt><trkpt lat="45.295961" lon="13.8233417"><ele>303.0</ele><time>2026-04-12T11:30:30.969Z</time></trkpt><trkpt lat="45.2961132" lon="13.8232501"><ele>303.0</ele><time>2026-04-12T11:30:31.972Z</time></trkpt><trkpt lat="45.2962655" lon="13.8231556"><ele>303.0</ele><time>2026-04-12T11:30:32.969Z</time></trkpt><trkpt lat="45.2964187" lon="13.8230592"><ele>303.0</ele><time>2026-04-12T11:30:33.969Z</time></trkpt><trkpt lat="45.2965713" lon="13.8229642"><ele>301.6666666666667</ele><time>2026-04-12T11:30:34.971Z</time></trkpt><trkpt lat="45.2967181" lon="13.8228768"><ele>300.33333333333337</ele><time>2026-04-12T11:30:35.969Z</time></trkpt><trkpt lat="45.2968577" lon="13.8227943"><ele>299.0</ele><time>2026-04-12T11:30:36.974Z</time></trkpt><trkpt lat="45.2969928" lon="13.8227243"><ele>299.0</ele><time>2026-04-12T11:30:37.968Z</time></trkpt><trkpt lat="45.2971293" lon="13.8226709"><ele>299.0</ele><time>2026-04-12T11:30:38.982Z</time></trkpt><trkpt lat="45.2972779" lon="13.8226477"><ele>299.0</ele><time>2026-04-12T11:30:39.973Z</time></trkpt><trkpt lat="45.2974297" lon="13.8226552"><ele>299.0</ele><time>2026-04-12T11:30:40.971Z</time></trkpt><trkpt lat="45.2975851" lon="13.8226812"><ele>298.33333333333337</ele><time>2026-04-12T11:30:41.97Z</time></trkpt><trkpt lat="45.2977414" lon="13.8227149"><ele>297.6666666666667</ele><time>2026-04-12T11:30:42.973Z</time></trkpt><trkpt lat="45.2978982" lon="13.8227562"><ele>297.0</ele><time>2026-04-12T11:30:43.975Z</time></trkpt><trkpt lat="45.2980615" lon="13.8227878"><ele>293.3333333333333</ele><time>2026-04-12T11:30:44.973Z</time></trkpt><trkpt lat="45.2982196" lon="13.8228269"><ele>289.66666666666663</ele><time>2026-04-12T11:30:45.975Z</time></trkpt><trkpt lat="45.298372" lon="13.8228672"><ele>286.0</ele><time>2026-04-12T11:30:46.975Z</time></trkpt><trkpt lat="45.2985169" lon="13.822897"><ele>286.0</ele><time>2026-04-12T11:30:47.973Z</time></trkpt><trkpt lat="45.2986411" lon="13.8229218"><ele>286.0</ele><time>2026-04-12T11:30:48.971Z</time></trkpt><trkpt lat="45.2987593" lon="13.8229447"><ele>286.0</ele><time>2026-04-12T11:30:49.974Z</time></trkpt><trkpt lat="45.298861" lon="13.8229549"><ele>286.0</ele><time>2026-04-12T11:30:50.971Z</time></trkpt><trkpt lat="45.2989518" lon="13.8229386"><ele>286.0</ele><time>2026-04-12T11:30:51.975Z</time></trkpt><trkpt lat="45.2990345" lon="13.8228889"><ele>284.2</ele><time>2026-04-12T11:30:52.971Z</time></trkpt><trkpt lat="45.2991067" lon="13.8228183"><ele>282.40000000000003</ele><time>2026-04-12T11:30:53.968Z</time></trkpt><trkpt lat="45.2991851" lon="13.8227616"><ele>280.6</ele><time>2026-04-12T11:30:54.968Z</time></trkpt><trkpt lat="45.2992847" lon="13.8227255"><ele>278.8</ele><time>2026-04-12T11:30:55.973Z</time></trkpt><trkpt lat="45.2993938" lon="13.8227182"><ele>277.0</ele><time>2026-04-12T11:30:56.97Z</time></trkpt><trkpt lat="45.2995043" lon="13.8227147"><ele>277.0</ele><time>2026-04-12T11:30:57.97Z</time></trkpt><trkpt lat="45.2996169" lon="13.8227162"><ele>277.0</ele><time>2026-04-12T11:30:58.97Z</time></trkpt><trkpt lat="45.2997348" lon="13.8227204"><ele>277.0</ele><time>2026-04-12T11:30:59.972Z</time></trkpt><trkpt lat="45.2998553" lon="13.8227294"><ele>277.0</ele><time>2026-04-12T11:31:00.967Z</time></trkpt><trkpt lat="45.2999727" lon="13.8227385"><ele>275.5</ele><time>2026-04-12T11:31:01.971Z</time></trkpt><trkpt lat="45.3000912" lon="13.8227518"><ele>274.0</ele><time>2026-04-12T11:31:02.974Z</time></trkpt><trkpt lat="45.3002098" lon="13.8227877"><ele>272.5</ele><time>2026-04-12T11:31:03.973Z</time></trkpt><trkpt lat="45.3003202" lon="13.8228418"><ele>271.0</ele><time>2026-04-12T11:31:04.966Z</time></trkpt><trkpt lat="45.3004203" lon="13.8229271"><ele>271.0</ele><time>2026-04-12T11:31:05.974Z</time></trkpt><trkpt lat="45.3005002" lon="13.8230488"><ele>271.0</ele><time>2026-04-12T11:31:06.97Z</time></trkpt><trkpt lat="45.300569" lon="13.8231904"><ele>271.0</ele><time>2026-04-12T11:31:07.969Z</time></trkpt><trkpt lat="45.3006358" lon="13.8233303"><ele>271.0</ele><time>2026-04-12T11:31:08.974Z</time></trkpt><trkpt lat="45.3007079" lon="13.8234678"><ele>271.25</ele><time>2026-04-12T11:31:09.976Z</time></trkpt><trkpt lat="45.3007814" lon="13.8236012"><ele>271.5</ele><time>2026-04-12T11:31:10.966Z</time></trkpt><trkpt lat="45.3008528" lon="13.823745"><ele>271.75</ele><time>2026-04-12T11:31:11.969Z</time></trkpt><trkpt lat="45.300914" lon="13.8239014"><ele>272.0</ele><time>2026-04-12T11:31:12.968Z</time></trkpt><trkpt lat="45.3009697" lon="13.8240352"><ele>272.0</ele><time>2026-04-12T11:31:13.976Z</time></trkpt><trkpt lat="45.3010093" lon="13.8241297"><ele>272.0</ele><time>2026-04-12T11:31:14.978Z</time></trkpt><trkpt lat="45.3010477" lon="13.824201"><ele>272.0</ele><time>2026-04-12T11:31:15.968Z</time></trkpt><trkpt lat="45.3011091" lon="13.8242749"><ele>272.0</ele><time>2026-04-12T11:31:27.967Z</time></trkpt><trkpt lat="45.3011943" lon="13.8242991"><ele>272.0</ele><time>2026-04-12T11:31:47.973Z</time></trkpt><trkpt lat="45.3012265" lon="13.8242214"><ele>272.0</ele><time>2026-04-12T11:31:50.97Z</time></trkpt><trkpt lat="45.301139" lon="13.824168"><ele>272.0</ele><time>2026-04-12T11:31:52.972Z</time></trkpt><trkpt lat="45.3010815" lon="13.8241287"><ele>272.0</ele><time>2026-04-12T11:31:53.973Z</time></trkpt><trkpt lat="45.3010256" lon="13.8240625"><ele>272.0</ele><time>2026-04-12T11:31:54.969Z</time></trkpt><trkpt lat="45.3009737" lon="13.8239713"><ele>272.0</ele><time>2026-04-12T11:31:55.973Z</time></trkpt><trkpt lat="45.3009216" lon="13.8238232"><ele>272.0</ele><time>2026-04-12T11:31:56.967Z</time></trkpt><trkpt lat="45.3008878" lon="13.8237399"><ele>272.0</ele><time>2026-04-12T11:31:57.979Z</time></trkpt><trkpt lat="45.3008518" lon="13.8236632"><ele>272.0</ele><time>2026-04-12T11:31:59.969Z</time></trkpt><trkpt lat="45.3008866" lon="13.8237417"><ele>272.0</ele><time>2026-04-12T11:33:28.974Z</time></trkpt><trkpt lat="45.3009126" lon="13.8238707"><ele>272.0</ele><time>2026-04-12T11:33:31.972Z</time></trkpt><trkpt lat="45.3010531" lon="13.8241908"><ele>272.0</ele><time>2026-04-12T11:33:33.968Z</time></trkpt><trkpt lat="45.3011133" lon="13.8242546"><ele>271.99999999999994</ele><time>2026-04-12T11:33:34.968Z</time></trkpt><trkpt lat="45.301183" lon="13.8242944"><ele>272.0</ele><time>2026-04-12T11:33:35.969Z</time></trkpt><trkpt lat="45.3012611" lon="13.8243092"><ele>272.0</ele><time>2026-04-12T11:33:36.976Z</time></trkpt><trkpt lat="45.3013339" lon="13.8243179"><ele>272.0</ele><time>2026-04-12T11:33:37.97Z</time></trkpt><trkpt lat="45.3014035" lon="13.8243229"><ele>272.0</ele><time>2026-04-12T11:33:38.975Z</time></trkpt><trkpt lat="45.3014806" lon="13.8243249"><ele>271.99999999999994</ele><time>2026-04-12T11:33:39.97Z</time></trkpt><trkpt lat="45.3015518" lon="13.8243312"><ele>272.0</ele><time>2026-04-12T11:33:40.98Z</time></trkpt><trkpt lat="45.3016312" lon="13.8243468"><ele>271.33333333333337</ele><time>2026-04-12T11:33:42.971Z</time></trkpt><trkpt lat="45.3017064" lon="13.8243565"><ele>270.6666666666667</ele><time>2026-04-12T11:33:44.965Z</time></trkpt><trkpt lat="45.3017972" lon="13.824366"><ele>270.0</ele><time>2026-04-12T11:33:46.967Z</time></trkpt><trkpt lat="45.3018615" lon="13.8243695"><ele>269.3333333333333</ele><time>2026-04-12T11:33:47.973Z</time></trkpt><trkpt lat="45.3019392" lon="13.824374"><ele>268.66666666666663</ele><time>2026-04-12T11:33:48.974Z</time></trkpt><trkpt lat="45.3020225" lon="13.8243762"><ele>268.0</ele><time>2026-04-12T11:33:49.97Z</time></trkpt><trkpt lat="45.302106" lon="13.8243781"><ele>268.0</ele><time>2026-04-12T11:33:50.969Z</time></trkpt><trkpt lat="45.3021829" lon="13.8243627"><ele>268.0</ele><time>2026-04-12T11:33:51.971Z</time></trkpt><trkpt lat="45.3022728" lon="13.8243342"><ele>268.0</ele><time>2026-04-12T11:33:52.976Z</time></trkpt><trkpt lat="45.3023692" lon="13.8242884"><ele>268.0</ele><time>2026-04-12T11:33:53.978Z</time></trkpt><trkpt lat="45.30248" lon="13.8242307"><ele>268.0</ele><time>2026-04-12T11:33:54.969Z</time></trkpt><trkpt lat="45.302591" lon="13.82417"><ele>267.8</ele><time>2026-04-12T11:33:55.969Z</time></trkpt><trkpt lat="45.3027005" lon="13.8241095"><ele>267.6</ele><time>2026-04-12T11:33:56.977Z</time></trkpt><trkpt lat="45.3028044" lon="13.8240483"><ele>267.4</ele><time>2026-04-12T11:33:57.976Z</time></trkpt><trkpt lat="45.3029116" lon="13.8239863"><ele>267.2</ele><time>2026-04-12T11:33:58.974Z</time></trkpt><trkpt lat="45.3030058" lon="13.8239341"><ele>267.0</ele><time>2026-04-12T11:33:59.991Z</time></trkpt><trkpt lat="45.3031003" lon="13.8238788"><ele>265.8</ele><time>2026-04-12T11:34:00.969Z</time></trkpt><trkpt lat="45.3031888" lon="13.8238253"><ele>264.6</ele><time>2026-04-12T11:34:01.968Z</time></trkpt><trkpt lat="45.3032782" lon="13.8237677"><ele>263.40000000000003</ele><time>2026-04-12T11:34:02.971Z</time></trkpt><trkpt lat="45.3033662" lon="13.8237158"><ele>262.2</ele><time>2026-04-12T11:34:03.976Z</time></trkpt><trkpt lat="45.3034507" lon="13.8236717"><ele>261.0</ele><time>2026-04-12T11:34:04.972Z</time></trkpt><trkpt lat="45.3035325" lon="13.8236249"><ele>261.0</ele><time>2026-04-12T11:34:05.97Z</time></trkpt><trkpt lat="45.3036109" lon="13.8235784"><ele>261.0</ele><time>2026-04-12T11:34:06.973Z</time></trkpt><trkpt lat="45.30369" lon="13.8235304"><ele>261.0</ele><time>2026-04-12T11:34:07.969Z</time></trkpt><trkpt lat="45.3037671" lon="13.8234834"><ele>261.0</ele><time>2026-04-12T11:34:08.975Z</time></trkpt><trkpt lat="45.3038456" lon="13.8234413"><ele>261.0</ele><time>2026-04-12T11:34:09.974Z</time></trkpt><trkpt lat="45.3039196" lon="13.823401"><ele>261.0</ele><time>2026-04-12T11:34:10.976Z</time></trkpt><trkpt lat="45.3039892" lon="13.8233657"><ele>261.14285714285717</ele><time>2026-04-12T11:34:11.979Z</time></trkpt><trkpt lat="45.3040535" lon="13.8233257"><ele>261.2857142857143</ele><time>2026-04-12T11:34:12.978Z</time></trkpt><trkpt lat="45.3041164" lon="13.8232919"><ele>261.42857142857144</ele><time>2026-04-12T11:34:13.971Z</time></trkpt><trkpt lat="45.304182" lon="13.8232529"><ele>261.57142857142856</ele><time>2026-04-12T11:34:14.969Z</time></trkpt><trkpt lat="45.3042506" lon="13.8232129"><ele>261.7142857142857</ele><time>2026-04-12T11:34:15.968Z</time></trkpt><trkpt lat="45.3043155" lon="13.8231626"><ele>261.8571428571429</ele><time>2026-04-12T11:34:16.975Z</time></trkpt><trkpt lat="45.3043724" lon="13.8231026"><ele>262.0</ele><time>2026-04-12T11:34:17.977Z</time></trkpt><trkpt lat="45.3044417" lon="13.8230165"><ele>262.0</ele><time>2026-04-12T11:34:19.968Z</time></trkpt><trkpt lat="45.3044859" lon="13.8229248"><ele>262.0</ele><time>2026-04-12T11:34:21.972Z</time></trkpt><trkpt lat="45.3045107" lon="13.8228274"><ele>262.0</ele><time>2026-04-12T11:34:23.971Z</time></trkpt><trkpt lat="45.3045437" lon="13.8227292"><ele>262.0</ele><time>2026-04-12T11:34:25.969Z</time></trkpt><trkpt lat="45.3045841" lon="13.8225799"><ele>262.0</ele><time>2026-04-12T11:34:27.977Z</time></trkpt><trkpt lat="45.3046102" lon="13.8224868"><ele>262.0</ele><time>2026-04-12T11:34:28.975Z</time></trkpt><trkpt lat="45.3046376" lon="13.8223959"><ele>262.0</ele><time>2026-04-12T11:34:29.968Z</time></trkpt><trkpt lat="45.3046791" lon="13.822294"><ele>262.0</ele><time>2026-04-12T11:34:30.972Z</time></trkpt><trkpt lat="45.3047292" lon="13.8221899"><ele>262.0</ele><time>2026-04-12T11:34:31.97Z</time></trkpt><trkpt lat="45.3047853" lon="13.822103"><ele>262.0</ele><time>2026-04-12T11:34:32.967Z</time></trkpt><trkpt lat="45.3048522" lon="13.8220341"><ele>262.0</ele><time>2026-04-12T11:34:33.974Z</time></trkpt><trkpt lat="45.3049291" lon="13.8219866"><ele>262.0</ele><time>2026-04-12T11:34:34.971Z</time></trkpt><trkpt lat="45.3050095" lon="13.8219538"><ele>261.5</ele><time>2026-04-12T11:34:35.973Z</time></trkpt><trkpt lat="45.3050874" lon="13.8219185"><ele>261.0</ele><time>2026-04-12T11:34:36.969Z</time></trkpt><trkpt lat="45.3051673" lon="13.8218875"><ele>260.5</ele><time>2026-04-12T11:34:37.982Z</time></trkpt><trkpt lat="45.3052417" lon="13.8218611"><ele>260.0</ele><time>2026-04-12T11:34:38.969Z</time></trkpt><trkpt lat="45.3053468" lon="13.8218505"><ele>259.5</ele><time>2026-04-12T11:34:40.968Z</time></trkpt><trkpt lat="45.3054141" lon="13.8218585"><ele>259.0</ele><time>2026-04-12T11:34:43.969Z</time></trkpt><trkpt lat="45.3054558" lon="13.8217791"><ele>259.0</ele><time>2026-04-12T11:34:54.979Z</time></trkpt><trkpt lat="45.3053804" lon="13.821748"><ele>259.0</ele><time>2026-04-12T11:34:56.974Z</time></trkpt><trkpt lat="45.3052689" lon="13.8218227"><ele>259.0</ele><time>2026-04-12T11:34:58.974Z</time></trkpt><trkpt lat="45.3051987" lon="13.8218397"><ele>259.0</ele><time>2026-04-12T11:34:59.972Z</time></trkpt><trkpt lat="45.3051032" lon="13.8218856"><ele>259.0</ele><time>2026-04-12T11:35:00.97Z</time></trkpt><trkpt lat="45.3050118" lon="13.8219267"><ele>259.59999999999997</ele><time>2026-04-12T11:35:01.97Z</time></trkpt><trkpt lat="45.3049221" lon="13.82197"><ele>260.2</ele><time>2026-04-12T11:35:02.971Z</time></trkpt><trkpt lat="45.3048424" lon="13.8220248"><ele>260.79999999999995</ele><time>2026-04-12T11:35:03.971Z</time></trkpt><trkpt lat="45.3047695" lon="13.822109"><ele>261.4</ele><time>2026-04-12T11:35:04.973Z</time></trkpt><trkpt lat="45.3047161" lon="13.822214"><ele>262.0</ele><time>2026-04-12T11:35:05.982Z</time></trkpt><trkpt lat="45.3046702" lon="13.8223255"><ele>262.0</ele><time>2026-04-12T11:35:06.975Z</time></trkpt><trkpt lat="45.3046306" lon="13.8224334"><ele>262.0</ele><time>2026-04-12T11:35:07.974Z</time></trkpt><trkpt lat="45.3045618" lon="13.8226559"><ele>262.0</ele><time>2026-04-12T11:35:09.969Z</time></trkpt><trkpt lat="45.3045256" lon="13.8227563"><ele>262.0</ele><time>2026-04-12T11:35:10.978Z</time></trkpt><trkpt lat="45.304487" lon="13.8228501"><ele>262.0</ele><time>2026-04-12T11:35:12.968Z</time></trkpt><trkpt lat="45.3044115" lon="13.8229107"><ele>262.0</ele><time>2026-04-12T11:35:22.976Z</time></trkpt><trkpt lat="45.304316" lon="13.8228577"><ele>262.0</ele><time>2026-04-12T11:35:24.976Z</time></trkpt><trkpt lat="45.3042256" lon="13.8229259"><ele>262.0</ele><time>2026-04-12T11:35:26.976Z</time></trkpt><trkpt lat="45.3041908" lon="13.8230885"><ele>262.0</ele><time>2026-04-12T11:35:28.978Z</time></trkpt><trkpt lat="45.304161" lon="13.8231744"><ele>262.0</ele><time>2026-04-12T11:35:29.976Z</time></trkpt><trkpt lat="45.3041124" lon="13.823242"><ele>262.0</ele><time>2026-04-12T11:35:30.974Z</time></trkpt><trkpt lat="45.304024" lon="13.8233202"><ele>262.0</ele><time>2026-04-12T11:35:32.978Z</time></trkpt><trkpt lat="45.303955" lon="13.8233624"><ele>262.0</ele><time>2026-04-12T11:35:34.975Z</time></trkpt><trkpt lat="45.3038855" lon="13.8234064"><ele>262.0</ele><time>2026-04-12T11:35:36.975Z</time></trkpt><trkpt lat="45.3038085" lon="13.8234412"><ele>262.0</ele><time>2026-04-12T11:35:40.968Z</time></trkpt><trkpt lat="45.3037421" lon="13.8234639"><ele>262.0</ele><time>2026-04-12T11:35:43.97Z</time></trkpt><trkpt lat="45.3036707" lon="13.8234768"><ele>261.8333333333333</ele><time>2026-04-12T11:36:05.972Z</time></trkpt><trkpt lat="45.3036086" lon="13.8234957"><ele>261.66666666666663</ele><time>2026-04-12T11:36:07.973Z</time></trkpt><trkpt lat="45.3035501" lon="13.8235565"><ele>261.5</ele><time>2026-04-12T11:36:10.972Z</time></trkpt><trkpt lat="45.303645" lon="13.8235899"><ele>261.3333333333333</ele><time>2026-04-12T11:36:13.969Z</time></trkpt><trkpt lat="45.3037153" lon="13.8235549"><ele>261.1666666666667</ele><time>2026-04-12T11:36:14.973Z</time></trkpt><trkpt lat="45.3037941" lon="13.8235068"><ele>261.0</ele><time>2026-04-12T11:36:15.971Z</time></trkpt><trkpt lat="45.3038739" lon="13.8234554"><ele>261.2</ele><time>2026-04-12T11:36:16.972Z</time></trkpt><trkpt lat="45.3039672" lon="13.8233779"><ele>261.40000000000003</ele><time>2026-04-12T11:36:17.972Z</time></trkpt><trkpt lat="45.3040304" lon="13.8233498"><ele>261.6</ele><time>2026-04-12T11:36:18.967Z</time></trkpt><trkpt lat="45.3041411" lon="13.8232805"><ele>261.8</ele><time>2026-04-12T11:36:20.97Z</time></trkpt><trkpt lat="45.304252" lon="13.8232071"><ele>262.0</ele><time>2026-04-12T11:36:22.973Z</time></trkpt><trkpt lat="45.304331" lon="13.8231416"><ele>262.0</ele><time>2026-04-12T11:36:24.975Z</time></trkpt><trkpt lat="45.3043982" lon="13.8230831"><ele>262.0</ele><time>2026-04-12T11:36:26.971Z</time></trkpt><trkpt lat="45.3044462" lon="13.8229956"><ele>262.0</ele><time>2026-04-12T11:36:28.973Z</time></trkpt><trkpt lat="45.3045015" lon="13.8228524"><ele>262.0</ele><time>2026-04-12T11:36:30.98Z</time></trkpt><trkpt lat="45.3045337" lon="13.822754"><ele>262.0</ele><time>2026-04-12T11:36:31.975Z</time></trkpt><trkpt lat="45.3045683" lon="13.8226367"><ele>262.0</ele><time>2026-04-12T11:36:32.968Z</time></trkpt><trkpt lat="45.304607" lon="13.8225011"><ele>262.0</ele><time>2026-04-12T11:36:33.971Z</time></trkpt><trkpt lat="45.3046494" lon="13.8223802"><ele>262.0</ele><time>2026-04-12T11:36:34.966Z</time></trkpt><trkpt lat="45.3046935" lon="13.8222606"><ele>262.0</ele><time>2026-04-12T11:36:35.971Z</time></trkpt><trkpt lat="45.3047452" lon="13.8221608"><ele>262.0</ele><time>2026-04-12T11:36:36.971Z</time></trkpt><trkpt lat="45.3048081" lon="13.8220774"><ele>262.0</ele><time>2026-04-12T11:36:37.97Z</time></trkpt><trkpt lat="45.3048746" lon="13.8220146"><ele>262.0</ele><time>2026-04-12T11:36:38.976Z</time></trkpt><trkpt lat="45.3049534" lon="13.8219707"><ele>260.0</ele><time>2026-04-12T11:36:39.968Z</time></trkpt><trkpt lat="45.3050406" lon="13.8219298"><ele>258.0</ele><time>2026-04-12T11:36:40.97Z</time></trkpt><trkpt lat="45.3051366" lon="13.8218894"><ele>256.0</ele><time>2026-04-12T11:36:41.969Z</time></trkpt><trkpt lat="45.3052378" lon="13.8218569"><ele>254.0</ele><time>2026-04-12T11:36:42.969Z</time></trkpt><trkpt lat="45.3053474" lon="13.8218335"><ele>252.0</ele><time>2026-04-12T11:36:43.969Z</time></trkpt><trkpt lat="45.3054619" lon="13.8218363"><ele>250.0</ele><time>2026-04-12T11:36:44.97Z</time></trkpt><trkpt lat="45.3055824" lon="13.8218611"><ele>248.0</ele><time>2026-04-12T11:36:45.973Z</time></trkpt><trkpt lat="45.3057009" lon="13.8219158"><ele>246.0</ele><time>2026-04-12T11:36:46.973Z</time></trkpt><trkpt lat="45.3058044" lon="13.8220093"><ele>244.0</ele><time>2026-04-12T11:36:47.967Z</time></trkpt><trkpt lat="45.3059042" lon="13.8221157"><ele>244.0</ele><time>2026-04-12T11:36:48.968Z</time></trkpt><trkpt lat="45.3060034" lon="13.8222265"><ele>244.0</ele><time>2026-04-12T11:36:49.976Z</time></trkpt><trkpt lat="45.3060952" lon="13.8223382"><ele>244.0</ele><time>2026-04-12T11:36:50.975Z</time></trkpt><trkpt lat="45.3061837" lon="13.82245"><ele>244.0</ele><time>2026-04-12T11:36:51.974Z</time></trkpt><trkpt lat="45.3062698" lon="13.8225609"><ele>243.2</ele><time>2026-04-12T11:36:52.97Z</time></trkpt><trkpt lat="45.3063586" lon="13.8226651"><ele>242.39999999999998</ele><time>2026-04-12T11:36:53.97Z</time></trkpt><trkpt lat="45.306446" lon="13.8227659"><ele>241.6</ele><time>2026-04-12T11:36:54.972Z</time></trkpt><trkpt lat="45.3065312" lon="13.8228683"><ele>240.8</ele><time>2026-04-12T11:36:55.972Z</time></trkpt><trkpt lat="45.3066119" lon="13.8229746"><ele>240.0</ele><time>2026-04-12T11:36:56.972Z</time></trkpt><trkpt lat="45.3066865" lon="13.8230998"><ele>239.75</ele><time>2026-04-12T11:36:57.97Z</time></trkpt><trkpt lat="45.3067422" lon="13.8232441"><ele>239.5</ele><time>2026-04-12T11:36:58.971Z</time></trkpt><trkpt lat="45.3067861" lon="13.823414"><ele>239.25</ele><time>2026-04-12T11:36:59.972Z</time></trkpt><trkpt lat="45.3068243" lon="13.8235936"><ele>239.0</ele><time>2026-04-12T11:37:00.974Z</time></trkpt><trkpt lat="45.3068616" lon="13.8237776"><ele>237.5</ele><time>2026-04-12T11:37:01.972Z</time></trkpt><trkpt lat="45.3069006" lon="13.8239609"><ele>236.0</ele><time>2026-04-12T11:37:02.971Z</time></trkpt><trkpt lat="45.3069409" lon="13.8241434"><ele>234.5</ele><time>2026-04-12T11:37:03.97Z</time></trkpt><trkpt lat="45.3069841" lon="13.824319"><ele>233.0</ele><time>2026-04-12T11:37:04.967Z</time></trkpt><trkpt lat="45.3070404" lon="13.8244797"><ele>232.5</ele><time>2026-04-12T11:37:05.965Z</time></trkpt><trkpt lat="45.3071183" lon="13.8246048"><ele>232.0</ele><time>2026-04-12T11:37:06.974Z</time></trkpt><trkpt lat="45.3072195" lon="13.8246847"><ele>231.5</ele><time>2026-04-12T11:37:07.968Z</time></trkpt><trkpt lat="45.3073349" lon="13.8247098"><ele>231.0</ele><time>2026-04-12T11:37:08.967Z</time></trkpt><trkpt lat="45.3074666" lon="13.824692"><ele>230.33333333333331</ele><time>2026-04-12T11:37:09.971Z</time></trkpt><trkpt lat="45.3076135" lon="13.8246657"><ele>229.66666666666666</ele><time>2026-04-12T11:37:10.977Z</time></trkpt><trkpt lat="45.307763" lon="13.8246506"><ele>229.0</ele><time>2026-04-12T11:37:11.972Z</time></trkpt><trkpt lat="45.3079416" lon="13.8246201"><ele>227.0</ele><time>2026-04-12T11:37:12.975Z</time></trkpt><trkpt lat="45.3081149" lon="13.8245882"><ele>225.0</ele><time>2026-04-12T11:37:13.969Z</time></trkpt><trkpt lat="45.308297" lon="13.8245564"><ele>223.0</ele><time>2026-04-12T11:37:14.975Z</time></trkpt><trkpt lat="45.308485" lon="13.824522"><ele>223.0</ele><time>2026-04-12T11:37:15.971Z</time></trkpt><trkpt lat="45.3086691" lon="13.8244855"><ele>223.0</ele><time>2026-04-12T11:37:16.968Z</time></trkpt><trkpt lat="45.3088418" lon="13.8244551"><ele>223.0</ele><time>2026-04-12T11:37:17.973Z</time></trkpt><trkpt lat="45.3090104" lon="13.8244219"><ele>221.66666666666666</ele><time>2026-04-12T11:37:18.967Z</time></trkpt><trkpt lat="45.3091725" lon="13.8243925"><ele>220.33333333333331</ele><time>2026-04-12T11:37:19.977Z</time></trkpt><trkpt lat="45.309331" lon="13.8243655"><ele>219.0</ele><time>2026-04-12T11:37:20.97Z</time></trkpt><trkpt lat="45.3094904" lon="13.8243396"><ele>217.66666666666669</ele><time>2026-04-12T11:37:21.976Z</time></trkpt><trkpt lat="45.3096502" lon="13.8243119"><ele>216.33333333333334</ele><time>2026-04-12T11:37:22.97Z</time></trkpt><trkpt lat="45.3098153" lon="13.8242857"><ele>215.0</ele><time>2026-04-12T11:37:23.971Z</time></trkpt><trkpt lat="45.3099813" lon="13.8242596"><ele>214.33333333333334</ele><time>2026-04-12T11:37:24.973Z</time></trkpt><trkpt lat="45.3101503" lon="13.8242296"><ele>213.66666666666669</ele><time>2026-04-12T11:37:25.975Z</time></trkpt><trkpt lat="45.3103279" lon="13.8241979"><ele>213.0</ele><time>2026-04-12T11:37:26.97Z</time></trkpt><trkpt lat="45.3105048" lon="13.8241658"><ele>212.66666666666669</ele><time>2026-04-12T11:37:27.967Z</time></trkpt><trkpt lat="45.3106785" lon="13.8241412"><ele>212.33333333333334</ele><time>2026-04-12T11:37:28.969Z</time></trkpt><trkpt lat="45.3108529" lon="13.8241054"><ele>212.0</ele><time>2026-04-12T11:37:29.972Z</time></trkpt><trkpt lat="45.3110235" lon="13.8240704"><ele>212.0</ele><time>2026-04-12T11:37:30.977Z</time></trkpt><trkpt lat="45.3111969" lon="13.8240339"><ele>212.0</ele><time>2026-04-12T11:37:31.978Z</time></trkpt><trkpt lat="45.3113712" lon="13.8240025"><ele>212.0</ele><time>2026-04-12T11:37:32.966Z</time></trkpt><trkpt lat="45.3115496" lon="13.8239747"><ele>211.33333333333334</ele><time>2026-04-12T11:37:33.968Z</time></trkpt><trkpt lat="45.3117287" lon="13.8239434"><ele>210.66666666666669</ele><time>2026-04-12T11:37:34.974Z</time></trkpt><trkpt lat="45.3119045" lon="13.8239128"><ele>210.0</ele><time>2026-04-12T11:37:35.966Z</time></trkpt><trkpt lat="45.3120789" lon="13.8238847"><ele>213.0</ele><time>2026-04-12T11:37:36.97Z</time></trkpt><trkpt lat="45.3122485" lon="13.823857"><ele>216.0</ele><time>2026-04-12T11:37:37.968Z</time></trkpt><trkpt lat="45.3124153" lon="13.8238338"><ele>219.0</ele><time>2026-04-12T11:37:38.967Z</time></trkpt><trkpt lat="45.3125762" lon="13.8238093"><ele>219.0</ele><time>2026-04-12T11:37:39.968Z</time></trkpt><trkpt lat="45.3127306" lon="13.8237765"><ele>219.0</ele><time>2026-04-12T11:37:40.97Z</time></trkpt><trkpt lat="45.3128742" lon="13.8237314"><ele>219.0</ele><time>2026-04-12T11:37:41.969Z</time></trkpt><trkpt lat="45.3130109" lon="13.8236741"><ele>219.0</ele><time>2026-04-12T11:37:42.971Z</time></trkpt><trkpt lat="45.3131424" lon="13.8236076"><ele>221.2</ele><time>2026-04-12T11:37:43.969Z</time></trkpt><trkpt lat="45.3132601" lon="13.82355"><ele>223.39999999999998</ele><time>2026-04-12T11:37:44.97Z</time></trkpt><trkpt lat="45.3133723" lon="13.8235119"><ele>225.6</ele><time>2026-04-12T11:37:45.967Z</time></trkpt><trkpt lat="45.3134717" lon="13.8235283"><ele>227.8</ele><time>2026-04-12T11:37:46.969Z</time></trkpt><trkpt lat="45.3135443" lon="13.823597"><ele>230.0</ele><time>2026-04-12T11:37:47.972Z</time></trkpt><trkpt lat="45.3135777" lon="13.8237074"><ele>230.0</ele><time>2026-04-12T11:37:48.968Z</time></trkpt><trkpt lat="45.3135659" lon="13.8238372"><ele>230.0</ele><time>2026-04-12T11:37:49.969Z</time></trkpt><trkpt lat="45.3135172" lon="13.8239728"><ele>230.0</ele><time>2026-04-12T11:37:50.968Z</time></trkpt><trkpt lat="45.3134378" lon="13.8241013"><ele>230.0</ele><time>2026-04-12T11:37:51.975Z</time></trkpt><trkpt lat="45.3133479" lon="13.8242281"><ele>230.0</ele><time>2026-04-12T11:37:52.969Z</time></trkpt><trkpt lat="45.313252" lon="13.8243553"><ele>232.25</ele><time>2026-04-12T11:37:53.973Z</time></trkpt><trkpt lat="45.3131763" lon="13.8244984"><ele>234.5</ele><time>2026-04-12T11:37:54.973Z</time></trkpt><trkpt lat="45.313149" lon="13.8246751"><ele>236.75</ele><time>2026-04-12T11:37:55.973Z</time></trkpt><trkpt lat="45.3131501" lon="13.8248559"><ele>239.0</ele><time>2026-04-12T11:37:56.97Z</time></trkpt><trkpt lat="45.3131942" lon="13.8250247"><ele>237.0</ele><time>2026-04-12T11:37:57.968Z</time></trkpt><trkpt lat="45.3132671" lon="13.825173"><ele>235.0</ele><time>2026-04-12T11:37:58.97Z</time></trkpt><trkpt lat="45.3133734" lon="13.825285"><ele>233.0</ele><time>2026-04-12T11:37:59.97Z</time></trkpt><trkpt lat="45.3135011" lon="13.82534"><ele>231.0</ele><time>2026-04-12T11:38:00.973Z</time></trkpt><trkpt lat="45.3136462" lon="13.8253404"><ele>231.0</ele><time>2026-04-12T11:38:01.968Z</time></trkpt><trkpt lat="45.3137965" lon="13.8253124"><ele>231.0</ele><time>2026-04-12T11:38:02.971Z</time></trkpt><trkpt lat="45.3139431" lon="13.8252669"><ele>231.0</ele><time>2026-04-12T11:38:03.975Z</time></trkpt><trkpt lat="45.3140891" lon="13.8252167"><ele>234.33333333333331</ele><time>2026-04-12T11:38:04.97Z</time></trkpt><trkpt lat="45.3142334" lon="13.8251533"><ele>237.66666666666666</ele><time>2026-04-12T11:38:05.975Z</time></trkpt><trkpt lat="45.3143833" lon="13.8250756"><ele>241.0</ele><time>2026-04-12T11:38:06.974Z</time></trkpt><trkpt lat="45.3145391" lon="13.8249984"><ele>244.0</ele><time>2026-04-12T11:38:07.971Z</time></trkpt><trkpt lat="45.3147075" lon="13.8249198"><ele>247.0</ele><time>2026-04-12T11:38:08.969Z</time></trkpt><trkpt lat="45.3148749" lon="13.8248369"><ele>250.0</ele><time>2026-04-12T11:38:09.97Z</time></trkpt><trkpt lat="45.3150493" lon="13.8247462"><ele>250.0</ele><time>2026-04-12T11:38:10.969Z</time></trkpt><trkpt lat="45.3152225" lon="13.8246539"><ele>250.0</ele><time>2026-04-12T11:38:11.97Z</time></trkpt><trkpt lat="45.3153919" lon="13.8245641"><ele>250.0</ele><time>2026-04-12T11:38:12.975Z</time></trkpt><trkpt lat="45.315557" lon="13.8244817"><ele>251.0</ele><time>2026-04-12T11:38:13.969Z</time></trkpt><trkpt lat="45.315722" lon="13.8243969"><ele>252.0</ele><time>2026-04-12T11:38:14.977Z</time></trkpt><trkpt lat="45.3158915" lon="13.8243268"><ele>253.0</ele><time>2026-04-12T11:38:15.975Z</time></trkpt><trkpt lat="45.3160643" lon="13.8242897"><ele>255.66666666666666</ele><time>2026-04-12T11:38:16.974Z</time></trkpt><trkpt lat="45.3162383" lon="13.8242841"><ele>258.3333333333333</ele><time>2026-04-12T11:38:17.967Z</time></trkpt><trkpt lat="45.3164052" lon="13.8243224"><ele>261.0</ele><time>2026-04-12T11:38:18.975Z</time></trkpt><trkpt lat="45.3165583" lon="13.8244108"><ele>262.0</ele><time>2026-04-12T11:38:19.969Z</time></trkpt><trkpt lat="45.3167006" lon="13.8245341"><ele>263.0</ele><time>2026-04-12T11:38:20.978Z</time></trkpt><trkpt lat="45.3168308" lon="13.8246898"><ele>264.0</ele><time>2026-04-12T11:38:21.972Z</time></trkpt><trkpt lat="45.316938" lon="13.8248595"><ele>264.0</ele><time>2026-04-12T11:38:22.972Z</time></trkpt><trkpt lat="45.3170064" lon="13.8250473"><ele>264.0</ele><time>2026-04-12T11:38:23.973Z</time></trkpt><trkpt lat="45.317034" lon="13.8252571"><ele>264.0</ele><time>2026-04-12T11:38:24.972Z</time></trkpt><trkpt lat="45.317033" lon="13.8254684"><ele>264.0</ele><time>2026-04-12T11:38:25.971Z</time></trkpt><trkpt lat="45.3170233" lon="13.825685"><ele>264.0</ele><time>2026-04-12T11:38:26.973Z</time></trkpt><trkpt lat="45.3170116" lon="13.8259092"><ele>264.0</ele><time>2026-04-12T11:38:27.971Z</time></trkpt><trkpt lat="45.3170073" lon="13.826134"><ele>264.0</ele><time>2026-04-12T11:38:28.97Z</time></trkpt><trkpt lat="45.3170104" lon="13.8263325"><ele>265.0</ele><time>2026-04-12T11:38:29.973Z</time></trkpt><trkpt lat="45.3170238" lon="13.8265154"><ele>266.0</ele><time>2026-04-12T11:38:30.973Z</time></trkpt><trkpt lat="45.3170502" lon="13.8266853"><ele>267.0</ele><time>2026-04-12T11:38:31.98Z</time></trkpt><trkpt lat="45.3170893" lon="13.8268347"><ele>268.0</ele><time>2026-04-12T11:38:32.973Z</time></trkpt><trkpt lat="45.3171403" lon="13.8269625"><ele>268.2</ele><time>2026-04-12T11:38:33.973Z</time></trkpt><trkpt lat="45.3172129" lon="13.8270562"><ele>268.4</ele><time>2026-04-12T11:38:34.976Z</time></trkpt><trkpt lat="45.3173042" lon="13.8271062"><ele>268.59999999999997</ele><time>2026-04-12T11:38:35.971Z</time></trkpt><trkpt lat="45.3174091" lon="13.8271279"><ele>268.8</ele><time>2026-04-12T11:38:36.967Z</time></trkpt><trkpt lat="45.3175261" lon="13.8271353"><ele>269.0</ele><time>2026-04-12T11:38:37.971Z</time></trkpt><trkpt lat="45.3176573" lon="13.8271221"><ele>269.5</ele><time>2026-04-12T11:38:38.97Z</time></trkpt><trkpt lat="45.3177913" lon="13.8271132"><ele>270.0</ele><time>2026-04-12T11:38:39.975Z</time></trkpt><trkpt lat="45.3179436" lon="13.8270936"><ele>270.5</ele><time>2026-04-12T11:38:40.975Z</time></trkpt><trkpt lat="45.3181022" lon="13.8270854"><ele>271.0</ele><time>2026-04-12T11:38:41.988Z</time></trkpt><trkpt lat="45.3182654" lon="13.8270655"><ele>267.0</ele><time>2026-04-12T11:38:42.969Z</time></trkpt><trkpt lat="45.3184419" lon="13.8270352"><ele>263.0</ele><time>2026-04-12T11:38:43.969Z</time></trkpt><trkpt lat="45.3186219" lon="13.8269841"><ele>259.0</ele><time>2026-04-12T11:38:44.977Z</time></trkpt><trkpt lat="45.3187925" lon="13.8269143"><ele>260.66666666666663</ele><time>2026-04-12T11:38:45.969Z</time></trkpt><trkpt lat="45.3189553" lon="13.8268216"><ele>262.3333333333333</ele><time>2026-04-12T11:38:46.967Z</time></trkpt><trkpt lat="45.3191089" lon="13.8266987"><ele>264.0</ele><time>2026-04-12T11:38:47.966Z</time></trkpt><trkpt lat="45.3192537" lon="13.8265489"><ele>264.0</ele><time>2026-04-12T11:38:48.969Z</time></trkpt><trkpt lat="45.3193801" lon="13.8263721"><ele>264.0</ele><time>2026-04-12T11:38:49.969Z</time></trkpt><trkpt lat="45.3194902" lon="13.8261713"><ele>264.0</ele><time>2026-04-12T11:38:50.977Z</time></trkpt><trkpt lat="45.3195768" lon="13.8259455"><ele>268.0</ele><time>2026-04-12T11:38:51.966Z</time></trkpt><trkpt lat="45.3196492" lon="13.8257211"><ele>272.0</ele><time>2026-04-12T11:38:52.97Z</time></trkpt><trkpt lat="45.3197174" lon="13.8255008"><ele>276.0</ele><time>2026-04-12T11:38:53.967Z</time></trkpt><trkpt lat="45.3197894" lon="13.8253"><ele>271.0</ele><time>2026-04-12T11:38:54.973Z</time></trkpt><trkpt lat="45.3198836" lon="13.8251219"><ele>266.0</ele><time>2026-04-12T11:38:55.969Z</time></trkpt><trkpt lat="45.3199934" lon="13.8249832"><ele>261.0</ele><time>2026-04-12T11:38:56.97Z</time></trkpt><trkpt lat="45.3201223" lon="13.8248819"><ele>261.0</ele><time>2026-04-12T11:38:57.971Z</time></trkpt><trkpt lat="45.3202661" lon="13.8248407"><ele>261.0</ele><time>2026-04-12T11:38:58.969Z</time></trkpt><trkpt lat="45.3204196" lon="13.8248428"><ele>261.0</ele><time>2026-04-12T11:38:59.966Z</time></trkpt><trkpt lat="45.3205715" lon="13.8248945"><ele>259.3333333333333</ele><time>2026-04-12T11:39:00.968Z</time></trkpt><trkpt lat="45.3207286" lon="13.8249655"><ele>257.66666666666663</ele><time>2026-04-12T11:39:01.97Z</time></trkpt><trkpt lat="45.3208563" lon="13.8251319"><ele>256.0</ele><time>2026-04-12T11:39:02.969Z</time></trkpt><trkpt lat="45.3209894" lon="13.8252746"><ele>249.0</ele><time>2026-04-12T11:39:03.976Z</time></trkpt><trkpt lat="45.3211311" lon="13.8253982"><ele>242.0</ele><time>2026-04-12T11:39:04.969Z</time></trkpt><trkpt lat="45.3212854" lon="13.8254934"><ele>235.0</ele><time>2026-04-12T11:39:05.972Z</time></trkpt><trkpt lat="45.3214525" lon="13.8255639"><ele>235.0</ele><time>2026-04-12T11:39:06.968Z</time></trkpt><trkpt lat="45.321627" lon="13.82561"><ele>235.0</ele><time>2026-04-12T11:39:07.972Z</time></trkpt><trkpt lat="45.3218036" lon="13.8256466"><ele>235.0</ele><time>2026-04-12T11:39:08.97Z</time></trkpt><trkpt lat="45.3219839" lon="13.8256769"><ele>235.0</ele><time>2026-04-12T11:39:09.967Z</time></trkpt><trkpt lat="45.3221541" lon="13.825711"><ele>235.0</ele><time>2026-04-12T11:39:10.969Z</time></trkpt><trkpt lat="45.3223206" lon="13.8257454"><ele>235.0</ele><time>2026-04-12T11:39:11.967Z</time></trkpt><trkpt lat="45.3224844" lon="13.825807"><ele>234.33333333333331</ele><time>2026-04-12T11:39:12.975Z</time></trkpt><trkpt lat="45.3226362" lon="13.8258903"><ele>233.66666666666669</ele><time>2026-04-12T11:39:13.971Z</time></trkpt><trkpt lat="45.3227784" lon="13.8260005"><ele>233.0</ele><time>2026-04-12T11:39:14.97Z</time></trkpt><trkpt lat="45.3229029" lon="13.8261475"><ele>231.0</ele><time>2026-04-12T11:39:15.973Z</time></trkpt><trkpt lat="45.3229976" lon="13.8263091"><ele>229.0</ele><time>2026-04-12T11:39:16.971Z</time></trkpt><trkpt lat="45.323072" lon="13.8264803"><ele>227.0</ele><time>2026-04-12T11:39:17.972Z</time></trkpt><trkpt lat="45.3231396" lon="13.8266327"><ele>225.0</ele><time>2026-04-12T11:39:18.971Z</time></trkpt><trkpt lat="45.3231964" lon="13.8267673"><ele>223.0</ele><time>2026-04-12T11:39:19.974Z</time></trkpt><trkpt lat="45.3232441" lon="13.8268709"><ele>221.0</ele><time>2026-04-12T11:39:20.976Z</time></trkpt><trkpt lat="45.3232925" lon="13.8269473"><ele>219.0</ele><time>2026-04-12T11:39:21.97Z</time></trkpt><trkpt lat="45.3233811" lon="13.8270337"><ele>217.0</ele><time>2026-04-12T11:39:23.966Z</time></trkpt><trkpt lat="45.3234492" lon="13.8270713"><ele>215.0</ele><time>2026-04-12T11:39:25.976Z</time></trkpt><trkpt lat="45.3235066" lon="13.827131"><ele>213.0</ele><time>2026-04-12T11:39:29.968Z</time></trkpt><trkpt lat="45.3234829" lon="13.8272389"><ele>213.0</ele><time>2026-04-12T11:39:44.973Z</time></trkpt><trkpt lat="45.3236139" lon="13.8271049"><ele>213.0</ele><time>2026-04-12T11:40:37.964Z</time></trkpt><trkpt lat="45.3236665" lon="13.8270532"><ele>213.0</ele><time>2026-04-12T11:40:38.969Z</time></trkpt><trkpt lat="45.3237374" lon="13.826989"><ele>213.0</ele><time>2026-04-12T11:40:39.973Z</time></trkpt><trkpt lat="45.323821" lon="13.8269242"><ele>213.0</ele><time>2026-04-12T11:40:40.966Z</time></trkpt><trkpt lat="45.3239065" lon="13.8268577"><ele>212.8</ele><time>2026-04-12T11:40:41.966Z</time></trkpt><trkpt lat="45.3239931" lon="13.826781"><ele>212.60000000000002</ele><time>2026-04-12T11:40:42.967Z</time></trkpt><trkpt lat="45.3240832" lon="13.8266902"><ele>212.39999999999998</ele><time>2026-04-12T11:40:43.974Z</time></trkpt><trkpt lat="45.3241773" lon="13.8265984"><ele>212.2</ele><time>2026-04-12T11:40:44.971Z</time></trkpt><trkpt lat="45.3242779" lon="13.8265027"><ele>212.0</ele><time>2026-04-12T11:40:45.969Z</time></trkpt><trkpt lat="45.3243787" lon="13.8264001"><ele>212.0</ele><time>2026-04-12T11:40:46.968Z</time></trkpt><trkpt lat="45.3244809" lon="13.8262964"><ele>212.0</ele><time>2026-04-12T11:40:47.972Z</time></trkpt><trkpt lat="45.3246017" lon="13.8261734"><ele>212.0</ele><time>2026-04-12T11:40:48.969Z</time></trkpt><trkpt lat="45.3247338" lon="13.8260362"><ele>212.0</ele><time>2026-04-12T11:40:49.967Z</time></trkpt><trkpt lat="45.3248587" lon="13.8259131"><ele>210.0</ele><time>2026-04-12T11:40:50.973Z</time></trkpt><trkpt lat="45.3249715" lon="13.8258002"><ele>208.0</ele><time>2026-04-12T11:40:51.972Z</time></trkpt><trkpt lat="45.3250801" lon="13.825688"><ele>206.0</ele><time>2026-04-12T11:40:52.967Z</time></trkpt><trkpt lat="45.3251869" lon="13.8255778"><ele>204.0</ele><time>2026-04-12T11:40:53.973Z</time></trkpt><trkpt lat="45.3252891" lon="13.8254735"><ele>204.0</ele><time>2026-04-12T11:40:54.968Z</time></trkpt><trkpt lat="45.3253889" lon="13.8253741"><ele>204.0</ele><time>2026-04-12T11:40:55.967Z</time></trkpt><trkpt lat="45.3254774" lon="13.825282"><ele>204.0</ele><time>2026-04-12T11:40:56.975Z</time></trkpt><trkpt lat="45.3255596" lon="13.8251965"><ele>204.0</ele><time>2026-04-12T11:40:57.965Z</time></trkpt><trkpt lat="45.3256419" lon="13.8251162"><ele>204.0</ele><time>2026-04-12T11:40:58.967Z</time></trkpt><trkpt lat="45.3257207" lon="13.8250407"><ele>202.0</ele><time>2026-04-12T11:40:59.973Z</time></trkpt><trkpt lat="45.3258015" lon="13.8249668"><ele>200.0</ele><time>2026-04-12T11:41:00.972Z</time></trkpt><trkpt lat="45.3258895" lon="13.8248831"><ele>198.0</ele><time>2026-04-12T11:41:01.968Z</time></trkpt><trkpt lat="45.3259857" lon="13.8247921"><ele>196.0</ele><time>2026-04-12T11:41:02.973Z</time></trkpt><trkpt lat="45.3260958" lon="13.8247095"><ele>194.0</ele><time>2026-04-12T11:41:03.971Z</time></trkpt><trkpt lat="45.3262146" lon="13.8246308"><ele>194.0</ele><time>2026-04-12T11:41:04.97Z</time></trkpt><trkpt lat="45.3263313" lon="13.824564"><ele>194.0</ele><time>2026-04-12T11:41:05.972Z</time></trkpt><trkpt lat="45.3264463" lon="13.8245068"><ele>194.0</ele><time>2026-04-12T11:41:06.968Z</time></trkpt><trkpt lat="45.3265563" lon="13.8244635"><ele>194.0</ele><time>2026-04-12T11:41:07.969Z</time></trkpt><trkpt lat="45.3266625" lon="13.8244344"><ele>192.66666666666669</ele><time>2026-04-12T11:41:08.967Z</time></trkpt><trkpt lat="45.3267671" lon="13.824404"><ele>191.33333333333334</ele><time>2026-04-12T11:41:09.966Z</time></trkpt><trkpt lat="45.3268615" lon="13.8243729"><ele>190.0</ele><time>2026-04-12T11:41:10.97Z</time></trkpt><trkpt lat="45.3269437" lon="13.8243411"><ele>188.66666666666669</ele><time>2026-04-12T11:41:11.974Z</time></trkpt><trkpt lat="45.3270112" lon="13.8243237"><ele>187.33333333333334</ele><time>2026-04-12T11:41:12.969Z</time></trkpt><trkpt lat="45.3270966" lon="13.8243242"><ele>186.0</ele><time>2026-04-12T11:41:14.973Z</time></trkpt><trkpt lat="45.3271596" lon="13.8243308"><ele>185.8</ele><time>2026-04-12T11:41:16.972Z</time></trkpt><trkpt lat="45.327223" lon="13.8242375"><ele>185.60000000000002</ele><time>2026-04-12T11:41:35.985Z</time></trkpt><trkpt lat="45.3273549" lon="13.8241942"><ele>185.4</ele><time>2026-04-12T11:41:37.975Z</time></trkpt><trkpt lat="45.3274494" lon="13.8241691"><ele>185.2</ele><time>2026-04-12T11:41:38.975Z</time></trkpt><trkpt lat="45.3275661" lon="13.8241409"><ele>185.0</ele><time>2026-04-12T11:41:39.967Z</time></trkpt><trkpt lat="45.327693" lon="13.824122"><ele>183.5</ele><time>2026-04-12T11:41:40.974Z</time></trkpt><trkpt lat="45.3278325" lon="13.8241201"><ele>182.0</ele><time>2026-04-12T11:41:41.975Z</time></trkpt><trkpt lat="45.3279694" lon="13.8241413"><ele>180.5</ele><time>2026-04-12T11:41:42.974Z</time></trkpt><trkpt lat="45.3280969" lon="13.824187"><ele>179.0</ele><time>2026-04-12T11:41:43.966Z</time></trkpt><trkpt lat="45.3282246" lon="13.8242606"><ele>176.5</ele><time>2026-04-12T11:41:44.965Z</time></trkpt><trkpt lat="45.3283553" lon="13.8243454"><ele>174.0</ele><time>2026-04-12T11:41:45.97Z</time></trkpt><trkpt lat="45.32849" lon="13.8244421"><ele>171.5</ele><time>2026-04-12T11:41:46.966Z</time></trkpt><trkpt lat="45.328615" lon="13.8245476"><ele>169.0</ele><time>2026-04-12T11:41:47.968Z</time></trkpt><trkpt lat="45.3287472" lon="13.8246506"><ele>169.0</ele><time>2026-04-12T11:41:48.965Z</time></trkpt><trkpt lat="45.3288702" lon="13.8247532"><ele>169.0</ele><time>2026-04-12T11:41:49.966Z</time></trkpt><trkpt lat="45.3289963" lon="13.8248453"><ele>169.0</ele><time>2026-04-12T11:41:50.967Z</time></trkpt><trkpt lat="45.3291271" lon="13.824913"><ele>169.0</ele><time>2026-04-12T11:41:51.969Z</time></trkpt><trkpt lat="45.3292608" lon="13.8249509"><ele>167.5</ele><time>2026-04-12T11:41:52.97Z</time></trkpt><trkpt lat="45.329393" lon="13.8249492"><ele>166.0</ele><time>2026-04-12T11:41:53.98Z</time></trkpt><trkpt lat="45.3295169" lon="13.8249125"><ele>164.5</ele><time>2026-04-12T11:41:54.966Z</time></trkpt><trkpt lat="45.3296272" lon="13.8248544"><ele>163.0</ele><time>2026-04-12T11:41:55.971Z</time></trkpt><trkpt lat="45.3297352" lon="13.8247868"><ele>160.25</ele><time>2026-04-12T11:41:56.974Z</time></trkpt><trkpt lat="45.3298408" lon="13.8247198"><ele>157.5</ele><time>2026-04-12T11:41:57.974Z</time></trkpt><trkpt lat="45.3299455" lon="13.8246522"><ele>154.75</ele><time>2026-04-12T11:41:58.966Z</time></trkpt><trkpt lat="45.3300467" lon="13.8245837"><ele>152.0</ele><time>2026-04-12T11:41:59.972Z</time></trkpt><trkpt lat="45.3301494" lon="13.8245145"><ele>152.0</ele><time>2026-04-12T11:42:00.976Z</time></trkpt><trkpt lat="45.3302518" lon="13.8244483"><ele>152.0</ele><time>2026-04-12T11:42:01.973Z</time></trkpt><trkpt lat="45.3303428" lon="13.824385"><ele>152.0</ele><time>2026-04-12T11:42:02.975Z</time></trkpt><trkpt lat="45.3304313" lon="13.8243654"><ele>152.0</ele><time>2026-04-12T11:42:03.978Z</time></trkpt><trkpt lat="45.330529" lon="13.8242871"><ele>152.0</ele><time>2026-04-12T11:42:04.974Z</time></trkpt><trkpt lat="45.3306249" lon="13.8242337"><ele>151.6</ele><time>2026-04-12T11:42:05.975Z</time></trkpt><trkpt lat="45.3307224" lon="13.8242147"><ele>151.2</ele><time>2026-04-12T11:42:06.97Z</time></trkpt><trkpt lat="45.3308221" lon="13.8242294"><ele>150.8</ele><time>2026-04-12T11:42:07.975Z</time></trkpt><trkpt lat="45.3309181" lon="13.8242612"><ele>150.4</ele><time>2026-04-12T11:42:08.973Z</time></trkpt><trkpt lat="45.3310068" lon="13.8243163"><ele>150.0</ele><time>2026-04-12T11:42:09.972Z</time></trkpt><trkpt lat="45.3311008" lon="13.8243757"><ele>148.8</ele><time>2026-04-12T11:42:10.972Z</time></trkpt><trkpt lat="45.331192" lon="13.8244392"><ele>147.6</ele><time>2026-04-12T11:42:11.972Z</time></trkpt><trkpt lat="45.3312758" lon="13.8245051"><ele>146.4</ele><time>2026-04-12T11:42:12.972Z</time></trkpt><trkpt lat="45.3313648" lon="13.8245603"><ele>145.2</ele><time>2026-04-12T11:42:13.967Z</time></trkpt><trkpt lat="45.3314537" lon="13.8246189"><ele>144.0</ele><time>2026-04-12T11:42:14.971Z</time></trkpt><trkpt lat="45.3315461" lon="13.8246751"><ele>144.0</ele><time>2026-04-12T11:42:15.969Z</time></trkpt><trkpt lat="45.3316394" lon="13.8247399"><ele>144.0</ele><time>2026-04-12T11:42:16.972Z</time></trkpt><trkpt lat="45.3317376" lon="13.8247982"><ele>144.0</ele><time>2026-04-12T11:42:17.967Z</time></trkpt><trkpt lat="45.3318333" lon="13.8248632"><ele>144.0</ele><time>2026-04-12T11:42:18.966Z</time></trkpt><trkpt lat="45.3319264" lon="13.8249239"><ele>144.0</ele><time>2026-04-12T11:42:19.966Z</time></trkpt><trkpt lat="45.3320019" lon="13.8249765"><ele>144.0</ele><time>2026-04-12T11:42:20.967Z</time></trkpt><trkpt lat="45.3321061" lon="13.8250075"><ele>144.0</ele><time>2026-04-12T11:42:22.969Z</time></trkpt><trkpt lat="45.3321356" lon="13.8249075"><ele>144.0</ele><time>2026-04-12T11:42:24.973Z</time></trkpt><trkpt lat="45.3321055" lon="13.8247393"><ele>144.0</ele><time>2026-04-12T11:42:26.975Z</time></trkpt><trkpt lat="45.3320792" lon="13.8246391"><ele>144.0</ele><time>2026-04-12T11:42:27.986Z</time></trkpt><trkpt lat="45.3320402" lon="13.8245363"><ele>144.0</ele><time>2026-04-12T11:42:28.973Z</time></trkpt><trkpt lat="45.3320021" lon="13.8244179"><ele>144.0</ele><time>2026-04-12T11:42:29.968Z</time></trkpt><trkpt lat="45.3319678" lon="13.8242955"><ele>144.0</ele><time>2026-04-12T11:42:30.969Z</time></trkpt><trkpt lat="45.3319311" lon="13.8241677"><ele>144.0</ele><time>2026-04-12T11:42:31.97Z</time></trkpt><trkpt lat="45.3318766" lon="13.8240404"><ele>144.0</ele><time>2026-04-12T11:42:32.977Z</time></trkpt><trkpt lat="45.33182" lon="13.8239205"><ele>143.8</ele><time>2026-04-12T11:42:33.976Z</time></trkpt><trkpt lat="45.3317588" lon="13.8238108"><ele>143.60000000000002</ele><time>2026-04-12T11:42:34.967Z</time></trkpt><trkpt lat="45.3316943" lon="13.8237104"><ele>143.4</ele><time>2026-04-12T11:42:35.971Z</time></trkpt><trkpt lat="45.3316227" lon="13.8236233"><ele>143.20000000000002</ele><time>2026-04-12T11:42:36.98Z</time></trkpt><trkpt lat="45.3315621" lon="13.8235608"><ele>143.0</ele><time>2026-04-12T11:42:37.97Z</time></trkpt><trkpt lat="45.3314785" lon="13.8234557"><ele>142.83333333333331</ele><time>2026-04-12T11:42:39.973Z</time></trkpt><trkpt lat="45.3314098" lon="13.8233746"><ele>142.66666666666666</ele><time>2026-04-12T11:42:40.976Z</time></trkpt><trkpt lat="45.331338" lon="13.8232865"><ele>142.5</ele><time>2026-04-12T11:42:41.983Z</time></trkpt><trkpt lat="45.3312793" lon="13.8232"><ele>142.33333333333334</ele><time>2026-04-12T11:42:42.972Z</time></trkpt><trkpt lat="45.3312317" lon="13.8231172"><ele>142.16666666666669</ele><time>2026-04-12T11:42:43.968Z</time></trkpt><trkpt lat="45.3311881" lon="13.8230293"><ele>142.0</ele><time>2026-04-12T11:42:44.966Z</time></trkpt><trkpt lat="45.3311444" lon="13.8229318"><ele>142.0</ele><time>2026-04-12T11:42:45.965Z</time></trkpt><trkpt lat="45.3311103" lon="13.8228371"><ele>142.0</ele><time>2026-04-12T11:42:46.97Z</time></trkpt><trkpt lat="45.3310872" lon="13.8227391"><ele>142.0</ele><time>2026-04-12T11:42:47.973Z</time></trkpt><trkpt lat="45.3310668" lon="13.8226449"><ele>142.0</ele><time>2026-04-12T11:42:48.97Z</time></trkpt><trkpt lat="45.3310604" lon="13.8225124"><ele>142.0</ele><time>2026-04-12T11:42:50.972Z</time></trkpt><trkpt lat="45.3311117" lon="13.8224443"><ele>142.0</ele><time>2026-04-12T11:42:52.972Z</time></trkpt><trkpt lat="45.3311886" lon="13.8224603"><ele>138.0</ele><time>2026-04-12T11:42:55.966Z</time></trkpt><trkpt lat="45.3312705" lon="13.8225485"><ele>134.0</ele><time>2026-04-12T11:42:58.967Z</time></trkpt><trkpt lat="45.3314862" lon="13.8227875"><ele>130.0</ele><time>2026-04-12T11:43:00.979Z</time></trkpt><trkpt lat="45.3315764" lon="13.8228855"><ele>130.0</ele><time>2026-04-12T11:43:01.97Z</time></trkpt><trkpt lat="45.331671" lon="13.822984"><ele>130.0</ele><time>2026-04-12T11:43:02.973Z</time></trkpt><trkpt lat="45.331812" lon="13.8231072"><ele>130.0</ele><time>2026-04-12T11:43:03.966Z</time></trkpt><trkpt lat="45.3319161" lon="13.8231954"><ele>130.0</ele><time>2026-04-12T11:43:04.968Z</time></trkpt><trkpt lat="45.3320097" lon="13.8232897"><ele>130.0</ele><time>2026-04-12T11:43:05.967Z</time></trkpt><trkpt lat="45.3320878" lon="13.8233886"><ele>130.0</ele><time>2026-04-12T11:43:06.97Z</time></trkpt><trkpt lat="45.3321557" lon="13.8234837"><ele>130.0</ele><time>2026-04-12T11:43:07.972Z</time></trkpt><trkpt lat="45.3322033" lon="13.8235843"><ele>130.0</ele><time>2026-04-12T11:43:08.966Z</time></trkpt><trkpt lat="45.332232" lon="13.8236665"><ele>130.0</ele><time>2026-04-12T11:43:09.966Z</time></trkpt><trkpt lat="45.332265" lon="13.8237784"><ele>130.0</ele><time>2026-04-12T11:43:11.973Z</time></trkpt><trkpt lat="45.3323443" lon="13.8238329"><ele>130.0</ele><time>2026-04-12T11:43:55.975Z</time></trkpt><trkpt lat="45.3322818" lon="13.8238093"><ele>130.0</ele><time>2026-04-12T11:44:02.974Z</time></trkpt><trkpt lat="45.3322421" lon="13.8236791"><ele>130.0</ele><time>2026-04-12T11:44:03.97Z</time></trkpt><trkpt lat="45.3321994" lon="13.8235819"><ele>130.0</ele><time>2026-04-12T11:44:04.968Z</time></trkpt><trkpt lat="45.3321432" lon="13.8234803"><ele>130.0</ele><time>2026-04-12T11:44:05.978Z</time></trkpt><trkpt lat="45.3320766" lon="13.8233858"><ele>130.0</ele><time>2026-04-12T11:44:06.981Z</time></trkpt><trkpt lat="45.3319984" lon="13.823304"><ele>130.0</ele><time>2026-04-12T11:44:07.973Z</time></trkpt><trkpt lat="45.331913" lon="13.8232166"><ele>130.0</ele><time>2026-04-12T11:44:08.971Z</time></trkpt><trkpt lat="45.3318281" lon="13.8231345"><ele>130.0</ele><time>2026-04-12T11:44:09.969Z</time></trkpt><trkpt lat="45.3317428" lon="13.823066"><ele>130.0</ele><time>2026-04-12T11:44:10.973Z</time></trkpt><trkpt lat="45.3316609" lon="13.8229918"><ele>130.0</ele><time>2026-04-12T11:44:11.97Z</time></trkpt><trkpt lat="45.3315802" lon="13.8229197"><ele>130.0</ele><time>2026-04-12T11:44:12.969Z</time></trkpt><trkpt lat="45.3314349" lon="13.8227729"><ele>130.0</ele><time>2026-04-12T11:44:14.97Z</time></trkpt><trkpt lat="45.3313629" lon="13.8226995"><ele>130.0</ele><time>2026-04-12T11:44:15.969Z</time></trkpt><trkpt lat="45.3312937" lon="13.8226196"><ele>130.0</ele><time>2026-04-12T11:44:16.97Z</time></trkpt><trkpt lat="45.3312285" lon="13.822545"><ele>130.0</ele><time>2026-04-12T11:44:17.969Z</time></trkpt><trkpt lat="45.3311738" lon="13.8224875"><ele>129.4</ele><time>2026-04-12T11:44:18.968Z</time></trkpt><trkpt lat="45.3310835" lon="13.82243"><ele>128.8</ele><time>2026-04-12T11:44:20.974Z</time></trkpt><trkpt lat="45.3310392" lon="13.8223507"><ele>128.2</ele><time>2026-04-12T11:44:23.976Z</time></trkpt><trkpt lat="45.3310707" lon="13.8222484"><ele>127.6</ele><time>2026-04-12T11:44:27.972Z</time></trkpt><trkpt lat="45.3312464" lon="13.8222642"><ele>127.0</ele><time>2026-04-12T11:44:30.973Z</time></trkpt><trkpt lat="45.3313257" lon="13.8222928"><ele>125.16666666666667</ele><time>2026-04-12T11:44:31.969Z</time></trkpt><trkpt lat="45.3313988" lon="13.8223472"><ele>123.33333333333334</ele><time>2026-04-12T11:44:32.964Z</time></trkpt><trkpt lat="45.3314746" lon="13.8223986"><ele>121.5</ele><time>2026-04-12T11:44:33.963Z</time></trkpt><trkpt lat="45.3315544" lon="13.8224564"><ele>119.66666666666666</ele><time>2026-04-12T11:44:34.969Z</time></trkpt><trkpt lat="45.331633" lon="13.8225022"><ele>117.83333333333333</ele><time>2026-04-12T11:44:35.968Z</time></trkpt><trkpt lat="45.3317131" lon="13.8225501"><ele>116.0</ele><time>2026-04-12T11:44:36.971Z</time></trkpt><trkpt lat="45.331789" lon="13.8225931"><ele>115.99999999999999</ele><time>2026-04-12T11:44:37.971Z</time></trkpt><trkpt lat="45.3318643" lon="13.8226453"><ele>116.0</ele><time>2026-04-12T11:44:38.973Z</time></trkpt><trkpt lat="45.3319338" lon="13.8227031"><ele>116.0</ele><time>2026-04-12T11:44:39.971Z</time></trkpt><trkpt lat="45.3320182" lon="13.8227825"><ele>116.0</ele><time>2026-04-12T11:44:41.97Z</time></trkpt><trkpt lat="45.3320759" lon="13.8228258"><ele>115.99999999999999</ele><time>2026-04-12T11:44:57.968Z</time></trkpt><trkpt lat="45.332135" lon="13.8228732"><ele>116.0</ele><time>2026-04-12T11:45:00.966Z</time></trkpt><trkpt lat="45.3321898" lon="13.8229346"><ele>115.66666666666666</ele><time>2026-04-12T11:45:05.966Z</time></trkpt><trkpt lat="45.3322405" lon="13.8230253"><ele>115.33333333333333</ele><time>2026-04-12T11:45:11.971Z</time></trkpt><trkpt lat="45.3323026" lon="13.8231007"><ele>115.0</ele><time>2026-04-12T11:45:13.966Z</time></trkpt><trkpt lat="45.3323664" lon="13.82316"><ele>114.66666666666666</ele><time>2026-04-12T11:45:15.968Z</time></trkpt><trkpt lat="45.3324585" lon="13.8231403"><ele>114.33333333333333</ele><time>2026-04-12T11:45:17.968Z</time></trkpt><trkpt lat="45.3325453" lon="13.8231214"><ele>114.0</ele><time>2026-04-12T11:45:19.968Z</time></trkpt><trkpt lat="45.3326078" lon="13.8230539"><ele>114.0</ele><time>2026-04-12T11:45:21.968Z</time></trkpt><trkpt lat="45.3326338" lon="13.8229371"><ele>114.0</ele><time>2026-04-12T11:45:23.968Z</time></trkpt><trkpt lat="45.3326499" lon="13.8228065"><ele>114.0</ele><time>2026-04-12T11:45:25.972Z</time></trkpt><trkpt lat="45.3326853" lon="13.8226927"><ele>114.0</ele><time>2026-04-12T11:45:27.977Z</time></trkpt><trkpt lat="45.3327214" lon="13.8225714"><ele>114.0</ele><time>2026-04-12T11:45:29.973Z</time></trkpt><trkpt lat="45.3327615" lon="13.8224562"><ele>112.4</ele><time>2026-04-12T11:45:31.972Z</time></trkpt><trkpt lat="45.3328029" lon="13.8223346"><ele>110.80000000000001</ele><time>2026-04-12T11:45:33.972Z</time></trkpt><trkpt lat="45.3328258" lon="13.822249"><ele>109.19999999999999</ele><time>2026-04-12T11:45:34.968Z</time></trkpt><trkpt lat="45.3328554" lon="13.8220848"><ele>107.6</ele><time>2026-04-12T11:45:36.971Z</time></trkpt><trkpt lat="45.3328994" lon="13.8219088"><ele>106.0</ele><time>2026-04-12T11:45:38.967Z</time></trkpt><trkpt lat="45.3329254" lon="13.8218162"><ele>104.71428571428572</ele><time>2026-04-12T11:45:39.971Z</time></trkpt><trkpt lat="45.3329532" lon="13.8217128"><ele>103.42857142857142</ele><time>2026-04-12T11:45:40.967Z</time></trkpt><trkpt lat="45.3329833" lon="13.8216156"><ele>102.14285714285714</ele><time>2026-04-12T11:45:41.968Z</time></trkpt><trkpt lat="45.3330087" lon="13.8215199"><ele>100.85714285714286</ele><time>2026-04-12T11:45:42.966Z</time></trkpt><trkpt lat="45.3330358" lon="13.8214216"><ele>99.57142857142858</ele><time>2026-04-12T11:45:43.973Z</time></trkpt><trkpt lat="45.3330641" lon="13.8213281"><ele>98.28571428571428</ele><time>2026-04-12T11:45:44.967Z</time></trkpt><trkpt lat="45.3330865" lon="13.8212391"><ele>97.0</ele><time>2026-04-12T11:45:45.966Z</time></trkpt><trkpt lat="45.3331148" lon="13.8211424"><ele>96.57142857142857</ele><time>2026-04-12T11:45:46.969Z</time></trkpt><trkpt lat="45.333137" lon="13.8210416"><ele>96.14285714285715</ele><time>2026-04-12T11:45:47.97Z</time></trkpt><trkpt lat="45.3331574" lon="13.8209501"><ele>95.71428571428572</ele><time>2026-04-12T11:45:48.968Z</time></trkpt><trkpt lat="45.3331836" lon="13.8208476"><ele>95.28571428571428</ele><time>2026-04-12T11:45:49.971Z</time></trkpt><trkpt lat="45.33321" lon="13.8207512"><ele>94.85714285714286</ele><time>2026-04-12T11:45:50.967Z</time></trkpt><trkpt lat="45.3332384" lon="13.8206563"><ele>94.42857142857143</ele><time>2026-04-12T11:45:51.967Z</time></trkpt><trkpt lat="45.3332568" lon="13.82056"><ele>94.0</ele><time>2026-04-12T11:45:52.968Z</time></trkpt><trkpt lat="45.3332742" lon="13.8204534"><ele>92.66666666666666</ele><time>2026-04-12T11:45:53.968Z</time></trkpt><trkpt lat="45.3332844" lon="13.8203406"><ele>91.33333333333333</ele><time>2026-04-12T11:45:54.972Z</time></trkpt><trkpt lat="45.3332981" lon="13.8202209"><ele>90.0</ele><time>2026-04-12T11:45:55.972Z</time></trkpt><trkpt lat="45.3333089" lon="13.8200924"><ele>88.66666666666667</ele><time>2026-04-12T11:45:56.967Z</time></trkpt><trkpt lat="45.3333141" lon="13.8199778"><ele>87.33333333333334</ele><time>2026-04-12T11:45:57.966Z</time></trkpt><trkpt lat="45.3333145" lon="13.8198753"><ele>86.0</ele><time>2026-04-12T11:45:58.966Z</time></trkpt><trkpt lat="45.3333097" lon="13.8197855"><ele>84.8</ele><time>2026-04-12T11:45:59.97Z</time></trkpt><trkpt lat="45.3333014" lon="13.8196343"><ele>83.6</ele><time>2026-04-12T11:46:01.965Z</time></trkpt><trkpt lat="45.3333139" lon="13.8194952"><ele>82.4</ele><time>2026-04-12T11:46:03.967Z</time></trkpt><trkpt lat="45.3333732" lon="13.8193791"><ele>81.2</ele><time>2026-04-12T11:46:05.975Z</time></trkpt><trkpt lat="45.3334601" lon="13.8192981"><ele>80.0</ele><time>2026-04-12T11:46:07.971Z</time></trkpt><trkpt lat="45.333529" lon="13.8192302"><ele>79.16666666666667</ele><time>2026-04-12T11:46:09.967Z</time></trkpt><trkpt lat="45.333551" lon="13.819145"><ele>78.33333333333334</ele><time>2026-04-12T11:46:15.98Z</time></trkpt><trkpt lat="45.3335344" lon="13.8190285"><ele>77.5</ele><time>2026-04-12T11:46:18.972Z</time></trkpt><trkpt lat="45.3335025" lon="13.8189339"><ele>76.66666666666667</ele><time>2026-04-12T11:46:21.97Z</time></trkpt><trkpt lat="45.333485" lon="13.8188427"><ele>75.83333333333333</ele><time>2026-04-12T11:46:23.97Z</time></trkpt><trkpt lat="45.3334678" lon="13.8187029"><ele>75.0</ele><time>2026-04-12T11:46:25.974Z</time></trkpt><trkpt lat="45.3334574" lon="13.8186065"><ele>75.0</ele><time>2026-04-12T11:46:26.976Z</time></trkpt><trkpt lat="45.3334476" lon="13.8184927"><ele>75.0</ele><time>2026-04-12T11:46:27.967Z</time></trkpt><trkpt lat="45.3334248" lon="13.8181897"><ele>75.0</ele><time>2026-04-12T11:46:28.97Z</time></trkpt><trkpt lat="45.3334031" lon="13.8180334"><ele>75.0</ele><time>2026-04-12T11:46:29.967Z</time></trkpt><trkpt lat="45.3333927" lon="13.8179338"><ele>75.0</ele><time>2026-04-12T11:46:30.964Z</time></trkpt><trkpt lat="45.3333835" lon="13.8178265"><ele>75.0</ele><time>2026-04-12T11:46:31.967Z</time></trkpt><trkpt lat="45.3333733" lon="13.8177145"><ele>75.0</ele><time>2026-04-12T11:46:32.969Z</time></trkpt><trkpt lat="45.3333639" lon="13.8176064"><ele>75.0</ele><time>2026-04-12T11:46:33.968Z</time></trkpt><trkpt lat="45.3333556" lon="13.8174958"><ele>75.0</ele><time>2026-04-12T11:46:34.971Z</time></trkpt><trkpt lat="45.3333451" lon="13.8173745"><ele>75.0</ele><time>2026-04-12T11:46:35.964Z</time></trkpt><trkpt lat="45.3333368" lon="13.817249"><ele>75.33333333333333</ele><time>2026-04-12T11:46:36.971Z</time></trkpt><trkpt lat="45.3333295" lon="13.8171322"><ele>75.66666666666667</ele><time>2026-04-12T11:46:37.965Z</time></trkpt><trkpt lat="45.3333171" lon="13.8170178"><ele>76.0</ele><time>2026-04-12T11:46:38.973Z</time></trkpt><trkpt lat="45.333307" lon="13.8169118"><ele>76.33333333333334</ele><time>2026-04-12T11:46:39.969Z</time></trkpt><trkpt lat="45.333295" lon="13.8168211"><ele>76.66666666666667</ele><time>2026-04-12T11:46:40.968Z</time></trkpt><trkpt lat="45.33328" lon="13.8166753"><ele>77.0</ele><time>2026-04-12T11:46:42.966Z</time></trkpt><trkpt lat="45.3332367" lon="13.8166096"><ele>77.0</ele><time>2026-04-12T11:46:44.965Z</time></trkpt><trkpt lat="45.3331564" lon="13.8166028"><ele>77.0</ele><time>2026-04-12T11:46:46.973Z</time></trkpt><trkpt lat="45.3330901" lon="13.8166311"><ele>77.0</ele><time>2026-04-12T11:46:49.971Z</time></trkpt><trkpt lat="45.3329988" lon="13.8166045"><ele>77.0</ele><time>2026-04-12T11:46:52.968Z</time></trkpt><trkpt lat="45.3328376" lon="13.8164485"><ele>77.0</ele><time>2026-04-12T11:46:53.966Z</time></trkpt><trkpt lat="45.3328354" lon="13.8162532"><ele>78.4</ele><time>2026-04-12T11:46:55.962Z</time></trkpt><trkpt lat="45.3328345" lon="13.8161252"><ele>79.80000000000001</ele><time>2026-04-12T11:46:56.974Z</time></trkpt><trkpt lat="45.3328255" lon="13.8159845"><ele>81.2</ele><time>2026-04-12T11:46:57.971Z</time></trkpt><trkpt lat="45.332807" lon="13.8158577"><ele>82.60000000000001</ele><time>2026-04-12T11:46:58.969Z</time></trkpt><trkpt lat="45.3327799" lon="13.8157375"><ele>84.0</ele><time>2026-04-12T11:46:59.967Z</time></trkpt><trkpt lat="45.332765" lon="13.8156158"><ele>84.2</ele><time>2026-04-12T11:47:00.963Z</time></trkpt><trkpt lat="45.3327538" lon="13.8154877"><ele>84.4</ele><time>2026-04-12T11:47:01.973Z</time></trkpt><trkpt lat="45.3327398" lon="13.8153603"><ele>84.6</ele><time>2026-04-12T11:47:02.972Z</time></trkpt><trkpt lat="45.3327338" lon="13.8152326"><ele>84.8</ele><time>2026-04-12T11:47:03.967Z</time></trkpt><trkpt lat="45.3327147" lon="13.815102"><ele>85.0</ele><time>2026-04-12T11:47:04.97Z</time></trkpt><trkpt lat="45.3326954" lon="13.8149689"><ele>86.0</ele><time>2026-04-12T11:47:05.968Z</time></trkpt><trkpt lat="45.3326643" lon="13.8148471"><ele>87.0</ele><time>2026-04-12T11:47:06.972Z</time></trkpt><trkpt lat="45.3326411" lon="13.8147245"><ele>88.0</ele><time>2026-04-12T11:47:07.977Z</time></trkpt><trkpt lat="45.3326267" lon="13.8145917"><ele>89.0</ele><time>2026-04-12T11:47:08.969Z</time></trkpt><trkpt lat="45.3326129" lon="13.8144705"><ele>90.0</ele><time>2026-04-12T11:47:09.967Z</time></trkpt><trkpt lat="45.3325994" lon="13.8143549"><ele>91.0</ele><time>2026-04-12T11:47:10.965Z</time></trkpt><trkpt lat="45.3325825" lon="13.8142645"><ele>91.14285714285714</ele><time>2026-04-12T11:47:11.965Z</time></trkpt><trkpt lat="45.3325728" lon="13.814107"><ele>91.28571428571428</ele><time>2026-04-12T11:47:13.978Z</time></trkpt><trkpt lat="45.3325712" lon="13.8140084"><ele>91.42857142857143</ele><time>2026-04-12T11:47:14.968Z</time></trkpt><trkpt lat="45.3325679" lon="13.8139177"><ele>91.57142857142857</ele><time>2026-04-12T11:47:15.969Z</time></trkpt><trkpt lat="45.3325622" lon="13.8138272"><ele>91.71428571428571</ele><time>2026-04-12T11:47:16.968Z</time></trkpt><trkpt lat="45.3325529" lon="13.8137324"><ele>91.85714285714286</ele><time>2026-04-12T11:47:17.968Z</time></trkpt><trkpt lat="45.3325439" lon="13.8136315"><ele>92.0</ele><time>2026-04-12T11:47:18.969Z</time></trkpt><trkpt lat="45.3325269" lon="13.8135078"><ele>91.33333333333334</ele><time>2026-04-12T11:47:19.969Z</time></trkpt><trkpt lat="45.3325078" lon="13.8133733"><ele>90.66666666666667</ele><time>2026-04-12T11:47:20.965Z</time></trkpt><trkpt lat="45.332494" lon="13.81325"><ele>90.0</ele><time>2026-04-12T11:47:21.971Z</time></trkpt><trkpt lat="45.3324789" lon="13.8131254"><ele>89.33333333333333</ele><time>2026-04-12T11:47:22.969Z</time></trkpt><trkpt lat="45.3324721" lon="13.8130072"><ele>88.66666666666666</ele><time>2026-04-12T11:47:23.97Z</time></trkpt><trkpt lat="45.3324677" lon="13.812897"><ele>88.0</ele><time>2026-04-12T11:47:24.968Z</time></trkpt><trkpt lat="45.3325052" lon="13.8127449"><ele>87.0</ele><time>2026-04-12T11:47:26.965Z</time></trkpt><trkpt lat="45.332534" lon="13.8125988"><ele>86.0</ele><time>2026-04-12T11:47:28.967Z</time></trkpt><trkpt lat="45.3325374" lon="13.8124167"><ele>85.0</ele><time>2026-04-12T11:47:30.963Z</time></trkpt><trkpt lat="45.3325342" lon="13.8123262"><ele>84.0</ele><time>2026-04-12T11:47:31.967Z</time></trkpt><trkpt lat="45.332509" lon="13.8121606"><ele>83.0</ele><time>2026-04-12T11:47:33.966Z</time></trkpt><trkpt lat="45.3324901" lon="13.8120705"><ele>83.0</ele><time>2026-04-12T11:47:34.965Z</time></trkpt><trkpt lat="45.3324528" lon="13.8119044"><ele>83.0</ele><time>2026-04-12T11:47:36.97Z</time></trkpt><trkpt lat="45.3324183" lon="13.8118291"><ele>83.0</ele><time>2026-04-12T11:47:37.972Z</time></trkpt><trkpt lat="45.3323715" lon="13.811749"><ele>83.0</ele><time>2026-04-12T11:47:38.971Z</time></trkpt><trkpt lat="45.33233" lon="13.8116772"><ele>83.0</ele><time>2026-04-12T11:47:39.971Z</time></trkpt><trkpt lat="45.3323128" lon="13.8115435"><ele>83.0</ele><time>2026-04-12T11:47:41.984Z</time></trkpt><trkpt lat="45.3323764" lon="13.8114221"><ele>82.80000000000001</ele><time>2026-04-12T11:47:43.979Z</time></trkpt><trkpt lat="45.332426" lon="13.8113639"><ele>82.6</ele><time>2026-04-12T11:47:44.972Z</time></trkpt><trkpt lat="45.3324829" lon="13.8112823"><ele>82.4</ele><time>2026-04-12T11:47:45.967Z</time></trkpt><trkpt lat="45.3325466" lon="13.8111659"><ele>82.19999999999999</ele><time>2026-04-12T11:47:46.969Z</time></trkpt><trkpt lat="45.3326097" lon="13.8110484"><ele>82.0</ele><time>2026-04-12T11:47:47.968Z</time></trkpt><trkpt lat="45.3326701" lon="13.810934"><ele>82.0</ele><time>2026-04-12T11:47:48.978Z</time></trkpt><trkpt lat="45.3327267" lon="13.8108247"><ele>82.0</ele><time>2026-04-12T11:47:49.967Z</time></trkpt><trkpt lat="45.3327604" lon="13.8107408"><ele>82.0</ele><time>2026-04-12T11:47:50.968Z</time></trkpt><trkpt lat="45.3327959" lon="13.8106469"><ele>82.0</ele><time>2026-04-12T11:47:51.972Z</time></trkpt><trkpt lat="45.3328302" lon="13.8105431"><ele>82.0</ele><time>2026-04-12T11:47:52.975Z</time></trkpt><trkpt lat="45.332862" lon="13.8104186"><ele>82.0</ele><time>2026-04-12T11:47:53.968Z</time></trkpt><trkpt lat="45.3328892" lon="13.8102733"><ele>82.0</ele><time>2026-04-12T11:47:54.967Z</time></trkpt><trkpt lat="45.332913" lon="13.8101335"><ele>82.0</ele><time>2026-04-12T11:47:55.969Z</time></trkpt><trkpt lat="45.3329384" lon="13.8099996"><ele>82.0</ele><time>2026-04-12T11:47:56.973Z</time></trkpt><trkpt lat="45.3329456" lon="13.8098716"><ele>82.0</ele><time>2026-04-12T11:47:57.969Z</time></trkpt><trkpt lat="45.3329374" lon="13.8097443"><ele>82.0</ele><time>2026-04-12T11:47:58.966Z</time></trkpt><trkpt lat="45.3329277" lon="13.8096062"><ele>82.0</ele><time>2026-04-12T11:47:59.967Z</time></trkpt><trkpt lat="45.3329163" lon="13.8094717"><ele>82.0</ele><time>2026-04-12T11:48:00.964Z</time></trkpt><trkpt lat="45.3329101" lon="13.8093203"><ele>82.0</ele><time>2026-04-12T11:48:01.967Z</time></trkpt><trkpt lat="45.3328979" lon="13.8091899"><ele>82.0</ele><time>2026-04-12T11:48:02.964Z</time></trkpt><trkpt lat="45.3328912" lon="13.8090585"><ele>82.0</ele><time>2026-04-12T11:48:03.965Z</time></trkpt><trkpt lat="45.3328901" lon="13.80892"><ele>81.8</ele><time>2026-04-12T11:48:04.964Z</time></trkpt><trkpt lat="45.3328795" lon="13.8087744"><ele>81.6</ele><time>2026-04-12T11:48:05.969Z</time></trkpt><trkpt lat="45.3328537" lon="13.8086442"><ele>81.39999999999999</ele><time>2026-04-12T11:48:06.986Z</time></trkpt><trkpt lat="45.3328249" lon="13.8085025"><ele>81.19999999999999</ele><time>2026-04-12T11:48:07.971Z</time></trkpt><trkpt lat="45.3327982" lon="13.8083555"><ele>81.0</ele><time>2026-04-12T11:48:08.966Z</time></trkpt><trkpt lat="45.3327745" lon="13.8082179"><ele>81.0</ele><time>2026-04-12T11:48:09.971Z</time></trkpt><trkpt lat="45.3327577" lon="13.8080762"><ele>81.0</ele><time>2026-04-12T11:48:10.967Z</time></trkpt><trkpt lat="45.3327615" lon="13.8079446"><ele>81.0</ele><time>2026-04-12T11:48:11.968Z</time></trkpt><trkpt lat="45.3327883" lon="13.8078174"><ele>81.0</ele><time>2026-04-12T11:48:12.968Z</time></trkpt><trkpt lat="45.3328192" lon="13.8076868"><ele>81.0</ele><time>2026-04-12T11:48:13.967Z</time></trkpt><trkpt lat="45.3328802" lon="13.8075626"><ele>81.0</ele><time>2026-04-12T11:48:14.969Z</time></trkpt><trkpt lat="45.3329346" lon="13.8074608"><ele>81.0</ele><time>2026-04-12T11:48:15.966Z</time></trkpt><trkpt lat="45.3329871" lon="13.8073647"><ele>81.0</ele><time>2026-04-12T11:48:16.969Z</time></trkpt><trkpt lat="45.3330196" lon="13.807269"><ele>81.0</ele><time>2026-04-12T11:48:17.971Z</time></trkpt><trkpt lat="45.3330479" lon="13.8071806"><ele>81.0</ele><time>2026-04-12T11:48:18.967Z</time></trkpt><trkpt lat="45.3330833" lon="13.8070515"><ele>81.0</ele><time>2026-04-12T11:48:20.97Z</time></trkpt><trkpt lat="45.3330855" lon="13.806944"><ele>81.33333333333333</ele><time>2026-04-12T11:48:22.98Z</time></trkpt><trkpt lat="45.3330737" lon="13.8067866"><ele>81.66666666666667</ele><time>2026-04-12T11:48:24.974Z</time></trkpt><trkpt lat="45.3330591" lon="13.8066079"><ele>82.0</ele><time>2026-04-12T11:48:26.966Z</time></trkpt><trkpt lat="45.333059" lon="13.8065148"><ele>82.33333333333334</ele><time>2026-04-12T11:48:27.966Z</time></trkpt><trkpt lat="45.3330609" lon="13.8064001"><ele>82.66666666666667</ele><time>2026-04-12T11:48:29.971Z</time></trkpt><trkpt lat="45.3330501" lon="13.8063094"><ele>83.0</ele><time>2026-04-12T11:48:31.965Z</time></trkpt><trkpt lat="45.3330184" lon="13.8062199"><ele>83.0</ele><time>2026-04-12T11:48:33.969Z</time></trkpt><trkpt lat="45.3330075" lon="13.8061215"><ele>83.0</ele><time>2026-04-12T11:48:36.973Z</time></trkpt><trkpt lat="45.3330662" lon="13.8060568"><ele>83.0</ele><time>2026-04-12T11:48:39.967Z</time></trkpt><trkpt lat="45.333142" lon="13.8060363"><ele>83.0</ele><time>2026-04-12T11:48:47.97Z</time></trkpt><trkpt lat="45.3332437" lon="13.8059856"><ele>83.0</ele><time>2026-04-12T11:48:49.973Z</time></trkpt><trkpt lat="45.3332983" lon="13.8059374"><ele>83.0</ele><time>2026-04-12T11:48:50.976Z</time></trkpt><trkpt lat="45.3333532" lon="13.8058818"><ele>83.0</ele><time>2026-04-12T11:48:51.972Z</time></trkpt><trkpt lat="45.3334104" lon="13.8058325"><ele>83.0</ele><time>2026-04-12T11:48:52.97Z</time></trkpt><trkpt lat="45.3334719" lon="13.8057822"><ele>83.0</ele><time>2026-04-12T11:48:53.967Z</time></trkpt><trkpt lat="45.333534" lon="13.8057286"><ele>83.0</ele><time>2026-04-12T11:48:54.972Z</time></trkpt><trkpt lat="45.3336081" lon="13.8056953"><ele>83.0</ele><time>2026-04-12T11:48:55.972Z</time></trkpt><trkpt lat="45.3336798" lon="13.8056714"><ele>83.0</ele><time>2026-04-12T11:48:56.97Z</time></trkpt><trkpt lat="45.333752" lon="13.8056453"><ele>83.0</ele><time>2026-04-12T11:48:57.974Z</time></trkpt><trkpt lat="45.3338232" lon="13.805623"><ele>83.0</ele><time>2026-04-12T11:48:58.967Z</time></trkpt><trkpt lat="45.3338867" lon="13.8056082"><ele>83.0</ele><time>2026-04-12T11:48:59.966Z</time></trkpt><trkpt lat="45.3339848" lon="13.8055889"><ele>83.0</ele><time>2026-04-12T11:49:01.97Z</time></trkpt><trkpt lat="45.3340504" lon="13.8055731"><ele>83.0</ele><time>2026-04-12T11:49:06.971Z</time></trkpt><trkpt lat="45.3340533" lon="13.8054811"><ele>83.0</ele><time>2026-04-12T11:49:09.966Z</time></trkpt><trkpt lat="45.3340553" lon="13.8053298"><ele>83.0</ele><time>2026-04-12T11:49:11.969Z</time></trkpt><trkpt lat="45.3340651" lon="13.8051616"><ele>81.0</ele><time>2026-04-12T11:49:13.969Z</time></trkpt><trkpt lat="45.33407" lon="13.8049941"><ele>79.0</ele><time>2026-04-12T11:49:15.968Z</time></trkpt><trkpt lat="45.334094" lon="13.8048482"><ele>77.0</ele><time>2026-04-12T11:49:17.975Z</time></trkpt><trkpt lat="45.3341187" lon="13.8047362"><ele>75.0</ele><time>2026-04-12T11:49:19.97Z</time></trkpt><trkpt lat="45.3341739" lon="13.8046565"><ele>73.0</ele><time>2026-04-12T11:49:21.967Z</time></trkpt><trkpt lat="45.3342416" lon="13.8045888"><ele>73.0</ele><time>2026-04-12T11:49:24.964Z</time></trkpt><trkpt lat="45.3343017" lon="13.804524"><ele>73.0</ele><time>2026-04-12T11:49:26.966Z</time></trkpt><trkpt lat="45.3343639" lon="13.8044118"><ele>73.0</ele><time>2026-04-12T11:49:27.971Z</time></trkpt><trkpt lat="45.3344611" lon="13.8043201"><ele>73.0</ele><time>2026-04-12T11:49:28.97Z</time></trkpt><trkpt lat="45.3345287" lon="13.8042108"><ele>73.0</ele><time>2026-04-12T11:49:30.966Z</time></trkpt><trkpt lat="45.3345994" lon="13.8040996"><ele>73.4</ele><time>2026-04-12T11:49:32.981Z</time></trkpt><trkpt lat="45.3346864" lon="13.8040101"><ele>73.8</ele><time>2026-04-12T11:49:34.97Z</time></trkpt><trkpt lat="45.3347387" lon="13.8038989"><ele>74.2</ele><time>2026-04-12T11:49:36.976Z</time></trkpt><trkpt lat="45.3348028" lon="13.8037948"><ele>74.6</ele><time>2026-04-12T11:49:38.969Z</time></trkpt><trkpt lat="45.3348443" lon="13.8036947"><ele>75.0</ele><time>2026-04-12T11:49:41.967Z</time></trkpt><trkpt lat="45.3348894" lon="13.8035926"><ele>74.14285714285714</ele><time>2026-04-12T11:49:44.966Z</time></trkpt><trkpt lat="45.334944" lon="13.8035291"><ele>73.28571428571428</ele><time>2026-04-12T11:49:46.97Z</time></trkpt><trkpt lat="45.3350005" lon="13.8034692"><ele>72.42857142857143</ele><time>2026-04-12T11:49:47.969Z</time></trkpt><trkpt lat="45.3350531" lon="13.8034147"><ele>71.57142857142857</ele><time>2026-04-12T11:49:48.971Z</time></trkpt><trkpt lat="45.3351061" lon="13.8033641"><ele>70.71428571428572</ele><time>2026-04-12T11:49:49.97Z</time></trkpt><trkpt lat="45.3351924" lon="13.8032892"><ele>69.85714285714286</ele><time>2026-04-12T11:49:50.997Z</time></trkpt><trkpt lat="45.3352543" lon="13.8032471"><ele>69.0</ele><time>2026-04-12T11:49:52.066Z</time></trkpt><trkpt lat="45.335352" lon="13.803194"><ele>69.0</ele><time>2026-04-12T11:49:54.048Z</time></trkpt><trkpt lat="45.3354374" lon="13.8031444"><ele>69.0</ele><time>2026-04-12T11:49:56.054Z</time></trkpt><trkpt lat="45.3355194" lon="13.8030795"><ele>69.0</ele><time>2026-04-12T11:49:58.05Z</time></trkpt><trkpt lat="45.3356088" lon="13.8030215"><ele>69.0</ele><time>2026-04-12T11:50:00.05Z</time></trkpt><trkpt lat="45.3356944" lon="13.8029578"><ele>69.0</ele><time>2026-04-12T11:50:02.06Z</time></trkpt><trkpt lat="45.3357921" lon="13.8029071"><ele>67.4</ele><time>2026-04-12T11:50:04.051Z</time></trkpt><trkpt lat="45.3359061" lon="13.8028746"><ele>65.80000000000001</ele><time>2026-04-12T11:50:06.057Z</time></trkpt><trkpt lat="45.3360205" lon="13.8028649"><ele>64.19999999999999</ele><time>2026-04-12T11:50:08.053Z</time></trkpt><trkpt lat="45.3361112" lon="13.8028466"><ele>62.599999999999994</ele><time>2026-04-12T11:50:10.052Z</time></trkpt><trkpt lat="45.3361938" lon="13.8028385"><ele>61.0</ele><time>2026-04-12T11:50:12.051Z</time></trkpt><trkpt lat="45.3362992" lon="13.8028234"><ele>60.8</ele><time>2026-04-12T11:50:14.063Z</time></trkpt><trkpt lat="45.3364089" lon="13.8027825"><ele>60.599999999999994</ele><time>2026-04-12T11:50:16.057Z</time></trkpt><trkpt lat="45.3365181" lon="13.8027229"><ele>60.4</ele><time>2026-04-12T11:50:18.052Z</time></trkpt><trkpt lat="45.3366252" lon="13.8026483"><ele>60.2</ele><time>2026-04-12T11:50:20.058Z</time></trkpt><trkpt lat="45.3366873" lon="13.8026163"><ele>60.0</ele><time>2026-04-12T11:50:21.055Z</time></trkpt><trkpt lat="45.3367497" lon="13.8025894"><ele>60.5</ele><time>2026-04-12T11:50:22.053Z</time></trkpt><trkpt lat="45.3368156" lon="13.8025539"><ele>61.0</ele><time>2026-04-12T11:50:23.054Z</time></trkpt><trkpt lat="45.3368836" lon="13.80253"><ele>61.5</ele><time>2026-04-12T11:50:24.055Z</time></trkpt><trkpt lat="45.3369496" lon="13.8025121"><ele>62.0</ele><time>2026-04-12T11:50:25.05Z</time></trkpt><trkpt lat="45.3370372" lon="13.8024838"><ele>62.5</ele><time>2026-04-12T11:50:27.05Z</time></trkpt><trkpt lat="45.3371083" lon="13.8025338"><ele>63.0</ele><time>2026-04-12T11:50:30.059Z</time></trkpt><trkpt lat="45.3371586" lon="13.8026254"><ele>62.5</ele><time>2026-04-12T11:50:34.053Z</time></trkpt><trkpt lat="45.3371914" lon="13.8027134"><ele>62.0</ele><time>2026-04-12T11:50:36.057Z</time></trkpt><trkpt lat="45.3372247" lon="13.8028457"><ele>61.5</ele><time>2026-04-12T11:50:38.053Z</time></trkpt><trkpt lat="45.3372442" lon="13.8029321"><ele>61.0</ele><time>2026-04-12T11:50:39.05Z</time></trkpt><trkpt lat="45.3372657" lon="13.8030289"><ele>60.5</ele><time>2026-04-12T11:50:40.053Z</time></trkpt><trkpt lat="45.3372867" lon="13.8031299"><ele>60.0</ele><time>2026-04-12T11:50:41.058Z</time></trkpt><trkpt lat="45.3373032" lon="13.8032331"><ele>59.5</ele><time>2026-04-12T11:50:42.047Z</time></trkpt><trkpt lat="45.3373134" lon="13.8033349"><ele>59.0</ele><time>2026-04-12T11:50:43.048Z</time></trkpt><trkpt lat="45.3373195" lon="13.8034375"><ele>58.5</ele><time>2026-04-12T11:50:44.055Z</time></trkpt><trkpt lat="45.3373257" lon="13.8035344"><ele>58.0</ele><time>2026-04-12T11:50:45.048Z</time></trkpt><trkpt lat="45.3373331" lon="13.8036234"><ele>57.5</ele><time>2026-04-12T11:50:46.052Z</time></trkpt><trkpt lat="45.3373679" lon="13.8037684"><ele>57.0</ele><time>2026-04-12T11:50:48.051Z</time></trkpt><trkpt lat="45.3374356" lon="13.8038674"><ele>56.0</ele><time>2026-04-12T11:50:50.047Z</time></trkpt><trkpt lat="45.3375272" lon="13.8039253"><ele>55.0</ele><time>2026-04-12T11:50:52.047Z</time></trkpt><trkpt lat="45.3376162" lon="13.8039562"><ele>54.0</ele><time>2026-04-12T11:50:54.048Z</time></trkpt><trkpt lat="45.3377159" lon="13.803963"><ele>53.0</ele><time>2026-04-12T11:50:56.059Z</time></trkpt><trkpt lat="45.3377829" lon="13.8039616"><ele>52.0</ele><time>2026-04-12T11:50:57.046Z</time></trkpt><trkpt lat="45.3378534" lon="13.8039691"><ele>51.0</ele><time>2026-04-12T11:50:58.046Z</time></trkpt><trkpt lat="45.3379156" lon="13.803985"><ele>51.0</ele><time>2026-04-12T11:50:59.049Z</time></trkpt><trkpt lat="45.3380126" lon="13.8040538"><ele>51.0</ele><time>2026-04-12T11:51:01.05Z</time></trkpt><trkpt lat="45.3380738" lon="13.8042076"><ele>51.0</ele><time>2026-04-12T11:51:03.048Z</time></trkpt><trkpt lat="45.3381253" lon="13.8043521"><ele>51.0</ele><time>2026-04-12T11:51:05.046Z</time></trkpt><trkpt lat="45.3381804" lon="13.8045049"><ele>49.714285714285715</ele><time>2026-04-12T11:51:07.057Z</time></trkpt><trkpt lat="45.3382115" lon="13.8045989"><ele>48.42857142857143</ele><time>2026-04-12T11:51:08.052Z</time></trkpt><trkpt lat="45.3382424" lon="13.8046951"><ele>47.14285714285714</ele><time>2026-04-12T11:51:09.051Z</time></trkpt><trkpt lat="45.3382831" lon="13.8047799"><ele>45.85714285714286</ele><time>2026-04-12T11:51:10.058Z</time></trkpt><trkpt lat="45.3383156" lon="13.8048658"><ele>44.57142857142857</ele><time>2026-04-12T11:51:11.048Z</time></trkpt><trkpt lat="45.3383565" lon="13.8049544"><ele>43.285714285714285</ele><time>2026-04-12T11:51:12.05Z</time></trkpt><trkpt lat="45.3383969" lon="13.8050424"><ele>42.0</ele><time>2026-04-12T11:51:13.051Z</time></trkpt><trkpt lat="45.3384408" lon="13.8051303"><ele>40.714285714285715</ele><time>2026-04-12T11:51:14.05Z</time></trkpt><trkpt lat="45.3384831" lon="13.8052074"><ele>39.42857142857143</ele><time>2026-04-12T11:51:15.048Z</time></trkpt><trkpt lat="45.3385299" lon="13.8052801"><ele>38.14285714285714</ele><time>2026-04-12T11:51:16.05Z</time></trkpt><trkpt lat="45.3385793" lon="13.8053475"><ele>36.85714285714286</ele><time>2026-04-12T11:51:17.048Z</time></trkpt><trkpt lat="45.3386292" lon="13.8054174"><ele>35.57142857142857</ele><time>2026-04-12T11:51:18.051Z</time></trkpt><trkpt lat="45.3386788" lon="13.8054759"><ele>34.285714285714285</ele><time>2026-04-12T11:51:19.05Z</time></trkpt><trkpt lat="45.3387337" lon="13.8055398"><ele>33.0</ele><time>2026-04-12T11:51:20.047Z</time></trkpt><trkpt lat="45.3387858" lon="13.8056018"><ele>33.0</ele><time>2026-04-12T11:51:21.047Z</time></trkpt><trkpt lat="45.3388377" lon="13.805662"><ele>33.0</ele><time>2026-04-12T11:51:22.05Z</time></trkpt><trkpt lat="45.3388883" lon="13.8057229"><ele>33.0</ele><time>2026-04-12T11:51:23.047Z</time></trkpt><trkpt lat="45.3389356" lon="13.8057913"><ele>33.0</ele><time>2026-04-12T11:51:24.051Z</time></trkpt><trkpt lat="45.3389786" lon="13.8058623"><ele>33.0</ele><time>2026-04-12T11:51:25.051Z</time></trkpt><trkpt lat="45.3390122" lon="13.8059384"><ele>33.0</ele><time>2026-04-12T11:51:26.052Z</time></trkpt><trkpt lat="45.3390472" lon="13.8060151"><ele>33.0</ele><time>2026-04-12T11:51:27.049Z</time></trkpt><trkpt lat="45.3391147" lon="13.8061553"><ele>30.0</ele><time>2026-04-12T11:51:29.05Z</time></trkpt><trkpt lat="45.3391888" lon="13.8062721"><ele>26.999999999999996</ele><time>2026-04-12T11:51:31.053Z</time></trkpt><trkpt lat="45.3392775" lon="13.8063705"><ele>24.0</ele><time>2026-04-12T11:51:33.052Z</time></trkpt><trkpt lat="45.3393761" lon="13.8064503"><ele>21.0</ele><time>2026-04-12T11:51:35.048Z</time></trkpt><trkpt lat="45.3394663" lon="13.8065126"><ele>18.0</ele><time>2026-04-12T11:51:37.05Z</time></trkpt><trkpt lat="45.3395244" lon="13.8065532"><ele>18.0</ele><time>2026-04-12T11:51:39.054Z</time></trkpt><trkpt lat="45.3395155" lon="13.8066628"><ele>18.0</ele><time>2026-04-12T11:51:43.059Z</time></trkpt><trkpt lat="45.3394986" lon="13.8067521"><ele>18.0</ele><time>2026-04-12T11:51:46.054Z</time></trkpt><trkpt lat="45.3394686" lon="13.8068668"><ele>18.0</ele><time>2026-04-12T11:51:48.066Z</time></trkpt><trkpt lat="45.3394308" lon="13.8069916"><ele>18.0</ele><time>2026-04-12T11:51:50.052Z</time></trkpt><trkpt lat="45.3393751" lon="13.8071113"><ele>18.0</ele><time>2026-04-12T11:51:53.056Z</time></trkpt><trkpt lat="45.3393134" lon="13.807208"><ele>16.6</ele><time>2026-04-12T11:51:55.057Z</time></trkpt><trkpt lat="45.3392498" lon="13.8073199"><ele>15.200000000000001</ele><time>2026-04-12T11:51:57.049Z</time></trkpt><trkpt lat="45.3391884" lon="13.8074501"><ele>13.8</ele><time>2026-04-12T11:51:59.052Z</time></trkpt><trkpt lat="45.3391204" lon="13.8075674"><ele>12.4</ele><time>2026-04-12T11:52:01.053Z</time></trkpt><trkpt lat="45.3390541" lon="13.8076796"><ele>11.0</ele><time>2026-04-12T11:52:03.049Z</time></trkpt><trkpt lat="45.3389918" lon="13.8077947"><ele>11.0</ele><time>2026-04-12T11:52:05.047Z</time></trkpt><trkpt lat="45.3389293" lon="13.8079057"><ele>11.0</ele><time>2026-04-12T11:52:07.057Z</time></trkpt><trkpt lat="45.3388711" lon="13.8080137"><ele>11.0</ele><time>2026-04-12T11:52:09.057Z</time></trkpt><trkpt lat="45.3388285" lon="13.8081313"><ele>11.0</ele><time>2026-04-12T11:52:11.051Z</time></trkpt><trkpt lat="45.3387924" lon="13.8082273"><ele>11.0</ele><time>2026-04-12T11:52:16.053Z</time></trkpt><trkpt lat="45.3387737" lon="13.8083368"><ele>11.0</ele><time>2026-04-12T11:52:18.045Z</time></trkpt><trkpt lat="45.3387455" lon="13.8084522"><ele>11.428571428571429</ele><time>2026-04-12T11:52:20.053Z</time></trkpt><trkpt lat="45.3387224" lon="13.8085566"><ele>11.857142857142858</ele><time>2026-04-12T11:52:22.056Z</time></trkpt><trkpt lat="45.3387069" lon="13.808674"><ele>12.285714285714285</ele><time>2026-04-12T11:52:25.052Z</time></trkpt><trkpt lat="45.3386745" lon="13.8087624"><ele>12.714285714285715</ele><time>2026-04-12T11:52:28.05Z</time></trkpt><trkpt lat="45.338669" lon="13.8086578"><ele>13.142857142857142</ele><time>2026-04-12T11:53:30.055Z</time></trkpt><trkpt lat="45.3386247" lon="13.8085895"><ele>13.571428571428571</ele><time>2026-04-12T11:53:34.054Z</time></trkpt><trkpt lat="45.3386582" lon="13.8086915"><ele>14.0</ele><time>2026-04-12T11:53:44.051Z</time></trkpt><trkpt lat="45.3386556" lon="13.8085892"><ele>14.0</ele><time>2026-04-12T11:57:02.048Z</time></trkpt><trkpt lat="45.3386828" lon="13.8085083"><ele>14.0</ele><time>2026-04-12T11:57:12.05Z</time></trkpt><trkpt lat="45.3387097" lon="13.8084226"><ele>14.0</ele><time>2026-04-12T11:57:22.048Z</time></trkpt><trkpt lat="45.3387305" lon="13.8083167"><ele>14.0</ele><time>2026-04-12T11:57:27.057Z</time></trkpt><trkpt lat="45.3387481" lon="13.8082302"><ele>14.0</ele><time>2026-04-12T11:57:29.051Z</time></trkpt><trkpt lat="45.338779" lon="13.8081477"><ele>14.0</ele><time>2026-04-12T11:57:31.053Z</time></trkpt><trkpt lat="45.3388328" lon="13.8080453"><ele>14.0</ele><time>2026-04-12T11:57:34.062Z</time></trkpt><trkpt lat="45.3388827" lon="13.8079387"><ele>13.500000000000002</ele><time>2026-04-12T11:57:37.05Z</time></trkpt><trkpt lat="45.3389261" lon="13.8078652"><ele>13.0</ele><time>2026-04-12T11:57:39.053Z</time></trkpt><trkpt lat="45.3389746" lon="13.8077811"><ele>12.5</ele><time>2026-04-12T11:57:41.054Z</time></trkpt><trkpt lat="45.3390245" lon="13.8076798"><ele>12.0</ele><time>2026-04-12T11:57:43.052Z</time></trkpt><trkpt lat="45.339072" lon="13.8075806"><ele>11.5</ele><time>2026-04-12T11:57:45.047Z</time></trkpt><trkpt lat="45.3391237" lon="13.807479"><ele>11.0</ele><time>2026-04-12T11:57:47.051Z</time></trkpt><trkpt lat="45.3391888" lon="13.8073676"><ele>10.8</ele><time>2026-04-12T11:57:49.055Z</time></trkpt><trkpt lat="45.3392579" lon="13.8072603"><ele>10.600000000000001</ele><time>2026-04-12T11:57:51.048Z</time></trkpt><trkpt lat="45.3393201" lon="13.8071652"><ele>10.4</ele><time>2026-04-12T11:57:53.044Z</time></trkpt><trkpt lat="45.3393854" lon="13.8070229"><ele>10.2</ele><time>2026-04-12T11:57:55.05Z</time></trkpt><trkpt lat="45.3394312" lon="13.8069102"><ele>10.0</ele><time>2026-04-12T11:57:57.044Z</time></trkpt><trkpt lat="45.3394636" lon="13.8067849"><ele>10.285714285714285</ele><time>2026-04-12T11:57:59.056Z</time></trkpt><trkpt lat="45.3394914" lon="13.8066697"><ele>10.571428571428571</ele><time>2026-04-12T11:58:01.051Z</time></trkpt><trkpt lat="45.3395138" lon="13.8065811"><ele>10.857142857142858</ele><time>2026-04-12T11:58:03.052Z</time></trkpt><trkpt lat="45.3395775" lon="13.8065469"><ele>11.142857142857142</ele><time>2026-04-12T11:58:07.05Z</time></trkpt><trkpt lat="45.3396323" lon="13.8065965"><ele>11.428571428571429</ele><time>2026-04-12T11:58:31.054Z</time></trkpt><trkpt lat="45.3397102" lon="13.8066493"><ele>11.714285714285714</ele><time>2026-04-12T11:58:34.063Z</time></trkpt><trkpt lat="45.3397834" lon="13.8066651"><ele>12.0</ele><time>2026-04-12T11:58:38.051Z</time></trkpt><trkpt lat="45.339852" lon="13.8066119"><ele>12.0</ele><time>2026-04-12T11:58:41.049Z</time></trkpt><trkpt lat="45.3399052" lon="13.8065468"><ele>12.0</ele><time>2026-04-12T11:58:43.051Z</time></trkpt><trkpt lat="45.3399627" lon="13.8064759"><ele>12.0</ele><time>2026-04-12T11:58:46.049Z</time></trkpt><trkpt lat="45.3400162" lon="13.8064013"><ele>12.0</ele><time>2026-04-12T11:58:48.049Z</time></trkpt><trkpt lat="45.3401448" lon="13.8062398"><ele>12.0</ele><time>2026-04-12T11:58:50.045Z</time></trkpt><trkpt lat="45.3402843" lon="13.8060794"><ele>13.8</ele><time>2026-04-12T11:58:51.05Z</time></trkpt><trkpt lat="45.3403808" lon="13.8059266"><ele>15.6</ele><time>2026-04-12T11:58:52.057Z</time></trkpt><trkpt lat="45.3404247" lon="13.805803"><ele>17.400000000000002</ele><time>2026-04-12T11:58:53.047Z</time></trkpt><trkpt lat="45.3404507" lon="13.8056966"><ele>19.2</ele><time>2026-04-12T11:58:54.048Z</time></trkpt><trkpt lat="45.3404731" lon="13.8056081"><ele>21.0</ele><time>2026-04-12T11:58:55.051Z</time></trkpt><trkpt lat="45.3405009" lon="13.805516"><ele>21.0</ele><time>2026-04-12T11:58:56.049Z</time></trkpt><trkpt lat="45.3405335" lon="13.8054156"><ele>21.0</ele><time>2026-04-12T11:58:57.058Z</time></trkpt><trkpt lat="45.3405657" lon="13.8053219"><ele>21.0</ele><time>2026-04-12T11:58:58.047Z</time></trkpt><trkpt lat="45.3405876" lon="13.8052185"><ele>21.0</ele><time>2026-04-12T11:58:59.046Z</time></trkpt><trkpt lat="45.3406064" lon="13.8051165"><ele>21.0</ele><time>2026-04-12T11:59:00.052Z</time></trkpt><trkpt lat="45.3406273" lon="13.8050131"><ele>21.0</ele><time>2026-04-12T11:59:01.047Z</time></trkpt><trkpt lat="45.3406534" lon="13.8049145"><ele>19.666666666666668</ele><time>2026-04-12T11:59:02.059Z</time></trkpt><trkpt lat="45.3406928" lon="13.8048251"><ele>18.333333333333332</ele><time>2026-04-12T11:59:03.05Z</time></trkpt><trkpt lat="45.3407343" lon="13.8047322"><ele>17.0</ele><time>2026-04-12T11:59:04.049Z</time></trkpt><trkpt lat="45.3407782" lon="13.8046427"><ele>15.666666666666666</ele><time>2026-04-12T11:59:05.05Z</time></trkpt><trkpt lat="45.3408252" lon="13.8045577"><ele>14.333333333333332</ele><time>2026-04-12T11:59:06.05Z</time></trkpt><trkpt lat="45.3408695" lon="13.80446"><ele>13.0</ele><time>2026-04-12T11:59:07.05Z</time></trkpt><trkpt lat="45.340925" lon="13.804394"><ele>12.999999999999998</ele><time>2026-04-12T11:59:08.046Z</time></trkpt><trkpt lat="45.340977" lon="13.8043388"><ele>13.0</ele><time>2026-04-12T11:59:09.046Z</time></trkpt><trkpt lat="45.3410763" lon="13.8042396"><ele>13.0</ele><time>2026-04-12T11:59:11.051Z</time></trkpt><trkpt lat="45.3411343" lon="13.8042044"><ele>13.0</ele><time>2026-04-12T11:59:12.054Z</time></trkpt><trkpt lat="45.3412527" lon="13.8041502"><ele>12.999999999999998</ele><time>2026-04-12T11:59:14.05Z</time></trkpt><trkpt lat="45.3413147" lon="13.8041227"><ele>13.0</ele><time>2026-04-12T11:59:15.048Z</time></trkpt><trkpt lat="45.34138" lon="13.8040974"><ele>13.333333333333332</ele><time>2026-04-12T11:59:16.056Z</time></trkpt><trkpt lat="45.3414529" lon="13.8040705"><ele>13.666666666666666</ele><time>2026-04-12T11:59:17.048Z</time></trkpt><trkpt lat="45.3415246" lon="13.8040313"><ele>14.0</ele><time>2026-04-12T11:59:18.045Z</time></trkpt><trkpt lat="45.3415942" lon="13.8039885"><ele>14.333333333333332</ele><time>2026-04-12T11:59:19.048Z</time></trkpt><trkpt lat="45.341663" lon="13.8039369"><ele>14.666666666666666</ele><time>2026-04-12T11:59:20.052Z</time></trkpt><trkpt lat="45.3417295" lon="13.8038835"><ele>15.0</ele><time>2026-04-12T11:59:21.044Z</time></trkpt><trkpt lat="45.3417991" lon="13.8038322"><ele>15.0</ele><time>2026-04-12T11:59:22.047Z</time></trkpt><trkpt lat="45.3418754" lon="13.8037866"><ele>15.0</ele><time>2026-04-12T11:59:23.052Z</time></trkpt><trkpt lat="45.3419507" lon="13.803755"><ele>15.0</ele><time>2026-04-12T11:59:24.051Z</time></trkpt><trkpt lat="45.3420233" lon="13.803724"><ele>15.0</ele><time>2026-04-12T11:59:25.045Z</time></trkpt><trkpt lat="45.342102" lon="13.8036895"><ele>15.0</ele><time>2026-04-12T11:59:26.048Z</time></trkpt><trkpt lat="45.3421811" lon="13.803671"><ele>15.0</ele><time>2026-04-12T11:59:27.052Z</time></trkpt><trkpt lat="45.3422505" lon="13.8036609"><ele>15.333333333333334</ele><time>2026-04-12T11:59:28.048Z</time></trkpt><trkpt lat="45.3423434" lon="13.8036035"><ele>15.666666666666668</ele><time>2026-04-12T11:59:30.047Z</time></trkpt><trkpt lat="45.3424193" lon="13.8035266"><ele>16.0</ele><time>2026-04-12T11:59:32.06Z</time></trkpt><trkpt lat="45.3424791" lon="13.8034976"><ele>16.333333333333336</ele><time>2026-04-12T11:59:33.061Z</time></trkpt><trkpt lat="45.3425379" lon="13.8034567"><ele>16.666666666666668</ele><time>2026-04-12T11:59:34.056Z</time></trkpt><trkpt lat="45.3425909" lon="13.8033978"><ele>17.0</ele><time>2026-04-12T11:59:35.047Z</time></trkpt><trkpt lat="45.342651" lon="13.8033316"><ele>17.0</ele><time>2026-04-12T11:59:36.045Z</time></trkpt><trkpt lat="45.3427151" lon="13.8032624"><ele>17.0</ele><time>2026-04-12T11:59:37.047Z</time></trkpt><trkpt lat="45.3427808" lon="13.8031976"><ele>17.0</ele><time>2026-04-12T11:59:38.049Z</time></trkpt><trkpt lat="45.3428511" lon="13.8031479"><ele>17.0</ele><time>2026-04-12T11:59:39.048Z</time></trkpt><trkpt lat="45.3429311" lon="13.8031099"><ele>17.0</ele><time>2026-04-12T11:59:40.054Z</time></trkpt><trkpt lat="45.3430106" lon="13.8030791"><ele>17.0</ele><time>2026-04-12T11:59:41.045Z</time></trkpt><trkpt lat="45.3430879" lon="13.803056"><ele>15.666666666666668</ele><time>2026-04-12T11:59:42.05Z</time></trkpt><trkpt lat="45.343169" lon="13.8030412"><ele>14.333333333333334</ele><time>2026-04-12T11:59:43.056Z</time></trkpt><trkpt lat="45.3432517" lon="13.8030318"><ele>13.0</ele><time>2026-04-12T11:59:44.047Z</time></trkpt><trkpt lat="45.3433294" lon="13.8030086"><ele>11.666666666666668</ele><time>2026-04-12T11:59:45.051Z</time></trkpt><trkpt lat="45.3434094" lon="13.8029756"><ele>10.333333333333334</ele><time>2026-04-12T11:59:46.048Z</time></trkpt><trkpt lat="45.3434778" lon="13.8029402"><ele>9.0</ele><time>2026-04-12T11:59:47.048Z</time></trkpt><trkpt lat="45.343551" lon="13.8029001"><ele>9.0</ele><time>2026-04-12T11:59:48.051Z</time></trkpt><trkpt lat="45.3436176" lon="13.8028494"><ele>9.0</ele><time>2026-04-12T11:59:49.053Z</time></trkpt><trkpt lat="45.343684" lon="13.8027912"><ele>9.0</ele><time>2026-04-12T11:59:50.049Z</time></trkpt><trkpt lat="45.3437486" lon="13.8027287"><ele>9.0</ele><time>2026-04-12T11:59:51.05Z</time></trkpt><trkpt lat="45.3438172" lon="13.8026685"><ele>9.0</ele><time>2026-04-12T11:59:52.054Z</time></trkpt><trkpt lat="45.343884" lon="13.8026384"><ele>9.0</ele><time>2026-04-12T11:59:53.048Z</time></trkpt><trkpt lat="45.3439738" lon="13.8026239"><ele>9.142857142857144</ele><time>2026-04-12T11:59:55.054Z</time></trkpt><trkpt lat="45.3440465" lon="13.8026073"><ele>9.285714285714286</ele><time>2026-04-12T12:00:35.056Z</time></trkpt><trkpt lat="45.3441103" lon="13.8026132"><ele>9.428571428571429</ele><time>2026-04-12T12:00:41.057Z</time></trkpt><trkpt lat="45.3441776" lon="13.8026144"><ele>9.571428571428573</ele><time>2026-04-12T12:00:49.052Z</time></trkpt><trkpt lat="45.3442425" lon="13.8026153"><ele>9.714285714285715</ele><time>2026-04-12T12:00:56.053Z</time></trkpt><trkpt lat="45.3443085" lon="13.8026129"><ele>9.857142857142858</ele><time>2026-04-12T12:01:02.056Z</time></trkpt><trkpt lat="45.344374" lon="13.80262"><ele>10.0</ele><time>2026-04-12T12:01:10.047Z</time></trkpt><trkpt lat="45.3444663" lon="13.8026184"><ele>10.0</ele><time>2026-04-12T12:01:22.053Z</time></trkpt><trkpt lat="45.3445325" lon="13.8026062"><ele>10.0</ele><time>2026-04-12T12:01:28.048Z</time></trkpt><trkpt lat="45.3446047" lon="13.8026501"><ele>10.0</ele><time>2026-04-12T12:01:39.048Z</time></trkpt><trkpt lat="45.3446699" lon="13.8026509"><ele>10.0</ele><time>2026-04-12T12:01:43.048Z</time></trkpt><trkpt lat="45.3447395" lon="13.8026395"><ele>10.0</ele><time>2026-04-12T12:01:49.049Z</time></trkpt><trkpt lat="45.3448073" lon="13.8026074"><ele>10.0</ele><time>2026-04-12T12:01:56.051Z</time></trkpt><trkpt lat="45.3448453" lon="13.8025211"><ele>10.0</ele><time>2026-04-12T12:02:11.047Z</time></trkpt><trkpt lat="45.3448703" lon="13.8024178"><ele>9.714285714285714</ele><time>2026-04-12T12:04:57.046Z</time></trkpt><trkpt lat="45.3448788" lon="13.8023267"><ele>9.428571428571429</ele><time>2026-04-12T12:05:29.047Z</time></trkpt><trkpt lat="45.3448958" lon="13.8022396"><ele>9.142857142857142</ele><time>2026-04-12T12:05:42.054Z</time></trkpt><trkpt lat="45.3449181" lon="13.802128"><ele>8.857142857142858</ele><time>2026-04-12T12:05:47.052Z</time></trkpt><trkpt lat="45.344949" lon="13.8020356"><ele>8.571428571428571</ele><time>2026-04-12T12:10:44.056Z</time></trkpt><trkpt lat="45.3450097" lon="13.8020894"><ele>8.285714285714285</ele><time>2026-04-12T12:10:48.051Z</time></trkpt><trkpt lat="45.3450256" lon="13.8022106"><ele>8.0</ele><time>2026-04-12T12:10:50.047Z</time></trkpt><trkpt lat="45.3450246" lon="13.8023508"><ele>8.0</ele><time>2026-04-12T12:10:52.051Z</time></trkpt><trkpt lat="45.3450248" lon="13.802485"><ele>8.0</ele><time>2026-04-12T12:10:54.054Z</time></trkpt><trkpt lat="45.3450321" lon="13.8026007"><ele>8.0</ele><time>2026-04-12T12:10:57.047Z</time></trkpt><trkpt lat="45.3450996" lon="13.802565"><ele>8.0</ele><time>2026-04-12T12:11:03.052Z</time></trkpt><trkpt lat="45.3451114" lon="13.8024463"><ele>8.0</ele><time>2026-04-12T12:11:06.043Z</time></trkpt><trkpt lat="45.3451724" lon="13.8021227"><ele>8.0</ele><time>2026-04-12T12:11:08.048Z</time></trkpt><trkpt lat="45.3451966" lon="13.8019933"><ele>7.999999999999999</ele><time>2026-04-12T12:11:09.044Z</time></trkpt><trkpt lat="45.3452166" lon="13.8019006"><ele>8.0</ele><time>2026-04-12T12:11:10.038Z</time></trkpt><trkpt lat="45.3452364" lon="13.8018012"><ele>8.0</ele><time>2026-04-12T12:11:11.044Z</time></trkpt><trkpt lat="45.3452558" lon="13.801705"><ele>7.999999999999999</ele><time>2026-04-12T12:11:12.05Z</time></trkpt><trkpt lat="45.3452796" lon="13.8016063"><ele>8.0</ele><time>2026-04-12T12:11:13.05Z</time></trkpt><trkpt lat="45.3452971" lon="13.801511"><ele>8.0</ele><time>2026-04-12T12:11:14.041Z</time></trkpt><trkpt lat="45.3453161" lon="13.8014202"><ele>8.0</ele><time>2026-04-12T12:11:15.048Z</time></trkpt><trkpt lat="45.34534" lon="13.8013222"><ele>7.999999999999999</ele><time>2026-04-12T12:11:16.055Z</time></trkpt><trkpt lat="45.3453631" lon="13.8012266"><ele>8.0</ele><time>2026-04-12T12:11:17.046Z</time></trkpt><trkpt lat="45.345377" lon="13.801123"><ele>8.0</ele><time>2026-04-12T12:11:18.05Z</time></trkpt><trkpt lat="45.3453804" lon="13.8010254"><ele>7.999999999999999</ele><time>2026-04-12T12:11:19.046Z</time></trkpt><trkpt lat="45.3453842" lon="13.8009226"><ele>8.0</ele><time>2026-04-12T12:11:20.046Z</time></trkpt><trkpt lat="45.3453883" lon="13.8008214"><ele>8.0</ele><time>2026-04-12T12:11:21.049Z</time></trkpt><trkpt lat="45.3453904" lon="13.8007174"><ele>7.833333333333333</ele><time>2026-04-12T12:11:22.049Z</time></trkpt><trkpt lat="45.3453946" lon="13.8006061"><ele>7.666666666666666</ele><time>2026-04-12T12:11:23.047Z</time></trkpt><trkpt lat="45.3453992" lon="13.8004912"><ele>7.5</ele><time>2026-04-12T12:11:24.047Z</time></trkpt><trkpt lat="45.3453994" lon="13.8003767"><ele>7.333333333333334</ele><time>2026-04-12T12:11:25.042Z</time></trkpt><trkpt lat="45.3453996" lon="13.8002562"><ele>7.166666666666667</ele><time>2026-04-12T12:11:26.047Z</time></trkpt><trkpt lat="45.3453962" lon="13.800137"><ele>7.0</ele><time>2026-04-12T12:11:27.048Z</time></trkpt><trkpt lat="45.3453906" lon="13.8000208"><ele>7.166666666666667</ele><time>2026-04-12T12:11:28.044Z</time></trkpt><trkpt lat="45.3453807" lon="13.7998981"><ele>7.333333333333334</ele><time>2026-04-12T12:11:29.046Z</time></trkpt><trkpt lat="45.3453671" lon="13.7997777"><ele>7.5</ele><time>2026-04-12T12:11:30.044Z</time></trkpt><trkpt lat="45.345348" lon="13.79966"><ele>7.666666666666666</ele><time>2026-04-12T12:11:31.045Z</time></trkpt><trkpt lat="45.3453284" lon="13.7995453"><ele>7.833333333333333</ele><time>2026-04-12T12:11:32.046Z</time></trkpt><trkpt lat="45.3453083" lon="13.7994282"><ele>8.0</ele><time>2026-04-12T12:11:33.044Z</time></trkpt><trkpt lat="45.3452853" lon="13.7993126"><ele>7.999999999999999</ele><time>2026-04-12T12:11:34.05Z</time></trkpt><trkpt lat="45.3452647" lon="13.7991953"><ele>8.0</ele><time>2026-04-12T12:11:35.044Z</time></trkpt><trkpt lat="45.3452445" lon="13.7990809"><ele>8.0</ele><time>2026-04-12T12:11:36.05Z</time></trkpt><trkpt lat="45.3452182" lon="13.7989699"><ele>8.0</ele><time>2026-04-12T12:11:37.041Z</time></trkpt><trkpt lat="45.3451982" lon="13.7988561"><ele>7.999999999999999</ele><time>2026-04-12T12:11:38.045Z</time></trkpt><trkpt lat="45.3451744" lon="13.7987436"><ele>8.0</ele><time>2026-04-12T12:11:39.046Z</time></trkpt><trkpt lat="45.3451535" lon="13.7986263"><ele>7.999999999999999</ele><time>2026-04-12T12:11:40.043Z</time></trkpt><trkpt lat="45.345132" lon="13.7985089"><ele>8.0</ele><time>2026-04-12T12:11:41.043Z</time></trkpt><trkpt lat="45.3451151" lon="13.7983989"><ele>8.0</ele><time>2026-04-12T12:11:42.044Z</time></trkpt><trkpt lat="45.3450942" lon="13.798288"><ele>8.0</ele><time>2026-04-12T12:11:43.045Z</time></trkpt><trkpt lat="45.3450724" lon="13.7981691"><ele>7.999999999999999</ele><time>2026-04-12T12:11:44.046Z</time></trkpt><trkpt lat="45.3450506" lon="13.7980522"><ele>8.0</ele><time>2026-04-12T12:11:45.041Z</time></trkpt><trkpt lat="45.3450284" lon="13.7979345"><ele>7.833333333333333</ele><time>2026-04-12T12:11:46.048Z</time></trkpt><trkpt lat="45.3450035" lon="13.7978232"><ele>7.666666666666666</ele><time>2026-04-12T12:11:47.044Z</time></trkpt><trkpt lat="45.3449798" lon="13.7977177"><ele>7.5</ele><time>2026-04-12T12:11:48.042Z</time></trkpt><trkpt lat="45.3449547" lon="13.7976134"><ele>7.333333333333334</ele><time>2026-04-12T12:11:49.05Z</time></trkpt><trkpt lat="45.3449347" lon="13.797508"><ele>7.166666666666667</ele><time>2026-04-12T12:11:50.048Z</time></trkpt><trkpt lat="45.3449145" lon="13.797396"><ele>7.0</ele><time>2026-04-12T12:11:51.048Z</time></trkpt><trkpt lat="45.3448921" lon="13.7972809"><ele>7.000000000000001</ele><time>2026-04-12T12:11:52.043Z</time></trkpt><trkpt lat="45.3448704" lon="13.7971621"><ele>7.0</ele><time>2026-04-12T12:11:53.05Z</time></trkpt><trkpt lat="45.3448503" lon="13.7970472"><ele>7.0</ele><time>2026-04-12T12:11:54.042Z</time></trkpt><trkpt lat="45.3448256" lon="13.7969319"><ele>7.0</ele><time>2026-04-12T12:11:55.044Z</time></trkpt><trkpt lat="45.3448017" lon="13.7968134"><ele>7.000000000000001</ele><time>2026-04-12T12:11:56.044Z</time></trkpt><trkpt lat="45.3447759" lon="13.7966891"><ele>7.0</ele><time>2026-04-12T12:11:57.047Z</time></trkpt><trkpt lat="45.3447539" lon="13.7965654"><ele>7.000000000000001</ele><time>2026-04-12T12:11:58.045Z</time></trkpt><trkpt lat="45.3447337" lon="13.7964402"><ele>7.0</ele><time>2026-04-12T12:11:59.044Z</time></trkpt><trkpt lat="45.3447149" lon="13.7963169"><ele>7.0</ele><time>2026-04-12T12:12:00.043Z</time></trkpt><trkpt lat="45.344699" lon="13.7962106"><ele>7.0</ele><time>2026-04-12T12:12:01.043Z</time></trkpt><trkpt lat="45.3446751" lon="13.7961005"><ele>7.000000000000001</ele><time>2026-04-12T12:12:02.046Z</time></trkpt><trkpt lat="45.3446612" lon="13.7959872"><ele>7.0</ele><time>2026-04-12T12:12:03.043Z</time></trkpt><trkpt lat="45.3446374" lon="13.795884"><ele>7.000000000000001</ele><time>2026-04-12T12:12:04.043Z</time></trkpt><trkpt lat="45.3446119" lon="13.7957894"><ele>7.0</ele><time>2026-04-12T12:12:05.05Z</time></trkpt><trkpt lat="45.3445892" lon="13.795674"><ele>7.0</ele><time>2026-04-12T12:12:06.043Z</time></trkpt><trkpt lat="45.3445742" lon="13.7955601"><ele>7.0</ele><time>2026-04-12T12:12:07.043Z</time></trkpt><trkpt lat="45.3445506" lon="13.7954509"><ele>7.000000000000001</ele><time>2026-04-12T12:12:08.045Z</time></trkpt><trkpt lat="45.3445225" lon="13.79534"><ele>7.0</ele><time>2026-04-12T12:12:09.048Z</time></trkpt><trkpt lat="45.3445021" lon="13.795236"><ele>6.666666666666667</ele><time>2026-04-12T12:12:10.049Z</time></trkpt><trkpt lat="45.3444836" lon="13.7951401"><ele>6.333333333333334</ele><time>2026-04-12T12:12:11.045Z</time></trkpt><trkpt lat="45.3444548" lon="13.7949755"><ele>6.0</ele><time>2026-04-12T12:12:13.045Z</time></trkpt><trkpt lat="45.3444289" lon="13.7948907"><ele>5.666666666666667</ele><time>2026-04-12T12:12:14.047Z</time></trkpt><trkpt lat="45.344407" lon="13.7948008"><ele>5.333333333333334</ele><time>2026-04-12T12:12:15.044Z</time></trkpt><trkpt lat="45.3443883" lon="13.7947123"><ele>5.0</ele><time>2026-04-12T12:12:16.041Z</time></trkpt><trkpt lat="45.3443689" lon="13.7946226"><ele>5.0</ele><time>2026-04-12T12:12:17.046Z</time></trkpt><trkpt lat="45.3443452" lon="13.7945311"><ele>5.0</ele><time>2026-04-12T12:12:18.047Z</time></trkpt><trkpt lat="45.3443287" lon="13.7944434"><ele>5.0</ele><time>2026-04-12T12:12:19.048Z</time></trkpt><trkpt lat="45.3442738" lon="13.7942727"><ele>5.0</ele><time>2026-04-12T12:12:21.045Z</time></trkpt><trkpt lat="45.3442507" lon="13.7941693"><ele>5.0</ele><time>2026-04-12T12:12:22.048Z</time></trkpt><trkpt lat="45.3442354" lon="13.79406"><ele>5.0</ele><time>2026-04-12T12:12:23.045Z</time></trkpt><trkpt lat="45.3442238" lon="13.793949"><ele>4.833333333333334</ele><time>2026-04-12T12:12:24.047Z</time></trkpt><trkpt lat="45.3442027" lon="13.7938382"><ele>4.666666666666667</ele><time>2026-04-12T12:12:25.049Z</time></trkpt><trkpt lat="45.3441817" lon="13.7937287"><ele>4.5</ele><time>2026-04-12T12:12:26.044Z</time></trkpt><trkpt lat="45.3441664" lon="13.7936347"><ele>4.333333333333333</ele><time>2026-04-12T12:12:27.043Z</time></trkpt><trkpt lat="45.3441206" lon="13.793462"><ele>4.166666666666666</ele><time>2026-04-12T12:12:29.05Z</time></trkpt><trkpt lat="45.3440903" lon="13.7933798"><ele>4.0</ele><time>2026-04-12T12:12:30.045Z</time></trkpt><trkpt lat="45.344054" lon="13.7933027"><ele>4.333333333333333</ele><time>2026-04-12T12:12:31.046Z</time></trkpt><trkpt lat="45.3440178" lon="13.793221"><ele>4.666666666666666</ele><time>2026-04-12T12:12:32.049Z</time></trkpt><trkpt lat="45.3439825" lon="13.7931381"><ele>5.0</ele><time>2026-04-12T12:12:33.045Z</time></trkpt><trkpt lat="45.3439415" lon="13.7929695"><ele>5.333333333333333</ele><time>2026-04-12T12:12:35.045Z</time></trkpt><trkpt lat="45.3439231" lon="13.7928794"><ele>5.666666666666667</ele><time>2026-04-12T12:12:36.041Z</time></trkpt><trkpt lat="45.3439016" lon="13.7927859"><ele>6.0</ele><time>2026-04-12T12:12:37.046Z</time></trkpt><trkpt lat="45.3438868" lon="13.7926925"><ele>6.166666666666667</ele><time>2026-04-12T12:12:38.05Z</time></trkpt><trkpt lat="45.3438707" lon="13.7925955"><ele>6.333333333333334</ele><time>2026-04-12T12:12:39.047Z</time></trkpt><trkpt lat="45.3438665" lon="13.7924776"><ele>6.5</ele><time>2026-04-12T12:12:40.042Z</time></trkpt><trkpt lat="45.3438636" lon="13.7923532"><ele>6.666666666666667</ele><time>2026-04-12T12:12:41.047Z</time></trkpt><trkpt lat="45.3438485" lon="13.7922333"><ele>6.833333333333334</ele><time>2026-04-12T12:12:42.047Z</time></trkpt><trkpt lat="45.3438357" lon="13.7921181"><ele>7.0</ele><time>2026-04-12T12:12:43.05Z</time></trkpt><trkpt lat="45.3438182" lon="13.7919993"><ele>7.000000000000001</ele><time>2026-04-12T12:12:44.044Z</time></trkpt><trkpt lat="45.3437931" lon="13.7918801"><ele>7.0</ele><time>2026-04-12T12:12:45.044Z</time></trkpt><trkpt lat="45.343773" lon="13.7917652"><ele>7.0</ele><time>2026-04-12T12:12:46.042Z</time></trkpt><trkpt lat="45.3437529" lon="13.791648"><ele>7.0</ele><time>2026-04-12T12:12:47.044Z</time></trkpt><trkpt lat="45.3437377" lon="13.7915345"><ele>7.000000000000001</ele><time>2026-04-12T12:12:48.044Z</time></trkpt><trkpt lat="45.3437223" lon="13.7914243"><ele>7.0</ele><time>2026-04-12T12:12:49.046Z</time></trkpt><trkpt lat="45.3437097" lon="13.7913043"><ele>7.0</ele><time>2026-04-12T12:12:50.046Z</time></trkpt><trkpt lat="45.3436949" lon="13.7911863"><ele>6.999999999999999</ele><time>2026-04-12T12:12:51.05Z</time></trkpt><trkpt lat="45.3436822" lon="13.7910544"><ele>6.999999999999999</ele><time>2026-04-12T12:12:52.046Z</time></trkpt><trkpt lat="45.3436735" lon="13.7909116"><ele>7.0</ele><time>2026-04-12T12:12:53.047Z</time></trkpt><trkpt lat="45.3436722" lon="13.7907725"><ele>7.0</ele><time>2026-04-12T12:12:54.049Z</time></trkpt><trkpt lat="45.3436767" lon="13.7906276"><ele>7.0</ele><time>2026-04-12T12:12:55.052Z</time></trkpt><trkpt lat="45.3436777" lon="13.7904825"><ele>6.999999999999999</ele><time>2026-04-12T12:12:56.044Z</time></trkpt><trkpt lat="45.3436824" lon="13.7903423"><ele>6.999999999999999</ele><time>2026-04-12T12:12:57.048Z</time></trkpt><trkpt lat="45.343693" lon="13.7902097"><ele>7.0</ele><time>2026-04-12T12:12:58.049Z</time></trkpt><trkpt lat="45.3437026" lon="13.7900826"><ele>7.0</ele><time>2026-04-12T12:12:59.043Z</time></trkpt><trkpt lat="45.3437181" lon="13.7899571"><ele>7.0</ele><time>2026-04-12T12:13:00.042Z</time></trkpt><trkpt lat="45.3437328" lon="13.7898304"><ele>6.999999999999999</ele><time>2026-04-12T12:13:01.045Z</time></trkpt><trkpt lat="45.3437579" lon="13.7896995"><ele>6.999999999999999</ele><time>2026-04-12T12:13:02.049Z</time></trkpt><trkpt lat="45.3437904" lon="13.7895701"><ele>7.0</ele><time>2026-04-12T12:13:03.048Z</time></trkpt><trkpt lat="45.3438178" lon="13.7894378"><ele>7.0</ele><time>2026-04-12T12:13:04.053Z</time></trkpt><trkpt lat="45.3438508" lon="13.7893121"><ele>6.8</ele><time>2026-04-12T12:13:05.046Z</time></trkpt><trkpt lat="45.3438867" lon="13.7891802"><ele>6.6</ele><time>2026-04-12T12:13:06.048Z</time></trkpt><trkpt lat="45.3439224" lon="13.789054"><ele>6.3999999999999995</ele><time>2026-04-12T12:13:07.046Z</time></trkpt><trkpt lat="45.3439559" lon="13.7889275"><ele>6.199999999999999</ele><time>2026-04-12T12:13:08.046Z</time></trkpt><trkpt lat="45.3439845" lon="13.7888155"><ele>6.0</ele><time>2026-04-12T12:13:09.043Z</time></trkpt><trkpt lat="45.3440174" lon="13.7887025"><ele>6.0</ele><time>2026-04-12T12:13:10.043Z</time></trkpt><trkpt lat="45.3440532" lon="13.7885968"><ele>6.0</ele><time>2026-04-12T12:13:11.045Z</time></trkpt><trkpt lat="45.3440895" lon="13.7884914"><ele>6.0</ele><time>2026-04-12T12:13:12.043Z</time></trkpt><trkpt lat="45.3441144" lon="13.7883972"><ele>6.0</ele><time>2026-04-12T12:13:13.05Z</time></trkpt><trkpt lat="45.3441429" lon="13.7883077"><ele>6.0</ele><time>2026-04-12T12:13:14.05Z</time></trkpt><trkpt lat="45.3441712" lon="13.788211"><ele>6.0</ele><time>2026-04-12T12:13:15.045Z</time></trkpt><trkpt lat="45.3441936" lon="13.7880413"><ele>5.8</ele><time>2026-04-12T12:13:17.044Z</time></trkpt><trkpt lat="45.344201" lon="13.7879514"><ele>5.6</ele><time>2026-04-12T12:13:18.046Z</time></trkpt><trkpt lat="45.3441763" lon="13.7877762"><ele>5.4</ele><time>2026-04-12T12:13:20.043Z</time></trkpt><trkpt lat="45.344159" lon="13.7876121"><ele>5.2</ele><time>2026-04-12T12:13:22.048Z</time></trkpt><trkpt lat="45.3441479" lon="13.7874896"><ele>5.0</ele><time>2026-04-12T12:13:24.053Z</time></trkpt><trkpt lat="45.3441624" lon="13.7873998"><ele>5.333333333333334</ele><time>2026-04-12T12:13:26.056Z</time></trkpt><trkpt lat="45.3442258" lon="13.7873498"><ele>5.666666666666667</ele><time>2026-04-12T12:13:29.045Z</time></trkpt><trkpt lat="45.3443171" lon="13.7872974"><ele>6.0</ele><time>2026-04-12T12:13:32.053Z</time></trkpt><trkpt lat="45.3443813" lon="13.78721"><ele>6.333333333333334</ele><time>2026-04-12T12:13:34.042Z</time></trkpt><trkpt lat="45.3444196" lon="13.7871319"><ele>6.666666666666667</ele><time>2026-04-12T12:13:35.048Z</time></trkpt><trkpt lat="45.3444673" lon="13.7870253"><ele>7.0</ele><time>2026-04-12T12:13:36.05Z</time></trkpt><trkpt lat="45.344572" lon="13.7868144"><ele>7.199999999999999</ele><time>2026-04-12T12:13:37.044Z</time></trkpt><trkpt lat="45.3446324" lon="13.7866971"><ele>7.3999999999999995</ele><time>2026-04-12T12:13:38.046Z</time></trkpt><trkpt lat="45.3446682" lon="13.7865897"><ele>7.6000000000000005</ele><time>2026-04-12T12:13:39.041Z</time></trkpt><trkpt lat="45.3447126" lon="13.7864782"><ele>7.800000000000001</ele><time>2026-04-12T12:13:40.044Z</time></trkpt><trkpt lat="45.3447625" lon="13.7863744"><ele>8.0</ele><time>2026-04-12T12:13:41.048Z</time></trkpt><trkpt lat="45.3448126" lon="13.7862634"><ele>8.0</ele><time>2026-04-12T12:13:42.052Z</time></trkpt><trkpt lat="45.3448604" lon="13.7861516"><ele>8.0</ele><time>2026-04-12T12:13:43.045Z</time></trkpt><trkpt lat="45.3449014" lon="13.7860331"><ele>8.0</ele><time>2026-04-12T12:13:44.047Z</time></trkpt><trkpt lat="45.3449492" lon="13.7859104"><ele>8.0</ele><time>2026-04-12T12:13:45.044Z</time></trkpt><trkpt lat="45.3449992" lon="13.7857881"><ele>8.0</ele><time>2026-04-12T12:13:46.046Z</time></trkpt><trkpt lat="45.3450471" lon="13.7856661"><ele>7.800000000000001</ele><time>2026-04-12T12:13:47.043Z</time></trkpt><trkpt lat="45.3450918" lon="13.7855522"><ele>7.6000000000000005</ele><time>2026-04-12T12:13:48.045Z</time></trkpt><trkpt lat="45.3451332" lon="13.7854307"><ele>7.3999999999999995</ele><time>2026-04-12T12:13:49.042Z</time></trkpt><trkpt lat="45.345174" lon="13.7853036"><ele>7.199999999999999</ele><time>2026-04-12T12:13:50.044Z</time></trkpt><trkpt lat="45.3452119" lon="13.785175"><ele>7.0</ele><time>2026-04-12T12:13:51.042Z</time></trkpt><trkpt lat="45.3452516" lon="13.7850525"><ele>7.000000000000001</ele><time>2026-04-12T12:13:52.043Z</time></trkpt><trkpt lat="45.3452927" lon="13.784932"><ele>7.0</ele><time>2026-04-12T12:13:53.046Z</time></trkpt><trkpt lat="45.3453317" lon="13.7848299"><ele>7.0</ele><time>2026-04-12T12:13:54.046Z</time></trkpt><trkpt lat="45.3453712" lon="13.784732"><ele>7.0</ele><time>2026-04-12T12:13:55.048Z</time></trkpt><trkpt lat="45.3454248" lon="13.7846265"><ele>7.000000000000001</ele><time>2026-04-12T12:13:56.047Z</time></trkpt><trkpt lat="45.3454721" lon="13.7845042"><ele>7.0</ele><time>2026-04-12T12:13:57.056Z</time></trkpt><trkpt lat="45.345519" lon="13.784383"><ele>7.3999999999999995</ele><time>2026-04-12T12:13:58.048Z</time></trkpt><trkpt lat="45.3455617" lon="13.7842672"><ele>7.799999999999999</ele><time>2026-04-12T12:13:59.049Z</time></trkpt><trkpt lat="45.3456025" lon="13.7841388"><ele>8.2</ele><time>2026-04-12T12:14:00.051Z</time></trkpt><trkpt lat="45.3456466" lon="13.784024"><ele>8.6</ele><time>2026-04-12T12:14:01.045Z</time></trkpt><trkpt lat="45.3456941" lon="13.7839156"><ele>9.0</ele><time>2026-04-12T12:14:02.051Z</time></trkpt><trkpt lat="45.3457442" lon="13.7837989"><ele>9.0</ele><time>2026-04-12T12:14:03.045Z</time></trkpt><trkpt lat="45.3457906" lon="13.783692"><ele>9.0</ele><time>2026-04-12T12:14:04.043Z</time></trkpt><trkpt lat="45.3458322" lon="13.7835683"><ele>9.0</ele><time>2026-04-12T12:14:05.041Z</time></trkpt><trkpt lat="45.3458779" lon="13.7834427"><ele>9.0</ele><time>2026-04-12T12:14:06.044Z</time></trkpt><trkpt lat="45.3459223" lon="13.7833198"><ele>9.0</ele><time>2026-04-12T12:14:07.043Z</time></trkpt><trkpt lat="45.3459707" lon="13.7832005"><ele>9.0</ele><time>2026-04-12T12:14:08.047Z</time></trkpt><trkpt lat="45.3460152" lon="13.7830752"><ele>9.0</ele><time>2026-04-12T12:14:09.046Z</time></trkpt><trkpt lat="45.3460629" lon="13.7829501"><ele>9.0</ele><time>2026-04-12T12:14:10.044Z</time></trkpt><trkpt lat="45.3461026" lon="13.7828257"><ele>9.0</ele><time>2026-04-12T12:14:11.046Z</time></trkpt><trkpt lat="45.346144" lon="13.7826981"><ele>9.0</ele><time>2026-04-12T12:14:12.05Z</time></trkpt><trkpt lat="45.3461836" lon="13.7825816"><ele>9.166666666666666</ele><time>2026-04-12T12:14:13.043Z</time></trkpt><trkpt lat="45.3462311" lon="13.7824738"><ele>9.333333333333334</ele><time>2026-04-12T12:14:14.044Z</time></trkpt><trkpt lat="45.3462694" lon="13.7823821"><ele>9.5</ele><time>2026-04-12T12:14:15.049Z</time></trkpt><trkpt lat="45.3462994" lon="13.7822895"><ele>9.666666666666668</ele><time>2026-04-12T12:14:16.042Z</time></trkpt><trkpt lat="45.3463394" lon="13.7821928"><ele>9.833333333333334</ele><time>2026-04-12T12:14:17.045Z</time></trkpt><trkpt lat="45.3463725" lon="13.782105"><ele>10.0</ele><time>2026-04-12T12:14:18.046Z</time></trkpt><trkpt lat="45.346411" lon="13.7820284"><ele>10.0</ele><time>2026-04-12T12:14:19.047Z</time></trkpt><trkpt lat="45.346448" lon="13.7819448"><ele>10.0</ele><time>2026-04-12T12:14:20.048Z</time></trkpt><trkpt lat="45.3464803" lon="13.7818337"><ele>10.0</ele><time>2026-04-12T12:14:21.051Z</time></trkpt><trkpt lat="45.3465136" lon="13.7817242"><ele>10.0</ele><time>2026-04-12T12:14:22.048Z</time></trkpt><trkpt lat="45.3465465" lon="13.7816111"><ele>10.0</ele><time>2026-04-12T12:14:23.042Z</time></trkpt><trkpt lat="45.3465855" lon="13.781509"><ele>10.0</ele><time>2026-04-12T12:14:24.047Z</time></trkpt><trkpt lat="45.3466278" lon="13.7814114"><ele>10.333333333333334</ele><time>2026-04-12T12:14:25.043Z</time></trkpt><trkpt lat="45.3466641" lon="13.7813194"><ele>10.666666666666668</ele><time>2026-04-12T12:14:26.043Z</time></trkpt><trkpt lat="45.346705" lon="13.7812152"><ele>11.0</ele><time>2026-04-12T12:14:27.044Z</time></trkpt><trkpt lat="45.3467434" lon="13.781116"><ele>11.333333333333334</ele><time>2026-04-12T12:14:28.044Z</time></trkpt><trkpt lat="45.3467794" lon="13.7810416"><ele>11.666666666666666</ele><time>2026-04-12T12:14:29.047Z</time></trkpt><trkpt lat="45.3468477" lon="13.7809112"><ele>12.0</ele><time>2026-04-12T12:14:31.046Z</time></trkpt><trkpt lat="45.3468785" lon="13.780826"><ele>12.5</ele><time>2026-04-12T12:14:32.044Z</time></trkpt><trkpt lat="45.3469134" lon="13.7807349"><ele>13.0</ele><time>2026-04-12T12:14:33.043Z</time></trkpt><trkpt lat="45.346951" lon="13.7806296"><ele>13.5</ele><time>2026-04-12T12:14:34.049Z</time></trkpt><trkpt lat="45.3469823" lon="13.7805152"><ele>14.0</ele><time>2026-04-12T12:14:35.054Z</time></trkpt><trkpt lat="45.3470125" lon="13.7804087"><ele>14.5</ele><time>2026-04-12T12:14:36.05Z</time></trkpt><trkpt lat="45.3470517" lon="13.7803108"><ele>15.0</ele><time>2026-04-12T12:14:37.046Z</time></trkpt><trkpt lat="45.3470906" lon="13.7802176"><ele>16.0</ele><time>2026-04-12T12:14:38.052Z</time></trkpt><trkpt lat="45.3471259" lon="13.7801195"><ele>17.0</ele><time>2026-04-12T12:14:39.046Z</time></trkpt><trkpt lat="45.3471626" lon="13.7800215"><ele>18.0</ele><time>2026-04-12T12:14:40.046Z</time></trkpt><trkpt lat="45.3471899" lon="13.7799281"><ele>19.0</ele><time>2026-04-12T12:14:41.045Z</time></trkpt><trkpt lat="45.347208" lon="13.7798392"><ele>20.0</ele><time>2026-04-12T12:14:42.05Z</time></trkpt><trkpt lat="45.3472236" lon="13.7796651"><ele>21.0</ele><time>2026-04-12T12:14:44.045Z</time></trkpt><trkpt lat="45.3472391" lon="13.7795657"><ele>19.5</ele><time>2026-04-12T12:14:45.047Z</time></trkpt><trkpt lat="45.3472749" lon="13.7794665"><ele>18.0</ele><time>2026-04-12T12:14:46.048Z</time></trkpt><trkpt lat="45.3473112" lon="13.7793626"><ele>16.5</ele><time>2026-04-12T12:14:47.047Z</time></trkpt><trkpt lat="45.3473483" lon="13.7792616"><ele>15.0</ele><time>2026-04-12T12:14:48.054Z</time></trkpt><trkpt lat="45.3473911" lon="13.7791482"><ele>13.5</ele><time>2026-04-12T12:14:49.049Z</time></trkpt><trkpt lat="45.347439" lon="13.7790452"><ele>12.0</ele><time>2026-04-12T12:14:50.05Z</time></trkpt><trkpt lat="45.3474708" lon="13.7789339"><ele>12.0</ele><time>2026-04-12T12:14:51.049Z</time></trkpt><trkpt lat="45.3475063" lon="13.7788188"><ele>12.0</ele><time>2026-04-12T12:14:52.048Z</time></trkpt><trkpt lat="45.3475357" lon="13.778696"><ele>12.0</ele><time>2026-04-12T12:14:53.046Z</time></trkpt><trkpt lat="45.3475806" lon="13.7785853"><ele>12.0</ele><time>2026-04-12T12:14:54.054Z</time></trkpt><trkpt lat="45.3476236" lon="13.7784809"><ele>12.0</ele><time>2026-04-12T12:14:55.048Z</time></trkpt><trkpt lat="45.3476735" lon="13.7783664"><ele>12.0</ele><time>2026-04-12T12:14:56.051Z</time></trkpt><trkpt lat="45.34772" lon="13.7782445"><ele>12.2</ele><time>2026-04-12T12:14:57.048Z</time></trkpt><trkpt lat="45.3477652" lon="13.7781113"><ele>12.399999999999999</ele><time>2026-04-12T12:14:58.046Z</time></trkpt><trkpt lat="45.3478046" lon="13.7779919"><ele>12.600000000000001</ele><time>2026-04-12T12:14:59.047Z</time></trkpt><trkpt lat="45.3478537" lon="13.7778769"><ele>12.8</ele><time>2026-04-12T12:15:00.047Z</time></trkpt><trkpt lat="45.347891" lon="13.7777584"><ele>13.0</ele><time>2026-04-12T12:15:01.048Z</time></trkpt><trkpt lat="45.3479316" lon="13.777644"><ele>13.499999999999998</ele><time>2026-04-12T12:15:02.047Z</time></trkpt><trkpt lat="45.3479774" lon="13.7775422"><ele>14.0</ele><time>2026-04-12T12:15:03.048Z</time></trkpt><trkpt lat="45.3480177" lon="13.7774525"><ele>14.5</ele><time>2026-04-12T12:15:04.044Z</time></trkpt><trkpt lat="45.3480591" lon="13.7773564"><ele>15.0</ele><time>2026-04-12T12:15:05.044Z</time></trkpt><trkpt lat="45.3481101" lon="13.7772687"><ele>15.499999999999998</ele><time>2026-04-12T12:15:06.046Z</time></trkpt><trkpt lat="45.348155" lon="13.7771771"><ele>16.0</ele><time>2026-04-12T12:15:07.048Z</time></trkpt><trkpt lat="45.3481968" lon="13.7770928"><ele>15.0</ele><time>2026-04-12T12:15:08.053Z</time></trkpt><trkpt lat="45.348246" lon="13.7769843"><ele>14.000000000000002</ele><time>2026-04-12T12:15:09.047Z</time></trkpt><trkpt lat="45.3482941" lon="13.7768635"><ele>13.0</ele><time>2026-04-12T12:15:10.043Z</time></trkpt><trkpt lat="45.348345" lon="13.7767389"><ele>12.0</ele><time>2026-04-12T12:15:11.044Z</time></trkpt><trkpt lat="45.3483871" lon="13.7766136"><ele>11.0</ele><time>2026-04-12T12:15:12.045Z</time></trkpt><trkpt lat="45.3484316" lon="13.7764973"><ele>11.0</ele><time>2026-04-12T12:15:13.055Z</time></trkpt><trkpt lat="45.348476" lon="13.7763799"><ele>11.0</ele><time>2026-04-12T12:15:14.043Z</time></trkpt><trkpt lat="45.3485216" lon="13.7762523"><ele>11.0</ele><time>2026-04-12T12:15:15.046Z</time></trkpt><trkpt lat="45.3485665" lon="13.7761262"><ele>11.0</ele><time>2026-04-12T12:15:16.05Z</time></trkpt><trkpt lat="45.3486035" lon="13.7759989"><ele>11.0</ele><time>2026-04-12T12:15:17.043Z</time></trkpt><trkpt lat="45.3486605" lon="13.775867"><ele>10.200000000000001</ele><time>2026-04-12T12:15:18.045Z</time></trkpt><trkpt lat="45.3487091" lon="13.7757377"><ele>9.4</ele><time>2026-04-12T12:15:19.042Z</time></trkpt><trkpt lat="45.3487642" lon="13.7756106"><ele>8.6</ele><time>2026-04-12T12:15:20.046Z</time></trkpt><trkpt lat="45.3488181" lon="13.7754842"><ele>7.8</ele><time>2026-04-12T12:15:21.045Z</time></trkpt><trkpt lat="45.3488648" lon="13.7753543"><ele>7.0</ele><time>2026-04-12T12:15:22.045Z</time></trkpt><trkpt lat="45.3489113" lon="13.7752261"><ele>7.166666666666667</ele><time>2026-04-12T12:15:23.046Z</time></trkpt><trkpt lat="45.3489553" lon="13.7751223"><ele>7.333333333333334</ele><time>2026-04-12T12:15:24.044Z</time></trkpt><trkpt lat="45.3489883" lon="13.7750353"><ele>7.5</ele><time>2026-04-12T12:15:25.049Z</time></trkpt><trkpt lat="45.3490421" lon="13.7748945"><ele>7.666666666666666</ele><time>2026-04-12T12:15:27.047Z</time></trkpt><trkpt lat="45.3490871" lon="13.7748059"><ele>7.833333333333333</ele><time>2026-04-12T12:15:29.045Z</time></trkpt><trkpt lat="45.3491273" lon="13.7746777"><ele>8.0</ele><time>2026-04-12T12:15:32.051Z</time></trkpt><trkpt lat="45.3491524" lon="13.774581"><ele>7.999999999999999</ele><time>2026-04-12T12:15:34.047Z</time></trkpt><trkpt lat="45.3491971" lon="13.7744639"><ele>8.0</ele><time>2026-04-12T12:15:36.046Z</time></trkpt><trkpt lat="45.3492334" lon="13.7743769"><ele>8.0</ele><time>2026-04-12T12:15:37.05Z</time></trkpt><trkpt lat="45.3492722" lon="13.7742783"><ele>8.0</ele><time>2026-04-12T12:15:38.051Z</time></trkpt><trkpt lat="45.349319" lon="13.7741631"><ele>7.999999999999999</ele><time>2026-04-12T12:15:39.047Z</time></trkpt><trkpt lat="45.3493629" lon="13.7740432"><ele>8.0</ele><time>2026-04-12T12:15:40.043Z</time></trkpt><trkpt lat="45.3494042" lon="13.7739222"><ele>9.0</ele><time>2026-04-12T12:15:41.046Z</time></trkpt><trkpt lat="45.3494385" lon="13.7738021"><ele>10.0</ele><time>2026-04-12T12:15:42.044Z</time></trkpt><trkpt lat="45.3494815" lon="13.7736807"><ele>11.0</ele><time>2026-04-12T12:15:43.047Z</time></trkpt><trkpt lat="45.3495291" lon="13.7735607"><ele>12.0</ele><time>2026-04-12T12:15:44.044Z</time></trkpt><trkpt lat="45.3495674" lon="13.7734349"><ele>13.0</ele><time>2026-04-12T12:15:45.046Z</time></trkpt><trkpt lat="45.349617" lon="13.7733048"><ele>13.4</ele><time>2026-04-12T12:15:46.044Z</time></trkpt><trkpt lat="45.3496614" lon="13.7731815"><ele>13.8</ele><time>2026-04-12T12:15:47.044Z</time></trkpt><trkpt lat="45.349708" lon="13.7730601"><ele>14.2</ele><time>2026-04-12T12:15:48.045Z</time></trkpt><trkpt lat="45.349752" lon="13.7729418"><ele>14.6</ele><time>2026-04-12T12:15:49.051Z</time></trkpt><trkpt lat="45.3497991" lon="13.7728169"><ele>15.0</ele><time>2026-04-12T12:15:50.042Z</time></trkpt><trkpt lat="45.3498412" lon="13.7726811"><ele>14.0</ele><time>2026-04-12T12:15:51.046Z</time></trkpt><trkpt lat="45.3498869" lon="13.7725517"><ele>13.0</ele><time>2026-04-12T12:15:52.047Z</time></trkpt><trkpt lat="45.3499388" lon="13.7724219"><ele>12.0</ele><time>2026-04-12T12:15:53.046Z</time></trkpt><trkpt lat="45.3499956" lon="13.77228"><ele>11.0</ele><time>2026-04-12T12:15:54.048Z</time></trkpt><trkpt lat="45.350045" lon="13.7721374"><ele>10.0</ele><time>2026-04-12T12:15:55.043Z</time></trkpt><trkpt lat="45.3500902" lon="13.7719933"><ele>10.4</ele><time>2026-04-12T12:15:56.045Z</time></trkpt><trkpt lat="45.3501409" lon="13.7718512"><ele>10.8</ele><time>2026-04-12T12:15:57.049Z</time></trkpt><trkpt lat="45.3501818" lon="13.7717068"><ele>11.2</ele><time>2026-04-12T12:15:58.044Z</time></trkpt><trkpt lat="45.350224" lon="13.7715624"><ele>11.6</ele><time>2026-04-12T12:15:59.048Z</time></trkpt><trkpt lat="45.350278" lon="13.7714217"><ele>12.0</ele><time>2026-04-12T12:16:00.043Z</time></trkpt><trkpt lat="45.3503162" lon="13.771279"><ele>12.0</ele><time>2026-04-12T12:16:01.043Z</time></trkpt><trkpt lat="45.3503496" lon="13.7711306"><ele>12.0</ele><time>2026-04-12T12:16:02.045Z</time></trkpt><trkpt lat="45.3503888" lon="13.7709784"><ele>12.0</ele><time>2026-04-12T12:16:03.043Z</time></trkpt><trkpt lat="45.3504198" lon="13.7708321"><ele>12.0</ele><time>2026-04-12T12:16:04.043Z</time></trkpt><trkpt lat="45.3504447" lon="13.7706846"><ele>12.0</ele><time>2026-04-12T12:16:05.044Z</time></trkpt><trkpt lat="45.3504751" lon="13.7705319"><ele>12.25</ele><time>2026-04-12T12:16:06.046Z</time></trkpt><trkpt lat="45.3505013" lon="13.7703735"><ele>12.5</ele><time>2026-04-12T12:16:07.044Z</time></trkpt><trkpt lat="45.3505274" lon="13.7702064"><ele>12.75</ele><time>2026-04-12T12:16:08.046Z</time></trkpt><trkpt lat="45.3505533" lon="13.7700435"><ele>13.0</ele><time>2026-04-12T12:16:09.042Z</time></trkpt><trkpt lat="45.3505638" lon="13.7698956"><ele>12.0</ele><time>2026-04-12T12:16:10.042Z</time></trkpt><trkpt lat="45.3505732" lon="13.7697701"><ele>11.0</ele><time>2026-04-12T12:16:11.047Z</time></trkpt><trkpt lat="45.3505722" lon="13.7696319"><ele>10.0</ele><time>2026-04-12T12:16:12.05Z</time></trkpt><trkpt lat="45.3505856" lon="13.7694945"><ele>9.0</ele><time>2026-04-12T12:16:13.046Z</time></trkpt><trkpt lat="45.350588" lon="13.7693434"><ele>8.0</ele><time>2026-04-12T12:16:14.047Z</time></trkpt><trkpt lat="45.3505891" lon="13.7691868"><ele>8.0</ele><time>2026-04-12T12:16:15.046Z</time></trkpt><trkpt lat="45.3505841" lon="13.7690282"><ele>8.0</ele><time>2026-04-12T12:16:16.05Z</time></trkpt><trkpt lat="45.3505688" lon="13.7688703"><ele>8.0</ele><time>2026-04-12T12:16:17.044Z</time></trkpt><trkpt lat="45.350556" lon="13.7687121"><ele>8.0</ele><time>2026-04-12T12:16:18.052Z</time></trkpt><trkpt lat="45.3505429" lon="13.7685736"><ele>8.0</ele><time>2026-04-12T12:16:19.043Z</time></trkpt><trkpt lat="45.3505402" lon="13.7684486"><ele>11.666666666666666</ele><time>2026-04-12T12:16:20.055Z</time></trkpt><trkpt lat="45.3505343" lon="13.7683394"><ele>15.333333333333332</ele><time>2026-04-12T12:16:21.053Z</time></trkpt><trkpt lat="45.3505281" lon="13.7682007"><ele>19.0</ele><time>2026-04-12T12:16:23.046Z</time></trkpt><trkpt lat="45.3505074" lon="13.7680749"><ele>22.666666666666668</ele><time>2026-04-12T12:16:25.047Z</time></trkpt><trkpt lat="45.3504916" lon="13.7679764"><ele>26.333333333333332</ele><time>2026-04-12T12:16:26.045Z</time></trkpt><trkpt lat="45.3504539" lon="13.7678547"><ele>30.0</ele><time>2026-04-12T12:16:27.048Z</time></trkpt><trkpt lat="45.3504453" lon="13.7677203"><ele>30.2</ele><time>2026-04-12T12:16:28.055Z</time></trkpt><trkpt lat="45.350439" lon="13.7675824"><ele>30.4</ele><time>2026-04-12T12:16:29.046Z</time></trkpt><trkpt lat="45.3504359" lon="13.7674574"><ele>30.6</ele><time>2026-04-12T12:16:30.043Z</time></trkpt><trkpt lat="45.3504356" lon="13.7673261"><ele>30.8</ele><time>2026-04-12T12:16:31.044Z</time></trkpt><trkpt lat="45.3504176" lon="13.7671866"><ele>31.0</ele><time>2026-04-12T12:16:32.048Z</time></trkpt><trkpt lat="45.3503984" lon="13.7670619"><ele>31.000000000000004</ele><time>2026-04-12T12:16:33.042Z</time></trkpt><trkpt lat="45.3503707" lon="13.766929"><ele>31.0</ele><time>2026-04-12T12:16:34.045Z</time></trkpt><trkpt lat="45.3503723" lon="13.7668299"><ele>31.0</ele><time>2026-04-12T12:16:35.045Z</time></trkpt><trkpt lat="45.3503787" lon="13.7666725"><ele>31.0</ele><time>2026-04-12T12:16:37.048Z</time></trkpt><trkpt lat="45.3503839" lon="13.7665729"><ele>31.000000000000004</ele><time>2026-04-12T12:16:38.042Z</time></trkpt><trkpt lat="45.3503793" lon="13.7664648"><ele>31.0</ele><time>2026-04-12T12:16:39.043Z</time></trkpt><trkpt lat="45.3503698" lon="13.7663579"><ele>30.8</ele><time>2026-04-12T12:16:40.044Z</time></trkpt><trkpt lat="45.3503563" lon="13.7662324"><ele>30.6</ele><time>2026-04-12T12:16:41.045Z</time></trkpt><trkpt lat="45.3503429" lon="13.7660971"><ele>30.4</ele><time>2026-04-12T12:16:42.043Z</time></trkpt><trkpt lat="45.3503304" lon="13.7659611"><ele>30.2</ele><time>2026-04-12T12:16:43.044Z</time></trkpt><trkpt lat="45.3503206" lon="13.7658229"><ele>30.0</ele><time>2026-04-12T12:16:44.044Z</time></trkpt><trkpt lat="45.3503006" lon="13.7656769"><ele>28.2</ele><time>2026-04-12T12:16:45.043Z</time></trkpt><trkpt lat="45.3502955" lon="13.7655361"><ele>26.4</ele><time>2026-04-12T12:16:46.047Z</time></trkpt><trkpt lat="45.3502849" lon="13.765402"><ele>24.6</ele><time>2026-04-12T12:16:47.045Z</time></trkpt><trkpt lat="45.350277" lon="13.765284"><ele>22.8</ele><time>2026-04-12T12:16:48.046Z</time></trkpt><trkpt lat="45.3502729" lon="13.7651889"><ele>21.0</ele><time>2026-04-12T12:16:49.046Z</time></trkpt><trkpt lat="45.3502709" lon="13.7649999"><ele>20.333333333333332</ele><time>2026-04-12T12:16:51.051Z</time></trkpt><trkpt lat="45.3502678" lon="13.7648808"><ele>19.666666666666668</ele><time>2026-04-12T12:16:52.044Z</time></trkpt><trkpt lat="45.3502583" lon="13.7647498"><ele>19.0</ele><time>2026-04-12T12:16:53.048Z</time></trkpt><trkpt lat="45.3502447" lon="13.7646368"><ele>18.333333333333336</ele><time>2026-04-12T12:16:54.051Z</time></trkpt><trkpt lat="45.3502306" lon="13.7645222"><ele>17.666666666666668</ele><time>2026-04-12T12:16:55.044Z</time></trkpt><trkpt lat="45.3502265" lon="13.7644021"><ele>17.0</ele><time>2026-04-12T12:16:56.043Z</time></trkpt><trkpt lat="45.3502128" lon="13.7642789"><ele>16.6</ele><time>2026-04-12T12:16:57.049Z</time></trkpt><trkpt lat="45.3501992" lon="13.7641506"><ele>16.2</ele><time>2026-04-12T12:16:58.044Z</time></trkpt><trkpt lat="45.3501904" lon="13.7640151"><ele>15.8</ele><time>2026-04-12T12:16:59.052Z</time></trkpt><trkpt lat="45.3501807" lon="13.7638814"><ele>15.4</ele><time>2026-04-12T12:17:00.047Z</time></trkpt><trkpt lat="45.3501727" lon="13.7637473"><ele>15.0</ele><time>2026-04-12T12:17:01.054Z</time></trkpt><trkpt lat="45.3501555" lon="13.7636182"><ele>14.0</ele><time>2026-04-12T12:17:02.044Z</time></trkpt><trkpt lat="45.3501362" lon="13.7634844"><ele>13.0</ele><time>2026-04-12T12:17:03.046Z</time></trkpt><trkpt lat="45.3501165" lon="13.7633509"><ele>12.0</ele><time>2026-04-12T12:17:04.049Z</time></trkpt><trkpt lat="45.3501113" lon="13.7632135"><ele>11.0</ele><time>2026-04-12T12:17:05.042Z</time></trkpt><trkpt lat="45.3501085" lon="13.7630692"><ele>10.0</ele><time>2026-04-12T12:17:06.041Z</time></trkpt><trkpt lat="45.3501006" lon="13.7629254"><ele>10.0</ele><time>2026-04-12T12:17:07.046Z</time></trkpt><trkpt lat="45.3500862" lon="13.762782"><ele>10.0</ele><time>2026-04-12T12:17:08.047Z</time></trkpt><trkpt lat="45.3500742" lon="13.7626247"><ele>10.0</ele><time>2026-04-12T12:17:09.045Z</time></trkpt><trkpt lat="45.3500662" lon="13.7624653"><ele>10.0</ele><time>2026-04-12T12:17:10.044Z</time></trkpt><trkpt lat="45.3500552" lon="13.7623056"><ele>10.0</ele><time>2026-04-12T12:17:11.045Z</time></trkpt><trkpt lat="45.3500461" lon="13.762146"><ele>10.0</ele><time>2026-04-12T12:17:12.049Z</time></trkpt><trkpt lat="45.3500323" lon="13.7619985"><ele>10.0</ele><time>2026-04-12T12:17:13.053Z</time></trkpt><trkpt lat="45.3500208" lon="13.7618482"><ele>10.0</ele><time>2026-04-12T12:17:14.045Z</time></trkpt><trkpt lat="45.3500084" lon="13.7616792"><ele>10.0</ele><time>2026-04-12T12:17:15.046Z</time></trkpt><trkpt lat="45.3499952" lon="13.7615157"><ele>10.0</ele><time>2026-04-12T12:17:16.044Z</time></trkpt><trkpt lat="45.3499764" lon="13.7613569"><ele>9.8</ele><time>2026-04-12T12:17:17.049Z</time></trkpt><trkpt lat="45.3499588" lon="13.7611935"><ele>9.6</ele><time>2026-04-12T12:17:18.043Z</time></trkpt><trkpt lat="45.3499446" lon="13.7610343"><ele>9.4</ele><time>2026-04-12T12:17:19.043Z</time></trkpt><trkpt lat="45.3499345" lon="13.7608826"><ele>9.2</ele><time>2026-04-12T12:17:20.047Z</time></trkpt><trkpt lat="45.3499189" lon="13.7607266"><ele>9.0</ele><time>2026-04-12T12:17:21.044Z</time></trkpt><trkpt lat="45.3499064" lon="13.7605664"><ele>8.6</ele><time>2026-04-12T12:17:22.044Z</time></trkpt><trkpt lat="45.3498983" lon="13.7604068"><ele>8.2</ele><time>2026-04-12T12:17:23.05Z</time></trkpt><trkpt lat="45.3498854" lon="13.760246"><ele>7.799999999999999</ele><time>2026-04-12T12:17:24.044Z</time></trkpt><trkpt lat="45.3498706" lon="13.7600938"><ele>7.3999999999999995</ele><time>2026-04-12T12:17:25.05Z</time></trkpt><trkpt lat="45.3498624" lon="13.7599528"><ele>7.0</ele><time>2026-04-12T12:17:26.046Z</time></trkpt><trkpt lat="45.3498704" lon="13.7598005"><ele>6.75</ele><time>2026-04-12T12:17:27.044Z</time></trkpt><trkpt lat="45.3498823" lon="13.7596348"><ele>6.5</ele><time>2026-04-12T12:17:28.042Z</time></trkpt><trkpt lat="45.3498909" lon="13.7594655"><ele>6.25</ele><time>2026-04-12T12:17:29.045Z</time></trkpt><trkpt lat="45.3498961" lon="13.7593123"><ele>6.0</ele><time>2026-04-12T12:17:30.045Z</time></trkpt><trkpt lat="45.3499089" lon="13.7591527"><ele>5.8</ele><time>2026-04-12T12:17:31.046Z</time></trkpt><trkpt lat="45.3499351" lon="13.7589999"><ele>5.6</ele><time>2026-04-12T12:17:32.044Z</time></trkpt><trkpt lat="45.3499555" lon="13.7588734"><ele>5.4</ele><time>2026-04-12T12:17:33.053Z</time></trkpt><trkpt lat="45.3499774" lon="13.7587391"><ele>5.2</ele><time>2026-04-12T12:17:34.047Z</time></trkpt><trkpt lat="45.3500041" lon="13.758587"><ele>5.0</ele><time>2026-04-12T12:17:35.042Z</time></trkpt><trkpt lat="45.350038" lon="13.7584355"><ele>5.4</ele><time>2026-04-12T12:17:36.044Z</time></trkpt><trkpt lat="45.3500725" lon="13.7582928"><ele>5.8</ele><time>2026-04-12T12:17:37.047Z</time></trkpt><trkpt lat="45.350112" lon="13.7581466"><ele>6.199999999999999</ele><time>2026-04-12T12:17:38.043Z</time></trkpt><trkpt lat="45.3501438" lon="13.7579943"><ele>6.6</ele><time>2026-04-12T12:17:39.047Z</time></trkpt><trkpt lat="45.3501867" lon="13.7578533"><ele>7.0</ele><time>2026-04-12T12:17:40.043Z</time></trkpt><trkpt lat="45.3502346" lon="13.7577089"><ele>7.3999999999999995</ele><time>2026-04-12T12:17:41.042Z</time></trkpt><trkpt lat="45.3502752" lon="13.7575745"><ele>7.799999999999999</ele><time>2026-04-12T12:17:42.043Z</time></trkpt><trkpt lat="45.3503264" lon="13.7574473"><ele>8.2</ele><time>2026-04-12T12:17:43.044Z</time></trkpt><trkpt lat="45.3503849" lon="13.7573257"><ele>8.6</ele><time>2026-04-12T12:17:44.046Z</time></trkpt><trkpt lat="45.3504375" lon="13.7572034"><ele>9.0</ele><time>2026-04-12T12:17:45.045Z</time></trkpt><trkpt lat="45.3504824" lon="13.7570715"><ele>9.0</ele><time>2026-04-12T12:17:46.047Z</time></trkpt><trkpt lat="45.3505398" lon="13.7569344"><ele>9.0</ele><time>2026-04-12T12:17:47.045Z</time></trkpt><trkpt lat="45.3505865" lon="13.756799"><ele>9.0</ele><time>2026-04-12T12:17:48.041Z</time></trkpt><trkpt lat="45.3506215" lon="13.7566622"><ele>9.0</ele><time>2026-04-12T12:17:49.043Z</time></trkpt><trkpt lat="45.3506533" lon="13.7565297"><ele>9.0</ele><time>2026-04-12T12:17:50.045Z</time></trkpt><trkpt lat="45.3507009" lon="13.7564037"><ele>8.6</ele><time>2026-04-12T12:17:51.042Z</time></trkpt><trkpt lat="45.3507531" lon="13.7562817"><ele>8.2</ele><time>2026-04-12T12:17:52.043Z</time></trkpt><trkpt lat="45.3508152" lon="13.756158"><ele>7.799999999999999</ele><time>2026-04-12T12:17:53.046Z</time></trkpt><trkpt lat="45.3508819" lon="13.7560431"><ele>7.3999999999999995</ele><time>2026-04-12T12:17:54.045Z</time></trkpt><trkpt lat="45.3509445" lon="13.7559208"><ele>7.0</ele><time>2026-04-12T12:17:55.043Z</time></trkpt><trkpt lat="45.3510025" lon="13.7557869"><ele>7.0</ele><time>2026-04-12T12:17:56.048Z</time></trkpt><trkpt lat="45.3510549" lon="13.7556506"><ele>6.999999999999999</ele><time>2026-04-12T12:17:57.054Z</time></trkpt><trkpt lat="45.3511113" lon="13.7555135"><ele>6.999999999999999</ele><time>2026-04-12T12:17:58.046Z</time></trkpt><trkpt lat="45.3511633" lon="13.7553852"><ele>7.0</ele><time>2026-04-12T12:17:59.053Z</time></trkpt><trkpt lat="45.3512178" lon="13.7552478"><ele>7.0</ele><time>2026-04-12T12:18:00.047Z</time></trkpt><trkpt lat="45.3512697" lon="13.7551163"><ele>6.6</ele><time>2026-04-12T12:18:01.044Z</time></trkpt><trkpt lat="45.3513313" lon="13.7549797"><ele>6.199999999999999</ele><time>2026-04-12T12:18:02.048Z</time></trkpt><trkpt lat="45.3513963" lon="13.7548484"><ele>5.8</ele><time>2026-04-12T12:18:03.043Z</time></trkpt><trkpt lat="45.3514579" lon="13.7547147"><ele>5.4</ele><time>2026-04-12T12:18:04.042Z</time></trkpt><trkpt lat="45.3515044" lon="13.7545759"><ele>5.0</ele><time>2026-04-12T12:18:05.045Z</time></trkpt><trkpt lat="45.3515487" lon="13.7544341"><ele>6.0</ele><time>2026-04-12T12:18:06.057Z</time></trkpt><trkpt lat="45.3515927" lon="13.7543012"><ele>7.0</ele><time>2026-04-12T12:18:07.045Z</time></trkpt><trkpt lat="45.3516367" lon="13.7541891"><ele>8.0</ele><time>2026-04-12T12:18:08.045Z</time></trkpt><trkpt lat="45.3516862" lon="13.7540909"><ele>9.0</ele><time>2026-04-12T12:18:09.043Z</time></trkpt><trkpt lat="45.3517429" lon="13.7539787"><ele>10.0</ele><time>2026-04-12T12:18:10.043Z</time></trkpt><trkpt lat="45.3517978" lon="13.7538477"><ele>10.0</ele><time>2026-04-12T12:18:11.046Z</time></trkpt><trkpt lat="45.3518419" lon="13.7536957"><ele>10.0</ele><time>2026-04-12T12:18:12.045Z</time></trkpt><trkpt lat="45.3518852" lon="13.7535454"><ele>10.0</ele><time>2026-04-12T12:18:13.052Z</time></trkpt><trkpt lat="45.3519303" lon="13.7534107"><ele>10.0</ele><time>2026-04-12T12:18:14.044Z</time></trkpt><trkpt lat="45.3519836" lon="13.7532769"><ele>10.0</ele><time>2026-04-12T12:18:15.041Z</time></trkpt><trkpt lat="45.3520472" lon="13.7531347"><ele>9.25</ele><time>2026-04-12T12:18:16.048Z</time></trkpt><trkpt lat="45.352112" lon="13.7529929"><ele>8.5</ele><time>2026-04-12T12:18:17.043Z</time></trkpt><trkpt lat="45.3521652" lon="13.7528494"><ele>7.75</ele><time>2026-04-12T12:18:18.043Z</time></trkpt><trkpt lat="45.3522187" lon="13.7527009"><ele>7.0</ele><time>2026-04-12T12:18:19.044Z</time></trkpt><trkpt lat="45.352264" lon="13.7525612"><ele>7.0</ele><time>2026-04-12T12:18:20.049Z</time></trkpt><trkpt lat="45.3522955" lon="13.7524282"><ele>6.999999999999999</ele><time>2026-04-12T12:18:21.041Z</time></trkpt><trkpt lat="45.3523212" lon="13.7522896"><ele>6.999999999999999</ele><time>2026-04-12T12:18:22.045Z</time></trkpt><trkpt lat="45.3523407" lon="13.7521512"><ele>7.0</ele><time>2026-04-12T12:18:23.044Z</time></trkpt><trkpt lat="45.352355" lon="13.7520193"><ele>7.0</ele><time>2026-04-12T12:18:24.049Z</time></trkpt><trkpt lat="45.35233" lon="13.7518447"><ele>7.0</ele><time>2026-04-12T12:18:25.045Z</time></trkpt><trkpt lat="45.3523167" lon="13.7516739"><ele>7.0</ele><time>2026-04-12T12:18:26.045Z</time></trkpt><trkpt lat="45.3522937" lon="13.7515049"><ele>7.0</ele><time>2026-04-12T12:18:27.043Z</time></trkpt><trkpt lat="45.3522823" lon="13.7513421"><ele>7.0</ele><time>2026-04-12T12:18:28.046Z</time></trkpt><trkpt lat="45.3522769" lon="13.7511791"><ele>7.0</ele><time>2026-04-12T12:18:29.048Z</time></trkpt><trkpt lat="45.3522656" lon="13.7510097"><ele>6.999999999999999</ele><time>2026-04-12T12:18:30.045Z</time></trkpt><trkpt lat="45.3522449" lon="13.7508508"><ele>6.999999999999999</ele><time>2026-04-12T12:18:31.045Z</time></trkpt><trkpt lat="45.3522426" lon="13.7507122"><ele>7.0</ele><time>2026-04-12T12:18:32.048Z</time></trkpt><trkpt lat="45.3522357" lon="13.7505773"><ele>7.0</ele><time>2026-04-12T12:18:33.045Z</time></trkpt><trkpt lat="45.3522287" lon="13.7504177"><ele>7.0</ele><time>2026-04-12T12:18:34.043Z</time></trkpt><trkpt lat="45.3522202" lon="13.7502542"><ele>7.0</ele><time>2026-04-12T12:18:35.047Z</time></trkpt><trkpt lat="45.3522214" lon="13.7500828"><ele>7.0</ele><time>2026-04-12T12:18:36.043Z</time></trkpt><trkpt lat="45.3522143" lon="13.7499059"><ele>7.0</ele><time>2026-04-12T12:18:37.047Z</time></trkpt><trkpt lat="45.352214" lon="13.7497368"><ele>7.3999999999999995</ele><time>2026-04-12T12:18:38.041Z</time></trkpt><trkpt lat="45.3522182" lon="13.7495652"><ele>7.799999999999999</ele><time>2026-04-12T12:18:39.046Z</time></trkpt><trkpt lat="45.3522252" lon="13.7494083"><ele>8.2</ele><time>2026-04-12T12:18:40.046Z</time></trkpt><trkpt lat="45.3522475" lon="13.7492612"><ele>8.6</ele><time>2026-04-12T12:18:41.044Z</time></trkpt><trkpt lat="45.3522726" lon="13.749122"><ele>9.0</ele><time>2026-04-12T12:18:42.045Z</time></trkpt><trkpt lat="45.3522994" lon="13.7489904"><ele>9.0</ele><time>2026-04-12T12:18:43.044Z</time></trkpt><trkpt lat="45.3523173" lon="13.7488625"><ele>9.0</ele><time>2026-04-12T12:18:44.042Z</time></trkpt><trkpt lat="45.3523426" lon="13.7487371"><ele>9.0</ele><time>2026-04-12T12:18:45.043Z</time></trkpt><trkpt lat="45.3523842" lon="13.7485891"><ele>9.0</ele><time>2026-04-12T12:18:46.043Z</time></trkpt><trkpt lat="45.3524408" lon="13.7484336"><ele>9.0</ele><time>2026-04-12T12:18:47.047Z</time></trkpt><trkpt lat="45.3525051" lon="13.7482768"><ele>9.25</ele><time>2026-04-12T12:18:48.042Z</time></trkpt><trkpt lat="45.3525738" lon="13.7481324"><ele>9.5</ele><time>2026-04-12T12:18:49.044Z</time></trkpt><trkpt lat="45.352628" lon="13.7480007"><ele>9.75</ele><time>2026-04-12T12:18:50.043Z</time></trkpt><trkpt lat="45.3526831" lon="13.747864"><ele>10.0</ele><time>2026-04-12T12:18:51.044Z</time></trkpt><trkpt lat="45.3527456" lon="13.7477262"><ele>9.8</ele><time>2026-04-12T12:18:52.044Z</time></trkpt><trkpt lat="45.3528006" lon="13.7476138"><ele>9.6</ele><time>2026-04-12T12:18:53.043Z</time></trkpt><trkpt lat="45.3528516" lon="13.7475046"><ele>9.4</ele><time>2026-04-12T12:18:54.045Z</time></trkpt><trkpt lat="45.3529042" lon="13.7473893"><ele>9.2</ele><time>2026-04-12T12:18:55.043Z</time></trkpt><trkpt lat="45.3529539" lon="13.7472721"><ele>9.0</ele><time>2026-04-12T12:18:56.044Z</time></trkpt><trkpt lat="45.3530026" lon="13.7471555"><ele>8.8</ele><time>2026-04-12T12:18:57.041Z</time></trkpt><trkpt lat="45.353055" lon="13.7470218"><ele>8.600000000000001</ele><time>2026-04-12T12:18:58.047Z</time></trkpt><trkpt lat="45.3531111" lon="13.7468845"><ele>8.4</ele><time>2026-04-12T12:18:59.043Z</time></trkpt><trkpt lat="45.3531669" lon="13.7467527"><ele>8.200000000000001</ele><time>2026-04-12T12:19:00.046Z</time></trkpt><trkpt lat="45.353216" lon="13.7466347"><ele>8.0</ele><time>2026-04-12T12:19:01.041Z</time></trkpt><trkpt lat="45.3532688" lon="13.7465303"><ele>8.0</ele><time>2026-04-12T12:19:02.043Z</time></trkpt><trkpt lat="45.3533233" lon="13.7464186"><ele>8.0</ele><time>2026-04-12T12:19:03.048Z</time></trkpt><trkpt lat="45.3533741" lon="13.746294"><ele>8.0</ele><time>2026-04-12T12:19:04.045Z</time></trkpt><trkpt lat="45.353422" lon="13.7461601"><ele>8.0</ele><time>2026-04-12T12:19:05.047Z</time></trkpt><trkpt lat="45.3534747" lon="13.7460195"><ele>8.0</ele><time>2026-04-12T12:19:06.049Z</time></trkpt><trkpt lat="45.3535218" lon="13.7458764"><ele>9.5</ele><time>2026-04-12T12:19:07.045Z</time></trkpt><trkpt lat="45.3535703" lon="13.7457343"><ele>11.0</ele><time>2026-04-12T12:19:08.043Z</time></trkpt><trkpt lat="45.3536329" lon="13.7455937"><ele>12.5</ele><time>2026-04-12T12:19:09.043Z</time></trkpt><trkpt lat="45.3536875" lon="13.745452"><ele>14.0</ele><time>2026-04-12T12:19:10.042Z</time></trkpt><trkpt lat="45.3537433" lon="13.7453142"><ele>14.75</ele><time>2026-04-12T12:19:11.042Z</time></trkpt><trkpt lat="45.3537923" lon="13.7451577"><ele>15.5</ele><time>2026-04-12T12:19:12.045Z</time></trkpt><trkpt lat="45.3538443" lon="13.7450089"><ele>16.25</ele><time>2026-04-12T12:19:13.042Z</time></trkpt><trkpt lat="45.3538979" lon="13.7448604"><ele>17.0</ele><time>2026-04-12T12:19:14.042Z</time></trkpt><trkpt lat="45.3539489" lon="13.7447184"><ele>15.2</ele><time>2026-04-12T12:19:15.049Z</time></trkpt><trkpt lat="45.3540033" lon="13.7445892"><ele>13.399999999999999</ele><time>2026-04-12T12:19:16.041Z</time></trkpt><trkpt lat="45.354055" lon="13.7444561"><ele>11.600000000000001</ele><time>2026-04-12T12:19:17.043Z</time></trkpt><trkpt lat="45.3541106" lon="13.744316"><ele>9.8</ele><time>2026-04-12T12:19:18.045Z</time></trkpt><trkpt lat="45.3541766" lon="13.7441862"><ele>8.0</ele><time>2026-04-12T12:19:19.045Z</time></trkpt><trkpt lat="45.3542413" lon="13.7440621"><ele>8.0</ele><time>2026-04-12T12:19:20.046Z</time></trkpt><trkpt lat="45.3543092" lon="13.7439309"><ele>8.0</ele><time>2026-04-12T12:19:21.045Z</time></trkpt><trkpt lat="45.3543691" lon="13.7438023"><ele>8.0</ele><time>2026-04-12T12:19:22.048Z</time></trkpt><trkpt lat="45.3544287" lon="13.7436668"><ele>8.0</ele><time>2026-04-12T12:19:23.044Z</time></trkpt><trkpt lat="45.354492" lon="13.7435335"><ele>8.0</ele><time>2026-04-12T12:19:24.042Z</time></trkpt><trkpt lat="45.354547" lon="13.7434078"><ele>7.25</ele><time>2026-04-12T12:19:25.054Z</time></trkpt><trkpt lat="45.3546009" lon="13.7432739"><ele>6.5</ele><time>2026-04-12T12:19:26.041Z</time></trkpt><trkpt lat="45.3546636" lon="13.7431277"><ele>5.75</ele><time>2026-04-12T12:19:27.047Z</time></trkpt><trkpt lat="45.3547277" lon="13.7429975"><ele>5.0</ele><time>2026-04-12T12:19:28.042Z</time></trkpt><trkpt lat="45.3548086" lon="13.7428527"><ele>6.25</ele><time>2026-04-12T12:19:29.046Z</time></trkpt><trkpt lat="45.3548776" lon="13.7427109"><ele>7.5</ele><time>2026-04-12T12:19:30.043Z</time></trkpt><trkpt lat="45.3549483" lon="13.7425713"><ele>8.75</ele><time>2026-04-12T12:19:31.045Z</time></trkpt><trkpt lat="45.3550185" lon="13.7424289"><ele>10.0</ele><time>2026-04-12T12:19:32.045Z</time></trkpt><trkpt lat="45.355093" lon="13.7422876"><ele>10.0</ele><time>2026-04-12T12:19:33.051Z</time></trkpt><trkpt lat="45.3551667" lon="13.7421471"><ele>10.0</ele><time>2026-04-12T12:19:34.045Z</time></trkpt><trkpt lat="45.3552379" lon="13.7420002"><ele>10.0</ele><time>2026-04-12T12:19:35.044Z</time></trkpt><trkpt lat="45.3553026" lon="13.7418472"><ele>10.0</ele><time>2026-04-12T12:19:36.041Z</time></trkpt><trkpt lat="45.3553713" lon="13.7417086"><ele>9.0</ele><time>2026-04-12T12:19:37.045Z</time></trkpt><trkpt lat="45.355441" lon="13.7415702"><ele>8.0</ele><time>2026-04-12T12:19:38.044Z</time></trkpt><trkpt lat="45.3555144" lon="13.7414254"><ele>7.0</ele><time>2026-04-12T12:19:39.042Z</time></trkpt><trkpt lat="45.3555921" lon="13.7412846"><ele>6.0</ele><time>2026-04-12T12:19:40.057Z</time></trkpt><trkpt lat="45.3556663" lon="13.741148"><ele>6.25</ele><time>2026-04-12T12:19:41.046Z</time></trkpt><trkpt lat="45.3557368" lon="13.7410136"><ele>6.5</ele><time>2026-04-12T12:19:42.044Z</time></trkpt><trkpt lat="45.3557972" lon="13.740871"><ele>6.75</ele><time>2026-04-12T12:19:43.048Z</time></trkpt><trkpt lat="45.3558498" lon="13.7407376"><ele>7.0</ele><time>2026-04-12T12:19:44.043Z</time></trkpt><trkpt lat="45.3559082" lon="13.740607"><ele>7.0</ele><time>2026-04-12T12:19:45.04Z</time></trkpt><trkpt lat="45.3559698" lon="13.7404787"><ele>6.999999999999999</ele><time>2026-04-12T12:19:46.045Z</time></trkpt><trkpt lat="45.3560421" lon="13.7403519"><ele>6.999999999999999</ele><time>2026-04-12T12:19:47.045Z</time></trkpt><trkpt lat="45.3561167" lon="13.7402305"><ele>7.0</ele><time>2026-04-12T12:19:48.047Z</time></trkpt><trkpt lat="45.3561855" lon="13.7401135"><ele>7.0</ele><time>2026-04-12T12:19:49.046Z</time></trkpt><trkpt lat="45.3562411" lon="13.7399968"><ele>6.6</ele><time>2026-04-12T12:19:50.044Z</time></trkpt><trkpt lat="45.3563052" lon="13.7398919"><ele>6.199999999999999</ele><time>2026-04-12T12:19:51.041Z</time></trkpt><trkpt lat="45.3563691" lon="13.7397725"><ele>5.8</ele><time>2026-04-12T12:19:52.044Z</time></trkpt><trkpt lat="45.3564319" lon="13.739647"><ele>5.4</ele><time>2026-04-12T12:19:53.051Z</time></trkpt><trkpt lat="45.3564921" lon="13.7395237"><ele>5.0</ele><time>2026-04-12T12:19:54.067Z</time></trkpt><trkpt lat="45.3565401" lon="13.7394123"><ele>5.666666666666667</ele><time>2026-04-12T12:19:55.045Z</time></trkpt><trkpt lat="45.3565889" lon="13.7393095"><ele>6.333333333333334</ele><time>2026-04-12T12:19:56.051Z</time></trkpt><trkpt lat="45.3566425" lon="13.7392163"><ele>7.0</ele><time>2026-04-12T12:19:57.044Z</time></trkpt><trkpt lat="45.3566934" lon="13.7391204"><ele>7.666666666666667</ele><time>2026-04-12T12:19:58.052Z</time></trkpt><trkpt lat="45.3567374" lon="13.7390253"><ele>8.333333333333334</ele><time>2026-04-12T12:19:59.046Z</time></trkpt><trkpt lat="45.3567752" lon="13.7389265"><ele>9.0</ele><time>2026-04-12T12:20:00.057Z</time></trkpt><trkpt lat="45.3567981" lon="13.7388142"><ele>9.0</ele><time>2026-04-12T12:20:01.043Z</time></trkpt><trkpt lat="45.3568048" lon="13.7387088"><ele>9.0</ele><time>2026-04-12T12:20:02.046Z</time></trkpt><trkpt lat="45.3568232" lon="13.7386224"><ele>9.0</ele><time>2026-04-12T12:20:03.044Z</time></trkpt><trkpt lat="45.3569042" lon="13.738501"><ele>9.0</ele><time>2026-04-12T12:20:05.044Z</time></trkpt><trkpt lat="45.3569475" lon="13.7384291"><ele>9.0</ele><time>2026-04-12T12:20:06.042Z</time></trkpt><trkpt lat="45.3569784" lon="13.7383467"><ele>9.0</ele><time>2026-04-12T12:20:07.044Z</time></trkpt><trkpt lat="45.3569967" lon="13.7381777"><ele>9.2</ele><time>2026-04-12T12:20:09.048Z</time></trkpt><trkpt lat="45.3569526" lon="13.7380042"><ele>9.4</ele><time>2026-04-12T12:20:11.056Z</time></trkpt><trkpt lat="45.3568789" lon="13.737888"><ele>9.6</ele><time>2026-04-12T12:20:13.048Z</time></trkpt><trkpt lat="45.3567701" lon="13.7378764"><ele>9.8</ele><time>2026-04-12T12:20:15.043Z</time></trkpt><trkpt lat="45.3567061" lon="13.7379073"><ele>10.0</ele><time>2026-04-12T12:20:16.052Z</time></trkpt><trkpt lat="45.3566374" lon="13.7379496"><ele>10.0</ele><time>2026-04-12T12:20:17.047Z</time></trkpt><trkpt lat="45.3565726" lon="13.7380022"><ele>10.0</ele><time>2026-04-12T12:20:18.048Z</time></trkpt><trkpt lat="45.3565051" lon="13.7380628"><ele>10.0</ele><time>2026-04-12T12:20:19.047Z</time></trkpt><trkpt lat="45.3564461" lon="13.7381333"><ele>10.0</ele><time>2026-04-12T12:20:20.045Z</time></trkpt><trkpt lat="45.356371" lon="13.7382066"><ele>10.0</ele><time>2026-04-12T12:20:22.044Z</time></trkpt><trkpt lat="45.3563175" lon="13.738141"><ele>10.0</ele><time>2026-04-12T12:20:25.043Z</time></trkpt><trkpt lat="45.3563342" lon="13.7380539"><ele>10.0</ele><time>2026-04-12T12:20:33.05Z</time></trkpt><trkpt lat="45.3564297" lon="13.7379657"><ele>10.0</ele><time>2026-04-12T12:20:35.043Z</time></trkpt><trkpt lat="45.3564926" lon="13.737903"><ele>10.0</ele><time>2026-04-12T12:20:36.051Z</time></trkpt><trkpt lat="45.3565639" lon="13.7378439"><ele>10.0</ele><time>2026-04-12T12:20:37.05Z</time></trkpt><trkpt lat="45.3566413" lon="13.7377784"><ele>10.0</ele><time>2026-04-12T12:20:38.042Z</time></trkpt><trkpt lat="45.3567351" lon="13.737713"><ele>10.0</ele><time>2026-04-12T12:20:39.044Z</time></trkpt><trkpt lat="45.3568366" lon="13.737668"><ele>10.0</ele><time>2026-04-12T12:20:40.043Z</time></trkpt><trkpt lat="45.3569426" lon="13.7376363"><ele>10.0</ele><time>2026-04-12T12:20:41.044Z</time></trkpt><trkpt lat="45.3570514" lon="13.7376159"><ele>10.0</ele><time>2026-04-12T12:20:42.041Z</time></trkpt><trkpt lat="45.3571634" lon="13.7376134"><ele>10.0</ele><time>2026-04-12T12:20:43.044Z</time></trkpt><trkpt lat="45.3572799" lon="13.7376273"><ele>8.0</ele><time>2026-04-12T12:20:44.047Z</time></trkpt><trkpt lat="45.357398" lon="13.7376561"><ele>6.0</ele><time>2026-04-12T12:20:45.052Z</time></trkpt><trkpt lat="45.3575096" lon="13.7377014"><ele>4.0</ele><time>2026-04-12T12:20:46.043Z</time></trkpt><trkpt lat="45.3576215" lon="13.7377634"><ele>2.0</ele><time>2026-04-12T12:20:47.041Z</time></trkpt><trkpt lat="45.3577318" lon="13.7378378"><ele>2.0</ele><time>2026-04-12T12:20:48.042Z</time></trkpt><trkpt lat="45.357828" lon="13.7378983"><ele>2.0</ele><time>2026-04-12T12:20:49.045Z</time></trkpt><trkpt lat="45.3578966" lon="13.7379339"><ele>2.0</ele><time>2026-04-12T12:20:50.041Z</time></trkpt><trkpt lat="45.3579676" lon="13.7379075"><ele>2.0</ele><time>2026-04-12T12:20:52.043Z</time></trkpt><trkpt lat="45.3579702" lon="13.7377948"><ele>2.0</ele><time>2026-04-12T12:20:54.043Z</time></trkpt><trkpt lat="45.3579922" lon="13.7376184"><ele>2.0</ele><time>2026-04-12T12:20:56.054Z</time></trkpt><trkpt lat="45.3580174" lon="13.7374968"><ele>2.0</ele><time>2026-04-12T12:20:57.046Z</time></trkpt><trkpt lat="45.3580452" lon="13.7373676"><ele>2.0</ele><time>2026-04-12T12:20:58.043Z</time></trkpt><trkpt lat="45.3580773" lon="13.7372394"><ele>2.0</ele><time>2026-04-12T12:20:59.042Z</time></trkpt><trkpt lat="45.3581066" lon="13.7371128"><ele>2.0</ele><time>2026-04-12T12:21:00.041Z</time></trkpt><trkpt lat="45.3581291" lon="13.7369837"><ele>2.4000000000000004</ele><time>2026-04-12T12:21:01.045Z</time></trkpt><trkpt lat="45.3581507" lon="13.736844"><ele>2.8000000000000003</ele><time>2026-04-12T12:21:02.044Z</time></trkpt><trkpt lat="45.3581677" lon="13.7367007"><ele>3.2</ele><time>2026-04-12T12:21:03.049Z</time></trkpt><trkpt lat="45.358176" lon="13.7365532"><ele>3.6</ele><time>2026-04-12T12:21:04.042Z</time></trkpt><trkpt lat="45.3581692" lon="13.7363923"><ele>4.0</ele><time>2026-04-12T12:21:05.045Z</time></trkpt><trkpt lat="45.3581518" lon="13.7362042"><ele>4.0</ele><time>2026-04-12T12:21:06.04Z</time></trkpt><trkpt lat="45.3581322" lon="13.7360208"><ele>4.0</ele><time>2026-04-12T12:21:07.046Z</time></trkpt><trkpt lat="45.3580892" lon="13.7358462"><ele>4.0</ele><time>2026-04-12T12:21:08.042Z</time></trkpt><trkpt lat="45.358044" lon="13.7356725"><ele>4.0</ele><time>2026-04-12T12:21:09.045Z</time></trkpt><trkpt lat="45.3579906" lon="13.7355028"><ele>3.75</ele><time>2026-04-12T12:21:10.043Z</time></trkpt><trkpt lat="45.3579386" lon="13.7353539"><ele>3.5</ele><time>2026-04-12T12:21:11.042Z</time></trkpt><trkpt lat="45.3578747" lon="13.7352081"><ele>3.25</ele><time>2026-04-12T12:21:12.048Z</time></trkpt><trkpt lat="45.3578118" lon="13.7350491"><ele>3.0</ele><time>2026-04-12T12:21:13.045Z</time></trkpt><trkpt lat="45.3577515" lon="13.73488"><ele>3.0</ele><time>2026-04-12T12:21:14.047Z</time></trkpt><trkpt lat="45.3576899" lon="13.7347077"><ele>3.0</ele><time>2026-04-12T12:21:15.049Z</time></trkpt><trkpt lat="45.3576334" lon="13.7345312"><ele>3.0</ele><time>2026-04-12T12:21:16.044Z</time></trkpt><trkpt lat="45.3575768" lon="13.7343507"><ele>3.0</ele><time>2026-04-12T12:21:17.045Z</time></trkpt><trkpt lat="45.3575143" lon="13.734176"><ele>3.0</ele><time>2026-04-12T12:21:18.045Z</time></trkpt><trkpt lat="45.3574607" lon="13.7339995"><ele>3.0</ele><time>2026-04-12T12:21:19.045Z</time></trkpt><trkpt lat="45.3574141" lon="13.7338214"><ele>3.0</ele><time>2026-04-12T12:21:20.047Z</time></trkpt><trkpt lat="45.3573771" lon="13.7336464"><ele>3.0</ele><time>2026-04-12T12:21:21.04Z</time></trkpt><trkpt lat="45.3573634" lon="13.7334828"><ele>3.0</ele><time>2026-04-12T12:21:22.044Z</time></trkpt><trkpt lat="45.3573602" lon="13.7333434"><ele>3.0</ele><time>2026-04-12T12:21:23.044Z</time></trkpt><trkpt lat="45.3573683" lon="13.7332246"><ele>3.0</ele><time>2026-04-12T12:21:24.044Z</time></trkpt><trkpt lat="45.357379" lon="13.733121"><ele>3.0</ele><time>2026-04-12T12:21:25.044Z</time></trkpt><trkpt lat="45.3574037" lon="13.7330139"><ele>3.0</ele><time>2026-04-12T12:21:26.047Z</time></trkpt><trkpt lat="45.3574327" lon="13.7328964"><ele>3.0</ele><time>2026-04-12T12:21:27.041Z</time></trkpt><trkpt lat="45.3574603" lon="13.7327663"><ele>3.25</ele><time>2026-04-12T12:21:28.045Z</time></trkpt><trkpt lat="45.3574836" lon="13.7326181"><ele>3.5</ele><time>2026-04-12T12:21:29.049Z</time></trkpt><trkpt lat="45.3574985" lon="13.7324614"><ele>3.75</ele><time>2026-04-12T12:21:30.042Z</time></trkpt><trkpt lat="45.357507" lon="13.7322873"><ele>4.0</ele><time>2026-04-12T12:21:31.039Z</time></trkpt><trkpt lat="45.3575049" lon="13.7321036"><ele>4.0</ele><time>2026-04-12T12:21:32.048Z</time></trkpt><trkpt lat="45.3574903" lon="13.7319182"><ele>4.0</ele><time>2026-04-12T12:21:33.05Z</time></trkpt><trkpt lat="45.3574634" lon="13.7317346"><ele>4.0</ele><time>2026-04-12T12:21:34.048Z</time></trkpt><trkpt lat="45.3574154" lon="13.7315555"><ele>4.0</ele><time>2026-04-12T12:21:35.045Z</time></trkpt><trkpt lat="45.3573598" lon="13.7313791"><ele>3.75</ele><time>2026-04-12T12:21:36.044Z</time></trkpt><trkpt lat="45.357291" lon="13.7312089"><ele>3.5</ele><time>2026-04-12T12:21:37.045Z</time></trkpt><trkpt lat="45.3572182" lon="13.7310356"><ele>3.25</ele><time>2026-04-12T12:21:38.047Z</time></trkpt><trkpt lat="45.3571399" lon="13.7308641"><ele>3.0</ele><time>2026-04-12T12:21:39.044Z</time></trkpt><trkpt lat="45.3570674" lon="13.7306931"><ele>2.75</ele><time>2026-04-12T12:21:40.046Z</time></trkpt><trkpt lat="45.3570061" lon="13.7305165"><ele>2.5</ele><time>2026-04-12T12:21:41.041Z</time></trkpt><trkpt lat="45.3569468" lon="13.7303331"><ele>2.25</ele><time>2026-04-12T12:21:42.045Z</time></trkpt><trkpt lat="45.3568945" lon="13.7301402"><ele>2.0</ele><time>2026-04-12T12:21:43.048Z</time></trkpt><trkpt lat="45.356857" lon="13.7299478"><ele>2.0</ele><time>2026-04-12T12:21:44.043Z</time></trkpt><trkpt lat="45.3568152" lon="13.7297522"><ele>2.0</ele><time>2026-04-12T12:21:45.042Z</time></trkpt><trkpt lat="45.3567721" lon="13.7295573"><ele>2.0</ele><time>2026-04-12T12:21:46.04Z</time></trkpt><trkpt lat="45.3567287" lon="13.7293692"><ele>2.0</ele><time>2026-04-12T12:21:47.042Z</time></trkpt><trkpt lat="45.3566787" lon="13.7291824"><ele>2.0</ele><time>2026-04-12T12:21:48.043Z</time></trkpt><trkpt lat="45.3566208" lon="13.7289994"><ele>2.0</ele><time>2026-04-12T12:21:49.044Z</time></trkpt><trkpt lat="45.3565577" lon="13.7288177"><ele>2.0</ele><time>2026-04-12T12:21:50.045Z</time></trkpt><trkpt lat="45.3564872" lon="13.7286419"><ele>2.0</ele><time>2026-04-12T12:21:51.048Z</time></trkpt><trkpt lat="45.3564166" lon="13.7284774"><ele>2.25</ele><time>2026-04-12T12:21:52.046Z</time></trkpt><trkpt lat="45.3563397" lon="13.7283197"><ele>2.5</ele><time>2026-04-12T12:21:53.053Z</time></trkpt><trkpt lat="45.3562538" lon="13.7281681"><ele>2.75</ele><time>2026-04-12T12:21:54.048Z</time></trkpt><trkpt lat="45.3561571" lon="13.7280204"><ele>3.0</ele><time>2026-04-12T12:21:55.042Z</time></trkpt><trkpt lat="45.3560548" lon="13.7278895"><ele>3.0</ele><time>2026-04-12T12:21:56.048Z</time></trkpt><trkpt lat="45.3559479" lon="13.7277592"><ele>3.0</ele><time>2026-04-12T12:21:57.048Z</time></trkpt><trkpt lat="45.3558411" lon="13.7276302"><ele>3.0</ele><time>2026-04-12T12:21:58.046Z</time></trkpt><trkpt lat="45.3557269" lon="13.7275121"><ele>3.0</ele><time>2026-04-12T12:21:59.041Z</time></trkpt><trkpt lat="45.355614" lon="13.7273907"><ele>2.75</ele><time>2026-04-12T12:22:00.074Z</time></trkpt><trkpt lat="45.3555056" lon="13.7272635"><ele>2.5</ele><time>2026-04-12T12:22:01.048Z</time></trkpt><trkpt lat="45.3554006" lon="13.7271278"><ele>2.25</ele><time>2026-04-12T12:22:02.048Z</time></trkpt><trkpt lat="45.3553062" lon="13.7269808"><ele>2.0</ele><time>2026-04-12T12:22:03.044Z</time></trkpt><trkpt lat="45.3552183" lon="13.726823"><ele>1.75</ele><time>2026-04-12T12:22:04.041Z</time></trkpt><trkpt lat="45.3551358" lon="13.7266518"><ele>1.5</ele><time>2026-04-12T12:22:05.043Z</time></trkpt><trkpt lat="45.3550586" lon="13.7264737"><ele>1.25</ele><time>2026-04-12T12:22:06.046Z</time></trkpt><trkpt lat="45.3549835" lon="13.7262901"><ele>1.0</ele><time>2026-04-12T12:22:07.041Z</time></trkpt><trkpt lat="45.3549183" lon="13.726103"><ele>1.0</ele><time>2026-04-12T12:22:08.041Z</time></trkpt><trkpt lat="45.3548556" lon="13.7259154"><ele>1.0</ele><time>2026-04-12T12:22:09.046Z</time></trkpt><trkpt lat="45.3547958" lon="13.7257263"><ele>1.0</ele><time>2026-04-12T12:22:10.04Z</time></trkpt><trkpt lat="45.3547376" lon="13.725543"><ele>1.0</ele><time>2026-04-12T12:22:11.049Z</time></trkpt><trkpt lat="45.3546801" lon="13.7253569"><ele>1.0</ele><time>2026-04-12T12:22:12.043Z</time></trkpt><trkpt lat="45.3546138" lon="13.7251777"><ele>1.0</ele><time>2026-04-12T12:22:13.042Z</time></trkpt><trkpt lat="45.3545429" lon="13.7250025"><ele>1.0</ele><time>2026-04-12T12:22:14.043Z</time></trkpt><trkpt lat="45.3544724" lon="13.7248292"><ele>1.0</ele><time>2026-04-12T12:22:15.046Z</time></trkpt><trkpt lat="45.3543983" lon="13.7246565"><ele>1.0</ele><time>2026-04-12T12:22:16.051Z</time></trkpt><trkpt lat="45.3543174" lon="13.7244885"><ele>1.0</ele><time>2026-04-12T12:22:17.041Z</time></trkpt><trkpt lat="45.3542347" lon="13.724327"><ele>1.0</ele><time>2026-04-12T12:22:18.047Z</time></trkpt><trkpt lat="45.3541551" lon="13.7241641"><ele>1.0</ele><time>2026-04-12T12:22:19.055Z</time></trkpt><trkpt lat="45.3540871" lon="13.7239888"><ele>1.0</ele><time>2026-04-12T12:22:20.048Z</time></trkpt><trkpt lat="45.3540284" lon="13.7238091"><ele>1.0</ele><time>2026-04-12T12:22:21.041Z</time></trkpt><trkpt lat="45.3539743" lon="13.7236229"><ele>1.0</ele><time>2026-04-12T12:22:22.045Z</time></trkpt><trkpt lat="45.3539202" lon="13.7234422"><ele>1.0</ele><time>2026-04-12T12:22:23.048Z</time></trkpt><trkpt lat="45.3538729" lon="13.7232811"><ele>1.25</ele><time>2026-04-12T12:22:24.044Z</time></trkpt><trkpt lat="45.3538295" lon="13.7231064"><ele>1.5</ele><time>2026-04-12T12:22:25.042Z</time></trkpt><trkpt lat="45.3537903" lon="13.7229406"><ele>1.75</ele><time>2026-04-12T12:22:26.043Z</time></trkpt><trkpt lat="45.3537443" lon="13.722771"><ele>2.0</ele><time>2026-04-12T12:22:27.047Z</time></trkpt><trkpt lat="45.3536967" lon="13.7226027"><ele>2.0</ele><time>2026-04-12T12:22:28.044Z</time></trkpt><trkpt lat="45.3536438" lon="13.7224373"><ele>2.0</ele><time>2026-04-12T12:22:29.043Z</time></trkpt><trkpt lat="45.3535777" lon="13.7222734"><ele>2.0</ele><time>2026-04-12T12:22:30.05Z</time></trkpt><trkpt lat="45.3535075" lon="13.7221117"><ele>2.0</ele><time>2026-04-12T12:22:31.048Z</time></trkpt><trkpt lat="45.3534406" lon="13.7219477"><ele>2.0</ele><time>2026-04-12T12:22:32.046Z</time></trkpt><trkpt lat="45.3533699" lon="13.7217826"><ele>2.0</ele><time>2026-04-12T12:22:33.045Z</time></trkpt><trkpt lat="45.3532994" lon="13.7216216"><ele>2.0</ele><time>2026-04-12T12:22:34.046Z</time></trkpt><trkpt lat="45.3532296" lon="13.7214519"><ele>2.0</ele><time>2026-04-12T12:22:35.045Z</time></trkpt><trkpt lat="45.3531639" lon="13.7212808"><ele>2.0</ele><time>2026-04-12T12:22:36.04Z</time></trkpt><trkpt lat="45.353104" lon="13.7211024"><ele>2.0</ele><time>2026-04-12T12:22:37.046Z</time></trkpt><trkpt lat="45.353052" lon="13.7209253"><ele>2.0</ele><time>2026-04-12T12:22:38.049Z</time></trkpt><trkpt lat="45.3530097" lon="13.7207404"><ele>2.0</ele><time>2026-04-12T12:22:39.043Z</time></trkpt><trkpt lat="45.3529746" lon="13.7205539"><ele>2.0</ele><time>2026-04-12T12:22:40.046Z</time></trkpt><trkpt lat="45.3529421" lon="13.7203477"><ele>2.0</ele><time>2026-04-12T12:22:41.042Z</time></trkpt><trkpt lat="45.3529045" lon="13.7201313"><ele>2.0</ele><time>2026-04-12T12:22:42.049Z</time></trkpt><trkpt lat="45.3528715" lon="13.7199132"><ele>2.0</ele><time>2026-04-12T12:22:43.05Z</time></trkpt><trkpt lat="45.3528432" lon="13.7196971"><ele>2.0</ele><time>2026-04-12T12:22:44.046Z</time></trkpt><trkpt lat="45.3528183" lon="13.719478"><ele>2.0</ele><time>2026-04-12T12:22:45.042Z</time></trkpt><trkpt lat="45.3527956" lon="13.7192594"><ele>2.333333333333333</ele><time>2026-04-12T12:22:46.043Z</time></trkpt><trkpt lat="45.3527761" lon="13.7190374"><ele>2.6666666666666665</ele><time>2026-04-12T12:22:47.042Z</time></trkpt><trkpt lat="45.3527658" lon="13.7188152"><ele>3.0</ele><time>2026-04-12T12:22:48.047Z</time></trkpt><trkpt lat="45.3527586" lon="13.7185931"><ele>3.0</ele><time>2026-04-12T12:22:49.041Z</time></trkpt><trkpt lat="45.352756" lon="13.7183733"><ele>3.0</ele><time>2026-04-12T12:22:50.044Z</time></trkpt><trkpt lat="45.3527532" lon="13.7181481"><ele>3.0</ele><time>2026-04-12T12:22:51.046Z</time></trkpt><trkpt lat="45.3527482" lon="13.7179263"><ele>2.6666666666666665</ele><time>2026-04-12T12:22:52.041Z</time></trkpt><trkpt lat="45.3527357" lon="13.7177045"><ele>2.333333333333333</ele><time>2026-04-12T12:22:53.044Z</time></trkpt><trkpt lat="45.3527266" lon="13.7174818"><ele>2.0</ele><time>2026-04-12T12:22:54.052Z</time></trkpt><trkpt lat="45.3527121" lon="13.7172673"><ele>2.0</ele><time>2026-04-12T12:22:55.044Z</time></trkpt><trkpt lat="45.352695" lon="13.7170484"><ele>2.0</ele><time>2026-04-12T12:22:56.046Z</time></trkpt><trkpt lat="45.3526762" lon="13.7168318"><ele>2.0</ele><time>2026-04-12T12:22:57.045Z</time></trkpt><trkpt lat="45.3526453" lon="13.7166148"><ele>2.6666666666666665</ele><time>2026-04-12T12:22:58.046Z</time></trkpt><trkpt lat="45.3526126" lon="13.7163985"><ele>3.333333333333333</ele><time>2026-04-12T12:22:59.044Z</time></trkpt><trkpt lat="45.3525842" lon="13.7161811"><ele>4.0</ele><time>2026-04-12T12:23:00.042Z</time></trkpt><trkpt lat="45.3525518" lon="13.7159683"><ele>4.0</ele><time>2026-04-12T12:23:01.042Z</time></trkpt><trkpt lat="45.3525213" lon="13.7157532"><ele>4.0</ele><time>2026-04-12T12:23:02.043Z</time></trkpt><trkpt lat="45.3524858" lon="13.7155425"><ele>4.0</ele><time>2026-04-12T12:23:03.046Z</time></trkpt><trkpt lat="45.3524537" lon="13.7153289"><ele>4.0</ele><time>2026-04-12T12:23:04.048Z</time></trkpt><trkpt lat="45.3524223" lon="13.715114"><ele>4.0</ele><time>2026-04-12T12:23:05.043Z</time></trkpt><trkpt lat="45.3523911" lon="13.7148994"><ele>4.0</ele><time>2026-04-12T12:23:06.043Z</time></trkpt><trkpt lat="45.3523601" lon="13.7146895"><ele>4.0</ele><time>2026-04-12T12:23:07.049Z</time></trkpt><trkpt lat="45.352328" lon="13.7144694"><ele>4.0</ele><time>2026-04-12T12:23:08.045Z</time></trkpt><trkpt lat="45.352294" lon="13.7142504"><ele>4.0</ele><time>2026-04-12T12:23:09.043Z</time></trkpt><trkpt lat="45.3522616" lon="13.7140345"><ele>4.333333333333333</ele><time>2026-04-12T12:23:10.053Z</time></trkpt><trkpt lat="45.3522233" lon="13.7138228"><ele>4.666666666666667</ele><time>2026-04-12T12:23:11.043Z</time></trkpt><trkpt lat="45.3521825" lon="13.7136107"><ele>5.0</ele><time>2026-04-12T12:23:12.042Z</time></trkpt><trkpt lat="45.3521486" lon="13.7133997"><ele>7.333333333333334</ele><time>2026-04-12T12:23:13.042Z</time></trkpt><trkpt lat="45.3521178" lon="13.713189"><ele>9.666666666666666</ele><time>2026-04-12T12:23:14.043Z</time></trkpt><trkpt lat="45.3520909" lon="13.7129726"><ele>12.0</ele><time>2026-04-12T12:23:15.044Z</time></trkpt><trkpt lat="45.3520668" lon="13.7127551"><ele>11.0</ele><time>2026-04-12T12:23:16.043Z</time></trkpt><trkpt lat="45.3520503" lon="13.7125389"><ele>10.0</ele><time>2026-04-12T12:23:17.045Z</time></trkpt><trkpt lat="45.3520404" lon="13.7123231"><ele>9.0</ele><time>2026-04-12T12:23:18.049Z</time></trkpt><trkpt lat="45.3520338" lon="13.7120998"><ele>8.0</ele><time>2026-04-12T12:23:19.047Z</time></trkpt><trkpt lat="45.3520313" lon="13.7118788"><ele>7.0</ele><time>2026-04-12T12:23:20.043Z</time></trkpt><trkpt lat="45.3520286" lon="13.7116612"><ele>6.0</ele><time>2026-04-12T12:23:21.045Z</time></trkpt><trkpt lat="45.3520277" lon="13.7114479"><ele>6.0</ele><time>2026-04-12T12:23:22.047Z</time></trkpt><trkpt lat="45.3520363" lon="13.7112331"><ele>6.0</ele><time>2026-04-12T12:23:23.047Z</time></trkpt><trkpt lat="45.3520467" lon="13.7110178"><ele>6.0</ele><time>2026-04-12T12:23:24.044Z</time></trkpt><trkpt lat="45.3520548" lon="13.710807"><ele>5.0</ele><time>2026-04-12T12:23:25.045Z</time></trkpt><trkpt lat="45.352054" lon="13.7105919"><ele>4.0</ele><time>2026-04-12T12:23:26.047Z</time></trkpt><trkpt lat="45.3520542" lon="13.7103784"><ele>3.0</ele><time>2026-04-12T12:23:27.046Z</time></trkpt><trkpt lat="45.3520593" lon="13.7101433"><ele>2.6666666666666665</ele><time>2026-04-12T12:23:28.045Z</time></trkpt><trkpt lat="45.3520614" lon="13.7099092"><ele>2.333333333333333</ele><time>2026-04-12T12:23:29.051Z</time></trkpt><trkpt lat="45.3520616" lon="13.7096752"><ele>2.0</ele><time>2026-04-12T12:23:30.041Z</time></trkpt><trkpt lat="45.3520662" lon="13.7094433"><ele>1.6666666666666665</ele><time>2026-04-12T12:23:31.046Z</time></trkpt><trkpt lat="45.3520697" lon="13.7092097"><ele>1.3333333333333333</ele><time>2026-04-12T12:23:32.046Z</time></trkpt><trkpt lat="45.3520732" lon="13.7089838"><ele>1.0</ele><time>2026-04-12T12:23:33.046Z</time></trkpt><trkpt lat="45.3520767" lon="13.708757"><ele>0.6666666666666666</ele><time>2026-04-12T12:23:34.046Z</time></trkpt><trkpt lat="45.3520785" lon="13.7085333"><ele>0.3333333333333333</ele><time>2026-04-12T12:23:35.042Z</time></trkpt><trkpt lat="45.3520772" lon="13.708315"><ele>0.0</ele><time>2026-04-12T12:23:36.042Z</time></trkpt><trkpt lat="45.352073" lon="13.7080966"><ele>0.0</ele><time>2026-04-12T12:23:37.042Z</time></trkpt><trkpt lat="45.3520755" lon="13.7078773"><ele>0.0</ele><time>2026-04-12T12:23:38.042Z</time></trkpt><trkpt lat="45.3520766" lon="13.7076593"><ele>0.0</ele><time>2026-04-12T12:23:39.048Z</time></trkpt><trkpt lat="45.3520792" lon="13.7074233"><ele>0.6666666666666666</ele><time>2026-04-12T12:23:40.043Z</time></trkpt><trkpt lat="45.3520858" lon="13.7071857"><ele>1.3333333333333333</ele><time>2026-04-12T12:23:41.049Z</time></trkpt><trkpt lat="45.3520945" lon="13.7069577"><ele>2.0</ele><time>2026-04-12T12:23:42.044Z</time></trkpt><trkpt lat="45.3521117" lon="13.7067425"><ele>2.333333333333333</ele><time>2026-04-12T12:23:43.047Z</time></trkpt><trkpt lat="45.3521294" lon="13.7065226"><ele>2.6666666666666665</ele><time>2026-04-12T12:23:44.04Z</time></trkpt><trkpt lat="45.3521513" lon="13.7063008"><ele>3.0</ele><time>2026-04-12T12:23:45.044Z</time></trkpt><trkpt lat="45.3521683" lon="13.7060791"><ele>2.6666666666666665</ele><time>2026-04-12T12:23:46.046Z</time></trkpt><trkpt lat="45.3521832" lon="13.7058606"><ele>2.333333333333333</ele><time>2026-04-12T12:23:47.049Z</time></trkpt><trkpt lat="45.3522" lon="13.7056475"><ele>2.0</ele><time>2026-04-12T12:23:48.052Z</time></trkpt><trkpt lat="45.3522245" lon="13.705417"><ele>1.6666666666666665</ele><time>2026-04-12T12:23:49.046Z</time></trkpt><trkpt lat="45.3522495" lon="13.7051906"><ele>1.3333333333333333</ele><time>2026-04-12T12:23:50.042Z</time></trkpt><trkpt lat="45.3522789" lon="13.7049765"><ele>1.0</ele><time>2026-04-12T12:23:51.045Z</time></trkpt><trkpt lat="45.3522963" lon="13.7047665"><ele>1.0</ele><time>2026-04-12T12:23:52.046Z</time></trkpt><trkpt lat="45.352305" lon="13.7045492"><ele>1.0</ele><time>2026-04-12T12:23:53.041Z</time></trkpt><trkpt lat="45.3523099" lon="13.7043394"><ele>1.0</ele><time>2026-04-12T12:23:54.045Z</time></trkpt><trkpt lat="45.3523048" lon="13.7041414"><ele>1.0</ele><time>2026-04-12T12:23:55.05Z</time></trkpt><trkpt lat="45.3522941" lon="13.7039639"><ele>1.4</ele><time>2026-04-12T12:23:56.041Z</time></trkpt><trkpt lat="45.3522744" lon="13.7038041"><ele>1.8</ele><time>2026-04-12T12:23:57.043Z</time></trkpt><trkpt lat="45.352253" lon="13.7036555"><ele>2.1999999999999997</ele><time>2026-04-12T12:23:58.042Z</time></trkpt><trkpt lat="45.3522241" lon="13.7035192"><ele>2.6</ele><time>2026-04-12T12:23:59.045Z</time></trkpt><trkpt lat="45.352194" lon="13.7034011"><ele>3.0</ele><time>2026-04-12T12:24:00.045Z</time></trkpt><trkpt lat="45.3521566" lon="13.7032668"><ele>3.0</ele><time>2026-04-12T12:24:01.044Z</time></trkpt><trkpt lat="45.3521237" lon="13.7031182"><ele>3.0</ele><time>2026-04-12T12:24:02.051Z</time></trkpt><trkpt lat="45.3520853" lon="13.7029635"><ele>3.0</ele><time>2026-04-12T12:24:03.054Z</time></trkpt><trkpt lat="45.3520459" lon="13.7028073"><ele>3.0</ele><time>2026-04-12T12:24:04.048Z</time></trkpt><trkpt lat="45.3520016" lon="13.7026785"><ele>3.0</ele><time>2026-04-12T12:24:05.043Z</time></trkpt><trkpt lat="45.3519444" lon="13.7025366"><ele>2.5</ele><time>2026-04-12T12:24:06.049Z</time></trkpt><trkpt lat="45.3518669" lon="13.7023887"><ele>2.0</ele><time>2026-04-12T12:24:07.042Z</time></trkpt><trkpt lat="45.3517868" lon="13.7022435"><ele>1.5</ele><time>2026-04-12T12:24:08.041Z</time></trkpt><trkpt lat="45.3517085" lon="13.702107"><ele>1.0</ele><time>2026-04-12T12:24:09.045Z</time></trkpt><trkpt lat="45.3516238" lon="13.7019666"><ele>1.25</ele><time>2026-04-12T12:24:10.045Z</time></trkpt><trkpt lat="45.3515215" lon="13.7018068"><ele>1.5</ele><time>2026-04-12T12:24:11.042Z</time></trkpt><trkpt lat="45.3514163" lon="13.7016615"><ele>1.75</ele><time>2026-04-12T12:24:12.043Z</time></trkpt><trkpt lat="45.3513108" lon="13.7015125"><ele>2.0</ele><time>2026-04-12T12:24:13.044Z</time></trkpt><trkpt lat="45.3512001" lon="13.7013641"><ele>2.0</ele><time>2026-04-12T12:24:14.046Z</time></trkpt><trkpt lat="45.351094" lon="13.7012313"><ele>2.0</ele><time>2026-04-12T12:24:15.048Z</time></trkpt><trkpt lat="45.3509834" lon="13.7011098"><ele>2.0</ele><time>2026-04-12T12:24:16.043Z</time></trkpt><trkpt lat="45.3508658" lon="13.7009912"><ele>2.0</ele><time>2026-04-12T12:24:17.043Z</time></trkpt><trkpt lat="45.3507418" lon="13.7008648"><ele>2.333333333333333</ele><time>2026-04-12T12:24:18.045Z</time></trkpt><trkpt lat="45.3506122" lon="13.700738"><ele>2.6666666666666665</ele><time>2026-04-12T12:24:19.041Z</time></trkpt><trkpt lat="45.3504824" lon="13.7006176"><ele>3.0</ele><time>2026-04-12T12:24:20.051Z</time></trkpt><trkpt lat="45.3503553" lon="13.7004967"><ele>3.0</ele><time>2026-04-12T12:24:21.042Z</time></trkpt><trkpt lat="45.3502379" lon="13.7003932"><ele>3.0</ele><time>2026-04-12T12:24:22.047Z</time></trkpt><trkpt lat="45.3501129" lon="13.7002995"><ele>3.0</ele><time>2026-04-12T12:24:23.042Z</time></trkpt><trkpt lat="45.349987" lon="13.7002094"><ele>3.0</ele><time>2026-04-12T12:24:24.043Z</time></trkpt><trkpt lat="45.349852" lon="13.7001189"><ele>3.666666666666667</ele><time>2026-04-12T12:24:25.045Z</time></trkpt><trkpt lat="45.3497056" lon="13.7000236"><ele>4.333333333333334</ele><time>2026-04-12T12:24:26.047Z</time></trkpt><trkpt lat="45.3495525" lon="13.6999341"><ele>5.0</ele><time>2026-04-12T12:24:27.045Z</time></trkpt><trkpt lat="45.3493963" lon="13.6998393"><ele>5.0</ele><time>2026-04-12T12:24:28.046Z</time></trkpt><trkpt lat="45.3492422" lon="13.6997507"><ele>5.0</ele><time>2026-04-12T12:24:29.043Z</time></trkpt><trkpt lat="45.3490849" lon="13.6996532"><ele>5.0</ele><time>2026-04-12T12:24:30.044Z</time></trkpt><trkpt lat="45.3489306" lon="13.6995569"><ele>4.333333333333334</ele><time>2026-04-12T12:24:31.044Z</time></trkpt><trkpt lat="45.3487786" lon="13.6994552"><ele>3.666666666666667</ele><time>2026-04-12T12:24:32.045Z</time></trkpt><trkpt lat="45.3486247" lon="13.6993496"><ele>3.0</ele><time>2026-04-12T12:24:33.049Z</time></trkpt><trkpt lat="45.3484749" lon="13.6992422"><ele>3.0</ele><time>2026-04-12T12:24:34.051Z</time></trkpt><trkpt lat="45.3483249" lon="13.6991367"><ele>3.0</ele><time>2026-04-12T12:24:35.048Z</time></trkpt><trkpt lat="45.3481741" lon="13.6990261"><ele>3.0</ele><time>2026-04-12T12:24:36.046Z</time></trkpt><trkpt lat="45.3480201" lon="13.6989187"><ele>2.3333333333333335</ele><time>2026-04-12T12:24:37.049Z</time></trkpt><trkpt lat="45.3478676" lon="13.6988182"><ele>1.6666666666666665</ele><time>2026-04-12T12:24:38.042Z</time></trkpt><trkpt lat="45.3477146" lon="13.6987231"><ele>1.0</ele><time>2026-04-12T12:24:39.041Z</time></trkpt><trkpt lat="45.3475694" lon="13.6986245"><ele>1.0</ele><time>2026-04-12T12:24:40.042Z</time></trkpt><trkpt lat="45.3474419" lon="13.6985259"><ele>1.0</ele><time>2026-04-12T12:24:41.047Z</time></trkpt><trkpt lat="45.3473176" lon="13.6984109"><ele>1.0</ele><time>2026-04-12T12:24:42.048Z</time></trkpt><trkpt lat="45.3471824" lon="13.6982717"><ele>1.0</ele><time>2026-04-12T12:24:43.051Z</time></trkpt><trkpt lat="45.3470604" lon="13.6981318"><ele>1.0</ele><time>2026-04-12T12:24:44.043Z</time></trkpt><trkpt lat="45.3469539" lon="13.6979974"><ele>1.0</ele><time>2026-04-12T12:24:45.045Z</time></trkpt><trkpt lat="45.3468594" lon="13.697862"><ele>1.0</ele><time>2026-04-12T12:24:46.047Z</time></trkpt><trkpt lat="45.3467851" lon="13.6977161"><ele>1.0</ele><time>2026-04-12T12:24:47.049Z</time></trkpt><trkpt lat="45.3467294" lon="13.6975477"><ele>1.0</ele><time>2026-04-12T12:24:48.042Z</time></trkpt><trkpt lat="45.3466905" lon="13.6973618"><ele>1.0</ele><time>2026-04-12T12:24:49.045Z</time></trkpt><trkpt lat="45.3466579" lon="13.6971652"><ele>1.0</ele><time>2026-04-12T12:24:50.049Z</time></trkpt><trkpt lat="45.3466204" lon="13.696985"><ele>0.75</ele><time>2026-04-12T12:24:51.043Z</time></trkpt><trkpt lat="45.3465652" lon="13.6968071"><ele>0.5</ele><time>2026-04-12T12:24:52.045Z</time></trkpt><trkpt lat="45.3464933" lon="13.6966281"><ele>0.25</ele><time>2026-04-12T12:24:53.048Z</time></trkpt><trkpt lat="45.3464052" lon="13.6964655"><ele>0.0</ele><time>2026-04-12T12:24:54.044Z</time></trkpt><trkpt lat="45.3462996" lon="13.6963182"><ele>0.5</ele><time>2026-04-12T12:24:55.045Z</time></trkpt><trkpt lat="45.3461905" lon="13.6961951"><ele>1.0</ele><time>2026-04-12T12:24:56.042Z</time></trkpt><trkpt lat="45.3460668" lon="13.6960765"><ele>1.5</ele><time>2026-04-12T12:24:57.046Z</time></trkpt><trkpt lat="45.3459273" lon="13.6959648"><ele>2.0</ele><time>2026-04-12T12:24:58.049Z</time></trkpt><trkpt lat="45.3457946" lon="13.6958556"><ele>2.0</ele><time>2026-04-12T12:24:59.045Z</time></trkpt><trkpt lat="45.3456626" lon="13.6957379"><ele>2.0</ele><time>2026-04-12T12:25:00.042Z</time></trkpt><trkpt lat="45.3455313" lon="13.6956178"><ele>2.0</ele><time>2026-04-12T12:25:01.044Z</time></trkpt><trkpt lat="45.3454013" lon="13.6954929"><ele>1.3333333333333333</ele><time>2026-04-12T12:25:02.046Z</time></trkpt><trkpt lat="45.3452715" lon="13.695371"><ele>0.6666666666666666</ele><time>2026-04-12T12:25:03.046Z</time></trkpt><trkpt lat="45.3451463" lon="13.6952371"><ele>0.0</ele><time>2026-04-12T12:25:04.043Z</time></trkpt><trkpt lat="45.3450132" lon="13.6950977"><ele>0.0</ele><time>2026-04-12T12:25:05.045Z</time></trkpt><trkpt lat="45.3448805" lon="13.694944"><ele>0.0</ele><time>2026-04-12T12:25:06.047Z</time></trkpt><trkpt lat="45.3447592" lon="13.6947815"><ele>0.0</ele><time>2026-04-12T12:25:07.046Z</time></trkpt><trkpt lat="45.3446487" lon="13.6946177"><ele>0.3333333333333333</ele><time>2026-04-12T12:25:08.048Z</time></trkpt><trkpt lat="45.3445312" lon="13.6944471"><ele>0.6666666666666666</ele><time>2026-04-12T12:25:09.044Z</time></trkpt><trkpt lat="45.3444156" lon="13.6942721"><ele>1.0</ele><time>2026-04-12T12:25:10.042Z</time></trkpt><trkpt lat="45.3443046" lon="13.6940954"><ele>1.0</ele><time>2026-04-12T12:25:11.043Z</time></trkpt><trkpt lat="45.3442071" lon="13.6939273"><ele>1.0</ele><time>2026-04-12T12:25:12.045Z</time></trkpt><trkpt lat="45.3441219" lon="13.6937601"><ele>1.0</ele><time>2026-04-12T12:25:13.047Z</time></trkpt><trkpt lat="45.3440398" lon="13.6935695"><ele>1.0</ele><time>2026-04-12T12:25:14.045Z</time></trkpt><trkpt lat="45.3439644" lon="13.6933536"><ele>1.0</ele><time>2026-04-12T12:25:15.044Z</time></trkpt><trkpt lat="45.3439003" lon="13.6931325"><ele>1.0</ele><time>2026-04-12T12:25:16.043Z</time></trkpt><trkpt lat="45.3438385" lon="13.6929145"><ele>1.3333333333333333</ele><time>2026-04-12T12:25:17.041Z</time></trkpt><trkpt lat="45.3437817" lon="13.6926972"><ele>1.6666666666666665</ele><time>2026-04-12T12:25:18.042Z</time></trkpt><trkpt lat="45.3437252" lon="13.6924783"><ele>2.0</ele><time>2026-04-12T12:25:19.039Z</time></trkpt><trkpt lat="45.3436724" lon="13.692261"><ele>2.0</ele><time>2026-04-12T12:25:20.042Z</time></trkpt><trkpt lat="45.3436313" lon="13.6920344"><ele>2.0</ele><time>2026-04-12T12:25:21.04Z</time></trkpt><trkpt lat="45.3436073" lon="13.6917918"><ele>2.0</ele><time>2026-04-12T12:25:22.044Z</time></trkpt><trkpt lat="45.3435919" lon="13.6915406"><ele>2.0</ele><time>2026-04-12T12:25:23.055Z</time></trkpt><trkpt lat="45.3435771" lon="13.691295"><ele>2.0</ele><time>2026-04-12T12:25:24.048Z</time></trkpt><trkpt lat="45.3435646" lon="13.691057"><ele>2.0</ele><time>2026-04-12T12:25:25.041Z</time></trkpt><trkpt lat="45.3435549" lon="13.6908368"><ele>1.5</ele><time>2026-04-12T12:25:26.04Z</time></trkpt><trkpt lat="45.3435485" lon="13.6906364"><ele>1.0</ele><time>2026-04-12T12:25:27.039Z</time></trkpt><trkpt lat="45.3435469" lon="13.6904439"><ele>0.5</ele><time>2026-04-12T12:25:28.04Z</time></trkpt><trkpt lat="45.3435576" lon="13.6902529"><ele>0.0</ele><time>2026-04-12T12:25:29.051Z</time></trkpt><trkpt lat="45.3435894" lon="13.6900702"><ele>0.0</ele><time>2026-04-12T12:25:30.042Z</time></trkpt><trkpt lat="45.3436436" lon="13.6898794"><ele>0.0</ele><time>2026-04-12T12:25:31.042Z</time></trkpt><trkpt lat="45.3437105" lon="13.6896844"><ele>0.0</ele><time>2026-04-12T12:25:32.044Z</time></trkpt><trkpt lat="45.3437844" lon="13.6894777"><ele>0.3333333333333333</ele><time>2026-04-12T12:25:33.041Z</time></trkpt><trkpt lat="45.3438631" lon="13.689267"><ele>0.6666666666666666</ele><time>2026-04-12T12:25:34.04Z</time></trkpt><trkpt lat="45.3439456" lon="13.6890595"><ele>1.0</ele><time>2026-04-12T12:25:35.04Z</time></trkpt><trkpt lat="45.3440219" lon="13.6888468"><ele>0.6666666666666666</ele><time>2026-04-12T12:25:36.043Z</time></trkpt><trkpt lat="45.3441008" lon="13.6886143"><ele>0.3333333333333333</ele><time>2026-04-12T12:25:37.044Z</time></trkpt><trkpt lat="45.344185" lon="13.6883825"><ele>0.0</ele><time>2026-04-12T12:25:38.049Z</time></trkpt><trkpt lat="45.3442738" lon="13.6881522"><ele>0.0</ele><time>2026-04-12T12:25:39.047Z</time></trkpt><trkpt lat="45.3443593" lon="13.687923"><ele>0.0</ele><time>2026-04-12T12:25:40.044Z</time></trkpt><trkpt lat="45.3444489" lon="13.6876885"><ele>0.0</ele><time>2026-04-12T12:25:41.039Z</time></trkpt><trkpt lat="45.3445368" lon="13.6874555"><ele>0.0</ele><time>2026-04-12T12:25:42.046Z</time></trkpt><trkpt lat="45.3446264" lon="13.6872308"><ele>0.0</ele><time>2026-04-12T12:25:43.042Z</time></trkpt><trkpt lat="45.3447174" lon="13.6870128"><ele>0.0</ele><time>2026-04-12T12:25:44.046Z</time></trkpt><trkpt lat="45.3448028" lon="13.6868071"><ele>-0.3333333333333333</ele><time>2026-04-12T12:25:45.041Z</time></trkpt><trkpt lat="45.3448757" lon="13.6866115"><ele>-0.6666666666666666</ele><time>2026-04-12T12:25:46.045Z</time></trkpt><trkpt lat="45.344937" lon="13.686423"><ele>-1.0</ele><time>2026-04-12T12:25:47.047Z</time></trkpt><trkpt lat="45.3449947" lon="13.6862177"><ele>-1.0</ele><time>2026-04-12T12:25:48.04Z</time></trkpt><trkpt lat="45.3450302" lon="13.6860119"><ele>-1.0</ele><time>2026-04-12T12:25:49.043Z</time></trkpt><trkpt lat="45.345056" lon="13.6857888"><ele>-1.0</ele><time>2026-04-12T12:25:50.047Z</time></trkpt><trkpt lat="45.345076" lon="13.6855846"><ele>-1.0</ele><time>2026-04-12T12:25:51.045Z</time></trkpt><trkpt lat="45.345108" lon="13.6853744"><ele>-1.0</ele><time>2026-04-12T12:25:52.045Z</time></trkpt><trkpt lat="45.3451583" lon="13.6851836"><ele>-1.0</ele><time>2026-04-12T12:25:53.05Z</time></trkpt><trkpt lat="45.3452284" lon="13.6850076"><ele>-1.0</ele><time>2026-04-12T12:25:54.04Z</time></trkpt><trkpt lat="45.3453208" lon="13.6848291"><ele>-1.0</ele><time>2026-04-12T12:25:55.042Z</time></trkpt><trkpt lat="45.3454215" lon="13.6846563"><ele>-1.0</ele><time>2026-04-12T12:25:56.045Z</time></trkpt><trkpt lat="45.3455238" lon="13.6844853"><ele>-1.0</ele><time>2026-04-12T12:25:57.043Z</time></trkpt><trkpt lat="45.3456287" lon="13.6843149"><ele>-1.3333333333333333</ele><time>2026-04-12T12:25:58.04Z</time></trkpt><trkpt lat="45.3457312" lon="13.6841338"><ele>-1.6666666666666665</ele><time>2026-04-12T12:25:59.043Z</time></trkpt><trkpt lat="45.3458211" lon="13.6839471"><ele>-2.0</ele><time>2026-04-12T12:26:00.047Z</time></trkpt><trkpt lat="45.3459052" lon="13.6837536"><ele>-2.0</ele><time>2026-04-12T12:26:01.049Z</time></trkpt><trkpt lat="45.3459762" lon="13.6835657"><ele>-2.0</ele><time>2026-04-12T12:26:02.039Z</time></trkpt><trkpt lat="45.3460472" lon="13.6833783"><ele>-2.0</ele><time>2026-04-12T12:26:03.04Z</time></trkpt><trkpt lat="45.3461137" lon="13.6831806"><ele>-2.0</ele><time>2026-04-12T12:26:04.045Z</time></trkpt><trkpt lat="45.3461865" lon="13.6829912"><ele>-2.0</ele><time>2026-04-12T12:26:05.045Z</time></trkpt><trkpt lat="45.3462619" lon="13.6828028"><ele>-2.0</ele><time>2026-04-12T12:26:06.045Z</time></trkpt><trkpt lat="45.3463392" lon="13.6826167"><ele>-1.0</ele><time>2026-04-12T12:26:07.043Z</time></trkpt><trkpt lat="45.3464149" lon="13.6824312"><ele>0.0</ele><time>2026-04-12T12:26:08.045Z</time></trkpt><trkpt lat="45.3464914" lon="13.6822375"><ele>1.0</ele><time>2026-04-12T12:26:09.044Z</time></trkpt><trkpt lat="45.346573" lon="13.6820427"><ele>1.3333333333333333</ele><time>2026-04-12T12:26:10.045Z</time></trkpt><trkpt lat="45.3466551" lon="13.6818466"><ele>1.6666666666666665</ele><time>2026-04-12T12:26:11.042Z</time></trkpt><trkpt lat="45.3467424" lon="13.6816266"><ele>2.0</ele><time>2026-04-12T12:26:12.04Z</time></trkpt><trkpt lat="45.3468292" lon="13.6814042"><ele>2.0</ele><time>2026-04-12T12:26:13.044Z</time></trkpt><trkpt lat="45.3469074" lon="13.681203"><ele>2.0</ele><time>2026-04-12T12:26:14.044Z</time></trkpt><trkpt lat="45.3469861" lon="13.6810037"><ele>2.0</ele><time>2026-04-12T12:26:15.049Z</time></trkpt><trkpt lat="45.3470499" lon="13.6808063"><ele>2.0</ele><time>2026-04-12T12:26:16.044Z</time></trkpt><trkpt lat="45.3471124" lon="13.6806084"><ele>2.0</ele><time>2026-04-12T12:26:17.047Z</time></trkpt><trkpt lat="45.3471626" lon="13.680409"><ele>2.0</ele><time>2026-04-12T12:26:18.054Z</time></trkpt><trkpt lat="45.3472027" lon="13.6802005"><ele>2.0</ele><time>2026-04-12T12:26:19.046Z</time></trkpt><trkpt lat="45.3472399" lon="13.6799817"><ele>2.0</ele><time>2026-04-12T12:26:20.046Z</time></trkpt><trkpt lat="45.3472797" lon="13.6797663"><ele>2.0</ele><time>2026-04-12T12:26:21.042Z</time></trkpt><trkpt lat="45.3473237" lon="13.6795543"><ele>1.0</ele><time>2026-04-12T12:26:22.042Z</time></trkpt><trkpt lat="45.3473754" lon="13.6793419"><ele>0.0</ele><time>2026-04-12T12:26:23.044Z</time></trkpt><trkpt lat="45.347436" lon="13.67914"><ele>-1.0</ele><time>2026-04-12T12:26:24.045Z</time></trkpt><trkpt lat="45.3475047" lon="13.6789363"><ele>-1.0</ele><time>2026-04-12T12:26:25.044Z</time></trkpt><trkpt lat="45.3475829" lon="13.6787352"><ele>-1.0</ele><time>2026-04-12T12:26:26.04Z</time></trkpt><trkpt lat="45.3476702" lon="13.6785381"><ele>-1.0</ele><time>2026-04-12T12:26:27.044Z</time></trkpt><trkpt lat="45.3477661" lon="13.6783402"><ele>-1.3333333333333333</ele><time>2026-04-12T12:26:28.04Z</time></trkpt><trkpt lat="45.3478631" lon="13.6781495"><ele>-1.6666666666666665</ele><time>2026-04-12T12:26:29.043Z</time></trkpt><trkpt lat="45.3479533" lon="13.6779748"><ele>-2.0</ele><time>2026-04-12T12:26:30.042Z</time></trkpt><trkpt lat="45.3480371" lon="13.6778157"><ele>-1.5</ele><time>2026-04-12T12:26:31.042Z</time></trkpt><trkpt lat="45.3481164" lon="13.6776702"><ele>-1.0</ele><time>2026-04-12T12:26:32.046Z</time></trkpt><trkpt lat="45.3481968" lon="13.6775236"><ele>-0.5</ele><time>2026-04-12T12:26:33.042Z</time></trkpt><trkpt lat="45.348283" lon="13.6773699"><ele>0.0</ele><time>2026-04-12T12:26:34.052Z</time></trkpt><trkpt lat="45.3483598" lon="13.6772203"><ele>0.0</ele><time>2026-04-12T12:26:35.041Z</time></trkpt><trkpt lat="45.3484308" lon="13.6770832"><ele>0.0</ele><time>2026-04-12T12:26:36.04Z</time></trkpt><trkpt lat="45.3484875" lon="13.6769632"><ele>0.0</ele><time>2026-04-12T12:26:37.051Z</time></trkpt><trkpt lat="45.3485356" lon="13.6768671"><ele>0.0</ele><time>2026-04-12T12:26:38.045Z</time></trkpt><trkpt lat="45.3485753" lon="13.67679"><ele>0.0</ele><time>2026-04-12T12:26:39.043Z</time></trkpt><trkpt lat="45.3486362" lon="13.6766913"><ele>0.0</ele><time>2026-04-12T12:26:41.04Z</time></trkpt><trkpt lat="45.3486996" lon="13.6766932"><ele>0.0</ele><time>2026-04-12T12:26:43.042Z</time></trkpt><trkpt lat="45.3487618" lon="13.6767462"><ele>0.0</ele><time>2026-04-12T12:26:45.048Z</time></trkpt><trkpt lat="45.3488134" lon="13.6768118"><ele>0.0</ele><time>2026-04-12T12:26:47.041Z</time></trkpt><trkpt lat="45.3488726" lon="13.6768576"><ele>0.0</ele><time>2026-04-12T12:28:29.045Z</time></trkpt><trkpt lat="45.3489485" lon="13.676827"><ele>0.0</ele><time>2026-04-12T12:28:32.042Z</time></trkpt><trkpt lat="45.3489873" lon="13.6766936"><ele>0.0</ele><time>2026-04-12T12:28:34.054Z</time></trkpt><trkpt lat="45.3490147" lon="13.6765889"><ele>0.0</ele><time>2026-04-12T12:28:35.045Z</time></trkpt><trkpt lat="45.349116" lon="13.6761975"><ele>0.0</ele><time>2026-04-12T12:28:36.046Z</time></trkpt><trkpt lat="45.3491474" lon="13.6760346"><ele>0.0</ele><time>2026-04-12T12:28:37.042Z</time></trkpt><trkpt lat="45.3491796" lon="13.6758599"><ele>0.0</ele><time>2026-04-12T12:28:38.038Z</time></trkpt><trkpt lat="45.3492075" lon="13.6756756"><ele>0.0</ele><time>2026-04-12T12:28:39.054Z</time></trkpt><trkpt lat="45.3492306" lon="13.6754789"><ele>0.0</ele><time>2026-04-12T12:28:40.047Z</time></trkpt><trkpt lat="45.3492523" lon="13.6752772"><ele>-0.3333333333333333</ele><time>2026-04-12T12:28:41.041Z</time></trkpt><trkpt lat="45.3492667" lon="13.6750618"><ele>-0.6666666666666666</ele><time>2026-04-12T12:28:42.042Z</time></trkpt><trkpt lat="45.3492722" lon="13.6748416"><ele>-1.0</ele><time>2026-04-12T12:28:43.045Z</time></trkpt><trkpt lat="45.3492715" lon="13.6746128"><ele>-0.6666666666666666</ele><time>2026-04-12T12:28:44.044Z</time></trkpt><trkpt lat="45.3492622" lon="13.6743793"><ele>-0.3333333333333333</ele><time>2026-04-12T12:28:45.045Z</time></trkpt><trkpt lat="45.3492474" lon="13.6741435"><ele>0.0</ele><time>2026-04-12T12:28:46.045Z</time></trkpt><trkpt lat="45.3492236" lon="13.6739029"><ele>0.0</ele><time>2026-04-12T12:28:47.045Z</time></trkpt><trkpt lat="45.3491927" lon="13.6736686"><ele>0.0</ele><time>2026-04-12T12:28:48.045Z</time></trkpt><trkpt lat="45.3491547" lon="13.673435"><ele>0.0</ele><time>2026-04-12T12:28:49.042Z</time></trkpt><trkpt lat="45.3491077" lon="13.6732036"><ele>0.0</ele><time>2026-04-12T12:28:50.044Z</time></trkpt><trkpt lat="45.3490554" lon="13.6729782"><ele>0.0</ele><time>2026-04-12T12:28:51.047Z</time></trkpt><trkpt lat="45.3489953" lon="13.6727555"><ele>0.0</ele><time>2026-04-12T12:28:52.042Z</time></trkpt><trkpt lat="45.3489321" lon="13.6725466"><ele>0.25</ele><time>2026-04-12T12:28:53.046Z</time></trkpt><trkpt lat="45.3488663" lon="13.6723585"><ele>0.5</ele><time>2026-04-12T12:28:54.043Z</time></trkpt><trkpt lat="45.3488002" lon="13.6721803"><ele>0.75</ele><time>2026-04-12T12:28:55.043Z</time></trkpt><trkpt lat="45.3487302" lon="13.6719991"><ele>1.0</ele><time>2026-04-12T12:28:56.043Z</time></trkpt><trkpt lat="45.3486518" lon="13.6718261"><ele>1.0</ele><time>2026-04-12T12:28:57.042Z</time></trkpt><trkpt lat="45.3485708" lon="13.6716532"><ele>1.0</ele><time>2026-04-12T12:28:58.044Z</time></trkpt><trkpt lat="45.3484885" lon="13.671498"><ele>1.0</ele><time>2026-04-12T12:28:59.043Z</time></trkpt><trkpt lat="45.348403" lon="13.671352"><ele>1.0</ele><time>2026-04-12T12:29:00.048Z</time></trkpt><trkpt lat="45.3483105" lon="13.6712104"><ele>0.8</ele><time>2026-04-12T12:29:01.056Z</time></trkpt><trkpt lat="45.3482169" lon="13.6710768"><ele>0.6000000000000001</ele><time>2026-04-12T12:29:02.047Z</time></trkpt><trkpt lat="45.3481351" lon="13.670961"><ele>0.4</ele><time>2026-04-12T12:29:03.053Z</time></trkpt><trkpt lat="45.3480616" lon="13.6708673"><ele>0.2</ele><time>2026-04-12T12:29:04.045Z</time></trkpt><trkpt lat="45.3480008" lon="13.6707863"><ele>0.0</ele><time>2026-04-12T12:29:05.043Z</time></trkpt><trkpt lat="45.3479531" lon="13.6706627"><ele>0.0</ele><time>2026-04-12T12:29:07.052Z</time></trkpt><trkpt lat="45.348003" lon="13.670575"><ele>0.0</ele><time>2026-04-12T12:29:10.044Z</time></trkpt><trkpt lat="45.3480632" lon="13.6705204"><ele>0.0</ele><time>2026-04-12T12:29:38.054Z</time></trkpt><trkpt lat="45.3481342" lon="13.6704321"><ele>0.0</ele><time>2026-04-12T12:29:40.046Z</time></trkpt><trkpt lat="45.3481833" lon="13.6703708"><ele>0.0</ele><time>2026-04-12T12:29:41.047Z</time></trkpt><trkpt lat="45.3482456" lon="13.6703032"><ele>0.0</ele><time>2026-04-12T12:29:42.049Z</time></trkpt><trkpt lat="45.3483123" lon="13.6702261"><ele>-0.2857142857142857</ele><time>2026-04-12T12:29:43.041Z</time></trkpt><trkpt lat="45.3483765" lon="13.6701508"><ele>-0.5714285714285714</ele><time>2026-04-12T12:29:44.042Z</time></trkpt><trkpt lat="45.3484304" lon="13.6700851"><ele>-0.8571428571428571</ele><time>2026-04-12T12:29:45.042Z</time></trkpt><trkpt lat="45.3484877" lon="13.670019"><ele>-1.1428571428571428</ele><time>2026-04-12T12:29:46.048Z</time></trkpt><trkpt lat="45.3485385" lon="13.669963"><ele>-1.4285714285714284</ele><time>2026-04-12T12:29:47.043Z</time></trkpt><trkpt lat="45.348596" lon="13.6699062"><ele>-1.7142857142857142</ele><time>2026-04-12T12:29:48.048Z</time></trkpt><trkpt lat="45.3486568" lon="13.6698351"><ele>-2.0</ele><time>2026-04-12T12:29:49.041Z</time></trkpt><trkpt lat="45.3487127" lon="13.6697737"><ele>-1.9999999999999998</ele><time>2026-04-12T12:29:50.043Z</time></trkpt><trkpt lat="45.3488118" lon="13.6696635"><ele>-2.0</ele><time>2026-04-12T12:29:52.039Z</time></trkpt><trkpt lat="45.3488992" lon="13.6695413"><ele>-2.0</ele><time>2026-04-12T12:29:54.043Z</time></trkpt><trkpt lat="45.3489509" lon="13.6694875"><ele>-2.0</ele><time>2026-04-12T12:29:55.041Z</time></trkpt><trkpt lat="45.3490026" lon="13.6694283"><ele>-1.9999999999999998</ele><time>2026-04-12T12:29:56.038Z</time></trkpt><trkpt lat="45.3490562" lon="13.6693693"><ele>-2.0</ele><time>2026-04-12T12:29:57.048Z</time></trkpt><trkpt lat="45.3491145" lon="13.6693084"><ele>-1.857142857142857</ele><time>2026-04-12T12:29:58.045Z</time></trkpt><trkpt lat="45.3491749" lon="13.6692393"><ele>-1.714285714285714</ele><time>2026-04-12T12:29:59.048Z</time></trkpt><trkpt lat="45.3492212" lon="13.6691734"><ele>-1.5714285714285714</ele><time>2026-04-12T12:30:00.044Z</time></trkpt><trkpt lat="45.3492785" lon="13.669115"><ele>-1.4285714285714284</ele><time>2026-04-12T12:30:01.041Z</time></trkpt><trkpt lat="45.3493358" lon="13.6690509"><ele>-1.2857142857142856</ele><time>2026-04-12T12:30:02.045Z</time></trkpt><trkpt lat="45.3493899" lon="13.6689837"><ele>-1.1428571428571428</ele><time>2026-04-12T12:30:03.04Z</time></trkpt><trkpt lat="45.3494533" lon="13.6689108"><ele>-1.0</ele><time>2026-04-12T12:30:04.042Z</time></trkpt><trkpt lat="45.3495155" lon="13.6688394"><ele>-0.9999999999999999</ele><time>2026-04-12T12:30:05.042Z</time></trkpt><trkpt lat="45.3495705" lon="13.6687721"><ele>-1.0</ele><time>2026-04-12T12:30:06.043Z</time></trkpt><trkpt lat="45.3496354" lon="13.6686947"><ele>-1.0</ele><time>2026-04-12T12:30:07.045Z</time></trkpt><trkpt lat="45.3497012" lon="13.6686153"><ele>-1.0</ele><time>2026-04-12T12:30:08.046Z</time></trkpt><trkpt lat="45.3497692" lon="13.6685339"><ele>-0.9999999999999999</ele><time>2026-04-12T12:30:09.049Z</time></trkpt><trkpt lat="45.3498378" lon="13.6684505"><ele>-1.0</ele><time>2026-04-12T12:30:10.044Z</time></trkpt><trkpt lat="45.3499098" lon="13.6683752"><ele>-0.8333333333333333</ele><time>2026-04-12T12:30:11.042Z</time></trkpt><trkpt lat="45.3499782" lon="13.6683008"><ele>-0.6666666666666666</ele><time>2026-04-12T12:30:12.048Z</time></trkpt><trkpt lat="45.3500432" lon="13.668227"><ele>-0.5</ele><time>2026-04-12T12:30:13.041Z</time></trkpt><trkpt lat="45.3501099" lon="13.6681493"><ele>-0.3333333333333333</ele><time>2026-04-12T12:30:14.045Z</time></trkpt><trkpt lat="45.3501839" lon="13.6680766"><ele>-0.16666666666666666</ele><time>2026-04-12T12:30:15.041Z</time></trkpt><trkpt lat="45.350256" lon="13.6679972"><ele>0.0</ele><time>2026-04-12T12:30:16.042Z</time></trkpt><trkpt lat="45.3503229" lon="13.6679178"><ele>0.0</ele><time>2026-04-12T12:30:17.042Z</time></trkpt><trkpt lat="45.3503979" lon="13.6678452"><ele>0.0</ele><time>2026-04-12T12:30:18.041Z</time></trkpt><trkpt lat="45.350474" lon="13.6677607"><ele>0.0</ele><time>2026-04-12T12:30:19.043Z</time></trkpt><trkpt lat="45.3505482" lon="13.6676717"><ele>0.0</ele><time>2026-04-12T12:30:20.044Z</time></trkpt><trkpt lat="45.3506173" lon="13.6675847"><ele>0.0</ele><time>2026-04-12T12:30:21.045Z</time></trkpt><trkpt lat="45.3506925" lon="13.6675099"><ele>0.0</ele><time>2026-04-12T12:30:22.042Z</time></trkpt><trkpt lat="45.3507641" lon="13.6674299"><ele>0.0</ele><time>2026-04-12T12:30:23.042Z</time></trkpt><trkpt lat="45.3508361" lon="13.6673558"><ele>0.0</ele><time>2026-04-12T12:30:24.046Z</time></trkpt><trkpt lat="45.3509068" lon="13.6672786"><ele>0.0</ele><time>2026-04-12T12:30:25.039Z</time></trkpt><trkpt lat="45.3509719" lon="13.6672087"><ele>0.0</ele><time>2026-04-12T12:30:26.043Z</time></trkpt><trkpt lat="45.3510416" lon="13.6671387"><ele>0.0</ele><time>2026-04-12T12:30:27.039Z</time></trkpt><trkpt lat="45.3511071" lon="13.6670726"><ele>0.0</ele><time>2026-04-12T12:30:28.04Z</time></trkpt><trkpt lat="45.3511715" lon="13.6669982"><ele>0.0</ele><time>2026-04-12T12:30:29.042Z</time></trkpt><trkpt lat="45.3512472" lon="13.6669172"><ele>0.0</ele><time>2026-04-12T12:30:30.045Z</time></trkpt><trkpt lat="45.3513225" lon="13.6668399"><ele>0.0</ele><time>2026-04-12T12:30:31.043Z</time></trkpt><trkpt lat="45.3513949" lon="13.6667607"><ele>0.0</ele><time>2026-04-12T12:30:32.045Z</time></trkpt><trkpt lat="45.3514659" lon="13.6666768"><ele>-0.16666666666666666</ele><time>2026-04-12T12:30:33.047Z</time></trkpt><trkpt lat="45.3515315" lon="13.6665989"><ele>-0.3333333333333333</ele><time>2026-04-12T12:30:34.048Z</time></trkpt><trkpt lat="45.3515996" lon="13.6665178"><ele>-0.5</ele><time>2026-04-12T12:30:35.044Z</time></trkpt><trkpt lat="45.3516638" lon="13.6664399"><ele>-0.6666666666666666</ele><time>2026-04-12T12:30:36.045Z</time></trkpt><trkpt lat="45.3517237" lon="13.6663686"><ele>-0.8333333333333333</ele><time>2026-04-12T12:30:37.048Z</time></trkpt><trkpt lat="45.3517734" lon="13.6663119"><ele>-1.0</ele><time>2026-04-12T12:30:38.048Z</time></trkpt><trkpt lat="45.3518395" lon="13.6662274"><ele>-1.0</ele><time>2026-04-12T12:30:40.041Z</time></trkpt><trkpt lat="45.3518706" lon="13.6661163"><ele>-1.0</ele><time>2026-04-12T12:30:42.047Z</time></trkpt><trkpt lat="45.3518339" lon="13.6659871"><ele>-1.0</ele><time>2026-04-12T12:30:44.042Z</time></trkpt><trkpt lat="45.351786" lon="13.665905"><ele>-1.0</ele><time>2026-04-12T12:30:47.041Z</time></trkpt><trkpt lat="45.3516976" lon="13.6657554"><ele>-1.0</ele><time>2026-04-12T12:30:49.043Z</time></trkpt><trkpt lat="45.3516226" lon="13.6656352"><ele>-1.0</ele><time>2026-04-12T12:30:50.045Z</time></trkpt><trkpt lat="45.3515605" lon="13.665544"><ele>-1.0</ele><time>2026-04-12T12:30:51.044Z</time></trkpt><trkpt lat="45.3514885" lon="13.6654196"><ele>-1.0</ele><time>2026-04-12T12:30:53.054Z</time></trkpt><trkpt lat="45.3514181" lon="13.6652955"><ele>-1.0</ele><time>2026-04-12T12:30:55.05Z</time></trkpt><trkpt lat="45.3513602" lon="13.6651752"><ele>-1.0</ele><time>2026-04-12T12:30:57.046Z</time></trkpt><trkpt lat="45.3513052" lon="13.6650785"><ele>-1.2000000000000002</ele><time>2026-04-12T12:30:59.042Z</time></trkpt><trkpt lat="45.351241" lon="13.6649776"><ele>-1.4000000000000001</ele><time>2026-04-12T12:31:01.046Z</time></trkpt><trkpt lat="45.3511545" lon="13.6649023"><ele>-1.6</ele><time>2026-04-12T12:31:03.05Z</time></trkpt><trkpt lat="45.3511153" lon="13.6648059"><ele>-1.8</ele><time>2026-04-12T12:31:05.042Z</time></trkpt><trkpt lat="45.3511521" lon="13.6647055"><ele>-2.0</ele><time>2026-04-12T12:31:07.042Z</time></trkpt><trkpt lat="45.3512446" lon="13.6645844"><ele>-1.9999999999999998</ele><time>2026-04-12T12:31:09.048Z</time></trkpt><trkpt lat="45.3512974" lon="13.6645192"><ele>-2.0</ele><time>2026-04-12T12:31:10.05Z</time></trkpt><trkpt lat="45.3513555" lon="13.6644548"><ele>-2.0</ele><time>2026-04-12T12:31:11.048Z</time></trkpt><trkpt lat="45.3514093" lon="13.6644"><ele>-2.0</ele><time>2026-04-12T12:31:12.042Z</time></trkpt><trkpt lat="45.3514693" lon="13.6643421"><ele>-1.9999999999999998</ele><time>2026-04-12T12:31:13.043Z</time></trkpt><trkpt lat="45.3515378" lon="13.6642752"><ele>-2.0</ele><time>2026-04-12T12:31:14.046Z</time></trkpt><trkpt lat="45.3516142" lon="13.6642194"><ele>-1.6666666666666665</ele><time>2026-04-12T12:31:15.043Z</time></trkpt><trkpt lat="45.3516953" lon="13.6641596"><ele>-1.3333333333333333</ele><time>2026-04-12T12:31:16.046Z</time></trkpt><trkpt lat="45.3517718" lon="13.664098"><ele>-1.0</ele><time>2026-04-12T12:31:17.043Z</time></trkpt><trkpt lat="45.3518422" lon="13.6640524"><ele>-0.6666666666666666</ele><time>2026-04-12T12:31:18.04Z</time></trkpt><trkpt lat="45.3519186" lon="13.664006"><ele>-0.3333333333333333</ele><time>2026-04-12T12:31:19.038Z</time></trkpt><trkpt lat="45.3519976" lon="13.6639538"><ele>0.0</ele><time>2026-04-12T12:31:20.042Z</time></trkpt><trkpt lat="45.352088" lon="13.6639133"><ele>0.0</ele><time>2026-04-12T12:31:21.047Z</time></trkpt><trkpt lat="45.3521762" lon="13.6638897"><ele>0.0</ele><time>2026-04-12T12:31:22.045Z</time></trkpt><trkpt lat="45.3522661" lon="13.663861"><ele>0.0</ele><time>2026-04-12T12:31:23.041Z</time></trkpt><trkpt lat="45.3523614" lon="13.6638218"><ele>0.0</ele><time>2026-04-12T12:31:24.04Z</time></trkpt><trkpt lat="45.3524542" lon="13.6637748"><ele>0.0</ele><time>2026-04-12T12:31:25.039Z</time></trkpt><trkpt lat="45.3525355" lon="13.663726"><ele>-0.2</ele><time>2026-04-12T12:31:26.043Z</time></trkpt><trkpt lat="45.3526247" lon="13.6636744"><ele>-0.4</ele><time>2026-04-12T12:31:27.043Z</time></trkpt><trkpt lat="45.352719" lon="13.6636325"><ele>-0.6000000000000001</ele><time>2026-04-12T12:31:28.042Z</time></trkpt><trkpt lat="45.352814" lon="13.663586"><ele>-0.8</ele><time>2026-04-12T12:31:29.042Z</time></trkpt><trkpt lat="45.3529085" lon="13.6635339"><ele>-1.0</ele><time>2026-04-12T12:31:30.039Z</time></trkpt><trkpt lat="45.3530038" lon="13.6634732"><ele>-0.6000000000000001</ele><time>2026-04-12T12:31:31.041Z</time></trkpt><trkpt lat="45.3530932" lon="13.6634229"><ele>-0.20000000000000007</ele><time>2026-04-12T12:31:32.042Z</time></trkpt><trkpt lat="45.3531805" lon="13.6633837"><ele>0.20000000000000007</ele><time>2026-04-12T12:31:33.042Z</time></trkpt><trkpt lat="45.3532668" lon="13.663339"><ele>0.6000000000000001</ele><time>2026-04-12T12:31:34.045Z</time></trkpt><trkpt lat="45.353346" lon="13.6632894"><ele>1.0</ele><time>2026-04-12T12:31:35.043Z</time></trkpt><trkpt lat="45.3534315" lon="13.6632464"><ele>1.0</ele><time>2026-04-12T12:31:36.046Z</time></trkpt><trkpt lat="45.3535315" lon="13.663198"><ele>1.0</ele><time>2026-04-12T12:31:37.043Z</time></trkpt><trkpt lat="45.3536309" lon="13.6631395"><ele>1.0</ele><time>2026-04-12T12:31:38.043Z</time></trkpt><trkpt lat="45.3537361" lon="13.6630796"><ele>1.0</ele><time>2026-04-12T12:31:39.048Z</time></trkpt><trkpt lat="45.3538441" lon="13.6630252"><ele>1.0</ele><time>2026-04-12T12:31:40.04Z</time></trkpt><trkpt lat="45.3539522" lon="13.6629685"><ele>1.2000000000000002</ele><time>2026-04-12T12:31:41.047Z</time></trkpt><trkpt lat="45.3540601" lon="13.6629105"><ele>1.4000000000000001</ele><time>2026-04-12T12:31:42.044Z</time></trkpt><trkpt lat="45.3541666" lon="13.6628524"><ele>1.6</ele><time>2026-04-12T12:31:43.046Z</time></trkpt><trkpt lat="45.3542592" lon="13.6627946"><ele>1.8</ele><time>2026-04-12T12:31:44.047Z</time></trkpt><trkpt lat="45.3543432" lon="13.6627317"><ele>2.0</ele><time>2026-04-12T12:31:45.044Z</time></trkpt><trkpt lat="45.3544189" lon="13.6626876"><ele>1.9999999999999998</ele><time>2026-04-12T12:31:46.043Z</time></trkpt><trkpt lat="45.3545002" lon="13.6626537"><ele>2.0</ele><time>2026-04-12T12:31:47.042Z</time></trkpt><trkpt lat="45.35459" lon="13.6626051"><ele>2.0</ele><time>2026-04-12T12:31:48.042Z</time></trkpt><trkpt lat="45.3546845" lon="13.6625563"><ele>2.0</ele><time>2026-04-12T12:31:49.046Z</time></trkpt><trkpt lat="45.3547672" lon="13.6625116"><ele>1.9999999999999998</ele><time>2026-04-12T12:31:50.043Z</time></trkpt><trkpt lat="45.3548373" lon="13.662464"><ele>2.0</ele><time>2026-04-12T12:31:51.051Z</time></trkpt><trkpt lat="45.354917" lon="13.6624057"><ele>1.8333333333333333</ele><time>2026-04-12T12:31:52.043Z</time></trkpt><trkpt lat="45.3549754" lon="13.6623709"><ele>1.6666666666666665</ele><time>2026-04-12T12:31:53.045Z</time></trkpt><trkpt lat="45.3550718" lon="13.6623297"><ele>1.5</ele><time>2026-04-12T12:31:55.041Z</time></trkpt><trkpt lat="45.3551827" lon="13.6622909"><ele>1.3333333333333333</ele><time>2026-04-12T12:31:57.044Z</time></trkpt><trkpt lat="45.3552512" lon="13.662252"><ele>1.1666666666666665</ele><time>2026-04-12T12:31:58.051Z</time></trkpt><trkpt lat="45.3553234" lon="13.662212"><ele>1.0</ele><time>2026-04-12T12:31:59.045Z</time></trkpt><trkpt lat="45.3554011" lon="13.6621696"><ele>1.0</ele><time>2026-04-12T12:32:00.047Z</time></trkpt><trkpt lat="45.3554868" lon="13.6621227"><ele>1.0</ele><time>2026-04-12T12:32:01.044Z</time></trkpt><trkpt lat="45.3555732" lon="13.6620765"><ele>1.0</ele><time>2026-04-12T12:32:02.041Z</time></trkpt><trkpt lat="45.3556564" lon="13.6620263"><ele>1.0</ele><time>2026-04-12T12:32:03.044Z</time></trkpt><trkpt lat="45.3557465" lon="13.6619786"><ele>1.0</ele><time>2026-04-12T12:32:04.044Z</time></trkpt><trkpt lat="45.3558392" lon="13.6619326"><ele>1.2000000000000002</ele><time>2026-04-12T12:32:05.043Z</time></trkpt><trkpt lat="45.3559311" lon="13.661885"><ele>1.4000000000000001</ele><time>2026-04-12T12:32:06.043Z</time></trkpt><trkpt lat="45.3560241" lon="13.6618366"><ele>1.6</ele><time>2026-04-12T12:32:07.049Z</time></trkpt><trkpt lat="45.3561204" lon="13.6617845"><ele>1.8</ele><time>2026-04-12T12:32:08.046Z</time></trkpt><trkpt lat="45.3562168" lon="13.6617339"><ele>2.0</ele><time>2026-04-12T12:32:09.039Z</time></trkpt><trkpt lat="45.3563099" lon="13.6616924"><ele>2.4000000000000004</ele><time>2026-04-12T12:32:10.04Z</time></trkpt><trkpt lat="45.3564084" lon="13.6616609"><ele>2.8000000000000003</ele><time>2026-04-12T12:32:11.045Z</time></trkpt><trkpt lat="45.3565081" lon="13.661649"><ele>3.2</ele><time>2026-04-12T12:32:12.044Z</time></trkpt><trkpt lat="45.3566132" lon="13.661648"><ele>3.6</ele><time>2026-04-12T12:32:13.043Z</time></trkpt><trkpt lat="45.3567115" lon="13.6616623"><ele>4.0</ele><time>2026-04-12T12:32:14.041Z</time></trkpt><trkpt lat="45.3568073" lon="13.6616837"><ele>4.0</ele><time>2026-04-12T12:32:15.041Z</time></trkpt><trkpt lat="45.3568924" lon="13.6616957"><ele>4.0</ele><time>2026-04-12T12:32:16.04Z</time></trkpt><trkpt lat="45.3569775" lon="13.6616957"><ele>4.0</ele><time>2026-04-12T12:32:17.047Z</time></trkpt><trkpt lat="45.3570694" lon="13.661705"><ele>4.0</ele><time>2026-04-12T12:32:18.049Z</time></trkpt><trkpt lat="45.3571631" lon="13.6617201"><ele>4.0</ele><time>2026-04-12T12:32:19.043Z</time></trkpt><trkpt lat="45.3572611" lon="13.6617366"><ele>4.0</ele><time>2026-04-12T12:32:20.046Z</time></trkpt><trkpt lat="45.3573592" lon="13.6617477"><ele>4.0</ele><time>2026-04-12T12:32:21.046Z</time></trkpt><trkpt lat="45.3574626" lon="13.6617646"><ele>4.0</ele><time>2026-04-12T12:32:22.045Z</time></trkpt><trkpt lat="45.357557" lon="13.661781"><ele>4.0</ele><time>2026-04-12T12:32:23.044Z</time></trkpt><trkpt lat="45.3576522" lon="13.6617901"><ele>4.0</ele><time>2026-04-12T12:32:24.043Z</time></trkpt><trkpt lat="45.357751" lon="13.6618042"><ele>4.0</ele><time>2026-04-12T12:32:25.042Z</time></trkpt><trkpt lat="45.3578488" lon="13.6618147"><ele>4.0</ele><time>2026-04-12T12:32:26.04Z</time></trkpt><trkpt lat="45.3579498" lon="13.6618294"><ele>4.0</ele><time>2026-04-12T12:32:27.042Z</time></trkpt><trkpt lat="45.3580538" lon="13.6618459"><ele>4.0</ele><time>2026-04-12T12:32:28.045Z</time></trkpt><trkpt lat="45.358141" lon="13.6618772"><ele>4.0</ele><time>2026-04-12T12:32:29.054Z</time></trkpt><trkpt lat="45.3582069" lon="13.6619167"><ele>4.333333333333333</ele><time>2026-04-12T12:32:30.05Z</time></trkpt><trkpt lat="45.3583148" lon="13.6620225"><ele>4.666666666666666</ele><time>2026-04-12T12:32:32.043Z</time></trkpt><trkpt lat="45.3583771" lon="13.6620724"><ele>5.0</ele><time>2026-04-12T12:32:33.045Z</time></trkpt><trkpt lat="45.3584447" lon="13.6620958"><ele>5.333333333333333</ele><time>2026-04-12T12:32:34.04Z</time></trkpt><trkpt lat="45.358523" lon="13.6621116"><ele>5.666666666666667</ele><time>2026-04-12T12:32:35.044Z</time></trkpt><trkpt lat="45.3586164" lon="13.6621266"><ele>6.0</ele><time>2026-04-12T12:32:36.049Z</time></trkpt><trkpt lat="45.3587178" lon="13.6621356"><ele>6.0</ele><time>2026-04-12T12:32:37.042Z</time></trkpt><trkpt lat="45.358819" lon="13.6621499"><ele>6.0</ele><time>2026-04-12T12:32:38.042Z</time></trkpt><trkpt lat="45.3589168" lon="13.6621621"><ele>6.0</ele><time>2026-04-12T12:32:39.044Z</time></trkpt><trkpt lat="45.359015" lon="13.6621736"><ele>6.0</ele><time>2026-04-12T12:32:40.052Z</time></trkpt><trkpt lat="45.3591145" lon="13.662179"><ele>6.0</ele><time>2026-04-12T12:32:41.05Z</time></trkpt><trkpt lat="45.3592076" lon="13.662184"><ele>6.0</ele><time>2026-04-12T12:32:42.043Z</time></trkpt><trkpt lat="45.3593004" lon="13.6621956"><ele>6.0</ele><time>2026-04-12T12:32:43.043Z</time></trkpt><trkpt lat="45.3593801" lon="13.6622131"><ele>6.0</ele><time>2026-04-12T12:32:44.049Z</time></trkpt><trkpt lat="45.3594666" lon="13.6622241"><ele>6.0</ele><time>2026-04-12T12:32:45.044Z</time></trkpt><trkpt lat="45.3595627" lon="13.6622347"><ele>6.0</ele><time>2026-04-12T12:32:46.042Z</time></trkpt><trkpt lat="45.3596611" lon="13.6622448"><ele>6.199999999999999</ele><time>2026-04-12T12:32:47.049Z</time></trkpt><trkpt lat="45.3597687" lon="13.6622568"><ele>6.3999999999999995</ele><time>2026-04-12T12:32:48.04Z</time></trkpt><trkpt lat="45.3598769" lon="13.6622655"><ele>6.6</ele><time>2026-04-12T12:32:49.041Z</time></trkpt><trkpt lat="45.3599789" lon="13.6622834"><ele>6.8</ele><time>2026-04-12T12:32:50.042Z</time></trkpt><trkpt lat="45.3600851" lon="13.6623085"><ele>7.0</ele><time>2026-04-12T12:32:51.047Z</time></trkpt><trkpt lat="45.3601862" lon="13.6623088"><ele>7.0</ele><time>2026-04-12T12:32:52.045Z</time></trkpt><trkpt lat="45.3602893" lon="13.6623123"><ele>6.999999999999999</ele><time>2026-04-12T12:32:53.046Z</time></trkpt><trkpt lat="45.3603869" lon="13.6623234"><ele>6.999999999999999</ele><time>2026-04-12T12:32:54.046Z</time></trkpt><trkpt lat="45.3604873" lon="13.6623331"><ele>7.0</ele><time>2026-04-12T12:32:55.045Z</time></trkpt><trkpt lat="45.36059" lon="13.662349"><ele>7.0</ele><time>2026-04-12T12:32:56.04Z</time></trkpt><trkpt lat="45.3606983" lon="13.6623515"><ele>6.6</ele><time>2026-04-12T12:32:57.042Z</time></trkpt><trkpt lat="45.3608116" lon="13.6623608"><ele>6.199999999999999</ele><time>2026-04-12T12:32:58.041Z</time></trkpt><trkpt lat="45.3609133" lon="13.6623764"><ele>5.8</ele><time>2026-04-12T12:32:59.043Z</time></trkpt><trkpt lat="45.3610061" lon="13.6623915"><ele>5.4</ele><time>2026-04-12T12:33:00.043Z</time></trkpt><trkpt lat="45.3610935" lon="13.6623937"><ele>5.0</ele><time>2026-04-12T12:33:01.044Z</time></trkpt><trkpt lat="45.3611932" lon="13.6624036"><ele>5.0</ele><time>2026-04-12T12:33:02.041Z</time></trkpt><trkpt lat="45.3612972" lon="13.6624138"><ele>5.0</ele><time>2026-04-12T12:33:03.043Z</time></trkpt><trkpt lat="45.3614049" lon="13.6624227"><ele>5.0</ele><time>2026-04-12T12:33:04.044Z</time></trkpt><trkpt lat="45.3615166" lon="13.6624325"><ele>5.0</ele><time>2026-04-12T12:33:05.041Z</time></trkpt><trkpt lat="45.3616296" lon="13.6624386"><ele>5.0</ele><time>2026-04-12T12:33:06.047Z</time></trkpt><trkpt lat="45.36174" lon="13.6624475"><ele>5.166666666666667</ele><time>2026-04-12T12:33:07.043Z</time></trkpt><trkpt lat="45.3618342" lon="13.6624566"><ele>5.333333333333334</ele><time>2026-04-12T12:33:08.042Z</time></trkpt><trkpt lat="45.3619101" lon="13.6624697"><ele>5.5</ele><time>2026-04-12T12:33:09.047Z</time></trkpt><trkpt lat="45.3619675" lon="13.6625132"><ele>5.666666666666667</ele><time>2026-04-12T12:33:10.042Z</time></trkpt><trkpt lat="45.3620325" lon="13.6626638"><ele>5.833333333333333</ele><time>2026-04-12T12:33:12.043Z</time></trkpt><trkpt lat="45.3620534" lon="13.6627622"><ele>6.0</ele><time>2026-04-12T12:33:13.048Z</time></trkpt><trkpt lat="45.3620697" lon="13.6628794"><ele>6.0</ele><time>2026-04-12T12:33:14.042Z</time></trkpt><trkpt lat="45.3620936" lon="13.6630157"><ele>6.0</ele><time>2026-04-12T12:33:15.042Z</time></trkpt><trkpt lat="45.3621215" lon="13.6631519"><ele>6.0</ele><time>2026-04-12T12:33:16.04Z</time></trkpt><trkpt lat="45.3621527" lon="13.6632757"><ele>6.0</ele><time>2026-04-12T12:33:17.041Z</time></trkpt><trkpt lat="45.3621807" lon="13.6633942"><ele>6.0</ele><time>2026-04-12T12:33:18.043Z</time></trkpt><trkpt lat="45.3622122" lon="13.6635343"><ele>7.199999999999999</ele><time>2026-04-12T12:33:19.043Z</time></trkpt><trkpt lat="45.3622451" lon="13.6636826"><ele>8.399999999999999</ele><time>2026-04-12T12:33:20.046Z</time></trkpt><trkpt lat="45.3622763" lon="13.6638173"><ele>9.6</ele><time>2026-04-12T12:33:21.043Z</time></trkpt><trkpt lat="45.3623032" lon="13.6639422"><ele>10.799999999999999</ele><time>2026-04-12T12:33:22.045Z</time></trkpt><trkpt lat="45.3623232" lon="13.664062"><ele>12.0</ele><time>2026-04-12T12:33:23.048Z</time></trkpt><trkpt lat="45.3623664" lon="13.6642108"><ele>12.0</ele><time>2026-04-12T12:33:25.043Z</time></trkpt><trkpt lat="45.3624388" lon="13.6642647"><ele>12.0</ele><time>2026-04-12T12:33:27.045Z</time></trkpt><trkpt lat="45.3625039" lon="13.6642424"><ele>12.0</ele><time>2026-04-12T12:33:30.053Z</time></trkpt><trkpt lat="45.362591" lon="13.6642102"><ele>12.0</ele><time>2026-04-12T12:33:33.041Z</time></trkpt><trkpt lat="45.3626876" lon="13.6642235"><ele>12.0</ele><time>2026-04-12T12:33:35.043Z</time></trkpt><trkpt lat="45.3627535" lon="13.6642345"><ele>12.0</ele><time>2026-04-12T12:33:36.045Z</time></trkpt><trkpt lat="45.3629644" lon="13.6642574"><ele>12.0</ele><time>2026-04-12T12:33:37.042Z</time></trkpt><trkpt lat="45.3631556" lon="13.6642671"><ele>12.0</ele><time>2026-04-12T12:33:38.047Z</time></trkpt><trkpt lat="45.3632453" lon="13.6642759"><ele>12.0</ele><time>2026-04-12T12:33:39.036Z</time></trkpt><trkpt lat="45.3633273" lon="13.6642884"><ele>12.0</ele><time>2026-04-12T12:33:40.041Z</time></trkpt><trkpt lat="45.3633968" lon="13.6642945"><ele>12.0</ele><time>2026-04-12T12:33:41.05Z</time></trkpt><trkpt lat="45.3635043" lon="13.6642877"><ele>12.0</ele><time>2026-04-12T12:33:43.046Z</time></trkpt><trkpt lat="45.3636242" lon="13.6642467"><ele>12.0</ele><time>2026-04-12T12:33:45.046Z</time></trkpt><trkpt lat="45.3636876" lon="13.6642297"><ele>12.0</ele><time>2026-04-12T12:33:46.041Z</time></trkpt><trkpt lat="45.3637584" lon="13.6642221"><ele>12.0</ele><time>2026-04-12T12:33:47.051Z</time></trkpt><trkpt lat="45.3638379" lon="13.6642038"><ele>12.0</ele><time>2026-04-12T12:33:48.047Z</time></trkpt><trkpt lat="45.363918" lon="13.6641731"><ele>12.0</ele><time>2026-04-12T12:33:49.046Z</time></trkpt><trkpt lat="45.3640044" lon="13.6641425"><ele>13.2</ele><time>2026-04-12T12:33:50.044Z</time></trkpt><trkpt lat="45.3640957" lon="13.6641092"><ele>14.399999999999999</ele><time>2026-04-12T12:33:51.046Z</time></trkpt><trkpt lat="45.364195" lon="13.6640726"><ele>15.600000000000001</ele><time>2026-04-12T12:33:52.041Z</time></trkpt><trkpt lat="45.3642909" lon="13.664042"><ele>16.8</ele><time>2026-04-12T12:33:53.039Z</time></trkpt><trkpt lat="45.3643853" lon="13.6640131"><ele>18.0</ele><time>2026-04-12T12:33:54.043Z</time></trkpt><trkpt lat="45.3644798" lon="13.6639839"><ele>18.0</ele><time>2026-04-12T12:33:55.039Z</time></trkpt><trkpt lat="45.3645761" lon="13.6639543"><ele>18.0</ele><time>2026-04-12T12:33:56.079Z</time></trkpt><trkpt lat="45.3646719" lon="13.6639196"><ele>18.0</ele><time>2026-04-12T12:33:57.046Z</time></trkpt><trkpt lat="45.3647707" lon="13.6638888"><ele>18.0</ele><time>2026-04-12T12:33:58.042Z</time></trkpt><trkpt lat="45.3648678" lon="13.6638575"><ele>18.0</ele><time>2026-04-12T12:33:59.049Z</time></trkpt><trkpt lat="45.3649671" lon="13.6638326"><ele>18.6</ele><time>2026-04-12T12:34:00.042Z</time></trkpt><trkpt lat="45.3650674" lon="13.6638073"><ele>19.200000000000003</ele><time>2026-04-12T12:34:01.043Z</time></trkpt><trkpt lat="45.365166" lon="13.6637888"><ele>19.8</ele><time>2026-04-12T12:34:02.043Z</time></trkpt><trkpt lat="45.3652665" lon="13.6637711"><ele>20.400000000000002</ele><time>2026-04-12T12:34:03.041Z</time></trkpt><trkpt lat="45.3653704" lon="13.6637595"><ele>21.0</ele><time>2026-04-12T12:34:04.041Z</time></trkpt><trkpt lat="45.3654747" lon="13.663747"><ele>21.666666666666668</ele><time>2026-04-12T12:34:05.04Z</time></trkpt><trkpt lat="45.3655774" lon="13.6637412"><ele>22.333333333333336</ele><time>2026-04-12T12:34:06.04Z</time></trkpt><trkpt lat="45.3656686" lon="13.663743"><ele>23.0</ele><time>2026-04-12T12:34:07.04Z</time></trkpt><trkpt lat="45.3657573" lon="13.6637636"><ele>23.666666666666668</ele><time>2026-04-12T12:34:08.04Z</time></trkpt><trkpt lat="45.3658276" lon="13.6638054"><ele>24.333333333333336</ele><time>2026-04-12T12:34:09.048Z</time></trkpt><trkpt lat="45.3658946" lon="13.6638612"><ele>25.0</ele><time>2026-04-12T12:34:10.043Z</time></trkpt><trkpt lat="45.3659605" lon="13.6639347"><ele>25.0</ele><time>2026-04-12T12:34:12.047Z</time></trkpt><trkpt lat="45.3660339" lon="13.663992"><ele>25.0</ele><time>2026-04-12T12:34:14.049Z</time></trkpt><trkpt lat="45.3661116" lon="13.6639995"><ele>25.0</ele><time>2026-04-12T12:34:16.042Z</time></trkpt><trkpt lat="45.3661885" lon="13.6639874"><ele>25.0</ele><time>2026-04-12T12:34:19.042Z</time></trkpt><trkpt lat="45.3663743" lon="13.6639528"><ele>25.0</ele><time>2026-04-12T12:34:22.044Z</time></trkpt><trkpt lat="45.3665228" lon="13.663947"><ele>24.2</ele><time>2026-04-12T12:34:23.04Z</time></trkpt><trkpt lat="45.366588" lon="13.6639425"><ele>23.4</ele><time>2026-04-12T12:34:24.043Z</time></trkpt><trkpt lat="45.366703" lon="13.663953"><ele>22.6</ele><time>2026-04-12T12:34:26.051Z</time></trkpt><trkpt lat="45.3667854" lon="13.6639733"><ele>21.8</ele><time>2026-04-12T12:34:27.045Z</time></trkpt><trkpt lat="45.3668493" lon="13.6639853"><ele>21.0</ele><time>2026-04-12T12:34:28.04Z</time></trkpt><trkpt lat="45.3669753" lon="13.6640163"><ele>21.0</ele><time>2026-04-12T12:34:30.047Z</time></trkpt><trkpt lat="45.3670429" lon="13.6640372"><ele>21.0</ele><time>2026-04-12T12:34:31.042Z</time></trkpt><trkpt lat="45.3671115" lon="13.664066"><ele>21.0</ele><time>2026-04-12T12:34:32.044Z</time></trkpt><trkpt lat="45.3672235" lon="13.6641056"><ele>21.0</ele><time>2026-04-12T12:34:34.042Z</time></trkpt><trkpt lat="45.3672883" lon="13.6641045"><ele>21.0</ele><time>2026-04-12T12:34:35.043Z</time></trkpt><trkpt lat="45.3673586" lon="13.6641052"><ele>21.0</ele><time>2026-04-12T12:34:36.05Z</time></trkpt><trkpt lat="45.3674244" lon="13.6641043"><ele>22.833333333333332</ele><time>2026-04-12T12:34:37.043Z</time></trkpt><trkpt lat="45.3674928" lon="13.6641032"><ele>24.666666666666664</ele><time>2026-04-12T12:34:38.041Z</time></trkpt><trkpt lat="45.367566" lon="13.664101"><ele>26.5</ele><time>2026-04-12T12:34:39.053Z</time></trkpt><trkpt lat="45.3676444" lon="13.6641094"><ele>28.333333333333332</ele><time>2026-04-12T12:34:40.041Z</time></trkpt><trkpt lat="45.3677285" lon="13.6641259"><ele>30.166666666666664</ele><time>2026-04-12T12:34:41.042Z</time></trkpt><trkpt lat="45.3678074" lon="13.6641551"><ele>32.0</ele><time>2026-04-12T12:34:42.046Z</time></trkpt><trkpt lat="45.3678851" lon="13.6641921"><ele>32.0</ele><time>2026-04-12T12:34:43.043Z</time></trkpt><trkpt lat="45.3679583" lon="13.6642412"><ele>32.0</ele><time>2026-04-12T12:34:44.041Z</time></trkpt><trkpt lat="45.3680264" lon="13.664308"><ele>32.0</ele><time>2026-04-12T12:34:45.041Z</time></trkpt><trkpt lat="45.3680912" lon="13.6643822"><ele>32.0</ele><time>2026-04-12T12:34:46.044Z</time></trkpt><trkpt lat="45.3681796" lon="13.6645123"><ele>32.0</ele><time>2026-04-12T12:34:48.041Z</time></trkpt><trkpt lat="45.3682683" lon="13.6646355"><ele>33.33333333333333</ele><time>2026-04-12T12:34:50.042Z</time></trkpt><trkpt lat="45.3683132" lon="13.6647038"><ele>34.666666666666664</ele><time>2026-04-12T12:34:51.045Z</time></trkpt><trkpt lat="45.3684107" lon="13.6647908"><ele>36.0</ele><time>2026-04-12T12:34:53.046Z</time></trkpt><trkpt lat="45.3684655" lon="13.6648414"><ele>37.333333333333336</ele><time>2026-04-12T12:34:54.045Z</time></trkpt><trkpt lat="45.3685243" lon="13.6649003"><ele>38.66666666666667</ele><time>2026-04-12T12:34:55.045Z</time></trkpt><trkpt lat="45.3685899" lon="13.6649549"><ele>40.0</ele><time>2026-04-12T12:34:56.044Z</time></trkpt><trkpt lat="45.3686665" lon="13.6650086"><ele>40.0</ele><time>2026-04-12T12:34:57.044Z</time></trkpt><trkpt lat="45.3687377" lon="13.6650491"><ele>40.0</ele><time>2026-04-12T12:34:58.043Z</time></trkpt><trkpt lat="45.3687975" lon="13.6650897"><ele>40.0</ele><time>2026-04-12T12:34:59.043Z</time></trkpt><trkpt lat="45.368864" lon="13.665136"><ele>40.0</ele><time>2026-04-12T12:35:00.048Z</time></trkpt><trkpt lat="45.3689319" lon="13.6651827"><ele>40.0</ele><time>2026-04-12T12:35:01.042Z</time></trkpt><trkpt lat="45.3690031" lon="13.6652362"><ele>40.0</ele><time>2026-04-12T12:35:02.05Z</time></trkpt><trkpt lat="45.3690664" lon="13.6652954"><ele>40.0</ele><time>2026-04-12T12:35:03.043Z</time></trkpt><trkpt lat="45.3691355" lon="13.665341"><ele>41.6</ele><time>2026-04-12T12:35:04.042Z</time></trkpt><trkpt lat="45.3692437" lon="13.6654241"><ele>43.2</ele><time>2026-04-12T12:35:06.041Z</time></trkpt><trkpt lat="45.3693035" lon="13.6654716"><ele>44.8</ele><time>2026-04-12T12:35:07.045Z</time></trkpt><trkpt lat="45.3694015" lon="13.6655657"><ele>46.4</ele><time>2026-04-12T12:35:09.042Z</time></trkpt><trkpt lat="45.3695009" lon="13.6656294"><ele>48.0</ele><time>2026-04-12T12:35:11.046Z</time></trkpt><trkpt lat="45.3696104" lon="13.6657025"><ele>48.0</ele><time>2026-04-12T12:35:13.045Z</time></trkpt><trkpt lat="45.3696773" lon="13.6657389"><ele>48.0</ele><time>2026-04-12T12:35:14.044Z</time></trkpt><trkpt lat="45.3697433" lon="13.665781"><ele>48.0</ele><time>2026-04-12T12:35:15.044Z</time></trkpt><trkpt lat="45.3698065" lon="13.6658131"><ele>48.0</ele><time>2026-04-12T12:35:16.043Z</time></trkpt><trkpt lat="45.36987" lon="13.6658429"><ele>48.0</ele><time>2026-04-12T12:35:17.046Z</time></trkpt><trkpt lat="45.3700001" lon="13.665897"><ele>48.0</ele><time>2026-04-12T12:35:19.044Z</time></trkpt><trkpt lat="45.3700664" lon="13.6659234"><ele>48.4</ele><time>2026-04-12T12:35:20.045Z</time></trkpt><trkpt lat="45.3701315" lon="13.6659597"><ele>48.8</ele><time>2026-04-12T12:35:21.043Z</time></trkpt><trkpt lat="45.3702389" lon="13.6660283"><ele>49.2</ele><time>2026-04-12T12:35:23.044Z</time></trkpt><trkpt lat="45.3703319" lon="13.6660863"><ele>49.6</ele><time>2026-04-12T12:35:25.045Z</time></trkpt><trkpt lat="45.3704421" lon="13.6661264"><ele>50.0</ele><time>2026-04-12T12:35:27.048Z</time></trkpt><trkpt lat="45.3705134" lon="13.6661203"><ele>56.16666666666667</ele><time>2026-04-12T12:35:28.045Z</time></trkpt><trkpt lat="45.3705748" lon="13.6660989"><ele>62.333333333333336</ele><time>2026-04-12T12:35:29.045Z</time></trkpt><trkpt lat="45.3706488" lon="13.66607"><ele>68.5</ele><time>2026-04-12T12:35:30.045Z</time></trkpt><trkpt lat="45.370713" lon="13.6660352"><ele>74.66666666666667</ele><time>2026-04-12T12:35:31.04Z</time></trkpt><trkpt lat="45.3708128" lon="13.665965"><ele>80.83333333333333</ele><time>2026-04-12T12:35:33.049Z</time></trkpt><trkpt lat="45.370847" lon="13.6658545"><ele>87.0</ele><time>2026-04-12T12:35:35.043Z</time></trkpt><trkpt lat="45.3708158" lon="13.6657489"><ele>87.0</ele><time>2026-04-12T12:35:38.042Z</time></trkpt><trkpt lat="45.370746" lon="13.6656619"><ele>87.0</ele><time>2026-04-12T12:35:41.046Z</time></trkpt><trkpt lat="45.3706629" lon="13.6655377"><ele>87.0</ele><time>2026-04-12T12:35:42.043Z</time></trkpt><trkpt lat="45.3705719" lon="13.6654262"><ele>87.0</ele><time>2026-04-12T12:35:43.046Z</time></trkpt><trkpt lat="45.3704795" lon="13.6653024"><ele>88.0</ele><time>2026-04-12T12:35:45.041Z</time></trkpt><trkpt lat="45.3704021" lon="13.6651601"><ele>89.0</ele><time>2026-04-12T12:35:47.047Z</time></trkpt><trkpt lat="45.3703586" lon="13.6650884"><ele>90.0</ele><time>2026-04-12T12:35:48.045Z</time></trkpt><trkpt lat="45.370316" lon="13.6650138"><ele>91.0</ele><time>2026-04-12T12:35:49.049Z</time></trkpt><trkpt lat="45.3702721" lon="13.664943"><ele>92.0</ele><time>2026-04-12T12:35:50.05Z</time></trkpt><trkpt lat="45.3702338" lon="13.6648685"><ele>93.0</ele><time>2026-04-12T12:35:51.042Z</time></trkpt><trkpt lat="45.3701929" lon="13.6647859"><ele>93.00000000000001</ele><time>2026-04-12T12:35:52.044Z</time></trkpt><trkpt lat="45.3701518" lon="13.6646948"><ele>93.0</ele><time>2026-04-12T12:35:53.041Z</time></trkpt><trkpt lat="45.3701258" lon="13.6645951"><ele>93.0</ele><time>2026-04-12T12:35:54.048Z</time></trkpt><trkpt lat="45.370103" lon="13.6644988"><ele>93.0</ele><time>2026-04-12T12:35:55.044Z</time></trkpt><trkpt lat="45.3700788" lon="13.6644064"><ele>93.0</ele><time>2026-04-12T12:35:56.043Z</time></trkpt><trkpt lat="45.3700666" lon="13.6643068"><ele>93.00000000000001</ele><time>2026-04-12T12:35:57.045Z</time></trkpt><trkpt lat="45.3700556" lon="13.664213"><ele>93.0</ele><time>2026-04-12T12:35:58.045Z</time></trkpt><trkpt lat="45.3700452" lon="13.6641163"><ele>95.80000000000001</ele><time>2026-04-12T12:35:59.041Z</time></trkpt><trkpt lat="45.3700571" lon="13.6639714"><ele>98.6</ele><time>2026-04-12T12:36:01.04Z</time></trkpt><trkpt lat="45.3701003" lon="13.6638815"><ele>101.39999999999999</ele><time>2026-04-12T12:36:03.045Z</time></trkpt><trkpt lat="45.3701855" lon="13.6638202"><ele>104.19999999999999</ele><time>2026-04-12T12:36:05.046Z</time></trkpt><trkpt lat="45.3702806" lon="13.663738"><ele>107.0</ele><time>2026-04-12T12:36:07.044Z</time></trkpt><trkpt lat="45.370367" lon="13.6636514"><ele>108.39999999999999</ele><time>2026-04-12T12:36:09.046Z</time></trkpt><trkpt lat="45.3704505" lon="13.6635408"><ele>109.79999999999998</ele><time>2026-04-12T12:36:11.042Z</time></trkpt><trkpt lat="45.3705233" lon="13.6634224"><ele>111.2</ele><time>2026-04-12T12:36:13.041Z</time></trkpt><trkpt lat="45.370553" lon="13.6632909"><ele>112.6</ele><time>2026-04-12T12:36:15.043Z</time></trkpt><trkpt lat="45.3705909" lon="13.66315"><ele>114.0</ele><time>2026-04-12T12:36:17.047Z</time></trkpt><trkpt lat="45.3706439" lon="13.6630395"><ele>115.2</ele><time>2026-04-12T12:36:19.047Z</time></trkpt><trkpt lat="45.3707239" lon="13.6629562"><ele>116.4</ele><time>2026-04-12T12:36:21.043Z</time></trkpt><trkpt lat="45.3708006" lon="13.6629255"><ele>117.6</ele><time>2026-04-12T12:36:23.047Z</time></trkpt><trkpt lat="45.3708823" lon="13.6628777"><ele>118.8</ele><time>2026-04-12T13:05:15.208Z</time></trkpt><trkpt lat="45.37097" lon="13.6627929"><ele>120.0</ele><time>2026-04-12T13:05:17.212Z</time></trkpt><trkpt lat="45.3710343" lon="13.6627083"><ele>120.57142857142858</ele><time>2026-04-12T13:05:19.215Z</time></trkpt><trkpt lat="45.3711061" lon="13.6625902"><ele>121.14285714285714</ele><time>2026-04-12T13:05:21.215Z</time></trkpt><trkpt lat="45.371143" lon="13.6625155"><ele>121.71428571428572</ele><time>2026-04-12T13:05:22.218Z</time></trkpt><trkpt lat="45.371179" lon="13.6624365"><ele>122.28571428571429</ele><time>2026-04-12T13:05:23.211Z</time></trkpt><trkpt lat="45.3712183" lon="13.662349"><ele>122.85714285714286</ele><time>2026-04-12T13:05:24.208Z</time></trkpt><trkpt lat="45.371255" lon="13.6622649"><ele>123.42857142857143</ele><time>2026-04-12T13:05:25.21Z</time></trkpt><trkpt lat="45.3712891" lon="13.6621861"><ele>124.0</ele><time>2026-04-12T13:05:26.213Z</time></trkpt><trkpt lat="45.3713239" lon="13.6621011"><ele>123.5</ele><time>2026-04-12T13:05:27.211Z</time></trkpt><trkpt lat="45.3713835" lon="13.6619485"><ele>123.0</ele><time>2026-04-12T13:05:29.213Z</time></trkpt><trkpt lat="45.3714629" lon="13.66185"><ele>122.5</ele><time>2026-04-12T13:05:31.21Z</time></trkpt><trkpt lat="45.3715518" lon="13.6617655"><ele>122.0</ele><time>2026-04-12T13:05:33.209Z</time></trkpt><trkpt lat="45.3716591" lon="13.6616735"><ele>122.85714285714283</ele><time>2026-04-12T13:05:35.212Z</time></trkpt><trkpt lat="45.371709" lon="13.6616173"><ele>123.71428571428571</ele><time>2026-04-12T13:05:36.21Z</time></trkpt><trkpt lat="45.371753" lon="13.6615488"><ele>124.57142857142856</ele><time>2026-04-12T13:05:37.209Z</time></trkpt><trkpt lat="45.3717911" lon="13.6614744"><ele>125.42857142857142</ele><time>2026-04-12T13:05:38.208Z</time></trkpt><trkpt lat="45.3718186" lon="13.6613847"><ele>126.28571428571428</ele><time>2026-04-12T13:05:39.216Z</time></trkpt><trkpt lat="45.3718466" lon="13.6612871"><ele>127.14285714285714</ele><time>2026-04-12T13:05:40.211Z</time></trkpt><trkpt lat="45.3718671" lon="13.6611965"><ele>128.0</ele><time>2026-04-12T13:05:41.213Z</time></trkpt><trkpt lat="45.3718869" lon="13.6610976"><ele>128.28571428571428</ele><time>2026-04-12T13:05:42.206Z</time></trkpt><trkpt lat="45.3719087" lon="13.6610003"><ele>128.57142857142856</ele><time>2026-04-12T13:05:43.205Z</time></trkpt><trkpt lat="45.3719382" lon="13.6609118"><ele>128.85714285714286</ele><time>2026-04-12T13:05:44.206Z</time></trkpt><trkpt lat="45.3719797" lon="13.6608369"><ele>129.14285714285714</ele><time>2026-04-12T13:05:45.21Z</time></trkpt><trkpt lat="45.3720257" lon="13.6607679"><ele>129.42857142857144</ele><time>2026-04-12T13:05:46.207Z</time></trkpt><trkpt lat="45.3720751" lon="13.6607063"><ele>129.71428571428572</ele><time>2026-04-12T13:05:47.225Z</time></trkpt><trkpt lat="45.372152" lon="13.6606189"><ele>130.0</ele><time>2026-04-12T13:05:49.206Z</time></trkpt><trkpt lat="45.3722395" lon="13.6605487"><ele>130.4</ele><time>2026-04-12T13:05:51.215Z</time></trkpt><trkpt lat="45.3723193" lon="13.6605071"><ele>130.8</ele><time>2026-04-12T13:05:53.209Z</time></trkpt><trkpt lat="45.3723759" lon="13.6604232"><ele>131.2</ele><time>2026-04-12T13:05:55.207Z</time></trkpt><trkpt lat="45.3723896" lon="13.6603087"><ele>131.6</ele><time>2026-04-12T13:05:59.219Z</time></trkpt><trkpt lat="45.3723985" lon="13.6601336"><ele>132.0</ele><time>2026-04-12T13:06:01.22Z</time></trkpt><trkpt lat="45.3724171" lon="13.659942"><ele>132.83333333333334</ele><time>2026-04-12T13:06:02.207Z</time></trkpt><trkpt lat="45.372469" lon="13.6598349"><ele>133.66666666666666</ele><time>2026-04-12T13:06:04.212Z</time></trkpt><trkpt lat="45.3725347" lon="13.6597784"><ele>134.5</ele><time>2026-04-12T13:06:06.209Z</time></trkpt><trkpt lat="45.3726174" lon="13.6597502"><ele>135.33333333333331</ele><time>2026-04-12T13:06:08.21Z</time></trkpt><trkpt lat="45.3726754" lon="13.6597006"><ele>136.16666666666666</ele><time>2026-04-12T13:06:11.205Z</time></trkpt><trkpt lat="45.3727476" lon="13.6596408"><ele>137.0</ele><time>2026-04-12T13:06:14.206Z</time></trkpt><trkpt lat="45.3728324" lon="13.6595828"><ele>137.0</ele><time>2026-04-12T13:06:16.211Z</time></trkpt><trkpt lat="45.3728949" lon="13.6595335"><ele>137.0</ele><time>2026-04-12T13:06:17.208Z</time></trkpt><trkpt lat="45.3729559" lon="13.6594819"><ele>137.0</ele><time>2026-04-12T13:06:18.207Z</time></trkpt><trkpt lat="45.3730127" lon="13.6594248"><ele>137.0</ele><time>2026-04-12T13:06:19.213Z</time></trkpt><trkpt lat="45.3730877" lon="13.6592932"><ele>137.0</ele><time>2026-04-12T13:06:20.206Z</time></trkpt><trkpt lat="45.3731374" lon="13.6591955"><ele>137.0</ele><time>2026-04-12T13:06:21.211Z</time></trkpt><trkpt lat="45.3731419" lon="13.6591024"><ele>138.66666666666666</ele><time>2026-04-12T13:06:22.2Z</time></trkpt><trkpt lat="45.3731583" lon="13.6590138"><ele>140.33333333333331</ele><time>2026-04-12T13:06:23.211Z</time></trkpt><trkpt lat="45.3731893" lon="13.6588383"><ele>142.0</ele><time>2026-04-12T13:06:25.214Z</time></trkpt><trkpt lat="45.3732127" lon="13.6587369"><ele>143.66666666666666</ele><time>2026-04-12T13:06:26.215Z</time></trkpt><trkpt lat="45.3732441" lon="13.6586485"><ele>145.33333333333334</ele><time>2026-04-12T13:06:27.218Z</time></trkpt><trkpt lat="45.3733101" lon="13.6585264"><ele>147.0</ele><time>2026-04-12T13:06:29.208Z</time></trkpt><trkpt lat="45.3733871" lon="13.658422"><ele>147.0</ele><time>2026-04-12T13:06:31.211Z</time></trkpt><trkpt lat="45.3734451" lon="13.658372"><ele>147.0</ele><time>2026-04-12T13:06:32.222Z</time></trkpt><trkpt lat="45.3735029" lon="13.6583167"><ele>147.0</ele><time>2026-04-12T13:06:33.23Z</time></trkpt><trkpt lat="45.3735709" lon="13.658262"><ele>147.0</ele><time>2026-04-12T13:06:34.211Z</time></trkpt><trkpt lat="45.373643" lon="13.6582179"><ele>147.0</ele><time>2026-04-12T13:06:35.212Z</time></trkpt><trkpt lat="45.3737168" lon="13.6581829"><ele>147.0</ele><time>2026-04-12T13:06:36.212Z</time></trkpt><trkpt lat="45.3737893" lon="13.6581437"><ele>147.0</ele><time>2026-04-12T13:06:37.205Z</time></trkpt><trkpt lat="45.3738605" lon="13.6580989"><ele>148.66666666666666</ele><time>2026-04-12T13:06:38.218Z</time></trkpt><trkpt lat="45.3739281" lon="13.6580706"><ele>150.33333333333334</ele><time>2026-04-12T13:06:39.208Z</time></trkpt><trkpt lat="45.3739958" lon="13.6580515"><ele>152.0</ele><time>2026-04-12T13:06:40.209Z</time></trkpt><trkpt lat="45.3740611" lon="13.6580464"><ele>153.66666666666669</ele><time>2026-04-12T13:06:41.212Z</time></trkpt><trkpt lat="45.3741559" lon="13.6580733"><ele>155.33333333333334</ele><time>2026-04-12T13:06:43.215Z</time></trkpt><trkpt lat="45.374233" lon="13.6581822"><ele>157.0</ele><time>2026-04-12T13:06:45.217Z</time></trkpt><trkpt lat="45.3743025" lon="13.6583123"><ele>157.0</ele><time>2026-04-12T13:06:47.21Z</time></trkpt><trkpt lat="45.3743612" lon="13.6584215"><ele>157.0</ele><time>2026-04-12T13:06:49.209Z</time></trkpt><trkpt lat="45.3744025" lon="13.6584968"><ele>157.0</ele><time>2026-04-12T13:06:51.215Z</time></trkpt><trkpt lat="45.3744354" lon="13.6586142"><ele>157.0</ele><time>2026-04-12T13:06:53.215Z</time></trkpt><trkpt lat="45.374451" lon="13.6587278"><ele>157.0</ele><time>2026-04-12T13:06:56.211Z</time></trkpt><trkpt lat="45.3744788" lon="13.6588461"><ele>157.0</ele><time>2026-04-12T13:06:58.209Z</time></trkpt><trkpt lat="45.3745374" lon="13.6590644"><ele>157.5</ele><time>2026-04-12T13:06:59.209Z</time></trkpt><trkpt lat="45.3745687" lon="13.6591994"><ele>158.0</ele><time>2026-04-12T13:07:00.21Z</time></trkpt><trkpt lat="45.3745988" lon="13.6592855"><ele>158.5</ele><time>2026-04-12T13:07:01.201Z</time></trkpt><trkpt lat="45.3746264" lon="13.6593696"><ele>159.0</ele><time>2026-04-12T13:07:02.206Z</time></trkpt><trkpt lat="45.3746954" lon="13.659517"><ele>159.5</ele><time>2026-04-12T13:07:04.214Z</time></trkpt><trkpt lat="45.3747368" lon="13.6595996"><ele>160.0</ele><time>2026-04-12T13:07:05.21Z</time></trkpt><trkpt lat="45.3747806" lon="13.6596812"><ele>160.0</ele><time>2026-04-12T13:07:06.211Z</time></trkpt><trkpt lat="45.3748281" lon="13.6597562"><ele>160.0</ele><time>2026-04-12T13:07:07.205Z</time></trkpt><trkpt lat="45.3748755" lon="13.6598375"><ele>160.0</ele><time>2026-04-12T13:07:08.204Z</time></trkpt><trkpt lat="45.3749227" lon="13.6599148"><ele>160.0</ele><time>2026-04-12T13:07:09.212Z</time></trkpt><trkpt lat="45.3749713" lon="13.6599944"><ele>160.0</ele><time>2026-04-12T13:07:10.206Z</time></trkpt><trkpt lat="45.3750228" lon="13.6600743"><ele>160.0</ele><time>2026-04-12T13:07:11.211Z</time></trkpt><trkpt lat="45.3750709" lon="13.6601611"><ele>160.0</ele><time>2026-04-12T13:07:12.207Z</time></trkpt><trkpt lat="45.3751236" lon="13.660255"><ele>159.66666666666669</ele><time>2026-04-12T13:07:13.216Z</time></trkpt><trkpt lat="45.3751917" lon="13.6603555"><ele>159.33333333333334</ele><time>2026-04-12T13:07:14.209Z</time></trkpt><trkpt lat="45.3752498" lon="13.6604478"><ele>159.0</ele><time>2026-04-12T13:07:15.208Z</time></trkpt><trkpt lat="45.3753051" lon="13.6605413"><ele>158.66666666666666</ele><time>2026-04-12T13:07:16.211Z</time></trkpt><trkpt lat="45.375357" lon="13.6606221"><ele>158.33333333333331</ele><time>2026-04-12T13:07:17.218Z</time></trkpt><trkpt lat="45.3754174" lon="13.6607027"><ele>158.0</ele><time>2026-04-12T13:07:18.207Z</time></trkpt><trkpt lat="45.3754759" lon="13.6607839"><ele>158.33333333333331</ele><time>2026-04-12T13:07:19.207Z</time></trkpt><trkpt lat="45.3755344" lon="13.6608719"><ele>158.66666666666666</ele><time>2026-04-12T13:07:20.209Z</time></trkpt><trkpt lat="45.375589" lon="13.6609568"><ele>159.0</ele><time>2026-04-12T13:07:21.211Z</time></trkpt><trkpt lat="45.3756358" lon="13.6610434"><ele>159.33333333333334</ele><time>2026-04-12T13:07:22.206Z</time></trkpt><trkpt lat="45.3756761" lon="13.6611411"><ele>159.66666666666669</ele><time>2026-04-12T13:07:23.211Z</time></trkpt><trkpt lat="45.3757151" lon="13.6612379"><ele>160.0</ele><time>2026-04-12T13:07:24.207Z</time></trkpt><trkpt lat="45.3757522" lon="13.6613456"><ele>160.5</ele><time>2026-04-12T13:07:25.209Z</time></trkpt><trkpt lat="45.3757857" lon="13.661453"><ele>161.0</ele><time>2026-04-12T13:07:26.213Z</time></trkpt><trkpt lat="45.3758151" lon="13.6615585"><ele>161.5</ele><time>2026-04-12T13:07:27.209Z</time></trkpt><trkpt lat="45.3758459" lon="13.6616698"><ele>162.0</ele><time>2026-04-12T13:07:28.211Z</time></trkpt><trkpt lat="45.3758717" lon="13.6617802"><ele>162.5</ele><time>2026-04-12T13:07:29.213Z</time></trkpt><trkpt lat="45.3758989" lon="13.6618952"><ele>163.0</ele><time>2026-04-12T13:07:30.214Z</time></trkpt><trkpt lat="45.3759328" lon="13.6620067"><ele>163.0</ele><time>2026-04-12T13:07:31.209Z</time></trkpt><trkpt lat="45.3759699" lon="13.6621118"><ele>163.0</ele><time>2026-04-12T13:07:32.211Z</time></trkpt><trkpt lat="45.376012" lon="13.6622227"><ele>163.0</ele><time>2026-04-12T13:07:33.215Z</time></trkpt><trkpt lat="45.3760549" lon="13.6623415"><ele>163.0</ele><time>2026-04-12T13:07:34.209Z</time></trkpt><trkpt lat="45.3760981" lon="13.6624635"><ele>163.0</ele><time>2026-04-12T13:07:35.208Z</time></trkpt><trkpt lat="45.3761443" lon="13.6625821"><ele>163.0</ele><time>2026-04-12T13:07:36.214Z</time></trkpt><trkpt lat="45.3761883" lon="13.6627025"><ele>163.0</ele><time>2026-04-12T13:07:37.211Z</time></trkpt><trkpt lat="45.3762299" lon="13.6628285"><ele>163.0</ele><time>2026-04-12T13:07:38.212Z</time></trkpt><trkpt lat="45.3762855" lon="13.6629538"><ele>163.0</ele><time>2026-04-12T13:07:39.209Z</time></trkpt><trkpt lat="45.3763416" lon="13.663072"><ele>163.0</ele><time>2026-04-12T13:07:40.209Z</time></trkpt><trkpt lat="45.376393" lon="13.6631962"><ele>163.60000000000002</ele><time>2026-04-12T13:07:41.208Z</time></trkpt><trkpt lat="45.376452" lon="13.6633277"><ele>164.20000000000002</ele><time>2026-04-12T13:07:42.206Z</time></trkpt><trkpt lat="45.3765056" lon="13.6634634"><ele>164.8</ele><time>2026-04-12T13:07:43.206Z</time></trkpt><trkpt lat="45.3765625" lon="13.6635981"><ele>165.4</ele><time>2026-04-12T13:07:44.204Z</time></trkpt><trkpt lat="45.3766213" lon="13.6637298"><ele>166.0</ele><time>2026-04-12T13:07:45.206Z</time></trkpt><trkpt lat="45.3766875" lon="13.6638559"><ele>166.0</ele><time>2026-04-12T13:07:46.208Z</time></trkpt><trkpt lat="45.3767632" lon="13.6639819"><ele>166.0</ele><time>2026-04-12T13:07:47.204Z</time></trkpt><trkpt lat="45.3768416" lon="13.6641137"><ele>166.0</ele><time>2026-04-12T13:07:48.207Z</time></trkpt><trkpt lat="45.3769219" lon="13.6642309"><ele>166.0</ele><time>2026-04-12T13:07:49.214Z</time></trkpt><trkpt lat="45.3770045" lon="13.6643505"><ele>165.4</ele><time>2026-04-12T13:07:50.215Z</time></trkpt><trkpt lat="45.3770849" lon="13.6644676"><ele>164.8</ele><time>2026-04-12T13:07:51.211Z</time></trkpt><trkpt lat="45.3771634" lon="13.6645765"><ele>164.20000000000002</ele><time>2026-04-12T13:07:52.21Z</time></trkpt><trkpt lat="45.3772427" lon="13.6646824"><ele>163.60000000000002</ele><time>2026-04-12T13:07:53.205Z</time></trkpt><trkpt lat="45.3773182" lon="13.6647912"><ele>163.0</ele><time>2026-04-12T13:07:54.208Z</time></trkpt><trkpt lat="45.3773853" lon="13.6649022"><ele>164.8</ele><time>2026-04-12T13:07:55.218Z</time></trkpt><trkpt lat="45.3774429" lon="13.6650223"><ele>166.60000000000002</ele><time>2026-04-12T13:07:56.213Z</time></trkpt><trkpt lat="45.377484" lon="13.6651358"><ele>168.39999999999998</ele><time>2026-04-12T13:07:57.213Z</time></trkpt><trkpt lat="45.3775152" lon="13.6652508"><ele>170.2</ele><time>2026-04-12T13:07:58.207Z</time></trkpt><trkpt lat="45.3775416" lon="13.6653706"><ele>172.0</ele><time>2026-04-12T13:07:59.213Z</time></trkpt><trkpt lat="45.3775631" lon="13.6654948"><ele>172.5</ele><time>2026-04-12T13:08:00.212Z</time></trkpt><trkpt lat="45.3775842" lon="13.6656165"><ele>173.0</ele><time>2026-04-12T13:08:01.21Z</time></trkpt><trkpt lat="45.3776106" lon="13.6657331"><ele>173.5</ele><time>2026-04-12T13:08:02.207Z</time></trkpt><trkpt lat="45.377637" lon="13.6658462"><ele>174.0</ele><time>2026-04-12T13:08:03.213Z</time></trkpt><trkpt lat="45.3776674" lon="13.6659655"><ele>174.5</ele><time>2026-04-12T13:08:04.212Z</time></trkpt><trkpt lat="45.3776996" lon="13.6660881"><ele>175.0</ele><time>2026-04-12T13:08:05.223Z</time></trkpt><trkpt lat="45.3777393" lon="13.6662098"><ele>175.0</ele><time>2026-04-12T13:08:06.209Z</time></trkpt><trkpt lat="45.3777867" lon="13.666327"><ele>175.0</ele><time>2026-04-12T13:08:07.215Z</time></trkpt><trkpt lat="45.3778345" lon="13.6664486"><ele>175.0</ele><time>2026-04-12T13:08:08.209Z</time></trkpt><trkpt lat="45.3778879" lon="13.6665659"><ele>175.0</ele><time>2026-04-12T13:08:09.21Z</time></trkpt><trkpt lat="45.3779488" lon="13.6666798"><ele>175.0</ele><time>2026-04-12T13:08:10.206Z</time></trkpt><trkpt lat="45.3780137" lon="13.6667874"><ele>177.2</ele><time>2026-04-12T13:08:11.221Z</time></trkpt><trkpt lat="45.3780775" lon="13.6668916"><ele>179.4</ele><time>2026-04-12T13:08:12.217Z</time></trkpt><trkpt lat="45.3781485" lon="13.6669911"><ele>181.60000000000002</ele><time>2026-04-12T13:08:13.214Z</time></trkpt><trkpt lat="45.3782283" lon="13.6670837"><ele>183.8</ele><time>2026-04-12T13:08:14.209Z</time></trkpt><trkpt lat="45.378318" lon="13.667167"><ele>186.0</ele><time>2026-04-12T13:08:15.215Z</time></trkpt><trkpt lat="45.3784116" lon="13.6672415"><ele>186.0</ele><time>2026-04-12T13:08:16.214Z</time></trkpt><trkpt lat="45.3785068" lon="13.6673005"><ele>186.0</ele><time>2026-04-12T13:08:17.217Z</time></trkpt><trkpt lat="45.3786061" lon="13.6673452"><ele>186.0</ele><time>2026-04-12T13:08:18.218Z</time></trkpt><trkpt lat="45.3787107" lon="13.6673719"><ele>186.0</ele><time>2026-04-12T13:08:19.207Z</time></trkpt><trkpt lat="45.378814" lon="13.6673888"><ele>186.0</ele><time>2026-04-12T13:08:20.212Z</time></trkpt><trkpt lat="45.3789194" lon="13.6673953"><ele>187.4</ele><time>2026-04-12T13:08:21.215Z</time></trkpt><trkpt lat="45.379022" lon="13.6673819"><ele>188.8</ele><time>2026-04-12T13:08:22.204Z</time></trkpt><trkpt lat="45.379121" lon="13.6673603"><ele>190.20000000000002</ele><time>2026-04-12T13:08:23.212Z</time></trkpt><trkpt lat="45.3792184" lon="13.6673243"><ele>191.60000000000002</ele><time>2026-04-12T13:08:24.211Z</time></trkpt><trkpt lat="45.3793206" lon="13.6672826"><ele>193.0</ele><time>2026-04-12T13:08:25.206Z</time></trkpt><trkpt lat="45.3794236" lon="13.6672468"><ele>193.0</ele><time>2026-04-12T13:08:26.213Z</time></trkpt><trkpt lat="45.3795276" lon="13.6672162"><ele>193.0</ele><time>2026-04-12T13:08:27.204Z</time></trkpt><trkpt lat="45.3796354" lon="13.6671949"><ele>193.0</ele><time>2026-04-12T13:08:28.214Z</time></trkpt><trkpt lat="45.3797388" lon="13.6671881"><ele>193.0</ele><time>2026-04-12T13:08:29.207Z</time></trkpt><trkpt lat="45.3798343" lon="13.6671983"><ele>193.0</ele><time>2026-04-12T13:08:30.206Z</time></trkpt><trkpt lat="45.3799228" lon="13.6672074"><ele>193.16666666666666</ele><time>2026-04-12T13:08:31.212Z</time></trkpt><trkpt lat="45.3800078" lon="13.6672228"><ele>193.33333333333331</ele><time>2026-04-12T13:08:32.206Z</time></trkpt><trkpt lat="45.3800868" lon="13.6672559"><ele>193.5</ele><time>2026-04-12T13:08:33.203Z</time></trkpt><trkpt lat="45.3801637" lon="13.6673161"><ele>193.66666666666669</ele><time>2026-04-12T13:08:34.215Z</time></trkpt><trkpt lat="45.3802329" lon="13.6673924"><ele>193.83333333333334</ele><time>2026-04-12T13:08:35.213Z</time></trkpt><trkpt lat="45.3802981" lon="13.6674738"><ele>194.0</ele><time>2026-04-12T13:08:36.206Z</time></trkpt><trkpt lat="45.3803664" lon="13.6675607"><ele>194.00000000000003</ele><time>2026-04-12T13:08:37.212Z</time></trkpt><trkpt lat="45.380436" lon="13.6676484"><ele>194.0</ele><time>2026-04-12T13:08:38.21Z</time></trkpt><trkpt lat="45.3805099" lon="13.6677409"><ele>194.0</ele><time>2026-04-12T13:08:39.208Z</time></trkpt><trkpt lat="45.3805779" lon="13.667828"><ele>194.0</ele><time>2026-04-12T13:08:40.21Z</time></trkpt><trkpt lat="45.380641" lon="13.6679088"><ele>194.00000000000003</ele><time>2026-04-12T13:08:41.208Z</time></trkpt><trkpt lat="45.380698" lon="13.6679884"><ele>194.0</ele><time>2026-04-12T13:08:42.204Z</time></trkpt><trkpt lat="45.3807539" lon="13.6680574"><ele>193.39999999999998</ele><time>2026-04-12T13:08:43.207Z</time></trkpt><trkpt lat="45.380836" lon="13.6681821"><ele>192.8</ele><time>2026-04-12T13:08:45.209Z</time></trkpt><trkpt lat="45.3809079" lon="13.6682996"><ele>192.2</ele><time>2026-04-12T13:08:47.209Z</time></trkpt><trkpt lat="45.3809525" lon="13.6684087"><ele>191.60000000000002</ele><time>2026-04-12T13:08:49.207Z</time></trkpt><trkpt lat="45.3809826" lon="13.6684978"><ele>191.0</ele><time>2026-04-12T13:09:15.215Z</time></trkpt><trkpt lat="45.3810374" lon="13.6686251"><ele>190.5</ele><time>2026-04-12T13:09:17.225Z</time></trkpt><trkpt lat="45.3810688" lon="13.6687125"><ele>190.0</ele><time>2026-04-12T13:09:18.218Z</time></trkpt><trkpt lat="45.3811013" lon="13.6688127"><ele>189.5</ele><time>2026-04-12T13:09:19.222Z</time></trkpt><trkpt lat="45.3811364" lon="13.6689295"><ele>189.0</ele><time>2026-04-12T13:09:20.213Z</time></trkpt><trkpt lat="45.3811682" lon="13.6690537"><ele>188.5</ele><time>2026-04-12T13:09:21.216Z</time></trkpt><trkpt lat="45.381201" lon="13.6691857"><ele>188.0</ele><time>2026-04-12T13:09:22.214Z</time></trkpt><trkpt lat="45.3812361" lon="13.6693217"><ele>187.8</ele><time>2026-04-12T13:09:23.21Z</time></trkpt><trkpt lat="45.3812674" lon="13.6694632"><ele>187.60000000000002</ele><time>2026-04-12T13:09:24.21Z</time></trkpt><trkpt lat="45.381302" lon="13.6696049"><ele>187.39999999999998</ele><time>2026-04-12T13:09:25.212Z</time></trkpt><trkpt lat="45.3813328" lon="13.6697466"><ele>187.2</ele><time>2026-04-12T13:09:26.207Z</time></trkpt><trkpt lat="45.3813629" lon="13.6698861"><ele>187.0</ele><time>2026-04-12T13:09:27.214Z</time></trkpt><trkpt lat="45.3813903" lon="13.6700428"><ele>190.8</ele><time>2026-04-12T13:09:28.209Z</time></trkpt><trkpt lat="45.3814128" lon="13.6701986"><ele>194.6</ele><time>2026-04-12T13:09:29.211Z</time></trkpt><trkpt lat="45.3814333" lon="13.6703527"><ele>198.4</ele><time>2026-04-12T13:09:30.21Z</time></trkpt><trkpt lat="45.3814521" lon="13.6705114"><ele>202.20000000000002</ele><time>2026-04-12T13:09:31.215Z</time></trkpt><trkpt lat="45.3814687" lon="13.6706716"><ele>206.0</ele><time>2026-04-12T13:09:32.21Z</time></trkpt><trkpt lat="45.3814819" lon="13.670838"><ele>207.0</ele><time>2026-04-12T13:09:33.213Z</time></trkpt><trkpt lat="45.3814883" lon="13.6710021"><ele>208.0</ele><time>2026-04-12T13:09:34.208Z</time></trkpt><trkpt lat="45.3814998" lon="13.6711722"><ele>209.0</ele><time>2026-04-12T13:09:35.207Z</time></trkpt><trkpt lat="45.3815025" lon="13.6713443"><ele>210.0</ele><time>2026-04-12T13:09:36.211Z</time></trkpt><trkpt lat="45.3815057" lon="13.6715172"><ele>210.25</ele><time>2026-04-12T13:09:37.211Z</time></trkpt><trkpt lat="45.3815078" lon="13.6716862"><ele>210.5</ele><time>2026-04-12T13:09:38.216Z</time></trkpt><trkpt lat="45.3815106" lon="13.6718523"><ele>210.75</ele><time>2026-04-12T13:09:39.21Z</time></trkpt><trkpt lat="45.3815156" lon="13.672016"><ele>211.0</ele><time>2026-04-12T13:09:40.212Z</time></trkpt><trkpt lat="45.3815278" lon="13.6721747"><ele>211.0</ele><time>2026-04-12T13:09:41.207Z</time></trkpt><trkpt lat="45.3815442" lon="13.6723264"><ele>211.0</ele><time>2026-04-12T13:09:42.212Z</time></trkpt><trkpt lat="45.381575" lon="13.6724744"><ele>211.0</ele><time>2026-04-12T13:09:43.214Z</time></trkpt><trkpt lat="45.3816048" lon="13.6726198"><ele>211.0</ele><time>2026-04-12T13:09:44.211Z</time></trkpt><trkpt lat="45.3816441" lon="13.6727756"><ele>211.0</ele><time>2026-04-12T13:09:45.208Z</time></trkpt><trkpt lat="45.3816892" lon="13.6729227"><ele>211.0</ele><time>2026-04-12T13:09:46.206Z</time></trkpt><trkpt lat="45.3817257" lon="13.6730718"><ele>211.0</ele><time>2026-04-12T13:09:47.209Z</time></trkpt><trkpt lat="45.3817566" lon="13.6732258"><ele>211.0</ele><time>2026-04-12T13:09:48.208Z</time></trkpt><trkpt lat="45.3817777" lon="13.6733863"><ele>211.0</ele><time>2026-04-12T13:09:49.21Z</time></trkpt><trkpt lat="45.3817826" lon="13.6735497"><ele>210.8</ele><time>2026-04-12T13:09:50.208Z</time></trkpt><trkpt lat="45.3817832" lon="13.6737088"><ele>210.60000000000002</ele><time>2026-04-12T13:09:51.213Z</time></trkpt><trkpt lat="45.3817745" lon="13.673867"><ele>210.4</ele><time>2026-04-12T13:09:52.209Z</time></trkpt><trkpt lat="45.381759" lon="13.6740248"><ele>210.2</ele><time>2026-04-12T13:09:53.208Z</time></trkpt><trkpt lat="45.381748" lon="13.6741865"><ele>210.0</ele><time>2026-04-12T13:09:54.211Z</time></trkpt><trkpt lat="45.3817443" lon="13.6743546"><ele>210.25</ele><time>2026-04-12T13:09:55.215Z</time></trkpt><trkpt lat="45.3817584" lon="13.6745222"><ele>210.5</ele><time>2026-04-12T13:09:56.217Z</time></trkpt><trkpt lat="45.3817851" lon="13.674694"><ele>210.75</ele><time>2026-04-12T13:09:57.21Z</time></trkpt><trkpt lat="45.3818228" lon="13.6748714"><ele>211.0</ele><time>2026-04-12T13:09:58.213Z</time></trkpt><trkpt lat="45.3818711" lon="13.6750564"><ele>211.0</ele><time>2026-04-12T13:09:59.21Z</time></trkpt><trkpt lat="45.3819233" lon="13.6752407"><ele>211.0</ele><time>2026-04-12T13:10:00.21Z</time></trkpt><trkpt lat="45.3819756" lon="13.6754269"><ele>211.0</ele><time>2026-04-12T13:10:01.211Z</time></trkpt><trkpt lat="45.3820248" lon="13.6756125"><ele>211.0</ele><time>2026-04-12T13:10:02.209Z</time></trkpt><trkpt lat="45.3820744" lon="13.6758058"><ele>211.0</ele><time>2026-04-12T13:10:03.206Z</time></trkpt><trkpt lat="45.3821256" lon="13.6759914"><ele>211.0</ele><time>2026-04-12T13:10:04.204Z</time></trkpt><trkpt lat="45.3821798" lon="13.6761715"><ele>211.0</ele><time>2026-04-12T13:10:05.21Z</time></trkpt><trkpt lat="45.3822404" lon="13.6763479"><ele>211.0</ele><time>2026-04-12T13:10:06.205Z</time></trkpt><trkpt lat="45.3823114" lon="13.6765243"><ele>211.0</ele><time>2026-04-12T13:10:07.216Z</time></trkpt><trkpt lat="45.3823878" lon="13.676694"><ele>211.0</ele><time>2026-04-12T13:10:08.207Z</time></trkpt><trkpt lat="45.3824734" lon="13.676852"><ele>211.0</ele><time>2026-04-12T13:10:09.212Z</time></trkpt><trkpt lat="45.382562" lon="13.6770035"><ele>211.0</ele><time>2026-04-12T13:10:10.219Z</time></trkpt><trkpt lat="45.3826525" lon="13.6771573"><ele>211.0</ele><time>2026-04-12T13:10:11.208Z</time></trkpt><trkpt lat="45.3827478" lon="13.6773012"><ele>211.0</ele><time>2026-04-12T13:10:12.208Z</time></trkpt><trkpt lat="45.3828522" lon="13.6774349"><ele>211.0</ele><time>2026-04-12T13:10:13.209Z</time></trkpt><trkpt lat="45.3829595" lon="13.6775572"><ele>211.0</ele><time>2026-04-12T13:10:14.211Z</time></trkpt><trkpt lat="45.383065" lon="13.6776794"><ele>210.5</ele><time>2026-04-12T13:10:15.209Z</time></trkpt><trkpt lat="45.3831741" lon="13.6777991"><ele>210.0</ele><time>2026-04-12T13:10:16.212Z</time></trkpt><trkpt lat="45.3832789" lon="13.6779225"><ele>209.5</ele><time>2026-04-12T13:10:17.219Z</time></trkpt><trkpt lat="45.3833854" lon="13.67805"><ele>209.0</ele><time>2026-04-12T13:10:18.207Z</time></trkpt><trkpt lat="45.3834897" lon="13.6781857"><ele>209.0</ele><time>2026-04-12T13:10:19.21Z</time></trkpt><trkpt lat="45.3835897" lon="13.6783317"><ele>209.0</ele><time>2026-04-12T13:10:20.216Z</time></trkpt><trkpt lat="45.3836845" lon="13.678482"><ele>209.0</ele><time>2026-04-12T13:10:21.206Z</time></trkpt><trkpt lat="45.3837688" lon="13.6786356"><ele>209.0</ele><time>2026-04-12T13:10:22.209Z</time></trkpt><trkpt lat="45.3838437" lon="13.6787977"><ele>209.0</ele><time>2026-04-12T13:10:23.209Z</time></trkpt><trkpt lat="45.3839136" lon="13.6789517"><ele>209.0</ele><time>2026-04-12T13:10:24.206Z</time></trkpt><trkpt lat="45.3839687" lon="13.67909"><ele>209.0</ele><time>2026-04-12T13:10:25.212Z</time></trkpt><trkpt lat="45.3840226" lon="13.6792259"><ele>209.0</ele><time>2026-04-12T13:10:26.212Z</time></trkpt><trkpt lat="45.3840801" lon="13.6793662"><ele>208.75</ele><time>2026-04-12T13:10:27.213Z</time></trkpt><trkpt lat="45.3841308" lon="13.679503"><ele>208.5</ele><time>2026-04-12T13:10:28.216Z</time></trkpt><trkpt lat="45.384184" lon="13.6796433"><ele>208.25</ele><time>2026-04-12T13:10:29.207Z</time></trkpt><trkpt lat="45.3842419" lon="13.6797874"><ele>208.0</ele><time>2026-04-12T13:10:30.218Z</time></trkpt><trkpt lat="45.3842991" lon="13.6799292"><ele>208.0</ele><time>2026-04-12T13:10:31.204Z</time></trkpt><trkpt lat="45.3843588" lon="13.6800735"><ele>208.0</ele><time>2026-04-12T13:10:32.21Z</time></trkpt><trkpt lat="45.3844145" lon="13.6802203"><ele>208.0</ele><time>2026-04-12T13:10:33.208Z</time></trkpt><trkpt lat="45.3844725" lon="13.6803664"><ele>208.0</ele><time>2026-04-12T13:10:34.213Z</time></trkpt><trkpt lat="45.3845255" lon="13.6805169"><ele>207.75</ele><time>2026-04-12T13:10:35.218Z</time></trkpt><trkpt lat="45.3845803" lon="13.6806735"><ele>207.5</ele><time>2026-04-12T13:10:36.206Z</time></trkpt><trkpt lat="45.3846282" lon="13.6808326"><ele>207.25</ele><time>2026-04-12T13:10:37.208Z</time></trkpt><trkpt lat="45.3846693" lon="13.6809924"><ele>207.0</ele><time>2026-04-12T13:10:38.213Z</time></trkpt><trkpt lat="45.3846916" lon="13.6811659"><ele>207.0</ele><time>2026-04-12T13:10:39.206Z</time></trkpt><trkpt lat="45.3847016" lon="13.6813404"><ele>207.0</ele><time>2026-04-12T13:10:40.21Z</time></trkpt><trkpt lat="45.3847042" lon="13.6815202"><ele>207.0</ele><time>2026-04-12T13:10:41.208Z</time></trkpt><trkpt lat="45.3847042" lon="13.6816993"><ele>207.0</ele><time>2026-04-12T13:10:42.207Z</time></trkpt><trkpt lat="45.3847011" lon="13.6818758"><ele>208.0</ele><time>2026-04-12T13:10:43.203Z</time></trkpt><trkpt lat="45.3847071" lon="13.6820443"><ele>209.0</ele><time>2026-04-12T13:10:44.203Z</time></trkpt><trkpt lat="45.3847329" lon="13.6822068"><ele>210.0</ele><time>2026-04-12T13:10:45.208Z</time></trkpt><trkpt lat="45.3847764" lon="13.6823704"><ele>211.0</ele><time>2026-04-12T13:10:46.211Z</time></trkpt><trkpt lat="45.3848385" lon="13.6825305"><ele>211.0</ele><time>2026-04-12T13:10:47.217Z</time></trkpt><trkpt lat="45.3848949" lon="13.6826877"><ele>211.0</ele><time>2026-04-12T13:10:48.211Z</time></trkpt><trkpt lat="45.3849412" lon="13.6828496"><ele>211.0</ele><time>2026-04-12T13:10:49.207Z</time></trkpt><trkpt lat="45.3849671" lon="13.6830113"><ele>211.0</ele><time>2026-04-12T13:10:50.21Z</time></trkpt><trkpt lat="45.3849805" lon="13.6831909"><ele>213.75</ele><time>2026-04-12T13:10:51.21Z</time></trkpt><trkpt lat="45.3849818" lon="13.683383"><ele>216.5</ele><time>2026-04-12T13:10:52.21Z</time></trkpt><trkpt lat="45.3849799" lon="13.6835816"><ele>219.25</ele><time>2026-04-12T13:10:53.205Z</time></trkpt><trkpt lat="45.3849778" lon="13.6837821"><ele>222.0</ele><time>2026-04-12T13:10:54.207Z</time></trkpt><trkpt lat="45.3849861" lon="13.6839607"><ele>222.25</ele><time>2026-04-12T13:10:55.211Z</time></trkpt><trkpt lat="45.3849777" lon="13.6841276"><ele>222.5</ele><time>2026-04-12T13:10:56.213Z</time></trkpt><trkpt lat="45.3849569" lon="13.6842832"><ele>222.75</ele><time>2026-04-12T13:10:57.208Z</time></trkpt><trkpt lat="45.3849183" lon="13.6844347"><ele>223.0</ele><time>2026-04-12T13:10:58.211Z</time></trkpt><trkpt lat="45.3848499" lon="13.6845627"><ele>224.0</ele><time>2026-04-12T13:10:59.208Z</time></trkpt><trkpt lat="45.3847636" lon="13.6846742"><ele>225.0</ele><time>2026-04-12T13:11:00.21Z</time></trkpt><trkpt lat="45.3846757" lon="13.6847679"><ele>226.0</ele><time>2026-04-12T13:11:01.22Z</time></trkpt><trkpt lat="45.3845815" lon="13.6848537"><ele>227.0</ele><time>2026-04-12T13:11:02.211Z</time></trkpt><trkpt lat="45.3844889" lon="13.684934"><ele>228.0</ele><time>2026-04-12T13:11:03.206Z</time></trkpt><trkpt lat="45.3843985" lon="13.6850179"><ele>228.0</ele><time>2026-04-12T13:11:04.21Z</time></trkpt><trkpt lat="45.3843173" lon="13.6850894"><ele>228.0</ele><time>2026-04-12T13:11:05.213Z</time></trkpt><trkpt lat="45.3842482" lon="13.6851497"><ele>228.0</ele><time>2026-04-12T13:11:06.207Z</time></trkpt><trkpt lat="45.3841878" lon="13.6852118"><ele>228.0</ele><time>2026-04-12T13:11:07.21Z</time></trkpt><trkpt lat="45.3841044" lon="13.6853254"><ele>228.0</ele><time>2026-04-12T13:11:09.206Z</time></trkpt><trkpt lat="45.3840913" lon="13.6854321"><ele>228.0</ele><time>2026-04-12T13:11:11.208Z</time></trkpt><trkpt lat="45.3840954" lon="13.685529"><ele>228.8</ele><time>2026-04-12T13:11:14.207Z</time></trkpt><trkpt lat="45.3841418" lon="13.6856216"><ele>229.60000000000002</ele><time>2026-04-12T13:11:49.206Z</time></trkpt><trkpt lat="45.3842056" lon="13.6857871"><ele>230.39999999999998</ele><time>2026-04-12T13:11:58.208Z</time></trkpt><trkpt lat="45.3842403" lon="13.6858896"><ele>231.2</ele><time>2026-04-12T13:11:59.217Z</time></trkpt><trkpt lat="45.3842848" lon="13.6859879"><ele>232.0</ele><time>2026-04-12T13:12:00.213Z</time></trkpt><trkpt lat="45.3843404" lon="13.6860833"><ele>233.2</ele><time>2026-04-12T13:12:01.205Z</time></trkpt><trkpt lat="45.384406" lon="13.6861707"><ele>234.39999999999998</ele><time>2026-04-12T13:12:02.21Z</time></trkpt><trkpt lat="45.3844792" lon="13.6862561"><ele>235.60000000000002</ele><time>2026-04-12T13:12:03.213Z</time></trkpt><trkpt lat="45.384554" lon="13.6863296"><ele>236.8</ele><time>2026-04-12T13:12:04.204Z</time></trkpt><trkpt lat="45.3846262" lon="13.6864199"><ele>238.0</ele><time>2026-04-12T13:12:05.205Z</time></trkpt><trkpt lat="45.3846944" lon="13.6865032"><ele>234.16666666666666</ele><time>2026-04-12T13:12:06.212Z</time></trkpt><trkpt lat="45.3847516" lon="13.6865868"><ele>230.33333333333331</ele><time>2026-04-12T13:12:07.207Z</time></trkpt><trkpt lat="45.3848081" lon="13.6866497"><ele>226.5</ele><time>2026-04-12T13:12:08.206Z</time></trkpt><trkpt lat="45.3848644" lon="13.6867016"><ele>222.66666666666669</ele><time>2026-04-12T13:12:09.209Z</time></trkpt><trkpt lat="45.3849197" lon="13.6867577"><ele>218.83333333333334</ele><time>2026-04-12T13:12:10.208Z</time></trkpt><trkpt lat="45.3850174" lon="13.6868442"><ele>215.0</ele><time>2026-04-12T13:12:12.207Z</time></trkpt><trkpt lat="45.3851004" lon="13.6869229"><ele>216.42857142857142</ele><time>2026-04-12T13:12:14.209Z</time></trkpt><trkpt lat="45.3851555" lon="13.6869763"><ele>217.8571428571429</ele><time>2026-04-12T13:12:15.207Z</time></trkpt><trkpt lat="45.3852097" lon="13.6870373"><ele>219.2857142857143</ele><time>2026-04-12T13:12:16.206Z</time></trkpt><trkpt lat="45.3852585" lon="13.6870945"><ele>220.71428571428572</ele><time>2026-04-12T13:12:17.205Z</time></trkpt><trkpt lat="45.3853023" lon="13.6871614"><ele>222.14285714285717</ele><time>2026-04-12T13:12:18.207Z</time></trkpt><trkpt lat="45.3853389" lon="13.6872347"><ele>223.5714285714286</ele><time>2026-04-12T13:12:19.206Z</time></trkpt><trkpt lat="45.3854176" lon="13.6873432"><ele>225.00000000000003</ele><time>2026-04-12T13:12:21.208Z</time></trkpt><trkpt lat="45.3855166" lon="13.6874058"><ele>222.2</ele><time>2026-04-12T13:12:23.206Z</time></trkpt><trkpt lat="45.3855906" lon="13.6875094"><ele>219.4</ele><time>2026-04-12T13:12:25.211Z</time></trkpt><trkpt lat="45.3856693" lon="13.6876526"><ele>216.60000000000002</ele><time>2026-04-12T13:12:27.213Z</time></trkpt><trkpt lat="45.3857327" lon="13.6878109"><ele>213.8</ele><time>2026-04-12T13:12:29.214Z</time></trkpt><trkpt lat="45.3857786" lon="13.6879194"><ele>211.0</ele><time>2026-04-12T13:12:30.208Z</time></trkpt><trkpt lat="45.3858213" lon="13.6880454"><ele>210.99999999999997</ele><time>2026-04-12T13:12:31.205Z</time></trkpt><trkpt lat="45.3858538" lon="13.6881473"><ele>211.0</ele><time>2026-04-12T13:12:32.208Z</time></trkpt><trkpt lat="45.3858984" lon="13.6882197"><ele>211.0</ele><time>2026-04-12T13:12:33.212Z</time></trkpt><trkpt lat="45.3859611" lon="13.6882868"><ele>211.0</ele><time>2026-04-12T13:12:35.211Z</time></trkpt><trkpt lat="45.3860301" lon="13.6882385"><ele>210.99999999999997</ele><time>2026-04-12T13:12:39.207Z</time></trkpt><trkpt lat="45.3860551" lon="13.6881311"><ele>211.0</ele><time>2026-04-12T13:12:42.205Z</time></trkpt><trkpt lat="45.3861347" lon="13.6879039"><ele>211.0</ele><time>2026-04-12T13:12:44.203Z</time></trkpt><trkpt lat="45.3862326" lon="13.6877246"><ele>211.0</ele><time>2026-04-12T13:12:45.209Z</time></trkpt><trkpt lat="45.3862979" lon="13.6876561"><ele>211.0</ele><time>2026-04-12T13:12:46.2Z</time></trkpt><trkpt lat="45.3863601" lon="13.6875864"><ele>211.0</ele><time>2026-04-12T13:12:47.204Z</time></trkpt><trkpt lat="45.3864169" lon="13.6875238"><ele>211.0</ele><time>2026-04-12T13:12:48.211Z</time></trkpt><trkpt lat="45.3864752" lon="13.6874632"><ele>211.0</ele><time>2026-04-12T13:12:49.209Z</time></trkpt><trkpt lat="45.3865414" lon="13.6874102"><ele>211.0</ele><time>2026-04-12T13:12:50.207Z</time></trkpt><trkpt lat="45.3866031" lon="13.6873544"><ele>211.0</ele><time>2026-04-12T13:12:51.218Z</time></trkpt><trkpt lat="45.3866851" lon="13.6872536"><ele>211.0</ele><time>2026-04-12T13:12:53.217Z</time></trkpt><trkpt lat="45.3867744" lon="13.6871844"><ele>211.0</ele><time>2026-04-12T13:12:55.203Z</time></trkpt><trkpt lat="45.3868755" lon="13.687122"><ele>211.0</ele><time>2026-04-12T13:12:57.211Z</time></trkpt><trkpt lat="45.386951" lon="13.6870954"><ele>211.0</ele><time>2026-04-12T13:12:59.215Z</time></trkpt><trkpt lat="45.3870188" lon="13.6871165"><ele>211.0</ele><time>2026-04-12T13:13:02.204Z</time></trkpt><trkpt lat="45.3870139" lon="13.6872314"><ele>211.0</ele><time>2026-04-12T13:13:06.205Z</time></trkpt><trkpt lat="45.3870023" lon="13.6874101"><ele>211.0</ele><time>2026-04-12T13:13:08.211Z</time></trkpt><trkpt lat="45.3870117" lon="13.6875758"><ele>210.99999999999997</ele><time>2026-04-12T13:13:09.223Z</time></trkpt><trkpt lat="45.3870181" lon="13.6876719"><ele>211.0</ele><time>2026-04-12T13:13:10.203Z</time></trkpt><trkpt lat="45.3870872" lon="13.6877271"><ele>211.0</ele><time>2026-04-12T13:13:13.214Z</time></trkpt><trkpt lat="45.3871671" lon="13.6876525"><ele>211.0</ele><time>2026-04-12T13:13:15.212Z</time></trkpt><trkpt lat="45.3872033" lon="13.6875764"><ele>210.99999999999997</ele><time>2026-04-12T13:13:16.212Z</time></trkpt><trkpt lat="45.3872522" lon="13.6874906"><ele>211.0</ele><time>2026-04-12T13:13:17.213Z</time></trkpt><trkpt lat="45.3873192" lon="13.6873997"><ele>214.75</ele><time>2026-04-12T13:13:18.206Z</time></trkpt><trkpt lat="45.3873964" lon="13.6872964"><ele>218.5</ele><time>2026-04-12T13:13:19.206Z</time></trkpt><trkpt lat="45.3874848" lon="13.6871869"><ele>222.25</ele><time>2026-04-12T13:13:20.206Z</time></trkpt><trkpt lat="45.3875804" lon="13.6870726"><ele>226.0</ele><time>2026-04-12T13:13:21.21Z</time></trkpt><trkpt lat="45.3876814" lon="13.6869657"><ele>226.5</ele><time>2026-04-12T13:13:22.212Z</time></trkpt><trkpt lat="45.3877874" lon="13.6868698"><ele>227.0</ele><time>2026-04-12T13:13:23.206Z</time></trkpt><trkpt lat="45.3878944" lon="13.6867772"><ele>227.5</ele><time>2026-04-12T13:13:24.206Z</time></trkpt><trkpt lat="45.3880037" lon="13.686699"><ele>228.0</ele><time>2026-04-12T13:13:25.212Z</time></trkpt><trkpt lat="45.3881071" lon="13.6866242"><ele>228.0</ele><time>2026-04-12T13:13:26.207Z</time></trkpt><trkpt lat="45.388208" lon="13.6865444"><ele>228.0</ele><time>2026-04-12T13:13:27.207Z</time></trkpt><trkpt lat="45.3883095" lon="13.6864705"><ele>228.0</ele><time>2026-04-12T13:13:28.207Z</time></trkpt><trkpt lat="45.3884081" lon="13.6864043"><ele>228.0</ele><time>2026-04-12T13:13:29.205Z</time></trkpt><trkpt lat="45.3885192" lon="13.6863532"><ele>228.0</ele><time>2026-04-12T13:13:30.208Z</time></trkpt><trkpt lat="45.3886337" lon="13.6863323"><ele>228.0</ele><time>2026-04-12T13:13:31.206Z</time></trkpt><trkpt lat="45.3887527" lon="13.6863538"><ele>228.0</ele><time>2026-04-12T13:13:32.215Z</time></trkpt><trkpt lat="45.3888656" lon="13.6863908"><ele>228.0</ele><time>2026-04-12T13:13:33.204Z</time></trkpt><trkpt lat="45.3889779" lon="13.6864385"><ele>229.0</ele><time>2026-04-12T13:13:34.204Z</time></trkpt><trkpt lat="45.3890919" lon="13.686487"><ele>230.0</ele><time>2026-04-12T13:13:35.206Z</time></trkpt><trkpt lat="45.3892137" lon="13.6865138"><ele>231.0</ele><time>2026-04-12T13:13:36.209Z</time></trkpt><trkpt lat="45.3893387" lon="13.6865146"><ele>232.0</ele><time>2026-04-12T13:13:37.208Z</time></trkpt><trkpt lat="45.3894671" lon="13.6864883"><ele>232.0</ele><time>2026-04-12T13:13:38.208Z</time></trkpt><trkpt lat="45.3895977" lon="13.6864541"><ele>232.0</ele><time>2026-04-12T13:13:39.205Z</time></trkpt><trkpt lat="45.3897329" lon="13.6864024"><ele>232.0</ele><time>2026-04-12T13:13:40.205Z</time></trkpt><trkpt lat="45.3898605" lon="13.6863564"><ele>232.0</ele><time>2026-04-12T13:13:41.206Z</time></trkpt><trkpt lat="45.3899934" lon="13.6863177"><ele>232.0</ele><time>2026-04-12T13:13:42.206Z</time></trkpt><trkpt lat="45.3901368" lon="13.6862881"><ele>232.0</ele><time>2026-04-12T13:13:43.203Z</time></trkpt><trkpt lat="45.3902871" lon="13.686266"><ele>232.0</ele><time>2026-04-12T13:13:44.206Z</time></trkpt><trkpt lat="45.3904392" lon="13.6862489"><ele>232.0</ele><time>2026-04-12T13:13:45.205Z</time></trkpt><trkpt lat="45.3905799" lon="13.6862326"><ele>232.25</ele><time>2026-04-12T13:13:46.21Z</time></trkpt><trkpt lat="45.3907209" lon="13.6862084"><ele>232.5</ele><time>2026-04-12T13:13:47.206Z</time></trkpt><trkpt lat="45.3908579" lon="13.6861633"><ele>232.75</ele><time>2026-04-12T13:13:48.204Z</time></trkpt><trkpt lat="45.3909883" lon="13.6860912"><ele>233.0</ele><time>2026-04-12T13:13:49.206Z</time></trkpt><trkpt lat="45.3911185" lon="13.6859957"><ele>227.66666666666669</ele><time>2026-04-12T13:13:50.203Z</time></trkpt><trkpt lat="45.3912434" lon="13.6858794"><ele>222.33333333333331</ele><time>2026-04-12T13:13:51.212Z</time></trkpt><trkpt lat="45.3913611" lon="13.6857331"><ele>217.0</ele><time>2026-04-12T13:13:52.205Z</time></trkpt><trkpt lat="45.3914727" lon="13.6855742"><ele>216.0</ele><time>2026-04-12T13:13:53.206Z</time></trkpt><trkpt lat="45.3915927" lon="13.68541"><ele>215.0</ele><time>2026-04-12T13:13:54.208Z</time></trkpt><trkpt lat="45.3917142" lon="13.6852242"><ele>214.0</ele><time>2026-04-12T13:13:55.203Z</time></trkpt><trkpt lat="45.3918262" lon="13.6850193"><ele>212.0</ele><time>2026-04-12T13:13:56.208Z</time></trkpt><trkpt lat="45.3919317" lon="13.6848002"><ele>210.0</ele><time>2026-04-12T13:13:57.21Z</time></trkpt><trkpt lat="45.3920336" lon="13.6845714"><ele>208.0</ele><time>2026-04-12T13:13:58.214Z</time></trkpt><trkpt lat="45.3921359" lon="13.6843374"><ele>210.0</ele><time>2026-04-12T13:13:59.204Z</time></trkpt><trkpt lat="45.3922484" lon="13.6841064"><ele>212.0</ele><time>2026-04-12T13:14:00.203Z</time></trkpt><trkpt lat="45.3923591" lon="13.6838884"><ele>214.0</ele><time>2026-04-12T13:14:01.21Z</time></trkpt><trkpt lat="45.3924619" lon="13.6836845"><ele>211.0</ele><time>2026-04-12T13:14:02.203Z</time></trkpt><trkpt lat="45.3925711" lon="13.6834803"><ele>208.0</ele><time>2026-04-12T13:14:03.21Z</time></trkpt><trkpt lat="45.3926983" lon="13.6832942"><ele>205.0</ele><time>2026-04-12T13:14:04.204Z</time></trkpt><trkpt lat="45.3928356" lon="13.6831233"><ele>205.0</ele><time>2026-04-12T13:14:05.211Z</time></trkpt><trkpt lat="45.3929753" lon="13.6829505"><ele>205.0</ele><time>2026-04-12T13:14:06.212Z</time></trkpt><trkpt lat="45.3931124" lon="13.6827772"><ele>205.0</ele><time>2026-04-12T13:14:07.205Z</time></trkpt><trkpt lat="45.3932537" lon="13.6825974"><ele>206.0</ele><time>2026-04-12T13:14:08.209Z</time></trkpt><trkpt lat="45.3933922" lon="13.6824175"><ele>207.0</ele><time>2026-04-12T13:14:09.208Z</time></trkpt><trkpt lat="45.3935293" lon="13.6822447"><ele>208.0</ele><time>2026-04-12T13:14:10.206Z</time></trkpt><trkpt lat="45.3936688" lon="13.682069"><ele>208.66666666666666</ele><time>2026-04-12T13:14:11.212Z</time></trkpt><trkpt lat="45.3938078" lon="13.6818938"><ele>209.33333333333331</ele><time>2026-04-12T13:14:12.207Z</time></trkpt><trkpt lat="45.3939473" lon="13.6817172"><ele>210.0</ele><time>2026-04-12T13:14:13.205Z</time></trkpt><trkpt lat="45.3940868" lon="13.6815377"><ele>210.0</ele><time>2026-04-12T13:14:14.207Z</time></trkpt><trkpt lat="45.3942251" lon="13.6813611"><ele>210.0</ele><time>2026-04-12T13:14:15.212Z</time></trkpt><trkpt lat="45.3943726" lon="13.6811827"><ele>210.0</ele><time>2026-04-12T13:14:16.207Z</time></trkpt><trkpt lat="45.3945171" lon="13.6810007"><ele>209.33333333333331</ele><time>2026-04-12T13:14:17.206Z</time></trkpt><trkpt lat="45.3946622" lon="13.6808198"><ele>208.66666666666666</ele><time>2026-04-12T13:14:18.212Z</time></trkpt><trkpt lat="45.3948082" lon="13.6806376"><ele>208.0</ele><time>2026-04-12T13:14:19.211Z</time></trkpt><trkpt lat="45.3949532" lon="13.680454"><ele>208.0</ele><time>2026-04-12T13:14:20.204Z</time></trkpt><trkpt lat="45.3950921" lon="13.6802807"><ele>208.0</ele><time>2026-04-12T13:14:21.205Z</time></trkpt><trkpt lat="45.3952195" lon="13.6801177"><ele>208.0</ele><time>2026-04-12T13:14:22.203Z</time></trkpt><trkpt lat="45.3953349" lon="13.6799728"><ele>207.25</ele><time>2026-04-12T13:14:23.21Z</time></trkpt><trkpt lat="45.3954469" lon="13.6798494"><ele>206.5</ele><time>2026-04-12T13:14:24.215Z</time></trkpt><trkpt lat="45.3955675" lon="13.6797562"><ele>205.75</ele><time>2026-04-12T13:14:25.207Z</time></trkpt><trkpt lat="45.3957057" lon="13.6797004"><ele>205.0</ele><time>2026-04-12T13:14:26.209Z</time></trkpt><trkpt lat="45.3958514" lon="13.6796754"><ele>207.66666666666666</ele><time>2026-04-12T13:14:27.203Z</time></trkpt><trkpt lat="45.3960019" lon="13.6796656"><ele>210.33333333333331</ele><time>2026-04-12T13:14:28.214Z</time></trkpt><trkpt lat="45.3961555" lon="13.6796649"><ele>213.0</ele><time>2026-04-12T13:14:29.209Z</time></trkpt><trkpt lat="45.3963114" lon="13.6796525"><ele>213.66666666666669</ele><time>2026-04-12T13:14:30.206Z</time></trkpt><trkpt lat="45.3964673" lon="13.6796361"><ele>214.33333333333334</ele><time>2026-04-12T13:14:31.207Z</time></trkpt><trkpt lat="45.3966169" lon="13.6796038"><ele>215.0</ele><time>2026-04-12T13:14:32.211Z</time></trkpt><trkpt lat="45.3967632" lon="13.6795419"><ele>215.0</ele><time>2026-04-12T13:14:33.211Z</time></trkpt><trkpt lat="45.3969029" lon="13.6794497"><ele>215.0</ele><time>2026-04-12T13:14:34.206Z</time></trkpt><trkpt lat="45.3970277" lon="13.679324"><ele>215.0</ele><time>2026-04-12T13:14:35.212Z</time></trkpt><trkpt lat="45.3971395" lon="13.6791573"><ele>215.33333333333334</ele><time>2026-04-12T13:14:36.207Z</time></trkpt><trkpt lat="45.3972406" lon="13.678979"><ele>215.66666666666669</ele><time>2026-04-12T13:14:37.207Z</time></trkpt><trkpt lat="45.3973352" lon="13.6787903"><ele>216.0</ele><time>2026-04-12T13:14:38.206Z</time></trkpt><trkpt lat="45.3974344" lon="13.6785888"><ele>213.33333333333331</ele><time>2026-04-12T13:14:39.202Z</time></trkpt><trkpt lat="45.3975376" lon="13.6783878"><ele>210.66666666666666</ele><time>2026-04-12T13:14:40.206Z</time></trkpt><trkpt lat="45.3976422" lon="13.6781884"><ele>208.0</ele><time>2026-04-12T13:14:41.208Z</time></trkpt><trkpt lat="45.3977479" lon="13.6779969"><ele>208.0</ele><time>2026-04-12T13:14:42.213Z</time></trkpt><trkpt lat="45.3978651" lon="13.6778189"><ele>208.0</ele><time>2026-04-12T13:14:43.206Z</time></trkpt><trkpt lat="45.3979997" lon="13.6776616"><ele>208.0</ele><time>2026-04-12T13:14:44.211Z</time></trkpt><trkpt lat="45.3981453" lon="13.677521"><ele>209.66666666666666</ele><time>2026-04-12T13:14:45.207Z</time></trkpt><trkpt lat="45.3983013" lon="13.6773863"><ele>211.33333333333331</ele><time>2026-04-12T13:14:46.208Z</time></trkpt><trkpt lat="45.3984597" lon="13.6772556"><ele>213.0</ele><time>2026-04-12T13:14:47.204Z</time></trkpt><trkpt lat="45.3986176" lon="13.6771189"><ele>213.0</ele><time>2026-04-12T13:14:48.207Z</time></trkpt><trkpt lat="45.3987692" lon="13.6769704"><ele>213.0</ele><time>2026-04-12T13:14:49.213Z</time></trkpt><trkpt lat="45.3989124" lon="13.6768063"><ele>213.0</ele><time>2026-04-12T13:14:50.223Z</time></trkpt><trkpt lat="45.3990393" lon="13.6766141"><ele>211.33333333333331</ele><time>2026-04-12T13:14:51.205Z</time></trkpt><trkpt lat="45.3991469" lon="13.6763961"><ele>209.66666666666666</ele><time>2026-04-12T13:14:52.206Z</time></trkpt><trkpt lat="45.3992307" lon="13.6761606"><ele>208.0</ele><time>2026-04-12T13:14:53.209Z</time></trkpt><trkpt lat="45.3992902" lon="13.6759157"><ele>206.66666666666666</ele><time>2026-04-12T13:14:54.201Z</time></trkpt><trkpt lat="45.3993183" lon="13.6756554"><ele>205.33333333333331</ele><time>2026-04-12T13:14:55.21Z</time></trkpt><trkpt lat="45.399325" lon="13.6753959"><ele>204.0</ele><time>2026-04-12T13:14:56.214Z</time></trkpt><trkpt lat="45.3993195" lon="13.6751354"><ele>204.0</ele><time>2026-04-12T13:14:57.207Z</time></trkpt><trkpt lat="45.3993166" lon="13.6748819"><ele>204.0</ele><time>2026-04-12T13:14:58.21Z</time></trkpt><trkpt lat="45.3993157" lon="13.6746453"><ele>204.0</ele><time>2026-04-12T13:14:59.212Z</time></trkpt><trkpt lat="45.3993209" lon="13.6744392"><ele>203.75</ele><time>2026-04-12T13:15:00.207Z</time></trkpt><trkpt lat="45.3993401" lon="13.6742479"><ele>203.5</ele><time>2026-04-12T13:15:01.203Z</time></trkpt><trkpt lat="45.3993825" lon="13.6740723"><ele>203.25</ele><time>2026-04-12T13:15:02.205Z</time></trkpt><trkpt lat="45.3994546" lon="13.6739129"><ele>203.0</ele><time>2026-04-12T13:15:03.204Z</time></trkpt><trkpt lat="45.3995568" lon="13.6737765"><ele>201.66666666666669</ele><time>2026-04-12T13:15:04.209Z</time></trkpt><trkpt lat="45.3996854" lon="13.6736758"><ele>200.33333333333331</ele><time>2026-04-12T13:15:05.217Z</time></trkpt><trkpt lat="45.3998272" lon="13.6735933"><ele>199.0</ele><time>2026-04-12T13:15:06.206Z</time></trkpt><trkpt lat="45.3999749" lon="13.6735065"><ele>199.0</ele><time>2026-04-12T13:15:07.209Z</time></trkpt><trkpt lat="45.4001227" lon="13.673399"><ele>199.0</ele><time>2026-04-12T13:15:08.205Z</time></trkpt><trkpt lat="45.4002688" lon="13.6732667"><ele>199.0</ele><time>2026-04-12T13:15:09.205Z</time></trkpt><trkpt lat="45.4004046" lon="13.6731083"><ele>199.0</ele><time>2026-04-12T13:15:10.205Z</time></trkpt><trkpt lat="45.400535" lon="13.6729268"><ele>199.0</ele><time>2026-04-12T13:15:11.208Z</time></trkpt><trkpt lat="45.4006549" lon="13.6727297"><ele>199.0</ele><time>2026-04-12T13:15:12.208Z</time></trkpt><trkpt lat="45.4007609" lon="13.672519"><ele>199.0</ele><time>2026-04-12T13:15:13.215Z</time></trkpt><trkpt lat="45.4008676" lon="13.6723162"><ele>199.0</ele><time>2026-04-12T13:15:14.208Z</time></trkpt><trkpt lat="45.4009772" lon="13.6721231"><ele>199.0</ele><time>2026-04-12T13:15:15.209Z</time></trkpt><trkpt lat="45.4010896" lon="13.671928"><ele>198.0</ele><time>2026-04-12T13:15:16.217Z</time></trkpt><trkpt lat="45.4012001" lon="13.6717315"><ele>197.0</ele><time>2026-04-12T13:15:17.205Z</time></trkpt><trkpt lat="45.4013082" lon="13.6715319"><ele>196.0</ele><time>2026-04-12T13:15:18.206Z</time></trkpt><trkpt lat="45.4014117" lon="13.6713329"><ele>199.33333333333331</ele><time>2026-04-12T13:15:19.203Z</time></trkpt><trkpt lat="45.4015154" lon="13.6711387"><ele>202.66666666666669</ele><time>2026-04-12T13:15:20.206Z</time></trkpt><trkpt lat="45.4016243" lon="13.6709487"><ele>206.0</ele><time>2026-04-12T13:15:21.204Z</time></trkpt><trkpt lat="45.4017242" lon="13.670767"><ele>206.0</ele><time>2026-04-12T13:15:22.205Z</time></trkpt><trkpt lat="45.401815" lon="13.6705908"><ele>206.0</ele><time>2026-04-12T13:15:23.205Z</time></trkpt><trkpt lat="45.4019021" lon="13.6704203"><ele>206.0</ele><time>2026-04-12T13:15:24.21Z</time></trkpt><trkpt lat="45.401985" lon="13.6702503"><ele>206.0</ele><time>2026-04-12T13:15:25.209Z</time></trkpt><trkpt lat="45.4020543" lon="13.6700752"><ele>203.75</ele><time>2026-04-12T13:15:26.206Z</time></trkpt><trkpt lat="45.4021005" lon="13.669887"><ele>201.5</ele><time>2026-04-12T13:15:27.213Z</time></trkpt><trkpt lat="45.4021201" lon="13.6696951"><ele>199.25</ele><time>2026-04-12T13:15:28.207Z</time></trkpt><trkpt lat="45.4021186" lon="13.6695003"><ele>197.0</ele><time>2026-04-12T13:15:29.217Z</time></trkpt><trkpt lat="45.4020889" lon="13.6693097"><ele>196.0</ele><time>2026-04-12T13:15:30.207Z</time></trkpt><trkpt lat="45.402033" lon="13.6691315"><ele>195.0</ele><time>2026-04-12T13:15:31.208Z</time></trkpt><trkpt lat="45.4019587" lon="13.6689631"><ele>194.0</ele><time>2026-04-12T13:15:32.21Z</time></trkpt><trkpt lat="45.4018736" lon="13.6687993"><ele>193.0</ele><time>2026-04-12T13:15:33.212Z</time></trkpt><trkpt lat="45.4017902" lon="13.6686423"><ele>194.5</ele><time>2026-04-12T13:15:34.217Z</time></trkpt><trkpt lat="45.4017074" lon="13.6684898"><ele>196.0</ele><time>2026-04-12T13:15:35.208Z</time></trkpt><trkpt lat="45.4016341" lon="13.6683349"><ele>197.5</ele><time>2026-04-12T13:15:36.204Z</time></trkpt><trkpt lat="45.4015904" lon="13.6681652"><ele>199.0</ele><time>2026-04-12T13:15:37.207Z</time></trkpt><trkpt lat="45.4015713" lon="13.6679762"><ele>199.0</ele><time>2026-04-12T13:15:38.207Z</time></trkpt><trkpt lat="45.4015802" lon="13.6677854"><ele>199.0</ele><time>2026-04-12T13:15:39.216Z</time></trkpt><trkpt lat="45.4016226" lon="13.6675952"><ele>199.0</ele><time>2026-04-12T13:15:40.205Z</time></trkpt><trkpt lat="45.4016921" lon="13.6674207"><ele>199.0</ele><time>2026-04-12T13:15:41.204Z</time></trkpt><trkpt lat="45.4017724" lon="13.6672438"><ele>197.33333333333331</ele><time>2026-04-12T13:15:42.202Z</time></trkpt><trkpt lat="45.4018529" lon="13.6670604"><ele>195.66666666666669</ele><time>2026-04-12T13:15:43.207Z</time></trkpt><trkpt lat="45.4019365" lon="13.6668729"><ele>194.0</ele><time>2026-04-12T13:15:44.201Z</time></trkpt><trkpt lat="45.4020186" lon="13.666683"><ele>194.33333333333334</ele><time>2026-04-12T13:15:45.203Z</time></trkpt><trkpt lat="45.4021028" lon="13.6664984"><ele>194.66666666666669</ele><time>2026-04-12T13:15:46.203Z</time></trkpt><trkpt lat="45.4021859" lon="13.6663096"><ele>195.0</ele><time>2026-04-12T13:15:47.205Z</time></trkpt><trkpt lat="45.402272" lon="13.6661276"><ele>192.5</ele><time>2026-04-12T13:15:48.205Z</time></trkpt><trkpt lat="45.4023585" lon="13.6659504"><ele>190.0</ele><time>2026-04-12T13:15:49.21Z</time></trkpt><trkpt lat="45.4024435" lon="13.6657918"><ele>187.5</ele><time>2026-04-12T13:15:50.204Z</time></trkpt><trkpt lat="45.4025328" lon="13.6656433"><ele>185.0</ele><time>2026-04-12T13:15:51.206Z</time></trkpt><trkpt lat="45.4026209" lon="13.6655041"><ele>185.0</ele><time>2026-04-12T13:15:52.213Z</time></trkpt><trkpt lat="45.4027094" lon="13.6653747"><ele>185.0</ele><time>2026-04-12T13:15:53.205Z</time></trkpt><trkpt lat="45.4028" lon="13.6652474"><ele>185.0</ele><time>2026-04-12T13:15:54.204Z</time></trkpt><trkpt lat="45.4028937" lon="13.6651225"><ele>185.0</ele><time>2026-04-12T13:15:55.206Z</time></trkpt><trkpt lat="45.402989" lon="13.665006"><ele>183.0</ele><time>2026-04-12T13:15:56.24Z</time></trkpt><trkpt lat="45.4030841" lon="13.6648946"><ele>181.0</ele><time>2026-04-12T13:15:57.208Z</time></trkpt><trkpt lat="45.4031804" lon="13.6647835"><ele>179.0</ele><time>2026-04-12T13:15:58.204Z</time></trkpt><trkpt lat="45.4032751" lon="13.6646827"><ele>177.0</ele><time>2026-04-12T13:15:59.209Z</time></trkpt><trkpt lat="45.403373" lon="13.6645954"><ele>177.0</ele><time>2026-04-12T13:16:00.203Z</time></trkpt><trkpt lat="45.4034755" lon="13.6645163"><ele>177.0</ele><time>2026-04-12T13:16:01.202Z</time></trkpt><trkpt lat="45.4035705" lon="13.6644548"><ele>177.0</ele><time>2026-04-12T13:16:02.206Z</time></trkpt><trkpt lat="45.4036531" lon="13.6644015"><ele>177.0</ele><time>2026-04-12T13:16:03.208Z</time></trkpt><trkpt lat="45.4037208" lon="13.6643629"><ele>177.0</ele><time>2026-04-12T13:16:04.206Z</time></trkpt><trkpt lat="45.4037834" lon="13.66428"><ele>177.2</ele><time>2026-04-12T13:16:06.21Z</time></trkpt><trkpt lat="45.4037776" lon="13.6641268"><ele>177.39999999999998</ele><time>2026-04-12T13:16:08.21Z</time></trkpt><trkpt lat="45.4037608" lon="13.664015"><ele>177.60000000000002</ele><time>2026-04-12T13:16:09.211Z</time></trkpt><trkpt lat="45.4037675" lon="13.6638899"><ele>177.8</ele><time>2026-04-12T13:16:10.213Z</time></trkpt><trkpt lat="45.4038014" lon="13.6637736"><ele>178.0</ele><time>2026-04-12T13:16:11.21Z</time></trkpt><trkpt lat="45.4038645" lon="13.6636565"><ele>179.60000000000002</ele><time>2026-04-12T13:16:12.204Z</time></trkpt><trkpt lat="45.4039306" lon="13.6635523"><ele>181.20000000000002</ele><time>2026-04-12T13:16:13.208Z</time></trkpt><trkpt lat="45.4039976" lon="13.6634382"><ele>182.8</ele><time>2026-04-12T13:16:14.204Z</time></trkpt><trkpt lat="45.4040729" lon="13.6633109"><ele>184.4</ele><time>2026-04-12T13:16:15.203Z</time></trkpt><trkpt lat="45.4041524" lon="13.6631843"><ele>186.0</ele><time>2026-04-12T13:16:16.208Z</time></trkpt><trkpt lat="45.404234" lon="13.6630551"><ele>186.0</ele><time>2026-04-12T13:16:17.206Z</time></trkpt><trkpt lat="45.4043157" lon="13.6629376"><ele>186.0</ele><time>2026-04-12T13:16:18.209Z</time></trkpt><trkpt lat="45.40441" lon="13.6628331"><ele>186.0</ele><time>2026-04-12T13:16:19.204Z</time></trkpt><trkpt lat="45.4045164" lon="13.6627361"><ele>186.0</ele><time>2026-04-12T13:16:20.206Z</time></trkpt><trkpt lat="45.404625" lon="13.6626446"><ele>187.75</ele><time>2026-04-12T13:16:21.202Z</time></trkpt><trkpt lat="45.4047339" lon="13.6625575"><ele>189.5</ele><time>2026-04-12T13:16:22.206Z</time></trkpt><trkpt lat="45.4048434" lon="13.6624759"><ele>191.25</ele><time>2026-04-12T13:16:23.211Z</time></trkpt><trkpt lat="45.4049503" lon="13.6623991"><ele>193.0</ele><time>2026-04-12T13:16:24.207Z</time></trkpt><trkpt lat="45.4050484" lon="13.6623346"><ele>193.0</ele><time>2026-04-12T13:16:25.209Z</time></trkpt><trkpt lat="45.4051452" lon="13.6622751"><ele>193.0</ele><time>2026-04-12T13:16:26.208Z</time></trkpt><trkpt lat="45.4052348" lon="13.6622274"><ele>193.0</ele><time>2026-04-12T13:16:27.217Z</time></trkpt><trkpt lat="45.4053197" lon="13.6621937"><ele>193.0</ele><time>2026-04-12T13:16:28.208Z</time></trkpt><trkpt lat="45.4054068" lon="13.6621719"><ele>193.0</ele><time>2026-04-12T13:16:29.218Z</time></trkpt><trkpt lat="45.4055" lon="13.6621681"><ele>194.0</ele><time>2026-04-12T13:16:30.214Z</time></trkpt><trkpt lat="45.4056045" lon="13.6621809"><ele>195.0</ele><time>2026-04-12T13:16:31.209Z</time></trkpt><trkpt lat="45.4057142" lon="13.6621928"><ele>196.0</ele><time>2026-04-12T13:16:32.212Z</time></trkpt><trkpt lat="45.405828" lon="13.6621999"><ele>197.0</ele><time>2026-04-12T13:16:33.205Z</time></trkpt><trkpt lat="45.4059414" lon="13.6622093"><ele>198.0</ele><time>2026-04-12T13:16:34.208Z</time></trkpt><trkpt lat="45.4060591" lon="13.6622222"><ele>198.0</ele><time>2026-04-12T13:16:35.22Z</time></trkpt><trkpt lat="45.4061762" lon="13.6622301"><ele>198.0</ele><time>2026-04-12T13:16:36.215Z</time></trkpt><trkpt lat="45.4062919" lon="13.6622193"><ele>198.0</ele><time>2026-04-12T13:16:37.211Z</time></trkpt><trkpt lat="45.4064014" lon="13.6621835"><ele>198.0</ele><time>2026-04-12T13:16:38.205Z</time></trkpt><trkpt lat="45.4065053" lon="13.6621193"><ele>198.75</ele><time>2026-04-12T13:16:39.207Z</time></trkpt><trkpt lat="45.4066074" lon="13.6620494"><ele>199.5</ele><time>2026-04-12T13:16:40.218Z</time></trkpt><trkpt lat="45.4067063" lon="13.6619644"><ele>200.25</ele><time>2026-04-12T13:16:41.207Z</time></trkpt><trkpt lat="45.4067994" lon="13.6618699"><ele>201.0</ele><time>2026-04-12T13:16:42.208Z</time></trkpt><trkpt lat="45.4068875" lon="13.6617703"><ele>200.0</ele><time>2026-04-12T13:16:43.206Z</time></trkpt><trkpt lat="45.4069722" lon="13.6616645"><ele>199.0</ele><time>2026-04-12T13:16:44.206Z</time></trkpt><trkpt lat="45.4070489" lon="13.6615594"><ele>198.0</ele><time>2026-04-12T13:16:45.209Z</time></trkpt><trkpt lat="45.4071149" lon="13.66145"><ele>197.0</ele><time>2026-04-12T13:16:46.21Z</time></trkpt><trkpt lat="45.4071676" lon="13.6613402"><ele>196.0</ele><time>2026-04-12T13:16:47.207Z</time></trkpt><trkpt lat="45.4072111" lon="13.6612302"><ele>195.99999999999997</ele><time>2026-04-12T13:16:48.205Z</time></trkpt><trkpt lat="45.4072547" lon="13.6611183"><ele>196.0</ele><time>2026-04-12T13:16:49.207Z</time></trkpt><trkpt lat="45.407299" lon="13.6610119"><ele>196.0</ele><time>2026-04-12T13:16:50.206Z</time></trkpt><trkpt lat="45.4073395" lon="13.6609091"><ele>196.0</ele><time>2026-04-12T13:16:51.216Z</time></trkpt><trkpt lat="45.4073759" lon="13.660817"><ele>195.99999999999997</ele><time>2026-04-12T13:16:52.208Z</time></trkpt><trkpt lat="45.4074137" lon="13.6607193"><ele>196.0</ele><time>2026-04-12T13:16:53.208Z</time></trkpt><trkpt lat="45.407454" lon="13.6606125"><ele>195.99999999999997</ele><time>2026-04-12T13:16:54.213Z</time></trkpt><trkpt lat="45.4074875" lon="13.6605359"><ele>196.0</ele><time>2026-04-12T13:16:55.208Z</time></trkpt><trkpt lat="45.4075303" lon="13.6604385"><ele>196.0</ele><time>2026-04-12T13:16:57.211Z</time></trkpt><trkpt lat="45.4075724" lon="13.6603487"><ele>196.0</ele><time>2026-04-12T13:16:59.205Z</time></trkpt><trkpt lat="45.40762" lon="13.6602266"><ele>195.99999999999997</ele><time>2026-04-12T13:17:01.21Z</time></trkpt><trkpt lat="45.4076728" lon="13.6600725"><ele>196.0</ele><time>2026-04-12T13:17:03.211Z</time></trkpt><trkpt lat="45.4077358" lon="13.6599227"><ele>195.14285714285714</ele><time>2026-04-12T13:17:05.212Z</time></trkpt><trkpt lat="45.4077708" lon="13.6598469"><ele>194.28571428571428</ele><time>2026-04-12T13:17:06.209Z</time></trkpt><trkpt lat="45.4078015" lon="13.6597621"><ele>193.42857142857144</ele><time>2026-04-12T13:17:07.208Z</time></trkpt><trkpt lat="45.4078345" lon="13.6596744"><ele>192.57142857142856</ele><time>2026-04-12T13:17:08.205Z</time></trkpt><trkpt lat="45.4078682" lon="13.6595849"><ele>191.71428571428572</ele><time>2026-04-12T13:17:09.202Z</time></trkpt><trkpt lat="45.4079069" lon="13.6595005"><ele>190.85714285714286</ele><time>2026-04-12T13:17:10.204Z</time></trkpt><trkpt lat="45.4079483" lon="13.6594119"><ele>190.0</ele><time>2026-04-12T13:17:11.203Z</time></trkpt><trkpt lat="45.4079881" lon="13.6593277"><ele>190.66666666666669</ele><time>2026-04-12T13:17:12.215Z</time></trkpt><trkpt lat="45.4080298" lon="13.6592502"><ele>191.33333333333334</ele><time>2026-04-12T13:17:13.211Z</time></trkpt><trkpt lat="45.4080772" lon="13.6591757"><ele>192.0</ele><time>2026-04-12T13:17:14.207Z</time></trkpt><trkpt lat="45.4081288" lon="13.6591207"><ele>192.66666666666669</ele><time>2026-04-12T13:17:15.205Z</time></trkpt><trkpt lat="45.4082142" lon="13.6590258"><ele>193.33333333333334</ele><time>2026-04-12T13:17:17.206Z</time></trkpt><trkpt lat="45.4082739" lon="13.6589488"><ele>194.0</ele><time>2026-04-12T13:17:19.206Z</time></trkpt><trkpt lat="45.4083596" lon="13.658932"><ele>194.0</ele><time>2026-04-12T13:17:22.209Z</time></trkpt><trkpt lat="45.4084616" lon="13.6590171"><ele>194.0</ele><time>2026-04-12T13:17:24.223Z</time></trkpt><trkpt lat="45.4085187" lon="13.6590897"><ele>194.0</ele><time>2026-04-12T13:17:25.217Z</time></trkpt><trkpt lat="45.4085833" lon="13.6591666"><ele>194.0</ele><time>2026-04-12T13:17:26.215Z</time></trkpt><trkpt lat="45.4086564" lon="13.659255"><ele>194.0</ele><time>2026-04-12T13:17:27.217Z</time></trkpt><trkpt lat="45.4087299" lon="13.6593326"><ele>194.0</ele><time>2026-04-12T13:17:28.203Z</time></trkpt><trkpt lat="45.4088086" lon="13.6593915"><ele>194.0</ele><time>2026-04-12T13:17:29.205Z</time></trkpt><trkpt lat="45.4088955" lon="13.6594363"><ele>194.0</ele><time>2026-04-12T13:17:30.21Z</time></trkpt><trkpt lat="45.4089876" lon="13.659475"><ele>194.0</ele><time>2026-04-12T13:17:31.215Z</time></trkpt><trkpt lat="45.4090782" lon="13.6595288"><ele>194.0</ele><time>2026-04-12T13:17:32.216Z</time></trkpt><trkpt lat="45.4091689" lon="13.659607"><ele>194.0</ele><time>2026-04-12T13:17:33.21Z</time></trkpt><trkpt lat="45.409258" lon="13.6597054"><ele>194.0</ele><time>2026-04-12T13:17:34.204Z</time></trkpt><trkpt lat="45.4093505" lon="13.6598293"><ele>194.0</ele><time>2026-04-12T13:17:35.21Z</time></trkpt><trkpt lat="45.4094532" lon="13.6599747"><ele>194.0</ele><time>2026-04-12T13:17:36.205Z</time></trkpt><trkpt lat="45.409557" lon="13.6601195"><ele>194.0</ele><time>2026-04-12T13:17:37.209Z</time></trkpt><trkpt lat="45.4096575" lon="13.6602598"><ele>194.0</ele><time>2026-04-12T13:17:38.21Z</time></trkpt><trkpt lat="45.4097541" lon="13.6604005"><ele>194.0</ele><time>2026-04-12T13:17:39.204Z</time></trkpt><trkpt lat="45.4098528" lon="13.6605381"><ele>194.0</ele><time>2026-04-12T13:17:40.203Z</time></trkpt><trkpt lat="45.4099489" lon="13.6606709"><ele>194.75</ele><time>2026-04-12T13:17:41.213Z</time></trkpt><trkpt lat="45.4100479" lon="13.6607964"><ele>195.5</ele><time>2026-04-12T13:17:42.207Z</time></trkpt><trkpt lat="45.4101445" lon="13.6609278"><ele>196.25</ele><time>2026-04-12T13:17:43.204Z</time></trkpt><trkpt lat="45.410241" lon="13.6610554"><ele>197.0</ele><time>2026-04-12T13:17:44.214Z</time></trkpt><trkpt lat="45.4103412" lon="13.6611843"><ele>197.0</ele><time>2026-04-12T13:17:45.212Z</time></trkpt><trkpt lat="45.4104399" lon="13.6613088"><ele>197.0</ele><time>2026-04-12T13:17:46.214Z</time></trkpt><trkpt lat="45.4105455" lon="13.66143"><ele>197.0</ele><time>2026-04-12T13:17:47.205Z</time></trkpt><trkpt lat="45.4106436" lon="13.6615543"><ele>197.0</ele><time>2026-04-12T13:17:48.21Z</time></trkpt><trkpt lat="45.410744" lon="13.6616832"><ele>190.25</ele><time>2026-04-12T13:17:49.2Z</time></trkpt><trkpt lat="45.4108342" lon="13.661825"><ele>183.5</ele><time>2026-04-12T13:17:50.209Z</time></trkpt><trkpt lat="45.4109106" lon="13.661982"><ele>176.75</ele><time>2026-04-12T13:17:51.207Z</time></trkpt><trkpt lat="45.4109815" lon="13.6621498"><ele>170.0</ele><time>2026-04-12T13:17:52.202Z</time></trkpt><trkpt lat="45.411031" lon="13.6623287"><ele>170.0</ele><time>2026-04-12T13:17:53.205Z</time></trkpt><trkpt lat="45.4110624" lon="13.6625157"><ele>170.0</ele><time>2026-04-12T13:17:54.207Z</time></trkpt><trkpt lat="45.4110972" lon="13.6626971"><ele>170.0</ele><time>2026-04-12T13:17:55.212Z</time></trkpt><trkpt lat="45.4111394" lon="13.6628717"><ele>170.0</ele><time>2026-04-12T13:17:56.205Z</time></trkpt><trkpt lat="45.4111978" lon="13.6630282"><ele>167.75</ele><time>2026-04-12T13:17:57.206Z</time></trkpt><trkpt lat="45.411274" lon="13.6631632"><ele>165.5</ele><time>2026-04-12T13:17:58.204Z</time></trkpt><trkpt lat="45.4113629" lon="13.6632729"><ele>163.25</ele><time>2026-04-12T13:17:59.209Z</time></trkpt><trkpt lat="45.4114588" lon="13.6633638"><ele>161.0</ele><time>2026-04-12T13:18:00.208Z</time></trkpt><trkpt lat="45.4115526" lon="13.6634424"><ele>160.0</ele><time>2026-04-12T13:18:01.212Z</time></trkpt><trkpt lat="45.4116344" lon="13.6635308"><ele>159.0</ele><time>2026-04-12T13:18:02.204Z</time></trkpt><trkpt lat="45.4117008" lon="13.6636305"><ele>158.0</ele><time>2026-04-12T13:18:03.209Z</time></trkpt><trkpt lat="45.4117423" lon="13.6637415"><ele>157.0</ele><time>2026-04-12T13:18:04.205Z</time></trkpt><trkpt lat="45.4117784" lon="13.663843"><ele>156.0</ele><time>2026-04-12T13:18:05.203Z</time></trkpt><trkpt lat="45.4118249" lon="13.6639129"><ele>155.0</ele><time>2026-04-12T13:18:06.204Z</time></trkpt><trkpt lat="45.4118828" lon="13.6639486"><ele>155.0</ele><time>2026-04-12T13:18:07.206Z</time></trkpt><trkpt lat="45.41195" lon="13.6639391"><ele>155.0</ele><time>2026-04-12T13:18:08.208Z</time></trkpt><trkpt lat="45.4120093" lon="13.6638858"><ele>155.0</ele><time>2026-04-12T13:18:09.212Z</time></trkpt><trkpt lat="45.4120633" lon="13.663801"><ele>155.0</ele><time>2026-04-12T13:18:10.215Z</time></trkpt><trkpt lat="45.4121264" lon="13.6637055"><ele>155.0</ele><time>2026-04-12T13:18:11.208Z</time></trkpt><trkpt lat="45.4122016" lon="13.6636137"><ele>155.0</ele><time>2026-04-12T13:18:12.208Z</time></trkpt><trkpt lat="45.4123006" lon="13.6635465"><ele>156.0</ele><time>2026-04-12T13:18:13.206Z</time></trkpt><trkpt lat="45.4124008" lon="13.6634802"><ele>157.0</ele><time>2026-04-12T13:18:14.205Z</time></trkpt><trkpt lat="45.4125016" lon="13.663409"><ele>158.0</ele><time>2026-04-12T13:18:15.21Z</time></trkpt><trkpt lat="45.4126025" lon="13.6633448"><ele>159.0</ele><time>2026-04-12T13:18:16.205Z</time></trkpt><trkpt lat="45.4127002" lon="13.6632821"><ele>160.0</ele><time>2026-04-12T13:18:17.203Z</time></trkpt><trkpt lat="45.4127936" lon="13.663219"><ele>160.0</ele><time>2026-04-12T13:18:18.205Z</time></trkpt><trkpt lat="45.412888" lon="13.6631594"><ele>160.0</ele><time>2026-04-12T13:18:19.205Z</time></trkpt><trkpt lat="45.4129828" lon="13.6631017"><ele>160.0</ele><time>2026-04-12T13:18:20.207Z</time></trkpt><trkpt lat="45.4130759" lon="13.6630462"><ele>160.0</ele><time>2026-04-12T13:18:21.21Z</time></trkpt><trkpt lat="45.4131707" lon="13.6629924"><ele>160.0</ele><time>2026-04-12T13:18:22.209Z</time></trkpt><trkpt lat="45.4132679" lon="13.6629481"><ele>161.6</ele><time>2026-04-12T13:18:23.208Z</time></trkpt><trkpt lat="45.4133707" lon="13.6629123"><ele>163.2</ele><time>2026-04-12T13:18:24.205Z</time></trkpt><trkpt lat="45.4134815" lon="13.6628882"><ele>164.8</ele><time>2026-04-12T13:18:25.212Z</time></trkpt><trkpt lat="45.4135897" lon="13.6628748"><ele>166.4</ele><time>2026-04-12T13:18:26.206Z</time></trkpt><trkpt lat="45.4136994" lon="13.6628741"><ele>168.0</ele><time>2026-04-12T13:18:27.209Z</time></trkpt><trkpt lat="45.4138039" lon="13.6628778"><ele>168.60000000000002</ele><time>2026-04-12T13:18:28.214Z</time></trkpt><trkpt lat="45.4139069" lon="13.6628831"><ele>169.20000000000002</ele><time>2026-04-12T13:18:29.21Z</time></trkpt><trkpt lat="45.4140075" lon="13.6628838"><ele>169.8</ele><time>2026-04-12T13:18:30.209Z</time></trkpt><trkpt lat="45.414103" lon="13.6628842"><ele>170.4</ele><time>2026-04-12T13:18:31.201Z</time></trkpt><trkpt lat="45.4141934" lon="13.6628834"><ele>171.0</ele><time>2026-04-12T13:18:32.204Z</time></trkpt><trkpt lat="45.4142867" lon="13.6628869"><ele>171.0</ele><time>2026-04-12T13:18:33.205Z</time></trkpt><trkpt lat="45.4143743" lon="13.6629106"><ele>171.0</ele><time>2026-04-12T13:18:34.211Z</time></trkpt><trkpt lat="45.4144536" lon="13.662944"><ele>171.0</ele><time>2026-04-12T13:18:35.208Z</time></trkpt><trkpt lat="45.4145294" lon="13.6629705"><ele>171.0</ele><time>2026-04-12T13:18:36.204Z</time></trkpt><trkpt lat="45.4146146" lon="13.6630005"><ele>171.0</ele><time>2026-04-12T13:18:37.207Z</time></trkpt><trkpt lat="45.4147063" lon="13.6630382"><ele>171.0</ele><time>2026-04-12T13:18:38.21Z</time></trkpt><trkpt lat="45.414807" lon="13.6630824"><ele>171.0</ele><time>2026-04-12T13:18:39.207Z</time></trkpt><trkpt lat="45.414916" lon="13.6631239"><ele>171.0</ele><time>2026-04-12T13:18:40.215Z</time></trkpt><trkpt lat="45.4150324" lon="13.6631618"><ele>171.0</ele><time>2026-04-12T13:18:41.207Z</time></trkpt><trkpt lat="45.4151494" lon="13.6631879"><ele>171.0</ele><time>2026-04-12T13:18:42.206Z</time></trkpt><trkpt lat="45.4152718" lon="13.6632164"><ele>171.0</ele><time>2026-04-12T13:18:43.206Z</time></trkpt><trkpt lat="45.4153969" lon="13.6632379"><ele>171.0</ele><time>2026-04-12T13:18:44.204Z</time></trkpt><trkpt lat="45.4155282" lon="13.6632563"><ele>171.0</ele><time>2026-04-12T13:18:45.205Z</time></trkpt><trkpt lat="45.4156619" lon="13.6632629"><ele>171.0</ele><time>2026-04-12T13:18:46.206Z</time></trkpt><trkpt lat="45.4157978" lon="13.6632591"><ele>171.0</ele><time>2026-04-12T13:18:47.209Z</time></trkpt><trkpt lat="45.4159337" lon="13.6632462"><ele>171.0</ele><time>2026-04-12T13:18:48.209Z</time></trkpt><trkpt lat="45.4160675" lon="13.6632162"><ele>171.0</ele><time>2026-04-12T13:18:49.203Z</time></trkpt><trkpt lat="45.4162007" lon="13.6631803"><ele>171.0</ele><time>2026-04-12T13:18:50.209Z</time></trkpt><trkpt lat="45.4163337" lon="13.6631457"><ele>171.25</ele><time>2026-04-12T13:18:51.205Z</time></trkpt><trkpt lat="45.4164658" lon="13.6631101"><ele>171.5</ele><time>2026-04-12T13:18:52.212Z</time></trkpt><trkpt lat="45.4165998" lon="13.6630776"><ele>171.75</ele><time>2026-04-12T13:18:53.206Z</time></trkpt><trkpt lat="45.4167339" lon="13.6630384"><ele>172.0</ele><time>2026-04-12T13:18:54.21Z</time></trkpt><trkpt lat="45.4168707" lon="13.6629999"><ele>172.0</ele><time>2026-04-12T13:18:55.207Z</time></trkpt><trkpt lat="45.4170188" lon="13.6629586"><ele>172.0</ele><time>2026-04-12T13:18:56.207Z</time></trkpt><trkpt lat="45.4171724" lon="13.6629162"><ele>172.0</ele><time>2026-04-12T13:18:57.207Z</time></trkpt><trkpt lat="45.4173254" lon="13.6628762"><ele>172.0</ele><time>2026-04-12T13:18:58.208Z</time></trkpt><trkpt lat="45.4174781" lon="13.6628364"><ele>172.0</ele><time>2026-04-12T13:18:59.212Z</time></trkpt><trkpt lat="45.4176326" lon="13.6627981"><ele>172.0</ele><time>2026-04-12T13:19:00.209Z</time></trkpt><trkpt lat="45.4177718" lon="13.6627587"><ele>172.0</ele><time>2026-04-12T13:19:01.211Z</time></trkpt><trkpt lat="45.4179058" lon="13.6627177"><ele>172.0</ele><time>2026-04-12T13:19:02.21Z</time></trkpt><trkpt lat="45.4180351" lon="13.662675"><ele>172.0</ele><time>2026-04-12T13:19:03.21Z</time></trkpt><trkpt lat="45.4181603" lon="13.6626392"><ele>172.0</ele><time>2026-04-12T13:19:04.215Z</time></trkpt><trkpt lat="45.4182973" lon="13.6626005"><ele>170.66666666666669</ele><time>2026-04-12T13:19:05.209Z</time></trkpt><trkpt lat="45.418444" lon="13.6625614"><ele>169.33333333333334</ele><time>2026-04-12T13:19:06.213Z</time></trkpt><trkpt lat="45.418596" lon="13.6625163"><ele>168.0</ele><time>2026-04-12T13:19:07.206Z</time></trkpt><trkpt lat="45.418756" lon="13.662467"><ele>167.66666666666666</ele><time>2026-04-12T13:19:08.204Z</time></trkpt><trkpt lat="45.4189182" lon="13.6624167"><ele>167.33333333333331</ele><time>2026-04-12T13:19:09.21Z</time></trkpt><trkpt lat="45.4190858" lon="13.6623704"><ele>167.0</ele><time>2026-04-12T13:19:10.211Z</time></trkpt><trkpt lat="45.4192541" lon="13.6623254"><ele>167.0</ele><time>2026-04-12T13:19:11.207Z</time></trkpt><trkpt lat="45.4194165" lon="13.66228"><ele>167.0</ele><time>2026-04-12T13:19:12.206Z</time></trkpt><trkpt lat="45.4195797" lon="13.6622334"><ele>167.0</ele><time>2026-04-12T13:19:13.202Z</time></trkpt><trkpt lat="45.4197417" lon="13.6621857"><ele>167.0</ele><time>2026-04-12T13:19:14.216Z</time></trkpt><trkpt lat="45.4199062" lon="13.6621363"><ele>167.0</ele><time>2026-04-12T13:19:15.206Z</time></trkpt><trkpt lat="45.420071" lon="13.6620951"><ele>167.0</ele><time>2026-04-12T13:19:16.211Z</time></trkpt><trkpt lat="45.420233" lon="13.6620528"><ele>167.0</ele><time>2026-04-12T13:19:17.214Z</time></trkpt><trkpt lat="45.4203937" lon="13.6620083"><ele>167.0</ele><time>2026-04-12T13:19:18.21Z</time></trkpt><trkpt lat="45.4205571" lon="13.6619631"><ele>167.0</ele><time>2026-04-12T13:19:19.209Z</time></trkpt><trkpt lat="45.4207178" lon="13.6619163"><ele>166.33333333333331</ele><time>2026-04-12T13:19:20.206Z</time></trkpt><trkpt lat="45.4208766" lon="13.6618687"><ele>165.66666666666666</ele><time>2026-04-12T13:19:21.21Z</time></trkpt><trkpt lat="45.4210334" lon="13.6618227"><ele>165.0</ele><time>2026-04-12T13:19:22.207Z</time></trkpt><trkpt lat="45.4211905" lon="13.6617765"><ele>164.66666666666666</ele><time>2026-04-12T13:19:23.206Z</time></trkpt><trkpt lat="45.4213505" lon="13.6617289"><ele>164.33333333333331</ele><time>2026-04-12T13:19:24.205Z</time></trkpt><trkpt lat="45.4215056" lon="13.6616831"><ele>164.0</ele><time>2026-04-12T13:19:25.207Z</time></trkpt><trkpt lat="45.4216645" lon="13.6616373"><ele>164.0</ele><time>2026-04-12T13:19:26.211Z</time></trkpt><trkpt lat="45.4218211" lon="13.6615938"><ele>164.0</ele><time>2026-04-12T13:19:27.203Z</time></trkpt><trkpt lat="45.4219782" lon="13.661551"><ele>164.0</ele><time>2026-04-12T13:19:28.209Z</time></trkpt><trkpt lat="45.4221326" lon="13.6615077"><ele>162.66666666666666</ele><time>2026-04-12T13:19:29.213Z</time></trkpt><trkpt lat="45.4222875" lon="13.6614541"><ele>161.33333333333334</ele><time>2026-04-12T13:19:30.205Z</time></trkpt><trkpt lat="45.4224378" lon="13.6613885"><ele>160.0</ele><time>2026-04-12T13:19:31.208Z</time></trkpt><trkpt lat="45.4225863" lon="13.6612987"><ele>160.0</ele><time>2026-04-12T13:19:32.22Z</time></trkpt><trkpt lat="45.4227265" lon="13.6611864"><ele>160.0</ele><time>2026-04-12T13:19:33.207Z</time></trkpt><trkpt lat="45.4228597" lon="13.6610545"><ele>160.0</ele><time>2026-04-12T13:19:34.214Z</time></trkpt><trkpt lat="45.4229888" lon="13.6609029"><ele>159.33333333333334</ele><time>2026-04-12T13:19:35.211Z</time></trkpt><trkpt lat="45.4231118" lon="13.660737"><ele>158.66666666666666</ele><time>2026-04-12T13:19:36.217Z</time></trkpt><trkpt lat="45.4232349" lon="13.6605666"><ele>158.0</ele><time>2026-04-12T13:19:37.205Z</time></trkpt><trkpt lat="45.4233598" lon="13.6603986"><ele>158.0</ele><time>2026-04-12T13:19:38.209Z</time></trkpt><trkpt lat="45.4234833" lon="13.6602282"><ele>158.0</ele><time>2026-04-12T13:19:39.215Z</time></trkpt><trkpt lat="45.423608" lon="13.6600563"><ele>158.0</ele><time>2026-04-12T13:19:40.208Z</time></trkpt><trkpt lat="45.4237382" lon="13.6598937"><ele>156.0</ele><time>2026-04-12T13:19:41.207Z</time></trkpt><trkpt lat="45.4238753" lon="13.6597497"><ele>154.0</ele><time>2026-04-12T13:19:42.207Z</time></trkpt><trkpt lat="45.4240288" lon="13.6596237"><ele>152.0</ele><time>2026-04-12T13:19:43.207Z</time></trkpt><trkpt lat="45.4241927" lon="13.6595221"><ele>153.66666666666666</ele><time>2026-04-12T13:19:44.206Z</time></trkpt><trkpt lat="45.4243681" lon="13.6594441"><ele>155.33333333333334</ele><time>2026-04-12T13:19:45.208Z</time></trkpt><trkpt lat="45.4245499" lon="13.6593743"><ele>157.0</ele><time>2026-04-12T13:19:46.207Z</time></trkpt><trkpt lat="45.4247295" lon="13.659313"><ele>157.0</ele><time>2026-04-12T13:19:47.209Z</time></trkpt><trkpt lat="45.4249053" lon="13.6592527"><ele>157.0</ele><time>2026-04-12T13:19:48.206Z</time></trkpt><trkpt lat="45.4250793" lon="13.6591961"><ele>157.0</ele><time>2026-04-12T13:19:49.212Z</time></trkpt><trkpt lat="45.4252492" lon="13.6591336"><ele>157.0</ele><time>2026-04-12T13:19:50.219Z</time></trkpt><trkpt lat="45.4254181" lon="13.6590646"><ele>157.0</ele><time>2026-04-12T13:19:51.209Z</time></trkpt><trkpt lat="45.4255852" lon="13.6589992"><ele>157.0</ele><time>2026-04-12T13:19:52.203Z</time></trkpt><trkpt lat="45.4257521" lon="13.6589368"><ele>157.66666666666669</ele><time>2026-04-12T13:19:53.208Z</time></trkpt><trkpt lat="45.4259221" lon="13.6588759"><ele>158.33333333333334</ele><time>2026-04-12T13:19:54.206Z</time></trkpt><trkpt lat="45.4260891" lon="13.6588156"><ele>159.0</ele><time>2026-04-12T13:19:55.207Z</time></trkpt><trkpt lat="45.4262566" lon="13.6587559"><ele>159.33333333333334</ele><time>2026-04-12T13:19:56.209Z</time></trkpt><trkpt lat="45.4264241" lon="13.6586956"><ele>159.66666666666669</ele><time>2026-04-12T13:19:57.206Z</time></trkpt><trkpt lat="45.4265926" lon="13.6586361"><ele>160.0</ele><time>2026-04-12T13:19:58.207Z</time></trkpt><trkpt lat="45.4267621" lon="13.6585725"><ele>160.0</ele><time>2026-04-12T13:19:59.205Z</time></trkpt><trkpt lat="45.4269299" lon="13.6585039"><ele>160.0</ele><time>2026-04-12T13:20:00.209Z</time></trkpt><trkpt lat="45.4270906" lon="13.6584125"><ele>160.0</ele><time>2026-04-12T13:20:01.203Z</time></trkpt><trkpt lat="45.4272434" lon="13.6582861"><ele>162.0</ele><time>2026-04-12T13:20:02.212Z</time></trkpt><trkpt lat="45.4273905" lon="13.6581423"><ele>164.0</ele><time>2026-04-12T13:20:03.21Z</time></trkpt><trkpt lat="45.4275384" lon="13.6579982"><ele>166.0</ele><time>2026-04-12T13:20:04.207Z</time></trkpt><trkpt lat="45.4276844" lon="13.6578577"><ele>167.0</ele><time>2026-04-12T13:20:05.215Z</time></trkpt><trkpt lat="45.427829" lon="13.6577172"><ele>168.0</ele><time>2026-04-12T13:20:06.208Z</time></trkpt><trkpt lat="45.427974" lon="13.657581"><ele>169.0</ele><time>2026-04-12T13:20:07.207Z</time></trkpt><trkpt lat="45.4281185" lon="13.6574455"><ele>169.0</ele><time>2026-04-12T13:20:08.205Z</time></trkpt><trkpt lat="45.4282639" lon="13.657308"><ele>169.0</ele><time>2026-04-12T13:20:09.211Z</time></trkpt><trkpt lat="45.4284068" lon="13.657175"><ele>169.0</ele><time>2026-04-12T13:20:10.206Z</time></trkpt><trkpt lat="45.4285486" lon="13.6570421"><ele>169.0</ele><time>2026-04-12T13:20:11.212Z</time></trkpt><trkpt lat="45.4286872" lon="13.6569241"><ele>169.0</ele><time>2026-04-12T13:20:12.204Z</time></trkpt><trkpt lat="45.4288216" lon="13.6568299"><ele>169.0</ele><time>2026-04-12T13:20:13.21Z</time></trkpt><trkpt lat="45.4289571" lon="13.6567555"><ele>169.0</ele><time>2026-04-12T13:20:14.203Z</time></trkpt><trkpt lat="45.4291036" lon="13.6567266"><ele>169.0</ele><time>2026-04-12T13:20:15.21Z</time></trkpt><trkpt lat="45.4292557" lon="13.6567347"><ele>169.0</ele><time>2026-04-12T13:20:16.212Z</time></trkpt><trkpt lat="45.4294083" lon="13.6567754"><ele>169.0</ele><time>2026-04-12T13:20:17.207Z</time></trkpt><trkpt lat="45.4295651" lon="13.6568255"><ele>169.0</ele><time>2026-04-12T13:20:18.205Z</time></trkpt><trkpt lat="45.4297208" lon="13.6568793"><ele>169.0</ele><time>2026-04-12T13:20:19.21Z</time></trkpt><trkpt lat="45.4298792" lon="13.6569379"><ele>169.66666666666669</ele><time>2026-04-12T13:20:20.208Z</time></trkpt><trkpt lat="45.4300373" lon="13.6569942"><ele>170.33333333333334</ele><time>2026-04-12T13:20:21.207Z</time></trkpt><trkpt lat="45.4301974" lon="13.6570534"><ele>171.0</ele><time>2026-04-12T13:20:22.212Z</time></trkpt><trkpt lat="45.4303603" lon="13.6571076"><ele>170.0</ele><time>2026-04-12T13:20:23.208Z</time></trkpt><trkpt lat="45.430525" lon="13.6571632"><ele>169.0</ele><time>2026-04-12T13:20:24.207Z</time></trkpt><trkpt lat="45.4306898" lon="13.657225"><ele>168.0</ele><time>2026-04-12T13:20:25.206Z</time></trkpt><trkpt lat="45.4308532" lon="13.6572887"><ele>168.0</ele><time>2026-04-12T13:20:26.207Z</time></trkpt><trkpt lat="45.4310206" lon="13.657351"><ele>168.0</ele><time>2026-04-12T13:20:27.21Z</time></trkpt><trkpt lat="45.4311932" lon="13.657422"><ele>168.0</ele><time>2026-04-12T13:20:28.212Z</time></trkpt><trkpt lat="45.4313663" lon="13.6574837"><ele>167.66666666666666</ele><time>2026-04-12T13:20:29.211Z</time></trkpt><trkpt lat="45.43154" lon="13.6575457"><ele>167.33333333333331</ele><time>2026-04-12T13:20:30.209Z</time></trkpt><trkpt lat="45.4317132" lon="13.6576053"><ele>167.0</ele><time>2026-04-12T13:20:31.21Z</time></trkpt><trkpt lat="45.4318834" lon="13.6576682"><ele>167.0</ele><time>2026-04-12T13:20:32.212Z</time></trkpt><trkpt lat="45.432052" lon="13.6577292"><ele>167.0</ele><time>2026-04-12T13:20:33.208Z</time></trkpt><trkpt lat="45.4322148" lon="13.6577973"><ele>167.0</ele><time>2026-04-12T13:20:34.21Z</time></trkpt><trkpt lat="45.4323781" lon="13.6578608"><ele>167.0</ele><time>2026-04-12T13:20:35.213Z</time></trkpt><trkpt lat="45.4325469" lon="13.6579231"><ele>167.0</ele><time>2026-04-12T13:20:36.209Z</time></trkpt><trkpt lat="45.4327123" lon="13.6579855"><ele>167.0</ele><time>2026-04-12T13:20:37.212Z</time></trkpt><trkpt lat="45.4328807" lon="13.6580448"><ele>167.33333333333331</ele><time>2026-04-12T13:20:38.209Z</time></trkpt><trkpt lat="45.4330471" lon="13.6580985"><ele>167.66666666666666</ele><time>2026-04-12T13:20:39.209Z</time></trkpt><trkpt lat="45.4332169" lon="13.6581329"><ele>168.0</ele><time>2026-04-12T13:20:40.209Z</time></trkpt><trkpt lat="45.4333839" lon="13.658144"><ele>168.0</ele><time>2026-04-12T13:20:41.205Z</time></trkpt><trkpt lat="45.4335491" lon="13.6581225"><ele>168.0</ele><time>2026-04-12T13:20:42.206Z</time></trkpt><trkpt lat="45.4337137" lon="13.6580691"><ele>168.0</ele><time>2026-04-12T13:20:43.205Z</time></trkpt><trkpt lat="45.4338718" lon="13.6579829"><ele>168.0</ele><time>2026-04-12T13:20:44.205Z</time></trkpt><trkpt lat="45.4340321" lon="13.6578772"><ele>168.0</ele><time>2026-04-12T13:20:45.212Z</time></trkpt><trkpt lat="45.4341884" lon="13.6577653"><ele>168.0</ele><time>2026-04-12T13:20:46.208Z</time></trkpt><trkpt lat="45.4343408" lon="13.6576539"><ele>168.0</ele><time>2026-04-12T13:20:47.214Z</time></trkpt><trkpt lat="45.4344929" lon="13.6575571"><ele>168.0</ele><time>2026-04-12T13:20:48.207Z</time></trkpt><trkpt lat="45.4346555" lon="13.6574819"><ele>168.0</ele><time>2026-04-12T13:20:49.201Z</time></trkpt><trkpt lat="45.4348306" lon="13.6574254"><ele>164.33333333333334</ele><time>2026-04-12T13:20:50.203Z</time></trkpt><trkpt lat="45.4350136" lon="13.6573917"><ele>160.66666666666669</ele><time>2026-04-12T13:20:51.218Z</time></trkpt><trkpt lat="45.4352005" lon="13.657375"><ele>157.0</ele><time>2026-04-12T13:20:52.204Z</time></trkpt><trkpt lat="45.4353863" lon="13.6573669"><ele>157.0</ele><time>2026-04-12T13:20:53.213Z</time></trkpt><trkpt lat="45.435569" lon="13.657374"><ele>157.0</ele><time>2026-04-12T13:20:54.204Z</time></trkpt><trkpt lat="45.4357503" lon="13.6573746"><ele>157.0</ele><time>2026-04-12T13:20:55.211Z</time></trkpt><trkpt lat="45.4359257" lon="13.6573744"><ele>157.0</ele><time>2026-04-12T13:20:56.206Z</time></trkpt><trkpt lat="45.4360978" lon="13.6573684"><ele>157.0</ele><time>2026-04-12T13:20:57.207Z</time></trkpt><trkpt lat="45.4362624" lon="13.6573621"><ele>157.0</ele><time>2026-04-12T13:20:58.214Z</time></trkpt><trkpt lat="45.4364214" lon="13.6573587"><ele>158.0</ele><time>2026-04-12T13:20:59.203Z</time></trkpt><trkpt lat="45.4365773" lon="13.6573568"><ele>159.0</ele><time>2026-04-12T13:21:00.205Z</time></trkpt><trkpt lat="45.4367262" lon="13.6573587"><ele>160.0</ele><time>2026-04-12T13:21:01.213Z</time></trkpt><trkpt lat="45.4368776" lon="13.657373"><ele>160.0</ele><time>2026-04-12T13:21:02.208Z</time></trkpt><trkpt lat="45.4370267" lon="13.6574065"><ele>160.0</ele><time>2026-04-12T13:21:03.217Z</time></trkpt><trkpt lat="45.4371803" lon="13.6574619"><ele>160.0</ele><time>2026-04-12T13:21:04.474Z</time></trkpt><trkpt lat="45.4373391" lon="13.6575161"><ele>159.66666666666669</ele><time>2026-04-12T13:21:05.471Z</time></trkpt><trkpt lat="45.4375047" lon="13.6575689"><ele>159.33333333333334</ele><time>2026-04-12T13:21:06.467Z</time></trkpt><trkpt lat="45.4376734" lon="13.6576115"><ele>159.0</ele><time>2026-04-12T13:21:07.464Z</time></trkpt><trkpt lat="45.4378441" lon="13.6576474"><ele>157.0</ele><time>2026-04-12T13:21:08.463Z</time></trkpt><trkpt lat="45.4380149" lon="13.6576684"><ele>155.0</ele><time>2026-04-12T13:21:09.471Z</time></trkpt><trkpt lat="45.4381893" lon="13.6576768"><ele>153.0</ele><time>2026-04-12T13:21:10.466Z</time></trkpt><trkpt lat="45.4383589" lon="13.6576917"><ele>153.0</ele><time>2026-04-12T13:21:11.462Z</time></trkpt><trkpt lat="45.4385251" lon="13.6577026"><ele>153.0</ele><time>2026-04-12T13:21:12.464Z</time></trkpt><trkpt lat="45.4386737" lon="13.6577082"><ele>153.0</ele><time>2026-04-12T13:21:13.463Z</time></trkpt><trkpt lat="45.4388161" lon="13.6577112"><ele>152.75</ele><time>2026-04-12T13:21:14.464Z</time></trkpt><trkpt lat="45.4389535" lon="13.6577169"><ele>152.5</ele><time>2026-04-12T13:21:15.463Z</time></trkpt><trkpt lat="45.4390913" lon="13.6577231"><ele>152.25</ele><time>2026-04-12T13:21:16.463Z</time></trkpt><trkpt lat="45.4392285" lon="13.6577324"><ele>152.0</ele><time>2026-04-12T13:21:17.463Z</time></trkpt><trkpt lat="45.4393709" lon="13.6577435"><ele>152.0</ele><time>2026-04-12T13:21:18.464Z</time></trkpt><trkpt lat="45.4395125" lon="13.6577533"><ele>152.0</ele><time>2026-04-12T13:21:19.462Z</time></trkpt><trkpt lat="45.4396525" lon="13.6577652"><ele>152.0</ele><time>2026-04-12T13:21:20.468Z</time></trkpt><trkpt lat="45.4397908" lon="13.6577775"><ele>152.0</ele><time>2026-04-12T13:21:21.466Z</time></trkpt><trkpt lat="45.439932" lon="13.6577859"><ele>152.25</ele><time>2026-04-12T13:21:22.466Z</time></trkpt><trkpt lat="45.4400706" lon="13.6577943"><ele>152.5</ele><time>2026-04-12T13:21:23.463Z</time></trkpt><trkpt lat="45.4402096" lon="13.6577995"><ele>152.75</ele><time>2026-04-12T13:21:24.463Z</time></trkpt><trkpt lat="45.4403481" lon="13.6578009"><ele>153.0</ele><time>2026-04-12T13:21:25.46Z</time></trkpt><trkpt lat="45.4404795" lon="13.6577931"><ele>152.0</ele><time>2026-04-12T13:21:26.466Z</time></trkpt><trkpt lat="45.4405983" lon="13.657767"><ele>151.0</ele><time>2026-04-12T13:21:27.464Z</time></trkpt><trkpt lat="45.4407057" lon="13.6577201"><ele>150.0</ele><time>2026-04-12T13:21:28.463Z</time></trkpt><trkpt lat="45.4408029" lon="13.6576564"><ele>149.0</ele><time>2026-04-12T13:21:29.475Z</time></trkpt><trkpt lat="45.4408985" lon="13.6575859"><ele>148.0</ele><time>2026-04-12T13:21:30.464Z</time></trkpt><trkpt lat="45.4409874" lon="13.6575223"><ele>148.0</ele><time>2026-04-12T13:21:31.465Z</time></trkpt><trkpt lat="45.4410692" lon="13.6574705"><ele>148.0</ele><time>2026-04-12T13:21:32.465Z</time></trkpt><trkpt lat="45.441148" lon="13.6574192"><ele>148.0</ele><time>2026-04-12T13:21:33.465Z</time></trkpt><trkpt lat="45.441225" lon="13.657367"><ele>148.0</ele><time>2026-04-12T13:21:34.469Z</time></trkpt><trkpt lat="45.4413026" lon="13.6573107"><ele>148.0</ele><time>2026-04-12T13:21:35.465Z</time></trkpt><trkpt lat="45.4413733" lon="13.6572597"><ele>148.0</ele><time>2026-04-12T13:21:36.467Z</time></trkpt><trkpt lat="45.4414386" lon="13.6572165"><ele>148.14285714285714</ele><time>2026-04-12T13:21:37.462Z</time></trkpt><trkpt lat="45.4415017" lon="13.6571717"><ele>148.28571428571428</ele><time>2026-04-12T13:21:38.464Z</time></trkpt><trkpt lat="45.4415621" lon="13.6571284"><ele>148.42857142857142</ele><time>2026-04-12T13:21:39.467Z</time></trkpt><trkpt lat="45.4416252" lon="13.6570824"><ele>148.57142857142856</ele><time>2026-04-12T13:21:40.47Z</time></trkpt><trkpt lat="45.4416835" lon="13.6570445"><ele>148.7142857142857</ele><time>2026-04-12T13:21:41.465Z</time></trkpt><trkpt lat="45.441776" lon="13.6570063"><ele>148.85714285714286</ele><time>2026-04-12T13:21:43.467Z</time></trkpt><trkpt lat="45.441844" lon="13.6569786"><ele>149.0</ele><time>2026-04-12T13:21:46.471Z</time></trkpt><trkpt lat="45.4418928" lon="13.6568833"><ele>149.0</ele><time>2026-04-12T13:22:03.466Z</time></trkpt><trkpt lat="45.4420006" lon="13.656799"><ele>149.0</ele><time>2026-04-12T13:22:05.467Z</time></trkpt><trkpt lat="45.4420687" lon="13.6567527"><ele>149.0</ele><time>2026-04-12T13:22:06.476Z</time></trkpt><trkpt lat="45.4421388" lon="13.6567103"><ele>149.0</ele><time>2026-04-12T13:22:07.466Z</time></trkpt><trkpt lat="45.4422049" lon="13.6566645"><ele>149.0</ele><time>2026-04-12T13:22:08.469Z</time></trkpt><trkpt lat="45.4422632" lon="13.6566195"><ele>149.0</ele><time>2026-04-12T13:22:09.463Z</time></trkpt><trkpt lat="45.4423503" lon="13.65654"><ele>157.0</ele><time>2026-04-12T13:22:11.462Z</time></trkpt><trkpt lat="45.4424048" lon="13.6564725"><ele>157.0</ele><time>2026-04-12T13:22:13.474Z</time></trkpt><trkpt lat="45.4424666" lon="13.6564196"><ele>157.0</ele><time>2026-04-12T13:22:16.469Z</time></trkpt><trkpt lat="45.4425316" lon="13.6563657"><ele>157.0</ele><time>2026-04-12T13:22:20.475Z</time></trkpt></trkseg></trk></gpx>